<?xml version="1.0" encoding="UTF-8" standalone="no" ?>
<gpx xmlns="http://www.topografix.com/GPX/1/1" xmlns:xsi="http://www.w3.org/2001/XMLSchema-instance" xsi:schemaLocation="http://www.topografix.com/GPX/1/1 http://www.topografix.com/GPX/1/1/gpx.xsd" version="1.1" creator="VisuGPX - https://www.visugpx.com">
  <metadata>
    <name>Rando VTT Saint Mars de Coutais 04/09/2011 (parcours 38km)</name>
    <desc><![CDATA[Randonnée organisée par l'OGEC Ste Thérèse.

Attention, certain passages sont en propriétés privées.]]></desc>
  </metadata>
  <trk>
    <name><![CDATA[Saint-mars-vtt_2011-09-04 08:40]]></name>
    <desc><![CDATA[]]></desc>
    <trkseg>
      <trkpt lat="47.10922" lon="-1.73139">
        <ele>67</ele>
        <time>2011-09-04T06:40:03Z</time>
      </trkpt>
      <trkpt lat="47.10922" lon="-1.73139">
        <ele>67</ele>
        <time>2011-09-04T06:40:03Z</time>
      </trkpt>
      <trkpt lat="47.10922" lon="-1.73139">
        <ele>66</ele>
        <time>2011-09-04T06:40:11Z</time>
      </trkpt>
      <trkpt lat="47.10929" lon="-1.73133">
        <ele>64</ele>
        <time>2011-09-04T06:40:45Z</time>
      </trkpt>
      <trkpt lat="47.10925" lon="-1.73142">
        <ele>69</ele>
        <time>2011-09-04T06:46:43Z</time>
      </trkpt>
      <trkpt lat="47.10916" lon="-1.73136">
        <ele>69</ele>
        <time>2011-09-04T06:46:51Z</time>
      </trkpt>
      <trkpt lat="47.10912" lon="-1.73132">
        <ele>69</ele>
        <time>2011-09-04T06:46:53Z</time>
      </trkpt>
      <trkpt lat="47.10908" lon="-1.73128">
        <ele>69</ele>
        <time>2011-09-04T06:46:55Z</time>
      </trkpt>
      <trkpt lat="47.10903" lon="-1.73126">
        <ele>70</ele>
        <time>2011-09-04T06:46:57Z</time>
      </trkpt>
      <trkpt lat="47.10896" lon="-1.73126">
        <ele>71</ele>
        <time>2011-09-04T06:46:59Z</time>
      </trkpt>
      <trkpt lat="47.10887" lon="-1.73131">
        <ele>71</ele>
        <time>2011-09-04T06:47:01Z</time>
      </trkpt>
      <trkpt lat="47.10885" lon="-1.73139">
        <ele>76</ele>
        <time>2011-09-04T06:47:05Z</time>
      </trkpt>
      <trkpt lat="47.1088" lon="-1.73147">
        <ele>79</ele>
        <time>2011-09-04T06:47:07Z</time>
      </trkpt>
      <trkpt lat="47.10876" lon="-1.73159">
        <ele>80</ele>
        <time>2011-09-04T06:47:09Z</time>
      </trkpt>
      <trkpt lat="47.10875" lon="-1.73171">
        <ele>82</ele>
        <time>2011-09-04T06:47:11Z</time>
      </trkpt>
      <trkpt lat="47.10876" lon="-1.73181">
        <ele>82</ele>
        <time>2011-09-04T06:47:13Z</time>
      </trkpt>
      <trkpt lat="47.10877" lon="-1.73191">
        <ele>83</ele>
        <time>2011-09-04T06:47:15Z</time>
      </trkpt>
      <trkpt lat="47.10878" lon="-1.73199">
        <ele>83</ele>
        <time>2011-09-04T06:47:17Z</time>
      </trkpt>
      <trkpt lat="47.1088" lon="-1.73205">
        <ele>82</ele>
        <time>2011-09-04T06:47:21Z</time>
      </trkpt>
      <trkpt lat="47.10878" lon="-1.73215">
        <ele>81</ele>
        <time>2011-09-04T06:47:24Z</time>
      </trkpt>
      <trkpt lat="47.10875" lon="-1.7322">
        <ele>80</ele>
        <time>2011-09-04T06:47:25Z</time>
      </trkpt>
      <trkpt lat="47.10871" lon="-1.73227">
        <ele>80</ele>
        <time>2011-09-04T06:47:27Z</time>
      </trkpt>
      <trkpt lat="47.10867" lon="-1.73233">
        <ele>79</ele>
        <time>2011-09-04T06:47:29Z</time>
      </trkpt>
      <trkpt lat="47.10861" lon="-1.73237">
        <ele>78</ele>
        <time>2011-09-04T06:47:31Z</time>
      </trkpt>
      <trkpt lat="47.10858" lon="-1.73241">
        <ele>78</ele>
        <time>2011-09-04T06:47:33Z</time>
      </trkpt>
      <trkpt lat="47.10852" lon="-1.73242">
        <ele>78</ele>
        <time>2011-09-04T06:47:36Z</time>
      </trkpt>
      <trkpt lat="47.10848" lon="-1.73244">
        <ele>75</ele>
        <time>2011-09-04T06:47:47Z</time>
      </trkpt>
      <trkpt lat="47.10843" lon="-1.73249">
        <ele>72</ele>
        <time>2011-09-04T06:47:59Z</time>
      </trkpt>
      <trkpt lat="47.10843" lon="-1.73256">
        <ele>70</ele>
        <time>2011-09-04T06:48:55Z</time>
      </trkpt>
      <trkpt lat="47.10849" lon="-1.73254">
        <ele>64</ele>
        <time>2011-09-04T06:49:05Z</time>
      </trkpt>
      <trkpt lat="47.10854" lon="-1.73249">
        <ele>64</ele>
        <time>2011-09-04T06:49:07Z</time>
      </trkpt>
      <trkpt lat="47.10859" lon="-1.73248">
        <ele>64</ele>
        <time>2011-09-04T06:49:09Z</time>
      </trkpt>
      <trkpt lat="47.10866" lon="-1.73242">
        <ele>64</ele>
        <time>2011-09-04T06:49:11Z</time>
      </trkpt>
      <trkpt lat="47.10869" lon="-1.73238">
        <ele>64</ele>
        <time>2011-09-04T06:49:12Z</time>
      </trkpt>
      <trkpt lat="47.10875" lon="-1.73228">
        <ele>64</ele>
        <time>2011-09-04T06:49:14Z</time>
      </trkpt>
      <trkpt lat="47.10879" lon="-1.73223">
        <ele>65</ele>
        <time>2011-09-04T06:49:16Z</time>
      </trkpt>
      <trkpt lat="47.10883" lon="-1.7322">
        <ele>64</ele>
        <time>2011-09-04T06:49:19Z</time>
      </trkpt>
      <trkpt lat="47.10881" lon="-1.73214">
        <ele>65</ele>
        <time>2011-09-04T06:49:23Z</time>
      </trkpt>
      <trkpt lat="47.10877" lon="-1.73207">
        <ele>65</ele>
        <time>2011-09-04T06:49:25Z</time>
      </trkpt>
      <trkpt lat="47.10874" lon="-1.73197">
        <ele>64</ele>
        <time>2011-09-04T06:49:27Z</time>
      </trkpt>
      <trkpt lat="47.10869" lon="-1.73187">
        <ele>64</ele>
        <time>2011-09-04T06:49:29Z</time>
      </trkpt>
      <trkpt lat="47.10869" lon="-1.73176">
        <ele>65</ele>
        <time>2011-09-04T06:49:31Z</time>
      </trkpt>
      <trkpt lat="47.10872" lon="-1.73164">
        <ele>65</ele>
        <time>2011-09-04T06:49:33Z</time>
      </trkpt>
      <trkpt lat="47.10876" lon="-1.73154">
        <ele>65</ele>
        <time>2011-09-04T06:49:35Z</time>
      </trkpt>
      <trkpt lat="47.10881" lon="-1.73146">
        <ele>65</ele>
        <time>2011-09-04T06:49:37Z</time>
      </trkpt>
      <trkpt lat="47.10888" lon="-1.73141">
        <ele>65</ele>
        <time>2011-09-04T06:49:39Z</time>
      </trkpt>
      <trkpt lat="47.10894" lon="-1.73138">
        <ele>66</ele>
        <time>2011-09-04T06:49:41Z</time>
      </trkpt>
      <trkpt lat="47.10899" lon="-1.73134">
        <ele>67</ele>
        <time>2011-09-04T06:49:43Z</time>
      </trkpt>
      <trkpt lat="47.10903" lon="-1.73136">
        <ele>70</ele>
        <time>2011-09-04T06:49:46Z</time>
      </trkpt>
      <trkpt lat="47.10906" lon="-1.73142">
        <ele>72</ele>
        <time>2011-09-04T06:49:49Z</time>
      </trkpt>
      <trkpt lat="47.10911" lon="-1.73146">
        <ele>72</ele>
        <time>2011-09-04T06:49:52Z</time>
      </trkpt>
      <trkpt lat="47.10916" lon="-1.73147">
        <ele>69</ele>
        <time>2011-09-04T06:49:56Z</time>
      </trkpt>
      <trkpt lat="47.10913" lon="-1.73136">
        <ele>62</ele>
        <time>2011-09-04T06:50:32Z</time>
      </trkpt>
      <trkpt lat="47.1091" lon="-1.73129">
        <ele>62</ele>
        <time>2011-09-04T06:50:35Z</time>
      </trkpt>
      <trkpt lat="47.10906" lon="-1.73125">
        <ele>63</ele>
        <time>2011-09-04T06:50:37Z</time>
      </trkpt>
      <trkpt lat="47.10901" lon="-1.73122">
        <ele>67</ele>
        <time>2011-09-04T06:50:41Z</time>
      </trkpt>
      <trkpt lat="47.10895" lon="-1.73123">
        <ele>69</ele>
        <time>2011-09-04T06:50:44Z</time>
      </trkpt>
      <trkpt lat="47.10889" lon="-1.73124">
        <ele>68</ele>
        <time>2011-09-04T06:50:46Z</time>
      </trkpt>
      <trkpt lat="47.10881" lon="-1.73123">
        <ele>68</ele>
        <time>2011-09-04T06:50:49Z</time>
      </trkpt>
      <trkpt lat="47.10876" lon="-1.73123">
        <ele>76</ele>
        <time>2011-09-04T06:50:56Z</time>
      </trkpt>
      <trkpt lat="47.10876" lon="-1.73132">
        <ele>85</ele>
        <time>2011-09-04T06:51:03Z</time>
      </trkpt>
      <trkpt lat="47.10872" lon="-1.73138">
        <ele>87</ele>
        <time>2011-09-04T06:51:05Z</time>
      </trkpt>
      <trkpt lat="47.10866" lon="-1.7314">
        <ele>88</ele>
        <time>2011-09-04T06:51:07Z</time>
      </trkpt>
      <trkpt lat="47.1086" lon="-1.73139">
        <ele>89</ele>
        <time>2011-09-04T06:51:09Z</time>
      </trkpt>
      <trkpt lat="47.10855" lon="-1.7314">
        <ele>90</ele>
        <time>2011-09-04T06:51:10Z</time>
      </trkpt>
      <trkpt lat="47.10847" lon="-1.73139">
        <ele>89</ele>
        <time>2011-09-04T06:51:12Z</time>
      </trkpt>
      <trkpt lat="47.1084" lon="-1.73138">
        <ele>89</ele>
        <time>2011-09-04T06:51:14Z</time>
      </trkpt>
      <trkpt lat="47.10835" lon="-1.73139">
        <ele>89</ele>
        <time>2011-09-04T06:51:15Z</time>
      </trkpt>
      <trkpt lat="47.10828" lon="-1.73138">
        <ele>88</ele>
        <time>2011-09-04T06:51:17Z</time>
      </trkpt>
      <trkpt lat="47.10823" lon="-1.73138">
        <ele>88</ele>
        <time>2011-09-04T06:51:18Z</time>
      </trkpt>
      <trkpt lat="47.10813" lon="-1.73137">
        <ele>87</ele>
        <time>2011-09-04T06:51:20Z</time>
      </trkpt>
      <trkpt lat="47.10808" lon="-1.73137">
        <ele>87</ele>
        <time>2011-09-04T06:51:21Z</time>
      </trkpt>
      <trkpt lat="47.10803" lon="-1.73136">
        <ele>86</ele>
        <time>2011-09-04T06:51:22Z</time>
      </trkpt>
      <trkpt lat="47.10798" lon="-1.73135">
        <ele>86</ele>
        <time>2011-09-04T06:51:23Z</time>
      </trkpt>
      <trkpt lat="47.10794" lon="-1.73134">
        <ele>85</ele>
        <time>2011-09-04T06:51:24Z</time>
      </trkpt>
      <trkpt lat="47.10789" lon="-1.73134">
        <ele>84</ele>
        <time>2011-09-04T06:51:25Z</time>
      </trkpt>
      <trkpt lat="47.10784" lon="-1.73135">
        <ele>84</ele>
        <time>2011-09-04T06:51:26Z</time>
      </trkpt>
      <trkpt lat="47.10776" lon="-1.73137">
        <ele>82</ele>
        <time>2011-09-04T06:51:28Z</time>
      </trkpt>
      <trkpt lat="47.10772" lon="-1.73141">
        <ele>82</ele>
        <time>2011-09-04T06:51:29Z</time>
      </trkpt>
      <trkpt lat="47.10768" lon="-1.73146">
        <ele>81</ele>
        <time>2011-09-04T06:51:30Z</time>
      </trkpt>
      <trkpt lat="47.10765" lon="-1.73152">
        <ele>80</ele>
        <time>2011-09-04T06:51:31Z</time>
      </trkpt>
      <trkpt lat="47.10762" lon="-1.73158">
        <ele>80</ele>
        <time>2011-09-04T06:51:32Z</time>
      </trkpt>
      <trkpt lat="47.10759" lon="-1.73164">
        <ele>79</ele>
        <time>2011-09-04T06:51:33Z</time>
      </trkpt>
      <trkpt lat="47.10757" lon="-1.73171">
        <ele>79</ele>
        <time>2011-09-04T06:51:34Z</time>
      </trkpt>
      <trkpt lat="47.10754" lon="-1.73178">
        <ele>78</ele>
        <time>2011-09-04T06:51:35Z</time>
      </trkpt>
      <trkpt lat="47.10751" lon="-1.73185">
        <ele>77</ele>
        <time>2011-09-04T06:51:36Z</time>
      </trkpt>
      <trkpt lat="47.10749" lon="-1.73193">
        <ele>77</ele>
        <time>2011-09-04T06:51:37Z</time>
      </trkpt>
      <trkpt lat="47.10746" lon="-1.732">
        <ele>77</ele>
        <time>2011-09-04T06:51:38Z</time>
      </trkpt>
      <trkpt lat="47.10745" lon="-1.73208">
        <ele>76</ele>
        <time>2011-09-04T06:51:39Z</time>
      </trkpt>
      <trkpt lat="47.10743" lon="-1.73215">
        <ele>75</ele>
        <time>2011-09-04T06:51:40Z</time>
      </trkpt>
      <trkpt lat="47.10742" lon="-1.73222">
        <ele>75</ele>
        <time>2011-09-04T06:51:41Z</time>
      </trkpt>
      <trkpt lat="47.1074" lon="-1.73229">
        <ele>75</ele>
        <time>2011-09-04T06:51:42Z</time>
      </trkpt>
      <trkpt lat="47.10738" lon="-1.73236">
        <ele>74</ele>
        <time>2011-09-04T06:51:43Z</time>
      </trkpt>
      <trkpt lat="47.10737" lon="-1.73242">
        <ele>74</ele>
        <time>2011-09-04T06:51:44Z</time>
      </trkpt>
      <trkpt lat="47.10735" lon="-1.73249">
        <ele>73</ele>
        <time>2011-09-04T06:51:45Z</time>
      </trkpt>
      <trkpt lat="47.10734" lon="-1.73256">
        <ele>73</ele>
        <time>2011-09-04T06:51:46Z</time>
      </trkpt>
      <trkpt lat="47.10733" lon="-1.73263">
        <ele>73</ele>
        <time>2011-09-04T06:51:47Z</time>
      </trkpt>
      <trkpt lat="47.10732" lon="-1.7327">
        <ele>72</ele>
        <time>2011-09-04T06:51:48Z</time>
      </trkpt>
      <trkpt lat="47.1073" lon="-1.73277">
        <ele>72</ele>
        <time>2011-09-04T06:51:49Z</time>
      </trkpt>
      <trkpt lat="47.10729" lon="-1.73283">
        <ele>72</ele>
        <time>2011-09-04T06:51:50Z</time>
      </trkpt>
      <trkpt lat="47.10728" lon="-1.73289">
        <ele>72</ele>
        <time>2011-09-04T06:51:51Z</time>
      </trkpt>
      <trkpt lat="47.10726" lon="-1.73301">
        <ele>71</ele>
        <time>2011-09-04T06:51:53Z</time>
      </trkpt>
      <trkpt lat="47.10724" lon="-1.73309">
        <ele>71</ele>
        <time>2011-09-04T06:51:55Z</time>
      </trkpt>
      <trkpt lat="47.10722" lon="-1.73317">
        <ele>70</ele>
        <time>2011-09-04T06:51:58Z</time>
      </trkpt>
      <trkpt lat="47.10718" lon="-1.73319">
        <ele>70</ele>
        <time>2011-09-04T06:52:01Z</time>
      </trkpt>
      <trkpt lat="47.10713" lon="-1.73316">
        <ele>71</ele>
        <time>2011-09-04T06:52:03Z</time>
      </trkpt>
      <trkpt lat="47.10706" lon="-1.73312">
        <ele>70</ele>
        <time>2011-09-04T06:52:05Z</time>
      </trkpt>
      <trkpt lat="47.107" lon="-1.73309">
        <ele>71</ele>
        <time>2011-09-04T06:52:07Z</time>
      </trkpt>
      <trkpt lat="47.10694" lon="-1.73306">
        <ele>71</ele>
        <time>2011-09-04T06:52:09Z</time>
      </trkpt>
      <trkpt lat="47.10687" lon="-1.73303">
        <ele>71</ele>
        <time>2011-09-04T06:52:11Z</time>
      </trkpt>
      <trkpt lat="47.1068" lon="-1.73301">
        <ele>71</ele>
        <time>2011-09-04T06:52:13Z</time>
      </trkpt>
      <trkpt lat="47.10672" lon="-1.73297">
        <ele>70</ele>
        <time>2011-09-04T06:52:15Z</time>
      </trkpt>
      <trkpt lat="47.10664" lon="-1.73293">
        <ele>70</ele>
        <time>2011-09-04T06:52:17Z</time>
      </trkpt>
      <trkpt lat="47.10656" lon="-1.73287">
        <ele>70</ele>
        <time>2011-09-04T06:52:19Z</time>
      </trkpt>
      <trkpt lat="47.10648" lon="-1.73282">
        <ele>69</ele>
        <time>2011-09-04T06:52:21Z</time>
      </trkpt>
      <trkpt lat="47.1064" lon="-1.73284">
        <ele>70</ele>
        <time>2011-09-04T06:52:23Z</time>
      </trkpt>
      <trkpt lat="47.10633" lon="-1.73292">
        <ele>69</ele>
        <time>2011-09-04T06:52:25Z</time>
      </trkpt>
      <trkpt lat="47.1063" lon="-1.733">
        <ele>71</ele>
        <time>2011-09-04T06:52:27Z</time>
      </trkpt>
      <trkpt lat="47.10626" lon="-1.7331">
        <ele>71</ele>
        <time>2011-09-04T06:52:29Z</time>
      </trkpt>
      <trkpt lat="47.10624" lon="-1.73317">
        <ele>71</ele>
        <time>2011-09-04T06:52:30Z</time>
      </trkpt>
      <trkpt lat="47.10621" lon="-1.73323">
        <ele>71</ele>
        <time>2011-09-04T06:52:31Z</time>
      </trkpt>
      <trkpt lat="47.10617" lon="-1.73329">
        <ele>70</ele>
        <time>2011-09-04T06:52:32Z</time>
      </trkpt>
      <trkpt lat="47.10613" lon="-1.73334">
        <ele>70</ele>
        <time>2011-09-04T06:52:33Z</time>
      </trkpt>
      <trkpt lat="47.10611" lon="-1.7334">
        <ele>69</ele>
        <time>2011-09-04T06:52:34Z</time>
      </trkpt>
      <trkpt lat="47.10609" lon="-1.73347">
        <ele>69</ele>
        <time>2011-09-04T06:52:35Z</time>
      </trkpt>
      <trkpt lat="47.10608" lon="-1.73355">
        <ele>69</ele>
        <time>2011-09-04T06:52:36Z</time>
      </trkpt>
      <trkpt lat="47.10608" lon="-1.73364">
        <ele>69</ele>
        <time>2011-09-04T06:52:37Z</time>
      </trkpt>
      <trkpt lat="47.10608" lon="-1.73372">
        <ele>69</ele>
        <time>2011-09-04T06:52:38Z</time>
      </trkpt>
      <trkpt lat="47.10608" lon="-1.7338">
        <ele>69</ele>
        <time>2011-09-04T06:52:39Z</time>
      </trkpt>
      <trkpt lat="47.1061" lon="-1.73388">
        <ele>69</ele>
        <time>2011-09-04T06:52:40Z</time>
      </trkpt>
      <trkpt lat="47.10613" lon="-1.73395">
        <ele>69</ele>
        <time>2011-09-04T06:52:41Z</time>
      </trkpt>
      <trkpt lat="47.10616" lon="-1.734">
        <ele>69</ele>
        <time>2011-09-04T06:52:42Z</time>
      </trkpt>
      <trkpt lat="47.1062" lon="-1.73406">
        <ele>69</ele>
        <time>2011-09-04T06:52:43Z</time>
      </trkpt>
      <trkpt lat="47.10624" lon="-1.73412">
        <ele>69</ele>
        <time>2011-09-04T06:52:44Z</time>
      </trkpt>
      <trkpt lat="47.10628" lon="-1.73417">
        <ele>68</ele>
        <time>2011-09-04T06:52:45Z</time>
      </trkpt>
      <trkpt lat="47.10633" lon="-1.73421">
        <ele>68</ele>
        <time>2011-09-04T06:52:46Z</time>
      </trkpt>
      <trkpt lat="47.10638" lon="-1.73426">
        <ele>68</ele>
        <time>2011-09-04T06:52:47Z</time>
      </trkpt>
      <trkpt lat="47.10642" lon="-1.73429">
        <ele>68</ele>
        <time>2011-09-04T06:52:48Z</time>
      </trkpt>
      <trkpt lat="47.10646" lon="-1.73434">
        <ele>68</ele>
        <time>2011-09-04T06:52:49Z</time>
      </trkpt>
      <trkpt lat="47.1065" lon="-1.73438">
        <ele>67</ele>
        <time>2011-09-04T06:52:50Z</time>
      </trkpt>
      <trkpt lat="47.10654" lon="-1.73443">
        <ele>67</ele>
        <time>2011-09-04T06:52:51Z</time>
      </trkpt>
      <trkpt lat="47.10657" lon="-1.73449">
        <ele>67</ele>
        <time>2011-09-04T06:52:52Z</time>
      </trkpt>
      <trkpt lat="47.10661" lon="-1.7346">
        <ele>66</ele>
        <time>2011-09-04T06:52:54Z</time>
      </trkpt>
      <trkpt lat="47.1066" lon="-1.7347">
        <ele>66</ele>
        <time>2011-09-04T06:52:56Z</time>
      </trkpt>
      <trkpt lat="47.10655" lon="-1.73479">
        <ele>66</ele>
        <time>2011-09-04T06:52:58Z</time>
      </trkpt>
      <trkpt lat="47.10652" lon="-1.73485">
        <ele>66</ele>
        <time>2011-09-04T06:52:59Z</time>
      </trkpt>
      <trkpt lat="47.10648" lon="-1.7349">
        <ele>65</ele>
        <time>2011-09-04T06:53:00Z</time>
      </trkpt>
      <trkpt lat="47.10644" lon="-1.73494">
        <ele>65</ele>
        <time>2011-09-04T06:53:01Z</time>
      </trkpt>
      <trkpt lat="47.1064" lon="-1.73499">
        <ele>65</ele>
        <time>2011-09-04T06:53:02Z</time>
      </trkpt>
      <trkpt lat="47.10635" lon="-1.73504">
        <ele>65</ele>
        <time>2011-09-04T06:53:03Z</time>
      </trkpt>
      <trkpt lat="47.10632" lon="-1.73509">
        <ele>65</ele>
        <time>2011-09-04T06:53:04Z</time>
      </trkpt>
      <trkpt lat="47.10628" lon="-1.73515">
        <ele>64</ele>
        <time>2011-09-04T06:53:05Z</time>
      </trkpt>
      <trkpt lat="47.10624" lon="-1.7352">
        <ele>64</ele>
        <time>2011-09-04T06:53:06Z</time>
      </trkpt>
      <trkpt lat="47.10619" lon="-1.73526">
        <ele>64</ele>
        <time>2011-09-04T06:53:07Z</time>
      </trkpt>
      <trkpt lat="47.10616" lon="-1.7353">
        <ele>64</ele>
        <time>2011-09-04T06:53:08Z</time>
      </trkpt>
      <trkpt lat="47.10612" lon="-1.73535">
        <ele>64</ele>
        <time>2011-09-04T06:53:09Z</time>
      </trkpt>
      <trkpt lat="47.10605" lon="-1.73544">
        <ele>64</ele>
        <time>2011-09-04T06:53:11Z</time>
      </trkpt>
      <trkpt lat="47.10602" lon="-1.73556">
        <ele>64</ele>
        <time>2011-09-04T06:53:13Z</time>
      </trkpt>
      <trkpt lat="47.10601" lon="-1.73568">
        <ele>63</ele>
        <time>2011-09-04T06:53:15Z</time>
      </trkpt>
      <trkpt lat="47.10604" lon="-1.73579">
        <ele>63</ele>
        <time>2011-09-04T06:53:17Z</time>
      </trkpt>
      <trkpt lat="47.10609" lon="-1.73588">
        <ele>63</ele>
        <time>2011-09-04T06:53:19Z</time>
      </trkpt>
      <trkpt lat="47.10612" lon="-1.73592">
        <ele>63</ele>
        <time>2011-09-04T06:53:20Z</time>
      </trkpt>
      <trkpt lat="47.10616" lon="-1.73597">
        <ele>63</ele>
        <time>2011-09-04T06:53:21Z</time>
      </trkpt>
      <trkpt lat="47.10619" lon="-1.73603">
        <ele>63</ele>
        <time>2011-09-04T06:53:22Z</time>
      </trkpt>
      <trkpt lat="47.10625" lon="-1.73612">
        <ele>64</ele>
        <time>2011-09-04T06:53:24Z</time>
      </trkpt>
      <trkpt lat="47.10628" lon="-1.73617">
        <ele>65</ele>
        <time>2011-09-04T06:53:25Z</time>
      </trkpt>
      <trkpt lat="47.10632" lon="-1.73622">
        <ele>65</ele>
        <time>2011-09-04T06:53:26Z</time>
      </trkpt>
      <trkpt lat="47.10635" lon="-1.73627">
        <ele>64</ele>
        <time>2011-09-04T06:53:27Z</time>
      </trkpt>
      <trkpt lat="47.10638" lon="-1.73632">
        <ele>65</ele>
        <time>2011-09-04T06:53:28Z</time>
      </trkpt>
      <trkpt lat="47.10642" lon="-1.73638">
        <ele>65</ele>
        <time>2011-09-04T06:53:29Z</time>
      </trkpt>
      <trkpt lat="47.10646" lon="-1.73646">
        <ele>64</ele>
        <time>2011-09-04T06:53:31Z</time>
      </trkpt>
      <trkpt lat="47.1065" lon="-1.73652">
        <ele>64</ele>
        <time>2011-09-04T06:53:33Z</time>
      </trkpt>
      <trkpt lat="47.10654" lon="-1.73657">
        <ele>64</ele>
        <time>2011-09-04T06:53:36Z</time>
      </trkpt>
      <trkpt lat="47.10658" lon="-1.73661">
        <ele>64</ele>
        <time>2011-09-04T06:53:38Z</time>
      </trkpt>
      <trkpt lat="47.10663" lon="-1.73664">
        <ele>64</ele>
        <time>2011-09-04T06:53:40Z</time>
      </trkpt>
      <trkpt lat="47.10666" lon="-1.7367">
        <ele>64</ele>
        <time>2011-09-04T06:53:43Z</time>
      </trkpt>
      <trkpt lat="47.1066" lon="-1.73673">
        <ele>64</ele>
        <time>2011-09-04T06:53:46Z</time>
      </trkpt>
      <trkpt lat="47.10653" lon="-1.73676">
        <ele>64</ele>
        <time>2011-09-04T06:53:48Z</time>
      </trkpt>
      <trkpt lat="47.10645" lon="-1.7368">
        <ele>64</ele>
        <time>2011-09-04T06:53:50Z</time>
      </trkpt>
      <trkpt lat="47.10641" lon="-1.73684">
        <ele>64</ele>
        <time>2011-09-04T06:53:51Z</time>
      </trkpt>
      <trkpt lat="47.10634" lon="-1.73692">
        <ele>64</ele>
        <time>2011-09-04T06:53:53Z</time>
      </trkpt>
      <trkpt lat="47.1063" lon="-1.73696">
        <ele>64</ele>
        <time>2011-09-04T06:53:54Z</time>
      </trkpt>
      <trkpt lat="47.10627" lon="-1.73701">
        <ele>64</ele>
        <time>2011-09-04T06:53:55Z</time>
      </trkpt>
      <trkpt lat="47.10621" lon="-1.7371">
        <ele>65</ele>
        <time>2011-09-04T06:53:57Z</time>
      </trkpt>
      <trkpt lat="47.10618" lon="-1.73716">
        <ele>65</ele>
        <time>2011-09-04T06:53:58Z</time>
      </trkpt>
      <trkpt lat="47.10614" lon="-1.73722">
        <ele>65</ele>
        <time>2011-09-04T06:53:59Z</time>
      </trkpt>
      <trkpt lat="47.10611" lon="-1.73728">
        <ele>65</ele>
        <time>2011-09-04T06:54:00Z</time>
      </trkpt>
      <trkpt lat="47.10607" lon="-1.73735">
        <ele>65</ele>
        <time>2011-09-04T06:54:01Z</time>
      </trkpt>
      <trkpt lat="47.10603" lon="-1.73742">
        <ele>65</ele>
        <time>2011-09-04T06:54:02Z</time>
      </trkpt>
      <trkpt lat="47.106" lon="-1.73748">
        <ele>65</ele>
        <time>2011-09-04T06:54:03Z</time>
      </trkpt>
      <trkpt lat="47.10596" lon="-1.73754">
        <ele>65</ele>
        <time>2011-09-04T06:54:04Z</time>
      </trkpt>
      <trkpt lat="47.10594" lon="-1.73761">
        <ele>65</ele>
        <time>2011-09-04T06:54:05Z</time>
      </trkpt>
      <trkpt lat="47.1059" lon="-1.73767">
        <ele>65</ele>
        <time>2011-09-04T06:54:06Z</time>
      </trkpt>
      <trkpt lat="47.10588" lon="-1.73773">
        <ele>65</ele>
        <time>2011-09-04T06:54:07Z</time>
      </trkpt>
      <trkpt lat="47.10585" lon="-1.7378">
        <ele>65</ele>
        <time>2011-09-04T06:54:08Z</time>
      </trkpt>
      <trkpt lat="47.10582" lon="-1.73787">
        <ele>65</ele>
        <time>2011-09-04T06:54:09Z</time>
      </trkpt>
      <trkpt lat="47.10579" lon="-1.73793">
        <ele>65</ele>
        <time>2011-09-04T06:54:10Z</time>
      </trkpt>
      <trkpt lat="47.10575" lon="-1.738">
        <ele>66</ele>
        <time>2011-09-04T06:54:11Z</time>
      </trkpt>
      <trkpt lat="47.10571" lon="-1.73806">
        <ele>66</ele>
        <time>2011-09-04T06:54:12Z</time>
      </trkpt>
      <trkpt lat="47.10569" lon="-1.73812">
        <ele>66</ele>
        <time>2011-09-04T06:54:13Z</time>
      </trkpt>
      <trkpt lat="47.10565" lon="-1.73817">
        <ele>67</ele>
        <time>2011-09-04T06:54:14Z</time>
      </trkpt>
      <trkpt lat="47.10561" lon="-1.73824">
        <ele>67</ele>
        <time>2011-09-04T06:54:15Z</time>
      </trkpt>
      <trkpt lat="47.10558" lon="-1.73829">
        <ele>67</ele>
        <time>2011-09-04T06:54:16Z</time>
      </trkpt>
      <trkpt lat="47.10554" lon="-1.73836">
        <ele>67</ele>
        <time>2011-09-04T06:54:17Z</time>
      </trkpt>
      <trkpt lat="47.1055" lon="-1.73842">
        <ele>67</ele>
        <time>2011-09-04T06:54:18Z</time>
      </trkpt>
      <trkpt lat="47.10545" lon="-1.73848">
        <ele>67</ele>
        <time>2011-09-04T06:54:19Z</time>
      </trkpt>
      <trkpt lat="47.1054" lon="-1.73854">
        <ele>66</ele>
        <time>2011-09-04T06:54:20Z</time>
      </trkpt>
      <trkpt lat="47.10536" lon="-1.7386">
        <ele>66</ele>
        <time>2011-09-04T06:54:21Z</time>
      </trkpt>
      <trkpt lat="47.10532" lon="-1.73866">
        <ele>66</ele>
        <time>2011-09-04T06:54:22Z</time>
      </trkpt>
      <trkpt lat="47.10527" lon="-1.73871">
        <ele>66</ele>
        <time>2011-09-04T06:54:23Z</time>
      </trkpt>
      <trkpt lat="47.10522" lon="-1.73876">
        <ele>66</ele>
        <time>2011-09-04T06:54:24Z</time>
      </trkpt>
      <trkpt lat="47.10517" lon="-1.73881">
        <ele>66</ele>
        <time>2011-09-04T06:54:25Z</time>
      </trkpt>
      <trkpt lat="47.10513" lon="-1.73887">
        <ele>66</ele>
        <time>2011-09-04T06:54:26Z</time>
      </trkpt>
      <trkpt lat="47.10508" lon="-1.73892">
        <ele>66</ele>
        <time>2011-09-04T06:54:27Z</time>
      </trkpt>
      <trkpt lat="47.10503" lon="-1.73896">
        <ele>67</ele>
        <time>2011-09-04T06:54:28Z</time>
      </trkpt>
      <trkpt lat="47.10498" lon="-1.73901">
        <ele>67</ele>
        <time>2011-09-04T06:54:29Z</time>
      </trkpt>
      <trkpt lat="47.10492" lon="-1.73907">
        <ele>67</ele>
        <time>2011-09-04T06:54:30Z</time>
      </trkpt>
      <trkpt lat="47.10487" lon="-1.73913">
        <ele>66</ele>
        <time>2011-09-04T06:54:31Z</time>
      </trkpt>
      <trkpt lat="47.10482" lon="-1.7392">
        <ele>67</ele>
        <time>2011-09-04T06:54:32Z</time>
      </trkpt>
      <trkpt lat="47.10478" lon="-1.73927">
        <ele>67</ele>
        <time>2011-09-04T06:54:33Z</time>
      </trkpt>
      <trkpt lat="47.10473" lon="-1.73933">
        <ele>66</ele>
        <time>2011-09-04T06:54:34Z</time>
      </trkpt>
      <trkpt lat="47.10468" lon="-1.73939">
        <ele>66</ele>
        <time>2011-09-04T06:54:35Z</time>
      </trkpt>
      <trkpt lat="47.10463" lon="-1.73944">
        <ele>66</ele>
        <time>2011-09-04T06:54:36Z</time>
      </trkpt>
      <trkpt lat="47.10458" lon="-1.7395">
        <ele>66</ele>
        <time>2011-09-04T06:54:37Z</time>
      </trkpt>
      <trkpt lat="47.10452" lon="-1.73954">
        <ele>66</ele>
        <time>2011-09-04T06:54:38Z</time>
      </trkpt>
      <trkpt lat="47.10448" lon="-1.73959">
        <ele>66</ele>
        <time>2011-09-04T06:54:39Z</time>
      </trkpt>
      <trkpt lat="47.10442" lon="-1.73964">
        <ele>66</ele>
        <time>2011-09-04T06:54:40Z</time>
      </trkpt>
      <trkpt lat="47.10436" lon="-1.73969">
        <ele>66</ele>
        <time>2011-09-04T06:54:41Z</time>
      </trkpt>
      <trkpt lat="47.1043" lon="-1.73974">
        <ele>66</ele>
        <time>2011-09-04T06:54:42Z</time>
      </trkpt>
      <trkpt lat="47.10426" lon="-1.73979">
        <ele>66</ele>
        <time>2011-09-04T06:54:43Z</time>
      </trkpt>
      <trkpt lat="47.1042" lon="-1.73986">
        <ele>65</ele>
        <time>2011-09-04T06:54:44Z</time>
      </trkpt>
      <trkpt lat="47.10416" lon="-1.73992">
        <ele>65</ele>
        <time>2011-09-04T06:54:45Z</time>
      </trkpt>
      <trkpt lat="47.10411" lon="-1.73997">
        <ele>65</ele>
        <time>2011-09-04T06:54:46Z</time>
      </trkpt>
      <trkpt lat="47.10406" lon="-1.74003">
        <ele>65</ele>
        <time>2011-09-04T06:54:47Z</time>
      </trkpt>
      <trkpt lat="47.10402" lon="-1.74009">
        <ele>65</ele>
        <time>2011-09-04T06:54:48Z</time>
      </trkpt>
      <trkpt lat="47.10397" lon="-1.74015">
        <ele>65</ele>
        <time>2011-09-04T06:54:49Z</time>
      </trkpt>
      <trkpt lat="47.10391" lon="-1.7402">
        <ele>65</ele>
        <time>2011-09-04T06:54:50Z</time>
      </trkpt>
      <trkpt lat="47.10386" lon="-1.74025">
        <ele>65</ele>
        <time>2011-09-04T06:54:51Z</time>
      </trkpt>
      <trkpt lat="47.10382" lon="-1.74031">
        <ele>65</ele>
        <time>2011-09-04T06:54:52Z</time>
      </trkpt>
      <trkpt lat="47.10377" lon="-1.74037">
        <ele>65</ele>
        <time>2011-09-04T06:54:53Z</time>
      </trkpt>
      <trkpt lat="47.10373" lon="-1.74044">
        <ele>65</ele>
        <time>2011-09-04T06:54:54Z</time>
      </trkpt>
      <trkpt lat="47.10368" lon="-1.7405">
        <ele>65</ele>
        <time>2011-09-04T06:54:55Z</time>
      </trkpt>
      <trkpt lat="47.10364" lon="-1.74054">
        <ele>66</ele>
        <time>2011-09-04T06:54:56Z</time>
      </trkpt>
      <trkpt lat="47.10359" lon="-1.7406">
        <ele>66</ele>
        <time>2011-09-04T06:54:57Z</time>
      </trkpt>
      <trkpt lat="47.10354" lon="-1.74066">
        <ele>66</ele>
        <time>2011-09-04T06:54:58Z</time>
      </trkpt>
      <trkpt lat="47.1035" lon="-1.74071">
        <ele>66</ele>
        <time>2011-09-04T06:54:59Z</time>
      </trkpt>
      <trkpt lat="47.10346" lon="-1.74076">
        <ele>66</ele>
        <time>2011-09-04T06:55:00Z</time>
      </trkpt>
      <trkpt lat="47.10343" lon="-1.74082">
        <ele>66</ele>
        <time>2011-09-04T06:55:01Z</time>
      </trkpt>
      <trkpt lat="47.10339" lon="-1.74088">
        <ele>66</ele>
        <time>2011-09-04T06:55:02Z</time>
      </trkpt>
      <trkpt lat="47.10336" lon="-1.74095">
        <ele>66</ele>
        <time>2011-09-04T06:55:03Z</time>
      </trkpt>
      <trkpt lat="47.10333" lon="-1.74101">
        <ele>66</ele>
        <time>2011-09-04T06:55:04Z</time>
      </trkpt>
      <trkpt lat="47.1033" lon="-1.74108">
        <ele>66</ele>
        <time>2011-09-04T06:55:05Z</time>
      </trkpt>
      <trkpt lat="47.10326" lon="-1.74114">
        <ele>66</ele>
        <time>2011-09-04T06:55:06Z</time>
      </trkpt>
      <trkpt lat="47.10324" lon="-1.74121">
        <ele>66</ele>
        <time>2011-09-04T06:55:07Z</time>
      </trkpt>
      <trkpt lat="47.10322" lon="-1.74129">
        <ele>66</ele>
        <time>2011-09-04T06:55:08Z</time>
      </trkpt>
      <trkpt lat="47.1032" lon="-1.74135">
        <ele>65</ele>
        <time>2011-09-04T06:55:09Z</time>
      </trkpt>
      <trkpt lat="47.10317" lon="-1.74142">
        <ele>66</ele>
        <time>2011-09-04T06:55:10Z</time>
      </trkpt>
      <trkpt lat="47.10315" lon="-1.74149">
        <ele>65</ele>
        <time>2011-09-04T06:55:11Z</time>
      </trkpt>
      <trkpt lat="47.10311" lon="-1.74156">
        <ele>66</ele>
        <time>2011-09-04T06:55:12Z</time>
      </trkpt>
      <trkpt lat="47.10309" lon="-1.74163">
        <ele>65</ele>
        <time>2011-09-04T06:55:13Z</time>
      </trkpt>
      <trkpt lat="47.10308" lon="-1.7417">
        <ele>65</ele>
        <time>2011-09-04T06:55:14Z</time>
      </trkpt>
      <trkpt lat="47.10305" lon="-1.74177">
        <ele>65</ele>
        <time>2011-09-04T06:55:15Z</time>
      </trkpt>
      <trkpt lat="47.10303" lon="-1.74184">
        <ele>66</ele>
        <time>2011-09-04T06:55:16Z</time>
      </trkpt>
      <trkpt lat="47.10301" lon="-1.74191">
        <ele>66</ele>
        <time>2011-09-04T06:55:17Z</time>
      </trkpt>
      <trkpt lat="47.103" lon="-1.74198">
        <ele>66</ele>
        <time>2011-09-04T06:55:18Z</time>
      </trkpt>
      <trkpt lat="47.10298" lon="-1.74205">
        <ele>66</ele>
        <time>2011-09-04T06:55:19Z</time>
      </trkpt>
      <trkpt lat="47.10296" lon="-1.74212">
        <ele>66</ele>
        <time>2011-09-04T06:55:20Z</time>
      </trkpt>
      <trkpt lat="47.10294" lon="-1.74218">
        <ele>66</ele>
        <time>2011-09-04T06:55:21Z</time>
      </trkpt>
      <trkpt lat="47.10292" lon="-1.74226">
        <ele>66</ele>
        <time>2011-09-04T06:55:22Z</time>
      </trkpt>
      <trkpt lat="47.10289" lon="-1.74232">
        <ele>66</ele>
        <time>2011-09-04T06:55:23Z</time>
      </trkpt>
      <trkpt lat="47.10284" lon="-1.74243">
        <ele>67</ele>
        <time>2011-09-04T06:55:25Z</time>
      </trkpt>
      <trkpt lat="47.1028" lon="-1.74249">
        <ele>67</ele>
        <time>2011-09-04T06:55:26Z</time>
      </trkpt>
      <trkpt lat="47.10277" lon="-1.74254">
        <ele>67</ele>
        <time>2011-09-04T06:55:27Z</time>
      </trkpt>
      <trkpt lat="47.10273" lon="-1.7426">
        <ele>67</ele>
        <time>2011-09-04T06:55:28Z</time>
      </trkpt>
      <trkpt lat="47.1027" lon="-1.74266">
        <ele>67</ele>
        <time>2011-09-04T06:55:29Z</time>
      </trkpt>
      <trkpt lat="47.10266" lon="-1.74272">
        <ele>67</ele>
        <time>2011-09-04T06:55:30Z</time>
      </trkpt>
      <trkpt lat="47.10262" lon="-1.74278">
        <ele>67</ele>
        <time>2011-09-04T06:55:31Z</time>
      </trkpt>
      <trkpt lat="47.10258" lon="-1.74283">
        <ele>67</ele>
        <time>2011-09-04T06:55:32Z</time>
      </trkpt>
      <trkpt lat="47.10255" lon="-1.74289">
        <ele>67</ele>
        <time>2011-09-04T06:55:33Z</time>
      </trkpt>
      <trkpt lat="47.10251" lon="-1.74294">
        <ele>66</ele>
        <time>2011-09-04T06:55:34Z</time>
      </trkpt>
      <trkpt lat="47.10246" lon="-1.74299">
        <ele>66</ele>
        <time>2011-09-04T06:55:35Z</time>
      </trkpt>
      <trkpt lat="47.10242" lon="-1.74304">
        <ele>66</ele>
        <time>2011-09-04T06:55:36Z</time>
      </trkpt>
      <trkpt lat="47.10237" lon="-1.74309">
        <ele>66</ele>
        <time>2011-09-04T06:55:37Z</time>
      </trkpt>
      <trkpt lat="47.10232" lon="-1.74313">
        <ele>66</ele>
        <time>2011-09-04T06:55:38Z</time>
      </trkpt>
      <trkpt lat="47.10227" lon="-1.74317">
        <ele>66</ele>
        <time>2011-09-04T06:55:39Z</time>
      </trkpt>
      <trkpt lat="47.10222" lon="-1.74321">
        <ele>66</ele>
        <time>2011-09-04T06:55:40Z</time>
      </trkpt>
      <trkpt lat="47.10218" lon="-1.74325">
        <ele>66</ele>
        <time>2011-09-04T06:55:41Z</time>
      </trkpt>
      <trkpt lat="47.10214" lon="-1.74329">
        <ele>66</ele>
        <time>2011-09-04T06:55:42Z</time>
      </trkpt>
      <trkpt lat="47.1021" lon="-1.74333">
        <ele>66</ele>
        <time>2011-09-04T06:55:43Z</time>
      </trkpt>
      <trkpt lat="47.10205" lon="-1.74337">
        <ele>66</ele>
        <time>2011-09-04T06:55:44Z</time>
      </trkpt>
      <trkpt lat="47.102" lon="-1.74341">
        <ele>66</ele>
        <time>2011-09-04T06:55:45Z</time>
      </trkpt>
      <trkpt lat="47.10196" lon="-1.74345">
        <ele>66</ele>
        <time>2011-09-04T06:55:46Z</time>
      </trkpt>
      <trkpt lat="47.10191" lon="-1.74348">
        <ele>66</ele>
        <time>2011-09-04T06:55:47Z</time>
      </trkpt>
      <trkpt lat="47.10187" lon="-1.74353">
        <ele>66</ele>
        <time>2011-09-04T06:55:48Z</time>
      </trkpt>
      <trkpt lat="47.10183" lon="-1.74358">
        <ele>66</ele>
        <time>2011-09-04T06:55:49Z</time>
      </trkpt>
      <trkpt lat="47.10178" lon="-1.74361">
        <ele>66</ele>
        <time>2011-09-04T06:55:50Z</time>
      </trkpt>
      <trkpt lat="47.10174" lon="-1.74365">
        <ele>66</ele>
        <time>2011-09-04T06:55:51Z</time>
      </trkpt>
      <trkpt lat="47.1017" lon="-1.74368">
        <ele>66</ele>
        <time>2011-09-04T06:55:52Z</time>
      </trkpt>
      <trkpt lat="47.10166" lon="-1.74372">
        <ele>66</ele>
        <time>2011-09-04T06:55:53Z</time>
      </trkpt>
      <trkpt lat="47.10158" lon="-1.7438">
        <ele>66</ele>
        <time>2011-09-04T06:55:55Z</time>
      </trkpt>
      <trkpt lat="47.10154" lon="-1.74384">
        <ele>66</ele>
        <time>2011-09-04T06:55:56Z</time>
      </trkpt>
      <trkpt lat="47.1015" lon="-1.74389">
        <ele>66</ele>
        <time>2011-09-04T06:55:57Z</time>
      </trkpt>
      <trkpt lat="47.10146" lon="-1.74393">
        <ele>66</ele>
        <time>2011-09-04T06:55:58Z</time>
      </trkpt>
      <trkpt lat="47.10142" lon="-1.74398">
        <ele>66</ele>
        <time>2011-09-04T06:55:59Z</time>
      </trkpt>
      <trkpt lat="47.10138" lon="-1.74402">
        <ele>66</ele>
        <time>2011-09-04T06:56:00Z</time>
      </trkpt>
      <trkpt lat="47.10133" lon="-1.74406">
        <ele>66</ele>
        <time>2011-09-04T06:56:01Z</time>
      </trkpt>
      <trkpt lat="47.10127" lon="-1.74414">
        <ele>66</ele>
        <time>2011-09-04T06:56:03Z</time>
      </trkpt>
      <trkpt lat="47.10124" lon="-1.74419">
        <ele>66</ele>
        <time>2011-09-04T06:56:04Z</time>
      </trkpt>
      <trkpt lat="47.10119" lon="-1.74424">
        <ele>66</ele>
        <time>2011-09-04T06:56:05Z</time>
      </trkpt>
      <trkpt lat="47.10115" lon="-1.74428">
        <ele>66</ele>
        <time>2011-09-04T06:56:06Z</time>
      </trkpt>
      <trkpt lat="47.10108" lon="-1.74436">
        <ele>67</ele>
        <time>2011-09-04T06:56:08Z</time>
      </trkpt>
      <trkpt lat="47.10105" lon="-1.74441">
        <ele>67</ele>
        <time>2011-09-04T06:56:09Z</time>
      </trkpt>
      <trkpt lat="47.10099" lon="-1.7445">
        <ele>68</ele>
        <time>2011-09-04T06:56:11Z</time>
      </trkpt>
      <trkpt lat="47.10095" lon="-1.74454">
        <ele>68</ele>
        <time>2011-09-04T06:56:12Z</time>
      </trkpt>
      <trkpt lat="47.10088" lon="-1.74462">
        <ele>69</ele>
        <time>2011-09-04T06:56:14Z</time>
      </trkpt>
      <trkpt lat="47.10084" lon="-1.74466">
        <ele>69</ele>
        <time>2011-09-04T06:56:15Z</time>
      </trkpt>
      <trkpt lat="47.10078" lon="-1.74473">
        <ele>70</ele>
        <time>2011-09-04T06:56:17Z</time>
      </trkpt>
      <trkpt lat="47.10074" lon="-1.74478">
        <ele>70</ele>
        <time>2011-09-04T06:56:18Z</time>
      </trkpt>
      <trkpt lat="47.10067" lon="-1.74487">
        <ele>71</ele>
        <time>2011-09-04T06:56:20Z</time>
      </trkpt>
      <trkpt lat="47.10062" lon="-1.74493">
        <ele>71</ele>
        <time>2011-09-04T06:56:21Z</time>
      </trkpt>
      <trkpt lat="47.10059" lon="-1.74499">
        <ele>71</ele>
        <time>2011-09-04T06:56:22Z</time>
      </trkpt>
      <trkpt lat="47.10054" lon="-1.74506">
        <ele>71</ele>
        <time>2011-09-04T06:56:23Z</time>
      </trkpt>
      <trkpt lat="47.1005" lon="-1.74518">
        <ele>72</ele>
        <time>2011-09-04T06:56:25Z</time>
      </trkpt>
      <trkpt lat="47.10047" lon="-1.74524">
        <ele>73</ele>
        <time>2011-09-04T06:56:26Z</time>
      </trkpt>
      <trkpt lat="47.10044" lon="-1.74531">
        <ele>73</ele>
        <time>2011-09-04T06:56:27Z</time>
      </trkpt>
      <trkpt lat="47.10042" lon="-1.74538">
        <ele>73</ele>
        <time>2011-09-04T06:56:28Z</time>
      </trkpt>
      <trkpt lat="47.10039" lon="-1.74545">
        <ele>73</ele>
        <time>2011-09-04T06:56:29Z</time>
      </trkpt>
      <trkpt lat="47.10035" lon="-1.74553">
        <ele>73</ele>
        <time>2011-09-04T06:56:30Z</time>
      </trkpt>
      <trkpt lat="47.10033" lon="-1.7456">
        <ele>73</ele>
        <time>2011-09-04T06:56:31Z</time>
      </trkpt>
      <trkpt lat="47.10029" lon="-1.74568">
        <ele>73</ele>
        <time>2011-09-04T06:56:32Z</time>
      </trkpt>
      <trkpt lat="47.10027" lon="-1.74576">
        <ele>73</ele>
        <time>2011-09-04T06:56:33Z</time>
      </trkpt>
      <trkpt lat="47.10023" lon="-1.74582">
        <ele>74</ele>
        <time>2011-09-04T06:56:34Z</time>
      </trkpt>
      <trkpt lat="47.1002" lon="-1.7459">
        <ele>74</ele>
        <time>2011-09-04T06:56:35Z</time>
      </trkpt>
      <trkpt lat="47.10017" lon="-1.74597">
        <ele>74</ele>
        <time>2011-09-04T06:56:36Z</time>
      </trkpt>
      <trkpt lat="47.10014" lon="-1.74606">
        <ele>74</ele>
        <time>2011-09-04T06:56:37Z</time>
      </trkpt>
      <trkpt lat="47.1001" lon="-1.74613">
        <ele>74</ele>
        <time>2011-09-04T06:56:38Z</time>
      </trkpt>
      <trkpt lat="47.10007" lon="-1.7462">
        <ele>74</ele>
        <time>2011-09-04T06:56:39Z</time>
      </trkpt>
      <trkpt lat="47.10004" lon="-1.74627">
        <ele>74</ele>
        <time>2011-09-04T06:56:40Z</time>
      </trkpt>
      <trkpt lat="47.10001" lon="-1.74633">
        <ele>75</ele>
        <time>2011-09-04T06:56:41Z</time>
      </trkpt>
      <trkpt lat="47.09999" lon="-1.7464">
        <ele>75</ele>
        <time>2011-09-04T06:56:42Z</time>
      </trkpt>
      <trkpt lat="47.09996" lon="-1.74648">
        <ele>75</ele>
        <time>2011-09-04T06:56:43Z</time>
      </trkpt>
      <trkpt lat="47.09992" lon="-1.74655">
        <ele>75</ele>
        <time>2011-09-04T06:56:44Z</time>
      </trkpt>
      <trkpt lat="47.0999" lon="-1.74662">
        <ele>76</ele>
        <time>2011-09-04T06:56:45Z</time>
      </trkpt>
      <trkpt lat="47.09987" lon="-1.7467">
        <ele>76</ele>
        <time>2011-09-04T06:56:46Z</time>
      </trkpt>
      <trkpt lat="47.09986" lon="-1.74678">
        <ele>76</ele>
        <time>2011-09-04T06:56:47Z</time>
      </trkpt>
      <trkpt lat="47.09983" lon="-1.74686">
        <ele>76</ele>
        <time>2011-09-04T06:56:48Z</time>
      </trkpt>
      <trkpt lat="47.09982" lon="-1.74693">
        <ele>76</ele>
        <time>2011-09-04T06:56:49Z</time>
      </trkpt>
      <trkpt lat="47.0998" lon="-1.74701">
        <ele>76</ele>
        <time>2011-09-04T06:56:50Z</time>
      </trkpt>
      <trkpt lat="47.09977" lon="-1.74709">
        <ele>76</ele>
        <time>2011-09-04T06:56:51Z</time>
      </trkpt>
      <trkpt lat="47.09976" lon="-1.74716">
        <ele>76</ele>
        <time>2011-09-04T06:56:52Z</time>
      </trkpt>
      <trkpt lat="47.09974" lon="-1.74723">
        <ele>76</ele>
        <time>2011-09-04T06:56:53Z</time>
      </trkpt>
      <trkpt lat="47.09971" lon="-1.7473">
        <ele>76</ele>
        <time>2011-09-04T06:56:54Z</time>
      </trkpt>
      <trkpt lat="47.09969" lon="-1.74737">
        <ele>76</ele>
        <time>2011-09-04T06:56:55Z</time>
      </trkpt>
      <trkpt lat="47.09966" lon="-1.74745">
        <ele>76</ele>
        <time>2011-09-04T06:56:56Z</time>
      </trkpt>
      <trkpt lat="47.09964" lon="-1.74753">
        <ele>76</ele>
        <time>2011-09-04T06:56:57Z</time>
      </trkpt>
      <trkpt lat="47.09961" lon="-1.74766">
        <ele>76</ele>
        <time>2011-09-04T06:56:59Z</time>
      </trkpt>
      <trkpt lat="47.09958" lon="-1.74774">
        <ele>76</ele>
        <time>2011-09-04T06:57:00Z</time>
      </trkpt>
      <trkpt lat="47.09957" lon="-1.74782">
        <ele>76</ele>
        <time>2011-09-04T06:57:01Z</time>
      </trkpt>
      <trkpt lat="47.09953" lon="-1.74789">
        <ele>77</ele>
        <time>2011-09-04T06:57:02Z</time>
      </trkpt>
      <trkpt lat="47.0995" lon="-1.74797">
        <ele>77</ele>
        <time>2011-09-04T06:57:03Z</time>
      </trkpt>
      <trkpt lat="47.09948" lon="-1.74804">
        <ele>77</ele>
        <time>2011-09-04T06:57:04Z</time>
      </trkpt>
      <trkpt lat="47.09944" lon="-1.7481">
        <ele>77</ele>
        <time>2011-09-04T06:57:05Z</time>
      </trkpt>
      <trkpt lat="47.0994" lon="-1.74818">
        <ele>76</ele>
        <time>2011-09-04T06:57:06Z</time>
      </trkpt>
      <trkpt lat="47.09936" lon="-1.74825">
        <ele>76</ele>
        <time>2011-09-04T06:57:07Z</time>
      </trkpt>
      <trkpt lat="47.09933" lon="-1.74832">
        <ele>75</ele>
        <time>2011-09-04T06:57:08Z</time>
      </trkpt>
      <trkpt lat="47.0993" lon="-1.7484">
        <ele>75</ele>
        <time>2011-09-04T06:57:09Z</time>
      </trkpt>
      <trkpt lat="47.09927" lon="-1.74847">
        <ele>76</ele>
        <time>2011-09-04T06:57:10Z</time>
      </trkpt>
      <trkpt lat="47.09924" lon="-1.74853">
        <ele>76</ele>
        <time>2011-09-04T06:57:11Z</time>
      </trkpt>
      <trkpt lat="47.09921" lon="-1.7486">
        <ele>75</ele>
        <time>2011-09-04T06:57:12Z</time>
      </trkpt>
      <trkpt lat="47.09918" lon="-1.74867">
        <ele>75</ele>
        <time>2011-09-04T06:57:13Z</time>
      </trkpt>
      <trkpt lat="47.09915" lon="-1.74875">
        <ele>75</ele>
        <time>2011-09-04T06:57:14Z</time>
      </trkpt>
      <trkpt lat="47.09912" lon="-1.74882">
        <ele>75</ele>
        <time>2011-09-04T06:57:15Z</time>
      </trkpt>
      <trkpt lat="47.0991" lon="-1.74889">
        <ele>75</ele>
        <time>2011-09-04T06:57:16Z</time>
      </trkpt>
      <trkpt lat="47.09906" lon="-1.74896">
        <ele>75</ele>
        <time>2011-09-04T06:57:17Z</time>
      </trkpt>
      <trkpt lat="47.09903" lon="-1.74903">
        <ele>75</ele>
        <time>2011-09-04T06:57:18Z</time>
      </trkpt>
      <trkpt lat="47.099" lon="-1.7491">
        <ele>75</ele>
        <time>2011-09-04T06:57:19Z</time>
      </trkpt>
      <trkpt lat="47.09897" lon="-1.74916">
        <ele>75</ele>
        <time>2011-09-04T06:57:20Z</time>
      </trkpt>
      <trkpt lat="47.09895" lon="-1.74923">
        <ele>75</ele>
        <time>2011-09-04T06:57:21Z</time>
      </trkpt>
      <trkpt lat="47.09891" lon="-1.7493">
        <ele>75</ele>
        <time>2011-09-04T06:57:22Z</time>
      </trkpt>
      <trkpt lat="47.09888" lon="-1.74937">
        <ele>75</ele>
        <time>2011-09-04T06:57:23Z</time>
      </trkpt>
      <trkpt lat="47.09886" lon="-1.74944">
        <ele>75</ele>
        <time>2011-09-04T06:57:24Z</time>
      </trkpt>
      <trkpt lat="47.09883" lon="-1.74951">
        <ele>75</ele>
        <time>2011-09-04T06:57:25Z</time>
      </trkpt>
      <trkpt lat="47.0988" lon="-1.74958">
        <ele>75</ele>
        <time>2011-09-04T06:57:26Z</time>
      </trkpt>
      <trkpt lat="47.09877" lon="-1.74964">
        <ele>75</ele>
        <time>2011-09-04T06:57:27Z</time>
      </trkpt>
      <trkpt lat="47.09875" lon="-1.74971">
        <ele>75</ele>
        <time>2011-09-04T06:57:28Z</time>
      </trkpt>
      <trkpt lat="47.09871" lon="-1.74978">
        <ele>75</ele>
        <time>2011-09-04T06:57:29Z</time>
      </trkpt>
      <trkpt lat="47.09868" lon="-1.74984">
        <ele>75</ele>
        <time>2011-09-04T06:57:30Z</time>
      </trkpt>
      <trkpt lat="47.09865" lon="-1.7499">
        <ele>75</ele>
        <time>2011-09-04T06:57:31Z</time>
      </trkpt>
      <trkpt lat="47.09862" lon="-1.74997">
        <ele>75</ele>
        <time>2011-09-04T06:57:32Z</time>
      </trkpt>
      <trkpt lat="47.09859" lon="-1.75003">
        <ele>75</ele>
        <time>2011-09-04T06:57:33Z</time>
      </trkpt>
      <trkpt lat="47.09855" lon="-1.7501">
        <ele>75</ele>
        <time>2011-09-04T06:57:34Z</time>
      </trkpt>
      <trkpt lat="47.09852" lon="-1.75016">
        <ele>75</ele>
        <time>2011-09-04T06:57:35Z</time>
      </trkpt>
      <trkpt lat="47.09848" lon="-1.75022">
        <ele>75</ele>
        <time>2011-09-04T06:57:36Z</time>
      </trkpt>
      <trkpt lat="47.09844" lon="-1.75031">
        <ele>74</ele>
        <time>2011-09-04T06:57:38Z</time>
      </trkpt>
      <trkpt lat="47.09838" lon="-1.75039">
        <ele>74</ele>
        <time>2011-09-04T06:57:40Z</time>
      </trkpt>
      <trkpt lat="47.09835" lon="-1.75048">
        <ele>75</ele>
        <time>2011-09-04T06:57:42Z</time>
      </trkpt>
      <trkpt lat="47.0983" lon="-1.75054">
        <ele>75</ele>
        <time>2011-09-04T06:57:44Z</time>
      </trkpt>
      <trkpt lat="47.09824" lon="-1.75051">
        <ele>74</ele>
        <time>2011-09-04T06:57:47Z</time>
      </trkpt>
      <trkpt lat="47.09821" lon="-1.75045">
        <ele>74</ele>
        <time>2011-09-04T06:57:49Z</time>
      </trkpt>
      <trkpt lat="47.09817" lon="-1.75036">
        <ele>74</ele>
        <time>2011-09-04T06:57:51Z</time>
      </trkpt>
      <trkpt lat="47.09813" lon="-1.75027">
        <ele>73</ele>
        <time>2011-09-04T06:57:53Z</time>
      </trkpt>
      <trkpt lat="47.09809" lon="-1.75017">
        <ele>73</ele>
        <time>2011-09-04T06:57:55Z</time>
      </trkpt>
      <trkpt lat="47.09804" lon="-1.75007">
        <ele>73</ele>
        <time>2011-09-04T06:57:57Z</time>
      </trkpt>
      <trkpt lat="47.09801" lon="-1.74998">
        <ele>72</ele>
        <time>2011-09-04T06:57:59Z</time>
      </trkpt>
      <trkpt lat="47.09798" lon="-1.74987">
        <ele>72</ele>
        <time>2011-09-04T06:58:01Z</time>
      </trkpt>
      <trkpt lat="47.09794" lon="-1.74976">
        <ele>71</ele>
        <time>2011-09-04T06:58:03Z</time>
      </trkpt>
      <trkpt lat="47.0979" lon="-1.74965">
        <ele>71</ele>
        <time>2011-09-04T06:58:05Z</time>
      </trkpt>
      <trkpt lat="47.09789" lon="-1.74958">
        <ele>71</ele>
        <time>2011-09-04T06:58:06Z</time>
      </trkpt>
      <trkpt lat="47.09785" lon="-1.74948">
        <ele>71</ele>
        <time>2011-09-04T06:58:08Z</time>
      </trkpt>
      <trkpt lat="47.0978" lon="-1.74939">
        <ele>71</ele>
        <time>2011-09-04T06:58:10Z</time>
      </trkpt>
      <trkpt lat="47.09774" lon="-1.7493">
        <ele>70</ele>
        <time>2011-09-04T06:58:12Z</time>
      </trkpt>
      <trkpt lat="47.09767" lon="-1.74924">
        <ele>71</ele>
        <time>2011-09-04T06:58:14Z</time>
      </trkpt>
      <trkpt lat="47.0976" lon="-1.74919">
        <ele>71</ele>
        <time>2011-09-04T06:58:16Z</time>
      </trkpt>
      <trkpt lat="47.09753" lon="-1.74913">
        <ele>71</ele>
        <time>2011-09-04T06:58:18Z</time>
      </trkpt>
      <trkpt lat="47.09745" lon="-1.74908">
        <ele>70</ele>
        <time>2011-09-04T06:58:20Z</time>
      </trkpt>
      <trkpt lat="47.09737" lon="-1.74903">
        <ele>70</ele>
        <time>2011-09-04T06:58:22Z</time>
      </trkpt>
      <trkpt lat="47.09729" lon="-1.74898">
        <ele>70</ele>
        <time>2011-09-04T06:58:24Z</time>
      </trkpt>
      <trkpt lat="47.09721" lon="-1.74893">
        <ele>70</ele>
        <time>2011-09-04T06:58:26Z</time>
      </trkpt>
      <trkpt lat="47.09717" lon="-1.7489">
        <ele>70</ele>
        <time>2011-09-04T06:58:27Z</time>
      </trkpt>
      <trkpt lat="47.09711" lon="-1.74887">
        <ele>70</ele>
        <time>2011-09-04T06:58:29Z</time>
      </trkpt>
      <trkpt lat="47.09705" lon="-1.74884">
        <ele>70</ele>
        <time>2011-09-04T06:58:31Z</time>
      </trkpt>
      <trkpt lat="47.09699" lon="-1.74882">
        <ele>70</ele>
        <time>2011-09-04T06:58:33Z</time>
      </trkpt>
      <trkpt lat="47.09693" lon="-1.74879">
        <ele>70</ele>
        <time>2011-09-04T06:58:35Z</time>
      </trkpt>
      <trkpt lat="47.09687" lon="-1.74878">
        <ele>71</ele>
        <time>2011-09-04T06:58:37Z</time>
      </trkpt>
      <trkpt lat="47.09681" lon="-1.74877">
        <ele>72</ele>
        <time>2011-09-04T06:58:39Z</time>
      </trkpt>
      <trkpt lat="47.09671" lon="-1.7488">
        <ele>72</ele>
        <time>2011-09-04T06:58:41Z</time>
      </trkpt>
      <trkpt lat="47.09662" lon="-1.74885">
        <ele>71</ele>
        <time>2011-09-04T06:58:43Z</time>
      </trkpt>
      <trkpt lat="47.09656" lon="-1.74887">
        <ele>70</ele>
        <time>2011-09-04T06:58:44Z</time>
      </trkpt>
      <trkpt lat="47.0965" lon="-1.74889">
        <ele>70</ele>
        <time>2011-09-04T06:58:46Z</time>
      </trkpt>
      <trkpt lat="47.09646" lon="-1.74888">
        <ele>71</ele>
        <time>2011-09-04T06:58:48Z</time>
      </trkpt>
      <trkpt lat="47.0964" lon="-1.74888">
        <ele>71</ele>
        <time>2011-09-04T06:58:50Z</time>
      </trkpt>
      <trkpt lat="47.09634" lon="-1.74886">
        <ele>71</ele>
        <time>2011-09-04T06:58:51Z</time>
      </trkpt>
      <trkpt lat="47.09628" lon="-1.74882">
        <ele>70</ele>
        <time>2011-09-04T06:58:52Z</time>
      </trkpt>
      <trkpt lat="47.09622" lon="-1.74877">
        <ele>71</ele>
        <time>2011-09-04T06:58:54Z</time>
      </trkpt>
      <trkpt lat="47.09617" lon="-1.74875">
        <ele>71</ele>
        <time>2011-09-04T06:58:56Z</time>
      </trkpt>
      <trkpt lat="47.0961" lon="-1.74872">
        <ele>71</ele>
        <time>2011-09-04T06:58:58Z</time>
      </trkpt>
      <trkpt lat="47.09604" lon="-1.74872">
        <ele>73</ele>
        <time>2011-09-04T06:59:00Z</time>
      </trkpt>
      <trkpt lat="47.09597" lon="-1.74874">
        <ele>74</ele>
        <time>2011-09-04T06:59:02Z</time>
      </trkpt>
      <trkpt lat="47.09589" lon="-1.74877">
        <ele>75</ele>
        <time>2011-09-04T06:59:05Z</time>
      </trkpt>
      <trkpt lat="47.09583" lon="-1.74879">
        <ele>77</ele>
        <time>2011-09-04T06:59:07Z</time>
      </trkpt>
      <trkpt lat="47.09576" lon="-1.74885">
        <ele>78</ele>
        <time>2011-09-04T06:59:09Z</time>
      </trkpt>
      <trkpt lat="47.09572" lon="-1.74888">
        <ele>77</ele>
        <time>2011-09-04T06:59:10Z</time>
      </trkpt>
      <trkpt lat="47.09566" lon="-1.74891">
        <ele>77</ele>
        <time>2011-09-04T06:59:11Z</time>
      </trkpt>
      <trkpt lat="47.09558" lon="-1.74893">
        <ele>77</ele>
        <time>2011-09-04T06:59:13Z</time>
      </trkpt>
      <trkpt lat="47.09553" lon="-1.74894">
        <ele>77</ele>
        <time>2011-09-04T06:59:14Z</time>
      </trkpt>
      <trkpt lat="47.09546" lon="-1.74898">
        <ele>76</ele>
        <time>2011-09-04T06:59:15Z</time>
      </trkpt>
      <trkpt lat="47.0954" lon="-1.74902">
        <ele>76</ele>
        <time>2011-09-04T06:59:16Z</time>
      </trkpt>
      <trkpt lat="47.09535" lon="-1.74904">
        <ele>77</ele>
        <time>2011-09-04T06:59:17Z</time>
      </trkpt>
      <trkpt lat="47.09528" lon="-1.74908">
        <ele>79</ele>
        <time>2011-09-04T06:59:19Z</time>
      </trkpt>
      <trkpt lat="47.09522" lon="-1.74912">
        <ele>80</ele>
        <time>2011-09-04T06:59:20Z</time>
      </trkpt>
      <trkpt lat="47.09514" lon="-1.74914">
        <ele>81</ele>
        <time>2011-09-04T06:59:22Z</time>
      </trkpt>
      <trkpt lat="47.09505" lon="-1.74916">
        <ele>81</ele>
        <time>2011-09-04T06:59:24Z</time>
      </trkpt>
      <trkpt lat="47.09499" lon="-1.7492">
        <ele>80</ele>
        <time>2011-09-04T06:59:25Z</time>
      </trkpt>
      <trkpt lat="47.09492" lon="-1.74923">
        <ele>80</ele>
        <time>2011-09-04T06:59:26Z</time>
      </trkpt>
      <trkpt lat="47.09486" lon="-1.74927">
        <ele>80</ele>
        <time>2011-09-04T06:59:27Z</time>
      </trkpt>
      <trkpt lat="47.09479" lon="-1.74932">
        <ele>79</ele>
        <time>2011-09-04T06:59:28Z</time>
      </trkpt>
      <trkpt lat="47.09472" lon="-1.74936">
        <ele>78</ele>
        <time>2011-09-04T06:59:29Z</time>
      </trkpt>
      <trkpt lat="47.09466" lon="-1.74941">
        <ele>77</ele>
        <time>2011-09-04T06:59:30Z</time>
      </trkpt>
      <trkpt lat="47.0946" lon="-1.74945">
        <ele>76</ele>
        <time>2011-09-04T06:59:31Z</time>
      </trkpt>
      <trkpt lat="47.09455" lon="-1.74949">
        <ele>75</ele>
        <time>2011-09-04T06:59:32Z</time>
      </trkpt>
      <trkpt lat="47.09449" lon="-1.74952">
        <ele>75</ele>
        <time>2011-09-04T06:59:33Z</time>
      </trkpt>
      <trkpt lat="47.09444" lon="-1.74954">
        <ele>75</ele>
        <time>2011-09-04T06:59:34Z</time>
      </trkpt>
      <trkpt lat="47.09436" lon="-1.74957">
        <ele>75</ele>
        <time>2011-09-04T06:59:36Z</time>
      </trkpt>
      <trkpt lat="47.09427" lon="-1.74956">
        <ele>75</ele>
        <time>2011-09-04T06:59:38Z</time>
      </trkpt>
      <trkpt lat="47.09418" lon="-1.74951">
        <ele>74</ele>
        <time>2011-09-04T06:59:40Z</time>
      </trkpt>
      <trkpt lat="47.09414" lon="-1.74946">
        <ele>74</ele>
        <time>2011-09-04T06:59:41Z</time>
      </trkpt>
      <trkpt lat="47.09408" lon="-1.74937">
        <ele>74</ele>
        <time>2011-09-04T06:59:43Z</time>
      </trkpt>
      <trkpt lat="47.09402" lon="-1.74929">
        <ele>74</ele>
        <time>2011-09-04T06:59:45Z</time>
      </trkpt>
      <trkpt lat="47.09397" lon="-1.74918">
        <ele>74</ele>
        <time>2011-09-04T06:59:47Z</time>
      </trkpt>
      <trkpt lat="47.09395" lon="-1.74912">
        <ele>74</ele>
        <time>2011-09-04T06:59:48Z</time>
      </trkpt>
      <trkpt lat="47.09393" lon="-1.74906">
        <ele>74</ele>
        <time>2011-09-04T06:59:49Z</time>
      </trkpt>
      <trkpt lat="47.0939" lon="-1.74901">
        <ele>74</ele>
        <time>2011-09-04T06:59:50Z</time>
      </trkpt>
      <trkpt lat="47.09388" lon="-1.74894">
        <ele>73</ele>
        <time>2011-09-04T06:59:51Z</time>
      </trkpt>
      <trkpt lat="47.09384" lon="-1.74888">
        <ele>73</ele>
        <time>2011-09-04T06:59:52Z</time>
      </trkpt>
      <trkpt lat="47.0938" lon="-1.74883">
        <ele>73</ele>
        <time>2011-09-04T06:59:53Z</time>
      </trkpt>
      <trkpt lat="47.09376" lon="-1.74878">
        <ele>72</ele>
        <time>2011-09-04T06:59:54Z</time>
      </trkpt>
      <trkpt lat="47.09372" lon="-1.74875">
        <ele>72</ele>
        <time>2011-09-04T06:59:55Z</time>
      </trkpt>
      <trkpt lat="47.09368" lon="-1.74871">
        <ele>72</ele>
        <time>2011-09-04T06:59:56Z</time>
      </trkpt>
      <trkpt lat="47.09363" lon="-1.74869">
        <ele>72</ele>
        <time>2011-09-04T06:59:57Z</time>
      </trkpt>
      <trkpt lat="47.09355" lon="-1.74865">
        <ele>73</ele>
        <time>2011-09-04T06:59:59Z</time>
      </trkpt>
      <trkpt lat="47.09348" lon="-1.74864">
        <ele>74</ele>
        <time>2011-09-04T07:00:01Z</time>
      </trkpt>
      <trkpt lat="47.09343" lon="-1.74865">
        <ele>74</ele>
        <time>2011-09-04T07:00:02Z</time>
      </trkpt>
      <trkpt lat="47.09337" lon="-1.74865">
        <ele>75</ele>
        <time>2011-09-04T07:00:04Z</time>
      </trkpt>
      <trkpt lat="47.09332" lon="-1.74866">
        <ele>75</ele>
        <time>2011-09-04T07:00:05Z</time>
      </trkpt>
      <trkpt lat="47.09326" lon="-1.74866">
        <ele>76</ele>
        <time>2011-09-04T07:00:06Z</time>
      </trkpt>
      <trkpt lat="47.09321" lon="-1.74867">
        <ele>76</ele>
        <time>2011-09-04T07:00:07Z</time>
      </trkpt>
      <trkpt lat="47.09314" lon="-1.7487">
        <ele>76</ele>
        <time>2011-09-04T07:00:08Z</time>
      </trkpt>
      <trkpt lat="47.09307" lon="-1.74875">
        <ele>76</ele>
        <time>2011-09-04T07:00:09Z</time>
      </trkpt>
      <trkpt lat="47.093" lon="-1.74879">
        <ele>76</ele>
        <time>2011-09-04T07:00:10Z</time>
      </trkpt>
      <trkpt lat="47.09295" lon="-1.74881">
        <ele>76</ele>
        <time>2011-09-04T07:00:11Z</time>
      </trkpt>
      <trkpt lat="47.09289" lon="-1.74884">
        <ele>75</ele>
        <time>2011-09-04T07:00:12Z</time>
      </trkpt>
      <trkpt lat="47.09284" lon="-1.74886">
        <ele>75</ele>
        <time>2011-09-04T07:00:13Z</time>
      </trkpt>
      <trkpt lat="47.09275" lon="-1.74892">
        <ele>75</ele>
        <time>2011-09-04T07:00:15Z</time>
      </trkpt>
      <trkpt lat="47.09271" lon="-1.74896">
        <ele>75</ele>
        <time>2011-09-04T07:00:16Z</time>
      </trkpt>
      <trkpt lat="47.09267" lon="-1.749">
        <ele>75</ele>
        <time>2011-09-04T07:00:17Z</time>
      </trkpt>
      <trkpt lat="47.09263" lon="-1.74906">
        <ele>75</ele>
        <time>2011-09-04T07:00:18Z</time>
      </trkpt>
      <trkpt lat="47.09258" lon="-1.74916">
        <ele>76</ele>
        <time>2011-09-04T07:00:20Z</time>
      </trkpt>
      <trkpt lat="47.09253" lon="-1.74921">
        <ele>75</ele>
        <time>2011-09-04T07:00:21Z</time>
      </trkpt>
      <trkpt lat="47.09249" lon="-1.74926">
        <ele>75</ele>
        <time>2011-09-04T07:00:22Z</time>
      </trkpt>
      <trkpt lat="47.09243" lon="-1.74935">
        <ele>76</ele>
        <time>2011-09-04T07:00:24Z</time>
      </trkpt>
      <trkpt lat="47.09239" lon="-1.74941">
        <ele>76</ele>
        <time>2011-09-04T07:00:25Z</time>
      </trkpt>
      <trkpt lat="47.09236" lon="-1.74945">
        <ele>76</ele>
        <time>2011-09-04T07:00:26Z</time>
      </trkpt>
      <trkpt lat="47.09233" lon="-1.74952">
        <ele>77</ele>
        <time>2011-09-04T07:00:27Z</time>
      </trkpt>
      <trkpt lat="47.09229" lon="-1.74957">
        <ele>77</ele>
        <time>2011-09-04T07:00:28Z</time>
      </trkpt>
      <trkpt lat="47.09226" lon="-1.74964">
        <ele>77</ele>
        <time>2011-09-04T07:00:29Z</time>
      </trkpt>
      <trkpt lat="47.09222" lon="-1.74969">
        <ele>77</ele>
        <time>2011-09-04T07:00:30Z</time>
      </trkpt>
      <trkpt lat="47.09218" lon="-1.74975">
        <ele>77</ele>
        <time>2011-09-04T07:00:31Z</time>
      </trkpt>
      <trkpt lat="47.09213" lon="-1.74982">
        <ele>76</ele>
        <time>2011-09-04T07:00:32Z</time>
      </trkpt>
      <trkpt lat="47.09208" lon="-1.74989">
        <ele>75</ele>
        <time>2011-09-04T07:00:33Z</time>
      </trkpt>
      <trkpt lat="47.09203" lon="-1.74996">
        <ele>74</ele>
        <time>2011-09-04T07:00:34Z</time>
      </trkpt>
      <trkpt lat="47.09198" lon="-1.75002">
        <ele>73</ele>
        <time>2011-09-04T07:00:35Z</time>
      </trkpt>
      <trkpt lat="47.09193" lon="-1.75008">
        <ele>72</ele>
        <time>2011-09-04T07:00:36Z</time>
      </trkpt>
      <trkpt lat="47.09189" lon="-1.75015">
        <ele>71</ele>
        <time>2011-09-04T07:00:37Z</time>
      </trkpt>
      <trkpt lat="47.09184" lon="-1.75023">
        <ele>70</ele>
        <time>2011-09-04T07:00:38Z</time>
      </trkpt>
      <trkpt lat="47.09181" lon="-1.7503">
        <ele>70</ele>
        <time>2011-09-04T07:00:39Z</time>
      </trkpt>
      <trkpt lat="47.09178" lon="-1.75037">
        <ele>69</ele>
        <time>2011-09-04T07:00:40Z</time>
      </trkpt>
      <trkpt lat="47.09175" lon="-1.75045">
        <ele>69</ele>
        <time>2011-09-04T07:00:41Z</time>
      </trkpt>
      <trkpt lat="47.09172" lon="-1.75052">
        <ele>68</ele>
        <time>2011-09-04T07:00:42Z</time>
      </trkpt>
      <trkpt lat="47.09169" lon="-1.75059">
        <ele>68</ele>
        <time>2011-09-04T07:00:43Z</time>
      </trkpt>
      <trkpt lat="47.09167" lon="-1.75066">
        <ele>68</ele>
        <time>2011-09-04T07:00:44Z</time>
      </trkpt>
      <trkpt lat="47.09165" lon="-1.75073">
        <ele>67</ele>
        <time>2011-09-04T07:00:45Z</time>
      </trkpt>
      <trkpt lat="47.09163" lon="-1.7508">
        <ele>67</ele>
        <time>2011-09-04T07:00:46Z</time>
      </trkpt>
      <trkpt lat="47.09162" lon="-1.75087">
        <ele>67</ele>
        <time>2011-09-04T07:00:47Z</time>
      </trkpt>
      <trkpt lat="47.0916" lon="-1.75094">
        <ele>67</ele>
        <time>2011-09-04T07:00:48Z</time>
      </trkpt>
      <trkpt lat="47.09159" lon="-1.75101">
        <ele>67</ele>
        <time>2011-09-04T07:00:49Z</time>
      </trkpt>
      <trkpt lat="47.09157" lon="-1.75107">
        <ele>66</ele>
        <time>2011-09-04T07:00:50Z</time>
      </trkpt>
      <trkpt lat="47.09155" lon="-1.75113">
        <ele>66</ele>
        <time>2011-09-04T07:00:51Z</time>
      </trkpt>
      <trkpt lat="47.09152" lon="-1.75119">
        <ele>66</ele>
        <time>2011-09-04T07:00:52Z</time>
      </trkpt>
      <trkpt lat="47.0915" lon="-1.75125">
        <ele>66</ele>
        <time>2011-09-04T07:00:53Z</time>
      </trkpt>
      <trkpt lat="47.09147" lon="-1.7513">
        <ele>66</ele>
        <time>2011-09-04T07:00:54Z</time>
      </trkpt>
      <trkpt lat="47.09144" lon="-1.75136">
        <ele>66</ele>
        <time>2011-09-04T07:00:55Z</time>
      </trkpt>
      <trkpt lat="47.09141" lon="-1.75142">
        <ele>66</ele>
        <time>2011-09-04T07:00:56Z</time>
      </trkpt>
      <trkpt lat="47.09138" lon="-1.75147">
        <ele>66</ele>
        <time>2011-09-04T07:00:57Z</time>
      </trkpt>
      <trkpt lat="47.09132" lon="-1.75156">
        <ele>66</ele>
        <time>2011-09-04T07:00:59Z</time>
      </trkpt>
      <trkpt lat="47.0913" lon="-1.75162">
        <ele>66</ele>
        <time>2011-09-04T07:01:00Z</time>
      </trkpt>
      <trkpt lat="47.09125" lon="-1.75172">
        <ele>66</ele>
        <time>2011-09-04T07:01:02Z</time>
      </trkpt>
      <trkpt lat="47.09122" lon="-1.75179">
        <ele>65</ele>
        <time>2011-09-04T07:01:03Z</time>
      </trkpt>
      <trkpt lat="47.09119" lon="-1.75184">
        <ele>65</ele>
        <time>2011-09-04T07:01:04Z</time>
      </trkpt>
      <trkpt lat="47.09114" lon="-1.75195">
        <ele>66</ele>
        <time>2011-09-04T07:01:06Z</time>
      </trkpt>
      <trkpt lat="47.09109" lon="-1.75207">
        <ele>66</ele>
        <time>2011-09-04T07:01:08Z</time>
      </trkpt>
      <trkpt lat="47.09106" lon="-1.75214">
        <ele>65</ele>
        <time>2011-09-04T07:01:09Z</time>
      </trkpt>
      <trkpt lat="47.09103" lon="-1.75223">
        <ele>64</ele>
        <time>2011-09-04T07:01:10Z</time>
      </trkpt>
      <trkpt lat="47.09101" lon="-1.7523">
        <ele>64</ele>
        <time>2011-09-04T07:01:11Z</time>
      </trkpt>
      <trkpt lat="47.09098" lon="-1.75239">
        <ele>64</ele>
        <time>2011-09-04T07:01:12Z</time>
      </trkpt>
      <trkpt lat="47.09096" lon="-1.75247">
        <ele>64</ele>
        <time>2011-09-04T07:01:13Z</time>
      </trkpt>
      <trkpt lat="47.09095" lon="-1.75254">
        <ele>64</ele>
        <time>2011-09-04T07:01:14Z</time>
      </trkpt>
      <trkpt lat="47.09094" lon="-1.75262">
        <ele>64</ele>
        <time>2011-09-04T07:01:15Z</time>
      </trkpt>
      <trkpt lat="47.09093" lon="-1.75269">
        <ele>64</ele>
        <time>2011-09-04T07:01:16Z</time>
      </trkpt>
      <trkpt lat="47.09092" lon="-1.75275">
        <ele>64</ele>
        <time>2011-09-04T07:01:17Z</time>
      </trkpt>
      <trkpt lat="47.0909" lon="-1.75286">
        <ele>64</ele>
        <time>2011-09-04T07:01:19Z</time>
      </trkpt>
      <trkpt lat="47.09089" lon="-1.75295">
        <ele>64</ele>
        <time>2011-09-04T07:01:21Z</time>
      </trkpt>
      <trkpt lat="47.09087" lon="-1.75306">
        <ele>64</ele>
        <time>2011-09-04T07:01:23Z</time>
      </trkpt>
      <trkpt lat="47.09083" lon="-1.75317">
        <ele>64</ele>
        <time>2011-09-04T07:01:25Z</time>
      </trkpt>
      <trkpt lat="47.09076" lon="-1.75327">
        <ele>64</ele>
        <time>2011-09-04T07:01:27Z</time>
      </trkpt>
      <trkpt lat="47.09073" lon="-1.75332">
        <ele>64</ele>
        <time>2011-09-04T07:01:28Z</time>
      </trkpt>
      <trkpt lat="47.09066" lon="-1.75342">
        <ele>64</ele>
        <time>2011-09-04T07:01:30Z</time>
      </trkpt>
      <trkpt lat="47.09063" lon="-1.75346">
        <ele>64</ele>
        <time>2011-09-04T07:01:31Z</time>
      </trkpt>
      <trkpt lat="47.09056" lon="-1.75354">
        <ele>64</ele>
        <time>2011-09-04T07:01:33Z</time>
      </trkpt>
      <trkpt lat="47.09049" lon="-1.75362">
        <ele>63</ele>
        <time>2011-09-04T07:01:35Z</time>
      </trkpt>
      <trkpt lat="47.09045" lon="-1.75366">
        <ele>63</ele>
        <time>2011-09-04T07:01:36Z</time>
      </trkpt>
      <trkpt lat="47.09042" lon="-1.7537">
        <ele>63</ele>
        <time>2011-09-04T07:01:37Z</time>
      </trkpt>
      <trkpt lat="47.09038" lon="-1.75374">
        <ele>63</ele>
        <time>2011-09-04T07:01:38Z</time>
      </trkpt>
      <trkpt lat="47.09034" lon="-1.75377">
        <ele>63</ele>
        <time>2011-09-04T07:01:39Z</time>
      </trkpt>
      <trkpt lat="47.0903" lon="-1.7538">
        <ele>63</ele>
        <time>2011-09-04T07:01:40Z</time>
      </trkpt>
      <trkpt lat="47.09026" lon="-1.75383">
        <ele>63</ele>
        <time>2011-09-04T07:01:41Z</time>
      </trkpt>
      <trkpt lat="47.09021" lon="-1.75387">
        <ele>63</ele>
        <time>2011-09-04T07:01:42Z</time>
      </trkpt>
      <trkpt lat="47.09018" lon="-1.75391">
        <ele>62</ele>
        <time>2011-09-04T07:01:43Z</time>
      </trkpt>
      <trkpt lat="47.09013" lon="-1.75394">
        <ele>62</ele>
        <time>2011-09-04T07:01:44Z</time>
      </trkpt>
      <trkpt lat="47.09009" lon="-1.75398">
        <ele>62</ele>
        <time>2011-09-04T07:01:45Z</time>
      </trkpt>
      <trkpt lat="47.09005" lon="-1.754">
        <ele>62</ele>
        <time>2011-09-04T07:01:46Z</time>
      </trkpt>
      <trkpt lat="47.09" lon="-1.75404">
        <ele>62</ele>
        <time>2011-09-04T07:01:47Z</time>
      </trkpt>
      <trkpt lat="47.08996" lon="-1.75407">
        <ele>62</ele>
        <time>2011-09-04T07:01:48Z</time>
      </trkpt>
      <trkpt lat="47.08992" lon="-1.7541">
        <ele>62</ele>
        <time>2011-09-04T07:01:49Z</time>
      </trkpt>
      <trkpt lat="47.08988" lon="-1.75415">
        <ele>62</ele>
        <time>2011-09-04T07:01:50Z</time>
      </trkpt>
      <trkpt lat="47.08981" lon="-1.75421">
        <ele>62</ele>
        <time>2011-09-04T07:01:52Z</time>
      </trkpt>
      <trkpt lat="47.08975" lon="-1.75428">
        <ele>62</ele>
        <time>2011-09-04T07:01:54Z</time>
      </trkpt>
      <trkpt lat="47.08968" lon="-1.75434">
        <ele>62</ele>
        <time>2011-09-04T07:01:56Z</time>
      </trkpt>
      <trkpt lat="47.08962" lon="-1.75439">
        <ele>62</ele>
        <time>2011-09-04T07:01:58Z</time>
      </trkpt>
      <trkpt lat="47.08954" lon="-1.75445">
        <ele>62</ele>
        <time>2011-09-04T07:02:00Z</time>
      </trkpt>
      <trkpt lat="47.0895" lon="-1.75449">
        <ele>62</ele>
        <time>2011-09-04T07:02:01Z</time>
      </trkpt>
      <trkpt lat="47.08947" lon="-1.75453">
        <ele>62</ele>
        <time>2011-09-04T07:02:02Z</time>
      </trkpt>
      <trkpt lat="47.08943" lon="-1.75457">
        <ele>62</ele>
        <time>2011-09-04T07:02:03Z</time>
      </trkpt>
      <trkpt lat="47.08939" lon="-1.75462">
        <ele>62</ele>
        <time>2011-09-04T07:02:04Z</time>
      </trkpt>
      <trkpt lat="47.08935" lon="-1.75466">
        <ele>62</ele>
        <time>2011-09-04T07:02:05Z</time>
      </trkpt>
      <trkpt lat="47.08932" lon="-1.75471">
        <ele>62</ele>
        <time>2011-09-04T07:02:06Z</time>
      </trkpt>
      <trkpt lat="47.08928" lon="-1.75476">
        <ele>62</ele>
        <time>2011-09-04T07:02:07Z</time>
      </trkpt>
      <trkpt lat="47.08925" lon="-1.75481">
        <ele>62</ele>
        <time>2011-09-04T07:02:08Z</time>
      </trkpt>
      <trkpt lat="47.08921" lon="-1.75487">
        <ele>62</ele>
        <time>2011-09-04T07:02:09Z</time>
      </trkpt>
      <trkpt lat="47.08917" lon="-1.75492">
        <ele>61</ele>
        <time>2011-09-04T07:02:10Z</time>
      </trkpt>
      <trkpt lat="47.08914" lon="-1.75496">
        <ele>61</ele>
        <time>2011-09-04T07:02:11Z</time>
      </trkpt>
      <trkpt lat="47.08909" lon="-1.75502">
        <ele>61</ele>
        <time>2011-09-04T07:02:12Z</time>
      </trkpt>
      <trkpt lat="47.08906" lon="-1.75507">
        <ele>61</ele>
        <time>2011-09-04T07:02:13Z</time>
      </trkpt>
      <trkpt lat="47.08902" lon="-1.75512">
        <ele>61</ele>
        <time>2011-09-04T07:02:14Z</time>
      </trkpt>
      <trkpt lat="47.08898" lon="-1.75518">
        <ele>61</ele>
        <time>2011-09-04T07:02:15Z</time>
      </trkpt>
      <trkpt lat="47.08894" lon="-1.75524">
        <ele>62</ele>
        <time>2011-09-04T07:02:16Z</time>
      </trkpt>
      <trkpt lat="47.08891" lon="-1.75529">
        <ele>62</ele>
        <time>2011-09-04T07:02:17Z</time>
      </trkpt>
      <trkpt lat="47.08887" lon="-1.75534">
        <ele>62</ele>
        <time>2011-09-04T07:02:18Z</time>
      </trkpt>
      <trkpt lat="47.08883" lon="-1.75539">
        <ele>62</ele>
        <time>2011-09-04T07:02:19Z</time>
      </trkpt>
      <trkpt lat="47.0888" lon="-1.75544">
        <ele>62</ele>
        <time>2011-09-04T07:02:20Z</time>
      </trkpt>
      <trkpt lat="47.08876" lon="-1.75549">
        <ele>62</ele>
        <time>2011-09-04T07:02:21Z</time>
      </trkpt>
      <trkpt lat="47.08869" lon="-1.75557">
        <ele>62</ele>
        <time>2011-09-04T07:02:23Z</time>
      </trkpt>
      <trkpt lat="47.08863" lon="-1.75564">
        <ele>62</ele>
        <time>2011-09-04T07:02:25Z</time>
      </trkpt>
      <trkpt lat="47.08856" lon="-1.75572">
        <ele>62</ele>
        <time>2011-09-04T07:02:27Z</time>
      </trkpt>
      <trkpt lat="47.0885" lon="-1.75579">
        <ele>63</ele>
        <time>2011-09-04T07:02:29Z</time>
      </trkpt>
      <trkpt lat="47.08846" lon="-1.75582">
        <ele>63</ele>
        <time>2011-09-04T07:02:30Z</time>
      </trkpt>
      <trkpt lat="47.0884" lon="-1.75588">
        <ele>63</ele>
        <time>2011-09-04T07:02:32Z</time>
      </trkpt>
      <trkpt lat="47.08834" lon="-1.75594">
        <ele>64</ele>
        <time>2011-09-04T07:02:34Z</time>
      </trkpt>
      <trkpt lat="47.08828" lon="-1.75601">
        <ele>64</ele>
        <time>2011-09-04T07:02:36Z</time>
      </trkpt>
      <trkpt lat="47.08824" lon="-1.75605">
        <ele>64</ele>
        <time>2011-09-04T07:02:37Z</time>
      </trkpt>
      <trkpt lat="47.08818" lon="-1.75611">
        <ele>63</ele>
        <time>2011-09-04T07:02:38Z</time>
      </trkpt>
      <trkpt lat="47.08813" lon="-1.75615">
        <ele>63</ele>
        <time>2011-09-04T07:02:39Z</time>
      </trkpt>
      <trkpt lat="47.08809" lon="-1.75619">
        <ele>63</ele>
        <time>2011-09-04T07:02:40Z</time>
      </trkpt>
      <trkpt lat="47.08803" lon="-1.75624">
        <ele>63</ele>
        <time>2011-09-04T07:02:42Z</time>
      </trkpt>
      <trkpt lat="47.08795" lon="-1.75628">
        <ele>63</ele>
        <time>2011-09-04T07:02:44Z</time>
      </trkpt>
      <trkpt lat="47.08791" lon="-1.75631">
        <ele>64</ele>
        <time>2011-09-04T07:02:45Z</time>
      </trkpt>
      <trkpt lat="47.08785" lon="-1.75635">
        <ele>64</ele>
        <time>2011-09-04T07:02:46Z</time>
      </trkpt>
      <trkpt lat="47.08779" lon="-1.7564">
        <ele>64</ele>
        <time>2011-09-04T07:02:47Z</time>
      </trkpt>
      <trkpt lat="47.08772" lon="-1.75644">
        <ele>64</ele>
        <time>2011-09-04T07:02:48Z</time>
      </trkpt>
      <trkpt lat="47.08765" lon="-1.75648">
        <ele>63</ele>
        <time>2011-09-04T07:02:49Z</time>
      </trkpt>
      <trkpt lat="47.0876" lon="-1.75652">
        <ele>63</ele>
        <time>2011-09-04T07:02:50Z</time>
      </trkpt>
      <trkpt lat="47.08754" lon="-1.75657">
        <ele>63</ele>
        <time>2011-09-04T07:02:51Z</time>
      </trkpt>
      <trkpt lat="47.08748" lon="-1.75661">
        <ele>62</ele>
        <time>2011-09-04T07:02:52Z</time>
      </trkpt>
      <trkpt lat="47.08743" lon="-1.75665">
        <ele>62</ele>
        <time>2011-09-04T07:02:53Z</time>
      </trkpt>
      <trkpt lat="47.08738" lon="-1.75668">
        <ele>62</ele>
        <time>2011-09-04T07:02:54Z</time>
      </trkpt>
      <trkpt lat="47.08733" lon="-1.75672">
        <ele>62</ele>
        <time>2011-09-04T07:02:55Z</time>
      </trkpt>
      <trkpt lat="47.08728" lon="-1.75675">
        <ele>62</ele>
        <time>2011-09-04T07:02:56Z</time>
      </trkpt>
      <trkpt lat="47.08724" lon="-1.75678">
        <ele>62</ele>
        <time>2011-09-04T07:02:57Z</time>
      </trkpt>
      <trkpt lat="47.08719" lon="-1.75681">
        <ele>62</ele>
        <time>2011-09-04T07:02:58Z</time>
      </trkpt>
      <trkpt lat="47.08715" lon="-1.75685">
        <ele>62</ele>
        <time>2011-09-04T07:02:59Z</time>
      </trkpt>
      <trkpt lat="47.0871" lon="-1.75687">
        <ele>62</ele>
        <time>2011-09-04T07:03:00Z</time>
      </trkpt>
      <trkpt lat="47.08705" lon="-1.7569">
        <ele>62</ele>
        <time>2011-09-04T07:03:01Z</time>
      </trkpt>
      <trkpt lat="47.08696" lon="-1.75693">
        <ele>63</ele>
        <time>2011-09-04T07:03:03Z</time>
      </trkpt>
      <trkpt lat="47.08688" lon="-1.75695">
        <ele>63</ele>
        <time>2011-09-04T07:03:05Z</time>
      </trkpt>
      <trkpt lat="47.08682" lon="-1.75696">
        <ele>64</ele>
        <time>2011-09-04T07:03:06Z</time>
      </trkpt>
      <trkpt lat="47.08673" lon="-1.75698">
        <ele>64</ele>
        <time>2011-09-04T07:03:08Z</time>
      </trkpt>
      <trkpt lat="47.08668" lon="-1.75698">
        <ele>64</ele>
        <time>2011-09-04T07:03:09Z</time>
      </trkpt>
      <trkpt lat="47.08663" lon="-1.757">
        <ele>64</ele>
        <time>2011-09-04T07:03:10Z</time>
      </trkpt>
      <trkpt lat="47.08658" lon="-1.757">
        <ele>64</ele>
        <time>2011-09-04T07:03:11Z</time>
      </trkpt>
      <trkpt lat="47.08652" lon="-1.75701">
        <ele>64</ele>
        <time>2011-09-04T07:03:12Z</time>
      </trkpt>
      <trkpt lat="47.08647" lon="-1.75703">
        <ele>64</ele>
        <time>2011-09-04T07:03:13Z</time>
      </trkpt>
      <trkpt lat="47.08643" lon="-1.75705">
        <ele>64</ele>
        <time>2011-09-04T07:03:14Z</time>
      </trkpt>
      <trkpt lat="47.08634" lon="-1.75708">
        <ele>64</ele>
        <time>2011-09-04T07:03:16Z</time>
      </trkpt>
      <trkpt lat="47.0863" lon="-1.7571">
        <ele>64</ele>
        <time>2011-09-04T07:03:17Z</time>
      </trkpt>
      <trkpt lat="47.08625" lon="-1.75712">
        <ele>64</ele>
        <time>2011-09-04T07:03:18Z</time>
      </trkpt>
      <trkpt lat="47.08617" lon="-1.75715">
        <ele>64</ele>
        <time>2011-09-04T07:03:20Z</time>
      </trkpt>
      <trkpt lat="47.08608" lon="-1.75717">
        <ele>64</ele>
        <time>2011-09-04T07:03:22Z</time>
      </trkpt>
      <trkpt lat="47.08603" lon="-1.75719">
        <ele>64</ele>
        <time>2011-09-04T07:03:23Z</time>
      </trkpt>
      <trkpt lat="47.08594" lon="-1.75722">
        <ele>64</ele>
        <time>2011-09-04T07:03:25Z</time>
      </trkpt>
      <trkpt lat="47.08589" lon="-1.75723">
        <ele>63</ele>
        <time>2011-09-04T07:03:26Z</time>
      </trkpt>
      <trkpt lat="47.08584" lon="-1.75724">
        <ele>63</ele>
        <time>2011-09-04T07:03:27Z</time>
      </trkpt>
      <trkpt lat="47.08576" lon="-1.75726">
        <ele>64</ele>
        <time>2011-09-04T07:03:29Z</time>
      </trkpt>
      <trkpt lat="47.08568" lon="-1.75725">
        <ele>64</ele>
        <time>2011-09-04T07:03:31Z</time>
      </trkpt>
      <trkpt lat="47.0856" lon="-1.75724">
        <ele>65</ele>
        <time>2011-09-04T07:03:33Z</time>
      </trkpt>
      <trkpt lat="47.08556" lon="-1.75724">
        <ele>65</ele>
        <time>2011-09-04T07:03:34Z</time>
      </trkpt>
      <trkpt lat="47.08546" lon="-1.75725">
        <ele>67</ele>
        <time>2011-09-04T07:03:36Z</time>
      </trkpt>
      <trkpt lat="47.08541" lon="-1.75728">
        <ele>67</ele>
        <time>2011-09-04T07:03:37Z</time>
      </trkpt>
      <trkpt lat="47.08533" lon="-1.75728">
        <ele>68</ele>
        <time>2011-09-04T07:03:39Z</time>
      </trkpt>
      <trkpt lat="47.08527" lon="-1.7573">
        <ele>68</ele>
        <time>2011-09-04T07:03:40Z</time>
      </trkpt>
      <trkpt lat="47.08522" lon="-1.75732">
        <ele>69</ele>
        <time>2011-09-04T07:03:41Z</time>
      </trkpt>
      <trkpt lat="47.08516" lon="-1.75734">
        <ele>69</ele>
        <time>2011-09-04T07:03:42Z</time>
      </trkpt>
      <trkpt lat="47.08512" lon="-1.75738">
        <ele>69</ele>
        <time>2011-09-04T07:03:43Z</time>
      </trkpt>
      <trkpt lat="47.08506" lon="-1.75743">
        <ele>69</ele>
        <time>2011-09-04T07:03:44Z</time>
      </trkpt>
      <trkpt lat="47.08502" lon="-1.75747">
        <ele>69</ele>
        <time>2011-09-04T07:03:45Z</time>
      </trkpt>
      <trkpt lat="47.08495" lon="-1.75753">
        <ele>70</ele>
        <time>2011-09-04T07:03:47Z</time>
      </trkpt>
      <trkpt lat="47.0849" lon="-1.75757">
        <ele>71</ele>
        <time>2011-09-04T07:03:49Z</time>
      </trkpt>
      <trkpt lat="47.08486" lon="-1.75761">
        <ele>71</ele>
        <time>2011-09-04T07:03:52Z</time>
      </trkpt>
      <trkpt lat="47.08483" lon="-1.75767">
        <ele>71</ele>
        <time>2011-09-04T07:03:58Z</time>
      </trkpt>
      <trkpt lat="47.0848" lon="-1.75772">
        <ele>71</ele>
        <time>2011-09-04T07:04:03Z</time>
      </trkpt>
      <trkpt lat="47.08475" lon="-1.75777">
        <ele>70</ele>
        <time>2011-09-04T07:04:07Z</time>
      </trkpt>
      <trkpt lat="47.08471" lon="-1.7578">
        <ele>69</ele>
        <time>2011-09-04T07:04:09Z</time>
      </trkpt>
      <trkpt lat="47.08464" lon="-1.75784">
        <ele>69</ele>
        <time>2011-09-04T07:04:12Z</time>
      </trkpt>
      <trkpt lat="47.0846" lon="-1.75788">
        <ele>69</ele>
        <time>2011-09-04T07:04:14Z</time>
      </trkpt>
      <trkpt lat="47.08454" lon="-1.75791">
        <ele>69</ele>
        <time>2011-09-04T07:04:16Z</time>
      </trkpt>
      <trkpt lat="47.08446" lon="-1.75796">
        <ele>72</ele>
        <time>2011-09-04T07:04:18Z</time>
      </trkpt>
      <trkpt lat="47.08441" lon="-1.758">
        <ele>72</ele>
        <time>2011-09-04T07:04:19Z</time>
      </trkpt>
      <trkpt lat="47.08436" lon="-1.75805">
        <ele>72</ele>
        <time>2011-09-04T07:04:20Z</time>
      </trkpt>
      <trkpt lat="47.08429" lon="-1.7581">
        <ele>74</ele>
        <time>2011-09-04T07:04:22Z</time>
      </trkpt>
      <trkpt lat="47.08422" lon="-1.75816">
        <ele>74</ele>
        <time>2011-09-04T07:04:24Z</time>
      </trkpt>
      <trkpt lat="47.08416" lon="-1.75821">
        <ele>74</ele>
        <time>2011-09-04T07:04:26Z</time>
      </trkpt>
      <trkpt lat="47.08409" lon="-1.75826">
        <ele>74</ele>
        <time>2011-09-04T07:04:28Z</time>
      </trkpt>
      <trkpt lat="47.08403" lon="-1.7583">
        <ele>75</ele>
        <time>2011-09-04T07:04:30Z</time>
      </trkpt>
      <trkpt lat="47.084" lon="-1.75834">
        <ele>75</ele>
        <time>2011-09-04T07:04:31Z</time>
      </trkpt>
      <trkpt lat="47.08395" lon="-1.7584">
        <ele>76</ele>
        <time>2011-09-04T07:04:33Z</time>
      </trkpt>
      <trkpt lat="47.08389" lon="-1.75847">
        <ele>74</ele>
        <time>2011-09-04T07:04:35Z</time>
      </trkpt>
      <trkpt lat="47.08382" lon="-1.75858">
        <ele>70</ele>
        <time>2011-09-04T07:04:37Z</time>
      </trkpt>
      <trkpt lat="47.0838" lon="-1.75865">
        <ele>69</ele>
        <time>2011-09-04T07:04:38Z</time>
      </trkpt>
      <trkpt lat="47.08379" lon="-1.75874">
        <ele>69</ele>
        <time>2011-09-04T07:04:40Z</time>
      </trkpt>
      <trkpt lat="47.08376" lon="-1.75882">
        <ele>67</ele>
        <time>2011-09-04T07:04:42Z</time>
      </trkpt>
      <trkpt lat="47.08376" lon="-1.7589">
        <ele>69</ele>
        <time>2011-09-04T07:04:45Z</time>
      </trkpt>
      <trkpt lat="47.08373" lon="-1.75895">
        <ele>70</ele>
        <time>2011-09-04T07:04:50Z</time>
      </trkpt>
      <trkpt lat="47.08371" lon="-1.75901">
        <ele>70</ele>
        <time>2011-09-04T07:04:55Z</time>
      </trkpt>
      <trkpt lat="47.08366" lon="-1.75905">
        <ele>69</ele>
        <time>2011-09-04T07:05:00Z</time>
      </trkpt>
      <trkpt lat="47.08362" lon="-1.75908">
        <ele>69</ele>
        <time>2011-09-04T07:05:03Z</time>
      </trkpt>
      <trkpt lat="47.08357" lon="-1.75912">
        <ele>69</ele>
        <time>2011-09-04T07:05:06Z</time>
      </trkpt>
      <trkpt lat="47.08351" lon="-1.75916">
        <ele>70</ele>
        <time>2011-09-04T07:05:08Z</time>
      </trkpt>
      <trkpt lat="47.08346" lon="-1.7592">
        <ele>70</ele>
        <time>2011-09-04T07:05:10Z</time>
      </trkpt>
      <trkpt lat="47.0834" lon="-1.75924">
        <ele>72</ele>
        <time>2011-09-04T07:05:12Z</time>
      </trkpt>
      <trkpt lat="47.08334" lon="-1.75929">
        <ele>72</ele>
        <time>2011-09-04T07:05:14Z</time>
      </trkpt>
      <trkpt lat="47.08326" lon="-1.75933">
        <ele>72</ele>
        <time>2011-09-04T07:05:16Z</time>
      </trkpt>
      <trkpt lat="47.08318" lon="-1.75937">
        <ele>74</ele>
        <time>2011-09-04T07:05:18Z</time>
      </trkpt>
      <trkpt lat="47.08314" lon="-1.7594">
        <ele>74</ele>
        <time>2011-09-04T07:05:19Z</time>
      </trkpt>
      <trkpt lat="47.08307" lon="-1.75946">
        <ele>75</ele>
        <time>2011-09-04T07:05:21Z</time>
      </trkpt>
      <trkpt lat="47.08299" lon="-1.75952">
        <ele>74</ele>
        <time>2011-09-04T07:05:23Z</time>
      </trkpt>
      <trkpt lat="47.08293" lon="-1.75958">
        <ele>73</ele>
        <time>2011-09-04T07:05:25Z</time>
      </trkpt>
      <trkpt lat="47.08289" lon="-1.75961">
        <ele>73</ele>
        <time>2011-09-04T07:05:26Z</time>
      </trkpt>
      <trkpt lat="47.08284" lon="-1.75964">
        <ele>73</ele>
        <time>2011-09-04T07:05:27Z</time>
      </trkpt>
      <trkpt lat="47.08279" lon="-1.75966">
        <ele>73</ele>
        <time>2011-09-04T07:05:28Z</time>
      </trkpt>
      <trkpt lat="47.08271" lon="-1.75972">
        <ele>72</ele>
        <time>2011-09-04T07:05:30Z</time>
      </trkpt>
      <trkpt lat="47.08266" lon="-1.75976">
        <ele>71</ele>
        <time>2011-09-04T07:05:31Z</time>
      </trkpt>
      <trkpt lat="47.08262" lon="-1.7598">
        <ele>70</ele>
        <time>2011-09-04T07:05:32Z</time>
      </trkpt>
      <trkpt lat="47.08256" lon="-1.75984">
        <ele>71</ele>
        <time>2011-09-04T07:05:34Z</time>
      </trkpt>
      <trkpt lat="47.08252" lon="-1.75988">
        <ele>71</ele>
        <time>2011-09-04T07:05:35Z</time>
      </trkpt>
      <trkpt lat="47.08244" lon="-1.75993">
        <ele>71</ele>
        <time>2011-09-04T07:05:37Z</time>
      </trkpt>
      <trkpt lat="47.08239" lon="-1.75996">
        <ele>71</ele>
        <time>2011-09-04T07:05:38Z</time>
      </trkpt>
      <trkpt lat="47.08231" lon="-1.76">
        <ele>73</ele>
        <time>2011-09-04T07:05:40Z</time>
      </trkpt>
      <trkpt lat="47.08225" lon="-1.76003">
        <ele>72</ele>
        <time>2011-09-04T07:05:41Z</time>
      </trkpt>
      <trkpt lat="47.0822" lon="-1.76005">
        <ele>72</ele>
        <time>2011-09-04T07:05:42Z</time>
      </trkpt>
      <trkpt lat="47.08212" lon="-1.76008">
        <ele>72</ele>
        <time>2011-09-04T07:05:44Z</time>
      </trkpt>
      <trkpt lat="47.08204" lon="-1.76011">
        <ele>72</ele>
        <time>2011-09-04T07:05:46Z</time>
      </trkpt>
      <trkpt lat="47.08194" lon="-1.76014">
        <ele>71</ele>
        <time>2011-09-04T07:05:48Z</time>
      </trkpt>
      <trkpt lat="47.08188" lon="-1.76016">
        <ele>71</ele>
        <time>2011-09-04T07:05:49Z</time>
      </trkpt>
      <trkpt lat="47.08182" lon="-1.76017">
        <ele>71</ele>
        <time>2011-09-04T07:05:50Z</time>
      </trkpt>
      <trkpt lat="47.08178" lon="-1.76018">
        <ele>71</ele>
        <time>2011-09-04T07:05:51Z</time>
      </trkpt>
      <trkpt lat="47.08173" lon="-1.76019">
        <ele>70</ele>
        <time>2011-09-04T07:05:52Z</time>
      </trkpt>
      <trkpt lat="47.08164" lon="-1.7602">
        <ele>70</ele>
        <time>2011-09-04T07:05:54Z</time>
      </trkpt>
      <trkpt lat="47.08155" lon="-1.76022">
        <ele>69</ele>
        <time>2011-09-04T07:05:56Z</time>
      </trkpt>
      <trkpt lat="47.08147" lon="-1.76022">
        <ele>68</ele>
        <time>2011-09-04T07:05:58Z</time>
      </trkpt>
      <trkpt lat="47.08143" lon="-1.76022">
        <ele>68</ele>
        <time>2011-09-04T07:05:59Z</time>
      </trkpt>
      <trkpt lat="47.08138" lon="-1.76022">
        <ele>68</ele>
        <time>2011-09-04T07:06:00Z</time>
      </trkpt>
      <trkpt lat="47.08133" lon="-1.76023">
        <ele>68</ele>
        <time>2011-09-04T07:06:01Z</time>
      </trkpt>
      <trkpt lat="47.08128" lon="-1.76023">
        <ele>67</ele>
        <time>2011-09-04T07:06:02Z</time>
      </trkpt>
      <trkpt lat="47.08123" lon="-1.76023">
        <ele>67</ele>
        <time>2011-09-04T07:06:03Z</time>
      </trkpt>
      <trkpt lat="47.08117" lon="-1.76025">
        <ele>67</ele>
        <time>2011-09-04T07:06:04Z</time>
      </trkpt>
      <trkpt lat="47.08112" lon="-1.76026">
        <ele>67</ele>
        <time>2011-09-04T07:06:05Z</time>
      </trkpt>
      <trkpt lat="47.08107" lon="-1.76027">
        <ele>67</ele>
        <time>2011-09-04T07:06:06Z</time>
      </trkpt>
      <trkpt lat="47.08101" lon="-1.76029">
        <ele>67</ele>
        <time>2011-09-04T07:06:07Z</time>
      </trkpt>
      <trkpt lat="47.08096" lon="-1.76031">
        <ele>67</ele>
        <time>2011-09-04T07:06:08Z</time>
      </trkpt>
      <trkpt lat="47.08091" lon="-1.76033">
        <ele>66</ele>
        <time>2011-09-04T07:06:09Z</time>
      </trkpt>
      <trkpt lat="47.08087" lon="-1.76036">
        <ele>66</ele>
        <time>2011-09-04T07:06:10Z</time>
      </trkpt>
      <trkpt lat="47.08082" lon="-1.76039">
        <ele>66</ele>
        <time>2011-09-04T07:06:11Z</time>
      </trkpt>
      <trkpt lat="47.08077" lon="-1.76043">
        <ele>66</ele>
        <time>2011-09-04T07:06:12Z</time>
      </trkpt>
      <trkpt lat="47.08072" lon="-1.76046">
        <ele>66</ele>
        <time>2011-09-04T07:06:13Z</time>
      </trkpt>
      <trkpt lat="47.08068" lon="-1.7605">
        <ele>66</ele>
        <time>2011-09-04T07:06:14Z</time>
      </trkpt>
      <trkpt lat="47.08063" lon="-1.76054">
        <ele>66</ele>
        <time>2011-09-04T07:06:15Z</time>
      </trkpt>
      <trkpt lat="47.08057" lon="-1.76058">
        <ele>65</ele>
        <time>2011-09-04T07:06:16Z</time>
      </trkpt>
      <trkpt lat="47.08052" lon="-1.76061">
        <ele>65</ele>
        <time>2011-09-04T07:06:17Z</time>
      </trkpt>
      <trkpt lat="47.08047" lon="-1.76064">
        <ele>65</ele>
        <time>2011-09-04T07:06:18Z</time>
      </trkpt>
      <trkpt lat="47.08041" lon="-1.76066">
        <ele>65</ele>
        <time>2011-09-04T07:06:19Z</time>
      </trkpt>
      <trkpt lat="47.08036" lon="-1.76068">
        <ele>65</ele>
        <time>2011-09-04T07:06:20Z</time>
      </trkpt>
      <trkpt lat="47.08031" lon="-1.76069">
        <ele>65</ele>
        <time>2011-09-04T07:06:21Z</time>
      </trkpt>
      <trkpt lat="47.08026" lon="-1.7607">
        <ele>65</ele>
        <time>2011-09-04T07:06:22Z</time>
      </trkpt>
      <trkpt lat="47.0802" lon="-1.76071">
        <ele>65</ele>
        <time>2011-09-04T07:06:23Z</time>
      </trkpt>
      <trkpt lat="47.08015" lon="-1.76072">
        <ele>65</ele>
        <time>2011-09-04T07:06:24Z</time>
      </trkpt>
      <trkpt lat="47.0801" lon="-1.76073">
        <ele>65</ele>
        <time>2011-09-04T07:06:25Z</time>
      </trkpt>
      <trkpt lat="47.08005" lon="-1.76075">
        <ele>65</ele>
        <time>2011-09-04T07:06:26Z</time>
      </trkpt>
      <trkpt lat="47.08" lon="-1.76077">
        <ele>65</ele>
        <time>2011-09-04T07:06:27Z</time>
      </trkpt>
      <trkpt lat="47.07995" lon="-1.76079">
        <ele>65</ele>
        <time>2011-09-04T07:06:28Z</time>
      </trkpt>
      <trkpt lat="47.0799" lon="-1.7608">
        <ele>65</ele>
        <time>2011-09-04T07:06:29Z</time>
      </trkpt>
      <trkpt lat="47.07985" lon="-1.76083">
        <ele>65</ele>
        <time>2011-09-04T07:06:30Z</time>
      </trkpt>
      <trkpt lat="47.0798" lon="-1.76085">
        <ele>65</ele>
        <time>2011-09-04T07:06:31Z</time>
      </trkpt>
      <trkpt lat="47.07975" lon="-1.76087">
        <ele>65</ele>
        <time>2011-09-04T07:06:32Z</time>
      </trkpt>
      <trkpt lat="47.0797" lon="-1.76089">
        <ele>65</ele>
        <time>2011-09-04T07:06:33Z</time>
      </trkpt>
      <trkpt lat="47.07965" lon="-1.76091">
        <ele>65</ele>
        <time>2011-09-04T07:06:34Z</time>
      </trkpt>
      <trkpt lat="47.0796" lon="-1.76094">
        <ele>64</ele>
        <time>2011-09-04T07:06:35Z</time>
      </trkpt>
      <trkpt lat="47.07955" lon="-1.76096">
        <ele>64</ele>
        <time>2011-09-04T07:06:36Z</time>
      </trkpt>
      <trkpt lat="47.0795" lon="-1.76098">
        <ele>64</ele>
        <time>2011-09-04T07:06:37Z</time>
      </trkpt>
      <trkpt lat="47.07945" lon="-1.76101">
        <ele>64</ele>
        <time>2011-09-04T07:06:38Z</time>
      </trkpt>
      <trkpt lat="47.0794" lon="-1.76104">
        <ele>64</ele>
        <time>2011-09-04T07:06:39Z</time>
      </trkpt>
      <trkpt lat="47.07935" lon="-1.76106">
        <ele>64</ele>
        <time>2011-09-04T07:06:40Z</time>
      </trkpt>
      <trkpt lat="47.0793" lon="-1.76109">
        <ele>64</ele>
        <time>2011-09-04T07:06:41Z</time>
      </trkpt>
      <trkpt lat="47.07925" lon="-1.76112">
        <ele>64</ele>
        <time>2011-09-04T07:06:42Z</time>
      </trkpt>
      <trkpt lat="47.07919" lon="-1.76115">
        <ele>64</ele>
        <time>2011-09-04T07:06:43Z</time>
      </trkpt>
      <trkpt lat="47.07914" lon="-1.76119">
        <ele>64</ele>
        <time>2011-09-04T07:06:44Z</time>
      </trkpt>
      <trkpt lat="47.07909" lon="-1.76122">
        <ele>64</ele>
        <time>2011-09-04T07:06:45Z</time>
      </trkpt>
      <trkpt lat="47.07904" lon="-1.76125">
        <ele>64</ele>
        <time>2011-09-04T07:06:46Z</time>
      </trkpt>
      <trkpt lat="47.07899" lon="-1.76128">
        <ele>64</ele>
        <time>2011-09-04T07:06:47Z</time>
      </trkpt>
      <trkpt lat="47.07894" lon="-1.76132">
        <ele>64</ele>
        <time>2011-09-04T07:06:48Z</time>
      </trkpt>
      <trkpt lat="47.07889" lon="-1.76135">
        <ele>64</ele>
        <time>2011-09-04T07:06:49Z</time>
      </trkpt>
      <trkpt lat="47.07884" lon="-1.76138">
        <ele>64</ele>
        <time>2011-09-04T07:06:50Z</time>
      </trkpt>
      <trkpt lat="47.0788" lon="-1.76142">
        <ele>64</ele>
        <time>2011-09-04T07:06:51Z</time>
      </trkpt>
      <trkpt lat="47.07875" lon="-1.76145">
        <ele>63</ele>
        <time>2011-09-04T07:06:52Z</time>
      </trkpt>
      <trkpt lat="47.07871" lon="-1.76149">
        <ele>63</ele>
        <time>2011-09-04T07:06:53Z</time>
      </trkpt>
      <trkpt lat="47.07866" lon="-1.76153">
        <ele>63</ele>
        <time>2011-09-04T07:06:54Z</time>
      </trkpt>
      <trkpt lat="47.07861" lon="-1.76157">
        <ele>63</ele>
        <time>2011-09-04T07:06:55Z</time>
      </trkpt>
      <trkpt lat="47.07856" lon="-1.7616">
        <ele>63</ele>
        <time>2011-09-04T07:06:56Z</time>
      </trkpt>
      <trkpt lat="47.07851" lon="-1.76164">
        <ele>63</ele>
        <time>2011-09-04T07:06:57Z</time>
      </trkpt>
      <trkpt lat="47.07846" lon="-1.76167">
        <ele>63</ele>
        <time>2011-09-04T07:06:58Z</time>
      </trkpt>
      <trkpt lat="47.07841" lon="-1.7617">
        <ele>63</ele>
        <time>2011-09-04T07:06:59Z</time>
      </trkpt>
      <trkpt lat="47.07836" lon="-1.76172">
        <ele>63</ele>
        <time>2011-09-04T07:07:00Z</time>
      </trkpt>
      <trkpt lat="47.0783" lon="-1.76173">
        <ele>63</ele>
        <time>2011-09-04T07:07:01Z</time>
      </trkpt>
      <trkpt lat="47.07826" lon="-1.76175">
        <ele>63</ele>
        <time>2011-09-04T07:07:02Z</time>
      </trkpt>
      <trkpt lat="47.0782" lon="-1.76176">
        <ele>63</ele>
        <time>2011-09-04T07:07:03Z</time>
      </trkpt>
      <trkpt lat="47.07814" lon="-1.76177">
        <ele>63</ele>
        <time>2011-09-04T07:07:04Z</time>
      </trkpt>
      <trkpt lat="47.0781" lon="-1.76177">
        <ele>63</ele>
        <time>2011-09-04T07:07:05Z</time>
      </trkpt>
      <trkpt lat="47.07804" lon="-1.76178">
        <ele>63</ele>
        <time>2011-09-04T07:07:06Z</time>
      </trkpt>
      <trkpt lat="47.07798" lon="-1.7618">
        <ele>63</ele>
        <time>2011-09-04T07:07:07Z</time>
      </trkpt>
      <trkpt lat="47.07792" lon="-1.7618">
        <ele>63</ele>
        <time>2011-09-04T07:07:08Z</time>
      </trkpt>
      <trkpt lat="47.07786" lon="-1.76181">
        <ele>62</ele>
        <time>2011-09-04T07:07:09Z</time>
      </trkpt>
      <trkpt lat="47.0778" lon="-1.76183">
        <ele>62</ele>
        <time>2011-09-04T07:07:10Z</time>
      </trkpt>
      <trkpt lat="47.07775" lon="-1.76184">
        <ele>62</ele>
        <time>2011-09-04T07:07:11Z</time>
      </trkpt>
      <trkpt lat="47.07768" lon="-1.76186">
        <ele>62</ele>
        <time>2011-09-04T07:07:12Z</time>
      </trkpt>
      <trkpt lat="47.07762" lon="-1.76187">
        <ele>63</ele>
        <time>2011-09-04T07:07:13Z</time>
      </trkpt>
      <trkpt lat="47.07755" lon="-1.76187">
        <ele>62</ele>
        <time>2011-09-04T07:07:14Z</time>
      </trkpt>
      <trkpt lat="47.07749" lon="-1.76188">
        <ele>62</ele>
        <time>2011-09-04T07:07:15Z</time>
      </trkpt>
      <trkpt lat="47.07742" lon="-1.76189">
        <ele>62</ele>
        <time>2011-09-04T07:07:16Z</time>
      </trkpt>
      <trkpt lat="47.07735" lon="-1.76189">
        <ele>63</ele>
        <time>2011-09-04T07:07:17Z</time>
      </trkpt>
      <trkpt lat="47.07728" lon="-1.76191">
        <ele>63</ele>
        <time>2011-09-04T07:07:18Z</time>
      </trkpt>
      <trkpt lat="47.07722" lon="-1.76194">
        <ele>63</ele>
        <time>2011-09-04T07:07:19Z</time>
      </trkpt>
      <trkpt lat="47.07716" lon="-1.76198">
        <ele>63</ele>
        <time>2011-09-04T07:07:20Z</time>
      </trkpt>
      <trkpt lat="47.0771" lon="-1.76202">
        <ele>63</ele>
        <time>2011-09-04T07:07:21Z</time>
      </trkpt>
      <trkpt lat="47.07705" lon="-1.76208">
        <ele>63</ele>
        <time>2011-09-04T07:07:22Z</time>
      </trkpt>
      <trkpt lat="47.077" lon="-1.76214">
        <ele>63</ele>
        <time>2011-09-04T07:07:23Z</time>
      </trkpt>
      <trkpt lat="47.07695" lon="-1.7622">
        <ele>63</ele>
        <time>2011-09-04T07:07:24Z</time>
      </trkpt>
      <trkpt lat="47.0769" lon="-1.76226">
        <ele>63</ele>
        <time>2011-09-04T07:07:25Z</time>
      </trkpt>
      <trkpt lat="47.07686" lon="-1.76232">
        <ele>63</ele>
        <time>2011-09-04T07:07:26Z</time>
      </trkpt>
      <trkpt lat="47.07681" lon="-1.76239">
        <ele>63</ele>
        <time>2011-09-04T07:07:27Z</time>
      </trkpt>
      <trkpt lat="47.07676" lon="-1.76245">
        <ele>63</ele>
        <time>2011-09-04T07:07:28Z</time>
      </trkpt>
      <trkpt lat="47.07671" lon="-1.7625">
        <ele>63</ele>
        <time>2011-09-04T07:07:29Z</time>
      </trkpt>
      <trkpt lat="47.07667" lon="-1.76255">
        <ele>63</ele>
        <time>2011-09-04T07:07:30Z</time>
      </trkpt>
      <trkpt lat="47.07662" lon="-1.76261">
        <ele>63</ele>
        <time>2011-09-04T07:07:31Z</time>
      </trkpt>
      <trkpt lat="47.07659" lon="-1.76265">
        <ele>63</ele>
        <time>2011-09-04T07:07:32Z</time>
      </trkpt>
      <trkpt lat="47.07654" lon="-1.76269">
        <ele>63</ele>
        <time>2011-09-04T07:07:33Z</time>
      </trkpt>
      <trkpt lat="47.0765" lon="-1.76273">
        <ele>63</ele>
        <time>2011-09-04T07:07:34Z</time>
      </trkpt>
      <trkpt lat="47.07646" lon="-1.76277">
        <ele>63</ele>
        <time>2011-09-04T07:07:35Z</time>
      </trkpt>
      <trkpt lat="47.07642" lon="-1.76281">
        <ele>63</ele>
        <time>2011-09-04T07:07:36Z</time>
      </trkpt>
      <trkpt lat="47.07637" lon="-1.76285">
        <ele>63</ele>
        <time>2011-09-04T07:07:37Z</time>
      </trkpt>
      <trkpt lat="47.07634" lon="-1.76289">
        <ele>63</ele>
        <time>2011-09-04T07:07:38Z</time>
      </trkpt>
      <trkpt lat="47.07627" lon="-1.76296">
        <ele>63</ele>
        <time>2011-09-04T07:07:40Z</time>
      </trkpt>
      <trkpt lat="47.07622" lon="-1.763">
        <ele>64</ele>
        <time>2011-09-04T07:07:42Z</time>
      </trkpt>
      <trkpt lat="47.07616" lon="-1.76303">
        <ele>65</ele>
        <time>2011-09-04T07:07:44Z</time>
      </trkpt>
      <trkpt lat="47.07609" lon="-1.76307">
        <ele>65</ele>
        <time>2011-09-04T07:07:46Z</time>
      </trkpt>
      <trkpt lat="47.076" lon="-1.76312">
        <ele>65</ele>
        <time>2011-09-04T07:07:48Z</time>
      </trkpt>
      <trkpt lat="47.07595" lon="-1.76316">
        <ele>65</ele>
        <time>2011-09-04T07:07:49Z</time>
      </trkpt>
      <trkpt lat="47.07591" lon="-1.76319">
        <ele>65</ele>
        <time>2011-09-04T07:07:50Z</time>
      </trkpt>
      <trkpt lat="47.07583" lon="-1.76322">
        <ele>66</ele>
        <time>2011-09-04T07:07:52Z</time>
      </trkpt>
      <trkpt lat="47.07578" lon="-1.76324">
        <ele>66</ele>
        <time>2011-09-04T07:07:53Z</time>
      </trkpt>
      <trkpt lat="47.07573" lon="-1.76326">
        <ele>66</ele>
        <time>2011-09-04T07:07:54Z</time>
      </trkpt>
      <trkpt lat="47.07568" lon="-1.76328">
        <ele>67</ele>
        <time>2011-09-04T07:07:55Z</time>
      </trkpt>
      <trkpt lat="47.07563" lon="-1.7633">
        <ele>67</ele>
        <time>2011-09-04T07:07:56Z</time>
      </trkpt>
      <trkpt lat="47.07555" lon="-1.76334">
        <ele>67</ele>
        <time>2011-09-04T07:07:58Z</time>
      </trkpt>
      <trkpt lat="47.07547" lon="-1.76337">
        <ele>67</ele>
        <time>2011-09-04T07:08:00Z</time>
      </trkpt>
      <trkpt lat="47.07542" lon="-1.7634">
        <ele>67</ele>
        <time>2011-09-04T07:08:01Z</time>
      </trkpt>
      <trkpt lat="47.07538" lon="-1.76343">
        <ele>68</ele>
        <time>2011-09-04T07:08:02Z</time>
      </trkpt>
      <trkpt lat="47.07531" lon="-1.76349">
        <ele>69</ele>
        <time>2011-09-04T07:08:04Z</time>
      </trkpt>
      <trkpt lat="47.07523" lon="-1.76354">
        <ele>69</ele>
        <time>2011-09-04T07:08:06Z</time>
      </trkpt>
      <trkpt lat="47.07516" lon="-1.7636">
        <ele>70</ele>
        <time>2011-09-04T07:08:08Z</time>
      </trkpt>
      <trkpt lat="47.07509" lon="-1.76365">
        <ele>70</ele>
        <time>2011-09-04T07:08:10Z</time>
      </trkpt>
      <trkpt lat="47.07503" lon="-1.7637">
        <ele>71</ele>
        <time>2011-09-04T07:08:12Z</time>
      </trkpt>
      <trkpt lat="47.07499" lon="-1.76373">
        <ele>71</ele>
        <time>2011-09-04T07:08:13Z</time>
      </trkpt>
      <trkpt lat="47.07494" lon="-1.76378">
        <ele>71</ele>
        <time>2011-09-04T07:08:15Z</time>
      </trkpt>
      <trkpt lat="47.07486" lon="-1.7638">
        <ele>72</ele>
        <time>2011-09-04T07:08:17Z</time>
      </trkpt>
      <trkpt lat="47.07478" lon="-1.76386">
        <ele>73</ele>
        <time>2011-09-04T07:08:19Z</time>
      </trkpt>
      <trkpt lat="47.07474" lon="-1.76389">
        <ele>73</ele>
        <time>2011-09-04T07:08:20Z</time>
      </trkpt>
      <trkpt lat="47.07467" lon="-1.76393">
        <ele>73</ele>
        <time>2011-09-04T07:08:22Z</time>
      </trkpt>
      <trkpt lat="47.07462" lon="-1.76396">
        <ele>72</ele>
        <time>2011-09-04T07:08:23Z</time>
      </trkpt>
      <trkpt lat="47.07455" lon="-1.76402">
        <ele>72</ele>
        <time>2011-09-04T07:08:25Z</time>
      </trkpt>
      <trkpt lat="47.07449" lon="-1.76406">
        <ele>73</ele>
        <time>2011-09-04T07:08:27Z</time>
      </trkpt>
      <trkpt lat="47.07441" lon="-1.76413">
        <ele>73</ele>
        <time>2011-09-04T07:08:29Z</time>
      </trkpt>
      <trkpt lat="47.07433" lon="-1.7642">
        <ele>73</ele>
        <time>2011-09-04T07:08:31Z</time>
      </trkpt>
      <trkpt lat="47.07428" lon="-1.76423">
        <ele>72</ele>
        <time>2011-09-04T07:08:32Z</time>
      </trkpt>
      <trkpt lat="47.07423" lon="-1.76426">
        <ele>73</ele>
        <time>2011-09-04T07:08:33Z</time>
      </trkpt>
      <trkpt lat="47.07418" lon="-1.76429">
        <ele>73</ele>
        <time>2011-09-04T07:08:34Z</time>
      </trkpt>
      <trkpt lat="47.0741" lon="-1.76432">
        <ele>73</ele>
        <time>2011-09-04T07:08:36Z</time>
      </trkpt>
      <trkpt lat="47.07402" lon="-1.76436">
        <ele>74</ele>
        <time>2011-09-04T07:08:38Z</time>
      </trkpt>
      <trkpt lat="47.07396" lon="-1.76442">
        <ele>75</ele>
        <time>2011-09-04T07:08:40Z</time>
      </trkpt>
      <trkpt lat="47.07392" lon="-1.76446">
        <ele>75</ele>
        <time>2011-09-04T07:08:41Z</time>
      </trkpt>
      <trkpt lat="47.07387" lon="-1.76451">
        <ele>77</ele>
        <time>2011-09-04T07:08:43Z</time>
      </trkpt>
      <trkpt lat="47.0738" lon="-1.76457">
        <ele>76</ele>
        <time>2011-09-04T07:08:45Z</time>
      </trkpt>
      <trkpt lat="47.07377" lon="-1.76461">
        <ele>76</ele>
        <time>2011-09-04T07:08:46Z</time>
      </trkpt>
      <trkpt lat="47.0737" lon="-1.7647">
        <ele>76</ele>
        <time>2011-09-04T07:08:48Z</time>
      </trkpt>
      <trkpt lat="47.07365" lon="-1.76474">
        <ele>76</ele>
        <time>2011-09-04T07:08:49Z</time>
      </trkpt>
      <trkpt lat="47.07362" lon="-1.76479">
        <ele>76</ele>
        <time>2011-09-04T07:08:50Z</time>
      </trkpt>
      <trkpt lat="47.07356" lon="-1.76485">
        <ele>77</ele>
        <time>2011-09-04T07:08:52Z</time>
      </trkpt>
      <trkpt lat="47.07351" lon="-1.76489">
        <ele>77</ele>
        <time>2011-09-04T07:08:53Z</time>
      </trkpt>
      <trkpt lat="47.07344" lon="-1.76495">
        <ele>79</ele>
        <time>2011-09-04T07:08:55Z</time>
      </trkpt>
      <trkpt lat="47.07338" lon="-1.76503">
        <ele>80</ele>
        <time>2011-09-04T07:08:57Z</time>
      </trkpt>
      <trkpt lat="47.07332" lon="-1.76509">
        <ele>80</ele>
        <time>2011-09-04T07:08:59Z</time>
      </trkpt>
      <trkpt lat="47.07326" lon="-1.76517">
        <ele>81</ele>
        <time>2011-09-04T07:09:01Z</time>
      </trkpt>
      <trkpt lat="47.0732" lon="-1.76525">
        <ele>81</ele>
        <time>2011-09-04T07:09:03Z</time>
      </trkpt>
      <trkpt lat="47.07313" lon="-1.7653">
        <ele>82</ele>
        <time>2011-09-04T07:09:05Z</time>
      </trkpt>
      <trkpt lat="47.07308" lon="-1.76536">
        <ele>83</ele>
        <time>2011-09-04T07:09:07Z</time>
      </trkpt>
      <trkpt lat="47.07305" lon="-1.76543">
        <ele>85</ele>
        <time>2011-09-04T07:09:09Z</time>
      </trkpt>
      <trkpt lat="47.07297" lon="-1.76551">
        <ele>85</ele>
        <time>2011-09-04T07:09:11Z</time>
      </trkpt>
      <trkpt lat="47.07292" lon="-1.76556">
        <ele>86</ele>
        <time>2011-09-04T07:09:12Z</time>
      </trkpt>
      <trkpt lat="47.07286" lon="-1.76563">
        <ele>85</ele>
        <time>2011-09-04T07:09:14Z</time>
      </trkpt>
      <trkpt lat="47.07281" lon="-1.76571">
        <ele>85</ele>
        <time>2011-09-04T07:09:16Z</time>
      </trkpt>
      <trkpt lat="47.07277" lon="-1.76575">
        <ele>85</ele>
        <time>2011-09-04T07:09:18Z</time>
      </trkpt>
      <trkpt lat="47.07274" lon="-1.76583">
        <ele>84</ele>
        <time>2011-09-04T07:09:21Z</time>
      </trkpt>
      <trkpt lat="47.07268" lon="-1.7659">
        <ele>84</ele>
        <time>2011-09-04T07:09:23Z</time>
      </trkpt>
      <trkpt lat="47.07261" lon="-1.76594">
        <ele>84</ele>
        <time>2011-09-04T07:09:25Z</time>
      </trkpt>
      <trkpt lat="47.07253" lon="-1.766">
        <ele>85</ele>
        <time>2011-09-04T07:09:27Z</time>
      </trkpt>
      <trkpt lat="47.07246" lon="-1.76606">
        <ele>85</ele>
        <time>2011-09-04T07:09:29Z</time>
      </trkpt>
      <trkpt lat="47.07241" lon="-1.7661">
        <ele>85</ele>
        <time>2011-09-04T07:09:30Z</time>
      </trkpt>
      <trkpt lat="47.07234" lon="-1.76615">
        <ele>85</ele>
        <time>2011-09-04T07:09:32Z</time>
      </trkpt>
      <trkpt lat="47.0723" lon="-1.76618">
        <ele>86</ele>
        <time>2011-09-04T07:09:33Z</time>
      </trkpt>
      <trkpt lat="47.07225" lon="-1.76622">
        <ele>85</ele>
        <time>2011-09-04T07:09:34Z</time>
      </trkpt>
      <trkpt lat="47.07222" lon="-1.76626">
        <ele>86</ele>
        <time>2011-09-04T07:09:35Z</time>
      </trkpt>
      <trkpt lat="47.07215" lon="-1.76633">
        <ele>87</ele>
        <time>2011-09-04T07:09:37Z</time>
      </trkpt>
      <trkpt lat="47.0721" lon="-1.76641">
        <ele>88</ele>
        <time>2011-09-04T07:09:39Z</time>
      </trkpt>
      <trkpt lat="47.07204" lon="-1.76646">
        <ele>88</ele>
        <time>2011-09-04T07:09:41Z</time>
      </trkpt>
      <trkpt lat="47.07196" lon="-1.76654">
        <ele>88</ele>
        <time>2011-09-04T07:09:43Z</time>
      </trkpt>
      <trkpt lat="47.07188" lon="-1.76661">
        <ele>89</ele>
        <time>2011-09-04T07:09:45Z</time>
      </trkpt>
      <trkpt lat="47.07184" lon="-1.76664">
        <ele>89</ele>
        <time>2011-09-04T07:09:46Z</time>
      </trkpt>
      <trkpt lat="47.07178" lon="-1.76669">
        <ele>90</ele>
        <time>2011-09-04T07:09:48Z</time>
      </trkpt>
      <trkpt lat="47.07174" lon="-1.76673">
        <ele>90</ele>
        <time>2011-09-04T07:09:49Z</time>
      </trkpt>
      <trkpt lat="47.0717" lon="-1.76677">
        <ele>89</ele>
        <time>2011-09-04T07:09:50Z</time>
      </trkpt>
      <trkpt lat="47.07164" lon="-1.76682">
        <ele>89</ele>
        <time>2011-09-04T07:09:51Z</time>
      </trkpt>
      <trkpt lat="47.0716" lon="-1.76686">
        <ele>90</ele>
        <time>2011-09-04T07:09:52Z</time>
      </trkpt>
      <trkpt lat="47.07153" lon="-1.76693">
        <ele>91</ele>
        <time>2011-09-04T07:09:54Z</time>
      </trkpt>
      <trkpt lat="47.07144" lon="-1.767">
        <ele>89</ele>
        <time>2011-09-04T07:09:56Z</time>
      </trkpt>
      <trkpt lat="47.07138" lon="-1.76705">
        <ele>88</ele>
        <time>2011-09-04T07:09:57Z</time>
      </trkpt>
      <trkpt lat="47.07133" lon="-1.7671">
        <ele>87</ele>
        <time>2011-09-04T07:09:58Z</time>
      </trkpt>
      <trkpt lat="47.07129" lon="-1.76714">
        <ele>87</ele>
        <time>2011-09-04T07:09:59Z</time>
      </trkpt>
      <trkpt lat="47.07123" lon="-1.76718">
        <ele>87</ele>
        <time>2011-09-04T07:10:01Z</time>
      </trkpt>
      <trkpt lat="47.07118" lon="-1.7672">
        <ele>87</ele>
        <time>2011-09-04T07:10:02Z</time>
      </trkpt>
      <trkpt lat="47.07109" lon="-1.76726">
        <ele>87</ele>
        <time>2011-09-04T07:10:03Z</time>
      </trkpt>
      <trkpt lat="47.07101" lon="-1.76732">
        <ele>87</ele>
        <time>2011-09-04T07:10:04Z</time>
      </trkpt>
      <trkpt lat="47.07097" lon="-1.76736">
        <ele>87</ele>
        <time>2011-09-04T07:10:05Z</time>
      </trkpt>
      <trkpt lat="47.07093" lon="-1.7674">
        <ele>88</ele>
        <time>2011-09-04T07:10:06Z</time>
      </trkpt>
      <trkpt lat="47.07086" lon="-1.76747">
        <ele>88</ele>
        <time>2011-09-04T07:10:08Z</time>
      </trkpt>
      <trkpt lat="47.0708" lon="-1.76753">
        <ele>87</ele>
        <time>2011-09-04T07:10:10Z</time>
      </trkpt>
      <trkpt lat="47.07076" lon="-1.76759">
        <ele>87</ele>
        <time>2011-09-04T07:10:12Z</time>
      </trkpt>
      <trkpt lat="47.07071" lon="-1.76763">
        <ele>87</ele>
        <time>2011-09-04T07:10:14Z</time>
      </trkpt>
      <trkpt lat="47.07068" lon="-1.76769">
        <ele>87</ele>
        <time>2011-09-04T07:10:16Z</time>
      </trkpt>
      <trkpt lat="47.07064" lon="-1.76776">
        <ele>87</ele>
        <time>2011-09-04T07:10:18Z</time>
      </trkpt>
      <trkpt lat="47.0706" lon="-1.76784">
        <ele>85</ele>
        <time>2011-09-04T07:10:20Z</time>
      </trkpt>
      <trkpt lat="47.07055" lon="-1.76789">
        <ele>84</ele>
        <time>2011-09-04T07:10:21Z</time>
      </trkpt>
      <trkpt lat="47.07052" lon="-1.76792">
        <ele>83</ele>
        <time>2011-09-04T07:10:22Z</time>
      </trkpt>
      <trkpt lat="47.07047" lon="-1.768">
        <ele>83</ele>
        <time>2011-09-04T07:10:24Z</time>
      </trkpt>
      <trkpt lat="47.07043" lon="-1.76807">
        <ele>83</ele>
        <time>2011-09-04T07:10:26Z</time>
      </trkpt>
      <trkpt lat="47.07039" lon="-1.76814">
        <ele>84</ele>
        <time>2011-09-04T07:10:28Z</time>
      </trkpt>
      <trkpt lat="47.07031" lon="-1.76822">
        <ele>85</ele>
        <time>2011-09-04T07:10:30Z</time>
      </trkpt>
      <trkpt lat="47.07025" lon="-1.76831">
        <ele>85</ele>
        <time>2011-09-04T07:10:32Z</time>
      </trkpt>
      <trkpt lat="47.07021" lon="-1.76838">
        <ele>85</ele>
        <time>2011-09-04T07:10:33Z</time>
      </trkpt>
      <trkpt lat="47.07016" lon="-1.76847">
        <ele>86</ele>
        <time>2011-09-04T07:10:35Z</time>
      </trkpt>
      <trkpt lat="47.07012" lon="-1.76852">
        <ele>86</ele>
        <time>2011-09-04T07:10:36Z</time>
      </trkpt>
      <trkpt lat="47.07007" lon="-1.76857">
        <ele>86</ele>
        <time>2011-09-04T07:10:38Z</time>
      </trkpt>
      <trkpt lat="47.07002" lon="-1.76865">
        <ele>87</ele>
        <time>2011-09-04T07:10:40Z</time>
      </trkpt>
      <trkpt lat="47.06997" lon="-1.76873">
        <ele>87</ele>
        <time>2011-09-04T07:10:42Z</time>
      </trkpt>
      <trkpt lat="47.0699" lon="-1.7688">
        <ele>87</ele>
        <time>2011-09-04T07:10:44Z</time>
      </trkpt>
      <trkpt lat="47.06986" lon="-1.76885">
        <ele>86</ele>
        <time>2011-09-04T07:10:45Z</time>
      </trkpt>
      <trkpt lat="47.06982" lon="-1.76889">
        <ele>84</ele>
        <time>2011-09-04T07:10:46Z</time>
      </trkpt>
      <trkpt lat="47.06978" lon="-1.76893">
        <ele>84</ele>
        <time>2011-09-04T07:10:47Z</time>
      </trkpt>
      <trkpt lat="47.06974" lon="-1.76897">
        <ele>84</ele>
        <time>2011-09-04T07:10:48Z</time>
      </trkpt>
      <trkpt lat="47.0697" lon="-1.76901">
        <ele>83</ele>
        <time>2011-09-04T07:10:49Z</time>
      </trkpt>
      <trkpt lat="47.06962" lon="-1.7691">
        <ele>82</ele>
        <time>2011-09-04T07:10:51Z</time>
      </trkpt>
      <trkpt lat="47.06956" lon="-1.76916">
        <ele>81</ele>
        <time>2011-09-04T07:10:52Z</time>
      </trkpt>
      <trkpt lat="47.06953" lon="-1.76921">
        <ele>80</ele>
        <time>2011-09-04T07:10:53Z</time>
      </trkpt>
      <trkpt lat="47.06948" lon="-1.76926">
        <ele>80</ele>
        <time>2011-09-04T07:10:54Z</time>
      </trkpt>
      <trkpt lat="47.06944" lon="-1.7693">
        <ele>79</ele>
        <time>2011-09-04T07:10:55Z</time>
      </trkpt>
      <trkpt lat="47.06937" lon="-1.76938">
        <ele>79</ele>
        <time>2011-09-04T07:10:57Z</time>
      </trkpt>
      <trkpt lat="47.06933" lon="-1.76946">
        <ele>77</ele>
        <time>2011-09-04T07:10:58Z</time>
      </trkpt>
      <trkpt lat="47.06932" lon="-1.76954">
        <ele>77</ele>
        <time>2011-09-04T07:10:59Z</time>
      </trkpt>
      <trkpt lat="47.06933" lon="-1.76967">
        <ele>79</ele>
        <time>2011-09-04T07:11:01Z</time>
      </trkpt>
      <trkpt lat="47.06937" lon="-1.76979">
        <ele>79</ele>
        <time>2011-09-04T07:11:03Z</time>
      </trkpt>
      <trkpt lat="47.0694" lon="-1.76989">
        <ele>79</ele>
        <time>2011-09-04T07:11:05Z</time>
      </trkpt>
      <trkpt lat="47.06943" lon="-1.76999">
        <ele>79</ele>
        <time>2011-09-04T07:11:07Z</time>
      </trkpt>
      <trkpt lat="47.06947" lon="-1.77008">
        <ele>79</ele>
        <time>2011-09-04T07:11:09Z</time>
      </trkpt>
      <trkpt lat="47.06951" lon="-1.77016">
        <ele>79</ele>
        <time>2011-09-04T07:11:11Z</time>
      </trkpt>
      <trkpt lat="47.06955" lon="-1.77022">
        <ele>79</ele>
        <time>2011-09-04T07:11:13Z</time>
      </trkpt>
      <trkpt lat="47.06958" lon="-1.77029">
        <ele>79</ele>
        <time>2011-09-04T07:11:16Z</time>
      </trkpt>
      <trkpt lat="47.06959" lon="-1.77036">
        <ele>76</ele>
        <time>2011-09-04T07:11:35Z</time>
      </trkpt>
      <trkpt lat="47.06956" lon="-1.77043">
        <ele>76</ele>
        <time>2011-09-04T07:11:37Z</time>
      </trkpt>
      <trkpt lat="47.06952" lon="-1.77049">
        <ele>76</ele>
        <time>2011-09-04T07:11:39Z</time>
      </trkpt>
      <trkpt lat="47.06946" lon="-1.77057">
        <ele>76</ele>
        <time>2011-09-04T07:11:41Z</time>
      </trkpt>
      <trkpt lat="47.06941" lon="-1.77063">
        <ele>75</ele>
        <time>2011-09-04T07:11:43Z</time>
      </trkpt>
      <trkpt lat="47.06936" lon="-1.77069">
        <ele>75</ele>
        <time>2011-09-04T07:11:45Z</time>
      </trkpt>
      <trkpt lat="47.0693" lon="-1.77076">
        <ele>75</ele>
        <time>2011-09-04T07:11:47Z</time>
      </trkpt>
      <trkpt lat="47.06924" lon="-1.77083">
        <ele>75</ele>
        <time>2011-09-04T07:11:49Z</time>
      </trkpt>
      <trkpt lat="47.06918" lon="-1.77091">
        <ele>75</ele>
        <time>2011-09-04T07:11:51Z</time>
      </trkpt>
      <trkpt lat="47.06912" lon="-1.77099">
        <ele>75</ele>
        <time>2011-09-04T07:11:53Z</time>
      </trkpt>
      <trkpt lat="47.06905" lon="-1.77107">
        <ele>75</ele>
        <time>2011-09-04T07:11:55Z</time>
      </trkpt>
      <trkpt lat="47.06899" lon="-1.77115">
        <ele>75</ele>
        <time>2011-09-04T07:11:57Z</time>
      </trkpt>
      <trkpt lat="47.06892" lon="-1.77122">
        <ele>75</ele>
        <time>2011-09-04T07:11:59Z</time>
      </trkpt>
      <trkpt lat="47.06888" lon="-1.77126">
        <ele>75</ele>
        <time>2011-09-04T07:12:00Z</time>
      </trkpt>
      <trkpt lat="47.06881" lon="-1.77135">
        <ele>75</ele>
        <time>2011-09-04T07:12:02Z</time>
      </trkpt>
      <trkpt lat="47.06874" lon="-1.77143">
        <ele>75</ele>
        <time>2011-09-04T07:12:04Z</time>
      </trkpt>
      <trkpt lat="47.06871" lon="-1.77148">
        <ele>75</ele>
        <time>2011-09-04T07:12:05Z</time>
      </trkpt>
      <trkpt lat="47.06865" lon="-1.77157">
        <ele>75</ele>
        <time>2011-09-04T07:12:07Z</time>
      </trkpt>
      <trkpt lat="47.0686" lon="-1.77166">
        <ele>75</ele>
        <time>2011-09-04T07:12:09Z</time>
      </trkpt>
      <trkpt lat="47.06857" lon="-1.77171">
        <ele>75</ele>
        <time>2011-09-04T07:12:10Z</time>
      </trkpt>
      <trkpt lat="47.06851" lon="-1.7718">
        <ele>75</ele>
        <time>2011-09-04T07:12:12Z</time>
      </trkpt>
      <trkpt lat="47.06846" lon="-1.77187">
        <ele>75</ele>
        <time>2011-09-04T07:12:14Z</time>
      </trkpt>
      <trkpt lat="47.06839" lon="-1.77194">
        <ele>75</ele>
        <time>2011-09-04T07:12:16Z</time>
      </trkpt>
      <trkpt lat="47.06833" lon="-1.77201">
        <ele>75</ele>
        <time>2011-09-04T07:12:18Z</time>
      </trkpt>
      <trkpt lat="47.06829" lon="-1.77205">
        <ele>75</ele>
        <time>2011-09-04T07:12:19Z</time>
      </trkpt>
      <trkpt lat="47.06825" lon="-1.7721">
        <ele>75</ele>
        <time>2011-09-04T07:12:20Z</time>
      </trkpt>
      <trkpt lat="47.0682" lon="-1.77215">
        <ele>75</ele>
        <time>2011-09-04T07:12:21Z</time>
      </trkpt>
      <trkpt lat="47.06816" lon="-1.77219">
        <ele>75</ele>
        <time>2011-09-04T07:12:22Z</time>
      </trkpt>
      <trkpt lat="47.06812" lon="-1.77225">
        <ele>75</ele>
        <time>2011-09-04T07:12:23Z</time>
      </trkpt>
      <trkpt lat="47.06809" lon="-1.7723">
        <ele>75</ele>
        <time>2011-09-04T07:12:24Z</time>
      </trkpt>
      <trkpt lat="47.06805" lon="-1.77233">
        <ele>75</ele>
        <time>2011-09-04T07:12:25Z</time>
      </trkpt>
      <trkpt lat="47.06801" lon="-1.77238">
        <ele>75</ele>
        <time>2011-09-04T07:12:26Z</time>
      </trkpt>
      <trkpt lat="47.06797" lon="-1.77243">
        <ele>75</ele>
        <time>2011-09-04T07:12:27Z</time>
      </trkpt>
      <trkpt lat="47.06793" lon="-1.77248">
        <ele>74</ele>
        <time>2011-09-04T07:12:28Z</time>
      </trkpt>
      <trkpt lat="47.06789" lon="-1.77253">
        <ele>74</ele>
        <time>2011-09-04T07:12:29Z</time>
      </trkpt>
      <trkpt lat="47.06785" lon="-1.77257">
        <ele>74</ele>
        <time>2011-09-04T07:12:30Z</time>
      </trkpt>
      <trkpt lat="47.06782" lon="-1.77262">
        <ele>73</ele>
        <time>2011-09-04T07:12:31Z</time>
      </trkpt>
      <trkpt lat="47.06778" lon="-1.77267">
        <ele>73</ele>
        <time>2011-09-04T07:12:32Z</time>
      </trkpt>
      <trkpt lat="47.06774" lon="-1.77272">
        <ele>73</ele>
        <time>2011-09-04T07:12:33Z</time>
      </trkpt>
      <trkpt lat="47.0677" lon="-1.77277">
        <ele>73</ele>
        <time>2011-09-04T07:12:34Z</time>
      </trkpt>
      <trkpt lat="47.06766" lon="-1.77281">
        <ele>73</ele>
        <time>2011-09-04T07:12:35Z</time>
      </trkpt>
      <trkpt lat="47.06762" lon="-1.77287">
        <ele>73</ele>
        <time>2011-09-04T07:12:36Z</time>
      </trkpt>
      <trkpt lat="47.06758" lon="-1.77292">
        <ele>73</ele>
        <time>2011-09-04T07:12:37Z</time>
      </trkpt>
      <trkpt lat="47.06754" lon="-1.77297">
        <ele>73</ele>
        <time>2011-09-04T07:12:38Z</time>
      </trkpt>
      <trkpt lat="47.0675" lon="-1.77302">
        <ele>73</ele>
        <time>2011-09-04T07:12:39Z</time>
      </trkpt>
      <trkpt lat="47.06746" lon="-1.77306">
        <ele>73</ele>
        <time>2011-09-04T07:12:40Z</time>
      </trkpt>
      <trkpt lat="47.06742" lon="-1.77311">
        <ele>73</ele>
        <time>2011-09-04T07:12:41Z</time>
      </trkpt>
      <trkpt lat="47.06738" lon="-1.77318">
        <ele>73</ele>
        <time>2011-09-04T07:12:42Z</time>
      </trkpt>
      <trkpt lat="47.06734" lon="-1.77324">
        <ele>73</ele>
        <time>2011-09-04T07:12:43Z</time>
      </trkpt>
      <trkpt lat="47.06731" lon="-1.7733">
        <ele>73</ele>
        <time>2011-09-04T07:12:44Z</time>
      </trkpt>
      <trkpt lat="47.06728" lon="-1.77336">
        <ele>72</ele>
        <time>2011-09-04T07:12:45Z</time>
      </trkpt>
      <trkpt lat="47.06724" lon="-1.77342">
        <ele>72</ele>
        <time>2011-09-04T07:12:46Z</time>
      </trkpt>
      <trkpt lat="47.0672" lon="-1.77348">
        <ele>72</ele>
        <time>2011-09-04T07:12:47Z</time>
      </trkpt>
      <trkpt lat="47.06716" lon="-1.77352">
        <ele>72</ele>
        <time>2011-09-04T07:12:48Z</time>
      </trkpt>
      <trkpt lat="47.06711" lon="-1.77358">
        <ele>72</ele>
        <time>2011-09-04T07:12:49Z</time>
      </trkpt>
      <trkpt lat="47.06707" lon="-1.77363">
        <ele>72</ele>
        <time>2011-09-04T07:12:50Z</time>
      </trkpt>
      <trkpt lat="47.06703" lon="-1.77368">
        <ele>72</ele>
        <time>2011-09-04T07:12:51Z</time>
      </trkpt>
      <trkpt lat="47.06698" lon="-1.77373">
        <ele>72</ele>
        <time>2011-09-04T07:12:52Z</time>
      </trkpt>
      <trkpt lat="47.06695" lon="-1.77378">
        <ele>72</ele>
        <time>2011-09-04T07:12:53Z</time>
      </trkpt>
      <trkpt lat="47.0669" lon="-1.77382">
        <ele>72</ele>
        <time>2011-09-04T07:12:54Z</time>
      </trkpt>
      <trkpt lat="47.06684" lon="-1.7739">
        <ele>73</ele>
        <time>2011-09-04T07:12:56Z</time>
      </trkpt>
      <trkpt lat="47.06679" lon="-1.774">
        <ele>73</ele>
        <time>2011-09-04T07:12:58Z</time>
      </trkpt>
      <trkpt lat="47.06675" lon="-1.77405">
        <ele>73</ele>
        <time>2011-09-04T07:12:59Z</time>
      </trkpt>
      <trkpt lat="47.06671" lon="-1.7741">
        <ele>73</ele>
        <time>2011-09-04T07:13:00Z</time>
      </trkpt>
      <trkpt lat="47.06666" lon="-1.77415">
        <ele>73</ele>
        <time>2011-09-04T07:13:01Z</time>
      </trkpt>
      <trkpt lat="47.06662" lon="-1.7742">
        <ele>73</ele>
        <time>2011-09-04T07:13:02Z</time>
      </trkpt>
      <trkpt lat="47.06658" lon="-1.77425">
        <ele>73</ele>
        <time>2011-09-04T07:13:03Z</time>
      </trkpt>
      <trkpt lat="47.06654" lon="-1.77431">
        <ele>73</ele>
        <time>2011-09-04T07:13:04Z</time>
      </trkpt>
      <trkpt lat="47.06651" lon="-1.77438">
        <ele>73</ele>
        <time>2011-09-04T07:13:05Z</time>
      </trkpt>
      <trkpt lat="47.06647" lon="-1.77444">
        <ele>73</ele>
        <time>2011-09-04T07:13:06Z</time>
      </trkpt>
      <trkpt lat="47.06643" lon="-1.77449">
        <ele>73</ele>
        <time>2011-09-04T07:13:07Z</time>
      </trkpt>
      <trkpt lat="47.06638" lon="-1.77454">
        <ele>72</ele>
        <time>2011-09-04T07:13:08Z</time>
      </trkpt>
      <trkpt lat="47.06633" lon="-1.77459">
        <ele>72</ele>
        <time>2011-09-04T07:13:09Z</time>
      </trkpt>
      <trkpt lat="47.06629" lon="-1.77464">
        <ele>72</ele>
        <time>2011-09-04T07:13:10Z</time>
      </trkpt>
      <trkpt lat="47.06623" lon="-1.77468">
        <ele>72</ele>
        <time>2011-09-04T07:13:11Z</time>
      </trkpt>
      <trkpt lat="47.06618" lon="-1.77473">
        <ele>72</ele>
        <time>2011-09-04T07:13:12Z</time>
      </trkpt>
      <trkpt lat="47.06613" lon="-1.77478">
        <ele>71</ele>
        <time>2011-09-04T07:13:13Z</time>
      </trkpt>
      <trkpt lat="47.06607" lon="-1.77483">
        <ele>71</ele>
        <time>2011-09-04T07:13:14Z</time>
      </trkpt>
      <trkpt lat="47.06602" lon="-1.77486">
        <ele>71</ele>
        <time>2011-09-04T07:13:15Z</time>
      </trkpt>
      <trkpt lat="47.06597" lon="-1.77492">
        <ele>71</ele>
        <time>2011-09-04T07:13:16Z</time>
      </trkpt>
      <trkpt lat="47.06591" lon="-1.77496">
        <ele>71</ele>
        <time>2011-09-04T07:13:17Z</time>
      </trkpt>
      <trkpt lat="47.06586" lon="-1.775">
        <ele>70</ele>
        <time>2011-09-04T07:13:18Z</time>
      </trkpt>
      <trkpt lat="47.06582" lon="-1.77506">
        <ele>70</ele>
        <time>2011-09-04T07:13:19Z</time>
      </trkpt>
      <trkpt lat="47.06577" lon="-1.77511">
        <ele>70</ele>
        <time>2011-09-04T07:13:20Z</time>
      </trkpt>
      <trkpt lat="47.06571" lon="-1.77516">
        <ele>70</ele>
        <time>2011-09-04T07:13:21Z</time>
      </trkpt>
      <trkpt lat="47.06566" lon="-1.77521">
        <ele>70</ele>
        <time>2011-09-04T07:13:22Z</time>
      </trkpt>
      <trkpt lat="47.06562" lon="-1.77527">
        <ele>70</ele>
        <time>2011-09-04T07:13:23Z</time>
      </trkpt>
      <trkpt lat="47.06557" lon="-1.77532">
        <ele>70</ele>
        <time>2011-09-04T07:13:24Z</time>
      </trkpt>
      <trkpt lat="47.06552" lon="-1.77536">
        <ele>70</ele>
        <time>2011-09-04T07:13:25Z</time>
      </trkpt>
      <trkpt lat="47.06547" lon="-1.77541">
        <ele>70</ele>
        <time>2011-09-04T07:13:26Z</time>
      </trkpt>
      <trkpt lat="47.06542" lon="-1.77547">
        <ele>70</ele>
        <time>2011-09-04T07:13:27Z</time>
      </trkpt>
      <trkpt lat="47.06537" lon="-1.77552">
        <ele>69</ele>
        <time>2011-09-04T07:13:28Z</time>
      </trkpt>
      <trkpt lat="47.06532" lon="-1.77558">
        <ele>69</ele>
        <time>2011-09-04T07:13:29Z</time>
      </trkpt>
      <trkpt lat="47.06527" lon="-1.77563">
        <ele>69</ele>
        <time>2011-09-04T07:13:30Z</time>
      </trkpt>
      <trkpt lat="47.06522" lon="-1.77568">
        <ele>69</ele>
        <time>2011-09-04T07:13:31Z</time>
      </trkpt>
      <trkpt lat="47.06517" lon="-1.77572">
        <ele>69</ele>
        <time>2011-09-04T07:13:32Z</time>
      </trkpt>
      <trkpt lat="47.06513" lon="-1.77577">
        <ele>69</ele>
        <time>2011-09-04T07:13:33Z</time>
      </trkpt>
      <trkpt lat="47.06508" lon="-1.7758">
        <ele>69</ele>
        <time>2011-09-04T07:13:34Z</time>
      </trkpt>
      <trkpt lat="47.06504" lon="-1.77584">
        <ele>69</ele>
        <time>2011-09-04T07:13:35Z</time>
      </trkpt>
      <trkpt lat="47.065" lon="-1.77588">
        <ele>69</ele>
        <time>2011-09-04T07:13:36Z</time>
      </trkpt>
      <trkpt lat="47.06491" lon="-1.77594">
        <ele>70</ele>
        <time>2011-09-04T07:13:38Z</time>
      </trkpt>
      <trkpt lat="47.06483" lon="-1.77598">
        <ele>70</ele>
        <time>2011-09-04T07:13:40Z</time>
      </trkpt>
      <trkpt lat="47.06478" lon="-1.776">
        <ele>71</ele>
        <time>2011-09-04T07:13:42Z</time>
      </trkpt>
      <trkpt lat="47.06469" lon="-1.776">
        <ele>71</ele>
        <time>2011-09-04T07:13:44Z</time>
      </trkpt>
      <trkpt lat="47.06462" lon="-1.77602">
        <ele>72</ele>
        <time>2011-09-04T07:13:46Z</time>
      </trkpt>
      <trkpt lat="47.06454" lon="-1.77606">
        <ele>72</ele>
        <time>2011-09-04T07:13:48Z</time>
      </trkpt>
      <trkpt lat="47.06446" lon="-1.77607">
        <ele>73</ele>
        <time>2011-09-04T07:13:50Z</time>
      </trkpt>
      <trkpt lat="47.06439" lon="-1.77609">
        <ele>73</ele>
        <time>2011-09-04T07:13:52Z</time>
      </trkpt>
      <trkpt lat="47.06435" lon="-1.7761">
        <ele>73</ele>
        <time>2011-09-04T07:13:53Z</time>
      </trkpt>
      <trkpt lat="47.06427" lon="-1.7761">
        <ele>74</ele>
        <time>2011-09-04T07:13:55Z</time>
      </trkpt>
      <trkpt lat="47.06418" lon="-1.77611">
        <ele>73</ele>
        <time>2011-09-04T07:13:57Z</time>
      </trkpt>
      <trkpt lat="47.06413" lon="-1.77612">
        <ele>73</ele>
        <time>2011-09-04T07:13:58Z</time>
      </trkpt>
      <trkpt lat="47.06408" lon="-1.77612">
        <ele>74</ele>
        <time>2011-09-04T07:13:59Z</time>
      </trkpt>
      <trkpt lat="47.06403" lon="-1.77614">
        <ele>74</ele>
        <time>2011-09-04T07:14:00Z</time>
      </trkpt>
      <trkpt lat="47.06399" lon="-1.77615">
        <ele>74</ele>
        <time>2011-09-04T07:14:01Z</time>
      </trkpt>
      <trkpt lat="47.06393" lon="-1.77617">
        <ele>74</ele>
        <time>2011-09-04T07:14:02Z</time>
      </trkpt>
      <trkpt lat="47.06388" lon="-1.7762">
        <ele>73</ele>
        <time>2011-09-04T07:14:03Z</time>
      </trkpt>
      <trkpt lat="47.06379" lon="-1.77623">
        <ele>73</ele>
        <time>2011-09-04T07:14:05Z</time>
      </trkpt>
      <trkpt lat="47.06374" lon="-1.77626">
        <ele>73</ele>
        <time>2011-09-04T07:14:06Z</time>
      </trkpt>
      <trkpt lat="47.0637" lon="-1.77628">
        <ele>73</ele>
        <time>2011-09-04T07:14:07Z</time>
      </trkpt>
      <trkpt lat="47.06364" lon="-1.77635">
        <ele>73</ele>
        <time>2011-09-04T07:14:09Z</time>
      </trkpt>
      <trkpt lat="47.0636" lon="-1.77639">
        <ele>73</ele>
        <time>2011-09-04T07:14:10Z</time>
      </trkpt>
      <trkpt lat="47.06356" lon="-1.77643">
        <ele>73</ele>
        <time>2011-09-04T07:14:11Z</time>
      </trkpt>
      <trkpt lat="47.06351" lon="-1.77647">
        <ele>72</ele>
        <time>2011-09-04T07:14:12Z</time>
      </trkpt>
      <trkpt lat="47.06348" lon="-1.77651">
        <ele>72</ele>
        <time>2011-09-04T07:14:13Z</time>
      </trkpt>
      <trkpt lat="47.06344" lon="-1.77655">
        <ele>72</ele>
        <time>2011-09-04T07:14:14Z</time>
      </trkpt>
      <trkpt lat="47.06336" lon="-1.77662">
        <ele>72</ele>
        <time>2011-09-04T07:14:16Z</time>
      </trkpt>
      <trkpt lat="47.06334" lon="-1.77667">
        <ele>71</ele>
        <time>2011-09-04T07:14:17Z</time>
      </trkpt>
      <trkpt lat="47.0633" lon="-1.77671">
        <ele>71</ele>
        <time>2011-09-04T07:14:18Z</time>
      </trkpt>
      <trkpt lat="47.06323" lon="-1.77679">
        <ele>72</ele>
        <time>2011-09-04T07:14:20Z</time>
      </trkpt>
      <trkpt lat="47.06316" lon="-1.77688">
        <ele>71</ele>
        <time>2011-09-04T07:14:22Z</time>
      </trkpt>
      <trkpt lat="47.06312" lon="-1.77692">
        <ele>71</ele>
        <time>2011-09-04T07:14:23Z</time>
      </trkpt>
      <trkpt lat="47.06304" lon="-1.77701">
        <ele>71</ele>
        <time>2011-09-04T07:14:25Z</time>
      </trkpt>
      <trkpt lat="47.063" lon="-1.77705">
        <ele>71</ele>
        <time>2011-09-04T07:14:26Z</time>
      </trkpt>
      <trkpt lat="47.06297" lon="-1.77709">
        <ele>70</ele>
        <time>2011-09-04T07:14:27Z</time>
      </trkpt>
      <trkpt lat="47.06293" lon="-1.77714">
        <ele>70</ele>
        <time>2011-09-04T07:14:28Z</time>
      </trkpt>
      <trkpt lat="47.06289" lon="-1.77718">
        <ele>71</ele>
        <time>2011-09-04T07:14:29Z</time>
      </trkpt>
      <trkpt lat="47.06285" lon="-1.77722">
        <ele>70</ele>
        <time>2011-09-04T07:14:30Z</time>
      </trkpt>
      <trkpt lat="47.06282" lon="-1.77726">
        <ele>70</ele>
        <time>2011-09-04T07:14:31Z</time>
      </trkpt>
      <trkpt lat="47.06278" lon="-1.7773">
        <ele>70</ele>
        <time>2011-09-04T07:14:32Z</time>
      </trkpt>
      <trkpt lat="47.06274" lon="-1.77733">
        <ele>70</ele>
        <time>2011-09-04T07:14:33Z</time>
      </trkpt>
      <trkpt lat="47.06266" lon="-1.7774">
        <ele>70</ele>
        <time>2011-09-04T07:14:35Z</time>
      </trkpt>
      <trkpt lat="47.06258" lon="-1.77745">
        <ele>70</ele>
        <time>2011-09-04T07:14:37Z</time>
      </trkpt>
      <trkpt lat="47.06252" lon="-1.7775">
        <ele>70</ele>
        <time>2011-09-04T07:14:39Z</time>
      </trkpt>
      <trkpt lat="47.06246" lon="-1.77755">
        <ele>70</ele>
        <time>2011-09-04T07:14:41Z</time>
      </trkpt>
      <trkpt lat="47.06241" lon="-1.7776">
        <ele>70</ele>
        <time>2011-09-04T07:14:43Z</time>
      </trkpt>
      <trkpt lat="47.06238" lon="-1.77768">
        <ele>70</ele>
        <time>2011-09-04T07:14:45Z</time>
      </trkpt>
      <trkpt lat="47.06235" lon="-1.77778">
        <ele>69</ele>
        <time>2011-09-04T07:14:47Z</time>
      </trkpt>
      <trkpt lat="47.06231" lon="-1.77784">
        <ele>68</ele>
        <time>2011-09-04T07:14:49Z</time>
      </trkpt>
      <trkpt lat="47.06226" lon="-1.7779">
        <ele>68</ele>
        <time>2011-09-04T07:14:51Z</time>
      </trkpt>
      <trkpt lat="47.0622" lon="-1.77798">
        <ele>67</ele>
        <time>2011-09-04T07:14:53Z</time>
      </trkpt>
      <trkpt lat="47.06216" lon="-1.77807">
        <ele>66</ele>
        <time>2011-09-04T07:14:55Z</time>
      </trkpt>
      <trkpt lat="47.06212" lon="-1.77815">
        <ele>66</ele>
        <time>2011-09-04T07:14:57Z</time>
      </trkpt>
      <trkpt lat="47.06208" lon="-1.77822">
        <ele>66</ele>
        <time>2011-09-04T07:14:59Z</time>
      </trkpt>
      <trkpt lat="47.06204" lon="-1.77828">
        <ele>66</ele>
        <time>2011-09-04T07:15:01Z</time>
      </trkpt>
      <trkpt lat="47.06201" lon="-1.77836">
        <ele>65</ele>
        <time>2011-09-04T07:15:03Z</time>
      </trkpt>
      <trkpt lat="47.06196" lon="-1.77843">
        <ele>65</ele>
        <time>2011-09-04T07:15:05Z</time>
      </trkpt>
      <trkpt lat="47.06192" lon="-1.77849">
        <ele>65</ele>
        <time>2011-09-04T07:15:07Z</time>
      </trkpt>
      <trkpt lat="47.06188" lon="-1.77856">
        <ele>65</ele>
        <time>2011-09-04T07:15:09Z</time>
      </trkpt>
      <trkpt lat="47.06185" lon="-1.77863">
        <ele>65</ele>
        <time>2011-09-04T07:15:11Z</time>
      </trkpt>
      <trkpt lat="47.06182" lon="-1.7787">
        <ele>64</ele>
        <time>2011-09-04T07:15:13Z</time>
      </trkpt>
      <trkpt lat="47.06178" lon="-1.77876">
        <ele>64</ele>
        <time>2011-09-04T07:15:15Z</time>
      </trkpt>
      <trkpt lat="47.06174" lon="-1.77883">
        <ele>64</ele>
        <time>2011-09-04T07:15:17Z</time>
      </trkpt>
      <trkpt lat="47.0617" lon="-1.77889">
        <ele>64</ele>
        <time>2011-09-04T07:15:19Z</time>
      </trkpt>
      <trkpt lat="47.06166" lon="-1.77897">
        <ele>64</ele>
        <time>2011-09-04T07:15:21Z</time>
      </trkpt>
      <trkpt lat="47.06162" lon="-1.77904">
        <ele>64</ele>
        <time>2011-09-04T07:15:23Z</time>
      </trkpt>
      <trkpt lat="47.06158" lon="-1.77911">
        <ele>64</ele>
        <time>2011-09-04T07:15:25Z</time>
      </trkpt>
      <trkpt lat="47.06154" lon="-1.77918">
        <ele>64</ele>
        <time>2011-09-04T07:15:27Z</time>
      </trkpt>
      <trkpt lat="47.06151" lon="-1.77923">
        <ele>64</ele>
        <time>2011-09-04T07:15:29Z</time>
      </trkpt>
      <trkpt lat="47.06146" lon="-1.77928">
        <ele>64</ele>
        <time>2011-09-04T07:15:31Z</time>
      </trkpt>
      <trkpt lat="47.06142" lon="-1.77932">
        <ele>64</ele>
        <time>2011-09-04T07:15:33Z</time>
      </trkpt>
      <trkpt lat="47.06137" lon="-1.77937">
        <ele>65</ele>
        <time>2011-09-04T07:15:35Z</time>
      </trkpt>
      <trkpt lat="47.06134" lon="-1.77942">
        <ele>65</ele>
        <time>2011-09-04T07:15:37Z</time>
      </trkpt>
      <trkpt lat="47.06134" lon="-1.77953">
        <ele>66</ele>
        <time>2011-09-04T07:15:39Z</time>
      </trkpt>
      <trkpt lat="47.06137" lon="-1.77963">
        <ele>67</ele>
        <time>2011-09-04T07:15:41Z</time>
      </trkpt>
      <trkpt lat="47.06141" lon="-1.77973">
        <ele>68</ele>
        <time>2011-09-04T07:15:43Z</time>
      </trkpt>
      <trkpt lat="47.06144" lon="-1.77984">
        <ele>69</ele>
        <time>2011-09-04T07:15:45Z</time>
      </trkpt>
      <trkpt lat="47.06147" lon="-1.77989">
        <ele>69</ele>
        <time>2011-09-04T07:15:46Z</time>
      </trkpt>
      <trkpt lat="47.06149" lon="-1.77995">
        <ele>70</ele>
        <time>2011-09-04T07:15:47Z</time>
      </trkpt>
      <trkpt lat="47.06152" lon="-1.78">
        <ele>70</ele>
        <time>2011-09-04T07:15:48Z</time>
      </trkpt>
      <trkpt lat="47.06155" lon="-1.78006">
        <ele>70</ele>
        <time>2011-09-04T07:15:49Z</time>
      </trkpt>
      <trkpt lat="47.06158" lon="-1.78011">
        <ele>70</ele>
        <time>2011-09-04T07:15:50Z</time>
      </trkpt>
      <trkpt lat="47.06162" lon="-1.78017">
        <ele>70</ele>
        <time>2011-09-04T07:15:51Z</time>
      </trkpt>
      <trkpt lat="47.06164" lon="-1.78023">
        <ele>70</ele>
        <time>2011-09-04T07:15:52Z</time>
      </trkpt>
      <trkpt lat="47.06167" lon="-1.78029">
        <ele>70</ele>
        <time>2011-09-04T07:15:53Z</time>
      </trkpt>
      <trkpt lat="47.0617" lon="-1.78035">
        <ele>70</ele>
        <time>2011-09-04T07:15:54Z</time>
      </trkpt>
      <trkpt lat="47.06172" lon="-1.78042">
        <ele>70</ele>
        <time>2011-09-04T07:15:55Z</time>
      </trkpt>
      <trkpt lat="47.06176" lon="-1.78048">
        <ele>70</ele>
        <time>2011-09-04T07:15:56Z</time>
      </trkpt>
      <trkpt lat="47.06179" lon="-1.78054">
        <ele>70</ele>
        <time>2011-09-04T07:15:57Z</time>
      </trkpt>
      <trkpt lat="47.06181" lon="-1.7806">
        <ele>70</ele>
        <time>2011-09-04T07:15:58Z</time>
      </trkpt>
      <trkpt lat="47.06185" lon="-1.78066">
        <ele>70</ele>
        <time>2011-09-04T07:15:59Z</time>
      </trkpt>
      <trkpt lat="47.06187" lon="-1.78073">
        <ele>70</ele>
        <time>2011-09-04T07:16:00Z</time>
      </trkpt>
      <trkpt lat="47.0619" lon="-1.78079">
        <ele>70</ele>
        <time>2011-09-04T07:16:01Z</time>
      </trkpt>
      <trkpt lat="47.06193" lon="-1.78085">
        <ele>70</ele>
        <time>2011-09-04T07:16:02Z</time>
      </trkpt>
      <trkpt lat="47.06196" lon="-1.78091">
        <ele>70</ele>
        <time>2011-09-04T07:16:03Z</time>
      </trkpt>
      <trkpt lat="47.06198" lon="-1.78098">
        <ele>70</ele>
        <time>2011-09-04T07:16:04Z</time>
      </trkpt>
      <trkpt lat="47.06201" lon="-1.78105">
        <ele>70</ele>
        <time>2011-09-04T07:16:05Z</time>
      </trkpt>
      <trkpt lat="47.06205" lon="-1.78112">
        <ele>70</ele>
        <time>2011-09-04T07:16:06Z</time>
      </trkpt>
      <trkpt lat="47.06208" lon="-1.78119">
        <ele>70</ele>
        <time>2011-09-04T07:16:07Z</time>
      </trkpt>
      <trkpt lat="47.06212" lon="-1.78126">
        <ele>70</ele>
        <time>2011-09-04T07:16:08Z</time>
      </trkpt>
      <trkpt lat="47.06217" lon="-1.78131">
        <ele>70</ele>
        <time>2011-09-04T07:16:09Z</time>
      </trkpt>
      <trkpt lat="47.06222" lon="-1.78135">
        <ele>70</ele>
        <time>2011-09-04T07:16:10Z</time>
      </trkpt>
      <trkpt lat="47.06227" lon="-1.78139">
        <ele>70</ele>
        <time>2011-09-04T07:16:11Z</time>
      </trkpt>
      <trkpt lat="47.06232" lon="-1.78142">
        <ele>69</ele>
        <time>2011-09-04T07:16:12Z</time>
      </trkpt>
      <trkpt lat="47.06238" lon="-1.78145">
        <ele>69</ele>
        <time>2011-09-04T07:16:13Z</time>
      </trkpt>
      <trkpt lat="47.06244" lon="-1.78148">
        <ele>68</ele>
        <time>2011-09-04T07:16:14Z</time>
      </trkpt>
      <trkpt lat="47.0625" lon="-1.78151">
        <ele>68</ele>
        <time>2011-09-04T07:16:15Z</time>
      </trkpt>
      <trkpt lat="47.06255" lon="-1.78154">
        <ele>68</ele>
        <time>2011-09-04T07:16:16Z</time>
      </trkpt>
      <trkpt lat="47.06261" lon="-1.78157">
        <ele>68</ele>
        <time>2011-09-04T07:16:17Z</time>
      </trkpt>
      <trkpt lat="47.06268" lon="-1.78159">
        <ele>68</ele>
        <time>2011-09-04T07:16:18Z</time>
      </trkpt>
      <trkpt lat="47.06274" lon="-1.78162">
        <ele>68</ele>
        <time>2011-09-04T07:16:19Z</time>
      </trkpt>
      <trkpt lat="47.0628" lon="-1.78165">
        <ele>68</ele>
        <time>2011-09-04T07:16:20Z</time>
      </trkpt>
      <trkpt lat="47.06286" lon="-1.78167">
        <ele>68</ele>
        <time>2011-09-04T07:16:21Z</time>
      </trkpt>
      <trkpt lat="47.06291" lon="-1.7817">
        <ele>68</ele>
        <time>2011-09-04T07:16:22Z</time>
      </trkpt>
      <trkpt lat="47.06298" lon="-1.78171">
        <ele>68</ele>
        <time>2011-09-04T07:16:23Z</time>
      </trkpt>
      <trkpt lat="47.06303" lon="-1.78174">
        <ele>68</ele>
        <time>2011-09-04T07:16:24Z</time>
      </trkpt>
      <trkpt lat="47.06308" lon="-1.78176">
        <ele>68</ele>
        <time>2011-09-04T07:16:25Z</time>
      </trkpt>
      <trkpt lat="47.06313" lon="-1.7818">
        <ele>68</ele>
        <time>2011-09-04T07:16:26Z</time>
      </trkpt>
      <trkpt lat="47.06319" lon="-1.78182">
        <ele>68</ele>
        <time>2011-09-04T07:16:27Z</time>
      </trkpt>
      <trkpt lat="47.06325" lon="-1.78185">
        <ele>68</ele>
        <time>2011-09-04T07:16:28Z</time>
      </trkpt>
      <trkpt lat="47.0633" lon="-1.78188">
        <ele>68</ele>
        <time>2011-09-04T07:16:29Z</time>
      </trkpt>
      <trkpt lat="47.06335" lon="-1.7819">
        <ele>68</ele>
        <time>2011-09-04T07:16:30Z</time>
      </trkpt>
      <trkpt lat="47.06342" lon="-1.78192">
        <ele>68</ele>
        <time>2011-09-04T07:16:31Z</time>
      </trkpt>
      <trkpt lat="47.06346" lon="-1.78196">
        <ele>68</ele>
        <time>2011-09-04T07:16:32Z</time>
      </trkpt>
      <trkpt lat="47.06351" lon="-1.782">
        <ele>68</ele>
        <time>2011-09-04T07:16:33Z</time>
      </trkpt>
      <trkpt lat="47.06357" lon="-1.78203">
        <ele>68</ele>
        <time>2011-09-04T07:16:34Z</time>
      </trkpt>
      <trkpt lat="47.06362" lon="-1.78206">
        <ele>68</ele>
        <time>2011-09-04T07:16:35Z</time>
      </trkpt>
      <trkpt lat="47.06366" lon="-1.7821">
        <ele>68</ele>
        <time>2011-09-04T07:16:36Z</time>
      </trkpt>
      <trkpt lat="47.06371" lon="-1.78213">
        <ele>67</ele>
        <time>2011-09-04T07:16:37Z</time>
      </trkpt>
      <trkpt lat="47.06374" lon="-1.78218">
        <ele>67</ele>
        <time>2011-09-04T07:16:38Z</time>
      </trkpt>
      <trkpt lat="47.06378" lon="-1.78224">
        <ele>67</ele>
        <time>2011-09-04T07:16:39Z</time>
      </trkpt>
      <trkpt lat="47.06381" lon="-1.78231">
        <ele>67</ele>
        <time>2011-09-04T07:16:40Z</time>
      </trkpt>
      <trkpt lat="47.06384" lon="-1.78238">
        <ele>67</ele>
        <time>2011-09-04T07:16:41Z</time>
      </trkpt>
      <trkpt lat="47.06387" lon="-1.78244">
        <ele>67</ele>
        <time>2011-09-04T07:16:42Z</time>
      </trkpt>
      <trkpt lat="47.0639" lon="-1.7825">
        <ele>67</ele>
        <time>2011-09-04T07:16:43Z</time>
      </trkpt>
      <trkpt lat="47.06393" lon="-1.78257">
        <ele>67</ele>
        <time>2011-09-04T07:16:44Z</time>
      </trkpt>
      <trkpt lat="47.06396" lon="-1.7827">
        <ele>67</ele>
        <time>2011-09-04T07:16:46Z</time>
      </trkpt>
      <trkpt lat="47.06399" lon="-1.78276">
        <ele>67</ele>
        <time>2011-09-04T07:16:47Z</time>
      </trkpt>
      <trkpt lat="47.06402" lon="-1.78283">
        <ele>67</ele>
        <time>2011-09-04T07:16:48Z</time>
      </trkpt>
      <trkpt lat="47.06404" lon="-1.7829">
        <ele>67</ele>
        <time>2011-09-04T07:16:49Z</time>
      </trkpt>
      <trkpt lat="47.06407" lon="-1.78296">
        <ele>67</ele>
        <time>2011-09-04T07:16:50Z</time>
      </trkpt>
      <trkpt lat="47.0641" lon="-1.78308">
        <ele>68</ele>
        <time>2011-09-04T07:16:52Z</time>
      </trkpt>
      <trkpt lat="47.06413" lon="-1.78314">
        <ele>68</ele>
        <time>2011-09-04T07:16:53Z</time>
      </trkpt>
      <trkpt lat="47.06416" lon="-1.7832">
        <ele>68</ele>
        <time>2011-09-04T07:16:54Z</time>
      </trkpt>
      <trkpt lat="47.0642" lon="-1.78324">
        <ele>68</ele>
        <time>2011-09-04T07:16:55Z</time>
      </trkpt>
      <trkpt lat="47.06422" lon="-1.7833">
        <ele>68</ele>
        <time>2011-09-04T07:16:56Z</time>
      </trkpt>
      <trkpt lat="47.06425" lon="-1.78336">
        <ele>68</ele>
        <time>2011-09-04T07:16:57Z</time>
      </trkpt>
      <trkpt lat="47.06426" lon="-1.78343">
        <ele>69</ele>
        <time>2011-09-04T07:16:58Z</time>
      </trkpt>
      <trkpt lat="47.06429" lon="-1.78351">
        <ele>69</ele>
        <time>2011-09-04T07:16:59Z</time>
      </trkpt>
      <trkpt lat="47.06431" lon="-1.78359">
        <ele>69</ele>
        <time>2011-09-04T07:17:00Z</time>
      </trkpt>
      <trkpt lat="47.06431" lon="-1.78367">
        <ele>69</ele>
        <time>2011-09-04T07:17:01Z</time>
      </trkpt>
      <trkpt lat="47.06433" lon="-1.78375">
        <ele>69</ele>
        <time>2011-09-04T07:17:02Z</time>
      </trkpt>
      <trkpt lat="47.06435" lon="-1.78383">
        <ele>70</ele>
        <time>2011-09-04T07:17:03Z</time>
      </trkpt>
      <trkpt lat="47.06437" lon="-1.78392">
        <ele>70</ele>
        <time>2011-09-04T07:17:04Z</time>
      </trkpt>
      <trkpt lat="47.06439" lon="-1.784">
        <ele>70</ele>
        <time>2011-09-04T07:17:05Z</time>
      </trkpt>
      <trkpt lat="47.06443" lon="-1.78406">
        <ele>70</ele>
        <time>2011-09-04T07:17:06Z</time>
      </trkpt>
      <trkpt lat="47.06444" lon="-1.78414">
        <ele>70</ele>
        <time>2011-09-04T07:17:07Z</time>
      </trkpt>
      <trkpt lat="47.06447" lon="-1.7842">
        <ele>70</ele>
        <time>2011-09-04T07:17:08Z</time>
      </trkpt>
      <trkpt lat="47.06449" lon="-1.78428">
        <ele>70</ele>
        <time>2011-09-04T07:17:09Z</time>
      </trkpt>
      <trkpt lat="47.06451" lon="-1.78434">
        <ele>70</ele>
        <time>2011-09-04T07:17:10Z</time>
      </trkpt>
      <trkpt lat="47.06456" lon="-1.78445">
        <ele>70</ele>
        <time>2011-09-04T07:17:12Z</time>
      </trkpt>
      <trkpt lat="47.06456" lon="-1.78454">
        <ele>70</ele>
        <time>2011-09-04T07:17:14Z</time>
      </trkpt>
      <trkpt lat="47.06453" lon="-1.78461">
        <ele>70</ele>
        <time>2011-09-04T07:17:17Z</time>
      </trkpt>
      <trkpt lat="47.06448" lon="-1.78461">
        <ele>70</ele>
        <time>2011-09-04T07:17:19Z</time>
      </trkpt>
      <trkpt lat="47.06443" lon="-1.78459">
        <ele>70</ele>
        <time>2011-09-04T07:17:21Z</time>
      </trkpt>
      <trkpt lat="47.06436" lon="-1.78457">
        <ele>71</ele>
        <time>2011-09-04T07:17:23Z</time>
      </trkpt>
      <trkpt lat="47.0643" lon="-1.78455">
        <ele>71</ele>
        <time>2011-09-04T07:17:25Z</time>
      </trkpt>
      <trkpt lat="47.06424" lon="-1.78454">
        <ele>70</ele>
        <time>2011-09-04T07:17:27Z</time>
      </trkpt>
      <trkpt lat="47.06415" lon="-1.78453">
        <ele>72</ele>
        <time>2011-09-04T07:17:29Z</time>
      </trkpt>
      <trkpt lat="47.0641" lon="-1.78453">
        <ele>72</ele>
        <time>2011-09-04T07:17:30Z</time>
      </trkpt>
      <trkpt lat="47.06403" lon="-1.78454">
        <ele>73</ele>
        <time>2011-09-04T07:17:32Z</time>
      </trkpt>
      <trkpt lat="47.06396" lon="-1.78453">
        <ele>73</ele>
        <time>2011-09-04T07:17:34Z</time>
      </trkpt>
      <trkpt lat="47.0639" lon="-1.78452">
        <ele>74</ele>
        <time>2011-09-04T07:17:36Z</time>
      </trkpt>
      <trkpt lat="47.06383" lon="-1.78452">
        <ele>73</ele>
        <time>2011-09-04T07:17:38Z</time>
      </trkpt>
      <trkpt lat="47.06378" lon="-1.78452">
        <ele>74</ele>
        <time>2011-09-04T07:17:40Z</time>
      </trkpt>
      <trkpt lat="47.06372" lon="-1.78452">
        <ele>74</ele>
        <time>2011-09-04T07:17:42Z</time>
      </trkpt>
      <trkpt lat="47.06365" lon="-1.78453">
        <ele>75</ele>
        <time>2011-09-04T07:17:44Z</time>
      </trkpt>
      <trkpt lat="47.0636" lon="-1.78455">
        <ele>75</ele>
        <time>2011-09-04T07:17:45Z</time>
      </trkpt>
      <trkpt lat="47.06352" lon="-1.78458">
        <ele>77</ele>
        <time>2011-09-04T07:17:47Z</time>
      </trkpt>
      <trkpt lat="47.06342" lon="-1.7846">
        <ele>78</ele>
        <time>2011-09-04T07:17:49Z</time>
      </trkpt>
      <trkpt lat="47.06336" lon="-1.78463">
        <ele>78</ele>
        <time>2011-09-04T07:17:51Z</time>
      </trkpt>
      <trkpt lat="47.06327" lon="-1.78466">
        <ele>78</ele>
        <time>2011-09-04T07:17:53Z</time>
      </trkpt>
      <trkpt lat="47.06319" lon="-1.78469">
        <ele>78</ele>
        <time>2011-09-04T07:17:55Z</time>
      </trkpt>
      <trkpt lat="47.06313" lon="-1.78473">
        <ele>78</ele>
        <time>2011-09-04T07:17:57Z</time>
      </trkpt>
      <trkpt lat="47.06305" lon="-1.78476">
        <ele>78</ele>
        <time>2011-09-04T07:17:59Z</time>
      </trkpt>
      <trkpt lat="47.06297" lon="-1.78481">
        <ele>78</ele>
        <time>2011-09-04T07:18:01Z</time>
      </trkpt>
      <trkpt lat="47.0629" lon="-1.78484">
        <ele>78</ele>
        <time>2011-09-04T07:18:03Z</time>
      </trkpt>
      <trkpt lat="47.06286" lon="-1.78486">
        <ele>78</ele>
        <time>2011-09-04T07:18:04Z</time>
      </trkpt>
      <trkpt lat="47.06278" lon="-1.78489">
        <ele>78</ele>
        <time>2011-09-04T07:18:06Z</time>
      </trkpt>
      <trkpt lat="47.06274" lon="-1.78492">
        <ele>77</ele>
        <time>2011-09-04T07:18:07Z</time>
      </trkpt>
      <trkpt lat="47.06269" lon="-1.78496">
        <ele>77</ele>
        <time>2011-09-04T07:18:08Z</time>
      </trkpt>
      <trkpt lat="47.06263" lon="-1.78501">
        <ele>77</ele>
        <time>2011-09-04T07:18:10Z</time>
      </trkpt>
      <trkpt lat="47.06258" lon="-1.78506">
        <ele>76</ele>
        <time>2011-09-04T07:18:12Z</time>
      </trkpt>
      <trkpt lat="47.06254" lon="-1.78511">
        <ele>76</ele>
        <time>2011-09-04T07:18:13Z</time>
      </trkpt>
      <trkpt lat="47.06249" lon="-1.78516">
        <ele>77</ele>
        <time>2011-09-04T07:18:15Z</time>
      </trkpt>
      <trkpt lat="47.06242" lon="-1.78523">
        <ele>77</ele>
        <time>2011-09-04T07:18:17Z</time>
      </trkpt>
      <trkpt lat="47.06237" lon="-1.78531">
        <ele>78</ele>
        <time>2011-09-04T07:18:19Z</time>
      </trkpt>
      <trkpt lat="47.06231" lon="-1.78538">
        <ele>78</ele>
        <time>2011-09-04T07:18:21Z</time>
      </trkpt>
      <trkpt lat="47.06224" lon="-1.78544">
        <ele>76</ele>
        <time>2011-09-04T07:18:23Z</time>
      </trkpt>
      <trkpt lat="47.06219" lon="-1.78547">
        <ele>76</ele>
        <time>2011-09-04T07:18:24Z</time>
      </trkpt>
      <trkpt lat="47.06215" lon="-1.78551">
        <ele>75</ele>
        <time>2011-09-04T07:18:25Z</time>
      </trkpt>
      <trkpt lat="47.06211" lon="-1.78556">
        <ele>74</ele>
        <time>2011-09-04T07:18:26Z</time>
      </trkpt>
      <trkpt lat="47.06208" lon="-1.7856">
        <ele>73</ele>
        <time>2011-09-04T07:18:27Z</time>
      </trkpt>
      <trkpt lat="47.06203" lon="-1.78563">
        <ele>73</ele>
        <time>2011-09-04T07:18:28Z</time>
      </trkpt>
      <trkpt lat="47.06195" lon="-1.7857">
        <ele>72</ele>
        <time>2011-09-04T07:18:30Z</time>
      </trkpt>
      <trkpt lat="47.06188" lon="-1.78579">
        <ele>73</ele>
        <time>2011-09-04T07:18:32Z</time>
      </trkpt>
      <trkpt lat="47.06182" lon="-1.78587">
        <ele>74</ele>
        <time>2011-09-04T07:18:34Z</time>
      </trkpt>
      <trkpt lat="47.06179" lon="-1.78592">
        <ele>74</ele>
        <time>2011-09-04T07:18:35Z</time>
      </trkpt>
      <trkpt lat="47.06173" lon="-1.78598">
        <ele>74</ele>
        <time>2011-09-04T07:18:37Z</time>
      </trkpt>
      <trkpt lat="47.06167" lon="-1.78604">
        <ele>74</ele>
        <time>2011-09-04T07:18:39Z</time>
      </trkpt>
      <trkpt lat="47.0616" lon="-1.78612">
        <ele>73</ele>
        <time>2011-09-04T07:18:41Z</time>
      </trkpt>
      <trkpt lat="47.06152" lon="-1.78617">
        <ele>73</ele>
        <time>2011-09-04T07:18:43Z</time>
      </trkpt>
      <trkpt lat="47.06145" lon="-1.78623">
        <ele>73</ele>
        <time>2011-09-04T07:18:45Z</time>
      </trkpt>
      <trkpt lat="47.06141" lon="-1.78627">
        <ele>73</ele>
        <time>2011-09-04T07:18:46Z</time>
      </trkpt>
      <trkpt lat="47.06135" lon="-1.78632">
        <ele>74</ele>
        <time>2011-09-04T07:18:48Z</time>
      </trkpt>
      <trkpt lat="47.06129" lon="-1.78637">
        <ele>75</ele>
        <time>2011-09-04T07:18:50Z</time>
      </trkpt>
      <trkpt lat="47.06123" lon="-1.78643">
        <ele>74</ele>
        <time>2011-09-04T07:18:52Z</time>
      </trkpt>
      <trkpt lat="47.06119" lon="-1.78647">
        <ele>75</ele>
        <time>2011-09-04T07:18:54Z</time>
      </trkpt>
      <trkpt lat="47.06114" lon="-1.7865">
        <ele>75</ele>
        <time>2011-09-04T07:18:56Z</time>
      </trkpt>
      <trkpt lat="47.0611" lon="-1.78654">
        <ele>75</ele>
        <time>2011-09-04T07:18:58Z</time>
      </trkpt>
      <trkpt lat="47.06105" lon="-1.7866">
        <ele>74</ele>
        <time>2011-09-04T07:19:00Z</time>
      </trkpt>
      <trkpt lat="47.06101" lon="-1.78667">
        <ele>72</ele>
        <time>2011-09-04T07:19:02Z</time>
      </trkpt>
      <trkpt lat="47.06101" lon="-1.78676">
        <ele>74</ele>
        <time>2011-09-04T07:19:05Z</time>
      </trkpt>
      <trkpt lat="47.06099" lon="-1.78682">
        <ele>73</ele>
        <time>2011-09-04T07:19:07Z</time>
      </trkpt>
      <trkpt lat="47.06096" lon="-1.78691">
        <ele>72</ele>
        <time>2011-09-04T07:19:09Z</time>
      </trkpt>
      <trkpt lat="47.06094" lon="-1.78701">
        <ele>73</ele>
        <time>2011-09-04T07:19:11Z</time>
      </trkpt>
      <trkpt lat="47.06093" lon="-1.78712">
        <ele>73</ele>
        <time>2011-09-04T07:19:13Z</time>
      </trkpt>
      <trkpt lat="47.06091" lon="-1.78722">
        <ele>72</ele>
        <time>2011-09-04T07:19:15Z</time>
      </trkpt>
      <trkpt lat="47.06091" lon="-1.7873">
        <ele>73</ele>
        <time>2011-09-04T07:19:16Z</time>
      </trkpt>
      <trkpt lat="47.06091" lon="-1.78741">
        <ele>73</ele>
        <time>2011-09-04T07:19:18Z</time>
      </trkpt>
      <trkpt lat="47.06091" lon="-1.78753">
        <ele>73</ele>
        <time>2011-09-04T07:19:20Z</time>
      </trkpt>
      <trkpt lat="47.06091" lon="-1.78766">
        <ele>73</ele>
        <time>2011-09-04T07:19:22Z</time>
      </trkpt>
      <trkpt lat="47.06092" lon="-1.78779">
        <ele>73</ele>
        <time>2011-09-04T07:19:24Z</time>
      </trkpt>
      <trkpt lat="47.06093" lon="-1.78786">
        <ele>73</ele>
        <time>2011-09-04T07:19:25Z</time>
      </trkpt>
      <trkpt lat="47.06096" lon="-1.78796">
        <ele>72</ele>
        <time>2011-09-04T07:19:27Z</time>
      </trkpt>
      <trkpt lat="47.06098" lon="-1.78807">
        <ele>72</ele>
        <time>2011-09-04T07:19:29Z</time>
      </trkpt>
      <trkpt lat="47.06099" lon="-1.78818">
        <ele>73</ele>
        <time>2011-09-04T07:19:31Z</time>
      </trkpt>
      <trkpt lat="47.06101" lon="-1.78832">
        <ele>73</ele>
        <time>2011-09-04T07:19:33Z</time>
      </trkpt>
      <trkpt lat="47.06101" lon="-1.78846">
        <ele>73</ele>
        <time>2011-09-04T07:19:35Z</time>
      </trkpt>
      <trkpt lat="47.06102" lon="-1.78852">
        <ele>73</ele>
        <time>2011-09-04T07:19:36Z</time>
      </trkpt>
      <trkpt lat="47.06104" lon="-1.78862">
        <ele>73</ele>
        <time>2011-09-04T07:19:38Z</time>
      </trkpt>
      <trkpt lat="47.06106" lon="-1.78871">
        <ele>72</ele>
        <time>2011-09-04T07:19:40Z</time>
      </trkpt>
      <trkpt lat="47.06108" lon="-1.78883">
        <ele>72</ele>
        <time>2011-09-04T07:19:42Z</time>
      </trkpt>
      <trkpt lat="47.06111" lon="-1.7889">
        <ele>73</ele>
        <time>2011-09-04T07:19:43Z</time>
      </trkpt>
      <trkpt lat="47.06114" lon="-1.78897">
        <ele>74</ele>
        <time>2011-09-04T07:19:44Z</time>
      </trkpt>
      <trkpt lat="47.06117" lon="-1.78908">
        <ele>75</ele>
        <time>2011-09-04T07:19:46Z</time>
      </trkpt>
      <trkpt lat="47.0612" lon="-1.78913">
        <ele>75</ele>
        <time>2011-09-04T07:19:47Z</time>
      </trkpt>
      <trkpt lat="47.06124" lon="-1.78925">
        <ele>77</ele>
        <time>2011-09-04T07:19:49Z</time>
      </trkpt>
      <trkpt lat="47.06127" lon="-1.78931">
        <ele>78</ele>
        <time>2011-09-04T07:19:50Z</time>
      </trkpt>
      <trkpt lat="47.06129" lon="-1.78937">
        <ele>78</ele>
        <time>2011-09-04T07:19:51Z</time>
      </trkpt>
      <trkpt lat="47.06134" lon="-1.78948">
        <ele>79</ele>
        <time>2011-09-04T07:19:53Z</time>
      </trkpt>
      <trkpt lat="47.0614" lon="-1.78959">
        <ele>80</ele>
        <time>2011-09-04T07:19:55Z</time>
      </trkpt>
      <trkpt lat="47.06142" lon="-1.78964">
        <ele>80</ele>
        <time>2011-09-04T07:19:56Z</time>
      </trkpt>
      <trkpt lat="47.06145" lon="-1.78974">
        <ele>81</ele>
        <time>2011-09-04T07:19:58Z</time>
      </trkpt>
      <trkpt lat="47.06149" lon="-1.78983">
        <ele>81</ele>
        <time>2011-09-04T07:20:00Z</time>
      </trkpt>
      <trkpt lat="47.06153" lon="-1.78994">
        <ele>82</ele>
        <time>2011-09-04T07:20:02Z</time>
      </trkpt>
      <trkpt lat="47.06156" lon="-1.79">
        <ele>82</ele>
        <time>2011-09-04T07:20:03Z</time>
      </trkpt>
      <trkpt lat="47.0616" lon="-1.79007">
        <ele>83</ele>
        <time>2011-09-04T07:20:04Z</time>
      </trkpt>
      <trkpt lat="47.06163" lon="-1.79013">
        <ele>83</ele>
        <time>2011-09-04T07:20:05Z</time>
      </trkpt>
      <trkpt lat="47.06165" lon="-1.79018">
        <ele>83</ele>
        <time>2011-09-04T07:20:06Z</time>
      </trkpt>
      <trkpt lat="47.06168" lon="-1.79025">
        <ele>83</ele>
        <time>2011-09-04T07:20:07Z</time>
      </trkpt>
      <trkpt lat="47.06173" lon="-1.79035">
        <ele>83</ele>
        <time>2011-09-04T07:20:09Z</time>
      </trkpt>
      <trkpt lat="47.06176" lon="-1.79044">
        <ele>84</ele>
        <time>2011-09-04T07:20:11Z</time>
      </trkpt>
      <trkpt lat="47.06179" lon="-1.79052">
        <ele>84</ele>
        <time>2011-09-04T07:20:13Z</time>
      </trkpt>
      <trkpt lat="47.06183" lon="-1.7906">
        <ele>83</ele>
        <time>2011-09-04T07:20:15Z</time>
      </trkpt>
      <trkpt lat="47.06188" lon="-1.7907">
        <ele>83</ele>
        <time>2011-09-04T07:20:17Z</time>
      </trkpt>
      <trkpt lat="47.06193" lon="-1.79078">
        <ele>83</ele>
        <time>2011-09-04T07:20:19Z</time>
      </trkpt>
      <trkpt lat="47.06199" lon="-1.79087">
        <ele>83</ele>
        <time>2011-09-04T07:20:21Z</time>
      </trkpt>
      <trkpt lat="47.06205" lon="-1.79097">
        <ele>84</ele>
        <time>2011-09-04T07:20:23Z</time>
      </trkpt>
      <trkpt lat="47.06211" lon="-1.79106">
        <ele>84</ele>
        <time>2011-09-04T07:20:25Z</time>
      </trkpt>
      <trkpt lat="47.06215" lon="-1.79111">
        <ele>84</ele>
        <time>2011-09-04T07:20:26Z</time>
      </trkpt>
      <trkpt lat="47.06218" lon="-1.79116">
        <ele>84</ele>
        <time>2011-09-04T07:20:27Z</time>
      </trkpt>
      <trkpt lat="47.06225" lon="-1.79126">
        <ele>83</ele>
        <time>2011-09-04T07:20:29Z</time>
      </trkpt>
      <trkpt lat="47.06232" lon="-1.79137">
        <ele>83</ele>
        <time>2011-09-04T07:20:31Z</time>
      </trkpt>
      <trkpt lat="47.06235" lon="-1.79142">
        <ele>84</ele>
        <time>2011-09-04T07:20:32Z</time>
      </trkpt>
      <trkpt lat="47.06239" lon="-1.79148">
        <ele>84</ele>
        <time>2011-09-04T07:20:33Z</time>
      </trkpt>
      <trkpt lat="47.06244" lon="-1.79155">
        <ele>84</ele>
        <time>2011-09-04T07:20:34Z</time>
      </trkpt>
      <trkpt lat="47.06247" lon="-1.79161">
        <ele>84</ele>
        <time>2011-09-04T07:20:35Z</time>
      </trkpt>
      <trkpt lat="47.06251" lon="-1.79169">
        <ele>83</ele>
        <time>2011-09-04T07:20:36Z</time>
      </trkpt>
      <trkpt lat="47.06253" lon="-1.79175">
        <ele>84</ele>
        <time>2011-09-04T07:20:37Z</time>
      </trkpt>
      <trkpt lat="47.06258" lon="-1.79181">
        <ele>83</ele>
        <time>2011-09-04T07:20:38Z</time>
      </trkpt>
      <trkpt lat="47.06261" lon="-1.79186">
        <ele>83</ele>
        <time>2011-09-04T07:20:39Z</time>
      </trkpt>
      <trkpt lat="47.06264" lon="-1.79193">
        <ele>83</ele>
        <time>2011-09-04T07:20:40Z</time>
      </trkpt>
      <trkpt lat="47.06268" lon="-1.79198">
        <ele>82</ele>
        <time>2011-09-04T07:20:41Z</time>
      </trkpt>
      <trkpt lat="47.06274" lon="-1.79208">
        <ele>82</ele>
        <time>2011-09-04T07:20:43Z</time>
      </trkpt>
      <trkpt lat="47.06277" lon="-1.79213">
        <ele>82</ele>
        <time>2011-09-04T07:20:44Z</time>
      </trkpt>
      <trkpt lat="47.06281" lon="-1.79218">
        <ele>82</ele>
        <time>2011-09-04T07:20:45Z</time>
      </trkpt>
      <trkpt lat="47.06286" lon="-1.79227">
        <ele>81</ele>
        <time>2011-09-04T07:20:47Z</time>
      </trkpt>
      <trkpt lat="47.06289" lon="-1.79233">
        <ele>80</ele>
        <time>2011-09-04T07:20:49Z</time>
      </trkpt>
      <trkpt lat="47.06289" lon="-1.7924">
        <ele>77</ele>
        <time>2011-09-04T07:20:54Z</time>
      </trkpt>
      <trkpt lat="47.06284" lon="-1.79244">
        <ele>76</ele>
        <time>2011-09-04T07:20:57Z</time>
      </trkpt>
      <trkpt lat="47.06279" lon="-1.79248">
        <ele>76</ele>
        <time>2011-09-04T07:20:59Z</time>
      </trkpt>
      <trkpt lat="47.06273" lon="-1.79251">
        <ele>77</ele>
        <time>2011-09-04T07:21:02Z</time>
      </trkpt>
      <trkpt lat="47.06268" lon="-1.79254">
        <ele>77</ele>
        <time>2011-09-04T07:21:04Z</time>
      </trkpt>
      <trkpt lat="47.06263" lon="-1.79256">
        <ele>77</ele>
        <time>2011-09-04T07:21:06Z</time>
      </trkpt>
      <trkpt lat="47.06258" lon="-1.7926">
        <ele>77</ele>
        <time>2011-09-04T07:21:08Z</time>
      </trkpt>
      <trkpt lat="47.06252" lon="-1.79263">
        <ele>78</ele>
        <time>2011-09-04T07:21:10Z</time>
      </trkpt>
      <trkpt lat="47.06247" lon="-1.79266">
        <ele>78</ele>
        <time>2011-09-04T07:21:12Z</time>
      </trkpt>
      <trkpt lat="47.0624" lon="-1.7927">
        <ele>78</ele>
        <time>2011-09-04T07:21:15Z</time>
      </trkpt>
      <trkpt lat="47.06233" lon="-1.79273">
        <ele>78</ele>
        <time>2011-09-04T07:21:18Z</time>
      </trkpt>
      <trkpt lat="47.06227" lon="-1.79276">
        <ele>77</ele>
        <time>2011-09-04T07:21:20Z</time>
      </trkpt>
      <trkpt lat="47.06222" lon="-1.79279">
        <ele>77</ele>
        <time>2011-09-04T07:21:22Z</time>
      </trkpt>
      <trkpt lat="47.06215" lon="-1.79283">
        <ele>76</ele>
        <time>2011-09-04T07:21:24Z</time>
      </trkpt>
      <trkpt lat="47.0621" lon="-1.79286">
        <ele>76</ele>
        <time>2011-09-04T07:21:26Z</time>
      </trkpt>
      <trkpt lat="47.06204" lon="-1.79288">
        <ele>76</ele>
        <time>2011-09-04T07:21:28Z</time>
      </trkpt>
      <trkpt lat="47.062" lon="-1.79292">
        <ele>77</ele>
        <time>2011-09-04T07:21:29Z</time>
      </trkpt>
      <trkpt lat="47.06194" lon="-1.79295">
        <ele>77</ele>
        <time>2011-09-04T07:21:31Z</time>
      </trkpt>
      <trkpt lat="47.06189" lon="-1.79299">
        <ele>78</ele>
        <time>2011-09-04T07:21:33Z</time>
      </trkpt>
      <trkpt lat="47.06183" lon="-1.79302">
        <ele>78</ele>
        <time>2011-09-04T07:21:35Z</time>
      </trkpt>
      <trkpt lat="47.06178" lon="-1.79305">
        <ele>77</ele>
        <time>2011-09-04T07:21:36Z</time>
      </trkpt>
      <trkpt lat="47.06172" lon="-1.79308">
        <ele>76</ele>
        <time>2011-09-04T07:21:38Z</time>
      </trkpt>
      <trkpt lat="47.06167" lon="-1.79311">
        <ele>75</ele>
        <time>2011-09-04T07:21:39Z</time>
      </trkpt>
      <trkpt lat="47.06162" lon="-1.79314">
        <ele>73</ele>
        <time>2011-09-04T07:21:41Z</time>
      </trkpt>
      <trkpt lat="47.06156" lon="-1.79317">
        <ele>72</ele>
        <time>2011-09-04T07:21:43Z</time>
      </trkpt>
      <trkpt lat="47.0615" lon="-1.7932">
        <ele>69</ele>
        <time>2011-09-04T07:21:45Z</time>
      </trkpt>
      <trkpt lat="47.06145" lon="-1.79319">
        <ele>67</ele>
        <time>2011-09-04T07:21:50Z</time>
      </trkpt>
      <trkpt lat="47.06141" lon="-1.79322">
        <ele>64</ele>
        <time>2011-09-04T07:22:01Z</time>
      </trkpt>
      <trkpt lat="47.06137" lon="-1.79318">
        <ele>65</ele>
        <time>2011-09-04T07:22:13Z</time>
      </trkpt>
      <trkpt lat="47.06135" lon="-1.79312">
        <ele>65</ele>
        <time>2011-09-04T07:22:35Z</time>
      </trkpt>
      <trkpt lat="47.06141" lon="-1.79295">
        <ele>66</ele>
        <time>2011-09-04T07:22:43Z</time>
      </trkpt>
      <trkpt lat="47.0614" lon="-1.79287">
        <ele>66</ele>
        <time>2011-09-04T07:22:49Z</time>
      </trkpt>
      <trkpt lat="47.06142" lon="-1.79282">
        <ele>67</ele>
        <time>2011-09-04T07:23:01Z</time>
      </trkpt>
      <trkpt lat="47.06149" lon="-1.79265">
        <ele>68</ele>
        <time>2011-09-04T07:23:07Z</time>
      </trkpt>
      <trkpt lat="47.06152" lon="-1.79257">
        <ele>68</ele>
        <time>2011-09-04T07:23:09Z</time>
      </trkpt>
      <trkpt lat="47.06154" lon="-1.7925">
        <ele>68</ele>
        <time>2011-09-04T07:23:11Z</time>
      </trkpt>
      <trkpt lat="47.06157" lon="-1.79244">
        <ele>69</ele>
        <time>2011-09-04T07:23:13Z</time>
      </trkpt>
      <trkpt lat="47.06158" lon="-1.79238">
        <ele>68</ele>
        <time>2011-09-04T07:23:15Z</time>
      </trkpt>
      <trkpt lat="47.06161" lon="-1.79229">
        <ele>69</ele>
        <time>2011-09-04T07:23:18Z</time>
      </trkpt>
      <trkpt lat="47.06162" lon="-1.79221">
        <ele>70</ele>
        <time>2011-09-04T07:23:21Z</time>
      </trkpt>
      <trkpt lat="47.06163" lon="-1.79211">
        <ele>69</ele>
        <time>2011-09-04T07:23:23Z</time>
      </trkpt>
      <trkpt lat="47.0616" lon="-1.79203">
        <ele>70</ele>
        <time>2011-09-04T07:23:26Z</time>
      </trkpt>
      <trkpt lat="47.06155" lon="-1.792">
        <ele>72</ele>
        <time>2011-09-04T07:23:30Z</time>
      </trkpt>
      <trkpt lat="47.06149" lon="-1.792">
        <ele>71</ele>
        <time>2011-09-04T07:23:33Z</time>
      </trkpt>
      <trkpt lat="47.06143" lon="-1.79202">
        <ele>71</ele>
        <time>2011-09-04T07:23:36Z</time>
      </trkpt>
      <trkpt lat="47.06136" lon="-1.79203">
        <ele>72</ele>
        <time>2011-09-04T07:23:39Z</time>
      </trkpt>
      <trkpt lat="47.06131" lon="-1.79203">
        <ele>73</ele>
        <time>2011-09-04T07:23:41Z</time>
      </trkpt>
      <trkpt lat="47.06125" lon="-1.79204">
        <ele>73</ele>
        <time>2011-09-04T07:23:43Z</time>
      </trkpt>
      <trkpt lat="47.06118" lon="-1.79206">
        <ele>72</ele>
        <time>2011-09-04T07:23:45Z</time>
      </trkpt>
      <trkpt lat="47.0611" lon="-1.79211">
        <ele>72</ele>
        <time>2011-09-04T07:23:47Z</time>
      </trkpt>
      <trkpt lat="47.06106" lon="-1.79215">
        <ele>72</ele>
        <time>2011-09-04T07:23:49Z</time>
      </trkpt>
      <trkpt lat="47.06101" lon="-1.79218">
        <ele>73</ele>
        <time>2011-09-04T07:23:52Z</time>
      </trkpt>
      <trkpt lat="47.06097" lon="-1.79218">
        <ele>73</ele>
        <time>2011-09-04T07:23:56Z</time>
      </trkpt>
      <trkpt lat="47.06091" lon="-1.79221">
        <ele>73</ele>
        <time>2011-09-04T07:23:59Z</time>
      </trkpt>
      <trkpt lat="47.06087" lon="-1.79226">
        <ele>72</ele>
        <time>2011-09-04T07:24:02Z</time>
      </trkpt>
      <trkpt lat="47.06084" lon="-1.79231">
        <ele>72</ele>
        <time>2011-09-04T07:24:04Z</time>
      </trkpt>
      <trkpt lat="47.06078" lon="-1.79238">
        <ele>72</ele>
        <time>2011-09-04T07:24:06Z</time>
      </trkpt>
      <trkpt lat="47.06075" lon="-1.79242">
        <ele>72</ele>
        <time>2011-09-04T07:24:08Z</time>
      </trkpt>
      <trkpt lat="47.0607" lon="-1.79238">
        <ele>72</ele>
        <time>2011-09-04T07:24:16Z</time>
      </trkpt>
      <trkpt lat="47.06066" lon="-1.79232">
        <ele>72</ele>
        <time>2011-09-04T07:24:20Z</time>
      </trkpt>
      <trkpt lat="47.0606" lon="-1.7923">
        <ele>71</ele>
        <time>2011-09-04T07:24:22Z</time>
      </trkpt>
      <trkpt lat="47.06056" lon="-1.79226">
        <ele>70</ele>
        <time>2011-09-04T07:24:25Z</time>
      </trkpt>
      <trkpt lat="47.06052" lon="-1.79221">
        <ele>69</ele>
        <time>2011-09-04T07:24:28Z</time>
      </trkpt>
      <trkpt lat="47.06048" lon="-1.79216">
        <ele>69</ele>
        <time>2011-09-04T07:24:30Z</time>
      </trkpt>
      <trkpt lat="47.06045" lon="-1.79211">
        <ele>69</ele>
        <time>2011-09-04T07:24:32Z</time>
      </trkpt>
      <trkpt lat="47.0604" lon="-1.79205">
        <ele>69</ele>
        <time>2011-09-04T07:24:35Z</time>
      </trkpt>
      <trkpt lat="47.06037" lon="-1.79199">
        <ele>69</ele>
        <time>2011-09-04T07:24:37Z</time>
      </trkpt>
      <trkpt lat="47.06035" lon="-1.79191">
        <ele>68</ele>
        <time>2011-09-04T07:24:39Z</time>
      </trkpt>
      <trkpt lat="47.06031" lon="-1.79186">
        <ele>68</ele>
        <time>2011-09-04T07:24:42Z</time>
      </trkpt>
      <trkpt lat="47.06027" lon="-1.7918">
        <ele>68</ele>
        <time>2011-09-04T07:24:46Z</time>
      </trkpt>
      <trkpt lat="47.06024" lon="-1.79174">
        <ele>67</ele>
        <time>2011-09-04T07:24:49Z</time>
      </trkpt>
      <trkpt lat="47.06022" lon="-1.79166">
        <ele>67</ele>
        <time>2011-09-04T07:24:52Z</time>
      </trkpt>
      <trkpt lat="47.06017" lon="-1.79158">
        <ele>67</ele>
        <time>2011-09-04T07:24:54Z</time>
      </trkpt>
      <trkpt lat="47.06014" lon="-1.79152">
        <ele>67</ele>
        <time>2011-09-04T07:24:56Z</time>
      </trkpt>
      <trkpt lat="47.06011" lon="-1.79145">
        <ele>68</ele>
        <time>2011-09-04T07:24:59Z</time>
      </trkpt>
      <trkpt lat="47.06008" lon="-1.79137">
        <ele>67</ele>
        <time>2011-09-04T07:25:02Z</time>
      </trkpt>
      <trkpt lat="47.06004" lon="-1.79132">
        <ele>67</ele>
        <time>2011-09-04T07:25:05Z</time>
      </trkpt>
      <trkpt lat="47.05999" lon="-1.79127">
        <ele>67</ele>
        <time>2011-09-04T07:25:08Z</time>
      </trkpt>
      <trkpt lat="47.05994" lon="-1.79124">
        <ele>66</ele>
        <time>2011-09-04T07:25:11Z</time>
      </trkpt>
      <trkpt lat="47.0599" lon="-1.79118">
        <ele>65</ele>
        <time>2011-09-04T07:25:14Z</time>
      </trkpt>
      <trkpt lat="47.05987" lon="-1.79112">
        <ele>65</ele>
        <time>2011-09-04T07:25:16Z</time>
      </trkpt>
      <trkpt lat="47.05983" lon="-1.79106">
        <ele>65</ele>
        <time>2011-09-04T07:25:18Z</time>
      </trkpt>
      <trkpt lat="47.0598" lon="-1.79098">
        <ele>65</ele>
        <time>2011-09-04T07:25:21Z</time>
      </trkpt>
      <trkpt lat="47.05978" lon="-1.79091">
        <ele>64</ele>
        <time>2011-09-04T07:25:23Z</time>
      </trkpt>
      <trkpt lat="47.05975" lon="-1.79081">
        <ele>63</ele>
        <time>2011-09-04T07:25:25Z</time>
      </trkpt>
      <trkpt lat="47.05972" lon="-1.79074">
        <ele>63</ele>
        <time>2011-09-04T07:25:27Z</time>
      </trkpt>
      <trkpt lat="47.0597" lon="-1.79067">
        <ele>63</ele>
        <time>2011-09-04T07:25:29Z</time>
      </trkpt>
      <trkpt lat="47.05969" lon="-1.79058">
        <ele>62</ele>
        <time>2011-09-04T07:25:31Z</time>
      </trkpt>
      <trkpt lat="47.05968" lon="-1.79051">
        <ele>63</ele>
        <time>2011-09-04T07:25:33Z</time>
      </trkpt>
      <trkpt lat="47.05966" lon="-1.79044">
        <ele>62</ele>
        <time>2011-09-04T07:25:35Z</time>
      </trkpt>
      <trkpt lat="47.05964" lon="-1.79036">
        <ele>64</ele>
        <time>2011-09-04T07:25:38Z</time>
      </trkpt>
      <trkpt lat="47.05963" lon="-1.79029">
        <ele>65</ele>
        <time>2011-09-04T07:25:41Z</time>
      </trkpt>
      <trkpt lat="47.05965" lon="-1.79022">
        <ele>66</ele>
        <time>2011-09-04T07:25:45Z</time>
      </trkpt>
      <trkpt lat="47.05968" lon="-1.79016">
        <ele>68</ele>
        <time>2011-09-04T07:25:50Z</time>
      </trkpt>
      <trkpt lat="47.05972" lon="-1.7901">
        <ele>68</ele>
        <time>2011-09-04T07:25:53Z</time>
      </trkpt>
      <trkpt lat="47.05976" lon="-1.79003">
        <ele>69</ele>
        <time>2011-09-04T07:25:58Z</time>
      </trkpt>
      <trkpt lat="47.0598" lon="-1.78999">
        <ele>69</ele>
        <time>2011-09-04T07:26:02Z</time>
      </trkpt>
      <trkpt lat="47.05984" lon="-1.78994">
        <ele>70</ele>
        <time>2011-09-04T07:26:06Z</time>
      </trkpt>
      <trkpt lat="47.05988" lon="-1.78988">
        <ele>70</ele>
        <time>2011-09-04T07:26:10Z</time>
      </trkpt>
      <trkpt lat="47.05992" lon="-1.78984">
        <ele>71</ele>
        <time>2011-09-04T07:26:15Z</time>
      </trkpt>
      <trkpt lat="47.05996" lon="-1.7898">
        <ele>72</ele>
        <time>2011-09-04T07:26:18Z</time>
      </trkpt>
      <trkpt lat="47.06" lon="-1.78975">
        <ele>73</ele>
        <time>2011-09-04T07:26:22Z</time>
      </trkpt>
      <trkpt lat="47.06003" lon="-1.78971">
        <ele>74</ele>
        <time>2011-09-04T07:26:25Z</time>
      </trkpt>
      <trkpt lat="47.06008" lon="-1.78969">
        <ele>75</ele>
        <time>2011-09-04T07:26:29Z</time>
      </trkpt>
      <trkpt lat="47.06014" lon="-1.78964">
        <ele>76</ele>
        <time>2011-09-04T07:26:33Z</time>
      </trkpt>
      <trkpt lat="47.06018" lon="-1.7896">
        <ele>78</ele>
        <time>2011-09-04T07:26:37Z</time>
      </trkpt>
      <trkpt lat="47.06024" lon="-1.78956">
        <ele>78</ele>
        <time>2011-09-04T07:26:40Z</time>
      </trkpt>
      <trkpt lat="47.0603" lon="-1.78951">
        <ele>80</ele>
        <time>2011-09-04T07:26:42Z</time>
      </trkpt>
      <trkpt lat="47.06035" lon="-1.78946">
        <ele>80</ele>
        <time>2011-09-04T07:26:44Z</time>
      </trkpt>
      <trkpt lat="47.06041" lon="-1.78941">
        <ele>79</ele>
        <time>2011-09-04T07:26:46Z</time>
      </trkpt>
      <trkpt lat="47.06046" lon="-1.78941">
        <ele>77</ele>
        <time>2011-09-04T07:26:47Z</time>
      </trkpt>
      <trkpt lat="47.06053" lon="-1.78939">
        <ele>75</ele>
        <time>2011-09-04T07:26:49Z</time>
      </trkpt>
      <trkpt lat="47.06057" lon="-1.78937">
        <ele>76</ele>
        <time>2011-09-04T07:26:51Z</time>
      </trkpt>
      <trkpt lat="47.06062" lon="-1.78934">
        <ele>76</ele>
        <time>2011-09-04T07:26:53Z</time>
      </trkpt>
      <trkpt lat="47.06068" lon="-1.78928">
        <ele>77</ele>
        <time>2011-09-04T07:26:55Z</time>
      </trkpt>
      <trkpt lat="47.06075" lon="-1.78925">
        <ele>77</ele>
        <time>2011-09-04T07:26:57Z</time>
      </trkpt>
      <trkpt lat="47.06081" lon="-1.78922">
        <ele>78</ele>
        <time>2011-09-04T07:26:59Z</time>
      </trkpt>
      <trkpt lat="47.06086" lon="-1.78918">
        <ele>78</ele>
        <time>2011-09-04T07:27:01Z</time>
      </trkpt>
      <trkpt lat="47.06092" lon="-1.78912">
        <ele>78</ele>
        <time>2011-09-04T07:27:03Z</time>
      </trkpt>
      <trkpt lat="47.06097" lon="-1.78908">
        <ele>80</ele>
        <time>2011-09-04T07:27:05Z</time>
      </trkpt>
      <trkpt lat="47.061" lon="-1.78898">
        <ele>79</ele>
        <time>2011-09-04T07:27:08Z</time>
      </trkpt>
      <trkpt lat="47.06102" lon="-1.78884">
        <ele>78</ele>
        <time>2011-09-04T07:27:11Z</time>
      </trkpt>
      <trkpt lat="47.06101" lon="-1.78874">
        <ele>78</ele>
        <time>2011-09-04T07:27:13Z</time>
      </trkpt>
      <trkpt lat="47.06099" lon="-1.78864">
        <ele>77</ele>
        <time>2011-09-04T07:27:15Z</time>
      </trkpt>
      <trkpt lat="47.06099" lon="-1.78851">
        <ele>77</ele>
        <time>2011-09-04T07:27:17Z</time>
      </trkpt>
      <trkpt lat="47.06099" lon="-1.78843">
        <ele>76</ele>
        <time>2011-09-04T07:27:18Z</time>
      </trkpt>
      <trkpt lat="47.06097" lon="-1.78832">
        <ele>75</ele>
        <time>2011-09-04T07:27:20Z</time>
      </trkpt>
      <trkpt lat="47.06093" lon="-1.78822">
        <ele>75</ele>
        <time>2011-09-04T07:27:22Z</time>
      </trkpt>
      <trkpt lat="47.0609" lon="-1.78812">
        <ele>74</ele>
        <time>2011-09-04T07:27:24Z</time>
      </trkpt>
      <trkpt lat="47.06086" lon="-1.78804">
        <ele>74</ele>
        <time>2011-09-04T07:27:26Z</time>
      </trkpt>
      <trkpt lat="47.06082" lon="-1.78796">
        <ele>73</ele>
        <time>2011-09-04T07:27:28Z</time>
      </trkpt>
      <trkpt lat="47.06078" lon="-1.78789">
        <ele>74</ele>
        <time>2011-09-04T07:27:30Z</time>
      </trkpt>
      <trkpt lat="47.06074" lon="-1.78782">
        <ele>74</ele>
        <time>2011-09-04T07:27:32Z</time>
      </trkpt>
      <trkpt lat="47.0607" lon="-1.78776">
        <ele>74</ele>
        <time>2011-09-04T07:27:34Z</time>
      </trkpt>
      <trkpt lat="47.06067" lon="-1.78768">
        <ele>74</ele>
        <time>2011-09-04T07:27:36Z</time>
      </trkpt>
      <trkpt lat="47.06063" lon="-1.78762">
        <ele>74</ele>
        <time>2011-09-04T07:27:38Z</time>
      </trkpt>
      <trkpt lat="47.0606" lon="-1.78756">
        <ele>74</ele>
        <time>2011-09-04T07:27:40Z</time>
      </trkpt>
      <trkpt lat="47.06056" lon="-1.78752">
        <ele>74</ele>
        <time>2011-09-04T07:27:42Z</time>
      </trkpt>
      <trkpt lat="47.06053" lon="-1.78747">
        <ele>74</ele>
        <time>2011-09-04T07:27:44Z</time>
      </trkpt>
      <trkpt lat="47.0605" lon="-1.78741">
        <ele>74</ele>
        <time>2011-09-04T07:27:46Z</time>
      </trkpt>
      <trkpt lat="47.06048" lon="-1.78733">
        <ele>74</ele>
        <time>2011-09-04T07:27:49Z</time>
      </trkpt>
      <trkpt lat="47.06046" lon="-1.78725">
        <ele>75</ele>
        <time>2011-09-04T07:27:52Z</time>
      </trkpt>
      <trkpt lat="47.06042" lon="-1.78718">
        <ele>75</ele>
        <time>2011-09-04T07:27:54Z</time>
      </trkpt>
      <trkpt lat="47.06037" lon="-1.78713">
        <ele>75</ele>
        <time>2011-09-04T07:27:56Z</time>
      </trkpt>
      <trkpt lat="47.06032" lon="-1.7871">
        <ele>75</ele>
        <time>2011-09-04T07:27:58Z</time>
      </trkpt>
      <trkpt lat="47.06028" lon="-1.78704">
        <ele>75</ele>
        <time>2011-09-04T07:28:00Z</time>
      </trkpt>
      <trkpt lat="47.06025" lon="-1.78697">
        <ele>75</ele>
        <time>2011-09-04T07:28:02Z</time>
      </trkpt>
      <trkpt lat="47.06024" lon="-1.78689">
        <ele>74</ele>
        <time>2011-09-04T07:28:04Z</time>
      </trkpt>
      <trkpt lat="47.06028" lon="-1.78686">
        <ele>74</ele>
        <time>2011-09-04T07:28:07Z</time>
      </trkpt>
      <trkpt lat="47.06033" lon="-1.78684">
        <ele>74</ele>
        <time>2011-09-04T07:28:10Z</time>
      </trkpt>
      <trkpt lat="47.06039" lon="-1.78681">
        <ele>76</ele>
        <time>2011-09-04T07:28:41Z</time>
      </trkpt>
      <trkpt lat="47.06039" lon="-1.78673">
        <ele>76</ele>
        <time>2011-09-04T07:28:44Z</time>
      </trkpt>
      <trkpt lat="47.06037" lon="-1.78664">
        <ele>76</ele>
        <time>2011-09-04T07:28:46Z</time>
      </trkpt>
      <trkpt lat="47.06035" lon="-1.78655">
        <ele>76</ele>
        <time>2011-09-04T07:28:48Z</time>
      </trkpt>
      <trkpt lat="47.06033" lon="-1.78646">
        <ele>76</ele>
        <time>2011-09-04T07:28:50Z</time>
      </trkpt>
      <trkpt lat="47.06028" lon="-1.78638">
        <ele>77</ele>
        <time>2011-09-04T07:28:52Z</time>
      </trkpt>
      <trkpt lat="47.06024" lon="-1.7863">
        <ele>77</ele>
        <time>2011-09-04T07:28:54Z</time>
      </trkpt>
      <trkpt lat="47.06019" lon="-1.78621">
        <ele>76</ele>
        <time>2011-09-04T07:28:56Z</time>
      </trkpt>
      <trkpt lat="47.06014" lon="-1.78614">
        <ele>77</ele>
        <time>2011-09-04T07:28:58Z</time>
      </trkpt>
      <trkpt lat="47.0601" lon="-1.78607">
        <ele>77</ele>
        <time>2011-09-04T07:29:00Z</time>
      </trkpt>
      <trkpt lat="47.06006" lon="-1.78601">
        <ele>77</ele>
        <time>2011-09-04T07:29:02Z</time>
      </trkpt>
      <trkpt lat="47.06003" lon="-1.78596">
        <ele>76</ele>
        <time>2011-09-04T07:29:04Z</time>
      </trkpt>
      <trkpt lat="47.05998" lon="-1.78592">
        <ele>77</ele>
        <time>2011-09-04T07:29:06Z</time>
      </trkpt>
      <trkpt lat="47.05994" lon="-1.78586">
        <ele>77</ele>
        <time>2011-09-04T07:29:09Z</time>
      </trkpt>
      <trkpt lat="47.05988" lon="-1.78579">
        <ele>77</ele>
        <time>2011-09-04T07:29:12Z</time>
      </trkpt>
      <trkpt lat="47.05982" lon="-1.78574">
        <ele>77</ele>
        <time>2011-09-04T07:29:14Z</time>
      </trkpt>
      <trkpt lat="47.05978" lon="-1.78569">
        <ele>78</ele>
        <time>2011-09-04T07:29:16Z</time>
      </trkpt>
      <trkpt lat="47.05974" lon="-1.78564">
        <ele>78</ele>
        <time>2011-09-04T07:29:18Z</time>
      </trkpt>
      <trkpt lat="47.05969" lon="-1.7856">
        <ele>78</ele>
        <time>2011-09-04T07:29:20Z</time>
      </trkpt>
      <trkpt lat="47.05965" lon="-1.78555">
        <ele>79</ele>
        <time>2011-09-04T07:29:22Z</time>
      </trkpt>
      <trkpt lat="47.05959" lon="-1.78551">
        <ele>79</ele>
        <time>2011-09-04T07:29:24Z</time>
      </trkpt>
      <trkpt lat="47.05954" lon="-1.78547">
        <ele>79</ele>
        <time>2011-09-04T07:29:26Z</time>
      </trkpt>
      <trkpt lat="47.05951" lon="-1.78542">
        <ele>79</ele>
        <time>2011-09-04T07:29:28Z</time>
      </trkpt>
      <trkpt lat="47.05946" lon="-1.78537">
        <ele>79</ele>
        <time>2011-09-04T07:29:30Z</time>
      </trkpt>
      <trkpt lat="47.05943" lon="-1.78532">
        <ele>80</ele>
        <time>2011-09-04T07:29:32Z</time>
      </trkpt>
      <trkpt lat="47.05938" lon="-1.78527">
        <ele>80</ele>
        <time>2011-09-04T07:29:34Z</time>
      </trkpt>
      <trkpt lat="47.05932" lon="-1.78522">
        <ele>80</ele>
        <time>2011-09-04T07:29:36Z</time>
      </trkpt>
      <trkpt lat="47.05926" lon="-1.78517">
        <ele>80</ele>
        <time>2011-09-04T07:29:38Z</time>
      </trkpt>
      <trkpt lat="47.05921" lon="-1.78513">
        <ele>80</ele>
        <time>2011-09-04T07:29:40Z</time>
      </trkpt>
      <trkpt lat="47.05915" lon="-1.78509">
        <ele>80</ele>
        <time>2011-09-04T07:29:42Z</time>
      </trkpt>
      <trkpt lat="47.05909" lon="-1.78504">
        <ele>80</ele>
        <time>2011-09-04T07:29:44Z</time>
      </trkpt>
      <trkpt lat="47.05903" lon="-1.78499">
        <ele>79</ele>
        <time>2011-09-04T07:29:46Z</time>
      </trkpt>
      <trkpt lat="47.05898" lon="-1.78494">
        <ele>80</ele>
        <time>2011-09-04T07:29:48Z</time>
      </trkpt>
      <trkpt lat="47.05892" lon="-1.7849">
        <ele>79</ele>
        <time>2011-09-04T07:29:50Z</time>
      </trkpt>
      <trkpt lat="47.05886" lon="-1.78485">
        <ele>79</ele>
        <time>2011-09-04T07:29:52Z</time>
      </trkpt>
      <trkpt lat="47.0588" lon="-1.78481">
        <ele>79</ele>
        <time>2011-09-04T07:29:54Z</time>
      </trkpt>
      <trkpt lat="47.05874" lon="-1.78476">
        <ele>80</ele>
        <time>2011-09-04T07:29:56Z</time>
      </trkpt>
      <trkpt lat="47.05868" lon="-1.78472">
        <ele>80</ele>
        <time>2011-09-04T07:29:58Z</time>
      </trkpt>
      <trkpt lat="47.05862" lon="-1.78469">
        <ele>81</ele>
        <time>2011-09-04T07:30:00Z</time>
      </trkpt>
      <trkpt lat="47.05856" lon="-1.78464">
        <ele>82</ele>
        <time>2011-09-04T07:30:02Z</time>
      </trkpt>
      <trkpt lat="47.05849" lon="-1.78461">
        <ele>82</ele>
        <time>2011-09-04T07:30:04Z</time>
      </trkpt>
      <trkpt lat="47.05843" lon="-1.78456">
        <ele>82</ele>
        <time>2011-09-04T07:30:06Z</time>
      </trkpt>
      <trkpt lat="47.05836" lon="-1.78453">
        <ele>82</ele>
        <time>2011-09-04T07:30:08Z</time>
      </trkpt>
      <trkpt lat="47.0583" lon="-1.7845">
        <ele>82</ele>
        <time>2011-09-04T07:30:10Z</time>
      </trkpt>
      <trkpt lat="47.05823" lon="-1.78446">
        <ele>82</ele>
        <time>2011-09-04T07:30:12Z</time>
      </trkpt>
      <trkpt lat="47.05816" lon="-1.78443">
        <ele>82</ele>
        <time>2011-09-04T07:30:14Z</time>
      </trkpt>
      <trkpt lat="47.05811" lon="-1.78439">
        <ele>81</ele>
        <time>2011-09-04T07:30:16Z</time>
      </trkpt>
      <trkpt lat="47.05805" lon="-1.78436">
        <ele>81</ele>
        <time>2011-09-04T07:30:18Z</time>
      </trkpt>
      <trkpt lat="47.05802" lon="-1.7843">
        <ele>80</ele>
        <time>2011-09-04T07:30:20Z</time>
      </trkpt>
      <trkpt lat="47.058" lon="-1.78422">
        <ele>80</ele>
        <time>2011-09-04T07:30:22Z</time>
      </trkpt>
      <trkpt lat="47.05797" lon="-1.78413">
        <ele>79</ele>
        <time>2011-09-04T07:30:24Z</time>
      </trkpt>
      <trkpt lat="47.05796" lon="-1.78404">
        <ele>79</ele>
        <time>2011-09-04T07:30:26Z</time>
      </trkpt>
      <trkpt lat="47.05796" lon="-1.78395">
        <ele>79</ele>
        <time>2011-09-04T07:30:28Z</time>
      </trkpt>
      <trkpt lat="47.05795" lon="-1.78387">
        <ele>80</ele>
        <time>2011-09-04T07:30:30Z</time>
      </trkpt>
      <trkpt lat="47.05794" lon="-1.78378">
        <ele>80</ele>
        <time>2011-09-04T07:30:32Z</time>
      </trkpt>
      <trkpt lat="47.05794" lon="-1.7837">
        <ele>79</ele>
        <time>2011-09-04T07:30:34Z</time>
      </trkpt>
      <trkpt lat="47.05791" lon="-1.7836">
        <ele>79</ele>
        <time>2011-09-04T07:30:36Z</time>
      </trkpt>
      <trkpt lat="47.0579" lon="-1.78351">
        <ele>80</ele>
        <time>2011-09-04T07:30:38Z</time>
      </trkpt>
      <trkpt lat="47.05789" lon="-1.78341">
        <ele>80</ele>
        <time>2011-09-04T07:30:40Z</time>
      </trkpt>
      <trkpt lat="47.05788" lon="-1.78331">
        <ele>80</ele>
        <time>2011-09-04T07:30:42Z</time>
      </trkpt>
      <trkpt lat="47.05786" lon="-1.78321">
        <ele>80</ele>
        <time>2011-09-04T07:30:44Z</time>
      </trkpt>
      <trkpt lat="47.05784" lon="-1.78315">
        <ele>81</ele>
        <time>2011-09-04T07:30:45Z</time>
      </trkpt>
      <trkpt lat="47.05782" lon="-1.78306">
        <ele>81</ele>
        <time>2011-09-04T07:30:47Z</time>
      </trkpt>
      <trkpt lat="47.0578" lon="-1.78298">
        <ele>82</ele>
        <time>2011-09-04T07:30:49Z</time>
      </trkpt>
      <trkpt lat="47.05777" lon="-1.78285">
        <ele>82</ele>
        <time>2011-09-04T07:30:51Z</time>
      </trkpt>
      <trkpt lat="47.05774" lon="-1.78274">
        <ele>82</ele>
        <time>2011-09-04T07:30:53Z</time>
      </trkpt>
      <trkpt lat="47.0577" lon="-1.78264">
        <ele>82</ele>
        <time>2011-09-04T07:30:55Z</time>
      </trkpt>
      <trkpt lat="47.05768" lon="-1.78254">
        <ele>83</ele>
        <time>2011-09-04T07:30:57Z</time>
      </trkpt>
      <trkpt lat="47.05764" lon="-1.78246">
        <ele>83</ele>
        <time>2011-09-04T07:30:59Z</time>
      </trkpt>
      <trkpt lat="47.05761" lon="-1.78236">
        <ele>83</ele>
        <time>2011-09-04T07:31:01Z</time>
      </trkpt>
      <trkpt lat="47.05758" lon="-1.78226">
        <ele>83</ele>
        <time>2011-09-04T07:31:03Z</time>
      </trkpt>
      <trkpt lat="47.05755" lon="-1.78218">
        <ele>83</ele>
        <time>2011-09-04T07:31:05Z</time>
      </trkpt>
      <trkpt lat="47.05751" lon="-1.78207">
        <ele>83</ele>
        <time>2011-09-04T07:31:07Z</time>
      </trkpt>
      <trkpt lat="47.05748" lon="-1.78202">
        <ele>82</ele>
        <time>2011-09-04T07:31:08Z</time>
      </trkpt>
      <trkpt lat="47.05744" lon="-1.78191">
        <ele>82</ele>
        <time>2011-09-04T07:31:10Z</time>
      </trkpt>
      <trkpt lat="47.0574" lon="-1.78181">
        <ele>81</ele>
        <time>2011-09-04T07:31:12Z</time>
      </trkpt>
      <trkpt lat="47.05736" lon="-1.78172">
        <ele>81</ele>
        <time>2011-09-04T07:31:14Z</time>
      </trkpt>
      <trkpt lat="47.05733" lon="-1.78166">
        <ele>81</ele>
        <time>2011-09-04T07:31:15Z</time>
      </trkpt>
      <trkpt lat="47.05731" lon="-1.7816">
        <ele>81</ele>
        <time>2011-09-04T07:31:16Z</time>
      </trkpt>
      <trkpt lat="47.05729" lon="-1.7815">
        <ele>82</ele>
        <time>2011-09-04T07:31:18Z</time>
      </trkpt>
      <trkpt lat="47.05726" lon="-1.78141">
        <ele>82</ele>
        <time>2011-09-04T07:31:20Z</time>
      </trkpt>
      <trkpt lat="47.05724" lon="-1.78131">
        <ele>82</ele>
        <time>2011-09-04T07:31:22Z</time>
      </trkpt>
      <trkpt lat="47.05723" lon="-1.78119">
        <ele>82</ele>
        <time>2011-09-04T07:31:24Z</time>
      </trkpt>
      <trkpt lat="47.05721" lon="-1.78109">
        <ele>81</ele>
        <time>2011-09-04T07:31:26Z</time>
      </trkpt>
      <trkpt lat="47.05717" lon="-1.781">
        <ele>82</ele>
        <time>2011-09-04T07:31:28Z</time>
      </trkpt>
      <trkpt lat="47.05715" lon="-1.78093">
        <ele>82</ele>
        <time>2011-09-04T07:31:29Z</time>
      </trkpt>
      <trkpt lat="47.0571" lon="-1.78083">
        <ele>83</ele>
        <time>2011-09-04T07:31:31Z</time>
      </trkpt>
      <trkpt lat="47.05708" lon="-1.78077">
        <ele>83</ele>
        <time>2011-09-04T07:31:32Z</time>
      </trkpt>
      <trkpt lat="47.05704" lon="-1.78069">
        <ele>84</ele>
        <time>2011-09-04T07:31:34Z</time>
      </trkpt>
      <trkpt lat="47.057" lon="-1.7806">
        <ele>84</ele>
        <time>2011-09-04T07:31:36Z</time>
      </trkpt>
      <trkpt lat="47.05695" lon="-1.78051">
        <ele>83</ele>
        <time>2011-09-04T07:31:38Z</time>
      </trkpt>
      <trkpt lat="47.05693" lon="-1.78045">
        <ele>83</ele>
        <time>2011-09-04T07:31:39Z</time>
      </trkpt>
      <trkpt lat="47.0569" lon="-1.78038">
        <ele>83</ele>
        <time>2011-09-04T07:31:40Z</time>
      </trkpt>
      <trkpt lat="47.05685" lon="-1.7803">
        <ele>83</ele>
        <time>2011-09-04T07:31:42Z</time>
      </trkpt>
      <trkpt lat="47.05681" lon="-1.78019">
        <ele>82</ele>
        <time>2011-09-04T07:31:44Z</time>
      </trkpt>
      <trkpt lat="47.05678" lon="-1.7801">
        <ele>82</ele>
        <time>2011-09-04T07:31:46Z</time>
      </trkpt>
      <trkpt lat="47.05674" lon="-1.77999">
        <ele>82</ele>
        <time>2011-09-04T07:31:48Z</time>
      </trkpt>
      <trkpt lat="47.05671" lon="-1.77994">
        <ele>82</ele>
        <time>2011-09-04T07:31:49Z</time>
      </trkpt>
      <trkpt lat="47.05667" lon="-1.77983">
        <ele>82</ele>
        <time>2011-09-04T07:31:51Z</time>
      </trkpt>
      <trkpt lat="47.05664" lon="-1.77972">
        <ele>82</ele>
        <time>2011-09-04T07:31:53Z</time>
      </trkpt>
      <trkpt lat="47.05661" lon="-1.77963">
        <ele>83</ele>
        <time>2011-09-04T07:31:55Z</time>
      </trkpt>
      <trkpt lat="47.05658" lon="-1.77955">
        <ele>83</ele>
        <time>2011-09-04T07:31:57Z</time>
      </trkpt>
      <trkpt lat="47.05656" lon="-1.77949">
        <ele>82</ele>
        <time>2011-09-04T07:31:58Z</time>
      </trkpt>
      <trkpt lat="47.05654" lon="-1.77942">
        <ele>81</ele>
        <time>2011-09-04T07:31:59Z</time>
      </trkpt>
      <trkpt lat="47.05652" lon="-1.77935">
        <ele>81</ele>
        <time>2011-09-04T07:32:00Z</time>
      </trkpt>
      <trkpt lat="47.05646" lon="-1.77927">
        <ele>81</ele>
        <time>2011-09-04T07:32:02Z</time>
      </trkpt>
      <trkpt lat="47.05641" lon="-1.7792">
        <ele>80</ele>
        <time>2011-09-04T07:32:04Z</time>
      </trkpt>
      <trkpt lat="47.05637" lon="-1.77911">
        <ele>81</ele>
        <time>2011-09-04T07:32:06Z</time>
      </trkpt>
      <trkpt lat="47.05633" lon="-1.77902">
        <ele>80</ele>
        <time>2011-09-04T07:32:08Z</time>
      </trkpt>
      <trkpt lat="47.05628" lon="-1.77894">
        <ele>80</ele>
        <time>2011-09-04T07:32:10Z</time>
      </trkpt>
      <trkpt lat="47.05625" lon="-1.77886">
        <ele>81</ele>
        <time>2011-09-04T07:32:12Z</time>
      </trkpt>
      <trkpt lat="47.05622" lon="-1.77879">
        <ele>80</ele>
        <time>2011-09-04T07:32:14Z</time>
      </trkpt>
      <trkpt lat="47.0562" lon="-1.77871">
        <ele>81</ele>
        <time>2011-09-04T07:32:16Z</time>
      </trkpt>
      <trkpt lat="47.05618" lon="-1.77862">
        <ele>81</ele>
        <time>2011-09-04T07:32:18Z</time>
      </trkpt>
      <trkpt lat="47.05614" lon="-1.77854">
        <ele>81</ele>
        <time>2011-09-04T07:32:20Z</time>
      </trkpt>
      <trkpt lat="47.05611" lon="-1.77844">
        <ele>81</ele>
        <time>2011-09-04T07:32:22Z</time>
      </trkpt>
      <trkpt lat="47.05606" lon="-1.77835">
        <ele>81</ele>
        <time>2011-09-04T07:32:24Z</time>
      </trkpt>
      <trkpt lat="47.05604" lon="-1.77829">
        <ele>81</ele>
        <time>2011-09-04T07:32:25Z</time>
      </trkpt>
      <trkpt lat="47.05599" lon="-1.77818">
        <ele>81</ele>
        <time>2011-09-04T07:32:27Z</time>
      </trkpt>
      <trkpt lat="47.05595" lon="-1.77808">
        <ele>81</ele>
        <time>2011-09-04T07:32:29Z</time>
      </trkpt>
      <trkpt lat="47.05591" lon="-1.778">
        <ele>81</ele>
        <time>2011-09-04T07:32:31Z</time>
      </trkpt>
      <trkpt lat="47.05588" lon="-1.77793">
        <ele>81</ele>
        <time>2011-09-04T07:32:33Z</time>
      </trkpt>
      <trkpt lat="47.05584" lon="-1.77784">
        <ele>81</ele>
        <time>2011-09-04T07:32:35Z</time>
      </trkpt>
      <trkpt lat="47.05581" lon="-1.77775">
        <ele>81</ele>
        <time>2011-09-04T07:32:37Z</time>
      </trkpt>
      <trkpt lat="47.05577" lon="-1.77764">
        <ele>81</ele>
        <time>2011-09-04T07:32:39Z</time>
      </trkpt>
      <trkpt lat="47.05572" lon="-1.77754">
        <ele>81</ele>
        <time>2011-09-04T07:32:41Z</time>
      </trkpt>
      <trkpt lat="47.05569" lon="-1.77742">
        <ele>81</ele>
        <time>2011-09-04T07:32:43Z</time>
      </trkpt>
      <trkpt lat="47.05566" lon="-1.77731">
        <ele>81</ele>
        <time>2011-09-04T07:32:45Z</time>
      </trkpt>
      <trkpt lat="47.05563" lon="-1.77719">
        <ele>80</ele>
        <time>2011-09-04T07:32:47Z</time>
      </trkpt>
      <trkpt lat="47.05558" lon="-1.77706">
        <ele>80</ele>
        <time>2011-09-04T07:32:49Z</time>
      </trkpt>
      <trkpt lat="47.05553" lon="-1.77695">
        <ele>80</ele>
        <time>2011-09-04T07:32:51Z</time>
      </trkpt>
      <trkpt lat="47.0555" lon="-1.77689">
        <ele>80</ele>
        <time>2011-09-04T07:32:52Z</time>
      </trkpt>
      <trkpt lat="47.05547" lon="-1.77676">
        <ele>81</ele>
        <time>2011-09-04T07:32:54Z</time>
      </trkpt>
      <trkpt lat="47.05543" lon="-1.77666">
        <ele>80</ele>
        <time>2011-09-04T07:32:56Z</time>
      </trkpt>
      <trkpt lat="47.0554" lon="-1.77657">
        <ele>80</ele>
        <time>2011-09-04T07:32:58Z</time>
      </trkpt>
      <trkpt lat="47.05537" lon="-1.77646">
        <ele>79</ele>
        <time>2011-09-04T07:33:00Z</time>
      </trkpt>
      <trkpt lat="47.05533" lon="-1.77635">
        <ele>79</ele>
        <time>2011-09-04T07:33:02Z</time>
      </trkpt>
      <trkpt lat="47.0553" lon="-1.77624">
        <ele>79</ele>
        <time>2011-09-04T07:33:04Z</time>
      </trkpt>
      <trkpt lat="47.05527" lon="-1.77618">
        <ele>80</ele>
        <time>2011-09-04T07:33:05Z</time>
      </trkpt>
      <trkpt lat="47.05523" lon="-1.77607">
        <ele>80</ele>
        <time>2011-09-04T07:33:07Z</time>
      </trkpt>
      <trkpt lat="47.0552" lon="-1.776">
        <ele>80</ele>
        <time>2011-09-04T07:33:08Z</time>
      </trkpt>
      <trkpt lat="47.05518" lon="-1.77594">
        <ele>80</ele>
        <time>2011-09-04T07:33:09Z</time>
      </trkpt>
      <trkpt lat="47.05515" lon="-1.77588">
        <ele>80</ele>
        <time>2011-09-04T07:33:10Z</time>
      </trkpt>
      <trkpt lat="47.05508" lon="-1.77582">
        <ele>80</ele>
        <time>2011-09-04T07:33:12Z</time>
      </trkpt>
      <trkpt lat="47.05503" lon="-1.77576">
        <ele>81</ele>
        <time>2011-09-04T07:33:14Z</time>
      </trkpt>
      <trkpt lat="47.05497" lon="-1.77572">
        <ele>82</ele>
        <time>2011-09-04T07:33:16Z</time>
      </trkpt>
      <trkpt lat="47.0549" lon="-1.77569">
        <ele>82</ele>
        <time>2011-09-04T07:33:18Z</time>
      </trkpt>
      <trkpt lat="47.05483" lon="-1.77565">
        <ele>83</ele>
        <time>2011-09-04T07:33:20Z</time>
      </trkpt>
      <trkpt lat="47.05477" lon="-1.77563">
        <ele>84</ele>
        <time>2011-09-04T07:33:22Z</time>
      </trkpt>
      <trkpt lat="47.05471" lon="-1.77559">
        <ele>85</ele>
        <time>2011-09-04T07:33:24Z</time>
      </trkpt>
      <trkpt lat="47.05462" lon="-1.77556">
        <ele>85</ele>
        <time>2011-09-04T07:33:26Z</time>
      </trkpt>
      <trkpt lat="47.05457" lon="-1.77554">
        <ele>85</ele>
        <time>2011-09-04T07:33:28Z</time>
      </trkpt>
      <trkpt lat="47.0545" lon="-1.77552">
        <ele>86</ele>
        <time>2011-09-04T07:33:30Z</time>
      </trkpt>
      <trkpt lat="47.05443" lon="-1.77549">
        <ele>87</ele>
        <time>2011-09-04T07:33:32Z</time>
      </trkpt>
      <trkpt lat="47.05436" lon="-1.77546">
        <ele>87</ele>
        <time>2011-09-04T07:33:34Z</time>
      </trkpt>
      <trkpt lat="47.0543" lon="-1.77543">
        <ele>87</ele>
        <time>2011-09-04T07:33:36Z</time>
      </trkpt>
      <trkpt lat="47.05424" lon="-1.77541">
        <ele>88</ele>
        <time>2011-09-04T07:33:38Z</time>
      </trkpt>
      <trkpt lat="47.05416" lon="-1.77539">
        <ele>88</ele>
        <time>2011-09-04T07:33:40Z</time>
      </trkpt>
      <trkpt lat="47.05409" lon="-1.77536">
        <ele>88</ele>
        <time>2011-09-04T07:33:42Z</time>
      </trkpt>
      <trkpt lat="47.05404" lon="-1.77536">
        <ele>87</ele>
        <time>2011-09-04T07:33:43Z</time>
      </trkpt>
      <trkpt lat="47.05399" lon="-1.77534">
        <ele>86</ele>
        <time>2011-09-04T07:33:44Z</time>
      </trkpt>
      <trkpt lat="47.05394" lon="-1.77533">
        <ele>86</ele>
        <time>2011-09-04T07:33:45Z</time>
      </trkpt>
      <trkpt lat="47.05389" lon="-1.77532">
        <ele>85</ele>
        <time>2011-09-04T07:33:46Z</time>
      </trkpt>
      <trkpt lat="47.05384" lon="-1.77532">
        <ele>85</ele>
        <time>2011-09-04T07:33:47Z</time>
      </trkpt>
      <trkpt lat="47.05376" lon="-1.77528">
        <ele>85</ele>
        <time>2011-09-04T07:33:49Z</time>
      </trkpt>
      <trkpt lat="47.05368" lon="-1.77526">
        <ele>86</ele>
        <time>2011-09-04T07:33:51Z</time>
      </trkpt>
      <trkpt lat="47.05359" lon="-1.77524">
        <ele>86</ele>
        <time>2011-09-04T07:33:53Z</time>
      </trkpt>
      <trkpt lat="47.05354" lon="-1.77522">
        <ele>87</ele>
        <time>2011-09-04T07:33:54Z</time>
      </trkpt>
      <trkpt lat="47.05346" lon="-1.7752">
        <ele>87</ele>
        <time>2011-09-04T07:33:56Z</time>
      </trkpt>
      <trkpt lat="47.05337" lon="-1.77518">
        <ele>87</ele>
        <time>2011-09-04T07:33:58Z</time>
      </trkpt>
      <trkpt lat="47.05332" lon="-1.77517">
        <ele>87</ele>
        <time>2011-09-04T07:33:59Z</time>
      </trkpt>
      <trkpt lat="47.05324" lon="-1.77516">
        <ele>87</ele>
        <time>2011-09-04T07:34:01Z</time>
      </trkpt>
      <trkpt lat="47.05316" lon="-1.77514">
        <ele>86</ele>
        <time>2011-09-04T07:34:03Z</time>
      </trkpt>
      <trkpt lat="47.05308" lon="-1.77513">
        <ele>86</ele>
        <time>2011-09-04T07:34:05Z</time>
      </trkpt>
      <trkpt lat="47.05302" lon="-1.77513">
        <ele>86</ele>
        <time>2011-09-04T07:34:07Z</time>
      </trkpt>
      <trkpt lat="47.05296" lon="-1.77511">
        <ele>86</ele>
        <time>2011-09-04T07:34:09Z</time>
      </trkpt>
      <trkpt lat="47.05291" lon="-1.77511">
        <ele>86</ele>
        <time>2011-09-04T07:34:11Z</time>
      </trkpt>
      <trkpt lat="47.05286" lon="-1.7751">
        <ele>86</ele>
        <time>2011-09-04T07:34:13Z</time>
      </trkpt>
      <trkpt lat="47.05281" lon="-1.7751">
        <ele>86</ele>
        <time>2011-09-04T07:34:15Z</time>
      </trkpt>
      <trkpt lat="47.05276" lon="-1.7751">
        <ele>86</ele>
        <time>2011-09-04T07:34:18Z</time>
      </trkpt>
      <trkpt lat="47.05271" lon="-1.77507">
        <ele>86</ele>
        <time>2011-09-04T07:34:20Z</time>
      </trkpt>
      <trkpt lat="47.05265" lon="-1.77505">
        <ele>87</ele>
        <time>2011-09-04T07:34:22Z</time>
      </trkpt>
      <trkpt lat="47.0526" lon="-1.77503">
        <ele>87</ele>
        <time>2011-09-04T07:34:24Z</time>
      </trkpt>
      <trkpt lat="47.05255" lon="-1.77502">
        <ele>88</ele>
        <time>2011-09-04T07:34:26Z</time>
      </trkpt>
      <trkpt lat="47.05248" lon="-1.775">
        <ele>88</ele>
        <time>2011-09-04T07:34:28Z</time>
      </trkpt>
      <trkpt lat="47.05242" lon="-1.77501">
        <ele>88</ele>
        <time>2011-09-04T07:34:30Z</time>
      </trkpt>
      <trkpt lat="47.05237" lon="-1.77499">
        <ele>89</ele>
        <time>2011-09-04T07:34:32Z</time>
      </trkpt>
      <trkpt lat="47.05232" lon="-1.77498">
        <ele>89</ele>
        <time>2011-09-04T07:34:34Z</time>
      </trkpt>
      <trkpt lat="47.05227" lon="-1.77497">
        <ele>89</ele>
        <time>2011-09-04T07:34:36Z</time>
      </trkpt>
      <trkpt lat="47.05222" lon="-1.77496">
        <ele>90</ele>
        <time>2011-09-04T07:34:38Z</time>
      </trkpt>
      <trkpt lat="47.05215" lon="-1.77496">
        <ele>90</ele>
        <time>2011-09-04T07:34:40Z</time>
      </trkpt>
      <trkpt lat="47.05208" lon="-1.77494">
        <ele>90</ele>
        <time>2011-09-04T07:34:42Z</time>
      </trkpt>
      <trkpt lat="47.05203" lon="-1.77492">
        <ele>90</ele>
        <time>2011-09-04T07:34:44Z</time>
      </trkpt>
      <trkpt lat="47.05196" lon="-1.77492">
        <ele>91</ele>
        <time>2011-09-04T07:34:46Z</time>
      </trkpt>
      <trkpt lat="47.0519" lon="-1.77491">
        <ele>91</ele>
        <time>2011-09-04T07:34:48Z</time>
      </trkpt>
      <trkpt lat="47.05185" lon="-1.77491">
        <ele>91</ele>
        <time>2011-09-04T07:34:50Z</time>
      </trkpt>
      <trkpt lat="47.05179" lon="-1.77492">
        <ele>92</ele>
        <time>2011-09-04T07:34:52Z</time>
      </trkpt>
      <trkpt lat="47.05173" lon="-1.77492">
        <ele>92</ele>
        <time>2011-09-04T07:34:54Z</time>
      </trkpt>
      <trkpt lat="47.05166" lon="-1.7749">
        <ele>92</ele>
        <time>2011-09-04T07:34:56Z</time>
      </trkpt>
      <trkpt lat="47.05159" lon="-1.7749">
        <ele>92</ele>
        <time>2011-09-04T07:34:58Z</time>
      </trkpt>
      <trkpt lat="47.05152" lon="-1.7749">
        <ele>93</ele>
        <time>2011-09-04T07:35:00Z</time>
      </trkpt>
      <trkpt lat="47.05144" lon="-1.77489">
        <ele>92</ele>
        <time>2011-09-04T07:35:02Z</time>
      </trkpt>
      <trkpt lat="47.05135" lon="-1.77488">
        <ele>92</ele>
        <time>2011-09-04T07:35:04Z</time>
      </trkpt>
      <trkpt lat="47.05127" lon="-1.77488">
        <ele>91</ele>
        <time>2011-09-04T07:35:06Z</time>
      </trkpt>
      <trkpt lat="47.0512" lon="-1.7749">
        <ele>91</ele>
        <time>2011-09-04T07:35:08Z</time>
      </trkpt>
      <trkpt lat="47.05113" lon="-1.77491">
        <ele>91</ele>
        <time>2011-09-04T07:35:10Z</time>
      </trkpt>
      <trkpt lat="47.05107" lon="-1.77492">
        <ele>91</ele>
        <time>2011-09-04T07:35:12Z</time>
      </trkpt>
      <trkpt lat="47.05102" lon="-1.77494">
        <ele>91</ele>
        <time>2011-09-04T07:35:14Z</time>
      </trkpt>
      <trkpt lat="47.05097" lon="-1.77494">
        <ele>90</ele>
        <time>2011-09-04T07:35:16Z</time>
      </trkpt>
      <trkpt lat="47.0509" lon="-1.77496">
        <ele>90</ele>
        <time>2011-09-04T07:35:19Z</time>
      </trkpt>
      <trkpt lat="47.05085" lon="-1.77497">
        <ele>90</ele>
        <time>2011-09-04T07:35:21Z</time>
      </trkpt>
      <trkpt lat="47.05077" lon="-1.77498">
        <ele>91</ele>
        <time>2011-09-04T07:35:23Z</time>
      </trkpt>
      <trkpt lat="47.05071" lon="-1.77499">
        <ele>92</ele>
        <time>2011-09-04T07:35:25Z</time>
      </trkpt>
      <trkpt lat="47.05064" lon="-1.77499">
        <ele>93</ele>
        <time>2011-09-04T07:35:27Z</time>
      </trkpt>
      <trkpt lat="47.05059" lon="-1.77499">
        <ele>94</ele>
        <time>2011-09-04T07:35:29Z</time>
      </trkpt>
      <trkpt lat="47.05052" lon="-1.775">
        <ele>94</ele>
        <time>2011-09-04T07:35:31Z</time>
      </trkpt>
      <trkpt lat="47.05045" lon="-1.77501">
        <ele>93</ele>
        <time>2011-09-04T07:35:33Z</time>
      </trkpt>
      <trkpt lat="47.0504" lon="-1.77503">
        <ele>93</ele>
        <time>2011-09-04T07:35:35Z</time>
      </trkpt>
      <trkpt lat="47.05033" lon="-1.77504">
        <ele>94</ele>
        <time>2011-09-04T07:35:37Z</time>
      </trkpt>
      <trkpt lat="47.05026" lon="-1.77504">
        <ele>94</ele>
        <time>2011-09-04T07:35:39Z</time>
      </trkpt>
      <trkpt lat="47.05019" lon="-1.77505">
        <ele>95</ele>
        <time>2011-09-04T07:35:41Z</time>
      </trkpt>
      <trkpt lat="47.05013" lon="-1.77506">
        <ele>95</ele>
        <time>2011-09-04T07:35:43Z</time>
      </trkpt>
      <trkpt lat="47.05008" lon="-1.77508">
        <ele>95</ele>
        <time>2011-09-04T07:35:45Z</time>
      </trkpt>
      <trkpt lat="47.05001" lon="-1.77511">
        <ele>94</ele>
        <time>2011-09-04T07:35:47Z</time>
      </trkpt>
      <trkpt lat="47.04995" lon="-1.77512">
        <ele>93</ele>
        <time>2011-09-04T07:35:49Z</time>
      </trkpt>
      <trkpt lat="47.04987" lon="-1.77513">
        <ele>93</ele>
        <time>2011-09-04T07:35:51Z</time>
      </trkpt>
      <trkpt lat="47.04981" lon="-1.77514">
        <ele>92</ele>
        <time>2011-09-04T07:35:53Z</time>
      </trkpt>
      <trkpt lat="47.04975" lon="-1.77516">
        <ele>92</ele>
        <time>2011-09-04T07:35:55Z</time>
      </trkpt>
      <trkpt lat="47.0497" lon="-1.77517">
        <ele>92</ele>
        <time>2011-09-04T07:35:57Z</time>
      </trkpt>
      <trkpt lat="47.04964" lon="-1.77518">
        <ele>92</ele>
        <time>2011-09-04T07:35:59Z</time>
      </trkpt>
      <trkpt lat="47.04959" lon="-1.77519">
        <ele>91</ele>
        <time>2011-09-04T07:36:01Z</time>
      </trkpt>
      <trkpt lat="47.04953" lon="-1.77519">
        <ele>91</ele>
        <time>2011-09-04T07:36:03Z</time>
      </trkpt>
      <trkpt lat="47.04946" lon="-1.7752">
        <ele>89</ele>
        <time>2011-09-04T07:36:06Z</time>
      </trkpt>
      <trkpt lat="47.04941" lon="-1.77517">
        <ele>89</ele>
        <time>2011-09-04T07:36:09Z</time>
      </trkpt>
      <trkpt lat="47.04936" lon="-1.77512">
        <ele>87</ele>
        <time>2011-09-04T07:36:12Z</time>
      </trkpt>
      <trkpt lat="47.04936" lon="-1.77505">
        <ele>87</ele>
        <time>2011-09-04T07:36:14Z</time>
      </trkpt>
      <trkpt lat="47.04933" lon="-1.77492">
        <ele>86</ele>
        <time>2011-09-04T07:36:16Z</time>
      </trkpt>
      <trkpt lat="47.04929" lon="-1.77488">
        <ele>85</ele>
        <time>2011-09-04T07:36:17Z</time>
      </trkpt>
      <trkpt lat="47.04925" lon="-1.7748">
        <ele>85</ele>
        <time>2011-09-04T07:36:19Z</time>
      </trkpt>
      <trkpt lat="47.04921" lon="-1.7747">
        <ele>85</ele>
        <time>2011-09-04T07:36:21Z</time>
      </trkpt>
      <trkpt lat="47.04918" lon="-1.77461">
        <ele>84</ele>
        <time>2011-09-04T07:36:23Z</time>
      </trkpt>
      <trkpt lat="47.04915" lon="-1.77451">
        <ele>84</ele>
        <time>2011-09-04T07:36:25Z</time>
      </trkpt>
      <trkpt lat="47.04912" lon="-1.7744">
        <ele>83</ele>
        <time>2011-09-04T07:36:27Z</time>
      </trkpt>
      <trkpt lat="47.04909" lon="-1.77434">
        <ele>83</ele>
        <time>2011-09-04T07:36:28Z</time>
      </trkpt>
      <trkpt lat="47.04907" lon="-1.77428">
        <ele>83</ele>
        <time>2011-09-04T07:36:29Z</time>
      </trkpt>
      <trkpt lat="47.04904" lon="-1.77423">
        <ele>84</ele>
        <time>2011-09-04T07:36:30Z</time>
      </trkpt>
      <trkpt lat="47.049" lon="-1.77412">
        <ele>84</ele>
        <time>2011-09-04T07:36:32Z</time>
      </trkpt>
      <trkpt lat="47.04897" lon="-1.77403">
        <ele>84</ele>
        <time>2011-09-04T07:36:34Z</time>
      </trkpt>
      <trkpt lat="47.04894" lon="-1.77394">
        <ele>84</ele>
        <time>2011-09-04T07:36:36Z</time>
      </trkpt>
      <trkpt lat="47.04889" lon="-1.77388">
        <ele>84</ele>
        <time>2011-09-04T07:36:38Z</time>
      </trkpt>
      <trkpt lat="47.04886" lon="-1.7738">
        <ele>83</ele>
        <time>2011-09-04T07:36:40Z</time>
      </trkpt>
      <trkpt lat="47.04882" lon="-1.77372">
        <ele>83</ele>
        <time>2011-09-04T07:36:42Z</time>
      </trkpt>
      <trkpt lat="47.04878" lon="-1.77365">
        <ele>83</ele>
        <time>2011-09-04T07:36:44Z</time>
      </trkpt>
      <trkpt lat="47.04876" lon="-1.77355">
        <ele>83</ele>
        <time>2011-09-04T07:36:46Z</time>
      </trkpt>
      <trkpt lat="47.04874" lon="-1.77343">
        <ele>83</ele>
        <time>2011-09-04T07:36:48Z</time>
      </trkpt>
      <trkpt lat="47.0487" lon="-1.77335">
        <ele>83</ele>
        <time>2011-09-04T07:36:50Z</time>
      </trkpt>
      <trkpt lat="47.04867" lon="-1.77329">
        <ele>83</ele>
        <time>2011-09-04T07:36:52Z</time>
      </trkpt>
      <trkpt lat="47.04866" lon="-1.7732">
        <ele>83</ele>
        <time>2011-09-04T07:36:54Z</time>
      </trkpt>
      <trkpt lat="47.04866" lon="-1.77312">
        <ele>83</ele>
        <time>2011-09-04T07:36:56Z</time>
      </trkpt>
      <trkpt lat="47.04863" lon="-1.77304">
        <ele>84</ele>
        <time>2011-09-04T07:36:58Z</time>
      </trkpt>
      <trkpt lat="47.04858" lon="-1.77298">
        <ele>84</ele>
        <time>2011-09-04T07:37:01Z</time>
      </trkpt>
      <trkpt lat="47.04854" lon="-1.77296">
        <ele>83</ele>
        <time>2011-09-04T07:37:05Z</time>
      </trkpt>
      <trkpt lat="47.0485" lon="-1.77291">
        <ele>82</ele>
        <time>2011-09-04T07:37:12Z</time>
      </trkpt>
      <trkpt lat="47.04847" lon="-1.77285">
        <ele>83</ele>
        <time>2011-09-04T07:37:21Z</time>
      </trkpt>
      <trkpt lat="47.04846" lon="-1.77279">
        <ele>83</ele>
        <time>2011-09-04T07:37:34Z</time>
      </trkpt>
      <trkpt lat="47.04849" lon="-1.77272">
        <ele>77</ele>
        <time>2011-09-04T07:38:47Z</time>
      </trkpt>
      <trkpt lat="47.04854" lon="-1.77274">
        <ele>77</ele>
        <time>2011-09-04T07:38:50Z</time>
      </trkpt>
      <trkpt lat="47.04858" lon="-1.77276">
        <ele>77</ele>
        <time>2011-09-04T07:38:52Z</time>
      </trkpt>
      <trkpt lat="47.04863" lon="-1.77278">
        <ele>78</ele>
        <time>2011-09-04T07:38:54Z</time>
      </trkpt>
      <trkpt lat="47.04867" lon="-1.77281">
        <ele>78</ele>
        <time>2011-09-04T07:38:56Z</time>
      </trkpt>
      <trkpt lat="47.04873" lon="-1.77282">
        <ele>78</ele>
        <time>2011-09-04T07:38:58Z</time>
      </trkpt>
      <trkpt lat="47.04879" lon="-1.77285">
        <ele>78</ele>
        <time>2011-09-04T07:39:00Z</time>
      </trkpt>
      <trkpt lat="47.04885" lon="-1.77286">
        <ele>79</ele>
        <time>2011-09-04T07:39:02Z</time>
      </trkpt>
      <trkpt lat="47.04891" lon="-1.77289">
        <ele>81</ele>
        <time>2011-09-04T07:39:04Z</time>
      </trkpt>
      <trkpt lat="47.04897" lon="-1.7729">
        <ele>82</ele>
        <time>2011-09-04T07:39:06Z</time>
      </trkpt>
      <trkpt lat="47.04904" lon="-1.7729">
        <ele>83</ele>
        <time>2011-09-04T07:39:08Z</time>
      </trkpt>
      <trkpt lat="47.04912" lon="-1.77291">
        <ele>84</ele>
        <time>2011-09-04T07:39:10Z</time>
      </trkpt>
      <trkpt lat="47.04918" lon="-1.77292">
        <ele>84</ele>
        <time>2011-09-04T07:39:12Z</time>
      </trkpt>
      <trkpt lat="47.04924" lon="-1.77293">
        <ele>85</ele>
        <time>2011-09-04T07:39:14Z</time>
      </trkpt>
      <trkpt lat="47.04931" lon="-1.77293">
        <ele>85</ele>
        <time>2011-09-04T07:39:16Z</time>
      </trkpt>
      <trkpt lat="47.04938" lon="-1.77296">
        <ele>86</ele>
        <time>2011-09-04T07:39:18Z</time>
      </trkpt>
      <trkpt lat="47.04946" lon="-1.77296">
        <ele>86</ele>
        <time>2011-09-04T07:39:20Z</time>
      </trkpt>
      <trkpt lat="47.04951" lon="-1.77297">
        <ele>87</ele>
        <time>2011-09-04T07:39:22Z</time>
      </trkpt>
      <trkpt lat="47.04958" lon="-1.77295">
        <ele>88</ele>
        <time>2011-09-04T07:39:24Z</time>
      </trkpt>
      <trkpt lat="47.04965" lon="-1.77294">
        <ele>89</ele>
        <time>2011-09-04T07:39:26Z</time>
      </trkpt>
      <trkpt lat="47.04974" lon="-1.77294">
        <ele>89</ele>
        <time>2011-09-04T07:39:28Z</time>
      </trkpt>
      <trkpt lat="47.04982" lon="-1.77296">
        <ele>89</ele>
        <time>2011-09-04T07:39:30Z</time>
      </trkpt>
      <trkpt lat="47.04992" lon="-1.77298">
        <ele>88</ele>
        <time>2011-09-04T07:39:32Z</time>
      </trkpt>
      <trkpt lat="47.04997" lon="-1.77299">
        <ele>87</ele>
        <time>2011-09-04T07:39:33Z</time>
      </trkpt>
      <trkpt lat="47.05006" lon="-1.773">
        <ele>87</ele>
        <time>2011-09-04T07:39:35Z</time>
      </trkpt>
      <trkpt lat="47.05014" lon="-1.77302">
        <ele>87</ele>
        <time>2011-09-04T07:39:37Z</time>
      </trkpt>
      <trkpt lat="47.05018" lon="-1.77302">
        <ele>88</ele>
        <time>2011-09-04T07:39:38Z</time>
      </trkpt>
      <trkpt lat="47.05026" lon="-1.77299">
        <ele>89</ele>
        <time>2011-09-04T07:39:40Z</time>
      </trkpt>
      <trkpt lat="47.05031" lon="-1.77299">
        <ele>89</ele>
        <time>2011-09-04T07:39:41Z</time>
      </trkpt>
      <trkpt lat="47.05039" lon="-1.77299">
        <ele>88</ele>
        <time>2011-09-04T07:39:43Z</time>
      </trkpt>
      <trkpt lat="47.05048" lon="-1.77297">
        <ele>89</ele>
        <time>2011-09-04T07:39:45Z</time>
      </trkpt>
      <trkpt lat="47.05056" lon="-1.77297">
        <ele>89</ele>
        <time>2011-09-04T07:39:47Z</time>
      </trkpt>
      <trkpt lat="47.05065" lon="-1.77297">
        <ele>88</ele>
        <time>2011-09-04T07:39:49Z</time>
      </trkpt>
      <trkpt lat="47.05072" lon="-1.77297">
        <ele>88</ele>
        <time>2011-09-04T07:39:51Z</time>
      </trkpt>
      <trkpt lat="47.0508" lon="-1.77297">
        <ele>88</ele>
        <time>2011-09-04T07:39:53Z</time>
      </trkpt>
      <trkpt lat="47.05088" lon="-1.77296">
        <ele>88</ele>
        <time>2011-09-04T07:39:55Z</time>
      </trkpt>
      <trkpt lat="47.05096" lon="-1.77293">
        <ele>89</ele>
        <time>2011-09-04T07:39:57Z</time>
      </trkpt>
      <trkpt lat="47.05104" lon="-1.77293">
        <ele>88</ele>
        <time>2011-09-04T07:39:59Z</time>
      </trkpt>
      <trkpt lat="47.05111" lon="-1.77293">
        <ele>88</ele>
        <time>2011-09-04T07:40:01Z</time>
      </trkpt>
      <trkpt lat="47.05119" lon="-1.77292">
        <ele>88</ele>
        <time>2011-09-04T07:40:03Z</time>
      </trkpt>
      <trkpt lat="47.05126" lon="-1.77292">
        <ele>88</ele>
        <time>2011-09-04T07:40:05Z</time>
      </trkpt>
      <trkpt lat="47.05132" lon="-1.77292">
        <ele>88</ele>
        <time>2011-09-04T07:40:07Z</time>
      </trkpt>
      <trkpt lat="47.05138" lon="-1.77292">
        <ele>88</ele>
        <time>2011-09-04T07:40:09Z</time>
      </trkpt>
      <trkpt lat="47.05144" lon="-1.77291">
        <ele>87</ele>
        <time>2011-09-04T07:40:11Z</time>
      </trkpt>
      <trkpt lat="47.05152" lon="-1.77291">
        <ele>87</ele>
        <time>2011-09-04T07:40:13Z</time>
      </trkpt>
      <trkpt lat="47.0516" lon="-1.77291">
        <ele>88</ele>
        <time>2011-09-04T07:40:15Z</time>
      </trkpt>
      <trkpt lat="47.05167" lon="-1.77291">
        <ele>89</ele>
        <time>2011-09-04T07:40:17Z</time>
      </trkpt>
      <trkpt lat="47.05177" lon="-1.7729">
        <ele>89</ele>
        <time>2011-09-04T07:40:19Z</time>
      </trkpt>
      <trkpt lat="47.05185" lon="-1.77291">
        <ele>89</ele>
        <time>2011-09-04T07:40:21Z</time>
      </trkpt>
      <trkpt lat="47.05192" lon="-1.7729">
        <ele>90</ele>
        <time>2011-09-04T07:40:23Z</time>
      </trkpt>
      <trkpt lat="47.052" lon="-1.7729">
        <ele>89</ele>
        <time>2011-09-04T07:40:25Z</time>
      </trkpt>
      <trkpt lat="47.05206" lon="-1.77289">
        <ele>90</ele>
        <time>2011-09-04T07:40:26Z</time>
      </trkpt>
      <trkpt lat="47.05214" lon="-1.77287">
        <ele>89</ele>
        <time>2011-09-04T07:40:28Z</time>
      </trkpt>
      <trkpt lat="47.0522" lon="-1.77288">
        <ele>89</ele>
        <time>2011-09-04T07:40:29Z</time>
      </trkpt>
      <trkpt lat="47.05229" lon="-1.77287">
        <ele>88</ele>
        <time>2011-09-04T07:40:31Z</time>
      </trkpt>
      <trkpt lat="47.05237" lon="-1.77287">
        <ele>88</ele>
        <time>2011-09-04T07:40:33Z</time>
      </trkpt>
      <trkpt lat="47.05244" lon="-1.77287">
        <ele>89</ele>
        <time>2011-09-04T07:40:35Z</time>
      </trkpt>
      <trkpt lat="47.05251" lon="-1.77286">
        <ele>89</ele>
        <time>2011-09-04T07:40:37Z</time>
      </trkpt>
      <trkpt lat="47.05258" lon="-1.77285">
        <ele>89</ele>
        <time>2011-09-04T07:40:39Z</time>
      </trkpt>
      <trkpt lat="47.05266" lon="-1.77284">
        <ele>89</ele>
        <time>2011-09-04T07:40:41Z</time>
      </trkpt>
      <trkpt lat="47.05273" lon="-1.77283">
        <ele>88</ele>
        <time>2011-09-04T07:40:43Z</time>
      </trkpt>
      <trkpt lat="47.05278" lon="-1.77282">
        <ele>88</ele>
        <time>2011-09-04T07:40:44Z</time>
      </trkpt>
      <trkpt lat="47.05283" lon="-1.7728">
        <ele>88</ele>
        <time>2011-09-04T07:40:45Z</time>
      </trkpt>
      <trkpt lat="47.05288" lon="-1.77277">
        <ele>88</ele>
        <time>2011-09-04T07:40:46Z</time>
      </trkpt>
      <trkpt lat="47.05295" lon="-1.77277">
        <ele>87</ele>
        <time>2011-09-04T07:40:48Z</time>
      </trkpt>
      <trkpt lat="47.053" lon="-1.77276">
        <ele>87</ele>
        <time>2011-09-04T07:40:50Z</time>
      </trkpt>
      <trkpt lat="47.05307" lon="-1.77277">
        <ele>87</ele>
        <time>2011-09-04T07:40:52Z</time>
      </trkpt>
      <trkpt lat="47.05313" lon="-1.77277">
        <ele>88</ele>
        <time>2011-09-04T07:40:54Z</time>
      </trkpt>
      <trkpt lat="47.0532" lon="-1.77277">
        <ele>88</ele>
        <time>2011-09-04T07:40:56Z</time>
      </trkpt>
      <trkpt lat="47.05326" lon="-1.77278">
        <ele>89</ele>
        <time>2011-09-04T07:40:58Z</time>
      </trkpt>
      <trkpt lat="47.05332" lon="-1.77277">
        <ele>89</ele>
        <time>2011-09-04T07:41:00Z</time>
      </trkpt>
      <trkpt lat="47.0534" lon="-1.77277">
        <ele>87</ele>
        <time>2011-09-04T07:41:02Z</time>
      </trkpt>
      <trkpt lat="47.05347" lon="-1.77277">
        <ele>86</ele>
        <time>2011-09-04T07:41:04Z</time>
      </trkpt>
      <trkpt lat="47.05354" lon="-1.77277">
        <ele>87</ele>
        <time>2011-09-04T07:41:06Z</time>
      </trkpt>
      <trkpt lat="47.0536" lon="-1.77277">
        <ele>86</ele>
        <time>2011-09-04T07:41:08Z</time>
      </trkpt>
      <trkpt lat="47.05367" lon="-1.77275">
        <ele>86</ele>
        <time>2011-09-04T07:41:10Z</time>
      </trkpt>
      <trkpt lat="47.05373" lon="-1.77275">
        <ele>86</ele>
        <time>2011-09-04T07:41:12Z</time>
      </trkpt>
      <trkpt lat="47.0538" lon="-1.77275">
        <ele>86</ele>
        <time>2011-09-04T07:41:14Z</time>
      </trkpt>
      <trkpt lat="47.05385" lon="-1.77274">
        <ele>86</ele>
        <time>2011-09-04T07:41:16Z</time>
      </trkpt>
      <trkpt lat="47.05391" lon="-1.77273">
        <ele>85</ele>
        <time>2011-09-04T07:41:18Z</time>
      </trkpt>
      <trkpt lat="47.05397" lon="-1.77273">
        <ele>84</ele>
        <time>2011-09-04T07:41:20Z</time>
      </trkpt>
      <trkpt lat="47.05403" lon="-1.77273">
        <ele>85</ele>
        <time>2011-09-04T07:41:22Z</time>
      </trkpt>
      <trkpt lat="47.05408" lon="-1.77274">
        <ele>85</ele>
        <time>2011-09-04T07:41:24Z</time>
      </trkpt>
      <trkpt lat="47.05414" lon="-1.77272">
        <ele>86</ele>
        <time>2011-09-04T07:41:26Z</time>
      </trkpt>
      <trkpt lat="47.05419" lon="-1.77272">
        <ele>86</ele>
        <time>2011-09-04T07:41:28Z</time>
      </trkpt>
      <trkpt lat="47.05425" lon="-1.77272">
        <ele>87</ele>
        <time>2011-09-04T07:41:30Z</time>
      </trkpt>
      <trkpt lat="47.0543" lon="-1.77274">
        <ele>88</ele>
        <time>2011-09-04T07:41:32Z</time>
      </trkpt>
      <trkpt lat="47.05436" lon="-1.77275">
        <ele>87</ele>
        <time>2011-09-04T07:41:34Z</time>
      </trkpt>
      <trkpt lat="47.05442" lon="-1.77275">
        <ele>88</ele>
        <time>2011-09-04T07:41:36Z</time>
      </trkpt>
      <trkpt lat="47.05449" lon="-1.77275">
        <ele>88</ele>
        <time>2011-09-04T07:41:38Z</time>
      </trkpt>
      <trkpt lat="47.05456" lon="-1.77275">
        <ele>88</ele>
        <time>2011-09-04T07:41:40Z</time>
      </trkpt>
      <trkpt lat="47.05462" lon="-1.77276">
        <ele>88</ele>
        <time>2011-09-04T07:41:42Z</time>
      </trkpt>
      <trkpt lat="47.05468" lon="-1.77276">
        <ele>87</ele>
        <time>2011-09-04T07:41:44Z</time>
      </trkpt>
      <trkpt lat="47.05473" lon="-1.77277">
        <ele>87</ele>
        <time>2011-09-04T07:41:46Z</time>
      </trkpt>
      <trkpt lat="47.0548" lon="-1.77277">
        <ele>87</ele>
        <time>2011-09-04T07:41:48Z</time>
      </trkpt>
      <trkpt lat="47.05486" lon="-1.7728">
        <ele>87</ele>
        <time>2011-09-04T07:41:50Z</time>
      </trkpt>
      <trkpt lat="47.05492" lon="-1.77282">
        <ele>86</ele>
        <time>2011-09-04T07:41:52Z</time>
      </trkpt>
      <trkpt lat="47.05498" lon="-1.77283">
        <ele>86</ele>
        <time>2011-09-04T07:41:54Z</time>
      </trkpt>
      <trkpt lat="47.05504" lon="-1.77282">
        <ele>85</ele>
        <time>2011-09-04T07:41:56Z</time>
      </trkpt>
      <trkpt lat="47.05509" lon="-1.77284">
        <ele>85</ele>
        <time>2011-09-04T07:41:58Z</time>
      </trkpt>
      <trkpt lat="47.05516" lon="-1.77284">
        <ele>85</ele>
        <time>2011-09-04T07:42:00Z</time>
      </trkpt>
      <trkpt lat="47.05522" lon="-1.77283">
        <ele>86</ele>
        <time>2011-09-04T07:42:03Z</time>
      </trkpt>
      <trkpt lat="47.05528" lon="-1.77283">
        <ele>86</ele>
        <time>2011-09-04T07:42:05Z</time>
      </trkpt>
      <trkpt lat="47.05533" lon="-1.77284">
        <ele>86</ele>
        <time>2011-09-04T07:42:07Z</time>
      </trkpt>
      <trkpt lat="47.05538" lon="-1.77285">
        <ele>86</ele>
        <time>2011-09-04T07:42:09Z</time>
      </trkpt>
      <trkpt lat="47.05545" lon="-1.77286">
        <ele>86</ele>
        <time>2011-09-04T07:42:12Z</time>
      </trkpt>
      <trkpt lat="47.05552" lon="-1.77287">
        <ele>85</ele>
        <time>2011-09-04T07:42:15Z</time>
      </trkpt>
      <trkpt lat="47.05556" lon="-1.77289">
        <ele>85</ele>
        <time>2011-09-04T07:42:17Z</time>
      </trkpt>
      <trkpt lat="47.05562" lon="-1.77292">
        <ele>84</ele>
        <time>2011-09-04T07:42:19Z</time>
      </trkpt>
      <trkpt lat="47.05568" lon="-1.77294">
        <ele>84</ele>
        <time>2011-09-04T07:42:22Z</time>
      </trkpt>
      <trkpt lat="47.05572" lon="-1.77294">
        <ele>83</ele>
        <time>2011-09-04T07:42:24Z</time>
      </trkpt>
      <trkpt lat="47.05578" lon="-1.77296">
        <ele>83</ele>
        <time>2011-09-04T07:42:26Z</time>
      </trkpt>
      <trkpt lat="47.05584" lon="-1.773">
        <ele>83</ele>
        <time>2011-09-04T07:42:29Z</time>
      </trkpt>
      <trkpt lat="47.0559" lon="-1.773">
        <ele>84</ele>
        <time>2011-09-04T07:42:31Z</time>
      </trkpt>
      <trkpt lat="47.05594" lon="-1.77302">
        <ele>84</ele>
        <time>2011-09-04T07:42:33Z</time>
      </trkpt>
      <trkpt lat="47.056" lon="-1.77305">
        <ele>84</ele>
        <time>2011-09-04T07:42:35Z</time>
      </trkpt>
      <trkpt lat="47.05608" lon="-1.77307">
        <ele>85</ele>
        <time>2011-09-04T07:42:37Z</time>
      </trkpt>
      <trkpt lat="47.05616" lon="-1.77311">
        <ele>84</ele>
        <time>2011-09-04T07:42:39Z</time>
      </trkpt>
      <trkpt lat="47.05622" lon="-1.77314">
        <ele>85</ele>
        <time>2011-09-04T07:42:41Z</time>
      </trkpt>
      <trkpt lat="47.05629" lon="-1.77318">
        <ele>85</ele>
        <time>2011-09-04T07:42:43Z</time>
      </trkpt>
      <trkpt lat="47.05636" lon="-1.77321">
        <ele>86</ele>
        <time>2011-09-04T07:42:45Z</time>
      </trkpt>
      <trkpt lat="47.05643" lon="-1.77324">
        <ele>86</ele>
        <time>2011-09-04T07:42:47Z</time>
      </trkpt>
      <trkpt lat="47.05652" lon="-1.77326">
        <ele>86</ele>
        <time>2011-09-04T07:42:49Z</time>
      </trkpt>
      <trkpt lat="47.05659" lon="-1.77328">
        <ele>86</ele>
        <time>2011-09-04T07:42:51Z</time>
      </trkpt>
      <trkpt lat="47.05667" lon="-1.77328">
        <ele>87</ele>
        <time>2011-09-04T07:42:53Z</time>
      </trkpt>
      <trkpt lat="47.05674" lon="-1.77331">
        <ele>88</ele>
        <time>2011-09-04T07:42:55Z</time>
      </trkpt>
      <trkpt lat="47.0568" lon="-1.77334">
        <ele>88</ele>
        <time>2011-09-04T07:42:57Z</time>
      </trkpt>
      <trkpt lat="47.05687" lon="-1.77336">
        <ele>89</ele>
        <time>2011-09-04T07:42:59Z</time>
      </trkpt>
      <trkpt lat="47.05695" lon="-1.77338">
        <ele>89</ele>
        <time>2011-09-04T07:43:01Z</time>
      </trkpt>
      <trkpt lat="47.05703" lon="-1.77341">
        <ele>89</ele>
        <time>2011-09-04T07:43:03Z</time>
      </trkpt>
      <trkpt lat="47.05712" lon="-1.77346">
        <ele>91</ele>
        <time>2011-09-04T07:43:05Z</time>
      </trkpt>
      <trkpt lat="47.05718" lon="-1.7735">
        <ele>91</ele>
        <time>2011-09-04T07:43:07Z</time>
      </trkpt>
      <trkpt lat="47.05723" lon="-1.77352">
        <ele>92</ele>
        <time>2011-09-04T07:43:08Z</time>
      </trkpt>
      <trkpt lat="47.05727" lon="-1.77354">
        <ele>92</ele>
        <time>2011-09-04T07:43:09Z</time>
      </trkpt>
      <trkpt lat="47.05734" lon="-1.77358">
        <ele>91</ele>
        <time>2011-09-04T07:43:11Z</time>
      </trkpt>
      <trkpt lat="47.05742" lon="-1.77363">
        <ele>92</ele>
        <time>2011-09-04T07:43:13Z</time>
      </trkpt>
      <trkpt lat="47.05748" lon="-1.77366">
        <ele>92</ele>
        <time>2011-09-04T07:43:15Z</time>
      </trkpt>
      <trkpt lat="47.05755" lon="-1.7737">
        <ele>92</ele>
        <time>2011-09-04T07:43:17Z</time>
      </trkpt>
      <trkpt lat="47.0576" lon="-1.77372">
        <ele>92</ele>
        <time>2011-09-04T07:43:18Z</time>
      </trkpt>
      <trkpt lat="47.05769" lon="-1.77372">
        <ele>92</ele>
        <time>2011-09-04T07:43:20Z</time>
      </trkpt>
      <trkpt lat="47.05774" lon="-1.77373">
        <ele>93</ele>
        <time>2011-09-04T07:43:21Z</time>
      </trkpt>
      <trkpt lat="47.05782" lon="-1.77371">
        <ele>93</ele>
        <time>2011-09-04T07:43:23Z</time>
      </trkpt>
      <trkpt lat="47.05786" lon="-1.77368">
        <ele>93</ele>
        <time>2011-09-04T07:43:24Z</time>
      </trkpt>
      <trkpt lat="47.05794" lon="-1.77365">
        <ele>93</ele>
        <time>2011-09-04T07:43:26Z</time>
      </trkpt>
      <trkpt lat="47.05798" lon="-1.77363">
        <ele>93</ele>
        <time>2011-09-04T07:43:27Z</time>
      </trkpt>
      <trkpt lat="47.05806" lon="-1.77362">
        <ele>93</ele>
        <time>2011-09-04T07:43:29Z</time>
      </trkpt>
      <trkpt lat="47.05814" lon="-1.77359">
        <ele>92</ele>
        <time>2011-09-04T07:43:31Z</time>
      </trkpt>
      <trkpt lat="47.05822" lon="-1.77357">
        <ele>93</ele>
        <time>2011-09-04T07:43:33Z</time>
      </trkpt>
      <trkpt lat="47.05826" lon="-1.77355">
        <ele>93</ele>
        <time>2011-09-04T07:43:34Z</time>
      </trkpt>
      <trkpt lat="47.05831" lon="-1.77353">
        <ele>93</ele>
        <time>2011-09-04T07:43:35Z</time>
      </trkpt>
      <trkpt lat="47.05837" lon="-1.77351">
        <ele>94</ele>
        <time>2011-09-04T07:43:36Z</time>
      </trkpt>
      <trkpt lat="47.05842" lon="-1.7735">
        <ele>94</ele>
        <time>2011-09-04T07:43:37Z</time>
      </trkpt>
      <trkpt lat="47.05848" lon="-1.77349">
        <ele>94</ele>
        <time>2011-09-04T07:43:38Z</time>
      </trkpt>
      <trkpt lat="47.05854" lon="-1.77344">
        <ele>94</ele>
        <time>2011-09-04T07:43:39Z</time>
      </trkpt>
      <trkpt lat="47.05859" lon="-1.77342">
        <ele>94</ele>
        <time>2011-09-04T07:43:40Z</time>
      </trkpt>
      <trkpt lat="47.05863" lon="-1.7734">
        <ele>94</ele>
        <time>2011-09-04T07:43:41Z</time>
      </trkpt>
      <trkpt lat="47.05871" lon="-1.77334">
        <ele>94</ele>
        <time>2011-09-04T07:43:43Z</time>
      </trkpt>
      <trkpt lat="47.05876" lon="-1.77331">
        <ele>94</ele>
        <time>2011-09-04T07:43:44Z</time>
      </trkpt>
      <trkpt lat="47.0588" lon="-1.77327">
        <ele>94</ele>
        <time>2011-09-04T07:43:45Z</time>
      </trkpt>
      <trkpt lat="47.05885" lon="-1.77324">
        <ele>94</ele>
        <time>2011-09-04T07:43:46Z</time>
      </trkpt>
      <trkpt lat="47.05889" lon="-1.7732">
        <ele>94</ele>
        <time>2011-09-04T07:43:47Z</time>
      </trkpt>
      <trkpt lat="47.05894" lon="-1.77317">
        <ele>94</ele>
        <time>2011-09-04T07:43:48Z</time>
      </trkpt>
      <trkpt lat="47.05899" lon="-1.77313">
        <ele>94</ele>
        <time>2011-09-04T07:43:49Z</time>
      </trkpt>
      <trkpt lat="47.05904" lon="-1.77311">
        <ele>94</ele>
        <time>2011-09-04T07:43:50Z</time>
      </trkpt>
      <trkpt lat="47.05911" lon="-1.77305">
        <ele>94</ele>
        <time>2011-09-04T07:43:52Z</time>
      </trkpt>
      <trkpt lat="47.05916" lon="-1.773">
        <ele>94</ele>
        <time>2011-09-04T07:43:53Z</time>
      </trkpt>
      <trkpt lat="47.05924" lon="-1.77293">
        <ele>94</ele>
        <time>2011-09-04T07:43:55Z</time>
      </trkpt>
      <trkpt lat="47.05931" lon="-1.77288">
        <ele>95</ele>
        <time>2011-09-04T07:43:57Z</time>
      </trkpt>
      <trkpt lat="47.05938" lon="-1.77282">
        <ele>95</ele>
        <time>2011-09-04T07:43:59Z</time>
      </trkpt>
      <trkpt lat="47.05946" lon="-1.77276">
        <ele>95</ele>
        <time>2011-09-04T07:44:01Z</time>
      </trkpt>
      <trkpt lat="47.05953" lon="-1.77272">
        <ele>96</ele>
        <time>2011-09-04T07:44:03Z</time>
      </trkpt>
      <trkpt lat="47.05959" lon="-1.77268">
        <ele>97</ele>
        <time>2011-09-04T07:44:05Z</time>
      </trkpt>
      <trkpt lat="47.05965" lon="-1.77264">
        <ele>98</ele>
        <time>2011-09-04T07:44:07Z</time>
      </trkpt>
      <trkpt lat="47.0597" lon="-1.77261">
        <ele>98</ele>
        <time>2011-09-04T07:44:08Z</time>
      </trkpt>
      <trkpt lat="47.05975" lon="-1.77258">
        <ele>98</ele>
        <time>2011-09-04T07:44:09Z</time>
      </trkpt>
      <trkpt lat="47.05982" lon="-1.77256">
        <ele>98</ele>
        <time>2011-09-04T07:44:11Z</time>
      </trkpt>
      <trkpt lat="47.0599" lon="-1.77256">
        <ele>96</ele>
        <time>2011-09-04T07:44:12Z</time>
      </trkpt>
      <trkpt lat="47.05996" lon="-1.77254">
        <ele>97</ele>
        <time>2011-09-04T07:44:13Z</time>
      </trkpt>
      <trkpt lat="47.06004" lon="-1.77249">
        <ele>97</ele>
        <time>2011-09-04T07:44:15Z</time>
      </trkpt>
      <trkpt lat="47.06012" lon="-1.77244">
        <ele>98</ele>
        <time>2011-09-04T07:44:17Z</time>
      </trkpt>
      <trkpt lat="47.06018" lon="-1.77242">
        <ele>99</ele>
        <time>2011-09-04T07:44:18Z</time>
      </trkpt>
      <trkpt lat="47.06025" lon="-1.7724">
        <ele>99</ele>
        <time>2011-09-04T07:44:20Z</time>
      </trkpt>
      <trkpt lat="47.06032" lon="-1.77238">
        <ele>100</ele>
        <time>2011-09-04T07:44:22Z</time>
      </trkpt>
      <trkpt lat="47.06041" lon="-1.77233">
        <ele>100</ele>
        <time>2011-09-04T07:44:24Z</time>
      </trkpt>
      <trkpt lat="47.06047" lon="-1.77231">
        <ele>101</ele>
        <time>2011-09-04T07:44:26Z</time>
      </trkpt>
      <trkpt lat="47.0605" lon="-1.77227">
        <ele>101</ele>
        <time>2011-09-04T07:44:27Z</time>
      </trkpt>
      <trkpt lat="47.06057" lon="-1.77222">
        <ele>101</ele>
        <time>2011-09-04T07:44:29Z</time>
      </trkpt>
      <trkpt lat="47.06062" lon="-1.77219">
        <ele>101</ele>
        <time>2011-09-04T07:44:30Z</time>
      </trkpt>
      <trkpt lat="47.06068" lon="-1.77216">
        <ele>101</ele>
        <time>2011-09-04T07:44:32Z</time>
      </trkpt>
      <trkpt lat="47.06073" lon="-1.77208">
        <ele>100</ele>
        <time>2011-09-04T07:44:34Z</time>
      </trkpt>
      <trkpt lat="47.06077" lon="-1.77203">
        <ele>99</ele>
        <time>2011-09-04T07:44:36Z</time>
      </trkpt>
      <trkpt lat="47.06085" lon="-1.772">
        <ele>98</ele>
        <time>2011-09-04T07:44:38Z</time>
      </trkpt>
      <trkpt lat="47.06089" lon="-1.77194">
        <ele>97</ele>
        <time>2011-09-04T07:44:39Z</time>
      </trkpt>
      <trkpt lat="47.06095" lon="-1.77188">
        <ele>96</ele>
        <time>2011-09-04T07:44:41Z</time>
      </trkpt>
      <trkpt lat="47.06104" lon="-1.77182">
        <ele>94</ele>
        <time>2011-09-04T07:44:43Z</time>
      </trkpt>
      <trkpt lat="47.0611" lon="-1.77176">
        <ele>92</ele>
        <time>2011-09-04T07:44:45Z</time>
      </trkpt>
      <trkpt lat="47.06115" lon="-1.77173">
        <ele>91</ele>
        <time>2011-09-04T07:44:46Z</time>
      </trkpt>
      <trkpt lat="47.0612" lon="-1.77172">
        <ele>91</ele>
        <time>2011-09-04T07:44:47Z</time>
      </trkpt>
      <trkpt lat="47.06129" lon="-1.7717">
        <ele>90</ele>
        <time>2011-09-04T07:44:49Z</time>
      </trkpt>
      <trkpt lat="47.06138" lon="-1.77171">
        <ele>88</ele>
        <time>2011-09-04T07:44:51Z</time>
      </trkpt>
      <trkpt lat="47.06146" lon="-1.77173">
        <ele>87</ele>
        <time>2011-09-04T07:44:53Z</time>
      </trkpt>
      <trkpt lat="47.06154" lon="-1.77175">
        <ele>86</ele>
        <time>2011-09-04T07:44:54Z</time>
      </trkpt>
      <trkpt lat="47.06158" lon="-1.77175">
        <ele>86</ele>
        <time>2011-09-04T07:44:55Z</time>
      </trkpt>
      <trkpt lat="47.06165" lon="-1.77172">
        <ele>86</ele>
        <time>2011-09-04T07:44:57Z</time>
      </trkpt>
      <trkpt lat="47.0617" lon="-1.77167">
        <ele>86</ele>
        <time>2011-09-04T07:44:58Z</time>
      </trkpt>
      <trkpt lat="47.06176" lon="-1.77163">
        <ele>86</ele>
        <time>2011-09-04T07:45:00Z</time>
      </trkpt>
      <trkpt lat="47.06182" lon="-1.77159">
        <ele>85</ele>
        <time>2011-09-04T07:45:02Z</time>
      </trkpt>
      <trkpt lat="47.06188" lon="-1.77158">
        <ele>85</ele>
        <time>2011-09-04T07:45:04Z</time>
      </trkpt>
      <trkpt lat="47.06194" lon="-1.77158">
        <ele>85</ele>
        <time>2011-09-04T07:45:06Z</time>
      </trkpt>
      <trkpt lat="47.06202" lon="-1.77158">
        <ele>84</ele>
        <time>2011-09-04T07:45:08Z</time>
      </trkpt>
      <trkpt lat="47.06209" lon="-1.77157">
        <ele>84</ele>
        <time>2011-09-04T07:45:11Z</time>
      </trkpt>
      <trkpt lat="47.06214" lon="-1.77156">
        <ele>84</ele>
        <time>2011-09-04T07:45:14Z</time>
      </trkpt>
      <trkpt lat="47.0622" lon="-1.77157">
        <ele>84</ele>
        <time>2011-09-04T07:45:17Z</time>
      </trkpt>
      <trkpt lat="47.06226" lon="-1.77156">
        <ele>84</ele>
        <time>2011-09-04T07:45:20Z</time>
      </trkpt>
      <trkpt lat="47.06232" lon="-1.77157">
        <ele>83</ele>
        <time>2011-09-04T07:45:22Z</time>
      </trkpt>
      <trkpt lat="47.06239" lon="-1.77159">
        <ele>83</ele>
        <time>2011-09-04T07:45:24Z</time>
      </trkpt>
      <trkpt lat="47.06248" lon="-1.77158">
        <ele>83</ele>
        <time>2011-09-04T07:45:26Z</time>
      </trkpt>
      <trkpt lat="47.06256" lon="-1.77156">
        <ele>84</ele>
        <time>2011-09-04T07:45:28Z</time>
      </trkpt>
      <trkpt lat="47.06264" lon="-1.77154">
        <ele>85</ele>
        <time>2011-09-04T07:45:30Z</time>
      </trkpt>
      <trkpt lat="47.06273" lon="-1.77153">
        <ele>85</ele>
        <time>2011-09-04T07:45:32Z</time>
      </trkpt>
      <trkpt lat="47.06281" lon="-1.77149">
        <ele>84</ele>
        <time>2011-09-04T07:45:34Z</time>
      </trkpt>
      <trkpt lat="47.06288" lon="-1.77146">
        <ele>83</ele>
        <time>2011-09-04T07:45:36Z</time>
      </trkpt>
      <trkpt lat="47.06294" lon="-1.77144">
        <ele>83</ele>
        <time>2011-09-04T07:45:38Z</time>
      </trkpt>
      <trkpt lat="47.06301" lon="-1.7714">
        <ele>83</ele>
        <time>2011-09-04T07:45:40Z</time>
      </trkpt>
      <trkpt lat="47.06306" lon="-1.77139">
        <ele>84</ele>
        <time>2011-09-04T07:45:42Z</time>
      </trkpt>
      <trkpt lat="47.06312" lon="-1.77136">
        <ele>85</ele>
        <time>2011-09-04T07:45:44Z</time>
      </trkpt>
      <trkpt lat="47.06318" lon="-1.77132">
        <ele>85</ele>
        <time>2011-09-04T07:45:46Z</time>
      </trkpt>
      <trkpt lat="47.06324" lon="-1.77128">
        <ele>85</ele>
        <time>2011-09-04T07:45:48Z</time>
      </trkpt>
      <trkpt lat="47.06327" lon="-1.77124">
        <ele>85</ele>
        <time>2011-09-04T07:45:49Z</time>
      </trkpt>
      <trkpt lat="47.06334" lon="-1.77118">
        <ele>84</ele>
        <time>2011-09-04T07:45:51Z</time>
      </trkpt>
      <trkpt lat="47.06341" lon="-1.77117">
        <ele>83</ele>
        <time>2011-09-04T07:45:54Z</time>
      </trkpt>
      <trkpt lat="47.06346" lon="-1.77115">
        <ele>83</ele>
        <time>2011-09-04T07:45:56Z</time>
      </trkpt>
      <trkpt lat="47.06353" lon="-1.7711">
        <ele>82</ele>
        <time>2011-09-04T07:45:58Z</time>
      </trkpt>
      <trkpt lat="47.06356" lon="-1.77106">
        <ele>82</ele>
        <time>2011-09-04T07:45:59Z</time>
      </trkpt>
      <trkpt lat="47.0636" lon="-1.77101">
        <ele>82</ele>
        <time>2011-09-04T07:46:00Z</time>
      </trkpt>
      <trkpt lat="47.06364" lon="-1.77097">
        <ele>83</ele>
        <time>2011-09-04T07:46:01Z</time>
      </trkpt>
      <trkpt lat="47.0637" lon="-1.77091">
        <ele>82</ele>
        <time>2011-09-04T07:46:02Z</time>
      </trkpt>
      <trkpt lat="47.06377" lon="-1.77084">
        <ele>82</ele>
        <time>2011-09-04T07:46:04Z</time>
      </trkpt>
      <trkpt lat="47.06382" lon="-1.77079">
        <ele>83</ele>
        <time>2011-09-04T07:46:06Z</time>
      </trkpt>
      <trkpt lat="47.06388" lon="-1.77075">
        <ele>83</ele>
        <time>2011-09-04T07:46:08Z</time>
      </trkpt>
      <trkpt lat="47.06396" lon="-1.7707">
        <ele>83</ele>
        <time>2011-09-04T07:46:10Z</time>
      </trkpt>
      <trkpt lat="47.06404" lon="-1.77064">
        <ele>84</ele>
        <time>2011-09-04T07:46:12Z</time>
      </trkpt>
      <trkpt lat="47.06408" lon="-1.77061">
        <ele>84</ele>
        <time>2011-09-04T07:46:13Z</time>
      </trkpt>
      <trkpt lat="47.06414" lon="-1.77055">
        <ele>84</ele>
        <time>2011-09-04T07:46:15Z</time>
      </trkpt>
      <trkpt lat="47.06421" lon="-1.77049">
        <ele>84</ele>
        <time>2011-09-04T07:46:17Z</time>
      </trkpt>
      <trkpt lat="47.06425" lon="-1.77045">
        <ele>84</ele>
        <time>2011-09-04T07:46:18Z</time>
      </trkpt>
      <trkpt lat="47.06433" lon="-1.7704">
        <ele>83</ele>
        <time>2011-09-04T07:46:20Z</time>
      </trkpt>
      <trkpt lat="47.0644" lon="-1.77035">
        <ele>83</ele>
        <time>2011-09-04T07:46:22Z</time>
      </trkpt>
      <trkpt lat="47.06447" lon="-1.77031">
        <ele>83</ele>
        <time>2011-09-04T07:46:24Z</time>
      </trkpt>
      <trkpt lat="47.06454" lon="-1.77028">
        <ele>84</ele>
        <time>2011-09-04T07:46:26Z</time>
      </trkpt>
      <trkpt lat="47.06459" lon="-1.77025">
        <ele>85</ele>
        <time>2011-09-04T07:46:27Z</time>
      </trkpt>
      <trkpt lat="47.06465" lon="-1.77019">
        <ele>86</ele>
        <time>2011-09-04T07:46:28Z</time>
      </trkpt>
      <trkpt lat="47.0647" lon="-1.77016">
        <ele>87</ele>
        <time>2011-09-04T07:46:29Z</time>
      </trkpt>
      <trkpt lat="47.06476" lon="-1.77012">
        <ele>88</ele>
        <time>2011-09-04T07:46:30Z</time>
      </trkpt>
      <trkpt lat="47.06481" lon="-1.77009">
        <ele>89</ele>
        <time>2011-09-04T07:46:31Z</time>
      </trkpt>
      <trkpt lat="47.0649" lon="-1.77003">
        <ele>90</ele>
        <time>2011-09-04T07:46:33Z</time>
      </trkpt>
      <trkpt lat="47.06497" lon="-1.76997">
        <ele>91</ele>
        <time>2011-09-04T07:46:35Z</time>
      </trkpt>
      <trkpt lat="47.06504" lon="-1.7699">
        <ele>90</ele>
        <time>2011-09-04T07:46:37Z</time>
      </trkpt>
      <trkpt lat="47.06511" lon="-1.76984">
        <ele>89</ele>
        <time>2011-09-04T07:46:39Z</time>
      </trkpt>
      <trkpt lat="47.06515" lon="-1.76979">
        <ele>89</ele>
        <time>2011-09-04T07:46:40Z</time>
      </trkpt>
      <trkpt lat="47.06519" lon="-1.76975">
        <ele>89</ele>
        <time>2011-09-04T07:46:41Z</time>
      </trkpt>
      <trkpt lat="47.06526" lon="-1.7697">
        <ele>89</ele>
        <time>2011-09-04T07:46:43Z</time>
      </trkpt>
      <trkpt lat="47.06533" lon="-1.76964">
        <ele>89</ele>
        <time>2011-09-04T07:46:45Z</time>
      </trkpt>
      <trkpt lat="47.0654" lon="-1.76959">
        <ele>88</ele>
        <time>2011-09-04T07:46:47Z</time>
      </trkpt>
      <trkpt lat="47.06547" lon="-1.76956">
        <ele>88</ele>
        <time>2011-09-04T07:46:49Z</time>
      </trkpt>
      <trkpt lat="47.06554" lon="-1.76953">
        <ele>88</ele>
        <time>2011-09-04T07:46:51Z</time>
      </trkpt>
      <trkpt lat="47.06561" lon="-1.76952">
        <ele>88</ele>
        <time>2011-09-04T07:46:53Z</time>
      </trkpt>
      <trkpt lat="47.06568" lon="-1.7695">
        <ele>89</ele>
        <time>2011-09-04T07:46:55Z</time>
      </trkpt>
      <trkpt lat="47.06576" lon="-1.76946">
        <ele>88</ele>
        <time>2011-09-04T07:46:57Z</time>
      </trkpt>
      <trkpt lat="47.06584" lon="-1.76942">
        <ele>88</ele>
        <time>2011-09-04T07:46:59Z</time>
      </trkpt>
      <trkpt lat="47.06588" lon="-1.76939">
        <ele>88</ele>
        <time>2011-09-04T07:47:00Z</time>
      </trkpt>
      <trkpt lat="47.06596" lon="-1.76935">
        <ele>88</ele>
        <time>2011-09-04T07:47:02Z</time>
      </trkpt>
      <trkpt lat="47.066" lon="-1.76933">
        <ele>87</ele>
        <time>2011-09-04T07:47:03Z</time>
      </trkpt>
      <trkpt lat="47.06605" lon="-1.76931">
        <ele>87</ele>
        <time>2011-09-04T07:47:04Z</time>
      </trkpt>
      <trkpt lat="47.06609" lon="-1.76929">
        <ele>87</ele>
        <time>2011-09-04T07:47:05Z</time>
      </trkpt>
      <trkpt lat="47.06618" lon="-1.76924">
        <ele>87</ele>
        <time>2011-09-04T07:47:07Z</time>
      </trkpt>
      <trkpt lat="47.06626" lon="-1.76922">
        <ele>87</ele>
        <time>2011-09-04T07:47:09Z</time>
      </trkpt>
      <trkpt lat="47.06633" lon="-1.76917">
        <ele>86</ele>
        <time>2011-09-04T07:47:11Z</time>
      </trkpt>
      <trkpt lat="47.0664" lon="-1.76915">
        <ele>86</ele>
        <time>2011-09-04T07:47:13Z</time>
      </trkpt>
      <trkpt lat="47.06648" lon="-1.76914">
        <ele>86</ele>
        <time>2011-09-04T07:47:15Z</time>
      </trkpt>
      <trkpt lat="47.06653" lon="-1.76913">
        <ele>86</ele>
        <time>2011-09-04T07:47:16Z</time>
      </trkpt>
      <trkpt lat="47.06662" lon="-1.76913">
        <ele>86</ele>
        <time>2011-09-04T07:47:18Z</time>
      </trkpt>
      <trkpt lat="47.06667" lon="-1.76912">
        <ele>86</ele>
        <time>2011-09-04T07:47:19Z</time>
      </trkpt>
      <trkpt lat="47.06676" lon="-1.7691">
        <ele>86</ele>
        <time>2011-09-04T07:47:21Z</time>
      </trkpt>
      <trkpt lat="47.06681" lon="-1.7691">
        <ele>86</ele>
        <time>2011-09-04T07:47:22Z</time>
      </trkpt>
      <trkpt lat="47.0669" lon="-1.76908">
        <ele>87</ele>
        <time>2011-09-04T07:47:24Z</time>
      </trkpt>
      <trkpt lat="47.06696" lon="-1.76907">
        <ele>87</ele>
        <time>2011-09-04T07:47:25Z</time>
      </trkpt>
      <trkpt lat="47.06701" lon="-1.76906">
        <ele>87</ele>
        <time>2011-09-04T07:47:26Z</time>
      </trkpt>
      <trkpt lat="47.06706" lon="-1.76904">
        <ele>87</ele>
        <time>2011-09-04T07:47:27Z</time>
      </trkpt>
      <trkpt lat="47.06711" lon="-1.76902">
        <ele>87</ele>
        <time>2011-09-04T07:47:28Z</time>
      </trkpt>
      <trkpt lat="47.06714" lon="-1.76897">
        <ele>87</ele>
        <time>2011-09-04T07:47:29Z</time>
      </trkpt>
      <trkpt lat="47.06717" lon="-1.76891">
        <ele>87</ele>
        <time>2011-09-04T07:47:30Z</time>
      </trkpt>
      <trkpt lat="47.06719" lon="-1.76884">
        <ele>86</ele>
        <time>2011-09-04T07:47:31Z</time>
      </trkpt>
      <trkpt lat="47.06722" lon="-1.76877">
        <ele>86</ele>
        <time>2011-09-04T07:47:32Z</time>
      </trkpt>
      <trkpt lat="47.06724" lon="-1.76872">
        <ele>86</ele>
        <time>2011-09-04T07:47:33Z</time>
      </trkpt>
      <trkpt lat="47.06728" lon="-1.76859">
        <ele>85</ele>
        <time>2011-09-04T07:47:35Z</time>
      </trkpt>
      <trkpt lat="47.06728" lon="-1.7685">
        <ele>84</ele>
        <time>2011-09-04T07:47:36Z</time>
      </trkpt>
      <trkpt lat="47.06729" lon="-1.76843">
        <ele>84</ele>
        <time>2011-09-04T07:47:37Z</time>
      </trkpt>
      <trkpt lat="47.06729" lon="-1.76835">
        <ele>84</ele>
        <time>2011-09-04T07:47:38Z</time>
      </trkpt>
      <trkpt lat="47.06728" lon="-1.76828">
        <ele>84</ele>
        <time>2011-09-04T07:47:39Z</time>
      </trkpt>
      <trkpt lat="47.06728" lon="-1.7682">
        <ele>83</ele>
        <time>2011-09-04T07:47:40Z</time>
      </trkpt>
      <trkpt lat="47.06727" lon="-1.76813">
        <ele>83</ele>
        <time>2011-09-04T07:47:41Z</time>
      </trkpt>
      <trkpt lat="47.06726" lon="-1.76805">
        <ele>83</ele>
        <time>2011-09-04T07:47:42Z</time>
      </trkpt>
      <trkpt lat="47.06725" lon="-1.76798">
        <ele>83</ele>
        <time>2011-09-04T07:47:43Z</time>
      </trkpt>
      <trkpt lat="47.06723" lon="-1.76785">
        <ele>83</ele>
        <time>2011-09-04T07:47:45Z</time>
      </trkpt>
      <trkpt lat="47.0672" lon="-1.76772">
        <ele>82</ele>
        <time>2011-09-04T07:47:47Z</time>
      </trkpt>
      <trkpt lat="47.06719" lon="-1.76766">
        <ele>82</ele>
        <time>2011-09-04T07:47:48Z</time>
      </trkpt>
      <trkpt lat="47.06718" lon="-1.76759">
        <ele>82</ele>
        <time>2011-09-04T07:47:49Z</time>
      </trkpt>
      <trkpt lat="47.06715" lon="-1.76747">
        <ele>82</ele>
        <time>2011-09-04T07:47:51Z</time>
      </trkpt>
      <trkpt lat="47.06712" lon="-1.76734">
        <ele>82</ele>
        <time>2011-09-04T07:47:53Z</time>
      </trkpt>
      <trkpt lat="47.0671" lon="-1.76722">
        <ele>82</ele>
        <time>2011-09-04T07:47:55Z</time>
      </trkpt>
      <trkpt lat="47.06708" lon="-1.7671">
        <ele>82</ele>
        <time>2011-09-04T07:47:57Z</time>
      </trkpt>
      <trkpt lat="47.06706" lon="-1.76698">
        <ele>82</ele>
        <time>2011-09-04T07:47:59Z</time>
      </trkpt>
      <trkpt lat="47.06704" lon="-1.76692">
        <ele>82</ele>
        <time>2011-09-04T07:48:00Z</time>
      </trkpt>
      <trkpt lat="47.06702" lon="-1.7668">
        <ele>82</ele>
        <time>2011-09-04T07:48:02Z</time>
      </trkpt>
      <trkpt lat="47.06702" lon="-1.76669">
        <ele>82</ele>
        <time>2011-09-04T07:48:04Z</time>
      </trkpt>
      <trkpt lat="47.06702" lon="-1.76658">
        <ele>82</ele>
        <time>2011-09-04T07:48:06Z</time>
      </trkpt>
      <trkpt lat="47.06701" lon="-1.76646">
        <ele>82</ele>
        <time>2011-09-04T07:48:08Z</time>
      </trkpt>
      <trkpt lat="47.06699" lon="-1.76635">
        <ele>82</ele>
        <time>2011-09-04T07:48:10Z</time>
      </trkpt>
      <trkpt lat="47.06697" lon="-1.76622">
        <ele>82</ele>
        <time>2011-09-04T07:48:12Z</time>
      </trkpt>
      <trkpt lat="47.06696" lon="-1.76615">
        <ele>82</ele>
        <time>2011-09-04T07:48:13Z</time>
      </trkpt>
      <trkpt lat="47.06694" lon="-1.7661">
        <ele>82</ele>
        <time>2011-09-04T07:48:14Z</time>
      </trkpt>
      <trkpt lat="47.06693" lon="-1.76602">
        <ele>81</ele>
        <time>2011-09-04T07:48:15Z</time>
      </trkpt>
      <trkpt lat="47.06691" lon="-1.76596">
        <ele>81</ele>
        <time>2011-09-04T07:48:16Z</time>
      </trkpt>
      <trkpt lat="47.06688" lon="-1.76584">
        <ele>81</ele>
        <time>2011-09-04T07:48:18Z</time>
      </trkpt>
      <trkpt lat="47.06687" lon="-1.76577">
        <ele>81</ele>
        <time>2011-09-04T07:48:19Z</time>
      </trkpt>
      <trkpt lat="47.06686" lon="-1.76564">
        <ele>81</ele>
        <time>2011-09-04T07:48:21Z</time>
      </trkpt>
      <trkpt lat="47.06684" lon="-1.76551">
        <ele>81</ele>
        <time>2011-09-04T07:48:23Z</time>
      </trkpt>
      <trkpt lat="47.06682" lon="-1.76538">
        <ele>81</ele>
        <time>2011-09-04T07:48:25Z</time>
      </trkpt>
      <trkpt lat="47.06681" lon="-1.76531">
        <ele>81</ele>
        <time>2011-09-04T07:48:26Z</time>
      </trkpt>
      <trkpt lat="47.06679" lon="-1.76518">
        <ele>82</ele>
        <time>2011-09-04T07:48:28Z</time>
      </trkpt>
      <trkpt lat="47.06679" lon="-1.76511">
        <ele>82</ele>
        <time>2011-09-04T07:48:29Z</time>
      </trkpt>
      <trkpt lat="47.06677" lon="-1.76498">
        <ele>82</ele>
        <time>2011-09-04T07:48:31Z</time>
      </trkpt>
      <trkpt lat="47.06676" lon="-1.76486">
        <ele>82</ele>
        <time>2011-09-04T07:48:33Z</time>
      </trkpt>
      <trkpt lat="47.06676" lon="-1.76473">
        <ele>82</ele>
        <time>2011-09-04T07:48:35Z</time>
      </trkpt>
      <trkpt lat="47.06676" lon="-1.7646">
        <ele>83</ele>
        <time>2011-09-04T07:48:37Z</time>
      </trkpt>
      <trkpt lat="47.06677" lon="-1.76448">
        <ele>83</ele>
        <time>2011-09-04T07:48:39Z</time>
      </trkpt>
      <trkpt lat="47.06678" lon="-1.76435">
        <ele>83</ele>
        <time>2011-09-04T07:48:41Z</time>
      </trkpt>
      <trkpt lat="47.0668" lon="-1.76422">
        <ele>83</ele>
        <time>2011-09-04T07:48:43Z</time>
      </trkpt>
      <trkpt lat="47.0668" lon="-1.76415">
        <ele>83</ele>
        <time>2011-09-04T07:48:44Z</time>
      </trkpt>
      <trkpt lat="47.06681" lon="-1.76402">
        <ele>83</ele>
        <time>2011-09-04T07:48:46Z</time>
      </trkpt>
      <trkpt lat="47.06682" lon="-1.76395">
        <ele>83</ele>
        <time>2011-09-04T07:48:47Z</time>
      </trkpt>
      <trkpt lat="47.06684" lon="-1.76383">
        <ele>83</ele>
        <time>2011-09-04T07:48:49Z</time>
      </trkpt>
      <trkpt lat="47.06684" lon="-1.7637">
        <ele>83</ele>
        <time>2011-09-04T07:48:51Z</time>
      </trkpt>
      <trkpt lat="47.06684" lon="-1.76363">
        <ele>83</ele>
        <time>2011-09-04T07:48:52Z</time>
      </trkpt>
      <trkpt lat="47.06684" lon="-1.76349">
        <ele>83</ele>
        <time>2011-09-04T07:48:54Z</time>
      </trkpt>
      <trkpt lat="47.06682" lon="-1.76343">
        <ele>83</ele>
        <time>2011-09-04T07:48:55Z</time>
      </trkpt>
      <trkpt lat="47.0668" lon="-1.76336">
        <ele>83</ele>
        <time>2011-09-04T07:48:56Z</time>
      </trkpt>
      <trkpt lat="47.06678" lon="-1.7633">
        <ele>83</ele>
        <time>2011-09-04T07:48:57Z</time>
      </trkpt>
      <trkpt lat="47.06675" lon="-1.76324">
        <ele>83</ele>
        <time>2011-09-04T07:48:58Z</time>
      </trkpt>
      <trkpt lat="47.06672" lon="-1.76319">
        <ele>84</ele>
        <time>2011-09-04T07:48:59Z</time>
      </trkpt>
      <trkpt lat="47.06668" lon="-1.76314">
        <ele>84</ele>
        <time>2011-09-04T07:49:00Z</time>
      </trkpt>
      <trkpt lat="47.06665" lon="-1.7631">
        <ele>84</ele>
        <time>2011-09-04T07:49:01Z</time>
      </trkpt>
      <trkpt lat="47.06661" lon="-1.76305">
        <ele>84</ele>
        <time>2011-09-04T07:49:02Z</time>
      </trkpt>
      <trkpt lat="47.06657" lon="-1.76301">
        <ele>84</ele>
        <time>2011-09-04T07:49:03Z</time>
      </trkpt>
      <trkpt lat="47.06653" lon="-1.76297">
        <ele>84</ele>
        <time>2011-09-04T07:49:04Z</time>
      </trkpt>
      <trkpt lat="47.0665" lon="-1.76292">
        <ele>84</ele>
        <time>2011-09-04T07:49:05Z</time>
      </trkpt>
      <trkpt lat="47.06646" lon="-1.76288">
        <ele>84</ele>
        <time>2011-09-04T07:49:06Z</time>
      </trkpt>
      <trkpt lat="47.06642" lon="-1.76283">
        <ele>84</ele>
        <time>2011-09-04T07:49:07Z</time>
      </trkpt>
      <trkpt lat="47.06635" lon="-1.76275">
        <ele>84</ele>
        <time>2011-09-04T07:49:09Z</time>
      </trkpt>
      <trkpt lat="47.06628" lon="-1.76267">
        <ele>84</ele>
        <time>2011-09-04T07:49:11Z</time>
      </trkpt>
      <trkpt lat="47.06624" lon="-1.76263">
        <ele>84</ele>
        <time>2011-09-04T07:49:12Z</time>
      </trkpt>
      <trkpt lat="47.06616" lon="-1.76255">
        <ele>84</ele>
        <time>2011-09-04T07:49:14Z</time>
      </trkpt>
      <trkpt lat="47.06609" lon="-1.76246">
        <ele>85</ele>
        <time>2011-09-04T07:49:16Z</time>
      </trkpt>
      <trkpt lat="47.06602" lon="-1.76238">
        <ele>85</ele>
        <time>2011-09-04T07:49:18Z</time>
      </trkpt>
      <trkpt lat="47.06595" lon="-1.76231">
        <ele>85</ele>
        <time>2011-09-04T07:49:20Z</time>
      </trkpt>
      <trkpt lat="47.06588" lon="-1.76222">
        <ele>85</ele>
        <time>2011-09-04T07:49:22Z</time>
      </trkpt>
      <trkpt lat="47.06582" lon="-1.76213">
        <ele>85</ele>
        <time>2011-09-04T07:49:24Z</time>
      </trkpt>
      <trkpt lat="47.06579" lon="-1.76208">
        <ele>85</ele>
        <time>2011-09-04T07:49:25Z</time>
      </trkpt>
      <trkpt lat="47.06576" lon="-1.76203">
        <ele>85</ele>
        <time>2011-09-04T07:49:26Z</time>
      </trkpt>
      <trkpt lat="47.0657" lon="-1.76193">
        <ele>85</ele>
        <time>2011-09-04T07:49:28Z</time>
      </trkpt>
      <trkpt lat="47.06568" lon="-1.76187">
        <ele>85</ele>
        <time>2011-09-04T07:49:29Z</time>
      </trkpt>
      <trkpt lat="47.06562" lon="-1.76176">
        <ele>85</ele>
        <time>2011-09-04T07:49:31Z</time>
      </trkpt>
      <trkpt lat="47.06559" lon="-1.76166">
        <ele>85</ele>
        <time>2011-09-04T07:49:33Z</time>
      </trkpt>
      <trkpt lat="47.06555" lon="-1.76155">
        <ele>86</ele>
        <time>2011-09-04T07:49:35Z</time>
      </trkpt>
      <trkpt lat="47.06552" lon="-1.76149">
        <ele>86</ele>
        <time>2011-09-04T07:49:36Z</time>
      </trkpt>
      <trkpt lat="47.06548" lon="-1.76143">
        <ele>86</ele>
        <time>2011-09-04T07:49:37Z</time>
      </trkpt>
      <trkpt lat="47.06546" lon="-1.76137">
        <ele>86</ele>
        <time>2011-09-04T07:49:38Z</time>
      </trkpt>
      <trkpt lat="47.06542" lon="-1.76132">
        <ele>86</ele>
        <time>2011-09-04T07:49:39Z</time>
      </trkpt>
      <trkpt lat="47.06539" lon="-1.76126">
        <ele>86</ele>
        <time>2011-09-04T07:49:40Z</time>
      </trkpt>
      <trkpt lat="47.06536" lon="-1.7612">
        <ele>86</ele>
        <time>2011-09-04T07:49:41Z</time>
      </trkpt>
      <trkpt lat="47.06533" lon="-1.76114">
        <ele>86</ele>
        <time>2011-09-04T07:49:42Z</time>
      </trkpt>
      <trkpt lat="47.06529" lon="-1.76109">
        <ele>86</ele>
        <time>2011-09-04T07:49:43Z</time>
      </trkpt>
      <trkpt lat="47.06526" lon="-1.76104">
        <ele>86</ele>
        <time>2011-09-04T07:49:44Z</time>
      </trkpt>
      <trkpt lat="47.06522" lon="-1.76099">
        <ele>86</ele>
        <time>2011-09-04T07:49:45Z</time>
      </trkpt>
      <trkpt lat="47.06519" lon="-1.76093">
        <ele>86</ele>
        <time>2011-09-04T07:49:46Z</time>
      </trkpt>
      <trkpt lat="47.06515" lon="-1.76088">
        <ele>86</ele>
        <time>2011-09-04T07:49:47Z</time>
      </trkpt>
      <trkpt lat="47.06512" lon="-1.76083">
        <ele>86</ele>
        <time>2011-09-04T07:49:48Z</time>
      </trkpt>
      <trkpt lat="47.06508" lon="-1.76077">
        <ele>86</ele>
        <time>2011-09-04T07:49:49Z</time>
      </trkpt>
      <trkpt lat="47.06505" lon="-1.76072">
        <ele>86</ele>
        <time>2011-09-04T07:49:50Z</time>
      </trkpt>
      <trkpt lat="47.06501" lon="-1.76066">
        <ele>86</ele>
        <time>2011-09-04T07:49:51Z</time>
      </trkpt>
      <trkpt lat="47.06498" lon="-1.76061">
        <ele>86</ele>
        <time>2011-09-04T07:49:52Z</time>
      </trkpt>
      <trkpt lat="47.06495" lon="-1.76055">
        <ele>86</ele>
        <time>2011-09-04T07:49:53Z</time>
      </trkpt>
      <trkpt lat="47.06491" lon="-1.7605">
        <ele>86</ele>
        <time>2011-09-04T07:49:54Z</time>
      </trkpt>
      <trkpt lat="47.06487" lon="-1.76045">
        <ele>86</ele>
        <time>2011-09-04T07:49:55Z</time>
      </trkpt>
      <trkpt lat="47.06484" lon="-1.7604">
        <ele>86</ele>
        <time>2011-09-04T07:49:56Z</time>
      </trkpt>
      <trkpt lat="47.0648" lon="-1.76036">
        <ele>86</ele>
        <time>2011-09-04T07:49:57Z</time>
      </trkpt>
      <trkpt lat="47.06476" lon="-1.76031">
        <ele>86</ele>
        <time>2011-09-04T07:49:58Z</time>
      </trkpt>
      <trkpt lat="47.06472" lon="-1.76028">
        <ele>86</ele>
        <time>2011-09-04T07:49:59Z</time>
      </trkpt>
      <trkpt lat="47.06467" lon="-1.76025">
        <ele>86</ele>
        <time>2011-09-04T07:50:00Z</time>
      </trkpt>
      <trkpt lat="47.06462" lon="-1.76022">
        <ele>86</ele>
        <time>2011-09-04T07:50:01Z</time>
      </trkpt>
      <trkpt lat="47.06457" lon="-1.76019">
        <ele>86</ele>
        <time>2011-09-04T07:50:02Z</time>
      </trkpt>
      <trkpt lat="47.06452" lon="-1.76016">
        <ele>86</ele>
        <time>2011-09-04T07:50:03Z</time>
      </trkpt>
      <trkpt lat="47.06446" lon="-1.76014">
        <ele>86</ele>
        <time>2011-09-04T07:50:04Z</time>
      </trkpt>
      <trkpt lat="47.06442" lon="-1.7601">
        <ele>86</ele>
        <time>2011-09-04T07:50:05Z</time>
      </trkpt>
      <trkpt lat="47.06436" lon="-1.76008">
        <ele>86</ele>
        <time>2011-09-04T07:50:06Z</time>
      </trkpt>
      <trkpt lat="47.06432" lon="-1.76004">
        <ele>86</ele>
        <time>2011-09-04T07:50:07Z</time>
      </trkpt>
      <trkpt lat="47.06427" lon="-1.76001">
        <ele>86</ele>
        <time>2011-09-04T07:50:08Z</time>
      </trkpt>
      <trkpt lat="47.06422" lon="-1.75997">
        <ele>86</ele>
        <time>2011-09-04T07:50:09Z</time>
      </trkpt>
      <trkpt lat="47.06418" lon="-1.75993">
        <ele>86</ele>
        <time>2011-09-04T07:50:10Z</time>
      </trkpt>
      <trkpt lat="47.06414" lon="-1.75989">
        <ele>86</ele>
        <time>2011-09-04T07:50:11Z</time>
      </trkpt>
      <trkpt lat="47.0641" lon="-1.75984">
        <ele>86</ele>
        <time>2011-09-04T07:50:12Z</time>
      </trkpt>
      <trkpt lat="47.06407" lon="-1.75979">
        <ele>86</ele>
        <time>2011-09-04T07:50:13Z</time>
      </trkpt>
      <trkpt lat="47.06403" lon="-1.75973">
        <ele>86</ele>
        <time>2011-09-04T07:50:14Z</time>
      </trkpt>
      <trkpt lat="47.06397" lon="-1.75961">
        <ele>85</ele>
        <time>2011-09-04T07:50:16Z</time>
      </trkpt>
      <trkpt lat="47.06392" lon="-1.7595">
        <ele>85</ele>
        <time>2011-09-04T07:50:18Z</time>
      </trkpt>
      <trkpt lat="47.06388" lon="-1.75943">
        <ele>85</ele>
        <time>2011-09-04T07:50:19Z</time>
      </trkpt>
      <trkpt lat="47.06382" lon="-1.75932">
        <ele>85</ele>
        <time>2011-09-04T07:50:21Z</time>
      </trkpt>
      <trkpt lat="47.06379" lon="-1.75926">
        <ele>85</ele>
        <time>2011-09-04T07:50:22Z</time>
      </trkpt>
      <trkpt lat="47.06376" lon="-1.75921">
        <ele>85</ele>
        <time>2011-09-04T07:50:23Z</time>
      </trkpt>
      <trkpt lat="47.06373" lon="-1.75915">
        <ele>85</ele>
        <time>2011-09-04T07:50:24Z</time>
      </trkpt>
      <trkpt lat="47.06369" lon="-1.7591">
        <ele>85</ele>
        <time>2011-09-04T07:50:25Z</time>
      </trkpt>
      <trkpt lat="47.06365" lon="-1.75906">
        <ele>86</ele>
        <time>2011-09-04T07:50:26Z</time>
      </trkpt>
      <trkpt lat="47.0636" lon="-1.75902">
        <ele>86</ele>
        <time>2011-09-04T07:50:27Z</time>
      </trkpt>
      <trkpt lat="47.06356" lon="-1.75898">
        <ele>86</ele>
        <time>2011-09-04T07:50:28Z</time>
      </trkpt>
      <trkpt lat="47.06351" lon="-1.75894">
        <ele>86</ele>
        <time>2011-09-04T07:50:29Z</time>
      </trkpt>
      <trkpt lat="47.06348" lon="-1.7589">
        <ele>86</ele>
        <time>2011-09-04T07:50:30Z</time>
      </trkpt>
      <trkpt lat="47.06344" lon="-1.75886">
        <ele>86</ele>
        <time>2011-09-04T07:50:31Z</time>
      </trkpt>
      <trkpt lat="47.0634" lon="-1.75882">
        <ele>86</ele>
        <time>2011-09-04T07:50:32Z</time>
      </trkpt>
      <trkpt lat="47.06337" lon="-1.75876">
        <ele>86</ele>
        <time>2011-09-04T07:50:33Z</time>
      </trkpt>
      <trkpt lat="47.06332" lon="-1.75865">
        <ele>86</ele>
        <time>2011-09-04T07:50:35Z</time>
      </trkpt>
      <trkpt lat="47.06329" lon="-1.7586">
        <ele>86</ele>
        <time>2011-09-04T07:50:36Z</time>
      </trkpt>
      <trkpt lat="47.06327" lon="-1.75852">
        <ele>86</ele>
        <time>2011-09-04T07:50:37Z</time>
      </trkpt>
      <trkpt lat="47.06325" lon="-1.75847">
        <ele>86</ele>
        <time>2011-09-04T07:50:38Z</time>
      </trkpt>
      <trkpt lat="47.06323" lon="-1.7584">
        <ele>86</ele>
        <time>2011-09-04T07:50:39Z</time>
      </trkpt>
      <trkpt lat="47.0632" lon="-1.75834">
        <ele>85</ele>
        <time>2011-09-04T07:50:40Z</time>
      </trkpt>
      <trkpt lat="47.06318" lon="-1.75827">
        <ele>85</ele>
        <time>2011-09-04T07:50:41Z</time>
      </trkpt>
      <trkpt lat="47.06316" lon="-1.7582">
        <ele>85</ele>
        <time>2011-09-04T07:50:42Z</time>
      </trkpt>
      <trkpt lat="47.06313" lon="-1.75813">
        <ele>85</ele>
        <time>2011-09-04T07:50:43Z</time>
      </trkpt>
      <trkpt lat="47.06311" lon="-1.75806">
        <ele>85</ele>
        <time>2011-09-04T07:50:44Z</time>
      </trkpt>
      <trkpt lat="47.06309" lon="-1.75799">
        <ele>85</ele>
        <time>2011-09-04T07:50:45Z</time>
      </trkpt>
      <trkpt lat="47.06306" lon="-1.75792">
        <ele>84</ele>
        <time>2011-09-04T07:50:46Z</time>
      </trkpt>
      <trkpt lat="47.06304" lon="-1.75786">
        <ele>84</ele>
        <time>2011-09-04T07:50:47Z</time>
      </trkpt>
      <trkpt lat="47.06302" lon="-1.75779">
        <ele>84</ele>
        <time>2011-09-04T07:50:48Z</time>
      </trkpt>
      <trkpt lat="47.063" lon="-1.75773">
        <ele>84</ele>
        <time>2011-09-04T07:50:49Z</time>
      </trkpt>
      <trkpt lat="47.06296" lon="-1.75761">
        <ele>83</ele>
        <time>2011-09-04T07:50:51Z</time>
      </trkpt>
      <trkpt lat="47.06292" lon="-1.75752">
        <ele>83</ele>
        <time>2011-09-04T07:50:53Z</time>
      </trkpt>
      <trkpt lat="47.06288" lon="-1.75747">
        <ele>83</ele>
        <time>2011-09-04T07:50:55Z</time>
      </trkpt>
      <trkpt lat="47.06286" lon="-1.75739">
        <ele>82</ele>
        <time>2011-09-04T07:50:58Z</time>
      </trkpt>
      <trkpt lat="47.06289" lon="-1.75732">
        <ele>82</ele>
        <time>2011-09-04T07:51:00Z</time>
      </trkpt>
      <trkpt lat="47.06293" lon="-1.75725">
        <ele>81</ele>
        <time>2011-09-04T07:51:02Z</time>
      </trkpt>
      <trkpt lat="47.06297" lon="-1.75717">
        <ele>81</ele>
        <time>2011-09-04T07:51:04Z</time>
      </trkpt>
      <trkpt lat="47.06301" lon="-1.75708">
        <ele>81</ele>
        <time>2011-09-04T07:51:06Z</time>
      </trkpt>
      <trkpt lat="47.06306" lon="-1.75699">
        <ele>81</ele>
        <time>2011-09-04T07:51:08Z</time>
      </trkpt>
      <trkpt lat="47.06308" lon="-1.75693">
        <ele>81</ele>
        <time>2011-09-04T07:51:09Z</time>
      </trkpt>
      <trkpt lat="47.06311" lon="-1.75687">
        <ele>81</ele>
        <time>2011-09-04T07:51:10Z</time>
      </trkpt>
      <trkpt lat="47.06314" lon="-1.75682">
        <ele>81</ele>
        <time>2011-09-04T07:51:11Z</time>
      </trkpt>
      <trkpt lat="47.06316" lon="-1.75676">
        <ele>80</ele>
        <time>2011-09-04T07:51:12Z</time>
      </trkpt>
      <trkpt lat="47.06319" lon="-1.7567">
        <ele>80</ele>
        <time>2011-09-04T07:51:13Z</time>
      </trkpt>
      <trkpt lat="47.06322" lon="-1.75664">
        <ele>80</ele>
        <time>2011-09-04T07:51:14Z</time>
      </trkpt>
      <trkpt lat="47.06325" lon="-1.75658">
        <ele>80</ele>
        <time>2011-09-04T07:51:15Z</time>
      </trkpt>
      <trkpt lat="47.06327" lon="-1.75651">
        <ele>80</ele>
        <time>2011-09-04T07:51:16Z</time>
      </trkpt>
      <trkpt lat="47.0633" lon="-1.75645">
        <ele>80</ele>
        <time>2011-09-04T07:51:17Z</time>
      </trkpt>
      <trkpt lat="47.06333" lon="-1.75638">
        <ele>80</ele>
        <time>2011-09-04T07:51:18Z</time>
      </trkpt>
      <trkpt lat="47.06336" lon="-1.75632">
        <ele>80</ele>
        <time>2011-09-04T07:51:19Z</time>
      </trkpt>
      <trkpt lat="47.06338" lon="-1.75626">
        <ele>80</ele>
        <time>2011-09-04T07:51:20Z</time>
      </trkpt>
      <trkpt lat="47.06342" lon="-1.75619">
        <ele>80</ele>
        <time>2011-09-04T07:51:21Z</time>
      </trkpt>
      <trkpt lat="47.06344" lon="-1.75614">
        <ele>80</ele>
        <time>2011-09-04T07:51:22Z</time>
      </trkpt>
      <trkpt lat="47.06347" lon="-1.75608">
        <ele>80</ele>
        <time>2011-09-04T07:51:23Z</time>
      </trkpt>
      <trkpt lat="47.0635" lon="-1.75602">
        <ele>79</ele>
        <time>2011-09-04T07:51:24Z</time>
      </trkpt>
      <trkpt lat="47.06353" lon="-1.75594">
        <ele>79</ele>
        <time>2011-09-04T07:51:25Z</time>
      </trkpt>
      <trkpt lat="47.06356" lon="-1.75588">
        <ele>79</ele>
        <time>2011-09-04T07:51:26Z</time>
      </trkpt>
      <trkpt lat="47.06359" lon="-1.75582">
        <ele>79</ele>
        <time>2011-09-04T07:51:27Z</time>
      </trkpt>
      <trkpt lat="47.06362" lon="-1.75575">
        <ele>79</ele>
        <time>2011-09-04T07:51:28Z</time>
      </trkpt>
      <trkpt lat="47.06365" lon="-1.75568">
        <ele>79</ele>
        <time>2011-09-04T07:51:29Z</time>
      </trkpt>
      <trkpt lat="47.06368" lon="-1.75561">
        <ele>79</ele>
        <time>2011-09-04T07:51:30Z</time>
      </trkpt>
      <trkpt lat="47.06371" lon="-1.75554">
        <ele>79</ele>
        <time>2011-09-04T07:51:31Z</time>
      </trkpt>
      <trkpt lat="47.06374" lon="-1.75547">
        <ele>79</ele>
        <time>2011-09-04T07:51:32Z</time>
      </trkpt>
      <trkpt lat="47.06377" lon="-1.7554">
        <ele>78</ele>
        <time>2011-09-04T07:51:33Z</time>
      </trkpt>
      <trkpt lat="47.0638" lon="-1.75533">
        <ele>78</ele>
        <time>2011-09-04T07:51:34Z</time>
      </trkpt>
      <trkpt lat="47.06383" lon="-1.75526">
        <ele>78</ele>
        <time>2011-09-04T07:51:35Z</time>
      </trkpt>
      <trkpt lat="47.06386" lon="-1.75519">
        <ele>78</ele>
        <time>2011-09-04T07:51:36Z</time>
      </trkpt>
      <trkpt lat="47.0639" lon="-1.75511">
        <ele>78</ele>
        <time>2011-09-04T07:51:37Z</time>
      </trkpt>
      <trkpt lat="47.06393" lon="-1.75503">
        <ele>78</ele>
        <time>2011-09-04T07:51:38Z</time>
      </trkpt>
      <trkpt lat="47.06396" lon="-1.75496">
        <ele>78</ele>
        <time>2011-09-04T07:51:39Z</time>
      </trkpt>
      <trkpt lat="47.064" lon="-1.75488">
        <ele>78</ele>
        <time>2011-09-04T07:51:40Z</time>
      </trkpt>
      <trkpt lat="47.06402" lon="-1.75481">
        <ele>77</ele>
        <time>2011-09-04T07:51:41Z</time>
      </trkpt>
      <trkpt lat="47.06406" lon="-1.75474">
        <ele>77</ele>
        <time>2011-09-04T07:51:42Z</time>
      </trkpt>
      <trkpt lat="47.06409" lon="-1.75466">
        <ele>77</ele>
        <time>2011-09-04T07:51:43Z</time>
      </trkpt>
      <trkpt lat="47.06412" lon="-1.75459">
        <ele>77</ele>
        <time>2011-09-04T07:51:44Z</time>
      </trkpt>
      <trkpt lat="47.06415" lon="-1.75453">
        <ele>77</ele>
        <time>2011-09-04T07:51:45Z</time>
      </trkpt>
      <trkpt lat="47.06417" lon="-1.75448">
        <ele>77</ele>
        <time>2011-09-04T07:51:46Z</time>
      </trkpt>
      <trkpt lat="47.06421" lon="-1.75439">
        <ele>77</ele>
        <time>2011-09-04T07:51:48Z</time>
      </trkpt>
      <trkpt lat="47.06422" lon="-1.75429">
        <ele>77</ele>
        <time>2011-09-04T07:51:50Z</time>
      </trkpt>
      <trkpt lat="47.06419" lon="-1.75418">
        <ele>76</ele>
        <time>2011-09-04T07:51:52Z</time>
      </trkpt>
      <trkpt lat="47.06413" lon="-1.75409">
        <ele>76</ele>
        <time>2011-09-04T07:51:54Z</time>
      </trkpt>
      <trkpt lat="47.06406" lon="-1.75401">
        <ele>76</ele>
        <time>2011-09-04T07:51:56Z</time>
      </trkpt>
      <trkpt lat="47.06402" lon="-1.75397">
        <ele>76</ele>
        <time>2011-09-04T07:51:57Z</time>
      </trkpt>
      <trkpt lat="47.06398" lon="-1.75392">
        <ele>76</ele>
        <time>2011-09-04T07:51:58Z</time>
      </trkpt>
      <trkpt lat="47.06394" lon="-1.75388">
        <ele>76</ele>
        <time>2011-09-04T07:51:59Z</time>
      </trkpt>
      <trkpt lat="47.0639" lon="-1.75383">
        <ele>76</ele>
        <time>2011-09-04T07:52:00Z</time>
      </trkpt>
      <trkpt lat="47.06386" lon="-1.75378">
        <ele>76</ele>
        <time>2011-09-04T07:52:01Z</time>
      </trkpt>
      <trkpt lat="47.06382" lon="-1.75374">
        <ele>76</ele>
        <time>2011-09-04T07:52:02Z</time>
      </trkpt>
      <trkpt lat="47.06378" lon="-1.75369">
        <ele>76</ele>
        <time>2011-09-04T07:52:03Z</time>
      </trkpt>
      <trkpt lat="47.06371" lon="-1.75361">
        <ele>77</ele>
        <time>2011-09-04T07:52:05Z</time>
      </trkpt>
      <trkpt lat="47.06363" lon="-1.75353">
        <ele>77</ele>
        <time>2011-09-04T07:52:07Z</time>
      </trkpt>
      <trkpt lat="47.06358" lon="-1.75348">
        <ele>77</ele>
        <time>2011-09-04T07:52:08Z</time>
      </trkpt>
      <trkpt lat="47.06354" lon="-1.75344">
        <ele>77</ele>
        <time>2011-09-04T07:52:09Z</time>
      </trkpt>
      <trkpt lat="47.0635" lon="-1.7534">
        <ele>77</ele>
        <time>2011-09-04T07:52:10Z</time>
      </trkpt>
      <trkpt lat="47.06346" lon="-1.75336">
        <ele>77</ele>
        <time>2011-09-04T07:52:11Z</time>
      </trkpt>
      <trkpt lat="47.06342" lon="-1.75332">
        <ele>77</ele>
        <time>2011-09-04T07:52:12Z</time>
      </trkpt>
      <trkpt lat="47.06338" lon="-1.75327">
        <ele>77</ele>
        <time>2011-09-04T07:52:13Z</time>
      </trkpt>
      <trkpt lat="47.06334" lon="-1.75324">
        <ele>77</ele>
        <time>2011-09-04T07:52:14Z</time>
      </trkpt>
      <trkpt lat="47.06326" lon="-1.75316">
        <ele>77</ele>
        <time>2011-09-04T07:52:16Z</time>
      </trkpt>
      <trkpt lat="47.06321" lon="-1.75312">
        <ele>77</ele>
        <time>2011-09-04T07:52:17Z</time>
      </trkpt>
      <trkpt lat="47.06317" lon="-1.75308">
        <ele>77</ele>
        <time>2011-09-04T07:52:18Z</time>
      </trkpt>
      <trkpt lat="47.06313" lon="-1.75304">
        <ele>77</ele>
        <time>2011-09-04T07:52:19Z</time>
      </trkpt>
      <trkpt lat="47.06304" lon="-1.75297">
        <ele>76</ele>
        <time>2011-09-04T07:52:21Z</time>
      </trkpt>
      <trkpt lat="47.063" lon="-1.75292">
        <ele>76</ele>
        <time>2011-09-04T07:52:22Z</time>
      </trkpt>
      <trkpt lat="47.06296" lon="-1.75288">
        <ele>76</ele>
        <time>2011-09-04T07:52:23Z</time>
      </trkpt>
      <trkpt lat="47.06292" lon="-1.75283">
        <ele>76</ele>
        <time>2011-09-04T07:52:24Z</time>
      </trkpt>
      <trkpt lat="47.06289" lon="-1.75277">
        <ele>76</ele>
        <time>2011-09-04T07:52:25Z</time>
      </trkpt>
      <trkpt lat="47.06285" lon="-1.75264">
        <ele>76</ele>
        <time>2011-09-04T07:52:27Z</time>
      </trkpt>
      <trkpt lat="47.06284" lon="-1.75257">
        <ele>76</ele>
        <time>2011-09-04T07:52:28Z</time>
      </trkpt>
      <trkpt lat="47.06284" lon="-1.7525">
        <ele>76</ele>
        <time>2011-09-04T07:52:29Z</time>
      </trkpt>
      <trkpt lat="47.06284" lon="-1.75242">
        <ele>76</ele>
        <time>2011-09-04T07:52:30Z</time>
      </trkpt>
      <trkpt lat="47.06284" lon="-1.75234">
        <ele>76</ele>
        <time>2011-09-04T07:52:31Z</time>
      </trkpt>
      <trkpt lat="47.06284" lon="-1.75226">
        <ele>75</ele>
        <time>2011-09-04T07:52:32Z</time>
      </trkpt>
      <trkpt lat="47.06284" lon="-1.75218">
        <ele>75</ele>
        <time>2011-09-04T07:52:33Z</time>
      </trkpt>
      <trkpt lat="47.06285" lon="-1.7521">
        <ele>75</ele>
        <time>2011-09-04T07:52:34Z</time>
      </trkpt>
      <trkpt lat="47.06285" lon="-1.75202">
        <ele>74</ele>
        <time>2011-09-04T07:52:35Z</time>
      </trkpt>
      <trkpt lat="47.06285" lon="-1.75193">
        <ele>74</ele>
        <time>2011-09-04T07:52:36Z</time>
      </trkpt>
      <trkpt lat="47.06285" lon="-1.75184">
        <ele>74</ele>
        <time>2011-09-04T07:52:37Z</time>
      </trkpt>
      <trkpt lat="47.06285" lon="-1.75176">
        <ele>73</ele>
        <time>2011-09-04T07:52:38Z</time>
      </trkpt>
      <trkpt lat="47.06286" lon="-1.75166">
        <ele>73</ele>
        <time>2011-09-04T07:52:39Z</time>
      </trkpt>
      <trkpt lat="47.06286" lon="-1.75158">
        <ele>72</ele>
        <time>2011-09-04T07:52:40Z</time>
      </trkpt>
      <trkpt lat="47.06287" lon="-1.75149">
        <ele>72</ele>
        <time>2011-09-04T07:52:41Z</time>
      </trkpt>
      <trkpt lat="47.06288" lon="-1.75141">
        <ele>72</ele>
        <time>2011-09-04T07:52:42Z</time>
      </trkpt>
      <trkpt lat="47.06289" lon="-1.75132">
        <ele>71</ele>
        <time>2011-09-04T07:52:43Z</time>
      </trkpt>
      <trkpt lat="47.06289" lon="-1.75122">
        <ele>71</ele>
        <time>2011-09-04T07:52:44Z</time>
      </trkpt>
      <trkpt lat="47.0629" lon="-1.75113">
        <ele>71</ele>
        <time>2011-09-04T07:52:45Z</time>
      </trkpt>
      <trkpt lat="47.06291" lon="-1.75104">
        <ele>70</ele>
        <time>2011-09-04T07:52:46Z</time>
      </trkpt>
      <trkpt lat="47.06291" lon="-1.75094">
        <ele>70</ele>
        <time>2011-09-04T07:52:47Z</time>
      </trkpt>
      <trkpt lat="47.06292" lon="-1.75084">
        <ele>70</ele>
        <time>2011-09-04T07:52:48Z</time>
      </trkpt>
      <trkpt lat="47.06292" lon="-1.75075">
        <ele>70</ele>
        <time>2011-09-04T07:52:49Z</time>
      </trkpt>
      <trkpt lat="47.06293" lon="-1.75064">
        <ele>69</ele>
        <time>2011-09-04T07:52:50Z</time>
      </trkpt>
      <trkpt lat="47.06293" lon="-1.75054">
        <ele>69</ele>
        <time>2011-09-04T07:52:51Z</time>
      </trkpt>
      <trkpt lat="47.06294" lon="-1.75045">
        <ele>69</ele>
        <time>2011-09-04T07:52:52Z</time>
      </trkpt>
      <trkpt lat="47.06293" lon="-1.75035">
        <ele>68</ele>
        <time>2011-09-04T07:52:53Z</time>
      </trkpt>
      <trkpt lat="47.06293" lon="-1.75024">
        <ele>68</ele>
        <time>2011-09-04T07:52:54Z</time>
      </trkpt>
      <trkpt lat="47.06293" lon="-1.75014">
        <ele>68</ele>
        <time>2011-09-04T07:52:55Z</time>
      </trkpt>
      <trkpt lat="47.06292" lon="-1.75002">
        <ele>67</ele>
        <time>2011-09-04T07:52:56Z</time>
      </trkpt>
      <trkpt lat="47.06292" lon="-1.7499">
        <ele>67</ele>
        <time>2011-09-04T07:52:57Z</time>
      </trkpt>
      <trkpt lat="47.06292" lon="-1.74979">
        <ele>67</ele>
        <time>2011-09-04T07:52:58Z</time>
      </trkpt>
      <trkpt lat="47.06292" lon="-1.74967">
        <ele>67</ele>
        <time>2011-09-04T07:52:59Z</time>
      </trkpt>
      <trkpt lat="47.06292" lon="-1.74957">
        <ele>67</ele>
        <time>2011-09-04T07:53:00Z</time>
      </trkpt>
      <trkpt lat="47.06293" lon="-1.74946">
        <ele>66</ele>
        <time>2011-09-04T07:53:01Z</time>
      </trkpt>
      <trkpt lat="47.06294" lon="-1.74937">
        <ele>66</ele>
        <time>2011-09-04T07:53:02Z</time>
      </trkpt>
      <trkpt lat="47.06294" lon="-1.74928">
        <ele>66</ele>
        <time>2011-09-04T07:53:03Z</time>
      </trkpt>
      <trkpt lat="47.06295" lon="-1.7492">
        <ele>66</ele>
        <time>2011-09-04T07:53:04Z</time>
      </trkpt>
      <trkpt lat="47.06296" lon="-1.7491">
        <ele>66</ele>
        <time>2011-09-04T07:53:05Z</time>
      </trkpt>
      <trkpt lat="47.06297" lon="-1.749">
        <ele>65</ele>
        <time>2011-09-04T07:53:06Z</time>
      </trkpt>
      <trkpt lat="47.06297" lon="-1.7489">
        <ele>65</ele>
        <time>2011-09-04T07:53:07Z</time>
      </trkpt>
      <trkpt lat="47.06298" lon="-1.7488">
        <ele>65</ele>
        <time>2011-09-04T07:53:08Z</time>
      </trkpt>
      <trkpt lat="47.06299" lon="-1.74871">
        <ele>64</ele>
        <time>2011-09-04T07:53:09Z</time>
      </trkpt>
      <trkpt lat="47.063" lon="-1.74862">
        <ele>63</ele>
        <time>2011-09-04T07:53:10Z</time>
      </trkpt>
      <trkpt lat="47.063" lon="-1.74852">
        <ele>63</ele>
        <time>2011-09-04T07:53:11Z</time>
      </trkpt>
      <trkpt lat="47.06302" lon="-1.74844">
        <ele>63</ele>
        <time>2011-09-04T07:53:12Z</time>
      </trkpt>
      <trkpt lat="47.06302" lon="-1.74836">
        <ele>63</ele>
        <time>2011-09-04T07:53:13Z</time>
      </trkpt>
      <trkpt lat="47.06303" lon="-1.74824">
        <ele>62</ele>
        <time>2011-09-04T07:53:15Z</time>
      </trkpt>
      <trkpt lat="47.06304" lon="-1.74816">
        <ele>62</ele>
        <time>2011-09-04T07:53:17Z</time>
      </trkpt>
      <trkpt lat="47.06306" lon="-1.74807">
        <ele>62</ele>
        <time>2011-09-04T07:53:20Z</time>
      </trkpt>
      <trkpt lat="47.06307" lon="-1.748">
        <ele>61</ele>
        <time>2011-09-04T07:53:23Z</time>
      </trkpt>
      <trkpt lat="47.06308" lon="-1.74792">
        <ele>60</ele>
        <time>2011-09-04T07:53:29Z</time>
      </trkpt>
      <trkpt lat="47.06306" lon="-1.74786">
        <ele>58</ele>
        <time>2011-09-04T07:53:36Z</time>
      </trkpt>
      <trkpt lat="47.06301" lon="-1.74788">
        <ele>55</ele>
        <time>2011-09-04T07:53:51Z</time>
      </trkpt>
      <trkpt lat="47.06301" lon="-1.74788">
        <ele>55</ele>
        <time>2011-09-04T07:53:51Z</time>
      </trkpt>
      <trkpt lat="47.06301" lon="-1.74788">
        <ele>54</ele>
        <time>2011-09-04T07:54:12Z</time>
      </trkpt>
      <trkpt lat="47.06307" lon="-1.74792">
        <ele>53</ele>
        <time>2011-09-04T07:57:17Z</time>
      </trkpt>
      <trkpt lat="47.06305" lon="-1.74785">
        <ele>53</ele>
        <time>2011-09-04T07:58:42Z</time>
      </trkpt>
      <trkpt lat="47.06305" lon="-1.74785">
        <ele>53</ele>
        <time>2011-09-04T07:58:42Z</time>
      </trkpt>
      <trkpt lat="47.06305" lon="-1.74785">
        <ele>53</ele>
        <time>2011-09-04T07:58:43Z</time>
      </trkpt>
      <trkpt lat="47.06301" lon="-1.74788">
        <ele>52</ele>
        <time>2011-09-04T07:58:57Z</time>
      </trkpt>
      <trkpt lat="47.06297" lon="-1.74797">
        <ele>56</ele>
        <time>2011-09-04T08:00:26Z</time>
      </trkpt>
      <trkpt lat="47.06302" lon="-1.74796">
        <ele>53</ele>
        <time>2011-09-04T08:01:14Z</time>
      </trkpt>
      <trkpt lat="47.06303" lon="-1.74787">
        <ele>54</ele>
        <time>2011-09-04T08:01:22Z</time>
      </trkpt>
      <trkpt lat="47.06294" lon="-1.74784">
        <ele>55</ele>
        <time>2011-09-04T08:02:09Z</time>
      </trkpt>
      <trkpt lat="47.06289" lon="-1.74785">
        <ele>56</ele>
        <time>2011-09-04T08:02:12Z</time>
      </trkpt>
      <trkpt lat="47.06284" lon="-1.74787">
        <ele>56</ele>
        <time>2011-09-04T08:02:14Z</time>
      </trkpt>
      <trkpt lat="47.06278" lon="-1.7479">
        <ele>57</ele>
        <time>2011-09-04T08:02:16Z</time>
      </trkpt>
      <trkpt lat="47.06273" lon="-1.74792">
        <ele>57</ele>
        <time>2011-09-04T08:02:18Z</time>
      </trkpt>
      <trkpt lat="47.06267" lon="-1.74792">
        <ele>57</ele>
        <time>2011-09-04T08:02:20Z</time>
      </trkpt>
      <trkpt lat="47.06259" lon="-1.74795">
        <ele>58</ele>
        <time>2011-09-04T08:02:22Z</time>
      </trkpt>
      <trkpt lat="47.06251" lon="-1.74798">
        <ele>58</ele>
        <time>2011-09-04T08:02:24Z</time>
      </trkpt>
      <trkpt lat="47.06245" lon="-1.74801">
        <ele>58</ele>
        <time>2011-09-04T08:02:26Z</time>
      </trkpt>
      <trkpt lat="47.06239" lon="-1.74803">
        <ele>58</ele>
        <time>2011-09-04T08:02:28Z</time>
      </trkpt>
      <trkpt lat="47.06232" lon="-1.74806">
        <ele>58</ele>
        <time>2011-09-04T08:02:30Z</time>
      </trkpt>
      <trkpt lat="47.06224" lon="-1.74809">
        <ele>58</ele>
        <time>2011-09-04T08:02:32Z</time>
      </trkpt>
      <trkpt lat="47.06217" lon="-1.7481">
        <ele>58</ele>
        <time>2011-09-04T08:02:34Z</time>
      </trkpt>
      <trkpt lat="47.06209" lon="-1.74809">
        <ele>58</ele>
        <time>2011-09-04T08:02:36Z</time>
      </trkpt>
      <trkpt lat="47.06203" lon="-1.74807">
        <ele>59</ele>
        <time>2011-09-04T08:02:38Z</time>
      </trkpt>
      <trkpt lat="47.06196" lon="-1.74806">
        <ele>59</ele>
        <time>2011-09-04T08:02:40Z</time>
      </trkpt>
      <trkpt lat="47.0619" lon="-1.74804">
        <ele>59</ele>
        <time>2011-09-04T08:02:42Z</time>
      </trkpt>
      <trkpt lat="47.06185" lon="-1.748">
        <ele>59</ele>
        <time>2011-09-04T08:02:44Z</time>
      </trkpt>
      <trkpt lat="47.06178" lon="-1.74796">
        <ele>59</ele>
        <time>2011-09-04T08:02:46Z</time>
      </trkpt>
      <trkpt lat="47.0617" lon="-1.74792">
        <ele>59</ele>
        <time>2011-09-04T08:02:48Z</time>
      </trkpt>
      <trkpt lat="47.06163" lon="-1.74786">
        <ele>59</ele>
        <time>2011-09-04T08:02:50Z</time>
      </trkpt>
      <trkpt lat="47.06156" lon="-1.74779">
        <ele>59</ele>
        <time>2011-09-04T08:02:52Z</time>
      </trkpt>
      <trkpt lat="47.06151" lon="-1.74775">
        <ele>59</ele>
        <time>2011-09-04T08:02:53Z</time>
      </trkpt>
      <trkpt lat="47.06143" lon="-1.74769">
        <ele>60</ele>
        <time>2011-09-04T08:02:55Z</time>
      </trkpt>
      <trkpt lat="47.06138" lon="-1.74766">
        <ele>60</ele>
        <time>2011-09-04T08:02:56Z</time>
      </trkpt>
      <trkpt lat="47.06132" lon="-1.74764">
        <ele>60</ele>
        <time>2011-09-04T08:02:57Z</time>
      </trkpt>
      <trkpt lat="47.06124" lon="-1.74761">
        <ele>61</ele>
        <time>2011-09-04T08:02:59Z</time>
      </trkpt>
      <trkpt lat="47.06116" lon="-1.74762">
        <ele>61</ele>
        <time>2011-09-04T08:03:01Z</time>
      </trkpt>
      <trkpt lat="47.06108" lon="-1.7476">
        <ele>61</ele>
        <time>2011-09-04T08:03:03Z</time>
      </trkpt>
      <trkpt lat="47.06103" lon="-1.74759">
        <ele>62</ele>
        <time>2011-09-04T08:03:04Z</time>
      </trkpt>
      <trkpt lat="47.06094" lon="-1.7476">
        <ele>62</ele>
        <time>2011-09-04T08:03:06Z</time>
      </trkpt>
      <trkpt lat="47.06088" lon="-1.7476">
        <ele>62</ele>
        <time>2011-09-04T08:03:07Z</time>
      </trkpt>
      <trkpt lat="47.06083" lon="-1.74759">
        <ele>62</ele>
        <time>2011-09-04T08:03:08Z</time>
      </trkpt>
      <trkpt lat="47.06077" lon="-1.74758">
        <ele>62</ele>
        <time>2011-09-04T08:03:09Z</time>
      </trkpt>
      <trkpt lat="47.06072" lon="-1.74758">
        <ele>62</ele>
        <time>2011-09-04T08:03:10Z</time>
      </trkpt>
      <trkpt lat="47.06064" lon="-1.74755">
        <ele>62</ele>
        <time>2011-09-04T08:03:12Z</time>
      </trkpt>
      <trkpt lat="47.06059" lon="-1.74756">
        <ele>62</ele>
        <time>2011-09-04T08:03:13Z</time>
      </trkpt>
      <trkpt lat="47.06051" lon="-1.74754">
        <ele>63</ele>
        <time>2011-09-04T08:03:15Z</time>
      </trkpt>
      <trkpt lat="47.06046" lon="-1.74754">
        <ele>62</ele>
        <time>2011-09-04T08:03:16Z</time>
      </trkpt>
      <trkpt lat="47.06041" lon="-1.74753">
        <ele>63</ele>
        <time>2011-09-04T08:03:17Z</time>
      </trkpt>
      <trkpt lat="47.06032" lon="-1.74752">
        <ele>62</ele>
        <time>2011-09-04T08:03:19Z</time>
      </trkpt>
      <trkpt lat="47.06027" lon="-1.74753">
        <ele>62</ele>
        <time>2011-09-04T08:03:20Z</time>
      </trkpt>
      <trkpt lat="47.06018" lon="-1.74755">
        <ele>61</ele>
        <time>2011-09-04T08:03:22Z</time>
      </trkpt>
      <trkpt lat="47.06009" lon="-1.74757">
        <ele>61</ele>
        <time>2011-09-04T08:03:24Z</time>
      </trkpt>
      <trkpt lat="47.06001" lon="-1.74758">
        <ele>61</ele>
        <time>2011-09-04T08:03:26Z</time>
      </trkpt>
      <trkpt lat="47.05992" lon="-1.7476">
        <ele>61</ele>
        <time>2011-09-04T08:03:28Z</time>
      </trkpt>
      <trkpt lat="47.05985" lon="-1.74763">
        <ele>61</ele>
        <time>2011-09-04T08:03:30Z</time>
      </trkpt>
      <trkpt lat="47.05979" lon="-1.74766">
        <ele>61</ele>
        <time>2011-09-04T08:03:32Z</time>
      </trkpt>
      <trkpt lat="47.05974" lon="-1.74768">
        <ele>61</ele>
        <time>2011-09-04T08:03:33Z</time>
      </trkpt>
      <trkpt lat="47.05967" lon="-1.7477">
        <ele>62</ele>
        <time>2011-09-04T08:03:35Z</time>
      </trkpt>
      <trkpt lat="47.05959" lon="-1.7477">
        <ele>61</ele>
        <time>2011-09-04T08:03:37Z</time>
      </trkpt>
      <trkpt lat="47.05953" lon="-1.74772">
        <ele>62</ele>
        <time>2011-09-04T08:03:38Z</time>
      </trkpt>
      <trkpt lat="47.05945" lon="-1.74776">
        <ele>61</ele>
        <time>2011-09-04T08:03:40Z</time>
      </trkpt>
      <trkpt lat="47.0594" lon="-1.74778">
        <ele>61</ele>
        <time>2011-09-04T08:03:41Z</time>
      </trkpt>
      <trkpt lat="47.05935" lon="-1.74781">
        <ele>61</ele>
        <time>2011-09-04T08:03:42Z</time>
      </trkpt>
      <trkpt lat="47.0593" lon="-1.74784">
        <ele>61</ele>
        <time>2011-09-04T08:03:43Z</time>
      </trkpt>
      <trkpt lat="47.05925" lon="-1.74788">
        <ele>61</ele>
        <time>2011-09-04T08:03:44Z</time>
      </trkpt>
      <trkpt lat="47.0592" lon="-1.7479">
        <ele>61</ele>
        <time>2011-09-04T08:03:45Z</time>
      </trkpt>
      <trkpt lat="47.05911" lon="-1.74796">
        <ele>61</ele>
        <time>2011-09-04T08:03:47Z</time>
      </trkpt>
      <trkpt lat="47.05907" lon="-1.74798">
        <ele>61</ele>
        <time>2011-09-04T08:03:48Z</time>
      </trkpt>
      <trkpt lat="47.05902" lon="-1.74801">
        <ele>62</ele>
        <time>2011-09-04T08:03:49Z</time>
      </trkpt>
      <trkpt lat="47.05898" lon="-1.74803">
        <ele>62</ele>
        <time>2011-09-04T08:03:50Z</time>
      </trkpt>
      <trkpt lat="47.05889" lon="-1.74806">
        <ele>62</ele>
        <time>2011-09-04T08:03:52Z</time>
      </trkpt>
      <trkpt lat="47.0588" lon="-1.7481">
        <ele>62</ele>
        <time>2011-09-04T08:03:54Z</time>
      </trkpt>
      <trkpt lat="47.05872" lon="-1.74813">
        <ele>62</ele>
        <time>2011-09-04T08:03:56Z</time>
      </trkpt>
      <trkpt lat="47.05862" lon="-1.74815">
        <ele>63</ele>
        <time>2011-09-04T08:03:58Z</time>
      </trkpt>
      <trkpt lat="47.05857" lon="-1.74816">
        <ele>63</ele>
        <time>2011-09-04T08:03:59Z</time>
      </trkpt>
      <trkpt lat="47.05851" lon="-1.74818">
        <ele>64</ele>
        <time>2011-09-04T08:04:00Z</time>
      </trkpt>
      <trkpt lat="47.05845" lon="-1.7482">
        <ele>64</ele>
        <time>2011-09-04T08:04:01Z</time>
      </trkpt>
      <trkpt lat="47.0584" lon="-1.74822">
        <ele>65</ele>
        <time>2011-09-04T08:04:02Z</time>
      </trkpt>
      <trkpt lat="47.05835" lon="-1.74823">
        <ele>65</ele>
        <time>2011-09-04T08:04:03Z</time>
      </trkpt>
      <trkpt lat="47.05826" lon="-1.74825">
        <ele>66</ele>
        <time>2011-09-04T08:04:05Z</time>
      </trkpt>
      <trkpt lat="47.0582" lon="-1.74825">
        <ele>66</ele>
        <time>2011-09-04T08:04:06Z</time>
      </trkpt>
      <trkpt lat="47.05813" lon="-1.74828">
        <ele>67</ele>
        <time>2011-09-04T08:04:08Z</time>
      </trkpt>
      <trkpt lat="47.05808" lon="-1.7483">
        <ele>67</ele>
        <time>2011-09-04T08:04:09Z</time>
      </trkpt>
      <trkpt lat="47.05802" lon="-1.7483">
        <ele>67</ele>
        <time>2011-09-04T08:04:10Z</time>
      </trkpt>
      <trkpt lat="47.05797" lon="-1.74831">
        <ele>67</ele>
        <time>2011-09-04T08:04:11Z</time>
      </trkpt>
      <trkpt lat="47.05792" lon="-1.74832">
        <ele>66</ele>
        <time>2011-09-04T08:04:12Z</time>
      </trkpt>
      <trkpt lat="47.05783" lon="-1.74836">
        <ele>66</ele>
        <time>2011-09-04T08:04:14Z</time>
      </trkpt>
      <trkpt lat="47.05775" lon="-1.74838">
        <ele>65</ele>
        <time>2011-09-04T08:04:16Z</time>
      </trkpt>
      <trkpt lat="47.05768" lon="-1.74839">
        <ele>65</ele>
        <time>2011-09-04T08:04:18Z</time>
      </trkpt>
      <trkpt lat="47.05761" lon="-1.74841">
        <ele>65</ele>
        <time>2011-09-04T08:04:20Z</time>
      </trkpt>
      <trkpt lat="47.05757" lon="-1.74844">
        <ele>65</ele>
        <time>2011-09-04T08:04:21Z</time>
      </trkpt>
      <trkpt lat="47.05749" lon="-1.74848">
        <ele>66</ele>
        <time>2011-09-04T08:04:23Z</time>
      </trkpt>
      <trkpt lat="47.05742" lon="-1.74851">
        <ele>65</ele>
        <time>2011-09-04T08:04:25Z</time>
      </trkpt>
      <trkpt lat="47.05736" lon="-1.74855">
        <ele>66</ele>
        <time>2011-09-04T08:04:27Z</time>
      </trkpt>
      <trkpt lat="47.05728" lon="-1.74857">
        <ele>66</ele>
        <time>2011-09-04T08:04:29Z</time>
      </trkpt>
      <trkpt lat="47.05718" lon="-1.74859">
        <ele>67</ele>
        <time>2011-09-04T08:04:31Z</time>
      </trkpt>
      <trkpt lat="47.05714" lon="-1.7486">
        <ele>67</ele>
        <time>2011-09-04T08:04:32Z</time>
      </trkpt>
      <trkpt lat="47.05706" lon="-1.7486">
        <ele>66</ele>
        <time>2011-09-04T08:04:34Z</time>
      </trkpt>
      <trkpt lat="47.05696" lon="-1.74858">
        <ele>65</ele>
        <time>2011-09-04T08:04:36Z</time>
      </trkpt>
      <trkpt lat="47.05692" lon="-1.7486">
        <ele>66</ele>
        <time>2011-09-04T08:04:37Z</time>
      </trkpt>
      <trkpt lat="47.05687" lon="-1.74861">
        <ele>66</ele>
        <time>2011-09-04T08:04:38Z</time>
      </trkpt>
      <trkpt lat="47.05678" lon="-1.74861">
        <ele>67</ele>
        <time>2011-09-04T08:04:40Z</time>
      </trkpt>
      <trkpt lat="47.0567" lon="-1.7486">
        <ele>67</ele>
        <time>2011-09-04T08:04:42Z</time>
      </trkpt>
      <trkpt lat="47.05665" lon="-1.74861">
        <ele>67</ele>
        <time>2011-09-04T08:04:43Z</time>
      </trkpt>
      <trkpt lat="47.05657" lon="-1.74858">
        <ele>67</ele>
        <time>2011-09-04T08:04:45Z</time>
      </trkpt>
      <trkpt lat="47.0565" lon="-1.74856">
        <ele>67</ele>
        <time>2011-09-04T08:04:47Z</time>
      </trkpt>
      <trkpt lat="47.05644" lon="-1.74853">
        <ele>68</ele>
        <time>2011-09-04T08:04:49Z</time>
      </trkpt>
      <trkpt lat="47.05639" lon="-1.74851">
        <ele>68</ele>
        <time>2011-09-04T08:04:51Z</time>
      </trkpt>
      <trkpt lat="47.05632" lon="-1.74849">
        <ele>68</ele>
        <time>2011-09-04T08:04:53Z</time>
      </trkpt>
      <trkpt lat="47.05627" lon="-1.74848">
        <ele>69</ele>
        <time>2011-09-04T08:04:54Z</time>
      </trkpt>
      <trkpt lat="47.05622" lon="-1.74847">
        <ele>69</ele>
        <time>2011-09-04T08:04:55Z</time>
      </trkpt>
      <trkpt lat="47.05617" lon="-1.74848">
        <ele>69</ele>
        <time>2011-09-04T08:04:56Z</time>
      </trkpt>
      <trkpt lat="47.05611" lon="-1.74848">
        <ele>69</ele>
        <time>2011-09-04T08:04:58Z</time>
      </trkpt>
      <trkpt lat="47.05606" lon="-1.74853">
        <ele>70</ele>
        <time>2011-09-04T08:05:00Z</time>
      </trkpt>
      <trkpt lat="47.05601" lon="-1.74858">
        <ele>71</ele>
        <time>2011-09-04T08:05:02Z</time>
      </trkpt>
      <trkpt lat="47.05597" lon="-1.74865">
        <ele>71</ele>
        <time>2011-09-04T08:05:04Z</time>
      </trkpt>
      <trkpt lat="47.05593" lon="-1.74874">
        <ele>72</ele>
        <time>2011-09-04T08:05:06Z</time>
      </trkpt>
      <trkpt lat="47.05591" lon="-1.74882">
        <ele>73</ele>
        <time>2011-09-04T08:05:08Z</time>
      </trkpt>
      <trkpt lat="47.05588" lon="-1.74891">
        <ele>73</ele>
        <time>2011-09-04T08:05:10Z</time>
      </trkpt>
      <trkpt lat="47.05585" lon="-1.749">
        <ele>74</ele>
        <time>2011-09-04T08:05:12Z</time>
      </trkpt>
      <trkpt lat="47.05583" lon="-1.74908">
        <ele>75</ele>
        <time>2011-09-04T08:05:15Z</time>
      </trkpt>
      <trkpt lat="47.05583" lon="-1.74917">
        <ele>74</ele>
        <time>2011-09-04T08:05:18Z</time>
      </trkpt>
      <trkpt lat="47.05582" lon="-1.74923">
        <ele>73</ele>
        <time>2011-09-04T08:05:20Z</time>
      </trkpt>
      <trkpt lat="47.05582" lon="-1.74932">
        <ele>72</ele>
        <time>2011-09-04T08:05:23Z</time>
      </trkpt>
      <trkpt lat="47.0558" lon="-1.74942">
        <ele>71</ele>
        <time>2011-09-04T08:05:25Z</time>
      </trkpt>
      <trkpt lat="47.05578" lon="-1.7495">
        <ele>71</ele>
        <time>2011-09-04T08:05:28Z</time>
      </trkpt>
      <trkpt lat="47.05575" lon="-1.74957">
        <ele>71</ele>
        <time>2011-09-04T08:05:32Z</time>
      </trkpt>
      <trkpt lat="47.05572" lon="-1.74964">
        <ele>71</ele>
        <time>2011-09-04T08:05:36Z</time>
      </trkpt>
      <trkpt lat="47.05571" lon="-1.74972">
        <ele>70</ele>
        <time>2011-09-04T08:05:41Z</time>
      </trkpt>
      <trkpt lat="47.05571" lon="-1.7498">
        <ele>70</ele>
        <time>2011-09-04T08:05:44Z</time>
      </trkpt>
      <trkpt lat="47.05569" lon="-1.74987">
        <ele>70</ele>
        <time>2011-09-04T08:05:47Z</time>
      </trkpt>
      <trkpt lat="47.05567" lon="-1.74994">
        <ele>70</ele>
        <time>2011-09-04T08:05:49Z</time>
      </trkpt>
      <trkpt lat="47.05564" lon="-1.75002">
        <ele>70</ele>
        <time>2011-09-04T08:05:51Z</time>
      </trkpt>
      <trkpt lat="47.05562" lon="-1.75011">
        <ele>70</ele>
        <time>2011-09-04T08:05:54Z</time>
      </trkpt>
      <trkpt lat="47.0556" lon="-1.75019">
        <ele>70</ele>
        <time>2011-09-04T08:05:56Z</time>
      </trkpt>
      <trkpt lat="47.05558" lon="-1.75025">
        <ele>71</ele>
        <time>2011-09-04T08:05:58Z</time>
      </trkpt>
      <trkpt lat="47.05557" lon="-1.75032">
        <ele>71</ele>
        <time>2011-09-04T08:06:00Z</time>
      </trkpt>
      <trkpt lat="47.05555" lon="-1.75038">
        <ele>72</ele>
        <time>2011-09-04T08:06:02Z</time>
      </trkpt>
      <trkpt lat="47.05554" lon="-1.75045">
        <ele>72</ele>
        <time>2011-09-04T08:06:04Z</time>
      </trkpt>
      <trkpt lat="47.05553" lon="-1.75052">
        <ele>73</ele>
        <time>2011-09-04T08:06:06Z</time>
      </trkpt>
      <trkpt lat="47.05551" lon="-1.75061">
        <ele>73</ele>
        <time>2011-09-04T08:06:09Z</time>
      </trkpt>
      <trkpt lat="47.0555" lon="-1.7507">
        <ele>73</ele>
        <time>2011-09-04T08:06:12Z</time>
      </trkpt>
      <trkpt lat="47.05549" lon="-1.75077">
        <ele>74</ele>
        <time>2011-09-04T08:06:14Z</time>
      </trkpt>
      <trkpt lat="47.05548" lon="-1.75085">
        <ele>73</ele>
        <time>2011-09-04T08:06:16Z</time>
      </trkpt>
      <trkpt lat="47.05547" lon="-1.75094">
        <ele>73</ele>
        <time>2011-09-04T08:06:18Z</time>
      </trkpt>
      <trkpt lat="47.05547" lon="-1.75103">
        <ele>72</ele>
        <time>2011-09-04T08:06:20Z</time>
      </trkpt>
      <trkpt lat="47.05548" lon="-1.75111">
        <ele>71</ele>
        <time>2011-09-04T08:06:22Z</time>
      </trkpt>
      <trkpt lat="47.05548" lon="-1.75118">
        <ele>71</ele>
        <time>2011-09-04T08:06:24Z</time>
      </trkpt>
      <trkpt lat="47.05549" lon="-1.75126">
        <ele>71</ele>
        <time>2011-09-04T08:06:26Z</time>
      </trkpt>
      <trkpt lat="47.05551" lon="-1.75133">
        <ele>71</ele>
        <time>2011-09-04T08:06:28Z</time>
      </trkpt>
      <trkpt lat="47.05553" lon="-1.75141">
        <ele>71</ele>
        <time>2011-09-04T08:06:30Z</time>
      </trkpt>
      <trkpt lat="47.05555" lon="-1.7515">
        <ele>70</ele>
        <time>2011-09-04T08:06:32Z</time>
      </trkpt>
      <trkpt lat="47.05558" lon="-1.75161">
        <ele>71</ele>
        <time>2011-09-04T08:06:34Z</time>
      </trkpt>
      <trkpt lat="47.0556" lon="-1.75171">
        <ele>70</ele>
        <time>2011-09-04T08:06:36Z</time>
      </trkpt>
      <trkpt lat="47.05562" lon="-1.75182">
        <ele>71</ele>
        <time>2011-09-04T08:06:38Z</time>
      </trkpt>
      <trkpt lat="47.05564" lon="-1.75193">
        <ele>71</ele>
        <time>2011-09-04T08:06:40Z</time>
      </trkpt>
      <trkpt lat="47.05566" lon="-1.752">
        <ele>70</ele>
        <time>2011-09-04T08:06:41Z</time>
      </trkpt>
      <trkpt lat="47.05568" lon="-1.75212">
        <ele>70</ele>
        <time>2011-09-04T08:06:43Z</time>
      </trkpt>
      <trkpt lat="47.05569" lon="-1.75218">
        <ele>70</ele>
        <time>2011-09-04T08:06:44Z</time>
      </trkpt>
      <trkpt lat="47.05572" lon="-1.75231">
        <ele>70</ele>
        <time>2011-09-04T08:06:46Z</time>
      </trkpt>
      <trkpt lat="47.05573" lon="-1.75238">
        <ele>70</ele>
        <time>2011-09-04T08:06:47Z</time>
      </trkpt>
      <trkpt lat="47.05574" lon="-1.75244">
        <ele>70</ele>
        <time>2011-09-04T08:06:48Z</time>
      </trkpt>
      <trkpt lat="47.05576" lon="-1.75251">
        <ele>70</ele>
        <time>2011-09-04T08:06:49Z</time>
      </trkpt>
      <trkpt lat="47.05577" lon="-1.75257">
        <ele>70</ele>
        <time>2011-09-04T08:06:50Z</time>
      </trkpt>
      <trkpt lat="47.05578" lon="-1.75264">
        <ele>70</ele>
        <time>2011-09-04T08:06:51Z</time>
      </trkpt>
      <trkpt lat="47.05579" lon="-1.7527">
        <ele>70</ele>
        <time>2011-09-04T08:06:52Z</time>
      </trkpt>
      <trkpt lat="47.0558" lon="-1.75278">
        <ele>70</ele>
        <time>2011-09-04T08:06:53Z</time>
      </trkpt>
      <trkpt lat="47.05582" lon="-1.75285">
        <ele>70</ele>
        <time>2011-09-04T08:06:54Z</time>
      </trkpt>
      <trkpt lat="47.05583" lon="-1.75292">
        <ele>70</ele>
        <time>2011-09-04T08:06:55Z</time>
      </trkpt>
      <trkpt lat="47.05585" lon="-1.75299">
        <ele>70</ele>
        <time>2011-09-04T08:06:56Z</time>
      </trkpt>
      <trkpt lat="47.05585" lon="-1.75306">
        <ele>70</ele>
        <time>2011-09-04T08:06:57Z</time>
      </trkpt>
      <trkpt lat="47.05586" lon="-1.75314">
        <ele>70</ele>
        <time>2011-09-04T08:06:58Z</time>
      </trkpt>
      <trkpt lat="47.05587" lon="-1.75322">
        <ele>70</ele>
        <time>2011-09-04T08:06:59Z</time>
      </trkpt>
      <trkpt lat="47.05588" lon="-1.75329">
        <ele>70</ele>
        <time>2011-09-04T08:07:00Z</time>
      </trkpt>
      <trkpt lat="47.05589" lon="-1.75336">
        <ele>70</ele>
        <time>2011-09-04T08:07:01Z</time>
      </trkpt>
      <trkpt lat="47.05589" lon="-1.75344">
        <ele>70</ele>
        <time>2011-09-04T08:07:02Z</time>
      </trkpt>
      <trkpt lat="47.05589" lon="-1.75352">
        <ele>70</ele>
        <time>2011-09-04T08:07:03Z</time>
      </trkpt>
      <trkpt lat="47.0559" lon="-1.7536">
        <ele>70</ele>
        <time>2011-09-04T08:07:04Z</time>
      </trkpt>
      <trkpt lat="47.0559" lon="-1.75368">
        <ele>70</ele>
        <time>2011-09-04T08:07:05Z</time>
      </trkpt>
      <trkpt lat="47.0559" lon="-1.75375">
        <ele>70</ele>
        <time>2011-09-04T08:07:06Z</time>
      </trkpt>
      <trkpt lat="47.0559" lon="-1.75383">
        <ele>70</ele>
        <time>2011-09-04T08:07:07Z</time>
      </trkpt>
      <trkpt lat="47.05591" lon="-1.7539">
        <ele>70</ele>
        <time>2011-09-04T08:07:08Z</time>
      </trkpt>
      <trkpt lat="47.05592" lon="-1.75398">
        <ele>69</ele>
        <time>2011-09-04T08:07:09Z</time>
      </trkpt>
      <trkpt lat="47.05592" lon="-1.75406">
        <ele>69</ele>
        <time>2011-09-04T08:07:10Z</time>
      </trkpt>
      <trkpt lat="47.05592" lon="-1.75414">
        <ele>69</ele>
        <time>2011-09-04T08:07:11Z</time>
      </trkpt>
      <trkpt lat="47.05592" lon="-1.75421">
        <ele>69</ele>
        <time>2011-09-04T08:07:12Z</time>
      </trkpt>
      <trkpt lat="47.05592" lon="-1.75428">
        <ele>69</ele>
        <time>2011-09-04T08:07:13Z</time>
      </trkpt>
      <trkpt lat="47.05592" lon="-1.75436">
        <ele>69</ele>
        <time>2011-09-04T08:07:14Z</time>
      </trkpt>
      <trkpt lat="47.05592" lon="-1.75444">
        <ele>69</ele>
        <time>2011-09-04T08:07:15Z</time>
      </trkpt>
      <trkpt lat="47.05592" lon="-1.75451">
        <ele>69</ele>
        <time>2011-09-04T08:07:16Z</time>
      </trkpt>
      <trkpt lat="47.05592" lon="-1.75458">
        <ele>69</ele>
        <time>2011-09-04T08:07:17Z</time>
      </trkpt>
      <trkpt lat="47.05592" lon="-1.75465">
        <ele>69</ele>
        <time>2011-09-04T08:07:18Z</time>
      </trkpt>
      <trkpt lat="47.05592" lon="-1.75472">
        <ele>69</ele>
        <time>2011-09-04T08:07:19Z</time>
      </trkpt>
      <trkpt lat="47.05592" lon="-1.75484">
        <ele>70</ele>
        <time>2011-09-04T08:07:21Z</time>
      </trkpt>
      <trkpt lat="47.05592" lon="-1.75497">
        <ele>70</ele>
        <time>2011-09-04T08:07:23Z</time>
      </trkpt>
      <trkpt lat="47.05591" lon="-1.75507">
        <ele>71</ele>
        <time>2011-09-04T08:07:25Z</time>
      </trkpt>
      <trkpt lat="47.05589" lon="-1.75517">
        <ele>71</ele>
        <time>2011-09-04T08:07:27Z</time>
      </trkpt>
      <trkpt lat="47.05589" lon="-1.75526">
        <ele>71</ele>
        <time>2011-09-04T08:07:29Z</time>
      </trkpt>
      <trkpt lat="47.0559" lon="-1.75535">
        <ele>71</ele>
        <time>2011-09-04T08:07:31Z</time>
      </trkpt>
      <trkpt lat="47.0559" lon="-1.75545">
        <ele>71</ele>
        <time>2011-09-04T08:07:33Z</time>
      </trkpt>
      <trkpt lat="47.05591" lon="-1.75552">
        <ele>71</ele>
        <time>2011-09-04T08:07:35Z</time>
      </trkpt>
      <trkpt lat="47.05591" lon="-1.75559">
        <ele>70</ele>
        <time>2011-09-04T08:07:37Z</time>
      </trkpt>
      <trkpt lat="47.05593" lon="-1.75568">
        <ele>70</ele>
        <time>2011-09-04T08:07:39Z</time>
      </trkpt>
      <trkpt lat="47.05594" lon="-1.75575">
        <ele>70</ele>
        <time>2011-09-04T08:07:40Z</time>
      </trkpt>
      <trkpt lat="47.05595" lon="-1.75581">
        <ele>70</ele>
        <time>2011-09-04T08:07:41Z</time>
      </trkpt>
      <trkpt lat="47.05596" lon="-1.75588">
        <ele>70</ele>
        <time>2011-09-04T08:07:42Z</time>
      </trkpt>
      <trkpt lat="47.05598" lon="-1.75596">
        <ele>70</ele>
        <time>2011-09-04T08:07:43Z</time>
      </trkpt>
      <trkpt lat="47.056" lon="-1.75604">
        <ele>70</ele>
        <time>2011-09-04T08:07:44Z</time>
      </trkpt>
      <trkpt lat="47.05602" lon="-1.75612">
        <ele>70</ele>
        <time>2011-09-04T08:07:45Z</time>
      </trkpt>
      <trkpt lat="47.05602" lon="-1.75621">
        <ele>70</ele>
        <time>2011-09-04T08:07:46Z</time>
      </trkpt>
      <trkpt lat="47.05602" lon="-1.75628">
        <ele>70</ele>
        <time>2011-09-04T08:07:47Z</time>
      </trkpt>
      <trkpt lat="47.05599" lon="-1.75636">
        <ele>70</ele>
        <time>2011-09-04T08:07:48Z</time>
      </trkpt>
      <trkpt lat="47.05596" lon="-1.75641">
        <ele>70</ele>
        <time>2011-09-04T08:07:49Z</time>
      </trkpt>
      <trkpt lat="47.05592" lon="-1.75645">
        <ele>70</ele>
        <time>2011-09-04T08:07:50Z</time>
      </trkpt>
      <trkpt lat="47.05587" lon="-1.75647">
        <ele>70</ele>
        <time>2011-09-04T08:07:51Z</time>
      </trkpt>
      <trkpt lat="47.05582" lon="-1.75648">
        <ele>70</ele>
        <time>2011-09-04T08:07:52Z</time>
      </trkpt>
      <trkpt lat="47.05577" lon="-1.75648">
        <ele>70</ele>
        <time>2011-09-04T08:07:53Z</time>
      </trkpt>
      <trkpt lat="47.05572" lon="-1.75648">
        <ele>69</ele>
        <time>2011-09-04T08:07:54Z</time>
      </trkpt>
      <trkpt lat="47.05567" lon="-1.75648">
        <ele>69</ele>
        <time>2011-09-04T08:07:55Z</time>
      </trkpt>
      <trkpt lat="47.05562" lon="-1.75648">
        <ele>69</ele>
        <time>2011-09-04T08:07:56Z</time>
      </trkpt>
      <trkpt lat="47.05557" lon="-1.75648">
        <ele>69</ele>
        <time>2011-09-04T08:07:57Z</time>
      </trkpt>
      <trkpt lat="47.05552" lon="-1.75648">
        <ele>69</ele>
        <time>2011-09-04T08:07:58Z</time>
      </trkpt>
      <trkpt lat="47.05546" lon="-1.75648">
        <ele>69</ele>
        <time>2011-09-04T08:07:59Z</time>
      </trkpt>
      <trkpt lat="47.05541" lon="-1.75649">
        <ele>69</ele>
        <time>2011-09-04T08:08:00Z</time>
      </trkpt>
      <trkpt lat="47.05535" lon="-1.75649">
        <ele>69</ele>
        <time>2011-09-04T08:08:01Z</time>
      </trkpt>
      <trkpt lat="47.05529" lon="-1.75649">
        <ele>68</ele>
        <time>2011-09-04T08:08:02Z</time>
      </trkpt>
      <trkpt lat="47.05523" lon="-1.75648">
        <ele>68</ele>
        <time>2011-09-04T08:08:03Z</time>
      </trkpt>
      <trkpt lat="47.05517" lon="-1.75648">
        <ele>68</ele>
        <time>2011-09-04T08:08:04Z</time>
      </trkpt>
      <trkpt lat="47.0551" lon="-1.75647">
        <ele>68</ele>
        <time>2011-09-04T08:08:05Z</time>
      </trkpt>
      <trkpt lat="47.05503" lon="-1.75646">
        <ele>67</ele>
        <time>2011-09-04T08:08:06Z</time>
      </trkpt>
      <trkpt lat="47.05496" lon="-1.75644">
        <ele>67</ele>
        <time>2011-09-04T08:08:07Z</time>
      </trkpt>
      <trkpt lat="47.05488" lon="-1.75643">
        <ele>67</ele>
        <time>2011-09-04T08:08:08Z</time>
      </trkpt>
      <trkpt lat="47.0548" lon="-1.75642">
        <ele>66</ele>
        <time>2011-09-04T08:08:09Z</time>
      </trkpt>
      <trkpt lat="47.05473" lon="-1.7564">
        <ele>66</ele>
        <time>2011-09-04T08:08:10Z</time>
      </trkpt>
      <trkpt lat="47.05465" lon="-1.75639">
        <ele>66</ele>
        <time>2011-09-04T08:08:11Z</time>
      </trkpt>
      <trkpt lat="47.05459" lon="-1.75637">
        <ele>67</ele>
        <time>2011-09-04T08:08:12Z</time>
      </trkpt>
      <trkpt lat="47.05452" lon="-1.75635">
        <ele>66</ele>
        <time>2011-09-04T08:08:13Z</time>
      </trkpt>
      <trkpt lat="47.05446" lon="-1.75632">
        <ele>66</ele>
        <time>2011-09-04T08:08:14Z</time>
      </trkpt>
      <trkpt lat="47.05437" lon="-1.75628">
        <ele>67</ele>
        <time>2011-09-04T08:08:16Z</time>
      </trkpt>
      <trkpt lat="47.05432" lon="-1.75625">
        <ele>67</ele>
        <time>2011-09-04T08:08:17Z</time>
      </trkpt>
      <trkpt lat="47.05423" lon="-1.75623">
        <ele>67</ele>
        <time>2011-09-04T08:08:19Z</time>
      </trkpt>
      <trkpt lat="47.05415" lon="-1.75622">
        <ele>67</ele>
        <time>2011-09-04T08:08:21Z</time>
      </trkpt>
      <trkpt lat="47.05407" lon="-1.75619">
        <ele>67</ele>
        <time>2011-09-04T08:08:23Z</time>
      </trkpt>
      <trkpt lat="47.054" lon="-1.75618">
        <ele>68</ele>
        <time>2011-09-04T08:08:25Z</time>
      </trkpt>
      <trkpt lat="47.05392" lon="-1.75616">
        <ele>68</ele>
        <time>2011-09-04T08:08:27Z</time>
      </trkpt>
      <trkpt lat="47.05384" lon="-1.75614">
        <ele>68</ele>
        <time>2011-09-04T08:08:29Z</time>
      </trkpt>
      <trkpt lat="47.05377" lon="-1.75613">
        <ele>68</ele>
        <time>2011-09-04T08:08:31Z</time>
      </trkpt>
      <trkpt lat="47.05369" lon="-1.75612">
        <ele>68</ele>
        <time>2011-09-04T08:08:33Z</time>
      </trkpt>
      <trkpt lat="47.0536" lon="-1.75613">
        <ele>68</ele>
        <time>2011-09-04T08:08:35Z</time>
      </trkpt>
      <trkpt lat="47.05355" lon="-1.75614">
        <ele>67</ele>
        <time>2011-09-04T08:08:36Z</time>
      </trkpt>
      <trkpt lat="47.0535" lon="-1.75615">
        <ele>67</ele>
        <time>2011-09-04T08:08:37Z</time>
      </trkpt>
      <trkpt lat="47.05346" lon="-1.75616">
        <ele>68</ele>
        <time>2011-09-04T08:08:38Z</time>
      </trkpt>
      <trkpt lat="47.05336" lon="-1.75619">
        <ele>68</ele>
        <time>2011-09-04T08:08:40Z</time>
      </trkpt>
      <trkpt lat="47.05327" lon="-1.75622">
        <ele>68</ele>
        <time>2011-09-04T08:08:42Z</time>
      </trkpt>
      <trkpt lat="47.05319" lon="-1.75624">
        <ele>68</ele>
        <time>2011-09-04T08:08:44Z</time>
      </trkpt>
      <trkpt lat="47.05311" lon="-1.75626">
        <ele>68</ele>
        <time>2011-09-04T08:08:46Z</time>
      </trkpt>
      <trkpt lat="47.05303" lon="-1.75628">
        <ele>68</ele>
        <time>2011-09-04T08:08:48Z</time>
      </trkpt>
      <trkpt lat="47.05295" lon="-1.7563">
        <ele>68</ele>
        <time>2011-09-04T08:08:50Z</time>
      </trkpt>
      <trkpt lat="47.05287" lon="-1.75632">
        <ele>69</ele>
        <time>2011-09-04T08:08:52Z</time>
      </trkpt>
      <trkpt lat="47.05279" lon="-1.75634">
        <ele>69</ele>
        <time>2011-09-04T08:08:54Z</time>
      </trkpt>
      <trkpt lat="47.05272" lon="-1.75635">
        <ele>69</ele>
        <time>2011-09-04T08:08:56Z</time>
      </trkpt>
      <trkpt lat="47.05265" lon="-1.75637">
        <ele>69</ele>
        <time>2011-09-04T08:08:58Z</time>
      </trkpt>
      <trkpt lat="47.05258" lon="-1.7564">
        <ele>70</ele>
        <time>2011-09-04T08:09:00Z</time>
      </trkpt>
      <trkpt lat="47.05251" lon="-1.75641">
        <ele>70</ele>
        <time>2011-09-04T08:09:02Z</time>
      </trkpt>
      <trkpt lat="47.05245" lon="-1.75642">
        <ele>70</ele>
        <time>2011-09-04T08:09:04Z</time>
      </trkpt>
      <trkpt lat="47.05238" lon="-1.75644">
        <ele>70</ele>
        <time>2011-09-04T08:09:06Z</time>
      </trkpt>
      <trkpt lat="47.05232" lon="-1.75646">
        <ele>70</ele>
        <time>2011-09-04T08:09:08Z</time>
      </trkpt>
      <trkpt lat="47.05225" lon="-1.75649">
        <ele>70</ele>
        <time>2011-09-04T08:09:10Z</time>
      </trkpt>
      <trkpt lat="47.05219" lon="-1.7565">
        <ele>70</ele>
        <time>2011-09-04T08:09:12Z</time>
      </trkpt>
      <trkpt lat="47.05212" lon="-1.75652">
        <ele>70</ele>
        <time>2011-09-04T08:09:14Z</time>
      </trkpt>
      <trkpt lat="47.05206" lon="-1.75655">
        <ele>71</ele>
        <time>2011-09-04T08:09:16Z</time>
      </trkpt>
      <trkpt lat="47.05199" lon="-1.75657">
        <ele>71</ele>
        <time>2011-09-04T08:09:18Z</time>
      </trkpt>
      <trkpt lat="47.05192" lon="-1.75659">
        <ele>71</ele>
        <time>2011-09-04T08:09:20Z</time>
      </trkpt>
      <trkpt lat="47.05185" lon="-1.75662">
        <ele>71</ele>
        <time>2011-09-04T08:09:22Z</time>
      </trkpt>
      <trkpt lat="47.05178" lon="-1.75664">
        <ele>71</ele>
        <time>2011-09-04T08:09:24Z</time>
      </trkpt>
      <trkpt lat="47.0517" lon="-1.75666">
        <ele>71</ele>
        <time>2011-09-04T08:09:26Z</time>
      </trkpt>
      <trkpt lat="47.05164" lon="-1.75668">
        <ele>71</ele>
        <time>2011-09-04T08:09:28Z</time>
      </trkpt>
      <trkpt lat="47.05158" lon="-1.75669">
        <ele>71</ele>
        <time>2011-09-04T08:09:30Z</time>
      </trkpt>
      <trkpt lat="47.05152" lon="-1.7567">
        <ele>71</ele>
        <time>2011-09-04T08:09:32Z</time>
      </trkpt>
      <trkpt lat="47.05147" lon="-1.75671">
        <ele>72</ele>
        <time>2011-09-04T08:09:34Z</time>
      </trkpt>
      <trkpt lat="47.0514" lon="-1.75672">
        <ele>72</ele>
        <time>2011-09-04T08:09:36Z</time>
      </trkpt>
      <trkpt lat="47.05134" lon="-1.75673">
        <ele>72</ele>
        <time>2011-09-04T08:09:38Z</time>
      </trkpt>
      <trkpt lat="47.05128" lon="-1.75674">
        <ele>72</ele>
        <time>2011-09-04T08:09:40Z</time>
      </trkpt>
      <trkpt lat="47.05122" lon="-1.75677">
        <ele>73</ele>
        <time>2011-09-04T08:09:42Z</time>
      </trkpt>
      <trkpt lat="47.05116" lon="-1.75682">
        <ele>73</ele>
        <time>2011-09-04T08:09:44Z</time>
      </trkpt>
      <trkpt lat="47.05111" lon="-1.75692">
        <ele>73</ele>
        <time>2011-09-04T08:09:46Z</time>
      </trkpt>
      <trkpt lat="47.05107" lon="-1.75702">
        <ele>74</ele>
        <time>2011-09-04T08:09:48Z</time>
      </trkpt>
      <trkpt lat="47.05103" lon="-1.75712">
        <ele>74</ele>
        <time>2011-09-04T08:09:50Z</time>
      </trkpt>
      <trkpt lat="47.05098" lon="-1.75722">
        <ele>75</ele>
        <time>2011-09-04T08:09:52Z</time>
      </trkpt>
      <trkpt lat="47.05094" lon="-1.75732">
        <ele>75</ele>
        <time>2011-09-04T08:09:54Z</time>
      </trkpt>
      <trkpt lat="47.05091" lon="-1.75741">
        <ele>76</ele>
        <time>2011-09-04T08:09:56Z</time>
      </trkpt>
      <trkpt lat="47.05088" lon="-1.75751">
        <ele>77</ele>
        <time>2011-09-04T08:09:58Z</time>
      </trkpt>
      <trkpt lat="47.05084" lon="-1.75761">
        <ele>77</ele>
        <time>2011-09-04T08:10:00Z</time>
      </trkpt>
      <trkpt lat="47.05082" lon="-1.75769">
        <ele>78</ele>
        <time>2011-09-04T08:10:02Z</time>
      </trkpt>
      <trkpt lat="47.05078" lon="-1.75777">
        <ele>79</ele>
        <time>2011-09-04T08:10:04Z</time>
      </trkpt>
      <trkpt lat="47.05076" lon="-1.75786">
        <ele>80</ele>
        <time>2011-09-04T08:10:06Z</time>
      </trkpt>
      <trkpt lat="47.05072" lon="-1.75794">
        <ele>81</ele>
        <time>2011-09-04T08:10:08Z</time>
      </trkpt>
      <trkpt lat="47.0507" lon="-1.75802">
        <ele>81</ele>
        <time>2011-09-04T08:10:10Z</time>
      </trkpt>
      <trkpt lat="47.05068" lon="-1.75808">
        <ele>81</ele>
        <time>2011-09-04T08:10:11Z</time>
      </trkpt>
      <trkpt lat="47.05064" lon="-1.75817">
        <ele>81</ele>
        <time>2011-09-04T08:10:13Z</time>
      </trkpt>
      <trkpt lat="47.05062" lon="-1.75822">
        <ele>81</ele>
        <time>2011-09-04T08:10:14Z</time>
      </trkpt>
      <trkpt lat="47.0506" lon="-1.75829">
        <ele>81</ele>
        <time>2011-09-04T08:10:15Z</time>
      </trkpt>
      <trkpt lat="47.05055" lon="-1.75839">
        <ele>81</ele>
        <time>2011-09-04T08:10:17Z</time>
      </trkpt>
      <trkpt lat="47.05052" lon="-1.75844">
        <ele>81</ele>
        <time>2011-09-04T08:10:18Z</time>
      </trkpt>
      <trkpt lat="47.0505" lon="-1.7585">
        <ele>81</ele>
        <time>2011-09-04T08:10:19Z</time>
      </trkpt>
      <trkpt lat="47.05045" lon="-1.7586">
        <ele>81</ele>
        <time>2011-09-04T08:10:21Z</time>
      </trkpt>
      <trkpt lat="47.0504" lon="-1.75871">
        <ele>81</ele>
        <time>2011-09-04T08:10:23Z</time>
      </trkpt>
      <trkpt lat="47.05037" lon="-1.75876">
        <ele>81</ele>
        <time>2011-09-04T08:10:24Z</time>
      </trkpt>
      <trkpt lat="47.05033" lon="-1.75886">
        <ele>82</ele>
        <time>2011-09-04T08:10:26Z</time>
      </trkpt>
      <trkpt lat="47.0503" lon="-1.75892">
        <ele>82</ele>
        <time>2011-09-04T08:10:27Z</time>
      </trkpt>
      <trkpt lat="47.05028" lon="-1.75898">
        <ele>82</ele>
        <time>2011-09-04T08:10:28Z</time>
      </trkpt>
      <trkpt lat="47.05024" lon="-1.75907">
        <ele>82</ele>
        <time>2011-09-04T08:10:30Z</time>
      </trkpt>
      <trkpt lat="47.05021" lon="-1.75912">
        <ele>82</ele>
        <time>2011-09-04T08:10:31Z</time>
      </trkpt>
      <trkpt lat="47.05016" lon="-1.75922">
        <ele>82</ele>
        <time>2011-09-04T08:10:33Z</time>
      </trkpt>
      <trkpt lat="47.05013" lon="-1.75927">
        <ele>82</ele>
        <time>2011-09-04T08:10:34Z</time>
      </trkpt>
      <trkpt lat="47.0501" lon="-1.75933">
        <ele>81</ele>
        <time>2011-09-04T08:10:35Z</time>
      </trkpt>
      <trkpt lat="47.05006" lon="-1.75943">
        <ele>81</ele>
        <time>2011-09-04T08:10:37Z</time>
      </trkpt>
      <trkpt lat="47.05001" lon="-1.75951">
        <ele>82</ele>
        <time>2011-09-04T08:10:39Z</time>
      </trkpt>
      <trkpt lat="47.04996" lon="-1.75958">
        <ele>82</ele>
        <time>2011-09-04T08:10:41Z</time>
      </trkpt>
      <trkpt lat="47.04991" lon="-1.75965">
        <ele>83</ele>
        <time>2011-09-04T08:10:43Z</time>
      </trkpt>
      <trkpt lat="47.04988" lon="-1.75976">
        <ele>83</ele>
        <time>2011-09-04T08:10:45Z</time>
      </trkpt>
      <trkpt lat="47.04984" lon="-1.75988">
        <ele>83</ele>
        <time>2011-09-04T08:10:47Z</time>
      </trkpt>
      <trkpt lat="47.04981" lon="-1.75993">
        <ele>82</ele>
        <time>2011-09-04T08:10:48Z</time>
      </trkpt>
      <trkpt lat="47.04977" lon="-1.76004">
        <ele>82</ele>
        <time>2011-09-04T08:10:50Z</time>
      </trkpt>
      <trkpt lat="47.04974" lon="-1.76015">
        <ele>82</ele>
        <time>2011-09-04T08:10:52Z</time>
      </trkpt>
      <trkpt lat="47.04971" lon="-1.76025">
        <ele>82</ele>
        <time>2011-09-04T08:10:54Z</time>
      </trkpt>
      <trkpt lat="47.04967" lon="-1.76035">
        <ele>82</ele>
        <time>2011-09-04T08:10:56Z</time>
      </trkpt>
      <trkpt lat="47.04964" lon="-1.76044">
        <ele>82</ele>
        <time>2011-09-04T08:10:58Z</time>
      </trkpt>
      <trkpt lat="47.0496" lon="-1.76052">
        <ele>81</ele>
        <time>2011-09-04T08:11:00Z</time>
      </trkpt>
      <trkpt lat="47.04957" lon="-1.7606">
        <ele>81</ele>
        <time>2011-09-04T08:11:02Z</time>
      </trkpt>
      <trkpt lat="47.04953" lon="-1.76067">
        <ele>81</ele>
        <time>2011-09-04T08:11:04Z</time>
      </trkpt>
      <trkpt lat="47.0495" lon="-1.76076">
        <ele>81</ele>
        <time>2011-09-04T08:11:06Z</time>
      </trkpt>
      <trkpt lat="47.04946" lon="-1.76086">
        <ele>81</ele>
        <time>2011-09-04T08:11:08Z</time>
      </trkpt>
      <trkpt lat="47.04943" lon="-1.76096">
        <ele>81</ele>
        <time>2011-09-04T08:11:10Z</time>
      </trkpt>
      <trkpt lat="47.04938" lon="-1.76105">
        <ele>81</ele>
        <time>2011-09-04T08:11:12Z</time>
      </trkpt>
      <trkpt lat="47.04934" lon="-1.76114">
        <ele>82</ele>
        <time>2011-09-04T08:11:14Z</time>
      </trkpt>
      <trkpt lat="47.04929" lon="-1.76123">
        <ele>82</ele>
        <time>2011-09-04T08:11:16Z</time>
      </trkpt>
      <trkpt lat="47.04924" lon="-1.76134">
        <ele>82</ele>
        <time>2011-09-04T08:11:18Z</time>
      </trkpt>
      <trkpt lat="47.0492" lon="-1.76144">
        <ele>82</ele>
        <time>2011-09-04T08:11:20Z</time>
      </trkpt>
      <trkpt lat="47.04916" lon="-1.76154">
        <ele>81</ele>
        <time>2011-09-04T08:11:22Z</time>
      </trkpt>
      <trkpt lat="47.04912" lon="-1.76164">
        <ele>81</ele>
        <time>2011-09-04T08:11:24Z</time>
      </trkpt>
      <trkpt lat="47.04907" lon="-1.76173">
        <ele>81</ele>
        <time>2011-09-04T08:11:26Z</time>
      </trkpt>
      <trkpt lat="47.04902" lon="-1.76182">
        <ele>81</ele>
        <time>2011-09-04T08:11:28Z</time>
      </trkpt>
      <trkpt lat="47.04897" lon="-1.76192">
        <ele>81</ele>
        <time>2011-09-04T08:11:30Z</time>
      </trkpt>
      <trkpt lat="47.04892" lon="-1.76199">
        <ele>82</ele>
        <time>2011-09-04T08:11:32Z</time>
      </trkpt>
      <trkpt lat="47.04885" lon="-1.76207">
        <ele>82</ele>
        <time>2011-09-04T08:11:34Z</time>
      </trkpt>
      <trkpt lat="47.04879" lon="-1.76214">
        <ele>83</ele>
        <time>2011-09-04T08:11:36Z</time>
      </trkpt>
      <trkpt lat="47.04875" lon="-1.76221">
        <ele>83</ele>
        <time>2011-09-04T08:11:38Z</time>
      </trkpt>
      <trkpt lat="47.04869" lon="-1.7623">
        <ele>83</ele>
        <time>2011-09-04T08:11:40Z</time>
      </trkpt>
      <trkpt lat="47.04863" lon="-1.76238">
        <ele>83</ele>
        <time>2011-09-04T08:11:42Z</time>
      </trkpt>
      <trkpt lat="47.04858" lon="-1.76248">
        <ele>83</ele>
        <time>2011-09-04T08:11:44Z</time>
      </trkpt>
      <trkpt lat="47.04853" lon="-1.76256">
        <ele>83</ele>
        <time>2011-09-04T08:11:46Z</time>
      </trkpt>
      <trkpt lat="47.04848" lon="-1.76266">
        <ele>83</ele>
        <time>2011-09-04T08:11:48Z</time>
      </trkpt>
      <trkpt lat="47.04846" lon="-1.76272">
        <ele>83</ele>
        <time>2011-09-04T08:11:49Z</time>
      </trkpt>
      <trkpt lat="47.04843" lon="-1.76278">
        <ele>83</ele>
        <time>2011-09-04T08:11:50Z</time>
      </trkpt>
      <trkpt lat="47.04841" lon="-1.76284">
        <ele>83</ele>
        <time>2011-09-04T08:11:51Z</time>
      </trkpt>
      <trkpt lat="47.04838" lon="-1.76291">
        <ele>83</ele>
        <time>2011-09-04T08:11:52Z</time>
      </trkpt>
      <trkpt lat="47.04835" lon="-1.76297">
        <ele>83</ele>
        <time>2011-09-04T08:11:53Z</time>
      </trkpt>
      <trkpt lat="47.04833" lon="-1.76302">
        <ele>83</ele>
        <time>2011-09-04T08:11:54Z</time>
      </trkpt>
      <trkpt lat="47.0483" lon="-1.76307">
        <ele>83</ele>
        <time>2011-09-04T08:11:55Z</time>
      </trkpt>
      <trkpt lat="47.04828" lon="-1.76313">
        <ele>83</ele>
        <time>2011-09-04T08:11:56Z</time>
      </trkpt>
      <trkpt lat="47.04826" lon="-1.7632">
        <ele>83</ele>
        <time>2011-09-04T08:11:57Z</time>
      </trkpt>
      <trkpt lat="47.04823" lon="-1.76332">
        <ele>82</ele>
        <time>2011-09-04T08:11:59Z</time>
      </trkpt>
      <trkpt lat="47.04818" lon="-1.76343">
        <ele>82</ele>
        <time>2011-09-04T08:12:01Z</time>
      </trkpt>
      <trkpt lat="47.04817" lon="-1.76349">
        <ele>82</ele>
        <time>2011-09-04T08:12:02Z</time>
      </trkpt>
      <trkpt lat="47.04814" lon="-1.76355">
        <ele>82</ele>
        <time>2011-09-04T08:12:03Z</time>
      </trkpt>
      <trkpt lat="47.04811" lon="-1.76368">
        <ele>81</ele>
        <time>2011-09-04T08:12:05Z</time>
      </trkpt>
      <trkpt lat="47.0481" lon="-1.76374">
        <ele>81</ele>
        <time>2011-09-04T08:12:06Z</time>
      </trkpt>
      <trkpt lat="47.04809" lon="-1.76381">
        <ele>81</ele>
        <time>2011-09-04T08:12:07Z</time>
      </trkpt>
      <trkpt lat="47.04808" lon="-1.76392">
        <ele>80</ele>
        <time>2011-09-04T08:12:09Z</time>
      </trkpt>
      <trkpt lat="47.04805" lon="-1.764">
        <ele>80</ele>
        <time>2011-09-04T08:12:11Z</time>
      </trkpt>
      <trkpt lat="47.04802" lon="-1.7641">
        <ele>79</ele>
        <time>2011-09-04T08:12:13Z</time>
      </trkpt>
      <trkpt lat="47.048" lon="-1.76421">
        <ele>79</ele>
        <time>2011-09-04T08:12:15Z</time>
      </trkpt>
      <trkpt lat="47.04797" lon="-1.76432">
        <ele>79</ele>
        <time>2011-09-04T08:12:17Z</time>
      </trkpt>
      <trkpt lat="47.04795" lon="-1.76443">
        <ele>80</ele>
        <time>2011-09-04T08:12:19Z</time>
      </trkpt>
      <trkpt lat="47.04792" lon="-1.76452">
        <ele>80</ele>
        <time>2011-09-04T08:12:21Z</time>
      </trkpt>
      <trkpt lat="47.04791" lon="-1.76461">
        <ele>81</ele>
        <time>2011-09-04T08:12:23Z</time>
      </trkpt>
      <trkpt lat="47.0479" lon="-1.76472">
        <ele>81</ele>
        <time>2011-09-04T08:12:25Z</time>
      </trkpt>
      <trkpt lat="47.04788" lon="-1.76482">
        <ele>82</ele>
        <time>2011-09-04T08:12:27Z</time>
      </trkpt>
      <trkpt lat="47.04786" lon="-1.76493">
        <ele>82</ele>
        <time>2011-09-04T08:12:29Z</time>
      </trkpt>
      <trkpt lat="47.04783" lon="-1.76499">
        <ele>82</ele>
        <time>2011-09-04T08:12:30Z</time>
      </trkpt>
      <trkpt lat="47.04781" lon="-1.76511">
        <ele>82</ele>
        <time>2011-09-04T08:12:32Z</time>
      </trkpt>
      <trkpt lat="47.04779" lon="-1.76524">
        <ele>82</ele>
        <time>2011-09-04T08:12:34Z</time>
      </trkpt>
      <trkpt lat="47.04778" lon="-1.76531">
        <ele>82</ele>
        <time>2011-09-04T08:12:35Z</time>
      </trkpt>
      <trkpt lat="47.04774" lon="-1.76542">
        <ele>82</ele>
        <time>2011-09-04T08:12:37Z</time>
      </trkpt>
      <trkpt lat="47.04772" lon="-1.76549">
        <ele>82</ele>
        <time>2011-09-04T08:12:38Z</time>
      </trkpt>
      <trkpt lat="47.04771" lon="-1.76555">
        <ele>82</ele>
        <time>2011-09-04T08:12:39Z</time>
      </trkpt>
      <trkpt lat="47.0477" lon="-1.76563">
        <ele>82</ele>
        <time>2011-09-04T08:12:40Z</time>
      </trkpt>
      <trkpt lat="47.04769" lon="-1.7657">
        <ele>82</ele>
        <time>2011-09-04T08:12:41Z</time>
      </trkpt>
      <trkpt lat="47.04768" lon="-1.76582">
        <ele>82</ele>
        <time>2011-09-04T08:12:43Z</time>
      </trkpt>
      <trkpt lat="47.04767" lon="-1.76588">
        <ele>82</ele>
        <time>2011-09-04T08:12:44Z</time>
      </trkpt>
      <trkpt lat="47.04765" lon="-1.76601">
        <ele>82</ele>
        <time>2011-09-04T08:12:46Z</time>
      </trkpt>
      <trkpt lat="47.04764" lon="-1.76607">
        <ele>82</ele>
        <time>2011-09-04T08:12:47Z</time>
      </trkpt>
      <trkpt lat="47.04761" lon="-1.7662">
        <ele>82</ele>
        <time>2011-09-04T08:12:49Z</time>
      </trkpt>
      <trkpt lat="47.04759" lon="-1.76631">
        <ele>82</ele>
        <time>2011-09-04T08:12:51Z</time>
      </trkpt>
      <trkpt lat="47.04755" lon="-1.76642">
        <ele>82</ele>
        <time>2011-09-04T08:12:53Z</time>
      </trkpt>
      <trkpt lat="47.04751" lon="-1.76652">
        <ele>81</ele>
        <time>2011-09-04T08:12:55Z</time>
      </trkpt>
      <trkpt lat="47.04747" lon="-1.76662">
        <ele>81</ele>
        <time>2011-09-04T08:12:57Z</time>
      </trkpt>
      <trkpt lat="47.04742" lon="-1.7667">
        <ele>81</ele>
        <time>2011-09-04T08:12:59Z</time>
      </trkpt>
      <trkpt lat="47.04736" lon="-1.76679">
        <ele>81</ele>
        <time>2011-09-04T08:13:01Z</time>
      </trkpt>
      <trkpt lat="47.04729" lon="-1.76686">
        <ele>82</ele>
        <time>2011-09-04T08:13:03Z</time>
      </trkpt>
      <trkpt lat="47.04723" lon="-1.76693">
        <ele>81</ele>
        <time>2011-09-04T08:13:05Z</time>
      </trkpt>
      <trkpt lat="47.04717" lon="-1.76702">
        <ele>82</ele>
        <time>2011-09-04T08:13:07Z</time>
      </trkpt>
      <trkpt lat="47.0471" lon="-1.76711">
        <ele>82</ele>
        <time>2011-09-04T08:13:09Z</time>
      </trkpt>
      <trkpt lat="47.04707" lon="-1.76716">
        <ele>81</ele>
        <time>2011-09-04T08:13:10Z</time>
      </trkpt>
      <trkpt lat="47.04704" lon="-1.76721">
        <ele>81</ele>
        <time>2011-09-04T08:13:11Z</time>
      </trkpt>
      <trkpt lat="47.04701" lon="-1.76726">
        <ele>81</ele>
        <time>2011-09-04T08:13:12Z</time>
      </trkpt>
      <trkpt lat="47.04695" lon="-1.76736">
        <ele>81</ele>
        <time>2011-09-04T08:13:14Z</time>
      </trkpt>
      <trkpt lat="47.0469" lon="-1.76744">
        <ele>81</ele>
        <time>2011-09-04T08:13:16Z</time>
      </trkpt>
      <trkpt lat="47.04684" lon="-1.76754">
        <ele>82</ele>
        <time>2011-09-04T08:13:18Z</time>
      </trkpt>
      <trkpt lat="47.04678" lon="-1.76763">
        <ele>82</ele>
        <time>2011-09-04T08:13:20Z</time>
      </trkpt>
      <trkpt lat="47.04676" lon="-1.76768">
        <ele>82</ele>
        <time>2011-09-04T08:13:21Z</time>
      </trkpt>
      <trkpt lat="47.04671" lon="-1.76778">
        <ele>82</ele>
        <time>2011-09-04T08:13:23Z</time>
      </trkpt>
      <trkpt lat="47.04666" lon="-1.76786">
        <ele>82</ele>
        <time>2011-09-04T08:13:25Z</time>
      </trkpt>
      <trkpt lat="47.0466" lon="-1.76795">
        <ele>83</ele>
        <time>2011-09-04T08:13:27Z</time>
      </trkpt>
      <trkpt lat="47.04655" lon="-1.76804">
        <ele>83</ele>
        <time>2011-09-04T08:13:29Z</time>
      </trkpt>
      <trkpt lat="47.0465" lon="-1.76813">
        <ele>83</ele>
        <time>2011-09-04T08:13:31Z</time>
      </trkpt>
      <trkpt lat="47.04644" lon="-1.76823">
        <ele>83</ele>
        <time>2011-09-04T08:13:33Z</time>
      </trkpt>
      <trkpt lat="47.04642" lon="-1.76828">
        <ele>83</ele>
        <time>2011-09-04T08:13:34Z</time>
      </trkpt>
      <trkpt lat="47.04639" lon="-1.76835">
        <ele>83</ele>
        <time>2011-09-04T08:13:35Z</time>
      </trkpt>
      <trkpt lat="47.04636" lon="-1.76841">
        <ele>84</ele>
        <time>2011-09-04T08:13:36Z</time>
      </trkpt>
      <trkpt lat="47.04633" lon="-1.76846">
        <ele>84</ele>
        <time>2011-09-04T08:13:37Z</time>
      </trkpt>
      <trkpt lat="47.0463" lon="-1.76851">
        <ele>84</ele>
        <time>2011-09-04T08:13:38Z</time>
      </trkpt>
      <trkpt lat="47.04628" lon="-1.76857">
        <ele>84</ele>
        <time>2011-09-04T08:13:39Z</time>
      </trkpt>
      <trkpt lat="47.04624" lon="-1.76868">
        <ele>83</ele>
        <time>2011-09-04T08:13:41Z</time>
      </trkpt>
      <trkpt lat="47.04621" lon="-1.76878">
        <ele>84</ele>
        <time>2011-09-04T08:13:43Z</time>
      </trkpt>
      <trkpt lat="47.04619" lon="-1.76885">
        <ele>83</ele>
        <time>2011-09-04T08:13:44Z</time>
      </trkpt>
      <trkpt lat="47.04617" lon="-1.76891">
        <ele>83</ele>
        <time>2011-09-04T08:13:45Z</time>
      </trkpt>
      <trkpt lat="47.04615" lon="-1.76898">
        <ele>83</ele>
        <time>2011-09-04T08:13:46Z</time>
      </trkpt>
      <trkpt lat="47.04614" lon="-1.76904">
        <ele>83</ele>
        <time>2011-09-04T08:13:47Z</time>
      </trkpt>
      <trkpt lat="47.04613" lon="-1.76911">
        <ele>83</ele>
        <time>2011-09-04T08:13:48Z</time>
      </trkpt>
      <trkpt lat="47.04612" lon="-1.76923">
        <ele>83</ele>
        <time>2011-09-04T08:13:50Z</time>
      </trkpt>
      <trkpt lat="47.04611" lon="-1.7693">
        <ele>83</ele>
        <time>2011-09-04T08:13:51Z</time>
      </trkpt>
      <trkpt lat="47.04609" lon="-1.76941">
        <ele>83</ele>
        <time>2011-09-04T08:13:53Z</time>
      </trkpt>
      <trkpt lat="47.04607" lon="-1.76951">
        <ele>83</ele>
        <time>2011-09-04T08:13:55Z</time>
      </trkpt>
      <trkpt lat="47.04605" lon="-1.76962">
        <ele>83</ele>
        <time>2011-09-04T08:13:57Z</time>
      </trkpt>
      <trkpt lat="47.04606" lon="-1.76973">
        <ele>84</ele>
        <time>2011-09-04T08:13:59Z</time>
      </trkpt>
      <trkpt lat="47.04605" lon="-1.7698">
        <ele>84</ele>
        <time>2011-09-04T08:14:00Z</time>
      </trkpt>
      <trkpt lat="47.04605" lon="-1.76991">
        <ele>84</ele>
        <time>2011-09-04T08:14:02Z</time>
      </trkpt>
      <trkpt lat="47.04602" lon="-1.77002">
        <ele>85</ele>
        <time>2011-09-04T08:14:04Z</time>
      </trkpt>
      <trkpt lat="47.04601" lon="-1.77011">
        <ele>85</ele>
        <time>2011-09-04T08:14:06Z</time>
      </trkpt>
      <trkpt lat="47.046" lon="-1.77022">
        <ele>86</ele>
        <time>2011-09-04T08:14:08Z</time>
      </trkpt>
      <trkpt lat="47.04598" lon="-1.77031">
        <ele>87</ele>
        <time>2011-09-04T08:14:10Z</time>
      </trkpt>
      <trkpt lat="47.04594" lon="-1.7704">
        <ele>88</ele>
        <time>2011-09-04T08:14:12Z</time>
      </trkpt>
      <trkpt lat="47.0459" lon="-1.77048">
        <ele>89</ele>
        <time>2011-09-04T08:14:14Z</time>
      </trkpt>
      <trkpt lat="47.04585" lon="-1.77056">
        <ele>90</ele>
        <time>2011-09-04T08:14:16Z</time>
      </trkpt>
      <trkpt lat="47.04582" lon="-1.77062">
        <ele>90</ele>
        <time>2011-09-04T08:14:17Z</time>
      </trkpt>
      <trkpt lat="47.04576" lon="-1.77069">
        <ele>91</ele>
        <time>2011-09-04T08:14:19Z</time>
      </trkpt>
      <trkpt lat="47.0457" lon="-1.77078">
        <ele>91</ele>
        <time>2011-09-04T08:14:21Z</time>
      </trkpt>
      <trkpt lat="47.04566" lon="-1.77087">
        <ele>91</ele>
        <time>2011-09-04T08:14:23Z</time>
      </trkpt>
      <trkpt lat="47.0456" lon="-1.77096">
        <ele>92</ele>
        <time>2011-09-04T08:14:25Z</time>
      </trkpt>
      <trkpt lat="47.04558" lon="-1.77101">
        <ele>92</ele>
        <time>2011-09-04T08:14:26Z</time>
      </trkpt>
      <trkpt lat="47.04553" lon="-1.77109">
        <ele>93</ele>
        <time>2011-09-04T08:14:28Z</time>
      </trkpt>
      <trkpt lat="47.04548" lon="-1.7712">
        <ele>92</ele>
        <time>2011-09-04T08:14:30Z</time>
      </trkpt>
      <trkpt lat="47.04546" lon="-1.7713">
        <ele>91</ele>
        <time>2011-09-04T08:14:32Z</time>
      </trkpt>
      <trkpt lat="47.04544" lon="-1.77136">
        <ele>90</ele>
        <time>2011-09-04T08:14:34Z</time>
      </trkpt>
      <trkpt lat="47.04537" lon="-1.7714">
        <ele>89</ele>
        <time>2011-09-04T08:14:37Z</time>
      </trkpt>
      <trkpt lat="47.04531" lon="-1.77142">
        <ele>88</ele>
        <time>2011-09-04T08:14:39Z</time>
      </trkpt>
      <trkpt lat="47.04526" lon="-1.77141">
        <ele>88</ele>
        <time>2011-09-04T08:14:41Z</time>
      </trkpt>
      <trkpt lat="47.0452" lon="-1.7714">
        <ele>88</ele>
        <time>2011-09-04T08:14:43Z</time>
      </trkpt>
      <trkpt lat="47.04515" lon="-1.7714">
        <ele>87</ele>
        <time>2011-09-04T08:14:45Z</time>
      </trkpt>
      <trkpt lat="47.04509" lon="-1.77137">
        <ele>87</ele>
        <time>2011-09-04T08:14:47Z</time>
      </trkpt>
      <trkpt lat="47.04502" lon="-1.77135">
        <ele>87</ele>
        <time>2011-09-04T08:14:49Z</time>
      </trkpt>
      <trkpt lat="47.04495" lon="-1.77134">
        <ele>88</ele>
        <time>2011-09-04T08:14:51Z</time>
      </trkpt>
      <trkpt lat="47.0449" lon="-1.77135">
        <ele>88</ele>
        <time>2011-09-04T08:14:52Z</time>
      </trkpt>
      <trkpt lat="47.04482" lon="-1.77136">
        <ele>89</ele>
        <time>2011-09-04T08:14:54Z</time>
      </trkpt>
      <trkpt lat="47.04474" lon="-1.77135">
        <ele>88</ele>
        <time>2011-09-04T08:14:56Z</time>
      </trkpt>
      <trkpt lat="47.04466" lon="-1.77136">
        <ele>88</ele>
        <time>2011-09-04T08:14:58Z</time>
      </trkpt>
      <trkpt lat="47.04458" lon="-1.77135">
        <ele>88</ele>
        <time>2011-09-04T08:15:00Z</time>
      </trkpt>
      <trkpt lat="47.04451" lon="-1.77136">
        <ele>89</ele>
        <time>2011-09-04T08:15:02Z</time>
      </trkpt>
      <trkpt lat="47.04444" lon="-1.77136">
        <ele>88</ele>
        <time>2011-09-04T08:15:04Z</time>
      </trkpt>
      <trkpt lat="47.04437" lon="-1.77135">
        <ele>88</ele>
        <time>2011-09-04T08:15:06Z</time>
      </trkpt>
      <trkpt lat="47.0443" lon="-1.77135">
        <ele>88</ele>
        <time>2011-09-04T08:15:08Z</time>
      </trkpt>
      <trkpt lat="47.04422" lon="-1.77135">
        <ele>89</ele>
        <time>2011-09-04T08:15:10Z</time>
      </trkpt>
      <trkpt lat="47.04416" lon="-1.77133">
        <ele>89</ele>
        <time>2011-09-04T08:15:12Z</time>
      </trkpt>
      <trkpt lat="47.04409" lon="-1.77132">
        <ele>89</ele>
        <time>2011-09-04T08:15:14Z</time>
      </trkpt>
      <trkpt lat="47.04401" lon="-1.7713">
        <ele>89</ele>
        <time>2011-09-04T08:15:16Z</time>
      </trkpt>
      <trkpt lat="47.04394" lon="-1.77128">
        <ele>89</ele>
        <time>2011-09-04T08:15:18Z</time>
      </trkpt>
      <trkpt lat="47.04386" lon="-1.77125">
        <ele>89</ele>
        <time>2011-09-04T08:15:20Z</time>
      </trkpt>
      <trkpt lat="47.04382" lon="-1.77124">
        <ele>89</ele>
        <time>2011-09-04T08:15:21Z</time>
      </trkpt>
      <trkpt lat="47.04374" lon="-1.77121">
        <ele>89</ele>
        <time>2011-09-04T08:15:23Z</time>
      </trkpt>
      <trkpt lat="47.04367" lon="-1.77118">
        <ele>89</ele>
        <time>2011-09-04T08:15:25Z</time>
      </trkpt>
      <trkpt lat="47.04358" lon="-1.77115">
        <ele>89</ele>
        <time>2011-09-04T08:15:27Z</time>
      </trkpt>
      <trkpt lat="47.0435" lon="-1.77113">
        <ele>89</ele>
        <time>2011-09-04T08:15:29Z</time>
      </trkpt>
      <trkpt lat="47.04346" lon="-1.7711">
        <ele>89</ele>
        <time>2011-09-04T08:15:30Z</time>
      </trkpt>
      <trkpt lat="47.04339" lon="-1.77108">
        <ele>89</ele>
        <time>2011-09-04T08:15:32Z</time>
      </trkpt>
      <trkpt lat="47.04331" lon="-1.77105">
        <ele>89</ele>
        <time>2011-09-04T08:15:34Z</time>
      </trkpt>
      <trkpt lat="47.04322" lon="-1.77103">
        <ele>90</ele>
        <time>2011-09-04T08:15:36Z</time>
      </trkpt>
      <trkpt lat="47.04313" lon="-1.771">
        <ele>90</ele>
        <time>2011-09-04T08:15:38Z</time>
      </trkpt>
      <trkpt lat="47.04308" lon="-1.77101">
        <ele>90</ele>
        <time>2011-09-04T08:15:39Z</time>
      </trkpt>
      <trkpt lat="47.043" lon="-1.771">
        <ele>90</ele>
        <time>2011-09-04T08:15:41Z</time>
      </trkpt>
      <trkpt lat="47.04295" lon="-1.771">
        <ele>90</ele>
        <time>2011-09-04T08:15:42Z</time>
      </trkpt>
      <trkpt lat="47.04287" lon="-1.77099">
        <ele>90</ele>
        <time>2011-09-04T08:15:44Z</time>
      </trkpt>
      <trkpt lat="47.0428" lon="-1.77098">
        <ele>91</ele>
        <time>2011-09-04T08:15:46Z</time>
      </trkpt>
      <trkpt lat="47.04275" lon="-1.77098">
        <ele>92</ele>
        <time>2011-09-04T08:15:47Z</time>
      </trkpt>
      <trkpt lat="47.0427" lon="-1.77098">
        <ele>92</ele>
        <time>2011-09-04T08:15:48Z</time>
      </trkpt>
      <trkpt lat="47.04265" lon="-1.77098">
        <ele>92</ele>
        <time>2011-09-04T08:15:49Z</time>
      </trkpt>
      <trkpt lat="47.0426" lon="-1.77099">
        <ele>92</ele>
        <time>2011-09-04T08:15:50Z</time>
      </trkpt>
      <trkpt lat="47.04256" lon="-1.77101">
        <ele>92</ele>
        <time>2011-09-04T08:15:51Z</time>
      </trkpt>
      <trkpt lat="47.04251" lon="-1.77104">
        <ele>92</ele>
        <time>2011-09-04T08:15:52Z</time>
      </trkpt>
      <trkpt lat="47.04242" lon="-1.77107">
        <ele>92</ele>
        <time>2011-09-04T08:15:54Z</time>
      </trkpt>
      <trkpt lat="47.04233" lon="-1.77112">
        <ele>93</ele>
        <time>2011-09-04T08:15:56Z</time>
      </trkpt>
      <trkpt lat="47.04228" lon="-1.77114">
        <ele>94</ele>
        <time>2011-09-04T08:15:57Z</time>
      </trkpt>
      <trkpt lat="47.04223" lon="-1.77117">
        <ele>94</ele>
        <time>2011-09-04T08:15:58Z</time>
      </trkpt>
      <trkpt lat="47.04214" lon="-1.77122">
        <ele>94</ele>
        <time>2011-09-04T08:16:00Z</time>
      </trkpt>
      <trkpt lat="47.04207" lon="-1.77126">
        <ele>94</ele>
        <time>2011-09-04T08:16:02Z</time>
      </trkpt>
      <trkpt lat="47.04202" lon="-1.77128">
        <ele>94</ele>
        <time>2011-09-04T08:16:03Z</time>
      </trkpt>
      <trkpt lat="47.04198" lon="-1.77131">
        <ele>94</ele>
        <time>2011-09-04T08:16:04Z</time>
      </trkpt>
      <trkpt lat="47.0419" lon="-1.77132">
        <ele>94</ele>
        <time>2011-09-04T08:16:06Z</time>
      </trkpt>
      <trkpt lat="47.04181" lon="-1.77135">
        <ele>94</ele>
        <time>2011-09-04T08:16:08Z</time>
      </trkpt>
      <trkpt lat="47.04176" lon="-1.77136">
        <ele>95</ele>
        <time>2011-09-04T08:16:09Z</time>
      </trkpt>
      <trkpt lat="47.04171" lon="-1.77138">
        <ele>94</ele>
        <time>2011-09-04T08:16:10Z</time>
      </trkpt>
      <trkpt lat="47.04166" lon="-1.77139">
        <ele>94</ele>
        <time>2011-09-04T08:16:11Z</time>
      </trkpt>
      <trkpt lat="47.04161" lon="-1.7714">
        <ele>94</ele>
        <time>2011-09-04T08:16:12Z</time>
      </trkpt>
      <trkpt lat="47.04156" lon="-1.77142">
        <ele>94</ele>
        <time>2011-09-04T08:16:13Z</time>
      </trkpt>
      <trkpt lat="47.0415" lon="-1.77142">
        <ele>94</ele>
        <time>2011-09-04T08:16:14Z</time>
      </trkpt>
      <trkpt lat="47.04146" lon="-1.77142">
        <ele>93</ele>
        <time>2011-09-04T08:16:15Z</time>
      </trkpt>
      <trkpt lat="47.04136" lon="-1.77142">
        <ele>94</ele>
        <time>2011-09-04T08:16:17Z</time>
      </trkpt>
      <trkpt lat="47.04132" lon="-1.7714">
        <ele>94</ele>
        <time>2011-09-04T08:16:18Z</time>
      </trkpt>
      <trkpt lat="47.04124" lon="-1.77138">
        <ele>94</ele>
        <time>2011-09-04T08:16:20Z</time>
      </trkpt>
      <trkpt lat="47.04118" lon="-1.77137">
        <ele>94</ele>
        <time>2011-09-04T08:16:21Z</time>
      </trkpt>
      <trkpt lat="47.04113" lon="-1.77136">
        <ele>93</ele>
        <time>2011-09-04T08:16:22Z</time>
      </trkpt>
      <trkpt lat="47.04108" lon="-1.77135">
        <ele>94</ele>
        <time>2011-09-04T08:16:23Z</time>
      </trkpt>
      <trkpt lat="47.04104" lon="-1.77133">
        <ele>94</ele>
        <time>2011-09-04T08:16:24Z</time>
      </trkpt>
      <trkpt lat="47.04095" lon="-1.7713">
        <ele>94</ele>
        <time>2011-09-04T08:16:26Z</time>
      </trkpt>
      <trkpt lat="47.04087" lon="-1.77128">
        <ele>94</ele>
        <time>2011-09-04T08:16:28Z</time>
      </trkpt>
      <trkpt lat="47.04082" lon="-1.77126">
        <ele>94</ele>
        <time>2011-09-04T08:16:29Z</time>
      </trkpt>
      <trkpt lat="47.04074" lon="-1.77122">
        <ele>93</ele>
        <time>2011-09-04T08:16:31Z</time>
      </trkpt>
      <trkpt lat="47.04069" lon="-1.77119">
        <ele>93</ele>
        <time>2011-09-04T08:16:32Z</time>
      </trkpt>
      <trkpt lat="47.0406" lon="-1.77115">
        <ele>93</ele>
        <time>2011-09-04T08:16:34Z</time>
      </trkpt>
      <trkpt lat="47.04056" lon="-1.77113">
        <ele>93</ele>
        <time>2011-09-04T08:16:35Z</time>
      </trkpt>
      <trkpt lat="47.04051" lon="-1.7711">
        <ele>92</ele>
        <time>2011-09-04T08:16:36Z</time>
      </trkpt>
      <trkpt lat="47.04043" lon="-1.77106">
        <ele>92</ele>
        <time>2011-09-04T08:16:38Z</time>
      </trkpt>
      <trkpt lat="47.04038" lon="-1.77104">
        <ele>92</ele>
        <time>2011-09-04T08:16:39Z</time>
      </trkpt>
      <trkpt lat="47.0403" lon="-1.77102">
        <ele>92</ele>
        <time>2011-09-04T08:16:41Z</time>
      </trkpt>
      <trkpt lat="47.04025" lon="-1.77101">
        <ele>92</ele>
        <time>2011-09-04T08:16:42Z</time>
      </trkpt>
      <trkpt lat="47.0402" lon="-1.771">
        <ele>92</ele>
        <time>2011-09-04T08:16:43Z</time>
      </trkpt>
      <trkpt lat="47.04011" lon="-1.77097">
        <ele>92</ele>
        <time>2011-09-04T08:16:45Z</time>
      </trkpt>
      <trkpt lat="47.04007" lon="-1.77096">
        <ele>91</ele>
        <time>2011-09-04T08:16:46Z</time>
      </trkpt>
      <trkpt lat="47.03999" lon="-1.77094">
        <ele>91</ele>
        <time>2011-09-04T08:16:48Z</time>
      </trkpt>
      <trkpt lat="47.03994" lon="-1.77091">
        <ele>91</ele>
        <time>2011-09-04T08:16:49Z</time>
      </trkpt>
      <trkpt lat="47.03985" lon="-1.77088">
        <ele>90</ele>
        <time>2011-09-04T08:16:51Z</time>
      </trkpt>
      <trkpt lat="47.03977" lon="-1.77086">
        <ele>91</ele>
        <time>2011-09-04T08:16:53Z</time>
      </trkpt>
      <trkpt lat="47.03968" lon="-1.77083">
        <ele>90</ele>
        <time>2011-09-04T08:16:55Z</time>
      </trkpt>
      <trkpt lat="47.03963" lon="-1.7708">
        <ele>90</ele>
        <time>2011-09-04T08:16:56Z</time>
      </trkpt>
      <trkpt lat="47.03958" lon="-1.77079">
        <ele>90</ele>
        <time>2011-09-04T08:16:57Z</time>
      </trkpt>
      <trkpt lat="47.03954" lon="-1.77077">
        <ele>89</ele>
        <time>2011-09-04T08:16:58Z</time>
      </trkpt>
      <trkpt lat="47.03949" lon="-1.77076">
        <ele>89</ele>
        <time>2011-09-04T08:16:59Z</time>
      </trkpt>
      <trkpt lat="47.03943" lon="-1.77075">
        <ele>89</ele>
        <time>2011-09-04T08:17:00Z</time>
      </trkpt>
      <trkpt lat="47.03938" lon="-1.77074">
        <ele>88</ele>
        <time>2011-09-04T08:17:01Z</time>
      </trkpt>
      <trkpt lat="47.03934" lon="-1.77073">
        <ele>88</ele>
        <time>2011-09-04T08:17:02Z</time>
      </trkpt>
      <trkpt lat="47.03929" lon="-1.77071">
        <ele>88</ele>
        <time>2011-09-04T08:17:03Z</time>
      </trkpt>
      <trkpt lat="47.03924" lon="-1.77069">
        <ele>88</ele>
        <time>2011-09-04T08:17:04Z</time>
      </trkpt>
      <trkpt lat="47.03915" lon="-1.77065">
        <ele>87</ele>
        <time>2011-09-04T08:17:06Z</time>
      </trkpt>
      <trkpt lat="47.0391" lon="-1.77063">
        <ele>87</ele>
        <time>2011-09-04T08:17:07Z</time>
      </trkpt>
      <trkpt lat="47.03905" lon="-1.77062">
        <ele>87</ele>
        <time>2011-09-04T08:17:08Z</time>
      </trkpt>
      <trkpt lat="47.03899" lon="-1.7706">
        <ele>87</ele>
        <time>2011-09-04T08:17:09Z</time>
      </trkpt>
      <trkpt lat="47.03894" lon="-1.77058">
        <ele>87</ele>
        <time>2011-09-04T08:17:10Z</time>
      </trkpt>
      <trkpt lat="47.0389" lon="-1.77056">
        <ele>87</ele>
        <time>2011-09-04T08:17:11Z</time>
      </trkpt>
      <trkpt lat="47.03885" lon="-1.77053">
        <ele>86</ele>
        <time>2011-09-04T08:17:12Z</time>
      </trkpt>
      <trkpt lat="47.0388" lon="-1.77051">
        <ele>86</ele>
        <time>2011-09-04T08:17:13Z</time>
      </trkpt>
      <trkpt lat="47.0387" lon="-1.77047">
        <ele>86</ele>
        <time>2011-09-04T08:17:15Z</time>
      </trkpt>
      <trkpt lat="47.03866" lon="-1.77045">
        <ele>85</ele>
        <time>2011-09-04T08:17:16Z</time>
      </trkpt>
      <trkpt lat="47.0386" lon="-1.77042">
        <ele>85</ele>
        <time>2011-09-04T08:17:17Z</time>
      </trkpt>
      <trkpt lat="47.03855" lon="-1.7704">
        <ele>85</ele>
        <time>2011-09-04T08:17:18Z</time>
      </trkpt>
      <trkpt lat="47.03851" lon="-1.77038">
        <ele>85</ele>
        <time>2011-09-04T08:17:19Z</time>
      </trkpt>
      <trkpt lat="47.03846" lon="-1.77035">
        <ele>84</ele>
        <time>2011-09-04T08:17:20Z</time>
      </trkpt>
      <trkpt lat="47.0384" lon="-1.77033">
        <ele>84</ele>
        <time>2011-09-04T08:17:21Z</time>
      </trkpt>
      <trkpt lat="47.03834" lon="-1.7703">
        <ele>84</ele>
        <time>2011-09-04T08:17:22Z</time>
      </trkpt>
      <trkpt lat="47.0383" lon="-1.77027">
        <ele>84</ele>
        <time>2011-09-04T08:17:23Z</time>
      </trkpt>
      <trkpt lat="47.03824" lon="-1.77025">
        <ele>84</ele>
        <time>2011-09-04T08:17:24Z</time>
      </trkpt>
      <trkpt lat="47.03819" lon="-1.77024">
        <ele>83</ele>
        <time>2011-09-04T08:17:25Z</time>
      </trkpt>
      <trkpt lat="47.03814" lon="-1.77022">
        <ele>83</ele>
        <time>2011-09-04T08:17:26Z</time>
      </trkpt>
      <trkpt lat="47.03809" lon="-1.77019">
        <ele>83</ele>
        <time>2011-09-04T08:17:27Z</time>
      </trkpt>
      <trkpt lat="47.03804" lon="-1.77017">
        <ele>82</ele>
        <time>2011-09-04T08:17:28Z</time>
      </trkpt>
      <trkpt lat="47.038" lon="-1.77014">
        <ele>82</ele>
        <time>2011-09-04T08:17:29Z</time>
      </trkpt>
      <trkpt lat="47.03795" lon="-1.77012">
        <ele>82</ele>
        <time>2011-09-04T08:17:30Z</time>
      </trkpt>
      <trkpt lat="47.03788" lon="-1.77006">
        <ele>82</ele>
        <time>2011-09-04T08:17:32Z</time>
      </trkpt>
      <trkpt lat="47.03784" lon="-1.77004">
        <ele>82</ele>
        <time>2011-09-04T08:17:33Z</time>
      </trkpt>
      <trkpt lat="47.03776" lon="-1.76998">
        <ele>81</ele>
        <time>2011-09-04T08:17:35Z</time>
      </trkpt>
      <trkpt lat="47.03769" lon="-1.76994">
        <ele>81</ele>
        <time>2011-09-04T08:17:37Z</time>
      </trkpt>
      <trkpt lat="47.03762" lon="-1.76987">
        <ele>80</ele>
        <time>2011-09-04T08:17:39Z</time>
      </trkpt>
      <trkpt lat="47.03758" lon="-1.76983">
        <ele>80</ele>
        <time>2011-09-04T08:17:40Z</time>
      </trkpt>
      <trkpt lat="47.03755" lon="-1.76978">
        <ele>80</ele>
        <time>2011-09-04T08:17:41Z</time>
      </trkpt>
      <trkpt lat="47.03752" lon="-1.7697">
        <ele>79</ele>
        <time>2011-09-04T08:17:42Z</time>
      </trkpt>
      <trkpt lat="47.03749" lon="-1.76962">
        <ele>79</ele>
        <time>2011-09-04T08:17:43Z</time>
      </trkpt>
      <trkpt lat="47.03746" lon="-1.76954">
        <ele>79</ele>
        <time>2011-09-04T08:17:44Z</time>
      </trkpt>
      <trkpt lat="47.03743" lon="-1.76946">
        <ele>79</ele>
        <time>2011-09-04T08:17:45Z</time>
      </trkpt>
      <trkpt lat="47.03739" lon="-1.76938">
        <ele>78</ele>
        <time>2011-09-04T08:17:46Z</time>
      </trkpt>
      <trkpt lat="47.03736" lon="-1.76931">
        <ele>78</ele>
        <time>2011-09-04T08:17:47Z</time>
      </trkpt>
      <trkpt lat="47.03732" lon="-1.76924">
        <ele>78</ele>
        <time>2011-09-04T08:17:48Z</time>
      </trkpt>
      <trkpt lat="47.03729" lon="-1.76918">
        <ele>78</ele>
        <time>2011-09-04T08:17:49Z</time>
      </trkpt>
      <trkpt lat="47.03724" lon="-1.76914">
        <ele>78</ele>
        <time>2011-09-04T08:17:50Z</time>
      </trkpt>
      <trkpt lat="47.03721" lon="-1.76908">
        <ele>78</ele>
        <time>2011-09-04T08:17:51Z</time>
      </trkpt>
      <trkpt lat="47.03716" lon="-1.76903">
        <ele>78</ele>
        <time>2011-09-04T08:17:52Z</time>
      </trkpt>
      <trkpt lat="47.03713" lon="-1.76898">
        <ele>78</ele>
        <time>2011-09-04T08:17:53Z</time>
      </trkpt>
      <trkpt lat="47.03709" lon="-1.76892">
        <ele>78</ele>
        <time>2011-09-04T08:17:54Z</time>
      </trkpt>
      <trkpt lat="47.03705" lon="-1.76887">
        <ele>77</ele>
        <time>2011-09-04T08:17:55Z</time>
      </trkpt>
      <trkpt lat="47.03697" lon="-1.7688">
        <ele>78</ele>
        <time>2011-09-04T08:17:57Z</time>
      </trkpt>
      <trkpt lat="47.03693" lon="-1.76877">
        <ele>77</ele>
        <time>2011-09-04T08:17:58Z</time>
      </trkpt>
      <trkpt lat="47.03687" lon="-1.76874">
        <ele>77</ele>
        <time>2011-09-04T08:17:59Z</time>
      </trkpt>
      <trkpt lat="47.03681" lon="-1.7687">
        <ele>78</ele>
        <time>2011-09-04T08:18:00Z</time>
      </trkpt>
      <trkpt lat="47.03675" lon="-1.76867">
        <ele>78</ele>
        <time>2011-09-04T08:18:01Z</time>
      </trkpt>
      <trkpt lat="47.0367" lon="-1.76866">
        <ele>78</ele>
        <time>2011-09-04T08:18:02Z</time>
      </trkpt>
      <trkpt lat="47.03665" lon="-1.76864">
        <ele>78</ele>
        <time>2011-09-04T08:18:03Z</time>
      </trkpt>
      <trkpt lat="47.0366" lon="-1.76864">
        <ele>78</ele>
        <time>2011-09-04T08:18:04Z</time>
      </trkpt>
      <trkpt lat="47.03655" lon="-1.76865">
        <ele>79</ele>
        <time>2011-09-04T08:18:05Z</time>
      </trkpt>
      <trkpt lat="47.03645" lon="-1.76865">
        <ele>79</ele>
        <time>2011-09-04T08:18:07Z</time>
      </trkpt>
      <trkpt lat="47.0364" lon="-1.76865">
        <ele>79</ele>
        <time>2011-09-04T08:18:08Z</time>
      </trkpt>
      <trkpt lat="47.03635" lon="-1.76865">
        <ele>79</ele>
        <time>2011-09-04T08:18:09Z</time>
      </trkpt>
      <trkpt lat="47.0363" lon="-1.76865">
        <ele>79</ele>
        <time>2011-09-04T08:18:10Z</time>
      </trkpt>
      <trkpt lat="47.03625" lon="-1.76866">
        <ele>79</ele>
        <time>2011-09-04T08:18:11Z</time>
      </trkpt>
      <trkpt lat="47.03619" lon="-1.76867">
        <ele>80</ele>
        <time>2011-09-04T08:18:12Z</time>
      </trkpt>
      <trkpt lat="47.03614" lon="-1.76866">
        <ele>80</ele>
        <time>2011-09-04T08:18:13Z</time>
      </trkpt>
      <trkpt lat="47.03605" lon="-1.76863">
        <ele>81</ele>
        <time>2011-09-04T08:18:15Z</time>
      </trkpt>
      <trkpt lat="47.036" lon="-1.76862">
        <ele>81</ele>
        <time>2011-09-04T08:18:16Z</time>
      </trkpt>
      <trkpt lat="47.03594" lon="-1.76861">
        <ele>81</ele>
        <time>2011-09-04T08:18:17Z</time>
      </trkpt>
      <trkpt lat="47.03588" lon="-1.76861">
        <ele>80</ele>
        <time>2011-09-04T08:18:18Z</time>
      </trkpt>
      <trkpt lat="47.03583" lon="-1.7686">
        <ele>81</ele>
        <time>2011-09-04T08:18:19Z</time>
      </trkpt>
      <trkpt lat="47.03578" lon="-1.76859">
        <ele>80</ele>
        <time>2011-09-04T08:18:20Z</time>
      </trkpt>
      <trkpt lat="47.03572" lon="-1.76859">
        <ele>81</ele>
        <time>2011-09-04T08:18:21Z</time>
      </trkpt>
      <trkpt lat="47.03566" lon="-1.7686">
        <ele>81</ele>
        <time>2011-09-04T08:18:22Z</time>
      </trkpt>
      <trkpt lat="47.03559" lon="-1.76863">
        <ele>81</ele>
        <time>2011-09-04T08:18:23Z</time>
      </trkpt>
      <trkpt lat="47.03554" lon="-1.76864">
        <ele>81</ele>
        <time>2011-09-04T08:18:24Z</time>
      </trkpt>
      <trkpt lat="47.03548" lon="-1.76864">
        <ele>81</ele>
        <time>2011-09-04T08:18:25Z</time>
      </trkpt>
      <trkpt lat="47.03543" lon="-1.76864">
        <ele>81</ele>
        <time>2011-09-04T08:18:26Z</time>
      </trkpt>
      <trkpt lat="47.03538" lon="-1.76865">
        <ele>81</ele>
        <time>2011-09-04T08:18:27Z</time>
      </trkpt>
      <trkpt lat="47.03533" lon="-1.76867">
        <ele>81</ele>
        <time>2011-09-04T08:18:28Z</time>
      </trkpt>
      <trkpt lat="47.03528" lon="-1.7687">
        <ele>81</ele>
        <time>2011-09-04T08:18:29Z</time>
      </trkpt>
      <trkpt lat="47.03522" lon="-1.76873">
        <ele>81</ele>
        <time>2011-09-04T08:18:30Z</time>
      </trkpt>
      <trkpt lat="47.03517" lon="-1.76877">
        <ele>81</ele>
        <time>2011-09-04T08:18:31Z</time>
      </trkpt>
      <trkpt lat="47.03512" lon="-1.7688">
        <ele>81</ele>
        <time>2011-09-04T08:18:32Z</time>
      </trkpt>
      <trkpt lat="47.03503" lon="-1.76881">
        <ele>81</ele>
        <time>2011-09-04T08:18:34Z</time>
      </trkpt>
      <trkpt lat="47.03497" lon="-1.76883">
        <ele>80</ele>
        <time>2011-09-04T08:18:36Z</time>
      </trkpt>
      <trkpt lat="47.03495" lon="-1.76875">
        <ele>78</ele>
        <time>2011-09-04T08:18:39Z</time>
      </trkpt>
      <trkpt lat="47.03496" lon="-1.76867">
        <ele>77</ele>
        <time>2011-09-04T08:18:41Z</time>
      </trkpt>
      <trkpt lat="47.03497" lon="-1.76859">
        <ele>77</ele>
        <time>2011-09-04T08:18:43Z</time>
      </trkpt>
      <trkpt lat="47.03498" lon="-1.7685">
        <ele>75</ele>
        <time>2011-09-04T08:18:45Z</time>
      </trkpt>
      <trkpt lat="47.03495" lon="-1.76843">
        <ele>75</ele>
        <time>2011-09-04T08:18:47Z</time>
      </trkpt>
      <trkpt lat="47.03491" lon="-1.76838">
        <ele>75</ele>
        <time>2011-09-04T08:18:49Z</time>
      </trkpt>
      <trkpt lat="47.03484" lon="-1.76837">
        <ele>75</ele>
        <time>2011-09-04T08:18:52Z</time>
      </trkpt>
      <trkpt lat="47.03478" lon="-1.7684">
        <ele>75</ele>
        <time>2011-09-04T08:18:54Z</time>
      </trkpt>
      <trkpt lat="47.03472" lon="-1.76842">
        <ele>74</ele>
        <time>2011-09-04T08:18:57Z</time>
      </trkpt>
      <trkpt lat="47.03466" lon="-1.76842">
        <ele>73</ele>
        <time>2011-09-04T08:19:02Z</time>
      </trkpt>
      <trkpt lat="47.03465" lon="-1.76849">
        <ele>72</ele>
        <time>2011-09-04T08:19:13Z</time>
      </trkpt>
      <trkpt lat="47.03469" lon="-1.76854">
        <ele>73</ele>
        <time>2011-09-04T08:19:39Z</time>
      </trkpt>
      <trkpt lat="47.0347" lon="-1.76847">
        <ele>72</ele>
        <time>2011-09-04T08:19:58Z</time>
      </trkpt>
      <trkpt lat="47.03462" lon="-1.76847">
        <ele>78</ele>
        <time>2011-09-04T08:21:02Z</time>
      </trkpt>
      <trkpt lat="47.03457" lon="-1.76847">
        <ele>78</ele>
        <time>2011-09-04T08:21:05Z</time>
      </trkpt>
      <trkpt lat="47.03452" lon="-1.76846">
        <ele>77</ele>
        <time>2011-09-04T08:21:09Z</time>
      </trkpt>
      <trkpt lat="47.03447" lon="-1.76847">
        <ele>77</ele>
        <time>2011-09-04T08:21:12Z</time>
      </trkpt>
      <trkpt lat="47.03442" lon="-1.76848">
        <ele>78</ele>
        <time>2011-09-04T08:21:14Z</time>
      </trkpt>
      <trkpt lat="47.03437" lon="-1.76849">
        <ele>78</ele>
        <time>2011-09-04T08:21:16Z</time>
      </trkpt>
      <trkpt lat="47.03432" lon="-1.76851">
        <ele>78</ele>
        <time>2011-09-04T08:21:18Z</time>
      </trkpt>
      <trkpt lat="47.03426" lon="-1.76856">
        <ele>78</ele>
        <time>2011-09-04T08:21:20Z</time>
      </trkpt>
      <trkpt lat="47.03419" lon="-1.7686">
        <ele>77</ele>
        <time>2011-09-04T08:21:22Z</time>
      </trkpt>
      <trkpt lat="47.0341" lon="-1.76868">
        <ele>77</ele>
        <time>2011-09-04T08:21:24Z</time>
      </trkpt>
      <trkpt lat="47.03405" lon="-1.76871">
        <ele>77</ele>
        <time>2011-09-04T08:21:25Z</time>
      </trkpt>
      <trkpt lat="47.034" lon="-1.76876">
        <ele>77</ele>
        <time>2011-09-04T08:21:26Z</time>
      </trkpt>
      <trkpt lat="47.03395" lon="-1.76879">
        <ele>77</ele>
        <time>2011-09-04T08:21:27Z</time>
      </trkpt>
      <trkpt lat="47.03386" lon="-1.76882">
        <ele>78</ele>
        <time>2011-09-04T08:21:29Z</time>
      </trkpt>
      <trkpt lat="47.03381" lon="-1.76884">
        <ele>78</ele>
        <time>2011-09-04T08:21:30Z</time>
      </trkpt>
      <trkpt lat="47.03376" lon="-1.76886">
        <ele>78</ele>
        <time>2011-09-04T08:21:31Z</time>
      </trkpt>
      <trkpt lat="47.03372" lon="-1.76889">
        <ele>79</ele>
        <time>2011-09-04T08:21:32Z</time>
      </trkpt>
      <trkpt lat="47.03365" lon="-1.7689">
        <ele>78</ele>
        <time>2011-09-04T08:21:34Z</time>
      </trkpt>
      <trkpt lat="47.03359" lon="-1.76893">
        <ele>79</ele>
        <time>2011-09-04T08:21:35Z</time>
      </trkpt>
      <trkpt lat="47.03352" lon="-1.76895">
        <ele>79</ele>
        <time>2011-09-04T08:21:37Z</time>
      </trkpt>
      <trkpt lat="47.03348" lon="-1.76899">
        <ele>79</ele>
        <time>2011-09-04T08:21:38Z</time>
      </trkpt>
      <trkpt lat="47.03342" lon="-1.76904">
        <ele>79</ele>
        <time>2011-09-04T08:21:39Z</time>
      </trkpt>
      <trkpt lat="47.03337" lon="-1.76909">
        <ele>78</ele>
        <time>2011-09-04T08:21:40Z</time>
      </trkpt>
      <trkpt lat="47.03332" lon="-1.76912">
        <ele>79</ele>
        <time>2011-09-04T08:21:41Z</time>
      </trkpt>
      <trkpt lat="47.03327" lon="-1.76913">
        <ele>79</ele>
        <time>2011-09-04T08:21:42Z</time>
      </trkpt>
      <trkpt lat="47.03318" lon="-1.7691">
        <ele>79</ele>
        <time>2011-09-04T08:21:44Z</time>
      </trkpt>
      <trkpt lat="47.03312" lon="-1.76909">
        <ele>79</ele>
        <time>2011-09-04T08:21:45Z</time>
      </trkpt>
      <trkpt lat="47.03305" lon="-1.76909">
        <ele>79</ele>
        <time>2011-09-04T08:21:46Z</time>
      </trkpt>
      <trkpt lat="47.03297" lon="-1.76913">
        <ele>80</ele>
        <time>2011-09-04T08:21:47Z</time>
      </trkpt>
      <trkpt lat="47.03288" lon="-1.76918">
        <ele>80</ele>
        <time>2011-09-04T08:21:48Z</time>
      </trkpt>
      <trkpt lat="47.03279" lon="-1.76924">
        <ele>81</ele>
        <time>2011-09-04T08:21:49Z</time>
      </trkpt>
      <trkpt lat="47.03272" lon="-1.76928">
        <ele>80</ele>
        <time>2011-09-04T08:21:50Z</time>
      </trkpt>
      <trkpt lat="47.03264" lon="-1.76932">
        <ele>80</ele>
        <time>2011-09-04T08:21:51Z</time>
      </trkpt>
      <trkpt lat="47.03257" lon="-1.76937">
        <ele>80</ele>
        <time>2011-09-04T08:21:52Z</time>
      </trkpt>
      <trkpt lat="47.0325" lon="-1.76944">
        <ele>78</ele>
        <time>2011-09-04T08:21:53Z</time>
      </trkpt>
      <trkpt lat="47.03243" lon="-1.7695">
        <ele>78</ele>
        <time>2011-09-04T08:21:54Z</time>
      </trkpt>
      <trkpt lat="47.03236" lon="-1.76952">
        <ele>77</ele>
        <time>2011-09-04T08:21:55Z</time>
      </trkpt>
      <trkpt lat="47.03229" lon="-1.76953">
        <ele>77</ele>
        <time>2011-09-04T08:21:56Z</time>
      </trkpt>
      <trkpt lat="47.03223" lon="-1.76955">
        <ele>77</ele>
        <time>2011-09-04T08:21:57Z</time>
      </trkpt>
      <trkpt lat="47.03216" lon="-1.76956">
        <ele>77</ele>
        <time>2011-09-04T08:21:58Z</time>
      </trkpt>
      <trkpt lat="47.0321" lon="-1.76956">
        <ele>77</ele>
        <time>2011-09-04T08:21:59Z</time>
      </trkpt>
      <trkpt lat="47.03203" lon="-1.76956">
        <ele>77</ele>
        <time>2011-09-04T08:22:00Z</time>
      </trkpt>
      <trkpt lat="47.03197" lon="-1.76956">
        <ele>76</ele>
        <time>2011-09-04T08:22:01Z</time>
      </trkpt>
      <trkpt lat="47.03191" lon="-1.76956">
        <ele>76</ele>
        <time>2011-09-04T08:22:02Z</time>
      </trkpt>
      <trkpt lat="47.03184" lon="-1.76956">
        <ele>77</ele>
        <time>2011-09-04T08:22:03Z</time>
      </trkpt>
      <trkpt lat="47.03177" lon="-1.76956">
        <ele>76</ele>
        <time>2011-09-04T08:22:04Z</time>
      </trkpt>
      <trkpt lat="47.0317" lon="-1.76956">
        <ele>76</ele>
        <time>2011-09-04T08:22:05Z</time>
      </trkpt>
      <trkpt lat="47.03163" lon="-1.76956">
        <ele>76</ele>
        <time>2011-09-04T08:22:06Z</time>
      </trkpt>
      <trkpt lat="47.03156" lon="-1.76957">
        <ele>76</ele>
        <time>2011-09-04T08:22:07Z</time>
      </trkpt>
      <trkpt lat="47.0315" lon="-1.76958">
        <ele>76</ele>
        <time>2011-09-04T08:22:08Z</time>
      </trkpt>
      <trkpt lat="47.03143" lon="-1.7696">
        <ele>75</ele>
        <time>2011-09-04T08:22:09Z</time>
      </trkpt>
      <trkpt lat="47.03136" lon="-1.76962">
        <ele>75</ele>
        <time>2011-09-04T08:22:10Z</time>
      </trkpt>
      <trkpt lat="47.03131" lon="-1.76963">
        <ele>74</ele>
        <time>2011-09-04T08:22:11Z</time>
      </trkpt>
      <trkpt lat="47.03125" lon="-1.76963">
        <ele>74</ele>
        <time>2011-09-04T08:22:12Z</time>
      </trkpt>
      <trkpt lat="47.03119" lon="-1.76962">
        <ele>74</ele>
        <time>2011-09-04T08:22:13Z</time>
      </trkpt>
      <trkpt lat="47.03113" lon="-1.76964">
        <ele>74</ele>
        <time>2011-09-04T08:22:14Z</time>
      </trkpt>
      <trkpt lat="47.03107" lon="-1.76964">
        <ele>73</ele>
        <time>2011-09-04T08:22:15Z</time>
      </trkpt>
      <trkpt lat="47.03101" lon="-1.76965">
        <ele>73</ele>
        <time>2011-09-04T08:22:16Z</time>
      </trkpt>
      <trkpt lat="47.03096" lon="-1.76965">
        <ele>73</ele>
        <time>2011-09-04T08:22:17Z</time>
      </trkpt>
      <trkpt lat="47.03089" lon="-1.76965">
        <ele>73</ele>
        <time>2011-09-04T08:22:18Z</time>
      </trkpt>
      <trkpt lat="47.03084" lon="-1.76964">
        <ele>73</ele>
        <time>2011-09-04T08:22:19Z</time>
      </trkpt>
      <trkpt lat="47.03078" lon="-1.76964">
        <ele>72</ele>
        <time>2011-09-04T08:22:20Z</time>
      </trkpt>
      <trkpt lat="47.03072" lon="-1.76964">
        <ele>72</ele>
        <time>2011-09-04T08:22:21Z</time>
      </trkpt>
      <trkpt lat="47.03066" lon="-1.76964">
        <ele>73</ele>
        <time>2011-09-04T08:22:22Z</time>
      </trkpt>
      <trkpt lat="47.0306" lon="-1.76964">
        <ele>73</ele>
        <time>2011-09-04T08:22:23Z</time>
      </trkpt>
      <trkpt lat="47.03054" lon="-1.76964">
        <ele>73</ele>
        <time>2011-09-04T08:22:24Z</time>
      </trkpt>
      <trkpt lat="47.03048" lon="-1.76964">
        <ele>73</ele>
        <time>2011-09-04T08:22:25Z</time>
      </trkpt>
      <trkpt lat="47.03044" lon="-1.76962">
        <ele>73</ele>
        <time>2011-09-04T08:22:26Z</time>
      </trkpt>
      <trkpt lat="47.03034" lon="-1.76959">
        <ele>72</ele>
        <time>2011-09-04T08:22:28Z</time>
      </trkpt>
      <trkpt lat="47.03029" lon="-1.76959">
        <ele>72</ele>
        <time>2011-09-04T08:22:29Z</time>
      </trkpt>
      <trkpt lat="47.03023" lon="-1.76958">
        <ele>72</ele>
        <time>2011-09-04T08:22:30Z</time>
      </trkpt>
      <trkpt lat="47.03017" lon="-1.76956">
        <ele>72</ele>
        <time>2011-09-04T08:22:31Z</time>
      </trkpt>
      <trkpt lat="47.03011" lon="-1.76956">
        <ele>72</ele>
        <time>2011-09-04T08:22:32Z</time>
      </trkpt>
      <trkpt lat="47.03001" lon="-1.76952">
        <ele>72</ele>
        <time>2011-09-04T08:22:34Z</time>
      </trkpt>
      <trkpt lat="47.02996" lon="-1.76951">
        <ele>72</ele>
        <time>2011-09-04T08:22:35Z</time>
      </trkpt>
      <trkpt lat="47.02991" lon="-1.76949">
        <ele>72</ele>
        <time>2011-09-04T08:22:36Z</time>
      </trkpt>
      <trkpt lat="47.02986" lon="-1.76947">
        <ele>72</ele>
        <time>2011-09-04T08:22:37Z</time>
      </trkpt>
      <trkpt lat="47.02981" lon="-1.76946">
        <ele>72</ele>
        <time>2011-09-04T08:22:38Z</time>
      </trkpt>
      <trkpt lat="47.02976" lon="-1.76944">
        <ele>71</ele>
        <time>2011-09-04T08:22:39Z</time>
      </trkpt>
      <trkpt lat="47.02971" lon="-1.76942">
        <ele>71</ele>
        <time>2011-09-04T08:22:40Z</time>
      </trkpt>
      <trkpt lat="47.02966" lon="-1.7694">
        <ele>71</ele>
        <time>2011-09-04T08:22:41Z</time>
      </trkpt>
      <trkpt lat="47.02962" lon="-1.76939">
        <ele>71</ele>
        <time>2011-09-04T08:22:42Z</time>
      </trkpt>
      <trkpt lat="47.02957" lon="-1.76939">
        <ele>71</ele>
        <time>2011-09-04T08:22:43Z</time>
      </trkpt>
      <trkpt lat="47.02952" lon="-1.76938">
        <ele>71</ele>
        <time>2011-09-04T08:22:44Z</time>
      </trkpt>
      <trkpt lat="47.02947" lon="-1.76936">
        <ele>70</ele>
        <time>2011-09-04T08:22:45Z</time>
      </trkpt>
      <trkpt lat="47.02941" lon="-1.76934">
        <ele>70</ele>
        <time>2011-09-04T08:22:46Z</time>
      </trkpt>
      <trkpt lat="47.02936" lon="-1.76933">
        <ele>71</ele>
        <time>2011-09-04T08:22:47Z</time>
      </trkpt>
      <trkpt lat="47.0293" lon="-1.76931">
        <ele>71</ele>
        <time>2011-09-04T08:22:48Z</time>
      </trkpt>
      <trkpt lat="47.02926" lon="-1.76929">
        <ele>71</ele>
        <time>2011-09-04T08:22:49Z</time>
      </trkpt>
      <trkpt lat="47.02921" lon="-1.76928">
        <ele>71</ele>
        <time>2011-09-04T08:22:50Z</time>
      </trkpt>
      <trkpt lat="47.02916" lon="-1.76927">
        <ele>71</ele>
        <time>2011-09-04T08:22:51Z</time>
      </trkpt>
      <trkpt lat="47.02911" lon="-1.76924">
        <ele>71</ele>
        <time>2011-09-04T08:22:52Z</time>
      </trkpt>
      <trkpt lat="47.02903" lon="-1.76921">
        <ele>70</ele>
        <time>2011-09-04T08:22:54Z</time>
      </trkpt>
      <trkpt lat="47.02895" lon="-1.76917">
        <ele>70</ele>
        <time>2011-09-04T08:22:56Z</time>
      </trkpt>
      <trkpt lat="47.0289" lon="-1.76915">
        <ele>70</ele>
        <time>2011-09-04T08:22:57Z</time>
      </trkpt>
      <trkpt lat="47.02882" lon="-1.76914">
        <ele>70</ele>
        <time>2011-09-04T08:22:59Z</time>
      </trkpt>
      <trkpt lat="47.02874" lon="-1.76912">
        <ele>70</ele>
        <time>2011-09-04T08:23:01Z</time>
      </trkpt>
      <trkpt lat="47.02866" lon="-1.76908">
        <ele>71</ele>
        <time>2011-09-04T08:23:03Z</time>
      </trkpt>
      <trkpt lat="47.0286" lon="-1.76906">
        <ele>71</ele>
        <time>2011-09-04T08:23:05Z</time>
      </trkpt>
      <trkpt lat="47.02853" lon="-1.76904">
        <ele>72</ele>
        <time>2011-09-04T08:23:07Z</time>
      </trkpt>
      <trkpt lat="47.02846" lon="-1.76902">
        <ele>71</ele>
        <time>2011-09-04T08:23:09Z</time>
      </trkpt>
      <trkpt lat="47.02839" lon="-1.76899">
        <ele>72</ele>
        <time>2011-09-04T08:23:11Z</time>
      </trkpt>
      <trkpt lat="47.02831" lon="-1.76896">
        <ele>72</ele>
        <time>2011-09-04T08:23:13Z</time>
      </trkpt>
      <trkpt lat="47.02824" lon="-1.76895">
        <ele>72</ele>
        <time>2011-09-04T08:23:15Z</time>
      </trkpt>
      <trkpt lat="47.02817" lon="-1.76895">
        <ele>72</ele>
        <time>2011-09-04T08:23:17Z</time>
      </trkpt>
      <trkpt lat="47.02808" lon="-1.76895">
        <ele>73</ele>
        <time>2011-09-04T08:23:19Z</time>
      </trkpt>
      <trkpt lat="47.02801" lon="-1.76897">
        <ele>73</ele>
        <time>2011-09-04T08:23:21Z</time>
      </trkpt>
      <trkpt lat="47.02793" lon="-1.76899">
        <ele>73</ele>
        <time>2011-09-04T08:23:23Z</time>
      </trkpt>
      <trkpt lat="47.02785" lon="-1.769">
        <ele>73</ele>
        <time>2011-09-04T08:23:25Z</time>
      </trkpt>
      <trkpt lat="47.02777" lon="-1.76902">
        <ele>73</ele>
        <time>2011-09-04T08:23:27Z</time>
      </trkpt>
      <trkpt lat="47.02772" lon="-1.76903">
        <ele>73</ele>
        <time>2011-09-04T08:23:28Z</time>
      </trkpt>
      <trkpt lat="47.02764" lon="-1.76906">
        <ele>73</ele>
        <time>2011-09-04T08:23:30Z</time>
      </trkpt>
      <trkpt lat="47.02755" lon="-1.76908">
        <ele>74</ele>
        <time>2011-09-04T08:23:32Z</time>
      </trkpt>
      <trkpt lat="47.02745" lon="-1.76908">
        <ele>74</ele>
        <time>2011-09-04T08:23:34Z</time>
      </trkpt>
      <trkpt lat="47.02737" lon="-1.76909">
        <ele>73</ele>
        <time>2011-09-04T08:23:36Z</time>
      </trkpt>
      <trkpt lat="47.02732" lon="-1.7691">
        <ele>73</ele>
        <time>2011-09-04T08:23:37Z</time>
      </trkpt>
      <trkpt lat="47.02722" lon="-1.76911">
        <ele>73</ele>
        <time>2011-09-04T08:23:39Z</time>
      </trkpt>
      <trkpt lat="47.02713" lon="-1.76911">
        <ele>73</ele>
        <time>2011-09-04T08:23:41Z</time>
      </trkpt>
      <trkpt lat="47.02707" lon="-1.76911">
        <ele>73</ele>
        <time>2011-09-04T08:23:42Z</time>
      </trkpt>
      <trkpt lat="47.02702" lon="-1.7691">
        <ele>73</ele>
        <time>2011-09-04T08:23:43Z</time>
      </trkpt>
      <trkpt lat="47.02697" lon="-1.7691">
        <ele>73</ele>
        <time>2011-09-04T08:23:44Z</time>
      </trkpt>
      <trkpt lat="47.02692" lon="-1.7691">
        <ele>73</ele>
        <time>2011-09-04T08:23:45Z</time>
      </trkpt>
      <trkpt lat="47.02687" lon="-1.76909">
        <ele>73</ele>
        <time>2011-09-04T08:23:46Z</time>
      </trkpt>
      <trkpt lat="47.02682" lon="-1.76909">
        <ele>73</ele>
        <time>2011-09-04T08:23:47Z</time>
      </trkpt>
      <trkpt lat="47.02673" lon="-1.76908">
        <ele>73</ele>
        <time>2011-09-04T08:23:49Z</time>
      </trkpt>
      <trkpt lat="47.02668" lon="-1.76907">
        <ele>73</ele>
        <time>2011-09-04T08:23:50Z</time>
      </trkpt>
      <trkpt lat="47.02659" lon="-1.76907">
        <ele>74</ele>
        <time>2011-09-04T08:23:52Z</time>
      </trkpt>
      <trkpt lat="47.02654" lon="-1.76906">
        <ele>74</ele>
        <time>2011-09-04T08:23:53Z</time>
      </trkpt>
      <trkpt lat="47.02649" lon="-1.76906">
        <ele>74</ele>
        <time>2011-09-04T08:23:54Z</time>
      </trkpt>
      <trkpt lat="47.02644" lon="-1.76906">
        <ele>74</ele>
        <time>2011-09-04T08:23:55Z</time>
      </trkpt>
      <trkpt lat="47.02639" lon="-1.76905">
        <ele>74</ele>
        <time>2011-09-04T08:23:56Z</time>
      </trkpt>
      <trkpt lat="47.0263" lon="-1.76904">
        <ele>74</ele>
        <time>2011-09-04T08:23:58Z</time>
      </trkpt>
      <trkpt lat="47.02625" lon="-1.76904">
        <ele>74</ele>
        <time>2011-09-04T08:23:59Z</time>
      </trkpt>
      <trkpt lat="47.02616" lon="-1.76902">
        <ele>74</ele>
        <time>2011-09-04T08:24:01Z</time>
      </trkpt>
      <trkpt lat="47.02607" lon="-1.76902">
        <ele>75</ele>
        <time>2011-09-04T08:24:03Z</time>
      </trkpt>
      <trkpt lat="47.02598" lon="-1.769">
        <ele>75</ele>
        <time>2011-09-04T08:24:05Z</time>
      </trkpt>
      <trkpt lat="47.02589" lon="-1.769">
        <ele>75</ele>
        <time>2011-09-04T08:24:07Z</time>
      </trkpt>
      <trkpt lat="47.02584" lon="-1.769">
        <ele>75</ele>
        <time>2011-09-04T08:24:08Z</time>
      </trkpt>
      <trkpt lat="47.0258" lon="-1.76899">
        <ele>75</ele>
        <time>2011-09-04T08:24:09Z</time>
      </trkpt>
      <trkpt lat="47.02571" lon="-1.76896">
        <ele>74</ele>
        <time>2011-09-04T08:24:11Z</time>
      </trkpt>
      <trkpt lat="47.02562" lon="-1.76893">
        <ele>73</ele>
        <time>2011-09-04T08:24:13Z</time>
      </trkpt>
      <trkpt lat="47.02557" lon="-1.76894">
        <ele>73</ele>
        <time>2011-09-04T08:24:14Z</time>
      </trkpt>
      <trkpt lat="47.02552" lon="-1.76895">
        <ele>73</ele>
        <time>2011-09-04T08:24:15Z</time>
      </trkpt>
      <trkpt lat="47.02547" lon="-1.76896">
        <ele>73</ele>
        <time>2011-09-04T08:24:16Z</time>
      </trkpt>
      <trkpt lat="47.02542" lon="-1.76898">
        <ele>73</ele>
        <time>2011-09-04T08:24:17Z</time>
      </trkpt>
      <trkpt lat="47.02537" lon="-1.76898">
        <ele>73</ele>
        <time>2011-09-04T08:24:18Z</time>
      </trkpt>
      <trkpt lat="47.02532" lon="-1.76899">
        <ele>73</ele>
        <time>2011-09-04T08:24:19Z</time>
      </trkpt>
      <trkpt lat="47.02527" lon="-1.769">
        <ele>73</ele>
        <time>2011-09-04T08:24:20Z</time>
      </trkpt>
      <trkpt lat="47.02522" lon="-1.76901">
        <ele>73</ele>
        <time>2011-09-04T08:24:21Z</time>
      </trkpt>
      <trkpt lat="47.02513" lon="-1.76902">
        <ele>72</ele>
        <time>2011-09-04T08:24:23Z</time>
      </trkpt>
      <trkpt lat="47.02505" lon="-1.76904">
        <ele>72</ele>
        <time>2011-09-04T08:24:25Z</time>
      </trkpt>
      <trkpt lat="47.02496" lon="-1.76907">
        <ele>72</ele>
        <time>2011-09-04T08:24:27Z</time>
      </trkpt>
      <trkpt lat="47.02491" lon="-1.76909">
        <ele>72</ele>
        <time>2011-09-04T08:24:28Z</time>
      </trkpt>
      <trkpt lat="47.02485" lon="-1.76912">
        <ele>72</ele>
        <time>2011-09-04T08:24:29Z</time>
      </trkpt>
      <trkpt lat="47.02476" lon="-1.76914">
        <ele>73</ele>
        <time>2011-09-04T08:24:31Z</time>
      </trkpt>
      <trkpt lat="47.02467" lon="-1.76917">
        <ele>73</ele>
        <time>2011-09-04T08:24:33Z</time>
      </trkpt>
      <trkpt lat="47.02462" lon="-1.7692">
        <ele>73</ele>
        <time>2011-09-04T08:24:34Z</time>
      </trkpt>
      <trkpt lat="47.02456" lon="-1.76923">
        <ele>72</ele>
        <time>2011-09-04T08:24:35Z</time>
      </trkpt>
      <trkpt lat="47.02451" lon="-1.76925">
        <ele>72</ele>
        <time>2011-09-04T08:24:36Z</time>
      </trkpt>
      <trkpt lat="47.02445" lon="-1.76928">
        <ele>72</ele>
        <time>2011-09-04T08:24:37Z</time>
      </trkpt>
      <trkpt lat="47.02439" lon="-1.76932">
        <ele>72</ele>
        <time>2011-09-04T08:24:38Z</time>
      </trkpt>
      <trkpt lat="47.02432" lon="-1.76936">
        <ele>71</ele>
        <time>2011-09-04T08:24:39Z</time>
      </trkpt>
      <trkpt lat="47.02426" lon="-1.76941">
        <ele>71</ele>
        <time>2011-09-04T08:24:40Z</time>
      </trkpt>
      <trkpt lat="47.0242" lon="-1.76945">
        <ele>71</ele>
        <time>2011-09-04T08:24:41Z</time>
      </trkpt>
      <trkpt lat="47.02414" lon="-1.7695">
        <ele>71</ele>
        <time>2011-09-04T08:24:42Z</time>
      </trkpt>
      <trkpt lat="47.02408" lon="-1.76952">
        <ele>71</ele>
        <time>2011-09-04T08:24:43Z</time>
      </trkpt>
      <trkpt lat="47.02402" lon="-1.76956">
        <ele>71</ele>
        <time>2011-09-04T08:24:44Z</time>
      </trkpt>
      <trkpt lat="47.02396" lon="-1.7696">
        <ele>71</ele>
        <time>2011-09-04T08:24:45Z</time>
      </trkpt>
      <trkpt lat="47.02389" lon="-1.76966">
        <ele>71</ele>
        <time>2011-09-04T08:24:46Z</time>
      </trkpt>
      <trkpt lat="47.02383" lon="-1.7697">
        <ele>71</ele>
        <time>2011-09-04T08:24:47Z</time>
      </trkpt>
      <trkpt lat="47.02378" lon="-1.76973">
        <ele>71</ele>
        <time>2011-09-04T08:24:48Z</time>
      </trkpt>
      <trkpt lat="47.02373" lon="-1.76975">
        <ele>72</ele>
        <time>2011-09-04T08:24:49Z</time>
      </trkpt>
      <trkpt lat="47.02368" lon="-1.76978">
        <ele>72</ele>
        <time>2011-09-04T08:24:50Z</time>
      </trkpt>
      <trkpt lat="47.02361" lon="-1.76981">
        <ele>72</ele>
        <time>2011-09-04T08:24:52Z</time>
      </trkpt>
      <trkpt lat="47.02356" lon="-1.76981">
        <ele>73</ele>
        <time>2011-09-04T08:24:54Z</time>
      </trkpt>
      <trkpt lat="47.02352" lon="-1.76984">
        <ele>73</ele>
        <time>2011-09-04T08:24:56Z</time>
      </trkpt>
      <trkpt lat="47.02347" lon="-1.76989">
        <ele>73</ele>
        <time>2011-09-04T08:24:59Z</time>
      </trkpt>
      <trkpt lat="47.02343" lon="-1.76994">
        <ele>73</ele>
        <time>2011-09-04T08:25:02Z</time>
      </trkpt>
      <trkpt lat="47.02338" lon="-1.76997">
        <ele>72</ele>
        <time>2011-09-04T08:25:04Z</time>
      </trkpt>
      <trkpt lat="47.02332" lon="-1.77">
        <ele>72</ele>
        <time>2011-09-04T08:25:08Z</time>
      </trkpt>
      <trkpt lat="47.02326" lon="-1.77004">
        <ele>71</ele>
        <time>2011-09-04T08:25:11Z</time>
      </trkpt>
      <trkpt lat="47.02321" lon="-1.77006">
        <ele>70</ele>
        <time>2011-09-04T08:25:14Z</time>
      </trkpt>
      <trkpt lat="47.02316" lon="-1.77011">
        <ele>69</ele>
        <time>2011-09-04T08:25:17Z</time>
      </trkpt>
      <trkpt lat="47.0231" lon="-1.77014">
        <ele>68</ele>
        <time>2011-09-04T08:25:19Z</time>
      </trkpt>
      <trkpt lat="47.02304" lon="-1.77018">
        <ele>68</ele>
        <time>2011-09-04T08:25:21Z</time>
      </trkpt>
      <trkpt lat="47.02299" lon="-1.77022">
        <ele>68</ele>
        <time>2011-09-04T08:25:23Z</time>
      </trkpt>
      <trkpt lat="47.02293" lon="-1.77026">
        <ele>67</ele>
        <time>2011-09-04T08:25:25Z</time>
      </trkpt>
      <trkpt lat="47.02289" lon="-1.7703">
        <ele>67</ele>
        <time>2011-09-04T08:25:27Z</time>
      </trkpt>
      <trkpt lat="47.02284" lon="-1.77032">
        <ele>66</ele>
        <time>2011-09-04T08:25:29Z</time>
      </trkpt>
      <trkpt lat="47.02278" lon="-1.77034">
        <ele>66</ele>
        <time>2011-09-04T08:25:32Z</time>
      </trkpt>
      <trkpt lat="47.02273" lon="-1.77035">
        <ele>66</ele>
        <time>2011-09-04T08:25:35Z</time>
      </trkpt>
      <trkpt lat="47.02267" lon="-1.77033">
        <ele>66</ele>
        <time>2011-09-04T08:25:38Z</time>
      </trkpt>
      <trkpt lat="47.02262" lon="-1.77032">
        <ele>66</ele>
        <time>2011-09-04T08:25:41Z</time>
      </trkpt>
      <trkpt lat="47.02255" lon="-1.77031">
        <ele>65</ele>
        <time>2011-09-04T08:25:44Z</time>
      </trkpt>
      <trkpt lat="47.02248" lon="-1.77033">
        <ele>64</ele>
        <time>2011-09-04T08:25:47Z</time>
      </trkpt>
      <trkpt lat="47.02242" lon="-1.77032">
        <ele>64</ele>
        <time>2011-09-04T08:25:50Z</time>
      </trkpt>
      <trkpt lat="47.02236" lon="-1.77031">
        <ele>64</ele>
        <time>2011-09-04T08:25:53Z</time>
      </trkpt>
      <trkpt lat="47.02232" lon="-1.7703">
        <ele>63</ele>
        <time>2011-09-04T08:25:55Z</time>
      </trkpt>
      <trkpt lat="47.02224" lon="-1.7703">
        <ele>63</ele>
        <time>2011-09-04T08:25:58Z</time>
      </trkpt>
      <trkpt lat="47.02218" lon="-1.7703">
        <ele>64</ele>
        <time>2011-09-04T08:26:01Z</time>
      </trkpt>
      <trkpt lat="47.02213" lon="-1.77029">
        <ele>64</ele>
        <time>2011-09-04T08:26:03Z</time>
      </trkpt>
      <trkpt lat="47.02208" lon="-1.77026">
        <ele>63</ele>
        <time>2011-09-04T08:26:06Z</time>
      </trkpt>
      <trkpt lat="47.02202" lon="-1.77029">
        <ele>64</ele>
        <time>2011-09-04T08:26:09Z</time>
      </trkpt>
      <trkpt lat="47.02196" lon="-1.7703">
        <ele>64</ele>
        <time>2011-09-04T08:26:12Z</time>
      </trkpt>
      <trkpt lat="47.0219" lon="-1.77028">
        <ele>65</ele>
        <time>2011-09-04T08:26:14Z</time>
      </trkpt>
      <trkpt lat="47.02185" lon="-1.77026">
        <ele>65</ele>
        <time>2011-09-04T08:26:16Z</time>
      </trkpt>
      <trkpt lat="47.0218" lon="-1.77024">
        <ele>66</ele>
        <time>2011-09-04T08:26:18Z</time>
      </trkpt>
      <trkpt lat="47.02174" lon="-1.77021">
        <ele>66</ele>
        <time>2011-09-04T08:26:20Z</time>
      </trkpt>
      <trkpt lat="47.02167" lon="-1.77017">
        <ele>66</ele>
        <time>2011-09-04T08:26:22Z</time>
      </trkpt>
      <trkpt lat="47.02162" lon="-1.77014">
        <ele>67</ele>
        <time>2011-09-04T08:26:24Z</time>
      </trkpt>
      <trkpt lat="47.02156" lon="-1.77013">
        <ele>68</ele>
        <time>2011-09-04T08:26:27Z</time>
      </trkpt>
      <trkpt lat="47.02153" lon="-1.77005">
        <ele>69</ele>
        <time>2011-09-04T08:26:30Z</time>
      </trkpt>
      <trkpt lat="47.02155" lon="-1.76996">
        <ele>70</ele>
        <time>2011-09-04T08:26:33Z</time>
      </trkpt>
      <trkpt lat="47.02157" lon="-1.76983">
        <ele>70</ele>
        <time>2011-09-04T08:26:35Z</time>
      </trkpt>
      <trkpt lat="47.02157" lon="-1.76974">
        <ele>70</ele>
        <time>2011-09-04T08:26:37Z</time>
      </trkpt>
      <trkpt lat="47.02159" lon="-1.76967">
        <ele>72</ele>
        <time>2011-09-04T08:26:40Z</time>
      </trkpt>
      <trkpt lat="47.02162" lon="-1.7696">
        <ele>72</ele>
        <time>2011-09-04T08:26:42Z</time>
      </trkpt>
      <trkpt lat="47.02164" lon="-1.76948">
        <ele>72</ele>
        <time>2011-09-04T08:26:44Z</time>
      </trkpt>
      <trkpt lat="47.02166" lon="-1.76937">
        <ele>73</ele>
        <time>2011-09-04T08:26:46Z</time>
      </trkpt>
      <trkpt lat="47.02167" lon="-1.7693">
        <ele>72</ele>
        <time>2011-09-04T08:26:47Z</time>
      </trkpt>
      <trkpt lat="47.02169" lon="-1.76924">
        <ele>72</ele>
        <time>2011-09-04T08:26:48Z</time>
      </trkpt>
      <trkpt lat="47.02169" lon="-1.76915">
        <ele>71</ele>
        <time>2011-09-04T08:26:49Z</time>
      </trkpt>
      <trkpt lat="47.0217" lon="-1.76906">
        <ele>70</ele>
        <time>2011-09-04T08:26:50Z</time>
      </trkpt>
      <trkpt lat="47.0217" lon="-1.76896">
        <ele>71</ele>
        <time>2011-09-04T08:26:51Z</time>
      </trkpt>
      <trkpt lat="47.02168" lon="-1.76887">
        <ele>72</ele>
        <time>2011-09-04T08:26:52Z</time>
      </trkpt>
      <trkpt lat="47.02168" lon="-1.76878">
        <ele>72</ele>
        <time>2011-09-04T08:26:53Z</time>
      </trkpt>
      <trkpt lat="47.02168" lon="-1.7687">
        <ele>72</ele>
        <time>2011-09-04T08:26:54Z</time>
      </trkpt>
      <trkpt lat="47.02167" lon="-1.7686">
        <ele>73</ele>
        <time>2011-09-04T08:26:55Z</time>
      </trkpt>
      <trkpt lat="47.02167" lon="-1.76852">
        <ele>73</ele>
        <time>2011-09-04T08:26:56Z</time>
      </trkpt>
      <trkpt lat="47.02165" lon="-1.76843">
        <ele>73</ele>
        <time>2011-09-04T08:26:57Z</time>
      </trkpt>
      <trkpt lat="47.02164" lon="-1.76836">
        <ele>74</ele>
        <time>2011-09-04T08:26:58Z</time>
      </trkpt>
      <trkpt lat="47.02163" lon="-1.76828">
        <ele>74</ele>
        <time>2011-09-04T08:26:59Z</time>
      </trkpt>
      <trkpt lat="47.02163" lon="-1.76821">
        <ele>74</ele>
        <time>2011-09-04T08:27:00Z</time>
      </trkpt>
      <trkpt lat="47.02163" lon="-1.76814">
        <ele>75</ele>
        <time>2011-09-04T08:27:01Z</time>
      </trkpt>
      <trkpt lat="47.02162" lon="-1.76806">
        <ele>75</ele>
        <time>2011-09-04T08:27:02Z</time>
      </trkpt>
      <trkpt lat="47.02161" lon="-1.76794">
        <ele>77</ele>
        <time>2011-09-04T08:27:04Z</time>
      </trkpt>
      <trkpt lat="47.0216" lon="-1.76787">
        <ele>77</ele>
        <time>2011-09-04T08:27:05Z</time>
      </trkpt>
      <trkpt lat="47.02161" lon="-1.76779">
        <ele>78</ele>
        <time>2011-09-04T08:27:06Z</time>
      </trkpt>
      <trkpt lat="47.02161" lon="-1.76772">
        <ele>78</ele>
        <time>2011-09-04T08:27:07Z</time>
      </trkpt>
      <trkpt lat="47.02162" lon="-1.76759">
        <ele>79</ele>
        <time>2011-09-04T08:27:09Z</time>
      </trkpt>
      <trkpt lat="47.02162" lon="-1.76751">
        <ele>79</ele>
        <time>2011-09-04T08:27:10Z</time>
      </trkpt>
      <trkpt lat="47.02164" lon="-1.76743">
        <ele>80</ele>
        <time>2011-09-04T08:27:11Z</time>
      </trkpt>
      <trkpt lat="47.02165" lon="-1.76731">
        <ele>82</ele>
        <time>2011-09-04T08:27:13Z</time>
      </trkpt>
      <trkpt lat="47.02165" lon="-1.76724">
        <ele>82</ele>
        <time>2011-09-04T08:27:14Z</time>
      </trkpt>
      <trkpt lat="47.02166" lon="-1.76711">
        <ele>83</ele>
        <time>2011-09-04T08:27:16Z</time>
      </trkpt>
      <trkpt lat="47.02167" lon="-1.76697">
        <ele>84</ele>
        <time>2011-09-04T08:27:18Z</time>
      </trkpt>
      <trkpt lat="47.02167" lon="-1.76684">
        <ele>84</ele>
        <time>2011-09-04T08:27:20Z</time>
      </trkpt>
      <trkpt lat="47.02167" lon="-1.76677">
        <ele>85</ele>
        <time>2011-09-04T08:27:21Z</time>
      </trkpt>
      <trkpt lat="47.02167" lon="-1.7667">
        <ele>85</ele>
        <time>2011-09-04T08:27:22Z</time>
      </trkpt>
      <trkpt lat="47.02167" lon="-1.76662">
        <ele>86</ele>
        <time>2011-09-04T08:27:23Z</time>
      </trkpt>
      <trkpt lat="47.02168" lon="-1.76649">
        <ele>86</ele>
        <time>2011-09-04T08:27:25Z</time>
      </trkpt>
      <trkpt lat="47.02169" lon="-1.76641">
        <ele>84</ele>
        <time>2011-09-04T08:27:26Z</time>
      </trkpt>
      <trkpt lat="47.02171" lon="-1.76634">
        <ele>84</ele>
        <time>2011-09-04T08:27:27Z</time>
      </trkpt>
      <trkpt lat="47.02171" lon="-1.76627">
        <ele>84</ele>
        <time>2011-09-04T08:27:28Z</time>
      </trkpt>
      <trkpt lat="47.0217" lon="-1.7662">
        <ele>84</ele>
        <time>2011-09-04T08:27:29Z</time>
      </trkpt>
      <trkpt lat="47.02171" lon="-1.76608">
        <ele>84</ele>
        <time>2011-09-04T08:27:31Z</time>
      </trkpt>
      <trkpt lat="47.0217" lon="-1.766">
        <ele>84</ele>
        <time>2011-09-04T08:27:32Z</time>
      </trkpt>
      <trkpt lat="47.02169" lon="-1.76593">
        <ele>84</ele>
        <time>2011-09-04T08:27:33Z</time>
      </trkpt>
      <trkpt lat="47.02169" lon="-1.76586">
        <ele>83</ele>
        <time>2011-09-04T08:27:34Z</time>
      </trkpt>
      <trkpt lat="47.02169" lon="-1.76579">
        <ele>83</ele>
        <time>2011-09-04T08:27:35Z</time>
      </trkpt>
      <trkpt lat="47.0217" lon="-1.76565">
        <ele>81</ele>
        <time>2011-09-04T08:27:37Z</time>
      </trkpt>
      <trkpt lat="47.02169" lon="-1.76557">
        <ele>80</ele>
        <time>2011-09-04T08:27:38Z</time>
      </trkpt>
      <trkpt lat="47.02168" lon="-1.76542">
        <ele>80</ele>
        <time>2011-09-04T08:27:40Z</time>
      </trkpt>
      <trkpt lat="47.02166" lon="-1.76534">
        <ele>80</ele>
        <time>2011-09-04T08:27:41Z</time>
      </trkpt>
      <trkpt lat="47.02162" lon="-1.76525">
        <ele>80</ele>
        <time>2011-09-04T08:27:42Z</time>
      </trkpt>
      <trkpt lat="47.02161" lon="-1.76517">
        <ele>81</ele>
        <time>2011-09-04T08:27:43Z</time>
      </trkpt>
      <trkpt lat="47.0216" lon="-1.76506">
        <ele>81</ele>
        <time>2011-09-04T08:27:45Z</time>
      </trkpt>
      <trkpt lat="47.02158" lon="-1.76495">
        <ele>81</ele>
        <time>2011-09-04T08:27:47Z</time>
      </trkpt>
      <trkpt lat="47.02156" lon="-1.76488">
        <ele>81</ele>
        <time>2011-09-04T08:27:48Z</time>
      </trkpt>
      <trkpt lat="47.02155" lon="-1.76478">
        <ele>81</ele>
        <time>2011-09-04T08:27:50Z</time>
      </trkpt>
      <trkpt lat="47.02154" lon="-1.76467">
        <ele>82</ele>
        <time>2011-09-04T08:27:52Z</time>
      </trkpt>
      <trkpt lat="47.02152" lon="-1.76456">
        <ele>82</ele>
        <time>2011-09-04T08:27:54Z</time>
      </trkpt>
      <trkpt lat="47.0215" lon="-1.76445">
        <ele>81</ele>
        <time>2011-09-04T08:27:56Z</time>
      </trkpt>
      <trkpt lat="47.02148" lon="-1.76434">
        <ele>82</ele>
        <time>2011-09-04T08:27:58Z</time>
      </trkpt>
      <trkpt lat="47.02146" lon="-1.76426">
        <ele>82</ele>
        <time>2011-09-04T08:28:00Z</time>
      </trkpt>
      <trkpt lat="47.02144" lon="-1.76415">
        <ele>83</ele>
        <time>2011-09-04T08:28:02Z</time>
      </trkpt>
      <trkpt lat="47.02144" lon="-1.76404">
        <ele>83</ele>
        <time>2011-09-04T08:28:04Z</time>
      </trkpt>
      <trkpt lat="47.02144" lon="-1.76395">
        <ele>84</ele>
        <time>2011-09-04T08:28:06Z</time>
      </trkpt>
      <trkpt lat="47.02146" lon="-1.76383">
        <ele>84</ele>
        <time>2011-09-04T08:28:08Z</time>
      </trkpt>
      <trkpt lat="47.02146" lon="-1.76374">
        <ele>84</ele>
        <time>2011-09-04T08:28:10Z</time>
      </trkpt>
      <trkpt lat="47.02146" lon="-1.76363">
        <ele>84</ele>
        <time>2011-09-04T08:28:12Z</time>
      </trkpt>
      <trkpt lat="47.02145" lon="-1.76352">
        <ele>84</ele>
        <time>2011-09-04T08:28:14Z</time>
      </trkpt>
      <trkpt lat="47.02147" lon="-1.76341">
        <ele>85</ele>
        <time>2011-09-04T08:28:16Z</time>
      </trkpt>
      <trkpt lat="47.02147" lon="-1.76328">
        <ele>86</ele>
        <time>2011-09-04T08:28:18Z</time>
      </trkpt>
      <trkpt lat="47.02149" lon="-1.76318">
        <ele>87</ele>
        <time>2011-09-04T08:28:20Z</time>
      </trkpt>
      <trkpt lat="47.02149" lon="-1.76307">
        <ele>88</ele>
        <time>2011-09-04T08:28:22Z</time>
      </trkpt>
      <trkpt lat="47.0215" lon="-1.763">
        <ele>88</ele>
        <time>2011-09-04T08:28:23Z</time>
      </trkpt>
      <trkpt lat="47.02152" lon="-1.76289">
        <ele>88</ele>
        <time>2011-09-04T08:28:25Z</time>
      </trkpt>
      <trkpt lat="47.02154" lon="-1.76277">
        <ele>89</ele>
        <time>2011-09-04T08:28:27Z</time>
      </trkpt>
      <trkpt lat="47.02158" lon="-1.76268">
        <ele>89</ele>
        <time>2011-09-04T08:28:29Z</time>
      </trkpt>
      <trkpt lat="47.02159" lon="-1.76262">
        <ele>88</ele>
        <time>2011-09-04T08:28:30Z</time>
      </trkpt>
      <trkpt lat="47.02161" lon="-1.76253">
        <ele>88</ele>
        <time>2011-09-04T08:28:32Z</time>
      </trkpt>
      <trkpt lat="47.02163" lon="-1.76242">
        <ele>88</ele>
        <time>2011-09-04T08:28:34Z</time>
      </trkpt>
      <trkpt lat="47.02164" lon="-1.76234">
        <ele>88</ele>
        <time>2011-09-04T08:28:36Z</time>
      </trkpt>
      <trkpt lat="47.02165" lon="-1.76225">
        <ele>88</ele>
        <time>2011-09-04T08:28:39Z</time>
      </trkpt>
      <trkpt lat="47.02168" lon="-1.76218">
        <ele>84</ele>
        <time>2011-09-04T08:28:41Z</time>
      </trkpt>
      <trkpt lat="47.02171" lon="-1.76209">
        <ele>79</ele>
        <time>2011-09-04T08:28:43Z</time>
      </trkpt>
      <trkpt lat="47.02172" lon="-1.76202">
        <ele>77</ele>
        <time>2011-09-04T08:28:46Z</time>
      </trkpt>
      <trkpt lat="47.02174" lon="-1.76195">
        <ele>73</ele>
        <time>2011-09-04T08:28:51Z</time>
      </trkpt>
      <trkpt lat="47.02174" lon="-1.76188">
        <ele>71</ele>
        <time>2011-09-04T08:29:01Z</time>
      </trkpt>
      <trkpt lat="47.02172" lon="-1.76181">
        <ele>72</ele>
        <time>2011-09-04T08:29:07Z</time>
      </trkpt>
      <trkpt lat="47.02171" lon="-1.76174">
        <ele>75</ele>
        <time>2011-09-04T08:29:32Z</time>
      </trkpt>
      <trkpt lat="47.02172" lon="-1.76167">
        <ele>77</ele>
        <time>2011-09-04T08:30:06Z</time>
      </trkpt>
      <trkpt lat="47.02168" lon="-1.76163">
        <ele>80</ele>
        <time>2011-09-04T08:31:36Z</time>
      </trkpt>
      <trkpt lat="47.02168" lon="-1.76163">
        <ele>80</ele>
        <time>2011-09-04T08:31:36Z</time>
      </trkpt>
      <trkpt lat="47.02168" lon="-1.76163">
        <ele>80</ele>
        <time>2011-09-04T08:31:38Z</time>
      </trkpt>
      <trkpt lat="47.02163" lon="-1.7616">
        <ele>79</ele>
        <time>2011-09-04T08:33:14Z</time>
      </trkpt>
      <trkpt lat="47.02163" lon="-1.7616">
        <ele>79</ele>
        <time>2011-09-04T08:33:14Z</time>
      </trkpt>
      <trkpt lat="47.02163" lon="-1.7616">
        <ele>79</ele>
        <time>2011-09-04T08:33:19Z</time>
      </trkpt>
      <trkpt lat="47.02162" lon="-1.76143">
        <ele>75</ele>
        <time>2011-09-04T08:34:07Z</time>
      </trkpt>
      <trkpt lat="47.0216" lon="-1.76149">
        <ele>73</ele>
        <time>2011-09-04T08:34:16Z</time>
      </trkpt>
      <trkpt lat="47.02155" lon="-1.76146">
        <ele>73</ele>
        <time>2011-09-04T08:35:08Z</time>
      </trkpt>
      <trkpt lat="47.02155" lon="-1.76146">
        <ele>73</ele>
        <time>2011-09-04T08:35:08Z</time>
      </trkpt>
      <trkpt lat="47.02155" lon="-1.76146">
        <ele>74</ele>
        <time>2011-09-04T08:35:45Z</time>
      </trkpt>
      <trkpt lat="47.02158" lon="-1.7617">
        <ele>78</ele>
        <time>2011-09-04T08:50:51Z</time>
      </trkpt>
      <trkpt lat="47.02162" lon="-1.76172">
        <ele>74</ele>
        <time>2011-09-04T08:51:14Z</time>
      </trkpt>
      <trkpt lat="47.0216" lon="-1.76166">
        <ele>71</ele>
        <time>2011-09-04T08:51:24Z</time>
      </trkpt>
      <trkpt lat="47.02159" lon="-1.7616">
        <ele>68</ele>
        <time>2011-09-04T08:51:44Z</time>
      </trkpt>
      <trkpt lat="47.02159" lon="-1.7616">
        <ele>68</ele>
        <time>2011-09-04T08:51:44Z</time>
      </trkpt>
      <trkpt lat="47.02159" lon="-1.7616">
        <ele>69</ele>
        <time>2011-09-04T08:51:45Z</time>
      </trkpt>
      <trkpt lat="47.02154" lon="-1.76157">
        <ele>69</ele>
        <time>2011-09-04T08:53:22Z</time>
      </trkpt>
      <trkpt lat="47.02154" lon="-1.76157">
        <ele>69</ele>
        <time>2011-09-04T08:53:22Z</time>
      </trkpt>
      <trkpt lat="47.02154" lon="-1.76157">
        <ele>68</ele>
        <time>2011-09-04T08:53:38Z</time>
      </trkpt>
      <trkpt lat="47.02166" lon="-1.76154">
        <ele>67</ele>
        <time>2011-09-04T08:56:10Z</time>
      </trkpt>
      <trkpt lat="47.02161" lon="-1.76154">
        <ele>70</ele>
        <time>2011-09-04T08:56:49Z</time>
      </trkpt>
      <trkpt lat="47.02161" lon="-1.76154">
        <ele>70</ele>
        <time>2011-09-04T08:56:49Z</time>
      </trkpt>
      <trkpt lat="47.02161" lon="-1.76154">
        <ele>70</ele>
        <time>2011-09-04T08:56:50Z</time>
      </trkpt>
      <trkpt lat="47.02152" lon="-1.76137">
        <ele>70</ele>
        <time>2011-09-04T08:57:06Z</time>
      </trkpt>
      <trkpt lat="47.02152" lon="-1.76137">
        <ele>70</ele>
        <time>2011-09-04T08:57:06Z</time>
      </trkpt>
      <trkpt lat="47.02152" lon="-1.76137">
        <ele>70</ele>
        <time>2011-09-04T08:57:08Z</time>
      </trkpt>
      <trkpt lat="47.02153" lon="-1.76143">
        <ele>68</ele>
        <time>2011-09-04T08:57:23Z</time>
      </trkpt>
      <trkpt lat="47.02156" lon="-1.76148">
        <ele>68</ele>
        <time>2011-09-04T08:57:39Z</time>
      </trkpt>
      <trkpt lat="47.02156" lon="-1.76148">
        <ele>68</ele>
        <time>2011-09-04T08:57:39Z</time>
      </trkpt>
      <trkpt lat="47.02156" lon="-1.76148">
        <ele>67</ele>
        <time>2011-09-04T08:57:41Z</time>
      </trkpt>
      <trkpt lat="47.02159" lon="-1.76153">
        <ele>64</ele>
        <time>2011-09-04T08:59:12Z</time>
      </trkpt>
      <trkpt lat="47.02159" lon="-1.76153">
        <ele>64</ele>
        <time>2011-09-04T08:59:12Z</time>
      </trkpt>
      <trkpt lat="47.02159" lon="-1.76153">
        <ele>63</ele>
        <time>2011-09-04T08:59:26Z</time>
      </trkpt>
      <trkpt lat="47.02154" lon="-1.76172">
        <ele>76</ele>
        <time>2011-09-04T09:03:16Z</time>
      </trkpt>
      <trkpt lat="47.02154" lon="-1.76172">
        <ele>76</ele>
        <time>2011-09-04T09:03:16Z</time>
      </trkpt>
      <trkpt lat="47.02154" lon="-1.76172">
        <ele>76</ele>
        <time>2011-09-04T09:03:58Z</time>
      </trkpt>
      <trkpt lat="47.02159" lon="-1.76171">
        <ele>75</ele>
        <time>2011-09-04T09:05:08Z</time>
      </trkpt>
      <trkpt lat="47.02159" lon="-1.76171">
        <ele>75</ele>
        <time>2011-09-04T09:05:08Z</time>
      </trkpt>
      <trkpt lat="47.02159" lon="-1.76171">
        <ele>75</ele>
        <time>2011-09-04T09:05:09Z</time>
      </trkpt>
      <trkpt lat="47.02169" lon="-1.76172">
        <ele>80</ele>
        <time>2011-09-04T09:05:14Z</time>
      </trkpt>
      <trkpt lat="47.02169" lon="-1.76172">
        <ele>80</ele>
        <time>2011-09-04T09:05:14Z</time>
      </trkpt>
      <trkpt lat="47.02169" lon="-1.76172">
        <ele>80</ele>
        <time>2011-09-04T09:05:15Z</time>
      </trkpt>
      <trkpt lat="47.02166" lon="-1.76167">
        <ele>79</ele>
        <time>2011-09-04T09:05:32Z</time>
      </trkpt>
      <trkpt lat="47.02166" lon="-1.76167">
        <ele>79</ele>
        <time>2011-09-04T09:05:32Z</time>
      </trkpt>
      <trkpt lat="47.02166" lon="-1.76167">
        <ele>79</ele>
        <time>2011-09-04T09:05:33Z</time>
      </trkpt>
      <trkpt lat="47.0217" lon="-1.76158">
        <ele>80</ele>
        <time>2011-09-04T09:06:25Z</time>
      </trkpt>
      <trkpt lat="47.02173" lon="-1.76151">
        <ele>80</ele>
        <time>2011-09-04T09:06:27Z</time>
      </trkpt>
      <trkpt lat="47.02177" lon="-1.76144">
        <ele>80</ele>
        <time>2011-09-04T09:06:29Z</time>
      </trkpt>
      <trkpt lat="47.02182" lon="-1.76135">
        <ele>80</ele>
        <time>2011-09-04T09:06:31Z</time>
      </trkpt>
      <trkpt lat="47.02185" lon="-1.76127">
        <ele>81</ele>
        <time>2011-09-04T09:06:33Z</time>
      </trkpt>
      <trkpt lat="47.02188" lon="-1.76118">
        <ele>82</ele>
        <time>2011-09-04T09:06:35Z</time>
      </trkpt>
      <trkpt lat="47.0219" lon="-1.76111">
        <ele>83</ele>
        <time>2011-09-04T09:06:37Z</time>
      </trkpt>
      <trkpt lat="47.02193" lon="-1.76104">
        <ele>84</ele>
        <time>2011-09-04T09:06:39Z</time>
      </trkpt>
      <trkpt lat="47.02197" lon="-1.76097">
        <ele>85</ele>
        <time>2011-09-04T09:06:41Z</time>
      </trkpt>
      <trkpt lat="47.02201" lon="-1.76089">
        <ele>85</ele>
        <time>2011-09-04T09:06:43Z</time>
      </trkpt>
      <trkpt lat="47.02204" lon="-1.76084">
        <ele>85</ele>
        <time>2011-09-04T09:06:44Z</time>
      </trkpt>
      <trkpt lat="47.02207" lon="-1.76077">
        <ele>85</ele>
        <time>2011-09-04T09:06:45Z</time>
      </trkpt>
      <trkpt lat="47.02209" lon="-1.76071">
        <ele>85</ele>
        <time>2011-09-04T09:06:46Z</time>
      </trkpt>
      <trkpt lat="47.02213" lon="-1.7606">
        <ele>84</ele>
        <time>2011-09-04T09:06:48Z</time>
      </trkpt>
      <trkpt lat="47.02218" lon="-1.76054">
        <ele>84</ele>
        <time>2011-09-04T09:06:50Z</time>
      </trkpt>
      <trkpt lat="47.0222" lon="-1.76046">
        <ele>85</ele>
        <time>2011-09-04T09:06:52Z</time>
      </trkpt>
      <trkpt lat="47.02224" lon="-1.76038">
        <ele>85</ele>
        <time>2011-09-04T09:06:55Z</time>
      </trkpt>
      <trkpt lat="47.02227" lon="-1.76032">
        <ele>86</ele>
        <time>2011-09-04T09:06:57Z</time>
      </trkpt>
      <trkpt lat="47.02228" lon="-1.76025">
        <ele>87</ele>
        <time>2011-09-04T09:06:59Z</time>
      </trkpt>
      <trkpt lat="47.02231" lon="-1.76018">
        <ele>88</ele>
        <time>2011-09-04T09:07:01Z</time>
      </trkpt>
      <trkpt lat="47.02234" lon="-1.76006">
        <ele>87</ele>
        <time>2011-09-04T09:07:03Z</time>
      </trkpt>
      <trkpt lat="47.02236" lon="-1.76">
        <ele>87</ele>
        <time>2011-09-04T09:07:04Z</time>
      </trkpt>
      <trkpt lat="47.02238" lon="-1.75988">
        <ele>87</ele>
        <time>2011-09-04T09:07:06Z</time>
      </trkpt>
      <trkpt lat="47.02241" lon="-1.75978">
        <ele>87</ele>
        <time>2011-09-04T09:07:08Z</time>
      </trkpt>
      <trkpt lat="47.02244" lon="-1.75972">
        <ele>87</ele>
        <time>2011-09-04T09:07:09Z</time>
      </trkpt>
      <trkpt lat="47.02248" lon="-1.75962">
        <ele>88</ele>
        <time>2011-09-04T09:07:11Z</time>
      </trkpt>
      <trkpt lat="47.02251" lon="-1.75953">
        <ele>89</ele>
        <time>2011-09-04T09:07:13Z</time>
      </trkpt>
      <trkpt lat="47.02255" lon="-1.75945">
        <ele>89</ele>
        <time>2011-09-04T09:07:15Z</time>
      </trkpt>
      <trkpt lat="47.02257" lon="-1.75938">
        <ele>90</ele>
        <time>2011-09-04T09:07:16Z</time>
      </trkpt>
      <trkpt lat="47.02259" lon="-1.75932">
        <ele>90</ele>
        <time>2011-09-04T09:07:17Z</time>
      </trkpt>
      <trkpt lat="47.02262" lon="-1.75922">
        <ele>91</ele>
        <time>2011-09-04T09:07:19Z</time>
      </trkpt>
      <trkpt lat="47.02265" lon="-1.75915">
        <ele>90</ele>
        <time>2011-09-04T09:07:20Z</time>
      </trkpt>
      <trkpt lat="47.02269" lon="-1.75906">
        <ele>90</ele>
        <time>2011-09-04T09:07:22Z</time>
      </trkpt>
      <trkpt lat="47.02271" lon="-1.75896">
        <ele>91</ele>
        <time>2011-09-04T09:07:24Z</time>
      </trkpt>
      <trkpt lat="47.02274" lon="-1.75885">
        <ele>93</ele>
        <time>2011-09-04T09:07:26Z</time>
      </trkpt>
      <trkpt lat="47.02276" lon="-1.75874">
        <ele>94</ele>
        <time>2011-09-04T09:07:28Z</time>
      </trkpt>
      <trkpt lat="47.02278" lon="-1.75864">
        <ele>94</ele>
        <time>2011-09-04T09:07:30Z</time>
      </trkpt>
      <trkpt lat="47.02279" lon="-1.75854">
        <ele>95</ele>
        <time>2011-09-04T09:07:32Z</time>
      </trkpt>
      <trkpt lat="47.0228" lon="-1.75841">
        <ele>94</ele>
        <time>2011-09-04T09:07:34Z</time>
      </trkpt>
      <trkpt lat="47.02281" lon="-1.75833">
        <ele>94</ele>
        <time>2011-09-04T09:07:35Z</time>
      </trkpt>
      <trkpt lat="47.02281" lon="-1.7582">
        <ele>95</ele>
        <time>2011-09-04T09:07:37Z</time>
      </trkpt>
      <trkpt lat="47.02283" lon="-1.75809">
        <ele>96</ele>
        <time>2011-09-04T09:07:39Z</time>
      </trkpt>
      <trkpt lat="47.02284" lon="-1.75801">
        <ele>96</ele>
        <time>2011-09-04T09:07:40Z</time>
      </trkpt>
      <trkpt lat="47.02286" lon="-1.75788">
        <ele>97</ele>
        <time>2011-09-04T09:07:42Z</time>
      </trkpt>
      <trkpt lat="47.02288" lon="-1.75776">
        <ele>97</ele>
        <time>2011-09-04T09:07:44Z</time>
      </trkpt>
      <trkpt lat="47.0229" lon="-1.75765">
        <ele>98</ele>
        <time>2011-09-04T09:07:46Z</time>
      </trkpt>
      <trkpt lat="47.02294" lon="-1.75754">
        <ele>98</ele>
        <time>2011-09-04T09:07:48Z</time>
      </trkpt>
      <trkpt lat="47.02299" lon="-1.75746">
        <ele>98</ele>
        <time>2011-09-04T09:07:50Z</time>
      </trkpt>
      <trkpt lat="47.02303" lon="-1.7574">
        <ele>97</ele>
        <time>2011-09-04T09:07:51Z</time>
      </trkpt>
      <trkpt lat="47.02305" lon="-1.75734">
        <ele>97</ele>
        <time>2011-09-04T09:07:52Z</time>
      </trkpt>
      <trkpt lat="47.02307" lon="-1.75724">
        <ele>98</ele>
        <time>2011-09-04T09:07:54Z</time>
      </trkpt>
      <trkpt lat="47.02307" lon="-1.75712">
        <ele>98</ele>
        <time>2011-09-04T09:07:56Z</time>
      </trkpt>
      <trkpt lat="47.02309" lon="-1.75706">
        <ele>98</ele>
        <time>2011-09-04T09:07:57Z</time>
      </trkpt>
      <trkpt lat="47.02311" lon="-1.75694">
        <ele>98</ele>
        <time>2011-09-04T09:07:59Z</time>
      </trkpt>
      <trkpt lat="47.02314" lon="-1.75684">
        <ele>99</ele>
        <time>2011-09-04T09:08:01Z</time>
      </trkpt>
      <trkpt lat="47.02317" lon="-1.75672">
        <ele>100</ele>
        <time>2011-09-04T09:08:03Z</time>
      </trkpt>
      <trkpt lat="47.02318" lon="-1.75664">
        <ele>101</ele>
        <time>2011-09-04T09:08:04Z</time>
      </trkpt>
      <trkpt lat="47.0232" lon="-1.75653">
        <ele>101</ele>
        <time>2011-09-04T09:08:06Z</time>
      </trkpt>
      <trkpt lat="47.0232" lon="-1.75644">
        <ele>100</ele>
        <time>2011-09-04T09:08:08Z</time>
      </trkpt>
      <trkpt lat="47.02321" lon="-1.75637">
        <ele>101</ele>
        <time>2011-09-04T09:08:10Z</time>
      </trkpt>
      <trkpt lat="47.02323" lon="-1.75624">
        <ele>102</ele>
        <time>2011-09-04T09:08:12Z</time>
      </trkpt>
      <trkpt lat="47.02322" lon="-1.75617">
        <ele>102</ele>
        <time>2011-09-04T09:08:13Z</time>
      </trkpt>
      <trkpt lat="47.02323" lon="-1.75606">
        <ele>102</ele>
        <time>2011-09-04T09:08:15Z</time>
      </trkpt>
      <trkpt lat="47.02324" lon="-1.75595">
        <ele>102</ele>
        <time>2011-09-04T09:08:17Z</time>
      </trkpt>
      <trkpt lat="47.02324" lon="-1.75583">
        <ele>102</ele>
        <time>2011-09-04T09:08:19Z</time>
      </trkpt>
      <trkpt lat="47.02325" lon="-1.75575">
        <ele>102</ele>
        <time>2011-09-04T09:08:20Z</time>
      </trkpt>
      <trkpt lat="47.02326" lon="-1.75569">
        <ele>102</ele>
        <time>2011-09-04T09:08:21Z</time>
      </trkpt>
      <trkpt lat="47.02326" lon="-1.75556">
        <ele>102</ele>
        <time>2011-09-04T09:08:23Z</time>
      </trkpt>
      <trkpt lat="47.02328" lon="-1.7555">
        <ele>102</ele>
        <time>2011-09-04T09:08:24Z</time>
      </trkpt>
      <trkpt lat="47.02329" lon="-1.75541">
        <ele>101</ele>
        <time>2011-09-04T09:08:25Z</time>
      </trkpt>
      <trkpt lat="47.02332" lon="-1.75528">
        <ele>102</ele>
        <time>2011-09-04T09:08:27Z</time>
      </trkpt>
      <trkpt lat="47.02333" lon="-1.75519">
        <ele>102</ele>
        <time>2011-09-04T09:08:28Z</time>
      </trkpt>
      <trkpt lat="47.02334" lon="-1.75511">
        <ele>102</ele>
        <time>2011-09-04T09:08:29Z</time>
      </trkpt>
      <trkpt lat="47.02334" lon="-1.75503">
        <ele>102</ele>
        <time>2011-09-04T09:08:30Z</time>
      </trkpt>
      <trkpt lat="47.02336" lon="-1.75496">
        <ele>103</ele>
        <time>2011-09-04T09:08:31Z</time>
      </trkpt>
      <trkpt lat="47.02338" lon="-1.75489">
        <ele>103</ele>
        <time>2011-09-04T09:08:32Z</time>
      </trkpt>
      <trkpt lat="47.0234" lon="-1.75476">
        <ele>103</ele>
        <time>2011-09-04T09:08:34Z</time>
      </trkpt>
      <trkpt lat="47.02341" lon="-1.7547">
        <ele>103</ele>
        <time>2011-09-04T09:08:35Z</time>
      </trkpt>
      <trkpt lat="47.02345" lon="-1.75456">
        <ele>103</ele>
        <time>2011-09-04T09:08:37Z</time>
      </trkpt>
      <trkpt lat="47.02347" lon="-1.75448">
        <ele>103</ele>
        <time>2011-09-04T09:08:38Z</time>
      </trkpt>
      <trkpt lat="47.02349" lon="-1.75442">
        <ele>103</ele>
        <time>2011-09-04T09:08:39Z</time>
      </trkpt>
      <trkpt lat="47.02352" lon="-1.75431">
        <ele>103</ele>
        <time>2011-09-04T09:08:40Z</time>
      </trkpt>
      <trkpt lat="47.02353" lon="-1.75423">
        <ele>103</ele>
        <time>2011-09-04T09:08:41Z</time>
      </trkpt>
      <trkpt lat="47.02356" lon="-1.75416">
        <ele>102</ele>
        <time>2011-09-04T09:08:42Z</time>
      </trkpt>
      <trkpt lat="47.02357" lon="-1.75409">
        <ele>102</ele>
        <time>2011-09-04T09:08:43Z</time>
      </trkpt>
      <trkpt lat="47.02359" lon="-1.75402">
        <ele>101</ele>
        <time>2011-09-04T09:08:44Z</time>
      </trkpt>
      <trkpt lat="47.02361" lon="-1.75394">
        <ele>101</ele>
        <time>2011-09-04T09:08:45Z</time>
      </trkpt>
      <trkpt lat="47.02362" lon="-1.75386">
        <ele>101</ele>
        <time>2011-09-04T09:08:46Z</time>
      </trkpt>
      <trkpt lat="47.02364" lon="-1.75379">
        <ele>101</ele>
        <time>2011-09-04T09:08:47Z</time>
      </trkpt>
      <trkpt lat="47.02364" lon="-1.75372">
        <ele>101</ele>
        <time>2011-09-04T09:08:48Z</time>
      </trkpt>
      <trkpt lat="47.02364" lon="-1.75365">
        <ele>100</ele>
        <time>2011-09-04T09:08:49Z</time>
      </trkpt>
      <trkpt lat="47.02365" lon="-1.75357">
        <ele>100</ele>
        <time>2011-09-04T09:08:50Z</time>
      </trkpt>
      <trkpt lat="47.02365" lon="-1.7535">
        <ele>100</ele>
        <time>2011-09-04T09:08:51Z</time>
      </trkpt>
      <trkpt lat="47.02367" lon="-1.75338">
        <ele>100</ele>
        <time>2011-09-04T09:08:53Z</time>
      </trkpt>
      <trkpt lat="47.02368" lon="-1.75331">
        <ele>100</ele>
        <time>2011-09-04T09:08:54Z</time>
      </trkpt>
      <trkpt lat="47.02368" lon="-1.75323">
        <ele>100</ele>
        <time>2011-09-04T09:08:55Z</time>
      </trkpt>
      <trkpt lat="47.02368" lon="-1.75316">
        <ele>100</ele>
        <time>2011-09-04T09:08:56Z</time>
      </trkpt>
      <trkpt lat="47.02368" lon="-1.75301">
        <ele>101</ele>
        <time>2011-09-04T09:08:58Z</time>
      </trkpt>
      <trkpt lat="47.02369" lon="-1.75295">
        <ele>102</ele>
        <time>2011-09-04T09:08:59Z</time>
      </trkpt>
      <trkpt lat="47.02371" lon="-1.75287">
        <ele>101</ele>
        <time>2011-09-04T09:09:00Z</time>
      </trkpt>
      <trkpt lat="47.02373" lon="-1.7528">
        <ele>102</ele>
        <time>2011-09-04T09:09:01Z</time>
      </trkpt>
      <trkpt lat="47.02375" lon="-1.75273">
        <ele>102</ele>
        <time>2011-09-04T09:09:02Z</time>
      </trkpt>
      <trkpt lat="47.02377" lon="-1.75265">
        <ele>102</ele>
        <time>2011-09-04T09:09:03Z</time>
      </trkpt>
      <trkpt lat="47.02378" lon="-1.75258">
        <ele>102</ele>
        <time>2011-09-04T09:09:04Z</time>
      </trkpt>
      <trkpt lat="47.0238" lon="-1.75251">
        <ele>103</ele>
        <time>2011-09-04T09:09:05Z</time>
      </trkpt>
      <trkpt lat="47.02381" lon="-1.75245">
        <ele>103</ele>
        <time>2011-09-04T09:09:06Z</time>
      </trkpt>
      <trkpt lat="47.02382" lon="-1.75238">
        <ele>103</ele>
        <time>2011-09-04T09:09:07Z</time>
      </trkpt>
      <trkpt lat="47.02386" lon="-1.75223">
        <ele>103</ele>
        <time>2011-09-04T09:09:09Z</time>
      </trkpt>
      <trkpt lat="47.02388" lon="-1.75217">
        <ele>103</ele>
        <time>2011-09-04T09:09:10Z</time>
      </trkpt>
      <trkpt lat="47.02391" lon="-1.75212">
        <ele>103</ele>
        <time>2011-09-04T09:09:11Z</time>
      </trkpt>
      <trkpt lat="47.02394" lon="-1.75205">
        <ele>104</ele>
        <time>2011-09-04T09:09:12Z</time>
      </trkpt>
      <trkpt lat="47.02397" lon="-1.75197">
        <ele>103</ele>
        <time>2011-09-04T09:09:13Z</time>
      </trkpt>
      <trkpt lat="47.02401" lon="-1.75186">
        <ele>104</ele>
        <time>2011-09-04T09:09:15Z</time>
      </trkpt>
      <trkpt lat="47.02406" lon="-1.75176">
        <ele>104</ele>
        <time>2011-09-04T09:09:17Z</time>
      </trkpt>
      <trkpt lat="47.02411" lon="-1.75165">
        <ele>104</ele>
        <time>2011-09-04T09:09:19Z</time>
      </trkpt>
      <trkpt lat="47.02414" lon="-1.75157">
        <ele>104</ele>
        <time>2011-09-04T09:09:21Z</time>
      </trkpt>
      <trkpt lat="47.02417" lon="-1.7515">
        <ele>105</ele>
        <time>2011-09-04T09:09:22Z</time>
      </trkpt>
      <trkpt lat="47.02421" lon="-1.75142">
        <ele>104</ele>
        <time>2011-09-04T09:09:24Z</time>
      </trkpt>
      <trkpt lat="47.02427" lon="-1.75134">
        <ele>105</ele>
        <time>2011-09-04T09:09:26Z</time>
      </trkpt>
      <trkpt lat="47.02431" lon="-1.75124">
        <ele>105</ele>
        <time>2011-09-04T09:09:28Z</time>
      </trkpt>
      <trkpt lat="47.02436" lon="-1.75115">
        <ele>105</ele>
        <time>2011-09-04T09:09:30Z</time>
      </trkpt>
      <trkpt lat="47.02438" lon="-1.75109">
        <ele>105</ele>
        <time>2011-09-04T09:09:31Z</time>
      </trkpt>
      <trkpt lat="47.02442" lon="-1.75101">
        <ele>106</ele>
        <time>2011-09-04T09:09:33Z</time>
      </trkpt>
      <trkpt lat="47.02445" lon="-1.75096">
        <ele>106</ele>
        <time>2011-09-04T09:09:34Z</time>
      </trkpt>
      <trkpt lat="47.02448" lon="-1.75091">
        <ele>106</ele>
        <time>2011-09-04T09:09:35Z</time>
      </trkpt>
      <trkpt lat="47.0245" lon="-1.75084">
        <ele>106</ele>
        <time>2011-09-04T09:09:36Z</time>
      </trkpt>
      <trkpt lat="47.02453" lon="-1.75076">
        <ele>107</ele>
        <time>2011-09-04T09:09:37Z</time>
      </trkpt>
      <trkpt lat="47.02457" lon="-1.75062">
        <ele>108</ele>
        <time>2011-09-04T09:09:39Z</time>
      </trkpt>
      <trkpt lat="47.02458" lon="-1.75055">
        <ele>108</ele>
        <time>2011-09-04T09:09:40Z</time>
      </trkpt>
      <trkpt lat="47.02461" lon="-1.7505">
        <ele>108</ele>
        <time>2011-09-04T09:09:41Z</time>
      </trkpt>
      <trkpt lat="47.02463" lon="-1.75043">
        <ele>107</ele>
        <time>2011-09-04T09:09:42Z</time>
      </trkpt>
      <trkpt lat="47.02466" lon="-1.75036">
        <ele>107</ele>
        <time>2011-09-04T09:09:43Z</time>
      </trkpt>
      <trkpt lat="47.02469" lon="-1.7503">
        <ele>106</ele>
        <time>2011-09-04T09:09:44Z</time>
      </trkpt>
      <trkpt lat="47.02472" lon="-1.75023">
        <ele>105</ele>
        <time>2011-09-04T09:09:45Z</time>
      </trkpt>
      <trkpt lat="47.02476" lon="-1.75017">
        <ele>105</ele>
        <time>2011-09-04T09:09:46Z</time>
      </trkpt>
      <trkpt lat="47.02479" lon="-1.75005">
        <ele>105</ele>
        <time>2011-09-04T09:09:48Z</time>
      </trkpt>
      <trkpt lat="47.0248" lon="-1.74998">
        <ele>105</ele>
        <time>2011-09-04T09:09:49Z</time>
      </trkpt>
      <trkpt lat="47.02485" lon="-1.74985">
        <ele>106</ele>
        <time>2011-09-04T09:09:51Z</time>
      </trkpt>
      <trkpt lat="47.02488" lon="-1.74977">
        <ele>106</ele>
        <time>2011-09-04T09:09:52Z</time>
      </trkpt>
      <trkpt lat="47.02492" lon="-1.74967">
        <ele>107</ele>
        <time>2011-09-04T09:09:54Z</time>
      </trkpt>
      <trkpt lat="47.02494" lon="-1.74961">
        <ele>106</ele>
        <time>2011-09-04T09:09:55Z</time>
      </trkpt>
      <trkpt lat="47.02496" lon="-1.74955">
        <ele>107</ele>
        <time>2011-09-04T09:09:56Z</time>
      </trkpt>
      <trkpt lat="47.025" lon="-1.74949">
        <ele>107</ele>
        <time>2011-09-04T09:09:57Z</time>
      </trkpt>
      <trkpt lat="47.02503" lon="-1.74944">
        <ele>107</ele>
        <time>2011-09-04T09:09:58Z</time>
      </trkpt>
      <trkpt lat="47.02508" lon="-1.74934">
        <ele>107</ele>
        <time>2011-09-04T09:10:00Z</time>
      </trkpt>
      <trkpt lat="47.0251" lon="-1.74927">
        <ele>108</ele>
        <time>2011-09-04T09:10:01Z</time>
      </trkpt>
      <trkpt lat="47.02514" lon="-1.74916">
        <ele>108</ele>
        <time>2011-09-04T09:10:03Z</time>
      </trkpt>
      <trkpt lat="47.02518" lon="-1.7491">
        <ele>108</ele>
        <time>2011-09-04T09:10:04Z</time>
      </trkpt>
      <trkpt lat="47.02522" lon="-1.74904">
        <ele>107</ele>
        <time>2011-09-04T09:10:05Z</time>
      </trkpt>
      <trkpt lat="47.02528" lon="-1.74897">
        <ele>104</ele>
        <time>2011-09-04T09:10:06Z</time>
      </trkpt>
      <trkpt lat="47.02532" lon="-1.74889">
        <ele>103</ele>
        <time>2011-09-04T09:10:07Z</time>
      </trkpt>
      <trkpt lat="47.0254" lon="-1.74878">
        <ele>100</ele>
        <time>2011-09-04T09:10:08Z</time>
      </trkpt>
      <trkpt lat="47.02549" lon="-1.74866">
        <ele>96</ele>
        <time>2011-09-04T09:10:09Z</time>
      </trkpt>
      <trkpt lat="47.02552" lon="-1.74857">
        <ele>94</ele>
        <time>2011-09-04T09:10:10Z</time>
      </trkpt>
      <trkpt lat="47.02556" lon="-1.74849">
        <ele>92</ele>
        <time>2011-09-04T09:10:11Z</time>
      </trkpt>
      <trkpt lat="47.02557" lon="-1.74842">
        <ele>91</ele>
        <time>2011-09-04T09:10:12Z</time>
      </trkpt>
      <trkpt lat="47.02557" lon="-1.7483">
        <ele>91</ele>
        <time>2011-09-04T09:10:14Z</time>
      </trkpt>
      <trkpt lat="47.02558" lon="-1.74822">
        <ele>90</ele>
        <time>2011-09-04T09:10:15Z</time>
      </trkpt>
      <trkpt lat="47.02561" lon="-1.74807">
        <ele>89</ele>
        <time>2011-09-04T09:10:17Z</time>
      </trkpt>
      <trkpt lat="47.02562" lon="-1.748">
        <ele>89</ele>
        <time>2011-09-04T09:10:18Z</time>
      </trkpt>
      <trkpt lat="47.02562" lon="-1.74793">
        <ele>89</ele>
        <time>2011-09-04T09:10:19Z</time>
      </trkpt>
      <trkpt lat="47.02562" lon="-1.74786">
        <ele>89</ele>
        <time>2011-09-04T09:10:20Z</time>
      </trkpt>
      <trkpt lat="47.02563" lon="-1.74779">
        <ele>89</ele>
        <time>2011-09-04T09:10:21Z</time>
      </trkpt>
      <trkpt lat="47.02562" lon="-1.74768">
        <ele>89</ele>
        <time>2011-09-04T09:10:23Z</time>
      </trkpt>
      <trkpt lat="47.02563" lon="-1.74756">
        <ele>89</ele>
        <time>2011-09-04T09:10:25Z</time>
      </trkpt>
      <trkpt lat="47.02562" lon="-1.7475">
        <ele>90</ele>
        <time>2011-09-04T09:10:26Z</time>
      </trkpt>
      <trkpt lat="47.02562" lon="-1.74743">
        <ele>90</ele>
        <time>2011-09-04T09:10:27Z</time>
      </trkpt>
      <trkpt lat="47.02562" lon="-1.7473">
        <ele>89</ele>
        <time>2011-09-04T09:10:29Z</time>
      </trkpt>
      <trkpt lat="47.02563" lon="-1.74724">
        <ele>89</ele>
        <time>2011-09-04T09:10:30Z</time>
      </trkpt>
      <trkpt lat="47.02562" lon="-1.74714">
        <ele>90</ele>
        <time>2011-09-04T09:10:32Z</time>
      </trkpt>
      <trkpt lat="47.02563" lon="-1.74703">
        <ele>90</ele>
        <time>2011-09-04T09:10:34Z</time>
      </trkpt>
      <trkpt lat="47.02564" lon="-1.74691">
        <ele>90</ele>
        <time>2011-09-04T09:10:36Z</time>
      </trkpt>
      <trkpt lat="47.02563" lon="-1.7468">
        <ele>91</ele>
        <time>2011-09-04T09:10:38Z</time>
      </trkpt>
      <trkpt lat="47.02562" lon="-1.74668">
        <ele>91</ele>
        <time>2011-09-04T09:10:40Z</time>
      </trkpt>
      <trkpt lat="47.02563" lon="-1.74656">
        <ele>90</ele>
        <time>2011-09-04T09:10:42Z</time>
      </trkpt>
      <trkpt lat="47.02563" lon="-1.74644">
        <ele>91</ele>
        <time>2011-09-04T09:10:44Z</time>
      </trkpt>
      <trkpt lat="47.02563" lon="-1.74632">
        <ele>91</ele>
        <time>2011-09-04T09:10:46Z</time>
      </trkpt>
      <trkpt lat="47.02565" lon="-1.74621">
        <ele>90</ele>
        <time>2011-09-04T09:10:48Z</time>
      </trkpt>
      <trkpt lat="47.02566" lon="-1.74612">
        <ele>90</ele>
        <time>2011-09-04T09:10:50Z</time>
      </trkpt>
      <trkpt lat="47.02566" lon="-1.74603">
        <ele>91</ele>
        <time>2011-09-04T09:10:52Z</time>
      </trkpt>
      <trkpt lat="47.02566" lon="-1.74592">
        <ele>90</ele>
        <time>2011-09-04T09:10:54Z</time>
      </trkpt>
      <trkpt lat="47.02566" lon="-1.74581">
        <ele>90</ele>
        <time>2011-09-04T09:10:56Z</time>
      </trkpt>
      <trkpt lat="47.02567" lon="-1.74569">
        <ele>90</ele>
        <time>2011-09-04T09:10:58Z</time>
      </trkpt>
      <trkpt lat="47.02568" lon="-1.74558">
        <ele>90</ele>
        <time>2011-09-04T09:11:00Z</time>
      </trkpt>
      <trkpt lat="47.02569" lon="-1.74547">
        <ele>90</ele>
        <time>2011-09-04T09:11:02Z</time>
      </trkpt>
      <trkpt lat="47.0257" lon="-1.7454">
        <ele>89</ele>
        <time>2011-09-04T09:11:03Z</time>
      </trkpt>
      <trkpt lat="47.02571" lon="-1.74529">
        <ele>89</ele>
        <time>2011-09-04T09:11:05Z</time>
      </trkpt>
      <trkpt lat="47.02573" lon="-1.74523">
        <ele>89</ele>
        <time>2011-09-04T09:11:06Z</time>
      </trkpt>
      <trkpt lat="47.02576" lon="-1.7451">
        <ele>89</ele>
        <time>2011-09-04T09:11:08Z</time>
      </trkpt>
      <trkpt lat="47.02579" lon="-1.74498">
        <ele>88</ele>
        <time>2011-09-04T09:11:10Z</time>
      </trkpt>
      <trkpt lat="47.02582" lon="-1.74488">
        <ele>88</ele>
        <time>2011-09-04T09:11:12Z</time>
      </trkpt>
      <trkpt lat="47.02584" lon="-1.7448">
        <ele>88</ele>
        <time>2011-09-04T09:11:14Z</time>
      </trkpt>
      <trkpt lat="47.02588" lon="-1.74472">
        <ele>87</ele>
        <time>2011-09-04T09:11:16Z</time>
      </trkpt>
      <trkpt lat="47.02594" lon="-1.74465">
        <ele>85</ele>
        <time>2011-09-04T09:11:18Z</time>
      </trkpt>
      <trkpt lat="47.02598" lon="-1.74456">
        <ele>84</ele>
        <time>2011-09-04T09:11:20Z</time>
      </trkpt>
      <trkpt lat="47.026" lon="-1.74447">
        <ele>85</ele>
        <time>2011-09-04T09:11:22Z</time>
      </trkpt>
      <trkpt lat="47.02604" lon="-1.74435">
        <ele>86</ele>
        <time>2011-09-04T09:11:24Z</time>
      </trkpt>
      <trkpt lat="47.02606" lon="-1.74425">
        <ele>87</ele>
        <time>2011-09-04T09:11:26Z</time>
      </trkpt>
      <trkpt lat="47.02608" lon="-1.74415">
        <ele>88</ele>
        <time>2011-09-04T09:11:28Z</time>
      </trkpt>
      <trkpt lat="47.02611" lon="-1.7441">
        <ele>87</ele>
        <time>2011-09-04T09:11:29Z</time>
      </trkpt>
      <trkpt lat="47.02613" lon="-1.744">
        <ele>88</ele>
        <time>2011-09-04T09:11:31Z</time>
      </trkpt>
      <trkpt lat="47.02616" lon="-1.7439">
        <ele>88</ele>
        <time>2011-09-04T09:11:33Z</time>
      </trkpt>
      <trkpt lat="47.02618" lon="-1.74382">
        <ele>89</ele>
        <time>2011-09-04T09:11:35Z</time>
      </trkpt>
      <trkpt lat="47.0262" lon="-1.74372">
        <ele>90</ele>
        <time>2011-09-04T09:11:37Z</time>
      </trkpt>
      <trkpt lat="47.02623" lon="-1.74364">
        <ele>90</ele>
        <time>2011-09-04T09:11:39Z</time>
      </trkpt>
      <trkpt lat="47.02624" lon="-1.74355">
        <ele>90</ele>
        <time>2011-09-04T09:11:41Z</time>
      </trkpt>
      <trkpt lat="47.02628" lon="-1.74346">
        <ele>91</ele>
        <time>2011-09-04T09:11:43Z</time>
      </trkpt>
      <trkpt lat="47.02631" lon="-1.74337">
        <ele>91</ele>
        <time>2011-09-04T09:11:45Z</time>
      </trkpt>
      <trkpt lat="47.02634" lon="-1.74328">
        <ele>92</ele>
        <time>2011-09-04T09:11:47Z</time>
      </trkpt>
      <trkpt lat="47.02636" lon="-1.74319">
        <ele>93</ele>
        <time>2011-09-04T09:11:49Z</time>
      </trkpt>
      <trkpt lat="47.02639" lon="-1.74311">
        <ele>93</ele>
        <time>2011-09-04T09:11:51Z</time>
      </trkpt>
      <trkpt lat="47.02642" lon="-1.74302">
        <ele>94</ele>
        <time>2011-09-04T09:11:53Z</time>
      </trkpt>
      <trkpt lat="47.02646" lon="-1.74294">
        <ele>95</ele>
        <time>2011-09-04T09:11:55Z</time>
      </trkpt>
      <trkpt lat="47.02649" lon="-1.74284">
        <ele>96</ele>
        <time>2011-09-04T09:11:57Z</time>
      </trkpt>
      <trkpt lat="47.02652" lon="-1.74275">
        <ele>97</ele>
        <time>2011-09-04T09:11:59Z</time>
      </trkpt>
      <trkpt lat="47.02656" lon="-1.74267">
        <ele>97</ele>
        <time>2011-09-04T09:12:01Z</time>
      </trkpt>
      <trkpt lat="47.0266" lon="-1.74258">
        <ele>98</ele>
        <time>2011-09-04T09:12:03Z</time>
      </trkpt>
      <trkpt lat="47.02664" lon="-1.74249">
        <ele>98</ele>
        <time>2011-09-04T09:12:05Z</time>
      </trkpt>
      <trkpt lat="47.02667" lon="-1.7424">
        <ele>99</ele>
        <time>2011-09-04T09:12:07Z</time>
      </trkpt>
      <trkpt lat="47.02671" lon="-1.74232">
        <ele>99</ele>
        <time>2011-09-04T09:12:09Z</time>
      </trkpt>
      <trkpt lat="47.02674" lon="-1.74227">
        <ele>99</ele>
        <time>2011-09-04T09:12:10Z</time>
      </trkpt>
      <trkpt lat="47.02677" lon="-1.74216">
        <ele>99</ele>
        <time>2011-09-04T09:12:12Z</time>
      </trkpt>
      <trkpt lat="47.02681" lon="-1.74207">
        <ele>99</ele>
        <time>2011-09-04T09:12:14Z</time>
      </trkpt>
      <trkpt lat="47.02685" lon="-1.74201">
        <ele>100</ele>
        <time>2011-09-04T09:12:16Z</time>
      </trkpt>
      <trkpt lat="47.02689" lon="-1.74194">
        <ele>100</ele>
        <time>2011-09-04T09:12:18Z</time>
      </trkpt>
      <trkpt lat="47.02695" lon="-1.74186">
        <ele>99</ele>
        <time>2011-09-04T09:12:20Z</time>
      </trkpt>
      <trkpt lat="47.02701" lon="-1.74178">
        <ele>98</ele>
        <time>2011-09-04T09:12:22Z</time>
      </trkpt>
      <trkpt lat="47.02706" lon="-1.74174">
        <ele>98</ele>
        <time>2011-09-04T09:12:23Z</time>
      </trkpt>
      <trkpt lat="47.0271" lon="-1.74169">
        <ele>96</ele>
        <time>2011-09-04T09:12:24Z</time>
      </trkpt>
      <trkpt lat="47.02713" lon="-1.74163">
        <ele>95</ele>
        <time>2011-09-04T09:12:25Z</time>
      </trkpt>
      <trkpt lat="47.0272" lon="-1.74156">
        <ele>94</ele>
        <time>2011-09-04T09:12:27Z</time>
      </trkpt>
      <trkpt lat="47.02725" lon="-1.7415">
        <ele>93</ele>
        <time>2011-09-04T09:12:29Z</time>
      </trkpt>
      <trkpt lat="47.02732" lon="-1.74142">
        <ele>92</ele>
        <time>2011-09-04T09:12:31Z</time>
      </trkpt>
      <trkpt lat="47.02738" lon="-1.74135">
        <ele>91</ele>
        <time>2011-09-04T09:12:33Z</time>
      </trkpt>
      <trkpt lat="47.02743" lon="-1.74126">
        <ele>91</ele>
        <time>2011-09-04T09:12:35Z</time>
      </trkpt>
      <trkpt lat="47.02746" lon="-1.74121">
        <ele>90</ele>
        <time>2011-09-04T09:12:36Z</time>
      </trkpt>
      <trkpt lat="47.02749" lon="-1.74116">
        <ele>89</ele>
        <time>2011-09-04T09:12:37Z</time>
      </trkpt>
      <trkpt lat="47.02754" lon="-1.74111">
        <ele>88</ele>
        <time>2011-09-04T09:12:38Z</time>
      </trkpt>
      <trkpt lat="47.02758" lon="-1.74106">
        <ele>87</ele>
        <time>2011-09-04T09:12:39Z</time>
      </trkpt>
      <trkpt lat="47.02763" lon="-1.74101">
        <ele>85</ele>
        <time>2011-09-04T09:12:40Z</time>
      </trkpt>
      <trkpt lat="47.0277" lon="-1.74093">
        <ele>84</ele>
        <time>2011-09-04T09:12:42Z</time>
      </trkpt>
      <trkpt lat="47.02776" lon="-1.74084">
        <ele>84</ele>
        <time>2011-09-04T09:12:44Z</time>
      </trkpt>
      <trkpt lat="47.02781" lon="-1.74076">
        <ele>84</ele>
        <time>2011-09-04T09:12:46Z</time>
      </trkpt>
      <trkpt lat="47.02786" lon="-1.74069">
        <ele>84</ele>
        <time>2011-09-04T09:12:48Z</time>
      </trkpt>
      <trkpt lat="47.02789" lon="-1.74061">
        <ele>85</ele>
        <time>2011-09-04T09:12:50Z</time>
      </trkpt>
      <trkpt lat="47.02792" lon="-1.74053">
        <ele>85</ele>
        <time>2011-09-04T09:12:52Z</time>
      </trkpt>
      <trkpt lat="47.02798" lon="-1.74046">
        <ele>86</ele>
        <time>2011-09-04T09:12:54Z</time>
      </trkpt>
      <trkpt lat="47.02801" lon="-1.74043">
        <ele>87</ele>
        <time>2011-09-04T09:12:56Z</time>
      </trkpt>
      <trkpt lat="47.02806" lon="-1.74041">
        <ele>87</ele>
        <time>2011-09-04T09:12:58Z</time>
      </trkpt>
      <trkpt lat="47.02811" lon="-1.74039">
        <ele>85</ele>
        <time>2011-09-04T09:13:01Z</time>
      </trkpt>
      <trkpt lat="47.02815" lon="-1.74037">
        <ele>85</ele>
        <time>2011-09-04T09:13:04Z</time>
      </trkpt>
      <trkpt lat="47.0282" lon="-1.74034">
        <ele>84</ele>
        <time>2011-09-04T09:13:07Z</time>
      </trkpt>
      <trkpt lat="47.02823" lon="-1.74031">
        <ele>83</ele>
        <time>2011-09-04T09:13:10Z</time>
      </trkpt>
      <trkpt lat="47.02828" lon="-1.74026">
        <ele>83</ele>
        <time>2011-09-04T09:13:14Z</time>
      </trkpt>
      <trkpt lat="47.02832" lon="-1.74024">
        <ele>83</ele>
        <time>2011-09-04T09:13:16Z</time>
      </trkpt>
      <trkpt lat="47.02836" lon="-1.7402">
        <ele>85</ele>
        <time>2011-09-04T09:13:19Z</time>
      </trkpt>
      <trkpt lat="47.0284" lon="-1.74014">
        <ele>87</ele>
        <time>2011-09-04T09:13:21Z</time>
      </trkpt>
      <trkpt lat="47.02846" lon="-1.74009">
        <ele>89</ele>
        <time>2011-09-04T09:13:24Z</time>
      </trkpt>
      <trkpt lat="47.0285" lon="-1.74006">
        <ele>90</ele>
        <time>2011-09-04T09:13:26Z</time>
      </trkpt>
      <trkpt lat="47.02854" lon="-1.74002">
        <ele>90</ele>
        <time>2011-09-04T09:13:28Z</time>
      </trkpt>
      <trkpt lat="47.02859" lon="-1.73999">
        <ele>90</ele>
        <time>2011-09-04T09:13:30Z</time>
      </trkpt>
      <trkpt lat="47.02864" lon="-1.73997">
        <ele>90</ele>
        <time>2011-09-04T09:13:32Z</time>
      </trkpt>
      <trkpt lat="47.02869" lon="-1.73996">
        <ele>91</ele>
        <time>2011-09-04T09:13:34Z</time>
      </trkpt>
      <trkpt lat="47.02874" lon="-1.73995">
        <ele>91</ele>
        <time>2011-09-04T09:13:36Z</time>
      </trkpt>
      <trkpt lat="47.02881" lon="-1.73995">
        <ele>91</ele>
        <time>2011-09-04T09:13:38Z</time>
      </trkpt>
      <trkpt lat="47.02892" lon="-1.73992">
        <ele>89</ele>
        <time>2011-09-04T09:13:40Z</time>
      </trkpt>
      <trkpt lat="47.029" lon="-1.73988">
        <ele>87</ele>
        <time>2011-09-04T09:13:42Z</time>
      </trkpt>
      <trkpt lat="47.02908" lon="-1.73987">
        <ele>85</ele>
        <time>2011-09-04T09:13:44Z</time>
      </trkpt>
      <trkpt lat="47.02916" lon="-1.73986">
        <ele>84</ele>
        <time>2011-09-04T09:13:46Z</time>
      </trkpt>
      <trkpt lat="47.02922" lon="-1.73986">
        <ele>84</ele>
        <time>2011-09-04T09:13:48Z</time>
      </trkpt>
      <trkpt lat="47.02931" lon="-1.73986">
        <ele>84</ele>
        <time>2011-09-04T09:13:50Z</time>
      </trkpt>
      <trkpt lat="47.02936" lon="-1.73986">
        <ele>85</ele>
        <time>2011-09-04T09:13:51Z</time>
      </trkpt>
      <trkpt lat="47.02943" lon="-1.73987">
        <ele>85</ele>
        <time>2011-09-04T09:13:53Z</time>
      </trkpt>
      <trkpt lat="47.0295" lon="-1.73987">
        <ele>85</ele>
        <time>2011-09-04T09:13:55Z</time>
      </trkpt>
      <trkpt lat="47.02958" lon="-1.73987">
        <ele>85</ele>
        <time>2011-09-04T09:13:57Z</time>
      </trkpt>
      <trkpt lat="47.02964" lon="-1.73986">
        <ele>84</ele>
        <time>2011-09-04T09:13:59Z</time>
      </trkpt>
      <trkpt lat="47.02971" lon="-1.73986">
        <ele>83</ele>
        <time>2011-09-04T09:14:01Z</time>
      </trkpt>
      <trkpt lat="47.02976" lon="-1.73986">
        <ele>83</ele>
        <time>2011-09-04T09:14:03Z</time>
      </trkpt>
      <trkpt lat="47.02984" lon="-1.73987">
        <ele>83</ele>
        <time>2011-09-04T09:14:05Z</time>
      </trkpt>
      <trkpt lat="47.02991" lon="-1.7399">
        <ele>82</ele>
        <time>2011-09-04T09:14:07Z</time>
      </trkpt>
      <trkpt lat="47.02998" lon="-1.73992">
        <ele>82</ele>
        <time>2011-09-04T09:14:09Z</time>
      </trkpt>
      <trkpt lat="47.03004" lon="-1.73994">
        <ele>82</ele>
        <time>2011-09-04T09:14:11Z</time>
      </trkpt>
      <trkpt lat="47.0301" lon="-1.73996">
        <ele>82</ele>
        <time>2011-09-04T09:14:13Z</time>
      </trkpt>
      <trkpt lat="47.03016" lon="-1.73999">
        <ele>82</ele>
        <time>2011-09-04T09:14:15Z</time>
      </trkpt>
      <trkpt lat="47.03022" lon="-1.74">
        <ele>82</ele>
        <time>2011-09-04T09:14:17Z</time>
      </trkpt>
      <trkpt lat="47.03027" lon="-1.74001">
        <ele>81</ele>
        <time>2011-09-04T09:14:19Z</time>
      </trkpt>
      <trkpt lat="47.03034" lon="-1.74002">
        <ele>80</ele>
        <time>2011-09-04T09:14:21Z</time>
      </trkpt>
      <trkpt lat="47.0304" lon="-1.74001">
        <ele>81</ele>
        <time>2011-09-04T09:14:23Z</time>
      </trkpt>
      <trkpt lat="47.03047" lon="-1.73998">
        <ele>81</ele>
        <time>2011-09-04T09:14:25Z</time>
      </trkpt>
      <trkpt lat="47.03054" lon="-1.73993">
        <ele>82</ele>
        <time>2011-09-04T09:14:27Z</time>
      </trkpt>
      <trkpt lat="47.03061" lon="-1.73987">
        <ele>82</ele>
        <time>2011-09-04T09:14:29Z</time>
      </trkpt>
      <trkpt lat="47.0307" lon="-1.73981">
        <ele>83</ele>
        <time>2011-09-04T09:14:31Z</time>
      </trkpt>
      <trkpt lat="47.03074" lon="-1.73978">
        <ele>83</ele>
        <time>2011-09-04T09:14:32Z</time>
      </trkpt>
      <trkpt lat="47.03079" lon="-1.73975">
        <ele>83</ele>
        <time>2011-09-04T09:14:33Z</time>
      </trkpt>
      <trkpt lat="47.03083" lon="-1.73972">
        <ele>83</ele>
        <time>2011-09-04T09:14:34Z</time>
      </trkpt>
      <trkpt lat="47.03088" lon="-1.73968">
        <ele>83</ele>
        <time>2011-09-04T09:14:35Z</time>
      </trkpt>
      <trkpt lat="47.03092" lon="-1.73965">
        <ele>83</ele>
        <time>2011-09-04T09:14:36Z</time>
      </trkpt>
      <trkpt lat="47.03097" lon="-1.73961">
        <ele>83</ele>
        <time>2011-09-04T09:14:37Z</time>
      </trkpt>
      <trkpt lat="47.03102" lon="-1.73957">
        <ele>83</ele>
        <time>2011-09-04T09:14:38Z</time>
      </trkpt>
      <trkpt lat="47.03107" lon="-1.73954">
        <ele>83</ele>
        <time>2011-09-04T09:14:39Z</time>
      </trkpt>
      <trkpt lat="47.03112" lon="-1.7395">
        <ele>83</ele>
        <time>2011-09-04T09:14:40Z</time>
      </trkpt>
      <trkpt lat="47.03117" lon="-1.73947">
        <ele>83</ele>
        <time>2011-09-04T09:14:41Z</time>
      </trkpt>
      <trkpt lat="47.03122" lon="-1.73943">
        <ele>83</ele>
        <time>2011-09-04T09:14:42Z</time>
      </trkpt>
      <trkpt lat="47.03126" lon="-1.7394">
        <ele>83</ele>
        <time>2011-09-04T09:14:43Z</time>
      </trkpt>
      <trkpt lat="47.03131" lon="-1.73936">
        <ele>83</ele>
        <time>2011-09-04T09:14:44Z</time>
      </trkpt>
      <trkpt lat="47.03136" lon="-1.73933">
        <ele>83</ele>
        <time>2011-09-04T09:14:45Z</time>
      </trkpt>
      <trkpt lat="47.03141" lon="-1.73929">
        <ele>83</ele>
        <time>2011-09-04T09:14:46Z</time>
      </trkpt>
      <trkpt lat="47.03146" lon="-1.73926">
        <ele>83</ele>
        <time>2011-09-04T09:14:47Z</time>
      </trkpt>
      <trkpt lat="47.0315" lon="-1.73922">
        <ele>83</ele>
        <time>2011-09-04T09:14:48Z</time>
      </trkpt>
      <trkpt lat="47.03155" lon="-1.73918">
        <ele>83</ele>
        <time>2011-09-04T09:14:49Z</time>
      </trkpt>
      <trkpt lat="47.0316" lon="-1.73914">
        <ele>82</ele>
        <time>2011-09-04T09:14:50Z</time>
      </trkpt>
      <trkpt lat="47.03164" lon="-1.73911">
        <ele>82</ele>
        <time>2011-09-04T09:14:51Z</time>
      </trkpt>
      <trkpt lat="47.03169" lon="-1.73907">
        <ele>82</ele>
        <time>2011-09-04T09:14:52Z</time>
      </trkpt>
      <trkpt lat="47.03174" lon="-1.73904">
        <ele>82</ele>
        <time>2011-09-04T09:14:53Z</time>
      </trkpt>
      <trkpt lat="47.03178" lon="-1.739">
        <ele>82</ele>
        <time>2011-09-04T09:14:54Z</time>
      </trkpt>
      <trkpt lat="47.03184" lon="-1.73897">
        <ele>82</ele>
        <time>2011-09-04T09:14:55Z</time>
      </trkpt>
      <trkpt lat="47.03188" lon="-1.73894">
        <ele>82</ele>
        <time>2011-09-04T09:14:56Z</time>
      </trkpt>
      <trkpt lat="47.03193" lon="-1.73891">
        <ele>82</ele>
        <time>2011-09-04T09:14:57Z</time>
      </trkpt>
      <trkpt lat="47.03199" lon="-1.73888">
        <ele>81</ele>
        <time>2011-09-04T09:14:58Z</time>
      </trkpt>
      <trkpt lat="47.03204" lon="-1.73885">
        <ele>81</ele>
        <time>2011-09-04T09:14:59Z</time>
      </trkpt>
      <trkpt lat="47.0321" lon="-1.73883">
        <ele>81</ele>
        <time>2011-09-04T09:15:00Z</time>
      </trkpt>
      <trkpt lat="47.03215" lon="-1.7388">
        <ele>81</ele>
        <time>2011-09-04T09:15:01Z</time>
      </trkpt>
      <trkpt lat="47.0322" lon="-1.73878">
        <ele>81</ele>
        <time>2011-09-04T09:15:02Z</time>
      </trkpt>
      <trkpt lat="47.03225" lon="-1.73875">
        <ele>81</ele>
        <time>2011-09-04T09:15:03Z</time>
      </trkpt>
      <trkpt lat="47.0323" lon="-1.73873">
        <ele>81</ele>
        <time>2011-09-04T09:15:04Z</time>
      </trkpt>
      <trkpt lat="47.03235" lon="-1.7387">
        <ele>81</ele>
        <time>2011-09-04T09:15:05Z</time>
      </trkpt>
      <trkpt lat="47.0324" lon="-1.73869">
        <ele>81</ele>
        <time>2011-09-04T09:15:06Z</time>
      </trkpt>
      <trkpt lat="47.03245" lon="-1.73866">
        <ele>82</ele>
        <time>2011-09-04T09:15:07Z</time>
      </trkpt>
      <trkpt lat="47.0325" lon="-1.73864">
        <ele>82</ele>
        <time>2011-09-04T09:15:08Z</time>
      </trkpt>
      <trkpt lat="47.03255" lon="-1.73861">
        <ele>82</ele>
        <time>2011-09-04T09:15:09Z</time>
      </trkpt>
      <trkpt lat="47.0326" lon="-1.73859">
        <ele>82</ele>
        <time>2011-09-04T09:15:10Z</time>
      </trkpt>
      <trkpt lat="47.03265" lon="-1.73858">
        <ele>82</ele>
        <time>2011-09-04T09:15:11Z</time>
      </trkpt>
      <trkpt lat="47.03271" lon="-1.73858">
        <ele>82</ele>
        <time>2011-09-04T09:15:12Z</time>
      </trkpt>
      <trkpt lat="47.03276" lon="-1.73858">
        <ele>82</ele>
        <time>2011-09-04T09:15:13Z</time>
      </trkpt>
      <trkpt lat="47.03281" lon="-1.73858">
        <ele>82</ele>
        <time>2011-09-04T09:15:14Z</time>
      </trkpt>
      <trkpt lat="47.03287" lon="-1.7386">
        <ele>82</ele>
        <time>2011-09-04T09:15:15Z</time>
      </trkpt>
      <trkpt lat="47.03292" lon="-1.73862">
        <ele>82</ele>
        <time>2011-09-04T09:15:16Z</time>
      </trkpt>
      <trkpt lat="47.03297" lon="-1.73864">
        <ele>82</ele>
        <time>2011-09-04T09:15:17Z</time>
      </trkpt>
      <trkpt lat="47.03302" lon="-1.73867">
        <ele>83</ele>
        <time>2011-09-04T09:15:18Z</time>
      </trkpt>
      <trkpt lat="47.03306" lon="-1.7387">
        <ele>82</ele>
        <time>2011-09-04T09:15:19Z</time>
      </trkpt>
      <trkpt lat="47.0331" lon="-1.73874">
        <ele>82</ele>
        <time>2011-09-04T09:15:20Z</time>
      </trkpt>
      <trkpt lat="47.03315" lon="-1.73877">
        <ele>82</ele>
        <time>2011-09-04T09:15:21Z</time>
      </trkpt>
      <trkpt lat="47.03318" lon="-1.73881">
        <ele>82</ele>
        <time>2011-09-04T09:15:22Z</time>
      </trkpt>
      <trkpt lat="47.03323" lon="-1.73885">
        <ele>82</ele>
        <time>2011-09-04T09:15:23Z</time>
      </trkpt>
      <trkpt lat="47.03327" lon="-1.7389">
        <ele>82</ele>
        <time>2011-09-04T09:15:24Z</time>
      </trkpt>
      <trkpt lat="47.03331" lon="-1.73894">
        <ele>82</ele>
        <time>2011-09-04T09:15:25Z</time>
      </trkpt>
      <trkpt lat="47.03335" lon="-1.73897">
        <ele>81</ele>
        <time>2011-09-04T09:15:26Z</time>
      </trkpt>
      <trkpt lat="47.03339" lon="-1.73902">
        <ele>81</ele>
        <time>2011-09-04T09:15:27Z</time>
      </trkpt>
      <trkpt lat="47.03343" lon="-1.73906">
        <ele>81</ele>
        <time>2011-09-04T09:15:28Z</time>
      </trkpt>
      <trkpt lat="47.03346" lon="-1.73917">
        <ele>81</ele>
        <time>2011-09-04T09:15:30Z</time>
      </trkpt>
      <trkpt lat="47.0334" lon="-1.73925">
        <ele>80</ele>
        <time>2011-09-04T09:15:32Z</time>
      </trkpt>
      <trkpt lat="47.03333" lon="-1.73932">
        <ele>80</ele>
        <time>2011-09-04T09:15:34Z</time>
      </trkpt>
      <trkpt lat="47.03329" lon="-1.73936">
        <ele>80</ele>
        <time>2011-09-04T09:15:35Z</time>
      </trkpt>
      <trkpt lat="47.03325" lon="-1.73941">
        <ele>80</ele>
        <time>2011-09-04T09:15:36Z</time>
      </trkpt>
      <trkpt lat="47.03321" lon="-1.73946">
        <ele>80</ele>
        <time>2011-09-04T09:15:37Z</time>
      </trkpt>
      <trkpt lat="47.03318" lon="-1.73951">
        <ele>80</ele>
        <time>2011-09-04T09:15:38Z</time>
      </trkpt>
      <trkpt lat="47.03315" lon="-1.73958">
        <ele>80</ele>
        <time>2011-09-04T09:15:39Z</time>
      </trkpt>
      <trkpt lat="47.03312" lon="-1.73964">
        <ele>80</ele>
        <time>2011-09-04T09:15:40Z</time>
      </trkpt>
      <trkpt lat="47.03309" lon="-1.73972">
        <ele>80</ele>
        <time>2011-09-04T09:15:41Z</time>
      </trkpt>
      <trkpt lat="47.03307" lon="-1.7398">
        <ele>80</ele>
        <time>2011-09-04T09:15:42Z</time>
      </trkpt>
      <trkpt lat="47.03304" lon="-1.73989">
        <ele>80</ele>
        <time>2011-09-04T09:15:43Z</time>
      </trkpt>
      <trkpt lat="47.03301" lon="-1.73998">
        <ele>80</ele>
        <time>2011-09-04T09:15:44Z</time>
      </trkpt>
      <trkpt lat="47.03299" lon="-1.74007">
        <ele>79</ele>
        <time>2011-09-04T09:15:45Z</time>
      </trkpt>
      <trkpt lat="47.03297" lon="-1.74016">
        <ele>79</ele>
        <time>2011-09-04T09:15:46Z</time>
      </trkpt>
      <trkpt lat="47.03294" lon="-1.74026">
        <ele>79</ele>
        <time>2011-09-04T09:15:47Z</time>
      </trkpt>
      <trkpt lat="47.03293" lon="-1.74035">
        <ele>78</ele>
        <time>2011-09-04T09:15:48Z</time>
      </trkpt>
      <trkpt lat="47.03291" lon="-1.74044">
        <ele>78</ele>
        <time>2011-09-04T09:15:49Z</time>
      </trkpt>
      <trkpt lat="47.03289" lon="-1.74053">
        <ele>78</ele>
        <time>2011-09-04T09:15:50Z</time>
      </trkpt>
      <trkpt lat="47.03288" lon="-1.74061">
        <ele>78</ele>
        <time>2011-09-04T09:15:51Z</time>
      </trkpt>
      <trkpt lat="47.03286" lon="-1.74069">
        <ele>77</ele>
        <time>2011-09-04T09:15:52Z</time>
      </trkpt>
      <trkpt lat="47.03284" lon="-1.74078">
        <ele>77</ele>
        <time>2011-09-04T09:15:53Z</time>
      </trkpt>
      <trkpt lat="47.03282" lon="-1.74086">
        <ele>77</ele>
        <time>2011-09-04T09:15:54Z</time>
      </trkpt>
      <trkpt lat="47.0328" lon="-1.74095">
        <ele>77</ele>
        <time>2011-09-04T09:15:55Z</time>
      </trkpt>
      <trkpt lat="47.03278" lon="-1.74104">
        <ele>77</ele>
        <time>2011-09-04T09:15:56Z</time>
      </trkpt>
      <trkpt lat="47.03277" lon="-1.74113">
        <ele>77</ele>
        <time>2011-09-04T09:15:57Z</time>
      </trkpt>
      <trkpt lat="47.03276" lon="-1.74123">
        <ele>77</ele>
        <time>2011-09-04T09:15:58Z</time>
      </trkpt>
      <trkpt lat="47.03276" lon="-1.74133">
        <ele>76</ele>
        <time>2011-09-04T09:15:59Z</time>
      </trkpt>
      <trkpt lat="47.03276" lon="-1.74143">
        <ele>76</ele>
        <time>2011-09-04T09:16:00Z</time>
      </trkpt>
      <trkpt lat="47.03276" lon="-1.74153">
        <ele>76</ele>
        <time>2011-09-04T09:16:01Z</time>
      </trkpt>
      <trkpt lat="47.03278" lon="-1.74162">
        <ele>75</ele>
        <time>2011-09-04T09:16:02Z</time>
      </trkpt>
      <trkpt lat="47.0328" lon="-1.74172">
        <ele>75</ele>
        <time>2011-09-04T09:16:03Z</time>
      </trkpt>
      <trkpt lat="47.03282" lon="-1.74182">
        <ele>75</ele>
        <time>2011-09-04T09:16:04Z</time>
      </trkpt>
      <trkpt lat="47.03284" lon="-1.74191">
        <ele>74</ele>
        <time>2011-09-04T09:16:05Z</time>
      </trkpt>
      <trkpt lat="47.03286" lon="-1.742">
        <ele>74</ele>
        <time>2011-09-04T09:16:06Z</time>
      </trkpt>
      <trkpt lat="47.03288" lon="-1.74209">
        <ele>74</ele>
        <time>2011-09-04T09:16:07Z</time>
      </trkpt>
      <trkpt lat="47.0329" lon="-1.74218">
        <ele>74</ele>
        <time>2011-09-04T09:16:08Z</time>
      </trkpt>
      <trkpt lat="47.03292" lon="-1.74228">
        <ele>74</ele>
        <time>2011-09-04T09:16:09Z</time>
      </trkpt>
      <trkpt lat="47.03294" lon="-1.74237">
        <ele>74</ele>
        <time>2011-09-04T09:16:10Z</time>
      </trkpt>
      <trkpt lat="47.03296" lon="-1.74246">
        <ele>74</ele>
        <time>2011-09-04T09:16:11Z</time>
      </trkpt>
      <trkpt lat="47.03298" lon="-1.74254">
        <ele>74</ele>
        <time>2011-09-04T09:16:12Z</time>
      </trkpt>
      <trkpt lat="47.03301" lon="-1.74263">
        <ele>73</ele>
        <time>2011-09-04T09:16:13Z</time>
      </trkpt>
      <trkpt lat="47.03304" lon="-1.74272">
        <ele>73</ele>
        <time>2011-09-04T09:16:14Z</time>
      </trkpt>
      <trkpt lat="47.03308" lon="-1.74279">
        <ele>73</ele>
        <time>2011-09-04T09:16:15Z</time>
      </trkpt>
      <trkpt lat="47.03311" lon="-1.74287">
        <ele>73</ele>
        <time>2011-09-04T09:16:16Z</time>
      </trkpt>
      <trkpt lat="47.03315" lon="-1.74294">
        <ele>73</ele>
        <time>2011-09-04T09:16:17Z</time>
      </trkpt>
      <trkpt lat="47.03318" lon="-1.74301">
        <ele>73</ele>
        <time>2011-09-04T09:16:18Z</time>
      </trkpt>
      <trkpt lat="47.03323" lon="-1.74307">
        <ele>73</ele>
        <time>2011-09-04T09:16:19Z</time>
      </trkpt>
      <trkpt lat="47.03326" lon="-1.74314">
        <ele>73</ele>
        <time>2011-09-04T09:16:20Z</time>
      </trkpt>
      <trkpt lat="47.0333" lon="-1.7432">
        <ele>73</ele>
        <time>2011-09-04T09:16:21Z</time>
      </trkpt>
      <trkpt lat="47.03333" lon="-1.74327">
        <ele>73</ele>
        <time>2011-09-04T09:16:22Z</time>
      </trkpt>
      <trkpt lat="47.03338" lon="-1.74334">
        <ele>73</ele>
        <time>2011-09-04T09:16:23Z</time>
      </trkpt>
      <trkpt lat="47.03342" lon="-1.74341">
        <ele>73</ele>
        <time>2011-09-04T09:16:24Z</time>
      </trkpt>
      <trkpt lat="47.03346" lon="-1.74348">
        <ele>73</ele>
        <time>2011-09-04T09:16:25Z</time>
      </trkpt>
      <trkpt lat="47.0335" lon="-1.74354">
        <ele>73</ele>
        <time>2011-09-04T09:16:26Z</time>
      </trkpt>
      <trkpt lat="47.03354" lon="-1.74361">
        <ele>73</ele>
        <time>2011-09-04T09:16:27Z</time>
      </trkpt>
      <trkpt lat="47.03358" lon="-1.74368">
        <ele>73</ele>
        <time>2011-09-04T09:16:28Z</time>
      </trkpt>
      <trkpt lat="47.03362" lon="-1.74374">
        <ele>73</ele>
        <time>2011-09-04T09:16:29Z</time>
      </trkpt>
      <trkpt lat="47.03367" lon="-1.7438">
        <ele>73</ele>
        <time>2011-09-04T09:16:30Z</time>
      </trkpt>
      <trkpt lat="47.03371" lon="-1.74385">
        <ele>73</ele>
        <time>2011-09-04T09:16:31Z</time>
      </trkpt>
      <trkpt lat="47.03376" lon="-1.7439">
        <ele>73</ele>
        <time>2011-09-04T09:16:32Z</time>
      </trkpt>
      <trkpt lat="47.0338" lon="-1.74394">
        <ele>73</ele>
        <time>2011-09-04T09:16:33Z</time>
      </trkpt>
      <trkpt lat="47.03385" lon="-1.74399">
        <ele>73</ele>
        <time>2011-09-04T09:16:34Z</time>
      </trkpt>
      <trkpt lat="47.03391" lon="-1.74404">
        <ele>73</ele>
        <time>2011-09-04T09:16:35Z</time>
      </trkpt>
      <trkpt lat="47.03396" lon="-1.74408">
        <ele>73</ele>
        <time>2011-09-04T09:16:36Z</time>
      </trkpt>
      <trkpt lat="47.03401" lon="-1.74412">
        <ele>73</ele>
        <time>2011-09-04T09:16:37Z</time>
      </trkpt>
      <trkpt lat="47.03406" lon="-1.74416">
        <ele>73</ele>
        <time>2011-09-04T09:16:38Z</time>
      </trkpt>
      <trkpt lat="47.03412" lon="-1.7442">
        <ele>73</ele>
        <time>2011-09-04T09:16:39Z</time>
      </trkpt>
      <trkpt lat="47.03417" lon="-1.74424">
        <ele>73</ele>
        <time>2011-09-04T09:16:40Z</time>
      </trkpt>
      <trkpt lat="47.03422" lon="-1.74428">
        <ele>73</ele>
        <time>2011-09-04T09:16:41Z</time>
      </trkpt>
      <trkpt lat="47.03427" lon="-1.74431">
        <ele>73</ele>
        <time>2011-09-04T09:16:42Z</time>
      </trkpt>
      <trkpt lat="47.03433" lon="-1.74435">
        <ele>73</ele>
        <time>2011-09-04T09:16:43Z</time>
      </trkpt>
      <trkpt lat="47.03438" lon="-1.74438">
        <ele>73</ele>
        <time>2011-09-04T09:16:44Z</time>
      </trkpt>
      <trkpt lat="47.03443" lon="-1.74442">
        <ele>74</ele>
        <time>2011-09-04T09:16:45Z</time>
      </trkpt>
      <trkpt lat="47.03448" lon="-1.74446">
        <ele>74</ele>
        <time>2011-09-04T09:16:46Z</time>
      </trkpt>
      <trkpt lat="47.03452" lon="-1.7445">
        <ele>74</ele>
        <time>2011-09-04T09:16:47Z</time>
      </trkpt>
      <trkpt lat="47.03457" lon="-1.74454">
        <ele>74</ele>
        <time>2011-09-04T09:16:48Z</time>
      </trkpt>
      <trkpt lat="47.03462" lon="-1.74457">
        <ele>74</ele>
        <time>2011-09-04T09:16:49Z</time>
      </trkpt>
      <trkpt lat="47.03467" lon="-1.7446">
        <ele>75</ele>
        <time>2011-09-04T09:16:50Z</time>
      </trkpt>
      <trkpt lat="47.03471" lon="-1.74464">
        <ele>75</ele>
        <time>2011-09-04T09:16:51Z</time>
      </trkpt>
      <trkpt lat="47.03476" lon="-1.74467">
        <ele>75</ele>
        <time>2011-09-04T09:16:52Z</time>
      </trkpt>
      <trkpt lat="47.0348" lon="-1.7447">
        <ele>75</ele>
        <time>2011-09-04T09:16:53Z</time>
      </trkpt>
      <trkpt lat="47.03485" lon="-1.74473">
        <ele>75</ele>
        <time>2011-09-04T09:16:54Z</time>
      </trkpt>
      <trkpt lat="47.03489" lon="-1.74476">
        <ele>76</ele>
        <time>2011-09-04T09:16:55Z</time>
      </trkpt>
      <trkpt lat="47.03493" lon="-1.74479">
        <ele>76</ele>
        <time>2011-09-04T09:16:56Z</time>
      </trkpt>
      <trkpt lat="47.03499" lon="-1.74483">
        <ele>76</ele>
        <time>2011-09-04T09:16:58Z</time>
      </trkpt>
      <trkpt lat="47.03499" lon="-1.74483">
        <ele>76</ele>
        <time>2011-09-04T09:16:58Z</time>
      </trkpt>
      <trkpt lat="47.03499" lon="-1.74483">
        <ele>76</ele>
        <time>2011-09-04T09:17:25Z</time>
      </trkpt>
      <trkpt lat="47.03506" lon="-1.74485">
        <ele>77</ele>
        <time>2011-09-04T09:18:02Z</time>
      </trkpt>
      <trkpt lat="47.0351" lon="-1.74489">
        <ele>77</ele>
        <time>2011-09-04T09:18:05Z</time>
      </trkpt>
      <trkpt lat="47.03516" lon="-1.74492">
        <ele>77</ele>
        <time>2011-09-04T09:18:08Z</time>
      </trkpt>
      <trkpt lat="47.0352" lon="-1.74495">
        <ele>78</ele>
        <time>2011-09-04T09:18:11Z</time>
      </trkpt>
      <trkpt lat="47.03525" lon="-1.74498">
        <ele>77</ele>
        <time>2011-09-04T09:18:15Z</time>
      </trkpt>
      <trkpt lat="47.0353" lon="-1.74501">
        <ele>78</ele>
        <time>2011-09-04T09:18:19Z</time>
      </trkpt>
      <trkpt lat="47.03535" lon="-1.74503">
        <ele>78</ele>
        <time>2011-09-04T09:18:22Z</time>
      </trkpt>
      <trkpt lat="47.03539" lon="-1.74505">
        <ele>78</ele>
        <time>2011-09-04T09:18:25Z</time>
      </trkpt>
      <trkpt lat="47.03544" lon="-1.74508">
        <ele>78</ele>
        <time>2011-09-04T09:18:28Z</time>
      </trkpt>
      <trkpt lat="47.03548" lon="-1.7451">
        <ele>78</ele>
        <time>2011-09-04T09:18:30Z</time>
      </trkpt>
      <trkpt lat="47.03554" lon="-1.74514">
        <ele>78</ele>
        <time>2011-09-04T09:18:32Z</time>
      </trkpt>
      <trkpt lat="47.03561" lon="-1.74518">
        <ele>78</ele>
        <time>2011-09-04T09:18:34Z</time>
      </trkpt>
      <trkpt lat="47.03568" lon="-1.74522">
        <ele>78</ele>
        <time>2011-09-04T09:18:36Z</time>
      </trkpt>
      <trkpt lat="47.03573" lon="-1.74524">
        <ele>78</ele>
        <time>2011-09-04T09:18:37Z</time>
      </trkpt>
      <trkpt lat="47.03577" lon="-1.74526">
        <ele>78</ele>
        <time>2011-09-04T09:18:38Z</time>
      </trkpt>
      <trkpt lat="47.03581" lon="-1.74529">
        <ele>78</ele>
        <time>2011-09-04T09:18:39Z</time>
      </trkpt>
      <trkpt lat="47.03586" lon="-1.74531">
        <ele>78</ele>
        <time>2011-09-04T09:18:40Z</time>
      </trkpt>
      <trkpt lat="47.03591" lon="-1.74533">
        <ele>78</ele>
        <time>2011-09-04T09:18:41Z</time>
      </trkpt>
      <trkpt lat="47.03596" lon="-1.74537">
        <ele>78</ele>
        <time>2011-09-04T09:18:42Z</time>
      </trkpt>
      <trkpt lat="47.036" lon="-1.7454">
        <ele>78</ele>
        <time>2011-09-04T09:18:43Z</time>
      </trkpt>
      <trkpt lat="47.03606" lon="-1.74543">
        <ele>78</ele>
        <time>2011-09-04T09:18:44Z</time>
      </trkpt>
      <trkpt lat="47.0361" lon="-1.74546">
        <ele>79</ele>
        <time>2011-09-04T09:18:45Z</time>
      </trkpt>
      <trkpt lat="47.03615" lon="-1.74549">
        <ele>79</ele>
        <time>2011-09-04T09:18:46Z</time>
      </trkpt>
      <trkpt lat="47.0362" lon="-1.74552">
        <ele>79</ele>
        <time>2011-09-04T09:18:47Z</time>
      </trkpt>
      <trkpt lat="47.03625" lon="-1.74555">
        <ele>79</ele>
        <time>2011-09-04T09:18:48Z</time>
      </trkpt>
      <trkpt lat="47.03629" lon="-1.74558">
        <ele>79</ele>
        <time>2011-09-04T09:18:49Z</time>
      </trkpt>
      <trkpt lat="47.03634" lon="-1.74561">
        <ele>78</ele>
        <time>2011-09-04T09:18:50Z</time>
      </trkpt>
      <trkpt lat="47.03638" lon="-1.74564">
        <ele>79</ele>
        <time>2011-09-04T09:18:51Z</time>
      </trkpt>
      <trkpt lat="47.03644" lon="-1.74568">
        <ele>79</ele>
        <time>2011-09-04T09:18:52Z</time>
      </trkpt>
      <trkpt lat="47.03648" lon="-1.74571">
        <ele>79</ele>
        <time>2011-09-04T09:18:53Z</time>
      </trkpt>
      <trkpt lat="47.03654" lon="-1.74574">
        <ele>79</ele>
        <time>2011-09-04T09:18:54Z</time>
      </trkpt>
      <trkpt lat="47.03659" lon="-1.74577">
        <ele>79</ele>
        <time>2011-09-04T09:18:55Z</time>
      </trkpt>
      <trkpt lat="47.03664" lon="-1.74581">
        <ele>79</ele>
        <time>2011-09-04T09:18:56Z</time>
      </trkpt>
      <trkpt lat="47.0367" lon="-1.74584">
        <ele>79</ele>
        <time>2011-09-04T09:18:57Z</time>
      </trkpt>
      <trkpt lat="47.03675" lon="-1.74587">
        <ele>79</ele>
        <time>2011-09-04T09:18:58Z</time>
      </trkpt>
      <trkpt lat="47.0368" lon="-1.74591">
        <ele>79</ele>
        <time>2011-09-04T09:18:59Z</time>
      </trkpt>
      <trkpt lat="47.03685" lon="-1.74595">
        <ele>80</ele>
        <time>2011-09-04T09:19:00Z</time>
      </trkpt>
      <trkpt lat="47.0369" lon="-1.74598">
        <ele>80</ele>
        <time>2011-09-04T09:19:01Z</time>
      </trkpt>
      <trkpt lat="47.03695" lon="-1.74601">
        <ele>80</ele>
        <time>2011-09-04T09:19:02Z</time>
      </trkpt>
      <trkpt lat="47.037" lon="-1.74604">
        <ele>80</ele>
        <time>2011-09-04T09:19:03Z</time>
      </trkpt>
      <trkpt lat="47.03705" lon="-1.74608">
        <ele>80</ele>
        <time>2011-09-04T09:19:04Z</time>
      </trkpt>
      <trkpt lat="47.03709" lon="-1.74611">
        <ele>80</ele>
        <time>2011-09-04T09:19:05Z</time>
      </trkpt>
      <trkpt lat="47.03714" lon="-1.74614">
        <ele>80</ele>
        <time>2011-09-04T09:19:06Z</time>
      </trkpt>
      <trkpt lat="47.0372" lon="-1.74618">
        <ele>80</ele>
        <time>2011-09-04T09:19:07Z</time>
      </trkpt>
      <trkpt lat="47.03726" lon="-1.74621">
        <ele>80</ele>
        <time>2011-09-04T09:19:08Z</time>
      </trkpt>
      <trkpt lat="47.03731" lon="-1.74624">
        <ele>80</ele>
        <time>2011-09-04T09:19:09Z</time>
      </trkpt>
      <trkpt lat="47.03736" lon="-1.74628">
        <ele>80</ele>
        <time>2011-09-04T09:19:10Z</time>
      </trkpt>
      <trkpt lat="47.03742" lon="-1.74632">
        <ele>80</ele>
        <time>2011-09-04T09:19:11Z</time>
      </trkpt>
      <trkpt lat="47.03748" lon="-1.74635">
        <ele>80</ele>
        <time>2011-09-04T09:19:12Z</time>
      </trkpt>
      <trkpt lat="47.03753" lon="-1.74639">
        <ele>80</ele>
        <time>2011-09-04T09:19:13Z</time>
      </trkpt>
      <trkpt lat="47.03759" lon="-1.74643">
        <ele>80</ele>
        <time>2011-09-04T09:19:14Z</time>
      </trkpt>
      <trkpt lat="47.03765" lon="-1.74646">
        <ele>80</ele>
        <time>2011-09-04T09:19:15Z</time>
      </trkpt>
      <trkpt lat="47.0377" lon="-1.7465">
        <ele>79</ele>
        <time>2011-09-04T09:19:16Z</time>
      </trkpt>
      <trkpt lat="47.03775" lon="-1.74653">
        <ele>79</ele>
        <time>2011-09-04T09:19:17Z</time>
      </trkpt>
      <trkpt lat="47.03781" lon="-1.74655">
        <ele>79</ele>
        <time>2011-09-04T09:19:18Z</time>
      </trkpt>
      <trkpt lat="47.03786" lon="-1.74656">
        <ele>79</ele>
        <time>2011-09-04T09:19:19Z</time>
      </trkpt>
      <trkpt lat="47.03792" lon="-1.74654">
        <ele>79</ele>
        <time>2011-09-04T09:19:20Z</time>
      </trkpt>
      <trkpt lat="47.03796" lon="-1.74649">
        <ele>79</ele>
        <time>2011-09-04T09:19:21Z</time>
      </trkpt>
      <trkpt lat="47.038" lon="-1.74643">
        <ele>79</ele>
        <time>2011-09-04T09:19:22Z</time>
      </trkpt>
      <trkpt lat="47.03803" lon="-1.74635">
        <ele>79</ele>
        <time>2011-09-04T09:19:23Z</time>
      </trkpt>
      <trkpt lat="47.03806" lon="-1.74627">
        <ele>80</ele>
        <time>2011-09-04T09:19:24Z</time>
      </trkpt>
      <trkpt lat="47.03808" lon="-1.74618">
        <ele>79</ele>
        <time>2011-09-04T09:19:25Z</time>
      </trkpt>
      <trkpt lat="47.03809" lon="-1.74609">
        <ele>80</ele>
        <time>2011-09-04T09:19:26Z</time>
      </trkpt>
      <trkpt lat="47.03812" lon="-1.746">
        <ele>79</ele>
        <time>2011-09-04T09:19:27Z</time>
      </trkpt>
      <trkpt lat="47.03815" lon="-1.74592">
        <ele>79</ele>
        <time>2011-09-04T09:19:28Z</time>
      </trkpt>
      <trkpt lat="47.03817" lon="-1.74583">
        <ele>79</ele>
        <time>2011-09-04T09:19:29Z</time>
      </trkpt>
      <trkpt lat="47.03819" lon="-1.74575">
        <ele>79</ele>
        <time>2011-09-04T09:19:30Z</time>
      </trkpt>
      <trkpt lat="47.03822" lon="-1.74566">
        <ele>79</ele>
        <time>2011-09-04T09:19:31Z</time>
      </trkpt>
      <trkpt lat="47.03824" lon="-1.74557">
        <ele>79</ele>
        <time>2011-09-04T09:19:32Z</time>
      </trkpt>
      <trkpt lat="47.03827" lon="-1.74548">
        <ele>79</ele>
        <time>2011-09-04T09:19:33Z</time>
      </trkpt>
      <trkpt lat="47.0383" lon="-1.74539">
        <ele>79</ele>
        <time>2011-09-04T09:19:34Z</time>
      </trkpt>
      <trkpt lat="47.03833" lon="-1.7453">
        <ele>79</ele>
        <time>2011-09-04T09:19:35Z</time>
      </trkpt>
      <trkpt lat="47.03836" lon="-1.74522">
        <ele>79</ele>
        <time>2011-09-04T09:19:36Z</time>
      </trkpt>
      <trkpt lat="47.03838" lon="-1.74513">
        <ele>79</ele>
        <time>2011-09-04T09:19:37Z</time>
      </trkpt>
      <trkpt lat="47.03841" lon="-1.74504">
        <ele>79</ele>
        <time>2011-09-04T09:19:38Z</time>
      </trkpt>
      <trkpt lat="47.03843" lon="-1.74495">
        <ele>78</ele>
        <time>2011-09-04T09:19:39Z</time>
      </trkpt>
      <trkpt lat="47.03846" lon="-1.74486">
        <ele>78</ele>
        <time>2011-09-04T09:19:40Z</time>
      </trkpt>
      <trkpt lat="47.03848" lon="-1.74478">
        <ele>78</ele>
        <time>2011-09-04T09:19:41Z</time>
      </trkpt>
      <trkpt lat="47.03852" lon="-1.74469">
        <ele>78</ele>
        <time>2011-09-04T09:19:42Z</time>
      </trkpt>
      <trkpt lat="47.03854" lon="-1.7446">
        <ele>78</ele>
        <time>2011-09-04T09:19:43Z</time>
      </trkpt>
      <trkpt lat="47.03857" lon="-1.74452">
        <ele>78</ele>
        <time>2011-09-04T09:19:44Z</time>
      </trkpt>
      <trkpt lat="47.0386" lon="-1.74443">
        <ele>78</ele>
        <time>2011-09-04T09:19:45Z</time>
      </trkpt>
      <trkpt lat="47.03862" lon="-1.74434">
        <ele>78</ele>
        <time>2011-09-04T09:19:46Z</time>
      </trkpt>
      <trkpt lat="47.03864" lon="-1.74425">
        <ele>78</ele>
        <time>2011-09-04T09:19:47Z</time>
      </trkpt>
      <trkpt lat="47.03866" lon="-1.74416">
        <ele>78</ele>
        <time>2011-09-04T09:19:48Z</time>
      </trkpt>
      <trkpt lat="47.03868" lon="-1.74407">
        <ele>78</ele>
        <time>2011-09-04T09:19:49Z</time>
      </trkpt>
      <trkpt lat="47.0387" lon="-1.74398">
        <ele>78</ele>
        <time>2011-09-04T09:19:50Z</time>
      </trkpt>
      <trkpt lat="47.03873" lon="-1.7439">
        <ele>78</ele>
        <time>2011-09-04T09:19:51Z</time>
      </trkpt>
      <trkpt lat="47.03875" lon="-1.74382">
        <ele>78</ele>
        <time>2011-09-04T09:19:52Z</time>
      </trkpt>
      <trkpt lat="47.03876" lon="-1.74373">
        <ele>79</ele>
        <time>2011-09-04T09:19:53Z</time>
      </trkpt>
      <trkpt lat="47.03878" lon="-1.74366">
        <ele>79</ele>
        <time>2011-09-04T09:19:54Z</time>
      </trkpt>
      <trkpt lat="47.0388" lon="-1.74359">
        <ele>79</ele>
        <time>2011-09-04T09:19:55Z</time>
      </trkpt>
      <trkpt lat="47.03882" lon="-1.74352">
        <ele>80</ele>
        <time>2011-09-04T09:19:56Z</time>
      </trkpt>
      <trkpt lat="47.03884" lon="-1.74345">
        <ele>80</ele>
        <time>2011-09-04T09:19:57Z</time>
      </trkpt>
      <trkpt lat="47.03886" lon="-1.74337">
        <ele>80</ele>
        <time>2011-09-04T09:19:58Z</time>
      </trkpt>
      <trkpt lat="47.03889" lon="-1.74329">
        <ele>80</ele>
        <time>2011-09-04T09:19:59Z</time>
      </trkpt>
      <trkpt lat="47.03891" lon="-1.7432">
        <ele>81</ele>
        <time>2011-09-04T09:20:00Z</time>
      </trkpt>
      <trkpt lat="47.03893" lon="-1.74312">
        <ele>81</ele>
        <time>2011-09-04T09:20:01Z</time>
      </trkpt>
      <trkpt lat="47.03894" lon="-1.74304">
        <ele>81</ele>
        <time>2011-09-04T09:20:02Z</time>
      </trkpt>
      <trkpt lat="47.03894" lon="-1.74296">
        <ele>81</ele>
        <time>2011-09-04T09:20:03Z</time>
      </trkpt>
      <trkpt lat="47.03897" lon="-1.74288">
        <ele>82</ele>
        <time>2011-09-04T09:20:04Z</time>
      </trkpt>
      <trkpt lat="47.039" lon="-1.7428">
        <ele>82</ele>
        <time>2011-09-04T09:20:05Z</time>
      </trkpt>
      <trkpt lat="47.03904" lon="-1.74275">
        <ele>82</ele>
        <time>2011-09-04T09:20:06Z</time>
      </trkpt>
      <trkpt lat="47.03908" lon="-1.74271">
        <ele>82</ele>
        <time>2011-09-04T09:20:07Z</time>
      </trkpt>
      <trkpt lat="47.03916" lon="-1.74265">
        <ele>82</ele>
        <time>2011-09-04T09:20:09Z</time>
      </trkpt>
      <trkpt lat="47.03924" lon="-1.74259">
        <ele>82</ele>
        <time>2011-09-04T09:20:11Z</time>
      </trkpt>
      <trkpt lat="47.03929" lon="-1.74255">
        <ele>82</ele>
        <time>2011-09-04T09:20:12Z</time>
      </trkpt>
      <trkpt lat="47.03935" lon="-1.74252">
        <ele>83</ele>
        <time>2011-09-04T09:20:13Z</time>
      </trkpt>
      <trkpt lat="47.0394" lon="-1.74248">
        <ele>83</ele>
        <time>2011-09-04T09:20:14Z</time>
      </trkpt>
      <trkpt lat="47.03944" lon="-1.74244">
        <ele>83</ele>
        <time>2011-09-04T09:20:15Z</time>
      </trkpt>
      <trkpt lat="47.0395" lon="-1.7424">
        <ele>84</ele>
        <time>2011-09-04T09:20:16Z</time>
      </trkpt>
      <trkpt lat="47.03955" lon="-1.74237">
        <ele>84</ele>
        <time>2011-09-04T09:20:17Z</time>
      </trkpt>
      <trkpt lat="47.0396" lon="-1.74233">
        <ele>84</ele>
        <time>2011-09-04T09:20:18Z</time>
      </trkpt>
      <trkpt lat="47.03965" lon="-1.74229">
        <ele>84</ele>
        <time>2011-09-04T09:20:19Z</time>
      </trkpt>
      <trkpt lat="47.0397" lon="-1.74227">
        <ele>84</ele>
        <time>2011-09-04T09:20:20Z</time>
      </trkpt>
      <trkpt lat="47.03978" lon="-1.74221">
        <ele>84</ele>
        <time>2011-09-04T09:20:22Z</time>
      </trkpt>
      <trkpt lat="47.03982" lon="-1.74218">
        <ele>84</ele>
        <time>2011-09-04T09:20:23Z</time>
      </trkpt>
      <trkpt lat="47.03986" lon="-1.74215">
        <ele>84</ele>
        <time>2011-09-04T09:20:24Z</time>
      </trkpt>
      <trkpt lat="47.0399" lon="-1.74211">
        <ele>84</ele>
        <time>2011-09-04T09:20:25Z</time>
      </trkpt>
      <trkpt lat="47.03999" lon="-1.74205">
        <ele>85</ele>
        <time>2011-09-04T09:20:27Z</time>
      </trkpt>
      <trkpt lat="47.04004" lon="-1.74201">
        <ele>85</ele>
        <time>2011-09-04T09:20:28Z</time>
      </trkpt>
      <trkpt lat="47.04009" lon="-1.74198">
        <ele>85</ele>
        <time>2011-09-04T09:20:29Z</time>
      </trkpt>
      <trkpt lat="47.04014" lon="-1.74196">
        <ele>86</ele>
        <time>2011-09-04T09:20:30Z</time>
      </trkpt>
      <trkpt lat="47.04022" lon="-1.7419">
        <ele>86</ele>
        <time>2011-09-04T09:20:32Z</time>
      </trkpt>
      <trkpt lat="47.04028" lon="-1.74186">
        <ele>87</ele>
        <time>2011-09-04T09:20:34Z</time>
      </trkpt>
      <trkpt lat="47.04036" lon="-1.74181">
        <ele>88</ele>
        <time>2011-09-04T09:20:36Z</time>
      </trkpt>
      <trkpt lat="47.04043" lon="-1.74177">
        <ele>89</ele>
        <time>2011-09-04T09:20:38Z</time>
      </trkpt>
      <trkpt lat="47.04048" lon="-1.74175">
        <ele>89</ele>
        <time>2011-09-04T09:20:39Z</time>
      </trkpt>
      <trkpt lat="47.04054" lon="-1.74172">
        <ele>88</ele>
        <time>2011-09-04T09:20:40Z</time>
      </trkpt>
      <trkpt lat="47.04059" lon="-1.7417">
        <ele>89</ele>
        <time>2011-09-04T09:20:41Z</time>
      </trkpt>
      <trkpt lat="47.04064" lon="-1.74168">
        <ele>89</ele>
        <time>2011-09-04T09:20:42Z</time>
      </trkpt>
      <trkpt lat="47.04069" lon="-1.74164">
        <ele>88</ele>
        <time>2011-09-04T09:20:43Z</time>
      </trkpt>
      <trkpt lat="47.04075" lon="-1.74162">
        <ele>88</ele>
        <time>2011-09-04T09:20:44Z</time>
      </trkpt>
      <trkpt lat="47.04081" lon="-1.74158">
        <ele>87</ele>
        <time>2011-09-04T09:20:45Z</time>
      </trkpt>
      <trkpt lat="47.04087" lon="-1.74155">
        <ele>87</ele>
        <time>2011-09-04T09:20:46Z</time>
      </trkpt>
      <trkpt lat="47.04092" lon="-1.74152">
        <ele>87</ele>
        <time>2011-09-04T09:20:47Z</time>
      </trkpt>
      <trkpt lat="47.04098" lon="-1.74149">
        <ele>87</ele>
        <time>2011-09-04T09:20:48Z</time>
      </trkpt>
      <trkpt lat="47.04104" lon="-1.74147">
        <ele>87</ele>
        <time>2011-09-04T09:20:49Z</time>
      </trkpt>
      <trkpt lat="47.0411" lon="-1.74144">
        <ele>86</ele>
        <time>2011-09-04T09:20:50Z</time>
      </trkpt>
      <trkpt lat="47.04116" lon="-1.74141">
        <ele>86</ele>
        <time>2011-09-04T09:20:51Z</time>
      </trkpt>
      <trkpt lat="47.0412" lon="-1.74138">
        <ele>86</ele>
        <time>2011-09-04T09:20:52Z</time>
      </trkpt>
      <trkpt lat="47.04126" lon="-1.74135">
        <ele>85</ele>
        <time>2011-09-04T09:20:53Z</time>
      </trkpt>
      <trkpt lat="47.04132" lon="-1.74132">
        <ele>85</ele>
        <time>2011-09-04T09:20:54Z</time>
      </trkpt>
      <trkpt lat="47.04136" lon="-1.74129">
        <ele>85</ele>
        <time>2011-09-04T09:20:55Z</time>
      </trkpt>
      <trkpt lat="47.04141" lon="-1.74126">
        <ele>85</ele>
        <time>2011-09-04T09:20:56Z</time>
      </trkpt>
      <trkpt lat="47.04146" lon="-1.74122">
        <ele>84</ele>
        <time>2011-09-04T09:20:57Z</time>
      </trkpt>
      <trkpt lat="47.0415" lon="-1.74118">
        <ele>84</ele>
        <time>2011-09-04T09:20:58Z</time>
      </trkpt>
      <trkpt lat="47.04155" lon="-1.74115">
        <ele>84</ele>
        <time>2011-09-04T09:20:59Z</time>
      </trkpt>
      <trkpt lat="47.0416" lon="-1.74112">
        <ele>84</ele>
        <time>2011-09-04T09:21:00Z</time>
      </trkpt>
      <trkpt lat="47.04165" lon="-1.74109">
        <ele>84</ele>
        <time>2011-09-04T09:21:01Z</time>
      </trkpt>
      <trkpt lat="47.0417" lon="-1.74105">
        <ele>84</ele>
        <time>2011-09-04T09:21:02Z</time>
      </trkpt>
      <trkpt lat="47.04174" lon="-1.74101">
        <ele>83</ele>
        <time>2011-09-04T09:21:03Z</time>
      </trkpt>
      <trkpt lat="47.04179" lon="-1.74097">
        <ele>83</ele>
        <time>2011-09-04T09:21:04Z</time>
      </trkpt>
      <trkpt lat="47.04184" lon="-1.74094">
        <ele>83</ele>
        <time>2011-09-04T09:21:05Z</time>
      </trkpt>
      <trkpt lat="47.04188" lon="-1.7409">
        <ele>83</ele>
        <time>2011-09-04T09:21:06Z</time>
      </trkpt>
      <trkpt lat="47.04193" lon="-1.74087">
        <ele>83</ele>
        <time>2011-09-04T09:21:07Z</time>
      </trkpt>
      <trkpt lat="47.04198" lon="-1.74082">
        <ele>83</ele>
        <time>2011-09-04T09:21:08Z</time>
      </trkpt>
      <trkpt lat="47.04202" lon="-1.74079">
        <ele>83</ele>
        <time>2011-09-04T09:21:09Z</time>
      </trkpt>
      <trkpt lat="47.04207" lon="-1.74075">
        <ele>83</ele>
        <time>2011-09-04T09:21:10Z</time>
      </trkpt>
      <trkpt lat="47.04212" lon="-1.74072">
        <ele>83</ele>
        <time>2011-09-04T09:21:11Z</time>
      </trkpt>
      <trkpt lat="47.04216" lon="-1.74068">
        <ele>83</ele>
        <time>2011-09-04T09:21:12Z</time>
      </trkpt>
      <trkpt lat="47.04221" lon="-1.74065">
        <ele>83</ele>
        <time>2011-09-04T09:21:13Z</time>
      </trkpt>
      <trkpt lat="47.04226" lon="-1.74061">
        <ele>83</ele>
        <time>2011-09-04T09:21:14Z</time>
      </trkpt>
      <trkpt lat="47.0423" lon="-1.74057">
        <ele>83</ele>
        <time>2011-09-04T09:21:15Z</time>
      </trkpt>
      <trkpt lat="47.04235" lon="-1.74053">
        <ele>83</ele>
        <time>2011-09-04T09:21:16Z</time>
      </trkpt>
      <trkpt lat="47.04239" lon="-1.7405">
        <ele>83</ele>
        <time>2011-09-04T09:21:17Z</time>
      </trkpt>
      <trkpt lat="47.04244" lon="-1.74046">
        <ele>83</ele>
        <time>2011-09-04T09:21:18Z</time>
      </trkpt>
      <trkpt lat="47.04248" lon="-1.74043">
        <ele>83</ele>
        <time>2011-09-04T09:21:19Z</time>
      </trkpt>
      <trkpt lat="47.04253" lon="-1.74039">
        <ele>83</ele>
        <time>2011-09-04T09:21:20Z</time>
      </trkpt>
      <trkpt lat="47.04257" lon="-1.74036">
        <ele>83</ele>
        <time>2011-09-04T09:21:21Z</time>
      </trkpt>
      <trkpt lat="47.04261" lon="-1.74032">
        <ele>83</ele>
        <time>2011-09-04T09:21:22Z</time>
      </trkpt>
      <trkpt lat="47.04265" lon="-1.74029">
        <ele>83</ele>
        <time>2011-09-04T09:21:23Z</time>
      </trkpt>
      <trkpt lat="47.0427" lon="-1.74025">
        <ele>83</ele>
        <time>2011-09-04T09:21:24Z</time>
      </trkpt>
      <trkpt lat="47.04274" lon="-1.74022">
        <ele>83</ele>
        <time>2011-09-04T09:21:25Z</time>
      </trkpt>
      <trkpt lat="47.04279" lon="-1.74018">
        <ele>83</ele>
        <time>2011-09-04T09:21:26Z</time>
      </trkpt>
      <trkpt lat="47.04287" lon="-1.74012">
        <ele>83</ele>
        <time>2011-09-04T09:21:28Z</time>
      </trkpt>
      <trkpt lat="47.04291" lon="-1.74007">
        <ele>83</ele>
        <time>2011-09-04T09:21:29Z</time>
      </trkpt>
      <trkpt lat="47.04295" lon="-1.74003">
        <ele>84</ele>
        <time>2011-09-04T09:21:30Z</time>
      </trkpt>
      <trkpt lat="47.04298" lon="-1.73998">
        <ele>84</ele>
        <time>2011-09-04T09:21:31Z</time>
      </trkpt>
      <trkpt lat="47.04302" lon="-1.73993">
        <ele>84</ele>
        <time>2011-09-04T09:21:32Z</time>
      </trkpt>
      <trkpt lat="47.04305" lon="-1.73987">
        <ele>84</ele>
        <time>2011-09-04T09:21:33Z</time>
      </trkpt>
      <trkpt lat="47.04308" lon="-1.73981">
        <ele>84</ele>
        <time>2011-09-04T09:21:34Z</time>
      </trkpt>
      <trkpt lat="47.04311" lon="-1.73976">
        <ele>85</ele>
        <time>2011-09-04T09:21:35Z</time>
      </trkpt>
      <trkpt lat="47.04314" lon="-1.7397">
        <ele>85</ele>
        <time>2011-09-04T09:21:36Z</time>
      </trkpt>
      <trkpt lat="47.04317" lon="-1.73965">
        <ele>85</ele>
        <time>2011-09-04T09:21:37Z</time>
      </trkpt>
      <trkpt lat="47.0432" lon="-1.7396">
        <ele>85</ele>
        <time>2011-09-04T09:21:38Z</time>
      </trkpt>
      <trkpt lat="47.04324" lon="-1.73955">
        <ele>86</ele>
        <time>2011-09-04T09:21:39Z</time>
      </trkpt>
      <trkpt lat="47.04327" lon="-1.73951">
        <ele>86</ele>
        <time>2011-09-04T09:21:40Z</time>
      </trkpt>
      <trkpt lat="47.04331" lon="-1.73946">
        <ele>86</ele>
        <time>2011-09-04T09:21:41Z</time>
      </trkpt>
      <trkpt lat="47.04338" lon="-1.73938">
        <ele>86</ele>
        <time>2011-09-04T09:21:43Z</time>
      </trkpt>
      <trkpt lat="47.04342" lon="-1.73935">
        <ele>86</ele>
        <time>2011-09-04T09:21:44Z</time>
      </trkpt>
      <trkpt lat="47.04346" lon="-1.73931">
        <ele>87</ele>
        <time>2011-09-04T09:21:45Z</time>
      </trkpt>
      <trkpt lat="47.04353" lon="-1.73925">
        <ele>87</ele>
        <time>2011-09-04T09:21:47Z</time>
      </trkpt>
      <trkpt lat="47.04358" lon="-1.73921">
        <ele>87</ele>
        <time>2011-09-04T09:21:48Z</time>
      </trkpt>
      <trkpt lat="47.04364" lon="-1.73916">
        <ele>88</ele>
        <time>2011-09-04T09:21:50Z</time>
      </trkpt>
      <trkpt lat="47.04372" lon="-1.7391">
        <ele>88</ele>
        <time>2011-09-04T09:21:52Z</time>
      </trkpt>
      <trkpt lat="47.04379" lon="-1.73904">
        <ele>89</ele>
        <time>2011-09-04T09:21:54Z</time>
      </trkpt>
      <trkpt lat="47.04383" lon="-1.73901">
        <ele>89</ele>
        <time>2011-09-04T09:21:55Z</time>
      </trkpt>
      <trkpt lat="47.0439" lon="-1.73894">
        <ele>89</ele>
        <time>2011-09-04T09:21:57Z</time>
      </trkpt>
      <trkpt lat="47.04398" lon="-1.73889">
        <ele>89</ele>
        <time>2011-09-04T09:21:59Z</time>
      </trkpt>
      <trkpt lat="47.04406" lon="-1.73883">
        <ele>90</ele>
        <time>2011-09-04T09:22:01Z</time>
      </trkpt>
      <trkpt lat="47.04413" lon="-1.73877">
        <ele>90</ele>
        <time>2011-09-04T09:22:03Z</time>
      </trkpt>
      <trkpt lat="47.04418" lon="-1.73874">
        <ele>90</ele>
        <time>2011-09-04T09:22:04Z</time>
      </trkpt>
      <trkpt lat="47.04426" lon="-1.73868">
        <ele>90</ele>
        <time>2011-09-04T09:22:06Z</time>
      </trkpt>
      <trkpt lat="47.0443" lon="-1.73866">
        <ele>90</ele>
        <time>2011-09-04T09:22:07Z</time>
      </trkpt>
      <trkpt lat="47.04434" lon="-1.73863">
        <ele>90</ele>
        <time>2011-09-04T09:22:08Z</time>
      </trkpt>
      <trkpt lat="47.04439" lon="-1.7386">
        <ele>90</ele>
        <time>2011-09-04T09:22:09Z</time>
      </trkpt>
      <trkpt lat="47.04443" lon="-1.73857">
        <ele>90</ele>
        <time>2011-09-04T09:22:10Z</time>
      </trkpt>
      <trkpt lat="47.04448" lon="-1.73854">
        <ele>90</ele>
        <time>2011-09-04T09:22:11Z</time>
      </trkpt>
      <trkpt lat="47.04457" lon="-1.73848">
        <ele>90</ele>
        <time>2011-09-04T09:22:13Z</time>
      </trkpt>
      <trkpt lat="47.04461" lon="-1.73845">
        <ele>90</ele>
        <time>2011-09-04T09:22:14Z</time>
      </trkpt>
      <trkpt lat="47.04465" lon="-1.73842">
        <ele>90</ele>
        <time>2011-09-04T09:22:15Z</time>
      </trkpt>
      <trkpt lat="47.04473" lon="-1.73837">
        <ele>90</ele>
        <time>2011-09-04T09:22:17Z</time>
      </trkpt>
      <trkpt lat="47.04481" lon="-1.73831">
        <ele>90</ele>
        <time>2011-09-04T09:22:19Z</time>
      </trkpt>
      <trkpt lat="47.04485" lon="-1.73828">
        <ele>90</ele>
        <time>2011-09-04T09:22:20Z</time>
      </trkpt>
      <trkpt lat="47.04493" lon="-1.73822">
        <ele>90</ele>
        <time>2011-09-04T09:22:22Z</time>
      </trkpt>
      <trkpt lat="47.04498" lon="-1.73818">
        <ele>90</ele>
        <time>2011-09-04T09:22:23Z</time>
      </trkpt>
      <trkpt lat="47.04502" lon="-1.73815">
        <ele>90</ele>
        <time>2011-09-04T09:22:24Z</time>
      </trkpt>
      <trkpt lat="47.04507" lon="-1.73811">
        <ele>90</ele>
        <time>2011-09-04T09:22:25Z</time>
      </trkpt>
      <trkpt lat="47.04511" lon="-1.73808">
        <ele>90</ele>
        <time>2011-09-04T09:22:26Z</time>
      </trkpt>
      <trkpt lat="47.04516" lon="-1.73804">
        <ele>90</ele>
        <time>2011-09-04T09:22:27Z</time>
      </trkpt>
      <trkpt lat="47.0452" lon="-1.738">
        <ele>90</ele>
        <time>2011-09-04T09:22:28Z</time>
      </trkpt>
      <trkpt lat="47.04526" lon="-1.73796">
        <ele>90</ele>
        <time>2011-09-04T09:22:29Z</time>
      </trkpt>
      <trkpt lat="47.04531" lon="-1.73793">
        <ele>90</ele>
        <time>2011-09-04T09:22:30Z</time>
      </trkpt>
      <trkpt lat="47.04536" lon="-1.73789">
        <ele>90</ele>
        <time>2011-09-04T09:22:31Z</time>
      </trkpt>
      <trkpt lat="47.0454" lon="-1.73786">
        <ele>90</ele>
        <time>2011-09-04T09:22:32Z</time>
      </trkpt>
      <trkpt lat="47.04545" lon="-1.73782">
        <ele>90</ele>
        <time>2011-09-04T09:22:33Z</time>
      </trkpt>
      <trkpt lat="47.04551" lon="-1.73778">
        <ele>90</ele>
        <time>2011-09-04T09:22:34Z</time>
      </trkpt>
      <trkpt lat="47.04555" lon="-1.73773">
        <ele>90</ele>
        <time>2011-09-04T09:22:35Z</time>
      </trkpt>
      <trkpt lat="47.0456" lon="-1.73769">
        <ele>90</ele>
        <time>2011-09-04T09:22:36Z</time>
      </trkpt>
      <trkpt lat="47.04566" lon="-1.73765">
        <ele>90</ele>
        <time>2011-09-04T09:22:37Z</time>
      </trkpt>
      <trkpt lat="47.04571" lon="-1.7376">
        <ele>90</ele>
        <time>2011-09-04T09:22:38Z</time>
      </trkpt>
      <trkpt lat="47.04576" lon="-1.73756">
        <ele>90</ele>
        <time>2011-09-04T09:22:39Z</time>
      </trkpt>
      <trkpt lat="47.04581" lon="-1.73752">
        <ele>89</ele>
        <time>2011-09-04T09:22:40Z</time>
      </trkpt>
      <trkpt lat="47.04586" lon="-1.73748">
        <ele>90</ele>
        <time>2011-09-04T09:22:41Z</time>
      </trkpt>
      <trkpt lat="47.04591" lon="-1.73743">
        <ele>90</ele>
        <time>2011-09-04T09:22:42Z</time>
      </trkpt>
      <trkpt lat="47.04596" lon="-1.7374">
        <ele>89</ele>
        <time>2011-09-04T09:22:43Z</time>
      </trkpt>
      <trkpt lat="47.04602" lon="-1.73735">
        <ele>89</ele>
        <time>2011-09-04T09:22:44Z</time>
      </trkpt>
      <trkpt lat="47.04607" lon="-1.73732">
        <ele>89</ele>
        <time>2011-09-04T09:22:45Z</time>
      </trkpt>
      <trkpt lat="47.04612" lon="-1.73727">
        <ele>89</ele>
        <time>2011-09-04T09:22:46Z</time>
      </trkpt>
      <trkpt lat="47.04617" lon="-1.73723">
        <ele>89</ele>
        <time>2011-09-04T09:22:47Z</time>
      </trkpt>
      <trkpt lat="47.04621" lon="-1.73719">
        <ele>89</ele>
        <time>2011-09-04T09:22:48Z</time>
      </trkpt>
      <trkpt lat="47.04627" lon="-1.73714">
        <ele>89</ele>
        <time>2011-09-04T09:22:49Z</time>
      </trkpt>
      <trkpt lat="47.04632" lon="-1.7371">
        <ele>89</ele>
        <time>2011-09-04T09:22:50Z</time>
      </trkpt>
      <trkpt lat="47.04637" lon="-1.73707">
        <ele>89</ele>
        <time>2011-09-04T09:22:51Z</time>
      </trkpt>
      <trkpt lat="47.04642" lon="-1.73703">
        <ele>89</ele>
        <time>2011-09-04T09:22:52Z</time>
      </trkpt>
      <trkpt lat="47.04647" lon="-1.73699">
        <ele>89</ele>
        <time>2011-09-04T09:22:53Z</time>
      </trkpt>
      <trkpt lat="47.04651" lon="-1.73696">
        <ele>89</ele>
        <time>2011-09-04T09:22:54Z</time>
      </trkpt>
      <trkpt lat="47.04656" lon="-1.73692">
        <ele>89</ele>
        <time>2011-09-04T09:22:55Z</time>
      </trkpt>
      <trkpt lat="47.04661" lon="-1.73688">
        <ele>89</ele>
        <time>2011-09-04T09:22:56Z</time>
      </trkpt>
      <trkpt lat="47.04666" lon="-1.73684">
        <ele>89</ele>
        <time>2011-09-04T09:22:57Z</time>
      </trkpt>
      <trkpt lat="47.04671" lon="-1.7368">
        <ele>89</ele>
        <time>2011-09-04T09:22:58Z</time>
      </trkpt>
      <trkpt lat="47.04676" lon="-1.73676">
        <ele>89</ele>
        <time>2011-09-04T09:22:59Z</time>
      </trkpt>
      <trkpt lat="47.04682" lon="-1.73672">
        <ele>89</ele>
        <time>2011-09-04T09:23:00Z</time>
      </trkpt>
      <trkpt lat="47.04686" lon="-1.73667">
        <ele>89</ele>
        <time>2011-09-04T09:23:01Z</time>
      </trkpt>
      <trkpt lat="47.04691" lon="-1.73663">
        <ele>89</ele>
        <time>2011-09-04T09:23:02Z</time>
      </trkpt>
      <trkpt lat="47.04696" lon="-1.73658">
        <ele>89</ele>
        <time>2011-09-04T09:23:03Z</time>
      </trkpt>
      <trkpt lat="47.04702" lon="-1.73654">
        <ele>89</ele>
        <time>2011-09-04T09:23:04Z</time>
      </trkpt>
      <trkpt lat="47.04707" lon="-1.73649">
        <ele>89</ele>
        <time>2011-09-04T09:23:05Z</time>
      </trkpt>
      <trkpt lat="47.04712" lon="-1.73645">
        <ele>89</ele>
        <time>2011-09-04T09:23:06Z</time>
      </trkpt>
      <trkpt lat="47.04717" lon="-1.7364">
        <ele>89</ele>
        <time>2011-09-04T09:23:07Z</time>
      </trkpt>
      <trkpt lat="47.04722" lon="-1.73635">
        <ele>90</ele>
        <time>2011-09-04T09:23:08Z</time>
      </trkpt>
      <trkpt lat="47.04727" lon="-1.73632">
        <ele>90</ele>
        <time>2011-09-04T09:23:09Z</time>
      </trkpt>
      <trkpt lat="47.04732" lon="-1.73627">
        <ele>90</ele>
        <time>2011-09-04T09:23:10Z</time>
      </trkpt>
      <trkpt lat="47.04738" lon="-1.73622">
        <ele>90</ele>
        <time>2011-09-04T09:23:11Z</time>
      </trkpt>
      <trkpt lat="47.04743" lon="-1.73617">
        <ele>90</ele>
        <time>2011-09-04T09:23:12Z</time>
      </trkpt>
      <trkpt lat="47.04749" lon="-1.73612">
        <ele>90</ele>
        <time>2011-09-04T09:23:13Z</time>
      </trkpt>
      <trkpt lat="47.04754" lon="-1.73607">
        <ele>90</ele>
        <time>2011-09-04T09:23:14Z</time>
      </trkpt>
      <trkpt lat="47.0476" lon="-1.73602">
        <ele>89</ele>
        <time>2011-09-04T09:23:15Z</time>
      </trkpt>
      <trkpt lat="47.04765" lon="-1.73597">
        <ele>89</ele>
        <time>2011-09-04T09:23:16Z</time>
      </trkpt>
      <trkpt lat="47.0477" lon="-1.73592">
        <ele>89</ele>
        <time>2011-09-04T09:23:17Z</time>
      </trkpt>
      <trkpt lat="47.04775" lon="-1.73587">
        <ele>89</ele>
        <time>2011-09-04T09:23:18Z</time>
      </trkpt>
      <trkpt lat="47.0478" lon="-1.73581">
        <ele>89</ele>
        <time>2011-09-04T09:23:19Z</time>
      </trkpt>
      <trkpt lat="47.04784" lon="-1.73575">
        <ele>89</ele>
        <time>2011-09-04T09:23:20Z</time>
      </trkpt>
      <trkpt lat="47.04788" lon="-1.7357">
        <ele>89</ele>
        <time>2011-09-04T09:23:21Z</time>
      </trkpt>
      <trkpt lat="47.04792" lon="-1.73564">
        <ele>89</ele>
        <time>2011-09-04T09:23:22Z</time>
      </trkpt>
      <trkpt lat="47.04797" lon="-1.73558">
        <ele>89</ele>
        <time>2011-09-04T09:23:23Z</time>
      </trkpt>
      <trkpt lat="47.04802" lon="-1.73551">
        <ele>89</ele>
        <time>2011-09-04T09:23:24Z</time>
      </trkpt>
      <trkpt lat="47.04806" lon="-1.73545">
        <ele>89</ele>
        <time>2011-09-04T09:23:25Z</time>
      </trkpt>
      <trkpt lat="47.04811" lon="-1.7354">
        <ele>89</ele>
        <time>2011-09-04T09:23:26Z</time>
      </trkpt>
      <trkpt lat="47.04815" lon="-1.73534">
        <ele>89</ele>
        <time>2011-09-04T09:23:27Z</time>
      </trkpt>
      <trkpt lat="47.04819" lon="-1.73529">
        <ele>89</ele>
        <time>2011-09-04T09:23:28Z</time>
      </trkpt>
      <trkpt lat="47.04823" lon="-1.73523">
        <ele>89</ele>
        <time>2011-09-04T09:23:29Z</time>
      </trkpt>
      <trkpt lat="47.04827" lon="-1.73516">
        <ele>89</ele>
        <time>2011-09-04T09:23:30Z</time>
      </trkpt>
      <trkpt lat="47.04831" lon="-1.7351">
        <ele>89</ele>
        <time>2011-09-04T09:23:31Z</time>
      </trkpt>
      <trkpt lat="47.04835" lon="-1.73504">
        <ele>89</ele>
        <time>2011-09-04T09:23:32Z</time>
      </trkpt>
      <trkpt lat="47.04839" lon="-1.73499">
        <ele>89</ele>
        <time>2011-09-04T09:23:33Z</time>
      </trkpt>
      <trkpt lat="47.04843" lon="-1.73493">
        <ele>89</ele>
        <time>2011-09-04T09:23:34Z</time>
      </trkpt>
      <trkpt lat="47.04847" lon="-1.73488">
        <ele>89</ele>
        <time>2011-09-04T09:23:35Z</time>
      </trkpt>
      <trkpt lat="47.04851" lon="-1.73485">
        <ele>89</ele>
        <time>2011-09-04T09:23:36Z</time>
      </trkpt>
      <trkpt lat="47.04856" lon="-1.73485">
        <ele>89</ele>
        <time>2011-09-04T09:23:37Z</time>
      </trkpt>
      <trkpt lat="47.0486" lon="-1.73487">
        <ele>90</ele>
        <time>2011-09-04T09:23:38Z</time>
      </trkpt>
      <trkpt lat="47.04864" lon="-1.73499">
        <ele>90</ele>
        <time>2011-09-04T09:23:40Z</time>
      </trkpt>
      <trkpt lat="47.04865" lon="-1.73507">
        <ele>89</ele>
        <time>2011-09-04T09:23:41Z</time>
      </trkpt>
      <trkpt lat="47.04866" lon="-1.73515">
        <ele>89</ele>
        <time>2011-09-04T09:23:42Z</time>
      </trkpt>
      <trkpt lat="47.04868" lon="-1.73522">
        <ele>89</ele>
        <time>2011-09-04T09:23:43Z</time>
      </trkpt>
      <trkpt lat="47.0487" lon="-1.7353">
        <ele>89</ele>
        <time>2011-09-04T09:23:44Z</time>
      </trkpt>
      <trkpt lat="47.04872" lon="-1.73536">
        <ele>89</ele>
        <time>2011-09-04T09:23:45Z</time>
      </trkpt>
      <trkpt lat="47.04874" lon="-1.73542">
        <ele>89</ele>
        <time>2011-09-04T09:23:46Z</time>
      </trkpt>
      <trkpt lat="47.04876" lon="-1.73549">
        <ele>88</ele>
        <time>2011-09-04T09:23:47Z</time>
      </trkpt>
      <trkpt lat="47.04878" lon="-1.73555">
        <ele>88</ele>
        <time>2011-09-04T09:23:48Z</time>
      </trkpt>
      <trkpt lat="47.04881" lon="-1.73561">
        <ele>88</ele>
        <time>2011-09-04T09:23:49Z</time>
      </trkpt>
      <trkpt lat="47.04883" lon="-1.73567">
        <ele>88</ele>
        <time>2011-09-04T09:23:50Z</time>
      </trkpt>
      <trkpt lat="47.04886" lon="-1.73572">
        <ele>87</ele>
        <time>2011-09-04T09:23:51Z</time>
      </trkpt>
      <trkpt lat="47.04888" lon="-1.73578">
        <ele>87</ele>
        <time>2011-09-04T09:23:52Z</time>
      </trkpt>
      <trkpt lat="47.04893" lon="-1.73588">
        <ele>87</ele>
        <time>2011-09-04T09:23:54Z</time>
      </trkpt>
      <trkpt lat="47.04898" lon="-1.73598">
        <ele>87</ele>
        <time>2011-09-04T09:23:56Z</time>
      </trkpt>
      <trkpt lat="47.04902" lon="-1.73605">
        <ele>87</ele>
        <time>2011-09-04T09:23:58Z</time>
      </trkpt>
      <trkpt lat="47.04906" lon="-1.73613">
        <ele>87</ele>
        <time>2011-09-04T09:24:00Z</time>
      </trkpt>
      <trkpt lat="47.04911" lon="-1.73621">
        <ele>86</ele>
        <time>2011-09-04T09:24:02Z</time>
      </trkpt>
      <trkpt lat="47.04914" lon="-1.73627">
        <ele>86</ele>
        <time>2011-09-04T09:24:04Z</time>
      </trkpt>
      <trkpt lat="47.04918" lon="-1.73631">
        <ele>86</ele>
        <time>2011-09-04T09:24:13Z</time>
      </trkpt>
      <trkpt lat="47.04918" lon="-1.73631">
        <ele>86</ele>
        <time>2011-09-04T09:24:13Z</time>
      </trkpt>
      <trkpt lat="47.04918" lon="-1.73631">
        <ele>86</ele>
        <time>2011-09-04T09:24:15Z</time>
      </trkpt>
      <trkpt lat="47.04913" lon="-1.7363">
        <ele>87</ele>
        <time>2011-09-04T09:27:55Z</time>
      </trkpt>
      <trkpt lat="47.04913" lon="-1.7363">
        <ele>87</ele>
        <time>2011-09-04T09:27:55Z</time>
      </trkpt>
      <trkpt lat="47.04913" lon="-1.7363">
        <ele>87</ele>
        <time>2011-09-04T09:27:57Z</time>
      </trkpt>
      <trkpt lat="47.04918" lon="-1.73632">
        <ele>84</ele>
        <time>2011-09-04T09:28:30Z</time>
      </trkpt>
      <trkpt lat="47.04918" lon="-1.73632">
        <ele>84</ele>
        <time>2011-09-04T09:28:30Z</time>
      </trkpt>
      <trkpt lat="47.04918" lon="-1.73632">
        <ele>85</ele>
        <time>2011-09-04T09:28:55Z</time>
      </trkpt>
      <trkpt lat="47.04923" lon="-1.73639">
        <ele>85</ele>
        <time>2011-09-04T09:29:29Z</time>
      </trkpt>
      <trkpt lat="47.04926" lon="-1.73646">
        <ele>85</ele>
        <time>2011-09-04T09:29:32Z</time>
      </trkpt>
      <trkpt lat="47.04929" lon="-1.73652">
        <ele>85</ele>
        <time>2011-09-04T09:29:34Z</time>
      </trkpt>
      <trkpt lat="47.04932" lon="-1.73657">
        <ele>86</ele>
        <time>2011-09-04T09:29:36Z</time>
      </trkpt>
      <trkpt lat="47.04936" lon="-1.73664">
        <ele>85</ele>
        <time>2011-09-04T09:29:38Z</time>
      </trkpt>
      <trkpt lat="47.0494" lon="-1.73671">
        <ele>86</ele>
        <time>2011-09-04T09:29:40Z</time>
      </trkpt>
      <trkpt lat="47.04943" lon="-1.73677">
        <ele>86</ele>
        <time>2011-09-04T09:29:42Z</time>
      </trkpt>
      <trkpt lat="47.04948" lon="-1.73685">
        <ele>86</ele>
        <time>2011-09-04T09:29:44Z</time>
      </trkpt>
      <trkpt lat="47.04953" lon="-1.73692">
        <ele>86</ele>
        <time>2011-09-04T09:29:46Z</time>
      </trkpt>
      <trkpt lat="47.04957" lon="-1.737">
        <ele>86</ele>
        <time>2011-09-04T09:29:48Z</time>
      </trkpt>
      <trkpt lat="47.04962" lon="-1.73706">
        <ele>85</ele>
        <time>2011-09-04T09:29:50Z</time>
      </trkpt>
      <trkpt lat="47.04965" lon="-1.73712">
        <ele>85</ele>
        <time>2011-09-04T09:29:53Z</time>
      </trkpt>
      <trkpt lat="47.04968" lon="-1.73718">
        <ele>85</ele>
        <time>2011-09-04T09:29:56Z</time>
      </trkpt>
      <trkpt lat="47.04972" lon="-1.73724">
        <ele>85</ele>
        <time>2011-09-04T09:29:59Z</time>
      </trkpt>
      <trkpt lat="47.04974" lon="-1.7373">
        <ele>85</ele>
        <time>2011-09-04T09:30:01Z</time>
      </trkpt>
      <trkpt lat="47.04977" lon="-1.73737">
        <ele>85</ele>
        <time>2011-09-04T09:30:03Z</time>
      </trkpt>
      <trkpt lat="47.04976" lon="-1.73744">
        <ele>83</ele>
        <time>2011-09-04T09:30:27Z</time>
      </trkpt>
      <trkpt lat="47.04981" lon="-1.73751">
        <ele>82</ele>
        <time>2011-09-04T09:30:33Z</time>
      </trkpt>
      <trkpt lat="47.04983" lon="-1.73757">
        <ele>82</ele>
        <time>2011-09-04T09:30:35Z</time>
      </trkpt>
      <trkpt lat="47.04986" lon="-1.73764">
        <ele>82</ele>
        <time>2011-09-04T09:30:37Z</time>
      </trkpt>
      <trkpt lat="47.04988" lon="-1.73774">
        <ele>82</ele>
        <time>2011-09-04T09:30:39Z</time>
      </trkpt>
      <trkpt lat="47.04992" lon="-1.73785">
        <ele>82</ele>
        <time>2011-09-04T09:30:41Z</time>
      </trkpt>
      <trkpt lat="47.04994" lon="-1.73796">
        <ele>82</ele>
        <time>2011-09-04T09:30:43Z</time>
      </trkpt>
      <trkpt lat="47.04998" lon="-1.73808">
        <ele>82</ele>
        <time>2011-09-04T09:30:45Z</time>
      </trkpt>
      <trkpt lat="47.05" lon="-1.73815">
        <ele>82</ele>
        <time>2011-09-04T09:30:46Z</time>
      </trkpt>
      <trkpt lat="47.05001" lon="-1.73821">
        <ele>81</ele>
        <time>2011-09-04T09:30:47Z</time>
      </trkpt>
      <trkpt lat="47.05003" lon="-1.73828">
        <ele>81</ele>
        <time>2011-09-04T09:30:48Z</time>
      </trkpt>
      <trkpt lat="47.05005" lon="-1.73834">
        <ele>81</ele>
        <time>2011-09-04T09:30:49Z</time>
      </trkpt>
      <trkpt lat="47.05007" lon="-1.7384">
        <ele>81</ele>
        <time>2011-09-04T09:30:50Z</time>
      </trkpt>
      <trkpt lat="47.05009" lon="-1.73846">
        <ele>81</ele>
        <time>2011-09-04T09:30:51Z</time>
      </trkpt>
      <trkpt lat="47.05011" lon="-1.73853">
        <ele>81</ele>
        <time>2011-09-04T09:30:52Z</time>
      </trkpt>
      <trkpt lat="47.05012" lon="-1.73859">
        <ele>81</ele>
        <time>2011-09-04T09:30:53Z</time>
      </trkpt>
      <trkpt lat="47.05014" lon="-1.73866">
        <ele>81</ele>
        <time>2011-09-04T09:30:54Z</time>
      </trkpt>
      <trkpt lat="47.05016" lon="-1.73873">
        <ele>81</ele>
        <time>2011-09-04T09:30:55Z</time>
      </trkpt>
      <trkpt lat="47.05017" lon="-1.7388">
        <ele>81</ele>
        <time>2011-09-04T09:30:56Z</time>
      </trkpt>
      <trkpt lat="47.05019" lon="-1.73887">
        <ele>80</ele>
        <time>2011-09-04T09:30:57Z</time>
      </trkpt>
      <trkpt lat="47.05021" lon="-1.73894">
        <ele>80</ele>
        <time>2011-09-04T09:30:58Z</time>
      </trkpt>
      <trkpt lat="47.05023" lon="-1.73902">
        <ele>80</ele>
        <time>2011-09-04T09:30:59Z</time>
      </trkpt>
      <trkpt lat="47.05025" lon="-1.73909">
        <ele>80</ele>
        <time>2011-09-04T09:31:00Z</time>
      </trkpt>
      <trkpt lat="47.05026" lon="-1.73916">
        <ele>79</ele>
        <time>2011-09-04T09:31:01Z</time>
      </trkpt>
      <trkpt lat="47.05028" lon="-1.73925">
        <ele>80</ele>
        <time>2011-09-04T09:31:02Z</time>
      </trkpt>
      <trkpt lat="47.0503" lon="-1.73932">
        <ele>79</ele>
        <time>2011-09-04T09:31:03Z</time>
      </trkpt>
      <trkpt lat="47.05031" lon="-1.7394">
        <ele>79</ele>
        <time>2011-09-04T09:31:04Z</time>
      </trkpt>
      <trkpt lat="47.05033" lon="-1.73947">
        <ele>79</ele>
        <time>2011-09-04T09:31:05Z</time>
      </trkpt>
      <trkpt lat="47.05034" lon="-1.73955">
        <ele>79</ele>
        <time>2011-09-04T09:31:06Z</time>
      </trkpt>
      <trkpt lat="47.05036" lon="-1.73963">
        <ele>79</ele>
        <time>2011-09-04T09:31:07Z</time>
      </trkpt>
      <trkpt lat="47.05038" lon="-1.73971">
        <ele>79</ele>
        <time>2011-09-04T09:31:08Z</time>
      </trkpt>
      <trkpt lat="47.05039" lon="-1.73978">
        <ele>79</ele>
        <time>2011-09-04T09:31:09Z</time>
      </trkpt>
      <trkpt lat="47.0504" lon="-1.73985">
        <ele>78</ele>
        <time>2011-09-04T09:31:10Z</time>
      </trkpt>
      <trkpt lat="47.05041" lon="-1.73993">
        <ele>78</ele>
        <time>2011-09-04T09:31:11Z</time>
      </trkpt>
      <trkpt lat="47.05042" lon="-1.74">
        <ele>78</ele>
        <time>2011-09-04T09:31:12Z</time>
      </trkpt>
      <trkpt lat="47.05044" lon="-1.74008">
        <ele>78</ele>
        <time>2011-09-04T09:31:13Z</time>
      </trkpt>
      <trkpt lat="47.05045" lon="-1.74015">
        <ele>78</ele>
        <time>2011-09-04T09:31:14Z</time>
      </trkpt>
      <trkpt lat="47.05046" lon="-1.74025">
        <ele>78</ele>
        <time>2011-09-04T09:31:16Z</time>
      </trkpt>
      <trkpt lat="47.05049" lon="-1.74034">
        <ele>77</ele>
        <time>2011-09-04T09:31:18Z</time>
      </trkpt>
      <trkpt lat="47.05052" lon="-1.74045">
        <ele>77</ele>
        <time>2011-09-04T09:31:20Z</time>
      </trkpt>
      <trkpt lat="47.05056" lon="-1.74056">
        <ele>77</ele>
        <time>2011-09-04T09:31:22Z</time>
      </trkpt>
      <trkpt lat="47.05059" lon="-1.74062">
        <ele>77</ele>
        <time>2011-09-04T09:31:23Z</time>
      </trkpt>
      <trkpt lat="47.05062" lon="-1.74067">
        <ele>76</ele>
        <time>2011-09-04T09:31:24Z</time>
      </trkpt>
      <trkpt lat="47.05066" lon="-1.74072">
        <ele>76</ele>
        <time>2011-09-04T09:31:25Z</time>
      </trkpt>
      <trkpt lat="47.0507" lon="-1.74075">
        <ele>76</ele>
        <time>2011-09-04T09:31:26Z</time>
      </trkpt>
      <trkpt lat="47.05075" lon="-1.74077">
        <ele>76</ele>
        <time>2011-09-04T09:31:27Z</time>
      </trkpt>
      <trkpt lat="47.05081" lon="-1.74078">
        <ele>76</ele>
        <time>2011-09-04T09:31:28Z</time>
      </trkpt>
      <trkpt lat="47.05086" lon="-1.74078">
        <ele>76</ele>
        <time>2011-09-04T09:31:29Z</time>
      </trkpt>
      <trkpt lat="47.05091" lon="-1.74077">
        <ele>76</ele>
        <time>2011-09-04T09:31:30Z</time>
      </trkpt>
      <trkpt lat="47.05096" lon="-1.74075">
        <ele>76</ele>
        <time>2011-09-04T09:31:31Z</time>
      </trkpt>
      <trkpt lat="47.05102" lon="-1.74074">
        <ele>76</ele>
        <time>2011-09-04T09:31:32Z</time>
      </trkpt>
      <trkpt lat="47.05108" lon="-1.74073">
        <ele>76</ele>
        <time>2011-09-04T09:31:33Z</time>
      </trkpt>
      <trkpt lat="47.05114" lon="-1.74071">
        <ele>76</ele>
        <time>2011-09-04T09:31:34Z</time>
      </trkpt>
      <trkpt lat="47.0512" lon="-1.74069">
        <ele>76</ele>
        <time>2011-09-04T09:31:35Z</time>
      </trkpt>
      <trkpt lat="47.05126" lon="-1.74068">
        <ele>76</ele>
        <time>2011-09-04T09:31:36Z</time>
      </trkpt>
      <trkpt lat="47.05132" lon="-1.74067">
        <ele>75</ele>
        <time>2011-09-04T09:31:37Z</time>
      </trkpt>
      <trkpt lat="47.05138" lon="-1.74065">
        <ele>75</ele>
        <time>2011-09-04T09:31:38Z</time>
      </trkpt>
      <trkpt lat="47.05144" lon="-1.74064">
        <ele>75</ele>
        <time>2011-09-04T09:31:39Z</time>
      </trkpt>
      <trkpt lat="47.05151" lon="-1.74063">
        <ele>75</ele>
        <time>2011-09-04T09:31:40Z</time>
      </trkpt>
      <trkpt lat="47.05157" lon="-1.74061">
        <ele>75</ele>
        <time>2011-09-04T09:31:41Z</time>
      </trkpt>
      <trkpt lat="47.05164" lon="-1.7406">
        <ele>74</ele>
        <time>2011-09-04T09:31:42Z</time>
      </trkpt>
      <trkpt lat="47.05171" lon="-1.74058">
        <ele>74</ele>
        <time>2011-09-04T09:31:43Z</time>
      </trkpt>
      <trkpt lat="47.05177" lon="-1.74056">
        <ele>74</ele>
        <time>2011-09-04T09:31:44Z</time>
      </trkpt>
      <trkpt lat="47.05183" lon="-1.74056">
        <ele>74</ele>
        <time>2011-09-04T09:31:45Z</time>
      </trkpt>
      <trkpt lat="47.05189" lon="-1.74054">
        <ele>73</ele>
        <time>2011-09-04T09:31:46Z</time>
      </trkpt>
      <trkpt lat="47.05194" lon="-1.74052">
        <ele>73</ele>
        <time>2011-09-04T09:31:47Z</time>
      </trkpt>
      <trkpt lat="47.052" lon="-1.74051">
        <ele>73</ele>
        <time>2011-09-04T09:31:48Z</time>
      </trkpt>
      <trkpt lat="47.05205" lon="-1.7405">
        <ele>73</ele>
        <time>2011-09-04T09:31:49Z</time>
      </trkpt>
      <trkpt lat="47.0521" lon="-1.74049">
        <ele>73</ele>
        <time>2011-09-04T09:31:50Z</time>
      </trkpt>
      <trkpt lat="47.05218" lon="-1.74047">
        <ele>73</ele>
        <time>2011-09-04T09:31:52Z</time>
      </trkpt>
      <trkpt lat="47.05225" lon="-1.74046">
        <ele>73</ele>
        <time>2011-09-04T09:31:54Z</time>
      </trkpt>
      <trkpt lat="47.05232" lon="-1.74043">
        <ele>72</ele>
        <time>2011-09-04T09:31:56Z</time>
      </trkpt>
      <trkpt lat="47.05242" lon="-1.74039">
        <ele>72</ele>
        <time>2011-09-04T09:31:58Z</time>
      </trkpt>
      <trkpt lat="47.05247" lon="-1.74038">
        <ele>71</ele>
        <time>2011-09-04T09:31:59Z</time>
      </trkpt>
      <trkpt lat="47.05253" lon="-1.74036">
        <ele>71</ele>
        <time>2011-09-04T09:32:00Z</time>
      </trkpt>
      <trkpt lat="47.05259" lon="-1.74034">
        <ele>71</ele>
        <time>2011-09-04T09:32:01Z</time>
      </trkpt>
      <trkpt lat="47.05265" lon="-1.74032">
        <ele>70</ele>
        <time>2011-09-04T09:32:02Z</time>
      </trkpt>
      <trkpt lat="47.05271" lon="-1.7403">
        <ele>70</ele>
        <time>2011-09-04T09:32:03Z</time>
      </trkpt>
      <trkpt lat="47.05278" lon="-1.74028">
        <ele>70</ele>
        <time>2011-09-04T09:32:04Z</time>
      </trkpt>
      <trkpt lat="47.05284" lon="-1.74026">
        <ele>70</ele>
        <time>2011-09-04T09:32:05Z</time>
      </trkpt>
      <trkpt lat="47.05291" lon="-1.74024">
        <ele>70</ele>
        <time>2011-09-04T09:32:06Z</time>
      </trkpt>
      <trkpt lat="47.05297" lon="-1.74022">
        <ele>70</ele>
        <time>2011-09-04T09:32:07Z</time>
      </trkpt>
      <trkpt lat="47.05304" lon="-1.74021">
        <ele>69</ele>
        <time>2011-09-04T09:32:08Z</time>
      </trkpt>
      <trkpt lat="47.05311" lon="-1.74018">
        <ele>69</ele>
        <time>2011-09-04T09:32:09Z</time>
      </trkpt>
      <trkpt lat="47.05318" lon="-1.74017">
        <ele>69</ele>
        <time>2011-09-04T09:32:10Z</time>
      </trkpt>
      <trkpt lat="47.05324" lon="-1.74015">
        <ele>69</ele>
        <time>2011-09-04T09:32:11Z</time>
      </trkpt>
      <trkpt lat="47.05331" lon="-1.74013">
        <ele>69</ele>
        <time>2011-09-04T09:32:12Z</time>
      </trkpt>
      <trkpt lat="47.05338" lon="-1.74011">
        <ele>70</ele>
        <time>2011-09-04T09:32:13Z</time>
      </trkpt>
      <trkpt lat="47.05344" lon="-1.74009">
        <ele>69</ele>
        <time>2011-09-04T09:32:14Z</time>
      </trkpt>
      <trkpt lat="47.05352" lon="-1.74007">
        <ele>69</ele>
        <time>2011-09-04T09:32:15Z</time>
      </trkpt>
      <trkpt lat="47.05357" lon="-1.74004">
        <ele>70</ele>
        <time>2011-09-04T09:32:16Z</time>
      </trkpt>
      <trkpt lat="47.05364" lon="-1.74002">
        <ele>69</ele>
        <time>2011-09-04T09:32:17Z</time>
      </trkpt>
      <trkpt lat="47.05371" lon="-1.74">
        <ele>69</ele>
        <time>2011-09-04T09:32:18Z</time>
      </trkpt>
      <trkpt lat="47.05377" lon="-1.74">
        <ele>69</ele>
        <time>2011-09-04T09:32:19Z</time>
      </trkpt>
      <trkpt lat="47.05383" lon="-1.74002">
        <ele>69</ele>
        <time>2011-09-04T09:32:20Z</time>
      </trkpt>
      <trkpt lat="47.05388" lon="-1.74007">
        <ele>69</ele>
        <time>2011-09-04T09:32:21Z</time>
      </trkpt>
      <trkpt lat="47.05392" lon="-1.74013">
        <ele>69</ele>
        <time>2011-09-04T09:32:22Z</time>
      </trkpt>
      <trkpt lat="47.05396" lon="-1.74019">
        <ele>68</ele>
        <time>2011-09-04T09:32:23Z</time>
      </trkpt>
      <trkpt lat="47.05401" lon="-1.74024">
        <ele>68</ele>
        <time>2011-09-04T09:32:24Z</time>
      </trkpt>
      <trkpt lat="47.05408" lon="-1.74028">
        <ele>68</ele>
        <time>2011-09-04T09:32:25Z</time>
      </trkpt>
      <trkpt lat="47.05415" lon="-1.7403">
        <ele>68</ele>
        <time>2011-09-04T09:32:26Z</time>
      </trkpt>
      <trkpt lat="47.05421" lon="-1.7403">
        <ele>68</ele>
        <time>2011-09-04T09:32:27Z</time>
      </trkpt>
      <trkpt lat="47.05427" lon="-1.74032">
        <ele>68</ele>
        <time>2011-09-04T09:32:28Z</time>
      </trkpt>
      <trkpt lat="47.05431" lon="-1.74038">
        <ele>68</ele>
        <time>2011-09-04T09:32:29Z</time>
      </trkpt>
      <trkpt lat="47.05435" lon="-1.74044">
        <ele>68</ele>
        <time>2011-09-04T09:32:30Z</time>
      </trkpt>
      <trkpt lat="47.05439" lon="-1.74049">
        <ele>67</ele>
        <time>2011-09-04T09:32:31Z</time>
      </trkpt>
      <trkpt lat="47.05444" lon="-1.74052">
        <ele>68</ele>
        <time>2011-09-04T09:32:32Z</time>
      </trkpt>
      <trkpt lat="47.05449" lon="-1.74056">
        <ele>68</ele>
        <time>2011-09-04T09:32:33Z</time>
      </trkpt>
      <trkpt lat="47.05453" lon="-1.74061">
        <ele>68</ele>
        <time>2011-09-04T09:32:34Z</time>
      </trkpt>
      <trkpt lat="47.05459" lon="-1.74071">
        <ele>70</ele>
        <time>2011-09-04T09:32:36Z</time>
      </trkpt>
      <trkpt lat="47.05462" lon="-1.74081">
        <ele>71</ele>
        <time>2011-09-04T09:32:37Z</time>
      </trkpt>
      <trkpt lat="47.05463" lon="-1.7409">
        <ele>71</ele>
        <time>2011-09-04T09:32:38Z</time>
      </trkpt>
      <trkpt lat="47.05465" lon="-1.741">
        <ele>71</ele>
        <time>2011-09-04T09:32:39Z</time>
      </trkpt>
      <trkpt lat="47.05469" lon="-1.7411">
        <ele>70</ele>
        <time>2011-09-04T09:32:40Z</time>
      </trkpt>
      <trkpt lat="47.05473" lon="-1.74118">
        <ele>70</ele>
        <time>2011-09-04T09:32:41Z</time>
      </trkpt>
      <trkpt lat="47.05479" lon="-1.74124">
        <ele>70</ele>
        <time>2011-09-04T09:32:42Z</time>
      </trkpt>
      <trkpt lat="47.05483" lon="-1.74127">
        <ele>70</ele>
        <time>2011-09-04T09:32:43Z</time>
      </trkpt>
      <trkpt lat="47.0549" lon="-1.74128">
        <ele>70</ele>
        <time>2011-09-04T09:32:44Z</time>
      </trkpt>
      <trkpt lat="47.05495" lon="-1.74127">
        <ele>71</ele>
        <time>2011-09-04T09:32:45Z</time>
      </trkpt>
      <trkpt lat="47.05502" lon="-1.74125">
        <ele>71</ele>
        <time>2011-09-04T09:32:46Z</time>
      </trkpt>
      <trkpt lat="47.05509" lon="-1.74123">
        <ele>71</ele>
        <time>2011-09-04T09:32:47Z</time>
      </trkpt>
      <trkpt lat="47.05516" lon="-1.7412">
        <ele>71</ele>
        <time>2011-09-04T09:32:48Z</time>
      </trkpt>
      <trkpt lat="47.05522" lon="-1.74117">
        <ele>70</ele>
        <time>2011-09-04T09:32:49Z</time>
      </trkpt>
      <trkpt lat="47.05528" lon="-1.74114">
        <ele>70</ele>
        <time>2011-09-04T09:32:50Z</time>
      </trkpt>
      <trkpt lat="47.05536" lon="-1.74112">
        <ele>70</ele>
        <time>2011-09-04T09:32:51Z</time>
      </trkpt>
      <trkpt lat="47.05541" lon="-1.7411">
        <ele>71</ele>
        <time>2011-09-04T09:32:52Z</time>
      </trkpt>
      <trkpt lat="47.05548" lon="-1.74108">
        <ele>70</ele>
        <time>2011-09-04T09:32:53Z</time>
      </trkpt>
      <trkpt lat="47.05554" lon="-1.74105">
        <ele>70</ele>
        <time>2011-09-04T09:32:54Z</time>
      </trkpt>
      <trkpt lat="47.0556" lon="-1.74102">
        <ele>70</ele>
        <time>2011-09-04T09:32:55Z</time>
      </trkpt>
      <trkpt lat="47.05566" lon="-1.74098">
        <ele>70</ele>
        <time>2011-09-04T09:32:56Z</time>
      </trkpt>
      <trkpt lat="47.05572" lon="-1.74095">
        <ele>70</ele>
        <time>2011-09-04T09:32:57Z</time>
      </trkpt>
      <trkpt lat="47.05578" lon="-1.74091">
        <ele>70</ele>
        <time>2011-09-04T09:32:58Z</time>
      </trkpt>
      <trkpt lat="47.05585" lon="-1.74086">
        <ele>70</ele>
        <time>2011-09-04T09:32:59Z</time>
      </trkpt>
      <trkpt lat="47.0559" lon="-1.7408">
        <ele>70</ele>
        <time>2011-09-04T09:33:00Z</time>
      </trkpt>
      <trkpt lat="47.05595" lon="-1.74074">
        <ele>70</ele>
        <time>2011-09-04T09:33:01Z</time>
      </trkpt>
      <trkpt lat="47.05601" lon="-1.74069">
        <ele>70</ele>
        <time>2011-09-04T09:33:02Z</time>
      </trkpt>
      <trkpt lat="47.05606" lon="-1.74061">
        <ele>70</ele>
        <time>2011-09-04T09:33:03Z</time>
      </trkpt>
      <trkpt lat="47.05611" lon="-1.74054">
        <ele>69</ele>
        <time>2011-09-04T09:33:04Z</time>
      </trkpt>
      <trkpt lat="47.05616" lon="-1.74047">
        <ele>69</ele>
        <time>2011-09-04T09:33:05Z</time>
      </trkpt>
      <trkpt lat="47.05621" lon="-1.7404">
        <ele>69</ele>
        <time>2011-09-04T09:33:06Z</time>
      </trkpt>
      <trkpt lat="47.05626" lon="-1.74033">
        <ele>68</ele>
        <time>2011-09-04T09:33:07Z</time>
      </trkpt>
      <trkpt lat="47.05631" lon="-1.74026">
        <ele>68</ele>
        <time>2011-09-04T09:33:08Z</time>
      </trkpt>
      <trkpt lat="47.05636" lon="-1.74018">
        <ele>66</ele>
        <time>2011-09-04T09:33:09Z</time>
      </trkpt>
      <trkpt lat="47.05641" lon="-1.7401">
        <ele>66</ele>
        <time>2011-09-04T09:33:10Z</time>
      </trkpt>
      <trkpt lat="47.05645" lon="-1.74003">
        <ele>66</ele>
        <time>2011-09-04T09:33:11Z</time>
      </trkpt>
      <trkpt lat="47.05649" lon="-1.73995">
        <ele>66</ele>
        <time>2011-09-04T09:33:12Z</time>
      </trkpt>
      <trkpt lat="47.05652" lon="-1.73987">
        <ele>65</ele>
        <time>2011-09-04T09:33:13Z</time>
      </trkpt>
      <trkpt lat="47.05655" lon="-1.73979">
        <ele>64</ele>
        <time>2011-09-04T09:33:14Z</time>
      </trkpt>
      <trkpt lat="47.05655" lon="-1.7397">
        <ele>64</ele>
        <time>2011-09-04T09:33:15Z</time>
      </trkpt>
      <trkpt lat="47.05656" lon="-1.7396">
        <ele>63</ele>
        <time>2011-09-04T09:33:16Z</time>
      </trkpt>
      <trkpt lat="47.05657" lon="-1.73952">
        <ele>63</ele>
        <time>2011-09-04T09:33:17Z</time>
      </trkpt>
      <trkpt lat="47.05656" lon="-1.73943">
        <ele>63</ele>
        <time>2011-09-04T09:33:18Z</time>
      </trkpt>
      <trkpt lat="47.05656" lon="-1.73935">
        <ele>62</ele>
        <time>2011-09-04T09:33:19Z</time>
      </trkpt>
      <trkpt lat="47.05655" lon="-1.73926">
        <ele>62</ele>
        <time>2011-09-04T09:33:20Z</time>
      </trkpt>
      <trkpt lat="47.05655" lon="-1.73917">
        <ele>62</ele>
        <time>2011-09-04T09:33:21Z</time>
      </trkpt>
      <trkpt lat="47.05655" lon="-1.73908">
        <ele>61</ele>
        <time>2011-09-04T09:33:22Z</time>
      </trkpt>
      <trkpt lat="47.05656" lon="-1.73899">
        <ele>61</ele>
        <time>2011-09-04T09:33:23Z</time>
      </trkpt>
      <trkpt lat="47.05659" lon="-1.73891">
        <ele>61</ele>
        <time>2011-09-04T09:33:24Z</time>
      </trkpt>
      <trkpt lat="47.05662" lon="-1.73884">
        <ele>61</ele>
        <time>2011-09-04T09:33:25Z</time>
      </trkpt>
      <trkpt lat="47.05666" lon="-1.73878">
        <ele>61</ele>
        <time>2011-09-04T09:33:26Z</time>
      </trkpt>
      <trkpt lat="47.05672" lon="-1.73875">
        <ele>61</ele>
        <time>2011-09-04T09:33:27Z</time>
      </trkpt>
      <trkpt lat="47.05678" lon="-1.73872">
        <ele>60</ele>
        <time>2011-09-04T09:33:28Z</time>
      </trkpt>
      <trkpt lat="47.05684" lon="-1.73869">
        <ele>60</ele>
        <time>2011-09-04T09:33:29Z</time>
      </trkpt>
      <trkpt lat="47.0569" lon="-1.73867">
        <ele>60</ele>
        <time>2011-09-04T09:33:30Z</time>
      </trkpt>
      <trkpt lat="47.05696" lon="-1.73865">
        <ele>60</ele>
        <time>2011-09-04T09:33:31Z</time>
      </trkpt>
      <trkpt lat="47.05703" lon="-1.73863">
        <ele>61</ele>
        <time>2011-09-04T09:33:32Z</time>
      </trkpt>
      <trkpt lat="47.0571" lon="-1.73861">
        <ele>61</ele>
        <time>2011-09-04T09:33:33Z</time>
      </trkpt>
      <trkpt lat="47.05717" lon="-1.73858">
        <ele>61</ele>
        <time>2011-09-04T09:33:34Z</time>
      </trkpt>
      <trkpt lat="47.05724" lon="-1.73855">
        <ele>60</ele>
        <time>2011-09-04T09:33:35Z</time>
      </trkpt>
      <trkpt lat="47.05732" lon="-1.73852">
        <ele>60</ele>
        <time>2011-09-04T09:33:36Z</time>
      </trkpt>
      <trkpt lat="47.05739" lon="-1.73849">
        <ele>60</ele>
        <time>2011-09-04T09:33:37Z</time>
      </trkpt>
      <trkpt lat="47.05745" lon="-1.73845">
        <ele>59</ele>
        <time>2011-09-04T09:33:38Z</time>
      </trkpt>
      <trkpt lat="47.05752" lon="-1.73842">
        <ele>59</ele>
        <time>2011-09-04T09:33:39Z</time>
      </trkpt>
      <trkpt lat="47.05758" lon="-1.73838">
        <ele>59</ele>
        <time>2011-09-04T09:33:40Z</time>
      </trkpt>
      <trkpt lat="47.05764" lon="-1.73833">
        <ele>59</ele>
        <time>2011-09-04T09:33:41Z</time>
      </trkpt>
      <trkpt lat="47.0577" lon="-1.73828">
        <ele>59</ele>
        <time>2011-09-04T09:33:42Z</time>
      </trkpt>
      <trkpt lat="47.05776" lon="-1.73823">
        <ele>59</ele>
        <time>2011-09-04T09:33:43Z</time>
      </trkpt>
      <trkpt lat="47.05783" lon="-1.73817">
        <ele>59</ele>
        <time>2011-09-04T09:33:44Z</time>
      </trkpt>
      <trkpt lat="47.05789" lon="-1.73812">
        <ele>59</ele>
        <time>2011-09-04T09:33:45Z</time>
      </trkpt>
      <trkpt lat="47.05795" lon="-1.73808">
        <ele>59</ele>
        <time>2011-09-04T09:33:46Z</time>
      </trkpt>
      <trkpt lat="47.058" lon="-1.73804">
        <ele>59</ele>
        <time>2011-09-04T09:33:47Z</time>
      </trkpt>
      <trkpt lat="47.05806" lon="-1.73804">
        <ele>59</ele>
        <time>2011-09-04T09:33:48Z</time>
      </trkpt>
      <trkpt lat="47.05811" lon="-1.73807">
        <ele>59</ele>
        <time>2011-09-04T09:33:49Z</time>
      </trkpt>
      <trkpt lat="47.05816" lon="-1.73812">
        <ele>59</ele>
        <time>2011-09-04T09:33:50Z</time>
      </trkpt>
      <trkpt lat="47.05819" lon="-1.7382">
        <ele>59</ele>
        <time>2011-09-04T09:33:51Z</time>
      </trkpt>
      <trkpt lat="47.05821" lon="-1.73829">
        <ele>59</ele>
        <time>2011-09-04T09:33:52Z</time>
      </trkpt>
      <trkpt lat="47.05822" lon="-1.73838">
        <ele>59</ele>
        <time>2011-09-04T09:33:53Z</time>
      </trkpt>
      <trkpt lat="47.05824" lon="-1.73847">
        <ele>59</ele>
        <time>2011-09-04T09:33:54Z</time>
      </trkpt>
      <trkpt lat="47.05826" lon="-1.73855">
        <ele>59</ele>
        <time>2011-09-04T09:33:55Z</time>
      </trkpt>
      <trkpt lat="47.05828" lon="-1.73863">
        <ele>59</ele>
        <time>2011-09-04T09:33:56Z</time>
      </trkpt>
      <trkpt lat="47.0583" lon="-1.73872">
        <ele>59</ele>
        <time>2011-09-04T09:33:57Z</time>
      </trkpt>
      <trkpt lat="47.05833" lon="-1.73879">
        <ele>59</ele>
        <time>2011-09-04T09:33:58Z</time>
      </trkpt>
      <trkpt lat="47.05836" lon="-1.73886">
        <ele>58</ele>
        <time>2011-09-04T09:33:59Z</time>
      </trkpt>
      <trkpt lat="47.0584" lon="-1.73892">
        <ele>58</ele>
        <time>2011-09-04T09:34:00Z</time>
      </trkpt>
      <trkpt lat="47.05844" lon="-1.73899">
        <ele>58</ele>
        <time>2011-09-04T09:34:01Z</time>
      </trkpt>
      <trkpt lat="47.05848" lon="-1.73906">
        <ele>58</ele>
        <time>2011-09-04T09:34:02Z</time>
      </trkpt>
      <trkpt lat="47.05851" lon="-1.73912">
        <ele>58</ele>
        <time>2011-09-04T09:34:03Z</time>
      </trkpt>
      <trkpt lat="47.05856" lon="-1.73917">
        <ele>58</ele>
        <time>2011-09-04T09:34:04Z</time>
      </trkpt>
      <trkpt lat="47.0586" lon="-1.73924">
        <ele>58</ele>
        <time>2011-09-04T09:34:05Z</time>
      </trkpt>
      <trkpt lat="47.05864" lon="-1.73929">
        <ele>58</ele>
        <time>2011-09-04T09:34:06Z</time>
      </trkpt>
      <trkpt lat="47.05868" lon="-1.73936">
        <ele>58</ele>
        <time>2011-09-04T09:34:07Z</time>
      </trkpt>
      <trkpt lat="47.05872" lon="-1.73943">
        <ele>58</ele>
        <time>2011-09-04T09:34:08Z</time>
      </trkpt>
      <trkpt lat="47.05876" lon="-1.73949">
        <ele>58</ele>
        <time>2011-09-04T09:34:09Z</time>
      </trkpt>
      <trkpt lat="47.0588" lon="-1.73956">
        <ele>58</ele>
        <time>2011-09-04T09:34:10Z</time>
      </trkpt>
      <trkpt lat="47.05884" lon="-1.73963">
        <ele>58</ele>
        <time>2011-09-04T09:34:11Z</time>
      </trkpt>
      <trkpt lat="47.05887" lon="-1.73969">
        <ele>58</ele>
        <time>2011-09-04T09:34:12Z</time>
      </trkpt>
      <trkpt lat="47.05891" lon="-1.73975">
        <ele>58</ele>
        <time>2011-09-04T09:34:13Z</time>
      </trkpt>
      <trkpt lat="47.05894" lon="-1.73982">
        <ele>58</ele>
        <time>2011-09-04T09:34:14Z</time>
      </trkpt>
      <trkpt lat="47.05898" lon="-1.73989">
        <ele>57</ele>
        <time>2011-09-04T09:34:15Z</time>
      </trkpt>
      <trkpt lat="47.05901" lon="-1.73996">
        <ele>57</ele>
        <time>2011-09-04T09:34:16Z</time>
      </trkpt>
      <trkpt lat="47.05905" lon="-1.74003">
        <ele>57</ele>
        <time>2011-09-04T09:34:17Z</time>
      </trkpt>
      <trkpt lat="47.05909" lon="-1.74009">
        <ele>57</ele>
        <time>2011-09-04T09:34:18Z</time>
      </trkpt>
      <trkpt lat="47.05913" lon="-1.74016">
        <ele>56</ele>
        <time>2011-09-04T09:34:19Z</time>
      </trkpt>
      <trkpt lat="47.05917" lon="-1.74022">
        <ele>56</ele>
        <time>2011-09-04T09:34:20Z</time>
      </trkpt>
      <trkpt lat="47.0592" lon="-1.74029">
        <ele>56</ele>
        <time>2011-09-04T09:34:21Z</time>
      </trkpt>
      <trkpt lat="47.05923" lon="-1.74036">
        <ele>56</ele>
        <time>2011-09-04T09:34:22Z</time>
      </trkpt>
      <trkpt lat="47.05927" lon="-1.74042">
        <ele>56</ele>
        <time>2011-09-04T09:34:23Z</time>
      </trkpt>
      <trkpt lat="47.0593" lon="-1.74049">
        <ele>56</ele>
        <time>2011-09-04T09:34:24Z</time>
      </trkpt>
      <trkpt lat="47.05934" lon="-1.74056">
        <ele>56</ele>
        <time>2011-09-04T09:34:25Z</time>
      </trkpt>
      <trkpt lat="47.05937" lon="-1.74062">
        <ele>56</ele>
        <time>2011-09-04T09:34:26Z</time>
      </trkpt>
      <trkpt lat="47.0594" lon="-1.74069">
        <ele>56</ele>
        <time>2011-09-04T09:34:27Z</time>
      </trkpt>
      <trkpt lat="47.05944" lon="-1.74075">
        <ele>56</ele>
        <time>2011-09-04T09:34:28Z</time>
      </trkpt>
      <trkpt lat="47.05947" lon="-1.74082">
        <ele>56</ele>
        <time>2011-09-04T09:34:29Z</time>
      </trkpt>
      <trkpt lat="47.05951" lon="-1.74089">
        <ele>56</ele>
        <time>2011-09-04T09:34:30Z</time>
      </trkpt>
      <trkpt lat="47.05954" lon="-1.74096">
        <ele>56</ele>
        <time>2011-09-04T09:34:31Z</time>
      </trkpt>
      <trkpt lat="47.05958" lon="-1.74103">
        <ele>56</ele>
        <time>2011-09-04T09:34:32Z</time>
      </trkpt>
      <trkpt lat="47.05962" lon="-1.7411">
        <ele>56</ele>
        <time>2011-09-04T09:34:33Z</time>
      </trkpt>
      <trkpt lat="47.05966" lon="-1.74117">
        <ele>56</ele>
        <time>2011-09-04T09:34:34Z</time>
      </trkpt>
      <trkpt lat="47.0597" lon="-1.74124">
        <ele>56</ele>
        <time>2011-09-04T09:34:35Z</time>
      </trkpt>
      <trkpt lat="47.05973" lon="-1.74132">
        <ele>56</ele>
        <time>2011-09-04T09:34:36Z</time>
      </trkpt>
      <trkpt lat="47.05977" lon="-1.74139">
        <ele>56</ele>
        <time>2011-09-04T09:34:37Z</time>
      </trkpt>
      <trkpt lat="47.05981" lon="-1.74144">
        <ele>56</ele>
        <time>2011-09-04T09:34:38Z</time>
      </trkpt>
      <trkpt lat="47.05985" lon="-1.74152">
        <ele>56</ele>
        <time>2011-09-04T09:34:39Z</time>
      </trkpt>
      <trkpt lat="47.05989" lon="-1.74158">
        <ele>56</ele>
        <time>2011-09-04T09:34:40Z</time>
      </trkpt>
      <trkpt lat="47.05992" lon="-1.74165">
        <ele>56</ele>
        <time>2011-09-04T09:34:41Z</time>
      </trkpt>
      <trkpt lat="47.05996" lon="-1.74171">
        <ele>55</ele>
        <time>2011-09-04T09:34:42Z</time>
      </trkpt>
      <trkpt lat="47.05999" lon="-1.74178">
        <ele>55</ele>
        <time>2011-09-04T09:34:43Z</time>
      </trkpt>
      <trkpt lat="47.06003" lon="-1.74184">
        <ele>55</ele>
        <time>2011-09-04T09:34:44Z</time>
      </trkpt>
      <trkpt lat="47.06006" lon="-1.74191">
        <ele>55</ele>
        <time>2011-09-04T09:34:45Z</time>
      </trkpt>
      <trkpt lat="47.0601" lon="-1.74197">
        <ele>55</ele>
        <time>2011-09-04T09:34:46Z</time>
      </trkpt>
      <trkpt lat="47.06013" lon="-1.74202">
        <ele>55</ele>
        <time>2011-09-04T09:34:47Z</time>
      </trkpt>
      <trkpt lat="47.06016" lon="-1.74208">
        <ele>55</ele>
        <time>2011-09-04T09:34:48Z</time>
      </trkpt>
      <trkpt lat="47.06019" lon="-1.74213">
        <ele>55</ele>
        <time>2011-09-04T09:34:49Z</time>
      </trkpt>
      <trkpt lat="47.06022" lon="-1.74218">
        <ele>55</ele>
        <time>2011-09-04T09:34:50Z</time>
      </trkpt>
      <trkpt lat="47.06025" lon="-1.74224">
        <ele>55</ele>
        <time>2011-09-04T09:34:51Z</time>
      </trkpt>
      <trkpt lat="47.06028" lon="-1.74231">
        <ele>55</ele>
        <time>2011-09-04T09:34:52Z</time>
      </trkpt>
      <trkpt lat="47.06032" lon="-1.74238">
        <ele>55</ele>
        <time>2011-09-04T09:34:53Z</time>
      </trkpt>
      <trkpt lat="47.06035" lon="-1.74244">
        <ele>56</ele>
        <time>2011-09-04T09:34:54Z</time>
      </trkpt>
      <trkpt lat="47.06039" lon="-1.74251">
        <ele>56</ele>
        <time>2011-09-04T09:34:55Z</time>
      </trkpt>
      <trkpt lat="47.06041" lon="-1.74258">
        <ele>56</ele>
        <time>2011-09-04T09:34:56Z</time>
      </trkpt>
      <trkpt lat="47.06045" lon="-1.74265">
        <ele>56</ele>
        <time>2011-09-04T09:34:57Z</time>
      </trkpt>
      <trkpt lat="47.06048" lon="-1.74271">
        <ele>56</ele>
        <time>2011-09-04T09:34:58Z</time>
      </trkpt>
      <trkpt lat="47.06051" lon="-1.74278">
        <ele>57</ele>
        <time>2011-09-04T09:34:59Z</time>
      </trkpt>
      <trkpt lat="47.06054" lon="-1.74284">
        <ele>57</ele>
        <time>2011-09-04T09:35:00Z</time>
      </trkpt>
      <trkpt lat="47.06058" lon="-1.74291">
        <ele>57</ele>
        <time>2011-09-04T09:35:01Z</time>
      </trkpt>
      <trkpt lat="47.06061" lon="-1.74298">
        <ele>57</ele>
        <time>2011-09-04T09:35:02Z</time>
      </trkpt>
      <trkpt lat="47.06064" lon="-1.74305">
        <ele>57</ele>
        <time>2011-09-04T09:35:03Z</time>
      </trkpt>
      <trkpt lat="47.06068" lon="-1.74312">
        <ele>57</ele>
        <time>2011-09-04T09:35:04Z</time>
      </trkpt>
      <trkpt lat="47.06072" lon="-1.74318">
        <ele>57</ele>
        <time>2011-09-04T09:35:05Z</time>
      </trkpt>
      <trkpt lat="47.06075" lon="-1.74325">
        <ele>57</ele>
        <time>2011-09-04T09:35:06Z</time>
      </trkpt>
      <trkpt lat="47.06079" lon="-1.74332">
        <ele>57</ele>
        <time>2011-09-04T09:35:07Z</time>
      </trkpt>
      <trkpt lat="47.06083" lon="-1.74339">
        <ele>57</ele>
        <time>2011-09-04T09:35:08Z</time>
      </trkpt>
      <trkpt lat="47.06087" lon="-1.74345">
        <ele>56</ele>
        <time>2011-09-04T09:35:09Z</time>
      </trkpt>
      <trkpt lat="47.06091" lon="-1.7435">
        <ele>56</ele>
        <time>2011-09-04T09:35:10Z</time>
      </trkpt>
      <trkpt lat="47.06095" lon="-1.74357">
        <ele>56</ele>
        <time>2011-09-04T09:35:11Z</time>
      </trkpt>
      <trkpt lat="47.06098" lon="-1.74363">
        <ele>56</ele>
        <time>2011-09-04T09:35:12Z</time>
      </trkpt>
      <trkpt lat="47.06102" lon="-1.74369">
        <ele>56</ele>
        <time>2011-09-04T09:35:13Z</time>
      </trkpt>
      <trkpt lat="47.06105" lon="-1.74375">
        <ele>55</ele>
        <time>2011-09-04T09:35:14Z</time>
      </trkpt>
      <trkpt lat="47.06108" lon="-1.74381">
        <ele>55</ele>
        <time>2011-09-04T09:35:15Z</time>
      </trkpt>
      <trkpt lat="47.06112" lon="-1.74386">
        <ele>55</ele>
        <time>2011-09-04T09:35:16Z</time>
      </trkpt>
      <trkpt lat="47.06114" lon="-1.74392">
        <ele>55</ele>
        <time>2011-09-04T09:35:17Z</time>
      </trkpt>
      <trkpt lat="47.06118" lon="-1.74398">
        <ele>55</ele>
        <time>2011-09-04T09:35:18Z</time>
      </trkpt>
      <trkpt lat="47.06121" lon="-1.74404">
        <ele>55</ele>
        <time>2011-09-04T09:35:19Z</time>
      </trkpt>
      <trkpt lat="47.06124" lon="-1.7441">
        <ele>55</ele>
        <time>2011-09-04T09:35:20Z</time>
      </trkpt>
      <trkpt lat="47.06127" lon="-1.74415">
        <ele>55</ele>
        <time>2011-09-04T09:35:21Z</time>
      </trkpt>
      <trkpt lat="47.0613" lon="-1.74421">
        <ele>55</ele>
        <time>2011-09-04T09:35:22Z</time>
      </trkpt>
      <trkpt lat="47.06133" lon="-1.74426">
        <ele>55</ele>
        <time>2011-09-04T09:35:23Z</time>
      </trkpt>
      <trkpt lat="47.06136" lon="-1.74432">
        <ele>55</ele>
        <time>2011-09-04T09:35:24Z</time>
      </trkpt>
      <trkpt lat="47.06139" lon="-1.74437">
        <ele>55</ele>
        <time>2011-09-04T09:35:25Z</time>
      </trkpt>
      <trkpt lat="47.06142" lon="-1.74443">
        <ele>55</ele>
        <time>2011-09-04T09:35:26Z</time>
      </trkpt>
      <trkpt lat="47.06144" lon="-1.74449">
        <ele>54</ele>
        <time>2011-09-04T09:35:27Z</time>
      </trkpt>
      <trkpt lat="47.06148" lon="-1.74455">
        <ele>54</ele>
        <time>2011-09-04T09:35:28Z</time>
      </trkpt>
      <trkpt lat="47.0615" lon="-1.74461">
        <ele>54</ele>
        <time>2011-09-04T09:35:29Z</time>
      </trkpt>
      <trkpt lat="47.06154" lon="-1.74467">
        <ele>54</ele>
        <time>2011-09-04T09:35:30Z</time>
      </trkpt>
      <trkpt lat="47.06157" lon="-1.74473">
        <ele>54</ele>
        <time>2011-09-04T09:35:31Z</time>
      </trkpt>
      <trkpt lat="47.0616" lon="-1.74479">
        <ele>54</ele>
        <time>2011-09-04T09:35:32Z</time>
      </trkpt>
      <trkpt lat="47.06163" lon="-1.74486">
        <ele>54</ele>
        <time>2011-09-04T09:35:33Z</time>
      </trkpt>
      <trkpt lat="47.06166" lon="-1.74493">
        <ele>54</ele>
        <time>2011-09-04T09:35:34Z</time>
      </trkpt>
      <trkpt lat="47.06169" lon="-1.74499">
        <ele>54</ele>
        <time>2011-09-04T09:35:35Z</time>
      </trkpt>
      <trkpt lat="47.06172" lon="-1.74506">
        <ele>54</ele>
        <time>2011-09-04T09:35:36Z</time>
      </trkpt>
      <trkpt lat="47.06175" lon="-1.74512">
        <ele>54</ele>
        <time>2011-09-04T09:35:37Z</time>
      </trkpt>
      <trkpt lat="47.06178" lon="-1.74518">
        <ele>54</ele>
        <time>2011-09-04T09:35:38Z</time>
      </trkpt>
      <trkpt lat="47.06181" lon="-1.74525">
        <ele>54</ele>
        <time>2011-09-04T09:35:39Z</time>
      </trkpt>
      <trkpt lat="47.06185" lon="-1.74531">
        <ele>54</ele>
        <time>2011-09-04T09:35:40Z</time>
      </trkpt>
      <trkpt lat="47.06188" lon="-1.74537">
        <ele>54</ele>
        <time>2011-09-04T09:35:41Z</time>
      </trkpt>
      <trkpt lat="47.06191" lon="-1.74543">
        <ele>54</ele>
        <time>2011-09-04T09:35:42Z</time>
      </trkpt>
      <trkpt lat="47.06194" lon="-1.74549">
        <ele>54</ele>
        <time>2011-09-04T09:35:43Z</time>
      </trkpt>
      <trkpt lat="47.06197" lon="-1.74556">
        <ele>54</ele>
        <time>2011-09-04T09:35:44Z</time>
      </trkpt>
      <trkpt lat="47.062" lon="-1.74562">
        <ele>54</ele>
        <time>2011-09-04T09:35:45Z</time>
      </trkpt>
      <trkpt lat="47.06202" lon="-1.74569">
        <ele>54</ele>
        <time>2011-09-04T09:35:46Z</time>
      </trkpt>
      <trkpt lat="47.06205" lon="-1.74576">
        <ele>54</ele>
        <time>2011-09-04T09:35:47Z</time>
      </trkpt>
      <trkpt lat="47.06208" lon="-1.74582">
        <ele>54</ele>
        <time>2011-09-04T09:35:48Z</time>
      </trkpt>
      <trkpt lat="47.06211" lon="-1.74588">
        <ele>54</ele>
        <time>2011-09-04T09:35:49Z</time>
      </trkpt>
      <trkpt lat="47.06214" lon="-1.74594">
        <ele>55</ele>
        <time>2011-09-04T09:35:50Z</time>
      </trkpt>
      <trkpt lat="47.06217" lon="-1.746">
        <ele>55</ele>
        <time>2011-09-04T09:35:51Z</time>
      </trkpt>
      <trkpt lat="47.06221" lon="-1.74606">
        <ele>55</ele>
        <time>2011-09-04T09:35:52Z</time>
      </trkpt>
      <trkpt lat="47.06225" lon="-1.74613">
        <ele>55</ele>
        <time>2011-09-04T09:35:53Z</time>
      </trkpt>
      <trkpt lat="47.06228" lon="-1.74619">
        <ele>55</ele>
        <time>2011-09-04T09:35:54Z</time>
      </trkpt>
      <trkpt lat="47.06232" lon="-1.74626">
        <ele>55</ele>
        <time>2011-09-04T09:35:55Z</time>
      </trkpt>
      <trkpt lat="47.06235" lon="-1.74632">
        <ele>55</ele>
        <time>2011-09-04T09:35:56Z</time>
      </trkpt>
      <trkpt lat="47.06239" lon="-1.74638">
        <ele>55</ele>
        <time>2011-09-04T09:35:57Z</time>
      </trkpt>
      <trkpt lat="47.06242" lon="-1.74644">
        <ele>55</ele>
        <time>2011-09-04T09:35:58Z</time>
      </trkpt>
      <trkpt lat="47.06246" lon="-1.7465">
        <ele>56</ele>
        <time>2011-09-04T09:35:59Z</time>
      </trkpt>
      <trkpt lat="47.06249" lon="-1.74656">
        <ele>56</ele>
        <time>2011-09-04T09:36:00Z</time>
      </trkpt>
      <trkpt lat="47.06252" lon="-1.74663">
        <ele>56</ele>
        <time>2011-09-04T09:36:01Z</time>
      </trkpt>
      <trkpt lat="47.06255" lon="-1.7467">
        <ele>56</ele>
        <time>2011-09-04T09:36:02Z</time>
      </trkpt>
      <trkpt lat="47.06258" lon="-1.74676">
        <ele>56</ele>
        <time>2011-09-04T09:36:03Z</time>
      </trkpt>
      <trkpt lat="47.06262" lon="-1.74683">
        <ele>56</ele>
        <time>2011-09-04T09:36:04Z</time>
      </trkpt>
      <trkpt lat="47.06264" lon="-1.74688">
        <ele>56</ele>
        <time>2011-09-04T09:36:05Z</time>
      </trkpt>
      <trkpt lat="47.06267" lon="-1.74694">
        <ele>56</ele>
        <time>2011-09-04T09:36:06Z</time>
      </trkpt>
      <trkpt lat="47.0627" lon="-1.747">
        <ele>56</ele>
        <time>2011-09-04T09:36:07Z</time>
      </trkpt>
      <trkpt lat="47.06273" lon="-1.74706">
        <ele>56</ele>
        <time>2011-09-04T09:36:08Z</time>
      </trkpt>
      <trkpt lat="47.06276" lon="-1.74712">
        <ele>56</ele>
        <time>2011-09-04T09:36:09Z</time>
      </trkpt>
      <trkpt lat="47.06279" lon="-1.74717">
        <ele>56</ele>
        <time>2011-09-04T09:36:10Z</time>
      </trkpt>
      <trkpt lat="47.06282" lon="-1.74723">
        <ele>56</ele>
        <time>2011-09-04T09:36:11Z</time>
      </trkpt>
      <trkpt lat="47.06285" lon="-1.74728">
        <ele>56</ele>
        <time>2011-09-04T09:36:12Z</time>
      </trkpt>
      <trkpt lat="47.06288" lon="-1.74733">
        <ele>56</ele>
        <time>2011-09-04T09:36:13Z</time>
      </trkpt>
      <trkpt lat="47.06291" lon="-1.74738">
        <ele>56</ele>
        <time>2011-09-04T09:36:14Z</time>
      </trkpt>
      <trkpt lat="47.06296" lon="-1.74748">
        <ele>56</ele>
        <time>2011-09-04T09:36:16Z</time>
      </trkpt>
      <trkpt lat="47.06299" lon="-1.74757">
        <ele>56</ele>
        <time>2011-09-04T09:36:18Z</time>
      </trkpt>
      <trkpt lat="47.063" lon="-1.74764">
        <ele>56</ele>
        <time>2011-09-04T09:36:20Z</time>
      </trkpt>
      <trkpt lat="47.06299" lon="-1.7477">
        <ele>55</ele>
        <time>2011-09-04T09:36:36Z</time>
      </trkpt>
      <trkpt lat="47.06303" lon="-1.74774">
        <ele>54</ele>
        <time>2011-09-04T09:37:05Z</time>
      </trkpt>
      <trkpt lat="47.06303" lon="-1.74774">
        <ele>54</ele>
        <time>2011-09-04T09:37:05Z</time>
      </trkpt>
      <trkpt lat="47.06303" lon="-1.74774">
        <ele>55</ele>
        <time>2011-09-04T09:37:13Z</time>
      </trkpt>
      <trkpt lat="47.06301" lon="-1.74782">
        <ele>55</ele>
        <time>2011-09-04T09:37:38Z</time>
      </trkpt>
      <trkpt lat="47.06303" lon="-1.74789">
        <ele>57</ele>
        <time>2011-09-04T09:37:46Z</time>
      </trkpt>
      <trkpt lat="47.06308" lon="-1.74792">
        <ele>56</ele>
        <time>2011-09-04T09:37:59Z</time>
      </trkpt>
      <trkpt lat="47.06313" lon="-1.74789">
        <ele>57</ele>
        <time>2011-09-04T09:43:31Z</time>
      </trkpt>
      <trkpt lat="47.06319" lon="-1.74788">
        <ele>57</ele>
        <time>2011-09-04T09:43:33Z</time>
      </trkpt>
      <trkpt lat="47.06324" lon="-1.74787">
        <ele>57</ele>
        <time>2011-09-04T09:43:35Z</time>
      </trkpt>
      <trkpt lat="47.0633" lon="-1.74787">
        <ele>57</ele>
        <time>2011-09-04T09:43:37Z</time>
      </trkpt>
      <trkpt lat="47.06337" lon="-1.74786">
        <ele>57</ele>
        <time>2011-09-04T09:43:39Z</time>
      </trkpt>
      <trkpt lat="47.06344" lon="-1.74786">
        <ele>58</ele>
        <time>2011-09-04T09:43:41Z</time>
      </trkpt>
      <trkpt lat="47.0635" lon="-1.74785">
        <ele>58</ele>
        <time>2011-09-04T09:43:43Z</time>
      </trkpt>
      <trkpt lat="47.06355" lon="-1.74784">
        <ele>59</ele>
        <time>2011-09-04T09:43:45Z</time>
      </trkpt>
      <trkpt lat="47.06361" lon="-1.74784">
        <ele>60</ele>
        <time>2011-09-04T09:43:47Z</time>
      </trkpt>
      <trkpt lat="47.06366" lon="-1.74784">
        <ele>60</ele>
        <time>2011-09-04T09:43:49Z</time>
      </trkpt>
      <trkpt lat="47.06372" lon="-1.74785">
        <ele>60</ele>
        <time>2011-09-04T09:43:51Z</time>
      </trkpt>
      <trkpt lat="47.06379" lon="-1.74786">
        <ele>61</ele>
        <time>2011-09-04T09:43:53Z</time>
      </trkpt>
      <trkpt lat="47.06387" lon="-1.74788">
        <ele>61</ele>
        <time>2011-09-04T09:43:55Z</time>
      </trkpt>
      <trkpt lat="47.06394" lon="-1.7479">
        <ele>62</ele>
        <time>2011-09-04T09:43:57Z</time>
      </trkpt>
      <trkpt lat="47.06401" lon="-1.74792">
        <ele>63</ele>
        <time>2011-09-04T09:43:59Z</time>
      </trkpt>
      <trkpt lat="47.06408" lon="-1.74795">
        <ele>63</ele>
        <time>2011-09-04T09:44:01Z</time>
      </trkpt>
      <trkpt lat="47.06415" lon="-1.74797">
        <ele>63</ele>
        <time>2011-09-04T09:44:03Z</time>
      </trkpt>
      <trkpt lat="47.06422" lon="-1.74801">
        <ele>63</ele>
        <time>2011-09-04T09:44:05Z</time>
      </trkpt>
      <trkpt lat="47.06431" lon="-1.74803">
        <ele>63</ele>
        <time>2011-09-04T09:44:07Z</time>
      </trkpt>
      <trkpt lat="47.06439" lon="-1.74803">
        <ele>64</ele>
        <time>2011-09-04T09:44:09Z</time>
      </trkpt>
      <trkpt lat="47.06444" lon="-1.74802">
        <ele>63</ele>
        <time>2011-09-04T09:44:10Z</time>
      </trkpt>
      <trkpt lat="47.06448" lon="-1.748">
        <ele>63</ele>
        <time>2011-09-04T09:44:11Z</time>
      </trkpt>
      <trkpt lat="47.06453" lon="-1.74798">
        <ele>63</ele>
        <time>2011-09-04T09:44:12Z</time>
      </trkpt>
      <trkpt lat="47.06458" lon="-1.74796">
        <ele>63</ele>
        <time>2011-09-04T09:44:13Z</time>
      </trkpt>
      <trkpt lat="47.06462" lon="-1.74794">
        <ele>63</ele>
        <time>2011-09-04T09:44:14Z</time>
      </trkpt>
      <trkpt lat="47.06471" lon="-1.74791">
        <ele>62</ele>
        <time>2011-09-04T09:44:16Z</time>
      </trkpt>
      <trkpt lat="47.0648" lon="-1.74789">
        <ele>63</ele>
        <time>2011-09-04T09:44:18Z</time>
      </trkpt>
      <trkpt lat="47.06484" lon="-1.74789">
        <ele>63</ele>
        <time>2011-09-04T09:44:19Z</time>
      </trkpt>
      <trkpt lat="47.06489" lon="-1.74788">
        <ele>63</ele>
        <time>2011-09-04T09:44:20Z</time>
      </trkpt>
      <trkpt lat="47.06497" lon="-1.74789">
        <ele>63</ele>
        <time>2011-09-04T09:44:22Z</time>
      </trkpt>
      <trkpt lat="47.06505" lon="-1.74791">
        <ele>63</ele>
        <time>2011-09-04T09:44:24Z</time>
      </trkpt>
      <trkpt lat="47.06513" lon="-1.74795">
        <ele>63</ele>
        <time>2011-09-04T09:44:26Z</time>
      </trkpt>
      <trkpt lat="47.06521" lon="-1.748">
        <ele>63</ele>
        <time>2011-09-04T09:44:28Z</time>
      </trkpt>
      <trkpt lat="47.06525" lon="-1.74802">
        <ele>63</ele>
        <time>2011-09-04T09:44:29Z</time>
      </trkpt>
      <trkpt lat="47.06534" lon="-1.74805">
        <ele>61</ele>
        <time>2011-09-04T09:44:31Z</time>
      </trkpt>
      <trkpt lat="47.0654" lon="-1.74808">
        <ele>62</ele>
        <time>2011-09-04T09:44:33Z</time>
      </trkpt>
      <trkpt lat="47.06547" lon="-1.74812">
        <ele>63</ele>
        <time>2011-09-04T09:44:35Z</time>
      </trkpt>
      <trkpt lat="47.06554" lon="-1.74817">
        <ele>63</ele>
        <time>2011-09-04T09:44:37Z</time>
      </trkpt>
      <trkpt lat="47.06561" lon="-1.7482">
        <ele>64</ele>
        <time>2011-09-04T09:44:39Z</time>
      </trkpt>
      <trkpt lat="47.06568" lon="-1.74823">
        <ele>64</ele>
        <time>2011-09-04T09:44:41Z</time>
      </trkpt>
      <trkpt lat="47.06577" lon="-1.74824">
        <ele>64</ele>
        <time>2011-09-04T09:44:43Z</time>
      </trkpt>
      <trkpt lat="47.06584" lon="-1.74823">
        <ele>66</ele>
        <time>2011-09-04T09:44:45Z</time>
      </trkpt>
      <trkpt lat="47.06588" lon="-1.74822">
        <ele>66</ele>
        <time>2011-09-04T09:44:46Z</time>
      </trkpt>
      <trkpt lat="47.06597" lon="-1.74819">
        <ele>66</ele>
        <time>2011-09-04T09:44:48Z</time>
      </trkpt>
      <trkpt lat="47.06606" lon="-1.74816">
        <ele>66</ele>
        <time>2011-09-04T09:44:50Z</time>
      </trkpt>
      <trkpt lat="47.06614" lon="-1.74813">
        <ele>66</ele>
        <time>2011-09-04T09:44:52Z</time>
      </trkpt>
      <trkpt lat="47.06622" lon="-1.74809">
        <ele>67</ele>
        <time>2011-09-04T09:44:54Z</time>
      </trkpt>
      <trkpt lat="47.06631" lon="-1.74807">
        <ele>67</ele>
        <time>2011-09-04T09:44:56Z</time>
      </trkpt>
      <trkpt lat="47.06635" lon="-1.74805">
        <ele>68</ele>
        <time>2011-09-04T09:44:57Z</time>
      </trkpt>
      <trkpt lat="47.06643" lon="-1.748">
        <ele>68</ele>
        <time>2011-09-04T09:44:59Z</time>
      </trkpt>
      <trkpt lat="47.06651" lon="-1.74796">
        <ele>68</ele>
        <time>2011-09-04T09:45:01Z</time>
      </trkpt>
      <trkpt lat="47.06656" lon="-1.74794">
        <ele>68</ele>
        <time>2011-09-04T09:45:02Z</time>
      </trkpt>
      <trkpt lat="47.0666" lon="-1.74792">
        <ele>68</ele>
        <time>2011-09-04T09:45:03Z</time>
      </trkpt>
      <trkpt lat="47.0667" lon="-1.74788">
        <ele>68</ele>
        <time>2011-09-04T09:45:05Z</time>
      </trkpt>
      <trkpt lat="47.06674" lon="-1.74787">
        <ele>68</ele>
        <time>2011-09-04T09:45:06Z</time>
      </trkpt>
      <trkpt lat="47.06679" lon="-1.74785">
        <ele>68</ele>
        <time>2011-09-04T09:45:07Z</time>
      </trkpt>
      <trkpt lat="47.06688" lon="-1.74783">
        <ele>67</ele>
        <time>2011-09-04T09:45:09Z</time>
      </trkpt>
      <trkpt lat="47.06695" lon="-1.74782">
        <ele>67</ele>
        <time>2011-09-04T09:45:10Z</time>
      </trkpt>
      <trkpt lat="47.06701" lon="-1.74782">
        <ele>66</ele>
        <time>2011-09-04T09:45:11Z</time>
      </trkpt>
      <trkpt lat="47.06705" lon="-1.74784">
        <ele>66</ele>
        <time>2011-09-04T09:45:12Z</time>
      </trkpt>
      <trkpt lat="47.0671" lon="-1.74786">
        <ele>66</ele>
        <time>2011-09-04T09:45:13Z</time>
      </trkpt>
      <trkpt lat="47.06716" lon="-1.74788">
        <ele>66</ele>
        <time>2011-09-04T09:45:14Z</time>
      </trkpt>
      <trkpt lat="47.0672" lon="-1.7479">
        <ele>65</ele>
        <time>2011-09-04T09:45:15Z</time>
      </trkpt>
      <trkpt lat="47.06729" lon="-1.74794">
        <ele>65</ele>
        <time>2011-09-04T09:45:17Z</time>
      </trkpt>
      <trkpt lat="47.06733" lon="-1.74796">
        <ele>65</ele>
        <time>2011-09-04T09:45:18Z</time>
      </trkpt>
      <trkpt lat="47.06741" lon="-1.74801">
        <ele>65</ele>
        <time>2011-09-04T09:45:20Z</time>
      </trkpt>
      <trkpt lat="47.06749" lon="-1.74808">
        <ele>64</ele>
        <time>2011-09-04T09:45:22Z</time>
      </trkpt>
      <trkpt lat="47.06755" lon="-1.74814">
        <ele>64</ele>
        <time>2011-09-04T09:45:24Z</time>
      </trkpt>
      <trkpt lat="47.06761" lon="-1.74822">
        <ele>65</ele>
        <time>2011-09-04T09:45:26Z</time>
      </trkpt>
      <trkpt lat="47.06768" lon="-1.7483">
        <ele>66</ele>
        <time>2011-09-04T09:45:28Z</time>
      </trkpt>
      <trkpt lat="47.06775" lon="-1.74835">
        <ele>67</ele>
        <time>2011-09-04T09:45:30Z</time>
      </trkpt>
      <trkpt lat="47.06781" lon="-1.74842">
        <ele>67</ele>
        <time>2011-09-04T09:45:32Z</time>
      </trkpt>
      <trkpt lat="47.06785" lon="-1.74845">
        <ele>68</ele>
        <time>2011-09-04T09:45:33Z</time>
      </trkpt>
      <trkpt lat="47.0679" lon="-1.74847">
        <ele>67</ele>
        <time>2011-09-04T09:45:34Z</time>
      </trkpt>
      <trkpt lat="47.06799" lon="-1.74852">
        <ele>68</ele>
        <time>2011-09-04T09:45:36Z</time>
      </trkpt>
      <trkpt lat="47.06807" lon="-1.74854">
        <ele>69</ele>
        <time>2011-09-04T09:45:38Z</time>
      </trkpt>
      <trkpt lat="47.06815" lon="-1.74856">
        <ele>69</ele>
        <time>2011-09-04T09:45:40Z</time>
      </trkpt>
      <trkpt lat="47.06824" lon="-1.74857">
        <ele>70</ele>
        <time>2011-09-04T09:45:42Z</time>
      </trkpt>
      <trkpt lat="47.06829" lon="-1.74859">
        <ele>70</ele>
        <time>2011-09-04T09:45:43Z</time>
      </trkpt>
      <trkpt lat="47.06836" lon="-1.7486">
        <ele>70</ele>
        <time>2011-09-04T09:45:45Z</time>
      </trkpt>
      <trkpt lat="47.06842" lon="-1.74861">
        <ele>70</ele>
        <time>2011-09-04T09:45:46Z</time>
      </trkpt>
      <trkpt lat="47.06849" lon="-1.74862">
        <ele>71</ele>
        <time>2011-09-04T09:45:48Z</time>
      </trkpt>
      <trkpt lat="47.06854" lon="-1.74862">
        <ele>71</ele>
        <time>2011-09-04T09:45:49Z</time>
      </trkpt>
      <trkpt lat="47.06864" lon="-1.74864">
        <ele>71</ele>
        <time>2011-09-04T09:45:51Z</time>
      </trkpt>
      <trkpt lat="47.06869" lon="-1.74864">
        <ele>71</ele>
        <time>2011-09-04T09:45:52Z</time>
      </trkpt>
      <trkpt lat="47.06877" lon="-1.74864">
        <ele>72</ele>
        <time>2011-09-04T09:45:54Z</time>
      </trkpt>
      <trkpt lat="47.06887" lon="-1.74865">
        <ele>72</ele>
        <time>2011-09-04T09:45:56Z</time>
      </trkpt>
      <trkpt lat="47.06892" lon="-1.74866">
        <ele>72</ele>
        <time>2011-09-04T09:45:57Z</time>
      </trkpt>
      <trkpt lat="47.06898" lon="-1.74866">
        <ele>72</ele>
        <time>2011-09-04T09:45:58Z</time>
      </trkpt>
      <trkpt lat="47.06903" lon="-1.74866">
        <ele>71</ele>
        <time>2011-09-04T09:45:59Z</time>
      </trkpt>
      <trkpt lat="47.06908" lon="-1.74866">
        <ele>71</ele>
        <time>2011-09-04T09:46:00Z</time>
      </trkpt>
      <trkpt lat="47.06912" lon="-1.74867">
        <ele>72</ele>
        <time>2011-09-04T09:46:01Z</time>
      </trkpt>
      <trkpt lat="47.06918" lon="-1.74867">
        <ele>71</ele>
        <time>2011-09-04T09:46:02Z</time>
      </trkpt>
      <trkpt lat="47.06923" lon="-1.74867">
        <ele>71</ele>
        <time>2011-09-04T09:46:03Z</time>
      </trkpt>
      <trkpt lat="47.06932" lon="-1.74868">
        <ele>71</ele>
        <time>2011-09-04T09:46:05Z</time>
      </trkpt>
      <trkpt lat="47.06941" lon="-1.74869">
        <ele>71</ele>
        <time>2011-09-04T09:46:07Z</time>
      </trkpt>
      <trkpt lat="47.0695" lon="-1.7487">
        <ele>72</ele>
        <time>2011-09-04T09:46:09Z</time>
      </trkpt>
      <trkpt lat="47.06955" lon="-1.74869">
        <ele>72</ele>
        <time>2011-09-04T09:46:10Z</time>
      </trkpt>
      <trkpt lat="47.06964" lon="-1.74868">
        <ele>72</ele>
        <time>2011-09-04T09:46:12Z</time>
      </trkpt>
      <trkpt lat="47.06968" lon="-1.74867">
        <ele>72</ele>
        <time>2011-09-04T09:46:13Z</time>
      </trkpt>
      <trkpt lat="47.06973" lon="-1.74864">
        <ele>72</ele>
        <time>2011-09-04T09:46:14Z</time>
      </trkpt>
      <trkpt lat="47.06977" lon="-1.74861">
        <ele>72</ele>
        <time>2011-09-04T09:46:15Z</time>
      </trkpt>
      <trkpt lat="47.06982" lon="-1.74858">
        <ele>71</ele>
        <time>2011-09-04T09:46:16Z</time>
      </trkpt>
      <trkpt lat="47.06987" lon="-1.74855">
        <ele>71</ele>
        <time>2011-09-04T09:46:17Z</time>
      </trkpt>
      <trkpt lat="47.06991" lon="-1.74853">
        <ele>71</ele>
        <time>2011-09-04T09:46:18Z</time>
      </trkpt>
      <trkpt lat="47.06999" lon="-1.74847">
        <ele>71</ele>
        <time>2011-09-04T09:46:20Z</time>
      </trkpt>
      <trkpt lat="47.07003" lon="-1.74844">
        <ele>70</ele>
        <time>2011-09-04T09:46:21Z</time>
      </trkpt>
      <trkpt lat="47.07009" lon="-1.74842">
        <ele>69</ele>
        <time>2011-09-04T09:46:22Z</time>
      </trkpt>
      <trkpt lat="47.07014" lon="-1.74841">
        <ele>69</ele>
        <time>2011-09-04T09:46:23Z</time>
      </trkpt>
      <trkpt lat="47.0702" lon="-1.7484">
        <ele>68</ele>
        <time>2011-09-04T09:46:24Z</time>
      </trkpt>
      <trkpt lat="47.07025" lon="-1.74839">
        <ele>68</ele>
        <time>2011-09-04T09:46:25Z</time>
      </trkpt>
      <trkpt lat="47.0703" lon="-1.74839">
        <ele>67</ele>
        <time>2011-09-04T09:46:26Z</time>
      </trkpt>
      <trkpt lat="47.07035" lon="-1.74838">
        <ele>67</ele>
        <time>2011-09-04T09:46:27Z</time>
      </trkpt>
      <trkpt lat="47.07044" lon="-1.74839">
        <ele>66</ele>
        <time>2011-09-04T09:46:29Z</time>
      </trkpt>
      <trkpt lat="47.07049" lon="-1.7484">
        <ele>66</ele>
        <time>2011-09-04T09:46:30Z</time>
      </trkpt>
      <trkpt lat="47.07054" lon="-1.74841">
        <ele>66</ele>
        <time>2011-09-04T09:46:31Z</time>
      </trkpt>
      <trkpt lat="47.07064" lon="-1.74841">
        <ele>65</ele>
        <time>2011-09-04T09:46:33Z</time>
      </trkpt>
      <trkpt lat="47.07073" lon="-1.7484">
        <ele>64</ele>
        <time>2011-09-04T09:46:35Z</time>
      </trkpt>
      <trkpt lat="47.07082" lon="-1.74839">
        <ele>64</ele>
        <time>2011-09-04T09:46:37Z</time>
      </trkpt>
      <trkpt lat="47.07087" lon="-1.74839">
        <ele>64</ele>
        <time>2011-09-04T09:46:38Z</time>
      </trkpt>
      <trkpt lat="47.07092" lon="-1.74839">
        <ele>64</ele>
        <time>2011-09-04T09:46:39Z</time>
      </trkpt>
      <trkpt lat="47.07101" lon="-1.7484">
        <ele>63</ele>
        <time>2011-09-04T09:46:41Z</time>
      </trkpt>
      <trkpt lat="47.07105" lon="-1.74841">
        <ele>63</ele>
        <time>2011-09-04T09:46:42Z</time>
      </trkpt>
      <trkpt lat="47.07114" lon="-1.74844">
        <ele>63</ele>
        <time>2011-09-04T09:46:44Z</time>
      </trkpt>
      <trkpt lat="47.07133" lon="-1.74853">
        <ele>62</ele>
        <time>2011-09-04T09:46:49Z</time>
      </trkpt>
      <trkpt lat="47.07141" lon="-1.74854">
        <ele>62</ele>
        <time>2011-09-04T09:46:51Z</time>
      </trkpt>
      <trkpt lat="47.07149" lon="-1.74854">
        <ele>61</ele>
        <time>2011-09-04T09:46:53Z</time>
      </trkpt>
      <trkpt lat="47.07158" lon="-1.74854">
        <ele>61</ele>
        <time>2011-09-04T09:46:55Z</time>
      </trkpt>
      <trkpt lat="47.07166" lon="-1.74854">
        <ele>61</ele>
        <time>2011-09-04T09:46:57Z</time>
      </trkpt>
      <trkpt lat="47.07174" lon="-1.74855">
        <ele>60</ele>
        <time>2011-09-04T09:46:59Z</time>
      </trkpt>
      <trkpt lat="47.07179" lon="-1.74857">
        <ele>60</ele>
        <time>2011-09-04T09:47:00Z</time>
      </trkpt>
      <trkpt lat="47.07186" lon="-1.74859">
        <ele>60</ele>
        <time>2011-09-04T09:47:02Z</time>
      </trkpt>
      <trkpt lat="47.07194" lon="-1.74861">
        <ele>60</ele>
        <time>2011-09-04T09:47:04Z</time>
      </trkpt>
      <trkpt lat="47.07201" lon="-1.74863">
        <ele>60</ele>
        <time>2011-09-04T09:47:06Z</time>
      </trkpt>
      <trkpt lat="47.07208" lon="-1.74864">
        <ele>60</ele>
        <time>2011-09-04T09:47:08Z</time>
      </trkpt>
      <trkpt lat="47.07216" lon="-1.74861">
        <ele>59</ele>
        <time>2011-09-04T09:47:10Z</time>
      </trkpt>
      <trkpt lat="47.07224" lon="-1.74859">
        <ele>60</ele>
        <time>2011-09-04T09:47:12Z</time>
      </trkpt>
      <trkpt lat="47.07233" lon="-1.74857">
        <ele>60</ele>
        <time>2011-09-04T09:47:14Z</time>
      </trkpt>
      <trkpt lat="47.07242" lon="-1.74855">
        <ele>60</ele>
        <time>2011-09-04T09:47:16Z</time>
      </trkpt>
      <trkpt lat="47.07249" lon="-1.74854">
        <ele>60</ele>
        <time>2011-09-04T09:47:18Z</time>
      </trkpt>
      <trkpt lat="47.07257" lon="-1.74854">
        <ele>61</ele>
        <time>2011-09-04T09:47:20Z</time>
      </trkpt>
      <trkpt lat="47.07264" lon="-1.74855">
        <ele>61</ele>
        <time>2011-09-04T09:47:22Z</time>
      </trkpt>
      <trkpt lat="47.07269" lon="-1.74856">
        <ele>60</ele>
        <time>2011-09-04T09:47:23Z</time>
      </trkpt>
      <trkpt lat="47.0728" lon="-1.74857">
        <ele>61</ele>
        <time>2011-09-04T09:47:25Z</time>
      </trkpt>
      <trkpt lat="47.07284" lon="-1.74857">
        <ele>61</ele>
        <time>2011-09-04T09:47:26Z</time>
      </trkpt>
      <trkpt lat="47.07291" lon="-1.74857">
        <ele>61</ele>
        <time>2011-09-04T09:47:27Z</time>
      </trkpt>
      <trkpt lat="47.07296" lon="-1.74857">
        <ele>61</ele>
        <time>2011-09-04T09:47:28Z</time>
      </trkpt>
      <trkpt lat="47.07301" lon="-1.74857">
        <ele>61</ele>
        <time>2011-09-04T09:47:29Z</time>
      </trkpt>
      <trkpt lat="47.0731" lon="-1.74857">
        <ele>62</ele>
        <time>2011-09-04T09:47:31Z</time>
      </trkpt>
      <trkpt lat="47.07315" lon="-1.74856">
        <ele>62</ele>
        <time>2011-09-04T09:47:32Z</time>
      </trkpt>
      <trkpt lat="47.07321" lon="-1.74856">
        <ele>62</ele>
        <time>2011-09-04T09:47:33Z</time>
      </trkpt>
      <trkpt lat="47.07326" lon="-1.74856">
        <ele>62</ele>
        <time>2011-09-04T09:47:34Z</time>
      </trkpt>
      <trkpt lat="47.07331" lon="-1.74855">
        <ele>62</ele>
        <time>2011-09-04T09:47:35Z</time>
      </trkpt>
      <trkpt lat="47.07336" lon="-1.74855">
        <ele>62</ele>
        <time>2011-09-04T09:47:36Z</time>
      </trkpt>
      <trkpt lat="47.07341" lon="-1.74856">
        <ele>62</ele>
        <time>2011-09-04T09:47:37Z</time>
      </trkpt>
      <trkpt lat="47.07346" lon="-1.74857">
        <ele>62</ele>
        <time>2011-09-04T09:47:38Z</time>
      </trkpt>
      <trkpt lat="47.07351" lon="-1.74857">
        <ele>62</ele>
        <time>2011-09-04T09:47:39Z</time>
      </trkpt>
      <trkpt lat="47.07359" lon="-1.74858">
        <ele>62</ele>
        <time>2011-09-04T09:47:41Z</time>
      </trkpt>
      <trkpt lat="47.07364" lon="-1.7486">
        <ele>62</ele>
        <time>2011-09-04T09:47:42Z</time>
      </trkpt>
      <trkpt lat="47.07368" lon="-1.74861">
        <ele>62</ele>
        <time>2011-09-04T09:47:43Z</time>
      </trkpt>
      <trkpt lat="47.07376" lon="-1.74862">
        <ele>62</ele>
        <time>2011-09-04T09:47:45Z</time>
      </trkpt>
      <trkpt lat="47.07381" lon="-1.74862">
        <ele>62</ele>
        <time>2011-09-04T09:47:46Z</time>
      </trkpt>
      <trkpt lat="47.07386" lon="-1.74863">
        <ele>62</ele>
        <time>2011-09-04T09:47:47Z</time>
      </trkpt>
      <trkpt lat="47.0739" lon="-1.74864">
        <ele>62</ele>
        <time>2011-09-04T09:47:48Z</time>
      </trkpt>
      <trkpt lat="47.07398" lon="-1.74865">
        <ele>63</ele>
        <time>2011-09-04T09:47:50Z</time>
      </trkpt>
      <trkpt lat="47.07407" lon="-1.74866">
        <ele>63</ele>
        <time>2011-09-04T09:47:52Z</time>
      </trkpt>
      <trkpt lat="47.07416" lon="-1.74867">
        <ele>63</ele>
        <time>2011-09-04T09:47:54Z</time>
      </trkpt>
      <trkpt lat="47.07422" lon="-1.74866">
        <ele>63</ele>
        <time>2011-09-04T09:47:56Z</time>
      </trkpt>
      <trkpt lat="47.07428" lon="-1.74862">
        <ele>63</ele>
        <time>2011-09-04T09:47:58Z</time>
      </trkpt>
      <trkpt lat="47.07432" lon="-1.74855">
        <ele>63</ele>
        <time>2011-09-04T09:48:00Z</time>
      </trkpt>
      <trkpt lat="47.07433" lon="-1.74848">
        <ele>64</ele>
        <time>2011-09-04T09:48:02Z</time>
      </trkpt>
      <trkpt lat="47.07431" lon="-1.74839">
        <ele>64</ele>
        <time>2011-09-04T09:48:04Z</time>
      </trkpt>
      <trkpt lat="47.07432" lon="-1.74829">
        <ele>65</ele>
        <time>2011-09-04T09:48:06Z</time>
      </trkpt>
      <trkpt lat="47.07432" lon="-1.74818">
        <ele>66</ele>
        <time>2011-09-04T09:48:08Z</time>
      </trkpt>
      <trkpt lat="47.07431" lon="-1.7481">
        <ele>67</ele>
        <time>2011-09-04T09:48:10Z</time>
      </trkpt>
      <trkpt lat="47.0743" lon="-1.74798">
        <ele>68</ele>
        <time>2011-09-04T09:48:12Z</time>
      </trkpt>
      <trkpt lat="47.07429" lon="-1.74789">
        <ele>67</ele>
        <time>2011-09-04T09:48:14Z</time>
      </trkpt>
      <trkpt lat="47.07433" lon="-1.74781">
        <ele>67</ele>
        <time>2011-09-04T09:48:16Z</time>
      </trkpt>
      <trkpt lat="47.07438" lon="-1.74775">
        <ele>66</ele>
        <time>2011-09-04T09:48:18Z</time>
      </trkpt>
      <trkpt lat="47.07443" lon="-1.7477">
        <ele>66</ele>
        <time>2011-09-04T09:48:20Z</time>
      </trkpt>
      <trkpt lat="47.07448" lon="-1.74761">
        <ele>65</ele>
        <time>2011-09-04T09:48:22Z</time>
      </trkpt>
      <trkpt lat="47.07451" lon="-1.74752">
        <ele>64</ele>
        <time>2011-09-04T09:48:24Z</time>
      </trkpt>
      <trkpt lat="47.07454" lon="-1.74747">
        <ele>63</ele>
        <time>2011-09-04T09:48:25Z</time>
      </trkpt>
      <trkpt lat="47.0746" lon="-1.74738">
        <ele>62</ele>
        <time>2011-09-04T09:48:27Z</time>
      </trkpt>
      <trkpt lat="47.07466" lon="-1.7473">
        <ele>60</ele>
        <time>2011-09-04T09:48:29Z</time>
      </trkpt>
      <trkpt lat="47.0747" lon="-1.74724">
        <ele>60</ele>
        <time>2011-09-04T09:48:31Z</time>
      </trkpt>
      <trkpt lat="47.07474" lon="-1.74719">
        <ele>59</ele>
        <time>2011-09-04T09:48:33Z</time>
      </trkpt>
      <trkpt lat="47.0748" lon="-1.74713">
        <ele>59</ele>
        <time>2011-09-04T09:48:36Z</time>
      </trkpt>
      <trkpt lat="47.07483" lon="-1.74709">
        <ele>58</ele>
        <time>2011-09-04T09:48:38Z</time>
      </trkpt>
      <trkpt lat="47.07489" lon="-1.74704">
        <ele>57</ele>
        <time>2011-09-04T09:48:41Z</time>
      </trkpt>
      <trkpt lat="47.07494" lon="-1.74699">
        <ele>56</ele>
        <time>2011-09-04T09:48:44Z</time>
      </trkpt>
      <trkpt lat="47.07498" lon="-1.74691">
        <ele>56</ele>
        <time>2011-09-04T09:48:47Z</time>
      </trkpt>
      <trkpt lat="47.07502" lon="-1.74686">
        <ele>55</ele>
        <time>2011-09-04T09:48:49Z</time>
      </trkpt>
      <trkpt lat="47.07506" lon="-1.74682">
        <ele>55</ele>
        <time>2011-09-04T09:48:51Z</time>
      </trkpt>
      <trkpt lat="47.0751" lon="-1.74676">
        <ele>54</ele>
        <time>2011-09-04T09:48:53Z</time>
      </trkpt>
      <trkpt lat="47.07515" lon="-1.74671">
        <ele>54</ele>
        <time>2011-09-04T09:48:55Z</time>
      </trkpt>
      <trkpt lat="47.07519" lon="-1.74666">
        <ele>54</ele>
        <time>2011-09-04T09:48:57Z</time>
      </trkpt>
      <trkpt lat="47.07523" lon="-1.74662">
        <ele>54</ele>
        <time>2011-09-04T09:48:59Z</time>
      </trkpt>
      <trkpt lat="47.07527" lon="-1.74658">
        <ele>55</ele>
        <time>2011-09-04T09:49:01Z</time>
      </trkpt>
      <trkpt lat="47.0753" lon="-1.74654">
        <ele>55</ele>
        <time>2011-09-04T09:49:04Z</time>
      </trkpt>
      <trkpt lat="47.07534" lon="-1.74647">
        <ele>55</ele>
        <time>2011-09-04T09:49:07Z</time>
      </trkpt>
      <trkpt lat="47.07538" lon="-1.74642">
        <ele>54</ele>
        <time>2011-09-04T09:49:10Z</time>
      </trkpt>
      <trkpt lat="47.07542" lon="-1.74638">
        <ele>55</ele>
        <time>2011-09-04T09:49:13Z</time>
      </trkpt>
      <trkpt lat="47.07547" lon="-1.74636">
        <ele>55</ele>
        <time>2011-09-04T09:49:16Z</time>
      </trkpt>
      <trkpt lat="47.0755" lon="-1.74632">
        <ele>55</ele>
        <time>2011-09-04T09:49:21Z</time>
      </trkpt>
      <trkpt lat="47.07554" lon="-1.74628">
        <ele>55</ele>
        <time>2011-09-04T09:49:26Z</time>
      </trkpt>
      <trkpt lat="47.07558" lon="-1.74622">
        <ele>54</ele>
        <time>2011-09-04T09:49:30Z</time>
      </trkpt>
      <trkpt lat="47.07562" lon="-1.74617">
        <ele>54</ele>
        <time>2011-09-04T09:49:33Z</time>
      </trkpt>
      <trkpt lat="47.07566" lon="-1.74611">
        <ele>54</ele>
        <time>2011-09-04T09:49:36Z</time>
      </trkpt>
      <trkpt lat="47.07571" lon="-1.74606">
        <ele>54</ele>
        <time>2011-09-04T09:49:39Z</time>
      </trkpt>
      <trkpt lat="47.07575" lon="-1.74603">
        <ele>54</ele>
        <time>2011-09-04T09:49:44Z</time>
      </trkpt>
      <trkpt lat="47.07579" lon="-1.74595">
        <ele>51</ele>
        <time>2011-09-04T09:51:07Z</time>
      </trkpt>
      <trkpt lat="47.07584" lon="-1.74589">
        <ele>51</ele>
        <time>2011-09-04T09:51:10Z</time>
      </trkpt>
      <trkpt lat="47.07588" lon="-1.74583">
        <ele>52</ele>
        <time>2011-09-04T09:51:12Z</time>
      </trkpt>
      <trkpt lat="47.07594" lon="-1.74576">
        <ele>52</ele>
        <time>2011-09-04T09:51:14Z</time>
      </trkpt>
      <trkpt lat="47.076" lon="-1.74568">
        <ele>52</ele>
        <time>2011-09-04T09:51:16Z</time>
      </trkpt>
      <trkpt lat="47.07604" lon="-1.74562">
        <ele>52</ele>
        <time>2011-09-04T09:51:18Z</time>
      </trkpt>
      <trkpt lat="47.0761" lon="-1.74556">
        <ele>53</ele>
        <time>2011-09-04T09:51:20Z</time>
      </trkpt>
      <trkpt lat="47.07615" lon="-1.74551">
        <ele>53</ele>
        <time>2011-09-04T09:51:22Z</time>
      </trkpt>
      <trkpt lat="47.0762" lon="-1.74546">
        <ele>53</ele>
        <time>2011-09-04T09:51:24Z</time>
      </trkpt>
      <trkpt lat="47.07624" lon="-1.7454">
        <ele>54</ele>
        <time>2011-09-04T09:51:26Z</time>
      </trkpt>
      <trkpt lat="47.07629" lon="-1.74533">
        <ele>54</ele>
        <time>2011-09-04T09:51:28Z</time>
      </trkpt>
      <trkpt lat="47.07634" lon="-1.74527">
        <ele>54</ele>
        <time>2011-09-04T09:51:30Z</time>
      </trkpt>
      <trkpt lat="47.07639" lon="-1.74521">
        <ele>55</ele>
        <time>2011-09-04T09:51:32Z</time>
      </trkpt>
      <trkpt lat="47.07645" lon="-1.74515">
        <ele>54</ele>
        <time>2011-09-04T09:51:34Z</time>
      </trkpt>
      <trkpt lat="47.0765" lon="-1.74509">
        <ele>54</ele>
        <time>2011-09-04T09:51:36Z</time>
      </trkpt>
      <trkpt lat="47.07655" lon="-1.74503">
        <ele>54</ele>
        <time>2011-09-04T09:51:38Z</time>
      </trkpt>
      <trkpt lat="47.0766" lon="-1.74496">
        <ele>54</ele>
        <time>2011-09-04T09:51:40Z</time>
      </trkpt>
      <trkpt lat="47.07665" lon="-1.7449">
        <ele>54</ele>
        <time>2011-09-04T09:51:42Z</time>
      </trkpt>
      <trkpt lat="47.0767" lon="-1.74484">
        <ele>55</ele>
        <time>2011-09-04T09:51:44Z</time>
      </trkpt>
      <trkpt lat="47.07675" lon="-1.74477">
        <ele>54</ele>
        <time>2011-09-04T09:51:46Z</time>
      </trkpt>
      <trkpt lat="47.0768" lon="-1.7447">
        <ele>54</ele>
        <time>2011-09-04T09:51:48Z</time>
      </trkpt>
      <trkpt lat="47.07686" lon="-1.74464">
        <ele>54</ele>
        <time>2011-09-04T09:51:50Z</time>
      </trkpt>
      <trkpt lat="47.0769" lon="-1.74458">
        <ele>54</ele>
        <time>2011-09-04T09:51:52Z</time>
      </trkpt>
      <trkpt lat="47.07696" lon="-1.74452">
        <ele>54</ele>
        <time>2011-09-04T09:51:54Z</time>
      </trkpt>
      <trkpt lat="47.07702" lon="-1.74446">
        <ele>54</ele>
        <time>2011-09-04T09:51:56Z</time>
      </trkpt>
      <trkpt lat="47.07707" lon="-1.7444">
        <ele>54</ele>
        <time>2011-09-04T09:51:58Z</time>
      </trkpt>
      <trkpt lat="47.07712" lon="-1.74434">
        <ele>54</ele>
        <time>2011-09-04T09:52:00Z</time>
      </trkpt>
      <trkpt lat="47.07717" lon="-1.74427">
        <ele>54</ele>
        <time>2011-09-04T09:52:02Z</time>
      </trkpt>
      <trkpt lat="47.07723" lon="-1.7442">
        <ele>54</ele>
        <time>2011-09-04T09:52:04Z</time>
      </trkpt>
      <trkpt lat="47.07728" lon="-1.74414">
        <ele>54</ele>
        <time>2011-09-04T09:52:06Z</time>
      </trkpt>
      <trkpt lat="47.07735" lon="-1.74408">
        <ele>54</ele>
        <time>2011-09-04T09:52:08Z</time>
      </trkpt>
      <trkpt lat="47.07741" lon="-1.74401">
        <ele>54</ele>
        <time>2011-09-04T09:52:10Z</time>
      </trkpt>
      <trkpt lat="47.07747" lon="-1.74393">
        <ele>54</ele>
        <time>2011-09-04T09:52:12Z</time>
      </trkpt>
      <trkpt lat="47.07753" lon="-1.74386">
        <ele>54</ele>
        <time>2011-09-04T09:52:14Z</time>
      </trkpt>
      <trkpt lat="47.0776" lon="-1.74379">
        <ele>55</ele>
        <time>2011-09-04T09:52:16Z</time>
      </trkpt>
      <trkpt lat="47.07766" lon="-1.74371">
        <ele>55</ele>
        <time>2011-09-04T09:52:18Z</time>
      </trkpt>
      <trkpt lat="47.07771" lon="-1.74364">
        <ele>55</ele>
        <time>2011-09-04T09:52:20Z</time>
      </trkpt>
      <trkpt lat="47.07777" lon="-1.74356">
        <ele>55</ele>
        <time>2011-09-04T09:52:22Z</time>
      </trkpt>
      <trkpt lat="47.07784" lon="-1.74349">
        <ele>55</ele>
        <time>2011-09-04T09:52:24Z</time>
      </trkpt>
      <trkpt lat="47.0779" lon="-1.74342">
        <ele>55</ele>
        <time>2011-09-04T09:52:26Z</time>
      </trkpt>
      <trkpt lat="47.07797" lon="-1.74335">
        <ele>55</ele>
        <time>2011-09-04T09:52:28Z</time>
      </trkpt>
      <trkpt lat="47.07803" lon="-1.74327">
        <ele>55</ele>
        <time>2011-09-04T09:52:30Z</time>
      </trkpt>
      <trkpt lat="47.0781" lon="-1.7432">
        <ele>55</ele>
        <time>2011-09-04T09:52:32Z</time>
      </trkpt>
      <trkpt lat="47.07815" lon="-1.74313">
        <ele>56</ele>
        <time>2011-09-04T09:52:34Z</time>
      </trkpt>
      <trkpt lat="47.07821" lon="-1.74305">
        <ele>56</ele>
        <time>2011-09-04T09:52:36Z</time>
      </trkpt>
      <trkpt lat="47.07827" lon="-1.74298">
        <ele>56</ele>
        <time>2011-09-04T09:52:38Z</time>
      </trkpt>
      <trkpt lat="47.07832" lon="-1.74291">
        <ele>56</ele>
        <time>2011-09-04T09:52:40Z</time>
      </trkpt>
      <trkpt lat="47.0784" lon="-1.74283">
        <ele>56</ele>
        <time>2011-09-04T09:52:42Z</time>
      </trkpt>
      <trkpt lat="47.07845" lon="-1.74275">
        <ele>56</ele>
        <time>2011-09-04T09:52:44Z</time>
      </trkpt>
      <trkpt lat="47.07852" lon="-1.74268">
        <ele>56</ele>
        <time>2011-09-04T09:52:46Z</time>
      </trkpt>
      <trkpt lat="47.07859" lon="-1.7426">
        <ele>56</ele>
        <time>2011-09-04T09:52:48Z</time>
      </trkpt>
      <trkpt lat="47.07865" lon="-1.74252">
        <ele>56</ele>
        <time>2011-09-04T09:52:50Z</time>
      </trkpt>
      <trkpt lat="47.07871" lon="-1.74244">
        <ele>56</ele>
        <time>2011-09-04T09:52:52Z</time>
      </trkpt>
      <trkpt lat="47.07878" lon="-1.74237">
        <ele>56</ele>
        <time>2011-09-04T09:52:54Z</time>
      </trkpt>
      <trkpt lat="47.07884" lon="-1.74229">
        <ele>56</ele>
        <time>2011-09-04T09:52:56Z</time>
      </trkpt>
      <trkpt lat="47.07889" lon="-1.74222">
        <ele>56</ele>
        <time>2011-09-04T09:52:58Z</time>
      </trkpt>
      <trkpt lat="47.07896" lon="-1.74215">
        <ele>55</ele>
        <time>2011-09-04T09:53:00Z</time>
      </trkpt>
      <trkpt lat="47.07902" lon="-1.74209">
        <ele>55</ele>
        <time>2011-09-04T09:53:02Z</time>
      </trkpt>
      <trkpt lat="47.07907" lon="-1.74203">
        <ele>55</ele>
        <time>2011-09-04T09:53:04Z</time>
      </trkpt>
      <trkpt lat="47.07914" lon="-1.74196">
        <ele>55</ele>
        <time>2011-09-04T09:53:06Z</time>
      </trkpt>
      <trkpt lat="47.0792" lon="-1.74188">
        <ele>55</ele>
        <time>2011-09-04T09:53:08Z</time>
      </trkpt>
      <trkpt lat="47.07924" lon="-1.74185">
        <ele>55</ele>
        <time>2011-09-04T09:53:09Z</time>
      </trkpt>
      <trkpt lat="47.0793" lon="-1.74177">
        <ele>54</ele>
        <time>2011-09-04T09:53:11Z</time>
      </trkpt>
      <trkpt lat="47.07937" lon="-1.74168">
        <ele>54</ele>
        <time>2011-09-04T09:53:13Z</time>
      </trkpt>
      <trkpt lat="47.07944" lon="-1.74159">
        <ele>54</ele>
        <time>2011-09-04T09:53:15Z</time>
      </trkpt>
      <trkpt lat="47.07948" lon="-1.74155">
        <ele>54</ele>
        <time>2011-09-04T09:53:16Z</time>
      </trkpt>
      <trkpt lat="47.07952" lon="-1.7415">
        <ele>54</ele>
        <time>2011-09-04T09:53:17Z</time>
      </trkpt>
      <trkpt lat="47.07997" lon="-1.74095">
        <ele>54</ele>
        <time>2011-09-04T09:53:31Z</time>
      </trkpt>
      <trkpt lat="47.08001" lon="-1.74089">
        <ele>54</ele>
        <time>2011-09-04T09:53:32Z</time>
      </trkpt>
      <trkpt lat="47.08005" lon="-1.74086">
        <ele>53</ele>
        <time>2011-09-04T09:53:33Z</time>
      </trkpt>
      <trkpt lat="47.08012" lon="-1.74077">
        <ele>53</ele>
        <time>2011-09-04T09:53:35Z</time>
      </trkpt>
      <trkpt lat="47.08016" lon="-1.74073">
        <ele>53</ele>
        <time>2011-09-04T09:53:36Z</time>
      </trkpt>
      <trkpt lat="47.08019" lon="-1.74068">
        <ele>53</ele>
        <time>2011-09-04T09:53:37Z</time>
      </trkpt>
      <trkpt lat="47.08024" lon="-1.74064">
        <ele>53</ele>
        <time>2011-09-04T09:53:38Z</time>
      </trkpt>
      <trkpt lat="47.08027" lon="-1.74059">
        <ele>52</ele>
        <time>2011-09-04T09:53:39Z</time>
      </trkpt>
      <trkpt lat="47.08034" lon="-1.74051">
        <ele>52</ele>
        <time>2011-09-04T09:53:41Z</time>
      </trkpt>
      <trkpt lat="47.08037" lon="-1.74047">
        <ele>52</ele>
        <time>2011-09-04T09:53:42Z</time>
      </trkpt>
      <trkpt lat="47.08044" lon="-1.7404">
        <ele>52</ele>
        <time>2011-09-04T09:53:44Z</time>
      </trkpt>
      <trkpt lat="47.08048" lon="-1.74035">
        <ele>51</ele>
        <time>2011-09-04T09:53:46Z</time>
      </trkpt>
      <trkpt lat="47.08051" lon="-1.7403">
        <ele>52</ele>
        <time>2011-09-04T09:53:53Z</time>
      </trkpt>
      <trkpt lat="47.08054" lon="-1.74025">
        <ele>52</ele>
        <time>2011-09-04T09:53:55Z</time>
      </trkpt>
      <trkpt lat="47.08058" lon="-1.74018">
        <ele>52</ele>
        <time>2011-09-04T09:53:57Z</time>
      </trkpt>
      <trkpt lat="47.08063" lon="-1.74012">
        <ele>52</ele>
        <time>2011-09-04T09:53:59Z</time>
      </trkpt>
      <trkpt lat="47.0807" lon="-1.74005">
        <ele>51</ele>
        <time>2011-09-04T09:54:01Z</time>
      </trkpt>
      <trkpt lat="47.08076" lon="-1.73998">
        <ele>51</ele>
        <time>2011-09-04T09:54:03Z</time>
      </trkpt>
      <trkpt lat="47.08082" lon="-1.73991">
        <ele>51</ele>
        <time>2011-09-04T09:54:05Z</time>
      </trkpt>
      <trkpt lat="47.08088" lon="-1.73984">
        <ele>51</ele>
        <time>2011-09-04T09:54:07Z</time>
      </trkpt>
      <trkpt lat="47.08094" lon="-1.73976">
        <ele>51</ele>
        <time>2011-09-04T09:54:09Z</time>
      </trkpt>
      <trkpt lat="47.081" lon="-1.73969">
        <ele>50</ele>
        <time>2011-09-04T09:54:11Z</time>
      </trkpt>
      <trkpt lat="47.08107" lon="-1.73962">
        <ele>50</ele>
        <time>2011-09-04T09:54:13Z</time>
      </trkpt>
      <trkpt lat="47.08112" lon="-1.73955">
        <ele>50</ele>
        <time>2011-09-04T09:54:15Z</time>
      </trkpt>
      <trkpt lat="47.08119" lon="-1.73947">
        <ele>50</ele>
        <time>2011-09-04T09:54:17Z</time>
      </trkpt>
      <trkpt lat="47.08125" lon="-1.7394">
        <ele>50</ele>
        <time>2011-09-04T09:54:19Z</time>
      </trkpt>
      <trkpt lat="47.08131" lon="-1.73932">
        <ele>49</ele>
        <time>2011-09-04T09:54:21Z</time>
      </trkpt>
      <trkpt lat="47.08137" lon="-1.73924">
        <ele>49</ele>
        <time>2011-09-04T09:54:23Z</time>
      </trkpt>
      <trkpt lat="47.08143" lon="-1.73918">
        <ele>49</ele>
        <time>2011-09-04T09:54:25Z</time>
      </trkpt>
      <trkpt lat="47.08146" lon="-1.73913">
        <ele>49</ele>
        <time>2011-09-04T09:54:26Z</time>
      </trkpt>
      <trkpt lat="47.08153" lon="-1.73906">
        <ele>49</ele>
        <time>2011-09-04T09:54:28Z</time>
      </trkpt>
      <trkpt lat="47.08159" lon="-1.73899">
        <ele>49</ele>
        <time>2011-09-04T09:54:30Z</time>
      </trkpt>
      <trkpt lat="47.08165" lon="-1.73891">
        <ele>49</ele>
        <time>2011-09-04T09:54:32Z</time>
      </trkpt>
      <trkpt lat="47.0817" lon="-1.73884">
        <ele>49</ele>
        <time>2011-09-04T09:54:34Z</time>
      </trkpt>
      <trkpt lat="47.08174" lon="-1.73881">
        <ele>48</ele>
        <time>2011-09-04T09:54:35Z</time>
      </trkpt>
      <trkpt lat="47.0818" lon="-1.73875">
        <ele>48</ele>
        <time>2011-09-04T09:54:37Z</time>
      </trkpt>
      <trkpt lat="47.08187" lon="-1.73869">
        <ele>48</ele>
        <time>2011-09-04T09:54:39Z</time>
      </trkpt>
      <trkpt lat="47.08192" lon="-1.73862">
        <ele>47</ele>
        <time>2011-09-04T09:54:41Z</time>
      </trkpt>
      <trkpt lat="47.08196" lon="-1.73854">
        <ele>48</ele>
        <time>2011-09-04T09:54:43Z</time>
      </trkpt>
      <trkpt lat="47.08202" lon="-1.73847">
        <ele>48</ele>
        <time>2011-09-04T09:54:45Z</time>
      </trkpt>
      <trkpt lat="47.08207" lon="-1.7384">
        <ele>48</ele>
        <time>2011-09-04T09:54:47Z</time>
      </trkpt>
      <trkpt lat="47.08213" lon="-1.73832">
        <ele>48</ele>
        <time>2011-09-04T09:54:49Z</time>
      </trkpt>
      <trkpt lat="47.08219" lon="-1.73824">
        <ele>48</ele>
        <time>2011-09-04T09:54:51Z</time>
      </trkpt>
      <trkpt lat="47.08225" lon="-1.73817">
        <ele>48</ele>
        <time>2011-09-04T09:54:53Z</time>
      </trkpt>
      <trkpt lat="47.08231" lon="-1.73809">
        <ele>48</ele>
        <time>2011-09-04T09:54:55Z</time>
      </trkpt>
      <trkpt lat="47.08237" lon="-1.73801">
        <ele>48</ele>
        <time>2011-09-04T09:54:57Z</time>
      </trkpt>
      <trkpt lat="47.08243" lon="-1.73793">
        <ele>48</ele>
        <time>2011-09-04T09:54:59Z</time>
      </trkpt>
      <trkpt lat="47.08249" lon="-1.73785">
        <ele>49</ele>
        <time>2011-09-04T09:55:01Z</time>
      </trkpt>
      <trkpt lat="47.08255" lon="-1.73778">
        <ele>48</ele>
        <time>2011-09-04T09:55:03Z</time>
      </trkpt>
      <trkpt lat="47.08262" lon="-1.7377">
        <ele>48</ele>
        <time>2011-09-04T09:55:05Z</time>
      </trkpt>
      <trkpt lat="47.08268" lon="-1.73763">
        <ele>47</ele>
        <time>2011-09-04T09:55:07Z</time>
      </trkpt>
      <trkpt lat="47.08274" lon="-1.73754">
        <ele>47</ele>
        <time>2011-09-04T09:55:09Z</time>
      </trkpt>
      <trkpt lat="47.0828" lon="-1.73746">
        <ele>47</ele>
        <time>2011-09-04T09:55:11Z</time>
      </trkpt>
      <trkpt lat="47.08286" lon="-1.73738">
        <ele>48</ele>
        <time>2011-09-04T09:55:13Z</time>
      </trkpt>
      <trkpt lat="47.08293" lon="-1.7373">
        <ele>48</ele>
        <time>2011-09-04T09:55:15Z</time>
      </trkpt>
      <trkpt lat="47.08299" lon="-1.73722">
        <ele>48</ele>
        <time>2011-09-04T09:55:17Z</time>
      </trkpt>
      <trkpt lat="47.08305" lon="-1.73715">
        <ele>48</ele>
        <time>2011-09-04T09:55:19Z</time>
      </trkpt>
      <trkpt lat="47.08312" lon="-1.73707">
        <ele>48</ele>
        <time>2011-09-04T09:55:21Z</time>
      </trkpt>
      <trkpt lat="47.08318" lon="-1.73699">
        <ele>47</ele>
        <time>2011-09-04T09:55:23Z</time>
      </trkpt>
      <trkpt lat="47.08323" lon="-1.73691">
        <ele>48</ele>
        <time>2011-09-04T09:55:25Z</time>
      </trkpt>
      <trkpt lat="47.08329" lon="-1.73684">
        <ele>47</ele>
        <time>2011-09-04T09:55:27Z</time>
      </trkpt>
      <trkpt lat="47.08336" lon="-1.73676">
        <ele>47</ele>
        <time>2011-09-04T09:55:29Z</time>
      </trkpt>
      <trkpt lat="47.08341" lon="-1.73669">
        <ele>48</ele>
        <time>2011-09-04T09:55:31Z</time>
      </trkpt>
      <trkpt lat="47.08347" lon="-1.73662">
        <ele>48</ele>
        <time>2011-09-04T09:55:33Z</time>
      </trkpt>
      <trkpt lat="47.08354" lon="-1.73654">
        <ele>48</ele>
        <time>2011-09-04T09:55:35Z</time>
      </trkpt>
      <trkpt lat="47.08361" lon="-1.73645">
        <ele>48</ele>
        <time>2011-09-04T09:55:37Z</time>
      </trkpt>
      <trkpt lat="47.08367" lon="-1.73636">
        <ele>48</ele>
        <time>2011-09-04T09:55:39Z</time>
      </trkpt>
      <trkpt lat="47.08374" lon="-1.73628">
        <ele>48</ele>
        <time>2011-09-04T09:55:41Z</time>
      </trkpt>
      <trkpt lat="47.08381" lon="-1.7362">
        <ele>48</ele>
        <time>2011-09-04T09:55:43Z</time>
      </trkpt>
      <trkpt lat="47.08387" lon="-1.73613">
        <ele>48</ele>
        <time>2011-09-04T09:55:45Z</time>
      </trkpt>
      <trkpt lat="47.08393" lon="-1.73604">
        <ele>48</ele>
        <time>2011-09-04T09:55:47Z</time>
      </trkpt>
      <trkpt lat="47.08399" lon="-1.73596">
        <ele>48</ele>
        <time>2011-09-04T09:55:49Z</time>
      </trkpt>
      <trkpt lat="47.08404" lon="-1.73587">
        <ele>48</ele>
        <time>2011-09-04T09:55:51Z</time>
      </trkpt>
      <trkpt lat="47.0841" lon="-1.73579">
        <ele>48</ele>
        <time>2011-09-04T09:55:53Z</time>
      </trkpt>
      <trkpt lat="47.08416" lon="-1.73572">
        <ele>49</ele>
        <time>2011-09-04T09:55:55Z</time>
      </trkpt>
      <trkpt lat="47.08422" lon="-1.73564">
        <ele>49</ele>
        <time>2011-09-04T09:55:57Z</time>
      </trkpt>
      <trkpt lat="47.08428" lon="-1.73557">
        <ele>49</ele>
        <time>2011-09-04T09:55:59Z</time>
      </trkpt>
      <trkpt lat="47.08434" lon="-1.73549">
        <ele>49</ele>
        <time>2011-09-04T09:56:01Z</time>
      </trkpt>
      <trkpt lat="47.0844" lon="-1.73541">
        <ele>49</ele>
        <time>2011-09-04T09:56:03Z</time>
      </trkpt>
      <trkpt lat="47.08446" lon="-1.73534">
        <ele>49</ele>
        <time>2011-09-04T09:56:05Z</time>
      </trkpt>
      <trkpt lat="47.08452" lon="-1.73526">
        <ele>49</ele>
        <time>2011-09-04T09:56:07Z</time>
      </trkpt>
      <trkpt lat="47.08458" lon="-1.73519">
        <ele>49</ele>
        <time>2011-09-04T09:56:09Z</time>
      </trkpt>
      <trkpt lat="47.08464" lon="-1.73512">
        <ele>48</ele>
        <time>2011-09-04T09:56:11Z</time>
      </trkpt>
      <trkpt lat="47.0847" lon="-1.73504">
        <ele>49</ele>
        <time>2011-09-04T09:56:13Z</time>
      </trkpt>
      <trkpt lat="47.08476" lon="-1.73497">
        <ele>49</ele>
        <time>2011-09-04T09:56:15Z</time>
      </trkpt>
      <trkpt lat="47.08483" lon="-1.73491">
        <ele>49</ele>
        <time>2011-09-04T09:56:17Z</time>
      </trkpt>
      <trkpt lat="47.08489" lon="-1.73484">
        <ele>49</ele>
        <time>2011-09-04T09:56:19Z</time>
      </trkpt>
      <trkpt lat="47.08494" lon="-1.73476">
        <ele>49</ele>
        <time>2011-09-04T09:56:21Z</time>
      </trkpt>
      <trkpt lat="47.08499" lon="-1.7347">
        <ele>49</ele>
        <time>2011-09-04T09:56:23Z</time>
      </trkpt>
      <trkpt lat="47.08505" lon="-1.73463">
        <ele>49</ele>
        <time>2011-09-04T09:56:25Z</time>
      </trkpt>
      <trkpt lat="47.08512" lon="-1.73455">
        <ele>48</ele>
        <time>2011-09-04T09:56:27Z</time>
      </trkpt>
      <trkpt lat="47.08518" lon="-1.73448">
        <ele>49</ele>
        <time>2011-09-04T09:56:29Z</time>
      </trkpt>
      <trkpt lat="47.08524" lon="-1.73441">
        <ele>48</ele>
        <time>2011-09-04T09:56:31Z</time>
      </trkpt>
      <trkpt lat="47.0853" lon="-1.73434">
        <ele>48</ele>
        <time>2011-09-04T09:56:33Z</time>
      </trkpt>
      <trkpt lat="47.08536" lon="-1.73427">
        <ele>48</ele>
        <time>2011-09-04T09:56:35Z</time>
      </trkpt>
      <trkpt lat="47.08543" lon="-1.7342">
        <ele>48</ele>
        <time>2011-09-04T09:56:37Z</time>
      </trkpt>
      <trkpt lat="47.08549" lon="-1.73413">
        <ele>48</ele>
        <time>2011-09-04T09:56:39Z</time>
      </trkpt>
      <trkpt lat="47.08555" lon="-1.73406">
        <ele>48</ele>
        <time>2011-09-04T09:56:41Z</time>
      </trkpt>
      <trkpt lat="47.0856" lon="-1.734">
        <ele>48</ele>
        <time>2011-09-04T09:56:43Z</time>
      </trkpt>
      <trkpt lat="47.08566" lon="-1.73393">
        <ele>48</ele>
        <time>2011-09-04T09:56:45Z</time>
      </trkpt>
      <trkpt lat="47.08572" lon="-1.73386">
        <ele>48</ele>
        <time>2011-09-04T09:56:47Z</time>
      </trkpt>
      <trkpt lat="47.08578" lon="-1.7338">
        <ele>48</ele>
        <time>2011-09-04T09:56:49Z</time>
      </trkpt>
      <trkpt lat="47.08584" lon="-1.73373">
        <ele>48</ele>
        <time>2011-09-04T09:56:51Z</time>
      </trkpt>
      <trkpt lat="47.0859" lon="-1.73367">
        <ele>48</ele>
        <time>2011-09-04T09:56:53Z</time>
      </trkpt>
      <trkpt lat="47.08596" lon="-1.7336">
        <ele>48</ele>
        <time>2011-09-04T09:56:55Z</time>
      </trkpt>
      <trkpt lat="47.08602" lon="-1.73354">
        <ele>48</ele>
        <time>2011-09-04T09:56:57Z</time>
      </trkpt>
      <trkpt lat="47.08608" lon="-1.73346">
        <ele>47</ele>
        <time>2011-09-04T09:56:59Z</time>
      </trkpt>
      <trkpt lat="47.08614" lon="-1.73339">
        <ele>47</ele>
        <time>2011-09-04T09:57:01Z</time>
      </trkpt>
      <trkpt lat="47.0862" lon="-1.73332">
        <ele>47</ele>
        <time>2011-09-04T09:57:03Z</time>
      </trkpt>
      <trkpt lat="47.08626" lon="-1.73326">
        <ele>47</ele>
        <time>2011-09-04T09:57:05Z</time>
      </trkpt>
      <trkpt lat="47.08632" lon="-1.7332">
        <ele>47</ele>
        <time>2011-09-04T09:57:07Z</time>
      </trkpt>
      <trkpt lat="47.08638" lon="-1.73314">
        <ele>47</ele>
        <time>2011-09-04T09:57:09Z</time>
      </trkpt>
      <trkpt lat="47.08644" lon="-1.73307">
        <ele>47</ele>
        <time>2011-09-04T09:57:11Z</time>
      </trkpt>
      <trkpt lat="47.0865" lon="-1.73299">
        <ele>47</ele>
        <time>2011-09-04T09:57:13Z</time>
      </trkpt>
      <trkpt lat="47.08655" lon="-1.73292">
        <ele>47</ele>
        <time>2011-09-04T09:57:15Z</time>
      </trkpt>
      <trkpt lat="47.08661" lon="-1.73285">
        <ele>47</ele>
        <time>2011-09-04T09:57:17Z</time>
      </trkpt>
      <trkpt lat="47.08667" lon="-1.73279">
        <ele>47</ele>
        <time>2011-09-04T09:57:19Z</time>
      </trkpt>
      <trkpt lat="47.08672" lon="-1.73273">
        <ele>47</ele>
        <time>2011-09-04T09:57:21Z</time>
      </trkpt>
      <trkpt lat="47.08678" lon="-1.73267">
        <ele>47</ele>
        <time>2011-09-04T09:57:23Z</time>
      </trkpt>
      <trkpt lat="47.08683" lon="-1.73259">
        <ele>47</ele>
        <time>2011-09-04T09:57:25Z</time>
      </trkpt>
      <trkpt lat="47.08689" lon="-1.73253">
        <ele>47</ele>
        <time>2011-09-04T09:57:27Z</time>
      </trkpt>
      <trkpt lat="47.08695" lon="-1.73246">
        <ele>47</ele>
        <time>2011-09-04T09:57:29Z</time>
      </trkpt>
      <trkpt lat="47.087" lon="-1.73239">
        <ele>47</ele>
        <time>2011-09-04T09:57:31Z</time>
      </trkpt>
      <trkpt lat="47.08706" lon="-1.73233">
        <ele>47</ele>
        <time>2011-09-04T09:57:33Z</time>
      </trkpt>
      <trkpt lat="47.08712" lon="-1.73226">
        <ele>47</ele>
        <time>2011-09-04T09:57:35Z</time>
      </trkpt>
      <trkpt lat="47.08718" lon="-1.7322">
        <ele>47</ele>
        <time>2011-09-04T09:57:37Z</time>
      </trkpt>
      <trkpt lat="47.08723" lon="-1.73214">
        <ele>47</ele>
        <time>2011-09-04T09:57:39Z</time>
      </trkpt>
      <trkpt lat="47.08729" lon="-1.73207">
        <ele>47</ele>
        <time>2011-09-04T09:57:41Z</time>
      </trkpt>
      <trkpt lat="47.08735" lon="-1.73201">
        <ele>47</ele>
        <time>2011-09-04T09:57:43Z</time>
      </trkpt>
      <trkpt lat="47.0874" lon="-1.73196">
        <ele>48</ele>
        <time>2011-09-04T09:57:45Z</time>
      </trkpt>
      <trkpt lat="47.08746" lon="-1.7319">
        <ele>47</ele>
        <time>2011-09-04T09:57:47Z</time>
      </trkpt>
      <trkpt lat="47.08752" lon="-1.73184">
        <ele>47</ele>
        <time>2011-09-04T09:57:49Z</time>
      </trkpt>
      <trkpt lat="47.08758" lon="-1.73178">
        <ele>47</ele>
        <time>2011-09-04T09:57:51Z</time>
      </trkpt>
      <trkpt lat="47.08763" lon="-1.73171">
        <ele>47</ele>
        <time>2011-09-04T09:57:53Z</time>
      </trkpt>
      <trkpt lat="47.08769" lon="-1.73166">
        <ele>47</ele>
        <time>2011-09-04T09:57:55Z</time>
      </trkpt>
      <trkpt lat="47.08774" lon="-1.73159">
        <ele>47</ele>
        <time>2011-09-04T09:57:57Z</time>
      </trkpt>
      <trkpt lat="47.0878" lon="-1.73153">
        <ele>47</ele>
        <time>2011-09-04T09:57:59Z</time>
      </trkpt>
      <trkpt lat="47.08785" lon="-1.73147">
        <ele>47</ele>
        <time>2011-09-04T09:58:01Z</time>
      </trkpt>
      <trkpt lat="47.08791" lon="-1.73141">
        <ele>47</ele>
        <time>2011-09-04T09:58:03Z</time>
      </trkpt>
      <trkpt lat="47.08796" lon="-1.73134">
        <ele>47</ele>
        <time>2011-09-04T09:58:05Z</time>
      </trkpt>
      <trkpt lat="47.08801" lon="-1.73128">
        <ele>47</ele>
        <time>2011-09-04T09:58:07Z</time>
      </trkpt>
      <trkpt lat="47.08806" lon="-1.73123">
        <ele>47</ele>
        <time>2011-09-04T09:58:09Z</time>
      </trkpt>
      <trkpt lat="47.0881" lon="-1.73117">
        <ele>47</ele>
        <time>2011-09-04T09:58:11Z</time>
      </trkpt>
      <trkpt lat="47.08815" lon="-1.73112">
        <ele>47</ele>
        <time>2011-09-04T09:58:13Z</time>
      </trkpt>
      <trkpt lat="47.08821" lon="-1.73107">
        <ele>47</ele>
        <time>2011-09-04T09:58:15Z</time>
      </trkpt>
      <trkpt lat="47.08826" lon="-1.73102">
        <ele>47</ele>
        <time>2011-09-04T09:58:17Z</time>
      </trkpt>
      <trkpt lat="47.0883" lon="-1.73096">
        <ele>47</ele>
        <time>2011-09-04T09:58:19Z</time>
      </trkpt>
      <trkpt lat="47.08835" lon="-1.73092">
        <ele>47</ele>
        <time>2011-09-04T09:58:21Z</time>
      </trkpt>
      <trkpt lat="47.08839" lon="-1.73087">
        <ele>47</ele>
        <time>2011-09-04T09:58:23Z</time>
      </trkpt>
      <trkpt lat="47.08845" lon="-1.73085">
        <ele>47</ele>
        <time>2011-09-04T09:58:26Z</time>
      </trkpt>
      <trkpt lat="47.0885" lon="-1.73092">
        <ele>47</ele>
        <time>2011-09-04T09:58:29Z</time>
      </trkpt>
      <trkpt lat="47.08853" lon="-1.73098">
        <ele>48</ele>
        <time>2011-09-04T09:58:31Z</time>
      </trkpt>
      <trkpt lat="47.08857" lon="-1.73105">
        <ele>48</ele>
        <time>2011-09-04T09:58:33Z</time>
      </trkpt>
      <trkpt lat="47.08861" lon="-1.73113">
        <ele>48</ele>
        <time>2011-09-04T09:58:35Z</time>
      </trkpt>
      <trkpt lat="47.08865" lon="-1.7312">
        <ele>48</ele>
        <time>2011-09-04T09:58:37Z</time>
      </trkpt>
      <trkpt lat="47.08868" lon="-1.73128">
        <ele>48</ele>
        <time>2011-09-04T09:58:39Z</time>
      </trkpt>
      <trkpt lat="47.08872" lon="-1.73136">
        <ele>48</ele>
        <time>2011-09-04T09:58:41Z</time>
      </trkpt>
      <trkpt lat="47.08875" lon="-1.73144">
        <ele>48</ele>
        <time>2011-09-04T09:58:43Z</time>
      </trkpt>
      <trkpt lat="47.0888" lon="-1.73152">
        <ele>48</ele>
        <time>2011-09-04T09:58:45Z</time>
      </trkpt>
      <trkpt lat="47.08884" lon="-1.7316">
        <ele>48</ele>
        <time>2011-09-04T09:58:47Z</time>
      </trkpt>
      <trkpt lat="47.08888" lon="-1.73168">
        <ele>48</ele>
        <time>2011-09-04T09:58:49Z</time>
      </trkpt>
      <trkpt lat="47.08893" lon="-1.73175">
        <ele>48</ele>
        <time>2011-09-04T09:58:51Z</time>
      </trkpt>
      <trkpt lat="47.08898" lon="-1.73181">
        <ele>48</ele>
        <time>2011-09-04T09:58:53Z</time>
      </trkpt>
      <trkpt lat="47.08904" lon="-1.73186">
        <ele>48</ele>
        <time>2011-09-04T09:58:55Z</time>
      </trkpt>
      <trkpt lat="47.0891" lon="-1.73192">
        <ele>49</ele>
        <time>2011-09-04T09:58:57Z</time>
      </trkpt>
      <trkpt lat="47.08917" lon="-1.73197">
        <ele>48</ele>
        <time>2011-09-04T09:58:59Z</time>
      </trkpt>
      <trkpt lat="47.08924" lon="-1.732">
        <ele>48</ele>
        <time>2011-09-04T09:59:01Z</time>
      </trkpt>
      <trkpt lat="47.08932" lon="-1.73205">
        <ele>48</ele>
        <time>2011-09-04T09:59:03Z</time>
      </trkpt>
      <trkpt lat="47.08939" lon="-1.73208">
        <ele>48</ele>
        <time>2011-09-04T09:59:05Z</time>
      </trkpt>
      <trkpt lat="47.08946" lon="-1.73212">
        <ele>48</ele>
        <time>2011-09-04T09:59:07Z</time>
      </trkpt>
      <trkpt lat="47.08953" lon="-1.73217">
        <ele>48</ele>
        <time>2011-09-04T09:59:09Z</time>
      </trkpt>
      <trkpt lat="47.0896" lon="-1.73222">
        <ele>48</ele>
        <time>2011-09-04T09:59:11Z</time>
      </trkpt>
      <trkpt lat="47.08967" lon="-1.73227">
        <ele>48</ele>
        <time>2011-09-04T09:59:13Z</time>
      </trkpt>
      <trkpt lat="47.08974" lon="-1.73232">
        <ele>48</ele>
        <time>2011-09-04T09:59:15Z</time>
      </trkpt>
      <trkpt lat="47.0898" lon="-1.73236">
        <ele>48</ele>
        <time>2011-09-04T09:59:17Z</time>
      </trkpt>
      <trkpt lat="47.08992" lon="-1.73245">
        <ele>49</ele>
        <time>2011-09-04T09:59:21Z</time>
      </trkpt>
      <trkpt lat="47.08997" lon="-1.73251">
        <ele>49</ele>
        <time>2011-09-04T09:59:23Z</time>
      </trkpt>
      <trkpt lat="47.09001" lon="-1.73258">
        <ele>49</ele>
        <time>2011-09-04T09:59:25Z</time>
      </trkpt>
      <trkpt lat="47.09006" lon="-1.73266">
        <ele>49</ele>
        <time>2011-09-04T09:59:27Z</time>
      </trkpt>
      <trkpt lat="47.09011" lon="-1.73272">
        <ele>49</ele>
        <time>2011-09-04T09:59:29Z</time>
      </trkpt>
      <trkpt lat="47.09015" lon="-1.7328">
        <ele>49</ele>
        <time>2011-09-04T09:59:31Z</time>
      </trkpt>
      <trkpt lat="47.0902" lon="-1.73288">
        <ele>49</ele>
        <time>2011-09-04T09:59:33Z</time>
      </trkpt>
      <trkpt lat="47.09024" lon="-1.73297">
        <ele>49</ele>
        <time>2011-09-04T09:59:35Z</time>
      </trkpt>
      <trkpt lat="47.09027" lon="-1.73306">
        <ele>49</ele>
        <time>2011-09-04T09:59:37Z</time>
      </trkpt>
      <trkpt lat="47.09031" lon="-1.73313">
        <ele>49</ele>
        <time>2011-09-04T09:59:39Z</time>
      </trkpt>
      <trkpt lat="47.09035" lon="-1.73321">
        <ele>49</ele>
        <time>2011-09-04T09:59:41Z</time>
      </trkpt>
      <trkpt lat="47.0904" lon="-1.73329">
        <ele>49</ele>
        <time>2011-09-04T09:59:43Z</time>
      </trkpt>
      <trkpt lat="47.09044" lon="-1.73337">
        <ele>50</ele>
        <time>2011-09-04T09:59:45Z</time>
      </trkpt>
      <trkpt lat="47.09048" lon="-1.73342">
        <ele>51</ele>
        <time>2011-09-04T09:59:47Z</time>
      </trkpt>
      <trkpt lat="47.09053" lon="-1.73343">
        <ele>52</ele>
        <time>2011-09-04T09:59:49Z</time>
      </trkpt>
      <trkpt lat="47.09059" lon="-1.7334">
        <ele>53</ele>
        <time>2011-09-04T09:59:52Z</time>
      </trkpt>
      <trkpt lat="47.09065" lon="-1.73337">
        <ele>53</ele>
        <time>2011-09-04T09:59:54Z</time>
      </trkpt>
      <trkpt lat="47.0907" lon="-1.73333">
        <ele>54</ele>
        <time>2011-09-04T09:59:56Z</time>
      </trkpt>
      <trkpt lat="47.09075" lon="-1.73328">
        <ele>54</ele>
        <time>2011-09-04T09:59:59Z</time>
      </trkpt>
      <trkpt lat="47.09082" lon="-1.73323">
        <ele>56</ele>
        <time>2011-09-04T10:00:01Z</time>
      </trkpt>
      <trkpt lat="47.09089" lon="-1.73316">
        <ele>57</ele>
        <time>2011-09-04T10:00:03Z</time>
      </trkpt>
      <trkpt lat="47.09098" lon="-1.73309">
        <ele>58</ele>
        <time>2011-09-04T10:00:05Z</time>
      </trkpt>
      <trkpt lat="47.09106" lon="-1.73303">
        <ele>58</ele>
        <time>2011-09-04T10:00:07Z</time>
      </trkpt>
      <trkpt lat="47.0911" lon="-1.733">
        <ele>58</ele>
        <time>2011-09-04T10:00:08Z</time>
      </trkpt>
      <trkpt lat="47.09115" lon="-1.73296">
        <ele>58</ele>
        <time>2011-09-04T10:00:09Z</time>
      </trkpt>
      <trkpt lat="47.09119" lon="-1.73293">
        <ele>58</ele>
        <time>2011-09-04T10:00:10Z</time>
      </trkpt>
      <trkpt lat="47.09128" lon="-1.73287">
        <ele>58</ele>
        <time>2011-09-04T10:00:12Z</time>
      </trkpt>
      <trkpt lat="47.09136" lon="-1.7328">
        <ele>58</ele>
        <time>2011-09-04T10:00:14Z</time>
      </trkpt>
      <trkpt lat="47.0914" lon="-1.73277">
        <ele>57</ele>
        <time>2011-09-04T10:00:15Z</time>
      </trkpt>
      <trkpt lat="47.09145" lon="-1.73273">
        <ele>57</ele>
        <time>2011-09-04T10:00:16Z</time>
      </trkpt>
      <trkpt lat="47.0915" lon="-1.7327">
        <ele>57</ele>
        <time>2011-09-04T10:00:17Z</time>
      </trkpt>
      <trkpt lat="47.09154" lon="-1.73266">
        <ele>58</ele>
        <time>2011-09-04T10:00:18Z</time>
      </trkpt>
      <trkpt lat="47.09162" lon="-1.7326">
        <ele>57</ele>
        <time>2011-09-04T10:00:20Z</time>
      </trkpt>
      <trkpt lat="47.09168" lon="-1.73257">
        <ele>57</ele>
        <time>2011-09-04T10:00:21Z</time>
      </trkpt>
      <trkpt lat="47.09172" lon="-1.73255">
        <ele>56</ele>
        <time>2011-09-04T10:00:22Z</time>
      </trkpt>
      <trkpt lat="47.09177" lon="-1.73251">
        <ele>56</ele>
        <time>2011-09-04T10:00:23Z</time>
      </trkpt>
      <trkpt lat="47.09185" lon="-1.73245">
        <ele>55</ele>
        <time>2011-09-04T10:00:25Z</time>
      </trkpt>
      <trkpt lat="47.09193" lon="-1.73239">
        <ele>54</ele>
        <time>2011-09-04T10:00:27Z</time>
      </trkpt>
      <trkpt lat="47.09199" lon="-1.73235">
        <ele>54</ele>
        <time>2011-09-04T10:00:29Z</time>
      </trkpt>
      <trkpt lat="47.09206" lon="-1.73232">
        <ele>55</ele>
        <time>2011-09-04T10:00:31Z</time>
      </trkpt>
      <trkpt lat="47.09213" lon="-1.73226">
        <ele>56</ele>
        <time>2011-09-04T10:00:33Z</time>
      </trkpt>
      <trkpt lat="47.0922" lon="-1.7322">
        <ele>57</ele>
        <time>2011-09-04T10:00:35Z</time>
      </trkpt>
      <trkpt lat="47.09226" lon="-1.73216">
        <ele>57</ele>
        <time>2011-09-04T10:00:37Z</time>
      </trkpt>
      <trkpt lat="47.0923" lon="-1.73211">
        <ele>58</ele>
        <time>2011-09-04T10:00:39Z</time>
      </trkpt>
      <trkpt lat="47.09238" lon="-1.73204">
        <ele>59</ele>
        <time>2011-09-04T10:00:41Z</time>
      </trkpt>
      <trkpt lat="47.09244" lon="-1.73197">
        <ele>60</ele>
        <time>2011-09-04T10:00:43Z</time>
      </trkpt>
      <trkpt lat="47.09252" lon="-1.73191">
        <ele>61</ele>
        <time>2011-09-04T10:00:45Z</time>
      </trkpt>
      <trkpt lat="47.0926" lon="-1.73184">
        <ele>61</ele>
        <time>2011-09-04T10:00:47Z</time>
      </trkpt>
      <trkpt lat="47.09264" lon="-1.7318">
        <ele>61</ele>
        <time>2011-09-04T10:00:48Z</time>
      </trkpt>
      <trkpt lat="47.09271" lon="-1.73173">
        <ele>61</ele>
        <time>2011-09-04T10:00:50Z</time>
      </trkpt>
      <trkpt lat="47.09276" lon="-1.73168">
        <ele>61</ele>
        <time>2011-09-04T10:00:51Z</time>
      </trkpt>
      <trkpt lat="47.0928" lon="-1.73163">
        <ele>61</ele>
        <time>2011-09-04T10:00:52Z</time>
      </trkpt>
      <trkpt lat="47.09286" lon="-1.73158">
        <ele>61</ele>
        <time>2011-09-04T10:00:53Z</time>
      </trkpt>
      <trkpt lat="47.09291" lon="-1.73155">
        <ele>61</ele>
        <time>2011-09-04T10:00:54Z</time>
      </trkpt>
      <trkpt lat="47.09296" lon="-1.7315">
        <ele>60</ele>
        <time>2011-09-04T10:00:55Z</time>
      </trkpt>
      <trkpt lat="47.09302" lon="-1.73147">
        <ele>60</ele>
        <time>2011-09-04T10:00:56Z</time>
      </trkpt>
      <trkpt lat="47.09308" lon="-1.73142">
        <ele>60</ele>
        <time>2011-09-04T10:00:57Z</time>
      </trkpt>
      <trkpt lat="47.09313" lon="-1.73138">
        <ele>60</ele>
        <time>2011-09-04T10:00:58Z</time>
      </trkpt>
      <trkpt lat="47.09319" lon="-1.73134">
        <ele>60</ele>
        <time>2011-09-04T10:00:59Z</time>
      </trkpt>
      <trkpt lat="47.09324" lon="-1.7313">
        <ele>60</ele>
        <time>2011-09-04T10:01:00Z</time>
      </trkpt>
      <trkpt lat="47.09328" lon="-1.73127">
        <ele>60</ele>
        <time>2011-09-04T10:01:01Z</time>
      </trkpt>
      <trkpt lat="47.09334" lon="-1.73124">
        <ele>60</ele>
        <time>2011-09-04T10:01:02Z</time>
      </trkpt>
      <trkpt lat="47.09338" lon="-1.73121">
        <ele>61</ele>
        <time>2011-09-04T10:01:03Z</time>
      </trkpt>
      <trkpt lat="47.09345" lon="-1.73114">
        <ele>61</ele>
        <time>2011-09-04T10:01:05Z</time>
      </trkpt>
      <trkpt lat="47.0935" lon="-1.73109">
        <ele>61</ele>
        <time>2011-09-04T10:01:06Z</time>
      </trkpt>
      <trkpt lat="47.09357" lon="-1.731">
        <ele>62</ele>
        <time>2011-09-04T10:01:08Z</time>
      </trkpt>
      <trkpt lat="47.0936" lon="-1.73096">
        <ele>62</ele>
        <time>2011-09-04T10:01:09Z</time>
      </trkpt>
      <trkpt lat="47.09364" lon="-1.73091">
        <ele>62</ele>
        <time>2011-09-04T10:01:10Z</time>
      </trkpt>
      <trkpt lat="47.09368" lon="-1.73086">
        <ele>62</ele>
        <time>2011-09-04T10:01:11Z</time>
      </trkpt>
      <trkpt lat="47.0937" lon="-1.7308">
        <ele>62</ele>
        <time>2011-09-04T10:01:12Z</time>
      </trkpt>
      <trkpt lat="47.09374" lon="-1.73073">
        <ele>61</ele>
        <time>2011-09-04T10:01:13Z</time>
      </trkpt>
      <trkpt lat="47.09376" lon="-1.73066">
        <ele>61</ele>
        <time>2011-09-04T10:01:14Z</time>
      </trkpt>
      <trkpt lat="47.09379" lon="-1.73059">
        <ele>60</ele>
        <time>2011-09-04T10:01:15Z</time>
      </trkpt>
      <trkpt lat="47.0938" lon="-1.73052">
        <ele>60</ele>
        <time>2011-09-04T10:01:16Z</time>
      </trkpt>
      <trkpt lat="47.09382" lon="-1.73045">
        <ele>60</ele>
        <time>2011-09-04T10:01:17Z</time>
      </trkpt>
      <trkpt lat="47.09383" lon="-1.73038">
        <ele>59</ele>
        <time>2011-09-04T10:01:18Z</time>
      </trkpt>
      <trkpt lat="47.09384" lon="-1.73024">
        <ele>58</ele>
        <time>2011-09-04T10:01:20Z</time>
      </trkpt>
      <trkpt lat="47.09384" lon="-1.73018">
        <ele>58</ele>
        <time>2011-09-04T10:01:21Z</time>
      </trkpt>
      <trkpt lat="47.09385" lon="-1.73005">
        <ele>58</ele>
        <time>2011-09-04T10:01:23Z</time>
      </trkpt>
      <trkpt lat="47.09386" lon="-1.72998">
        <ele>58</ele>
        <time>2011-09-04T10:01:24Z</time>
      </trkpt>
      <trkpt lat="47.09387" lon="-1.72991">
        <ele>58</ele>
        <time>2011-09-04T10:01:25Z</time>
      </trkpt>
      <trkpt lat="47.09389" lon="-1.72984">
        <ele>58</ele>
        <time>2011-09-04T10:01:26Z</time>
      </trkpt>
      <trkpt lat="47.0939" lon="-1.72977">
        <ele>58</ele>
        <time>2011-09-04T10:01:27Z</time>
      </trkpt>
      <trkpt lat="47.09392" lon="-1.7297">
        <ele>58</ele>
        <time>2011-09-04T10:01:28Z</time>
      </trkpt>
      <trkpt lat="47.09394" lon="-1.72963">
        <ele>58</ele>
        <time>2011-09-04T10:01:29Z</time>
      </trkpt>
      <trkpt lat="47.09396" lon="-1.72956">
        <ele>58</ele>
        <time>2011-09-04T10:01:30Z</time>
      </trkpt>
      <trkpt lat="47.09399" lon="-1.7295">
        <ele>58</ele>
        <time>2011-09-04T10:01:31Z</time>
      </trkpt>
      <trkpt lat="47.09402" lon="-1.72943">
        <ele>58</ele>
        <time>2011-09-04T10:01:32Z</time>
      </trkpt>
      <trkpt lat="47.09404" lon="-1.72938">
        <ele>58</ele>
        <time>2011-09-04T10:01:33Z</time>
      </trkpt>
      <trkpt lat="47.09408" lon="-1.72932">
        <ele>58</ele>
        <time>2011-09-04T10:01:34Z</time>
      </trkpt>
      <trkpt lat="47.0941" lon="-1.72926">
        <ele>58</ele>
        <time>2011-09-04T10:01:35Z</time>
      </trkpt>
      <trkpt lat="47.09413" lon="-1.7292">
        <ele>58</ele>
        <time>2011-09-04T10:01:36Z</time>
      </trkpt>
      <trkpt lat="47.09417" lon="-1.72911">
        <ele>58</ele>
        <time>2011-09-04T10:01:38Z</time>
      </trkpt>
      <trkpt lat="47.09422" lon="-1.72905">
        <ele>59</ele>
        <time>2011-09-04T10:01:40Z</time>
      </trkpt>
      <trkpt lat="47.09431" lon="-1.72902">
        <ele>60</ele>
        <time>2011-09-04T10:01:42Z</time>
      </trkpt>
      <trkpt lat="47.09439" lon="-1.72904">
        <ele>59</ele>
        <time>2011-09-04T10:01:44Z</time>
      </trkpt>
      <trkpt lat="47.09444" lon="-1.72905">
        <ele>59</ele>
        <time>2011-09-04T10:01:45Z</time>
      </trkpt>
      <trkpt lat="47.09448" lon="-1.72908">
        <ele>59</ele>
        <time>2011-09-04T10:01:46Z</time>
      </trkpt>
      <trkpt lat="47.09453" lon="-1.7291">
        <ele>59</ele>
        <time>2011-09-04T10:01:47Z</time>
      </trkpt>
      <trkpt lat="47.09457" lon="-1.72912">
        <ele>58</ele>
        <time>2011-09-04T10:01:48Z</time>
      </trkpt>
      <trkpt lat="47.09462" lon="-1.72914">
        <ele>58</ele>
        <time>2011-09-04T10:01:49Z</time>
      </trkpt>
      <trkpt lat="47.0947" lon="-1.72918">
        <ele>58</ele>
        <time>2011-09-04T10:01:51Z</time>
      </trkpt>
      <trkpt lat="47.09475" lon="-1.7292">
        <ele>57</ele>
        <time>2011-09-04T10:01:52Z</time>
      </trkpt>
      <trkpt lat="47.09479" lon="-1.72922">
        <ele>57</ele>
        <time>2011-09-04T10:01:53Z</time>
      </trkpt>
      <trkpt lat="47.09487" lon="-1.72926">
        <ele>57</ele>
        <time>2011-09-04T10:01:55Z</time>
      </trkpt>
      <trkpt lat="47.09492" lon="-1.72928">
        <ele>57</ele>
        <time>2011-09-04T10:01:56Z</time>
      </trkpt>
      <trkpt lat="47.09496" lon="-1.7293">
        <ele>56</ele>
        <time>2011-09-04T10:01:57Z</time>
      </trkpt>
      <trkpt lat="47.09504" lon="-1.72933">
        <ele>57</ele>
        <time>2011-09-04T10:01:59Z</time>
      </trkpt>
      <trkpt lat="47.09511" lon="-1.72938">
        <ele>57</ele>
        <time>2011-09-04T10:02:01Z</time>
      </trkpt>
      <trkpt lat="47.09518" lon="-1.72941">
        <ele>58</ele>
        <time>2011-09-04T10:02:03Z</time>
      </trkpt>
      <trkpt lat="47.09526" lon="-1.72944">
        <ele>58</ele>
        <time>2011-09-04T10:02:05Z</time>
      </trkpt>
      <trkpt lat="47.0953" lon="-1.72946">
        <ele>58</ele>
        <time>2011-09-04T10:02:06Z</time>
      </trkpt>
      <trkpt lat="47.09537" lon="-1.72949">
        <ele>59</ele>
        <time>2011-09-04T10:02:08Z</time>
      </trkpt>
      <trkpt lat="47.09541" lon="-1.72951">
        <ele>59</ele>
        <time>2011-09-04T10:02:09Z</time>
      </trkpt>
      <trkpt lat="47.09549" lon="-1.72954">
        <ele>59</ele>
        <time>2011-09-04T10:02:11Z</time>
      </trkpt>
      <trkpt lat="47.09557" lon="-1.72957">
        <ele>58</ele>
        <time>2011-09-04T10:02:13Z</time>
      </trkpt>
      <trkpt lat="47.09566" lon="-1.7296">
        <ele>58</ele>
        <time>2011-09-04T10:02:15Z</time>
      </trkpt>
      <trkpt lat="47.09574" lon="-1.72962">
        <ele>58</ele>
        <time>2011-09-04T10:02:17Z</time>
      </trkpt>
      <trkpt lat="47.09582" lon="-1.72962">
        <ele>58</ele>
        <time>2011-09-04T10:02:19Z</time>
      </trkpt>
      <trkpt lat="47.09591" lon="-1.72963">
        <ele>58</ele>
        <time>2011-09-04T10:02:21Z</time>
      </trkpt>
      <trkpt lat="47.09596" lon="-1.72965">
        <ele>58</ele>
        <time>2011-09-04T10:02:22Z</time>
      </trkpt>
      <trkpt lat="47.096" lon="-1.72968">
        <ele>57</ele>
        <time>2011-09-04T10:02:23Z</time>
      </trkpt>
      <trkpt lat="47.09604" lon="-1.7297">
        <ele>57</ele>
        <time>2011-09-04T10:02:24Z</time>
      </trkpt>
      <trkpt lat="47.09609" lon="-1.72974">
        <ele>57</ele>
        <time>2011-09-04T10:02:25Z</time>
      </trkpt>
      <trkpt lat="47.09615" lon="-1.72982">
        <ele>57</ele>
        <time>2011-09-04T10:02:27Z</time>
      </trkpt>
      <trkpt lat="47.09618" lon="-1.72988">
        <ele>57</ele>
        <time>2011-09-04T10:02:28Z</time>
      </trkpt>
      <trkpt lat="47.09619" lon="-1.72994">
        <ele>57</ele>
        <time>2011-09-04T10:02:29Z</time>
      </trkpt>
      <trkpt lat="47.09622" lon="-1.73">
        <ele>57</ele>
        <time>2011-09-04T10:02:30Z</time>
      </trkpt>
      <trkpt lat="47.09623" lon="-1.73007">
        <ele>56</ele>
        <time>2011-09-04T10:02:31Z</time>
      </trkpt>
      <trkpt lat="47.09624" lon="-1.73014">
        <ele>56</ele>
        <time>2011-09-04T10:02:32Z</time>
      </trkpt>
      <trkpt lat="47.09626" lon="-1.73021">
        <ele>56</ele>
        <time>2011-09-04T10:02:33Z</time>
      </trkpt>
      <trkpt lat="47.09627" lon="-1.73027">
        <ele>56</ele>
        <time>2011-09-04T10:02:34Z</time>
      </trkpt>
      <trkpt lat="47.09628" lon="-1.73034">
        <ele>56</ele>
        <time>2011-09-04T10:02:35Z</time>
      </trkpt>
      <trkpt lat="47.09628" lon="-1.7304">
        <ele>56</ele>
        <time>2011-09-04T10:02:36Z</time>
      </trkpt>
      <trkpt lat="47.0963" lon="-1.73046">
        <ele>56</ele>
        <time>2011-09-04T10:02:37Z</time>
      </trkpt>
      <trkpt lat="47.09632" lon="-1.73053">
        <ele>56</ele>
        <time>2011-09-04T10:02:38Z</time>
      </trkpt>
      <trkpt lat="47.09633" lon="-1.73059">
        <ele>56</ele>
        <time>2011-09-04T10:02:39Z</time>
      </trkpt>
      <trkpt lat="47.09636" lon="-1.73065">
        <ele>56</ele>
        <time>2011-09-04T10:02:40Z</time>
      </trkpt>
      <trkpt lat="47.09638" lon="-1.73071">
        <ele>56</ele>
        <time>2011-09-04T10:02:41Z</time>
      </trkpt>
      <trkpt lat="47.09641" lon="-1.73076">
        <ele>56</ele>
        <time>2011-09-04T10:02:42Z</time>
      </trkpt>
      <trkpt lat="47.09647" lon="-1.73086">
        <ele>56</ele>
        <time>2011-09-04T10:02:44Z</time>
      </trkpt>
      <trkpt lat="47.0965" lon="-1.73089">
        <ele>56</ele>
        <time>2011-09-04T10:02:45Z</time>
      </trkpt>
      <trkpt lat="47.09654" lon="-1.73094">
        <ele>56</ele>
        <time>2011-09-04T10:02:46Z</time>
      </trkpt>
      <trkpt lat="47.09657" lon="-1.731">
        <ele>57</ele>
        <time>2011-09-04T10:02:47Z</time>
      </trkpt>
      <trkpt lat="47.09661" lon="-1.73103">
        <ele>57</ele>
        <time>2011-09-04T10:02:48Z</time>
      </trkpt>
      <trkpt lat="47.09665" lon="-1.73107">
        <ele>58</ele>
        <time>2011-09-04T10:02:49Z</time>
      </trkpt>
      <trkpt lat="47.09669" lon="-1.7311">
        <ele>58</ele>
        <time>2011-09-04T10:02:50Z</time>
      </trkpt>
      <trkpt lat="47.09674" lon="-1.73114">
        <ele>57</ele>
        <time>2011-09-04T10:02:51Z</time>
      </trkpt>
      <trkpt lat="47.09678" lon="-1.73116">
        <ele>57</ele>
        <time>2011-09-04T10:02:52Z</time>
      </trkpt>
      <trkpt lat="47.09683" lon="-1.7312">
        <ele>57</ele>
        <time>2011-09-04T10:02:53Z</time>
      </trkpt>
      <trkpt lat="47.09688" lon="-1.73122">
        <ele>57</ele>
        <time>2011-09-04T10:02:54Z</time>
      </trkpt>
      <trkpt lat="47.09692" lon="-1.73125">
        <ele>57</ele>
        <time>2011-09-04T10:02:55Z</time>
      </trkpt>
      <trkpt lat="47.09697" lon="-1.73127">
        <ele>57</ele>
        <time>2011-09-04T10:02:56Z</time>
      </trkpt>
      <trkpt lat="47.09702" lon="-1.73129">
        <ele>57</ele>
        <time>2011-09-04T10:02:57Z</time>
      </trkpt>
      <trkpt lat="47.09706" lon="-1.73132">
        <ele>57</ele>
        <time>2011-09-04T10:02:58Z</time>
      </trkpt>
      <trkpt lat="47.09711" lon="-1.73134">
        <ele>57</ele>
        <time>2011-09-04T10:02:59Z</time>
      </trkpt>
      <trkpt lat="47.09715" lon="-1.73136">
        <ele>57</ele>
        <time>2011-09-04T10:03:00Z</time>
      </trkpt>
      <trkpt lat="47.09724" lon="-1.73137">
        <ele>57</ele>
        <time>2011-09-04T10:03:02Z</time>
      </trkpt>
      <trkpt lat="47.09733" lon="-1.73139">
        <ele>56</ele>
        <time>2011-09-04T10:03:04Z</time>
      </trkpt>
      <trkpt lat="47.09738" lon="-1.7314">
        <ele>56</ele>
        <time>2011-09-04T10:03:06Z</time>
      </trkpt>
      <trkpt lat="47.09744" lon="-1.73141">
        <ele>55</ele>
        <time>2011-09-04T10:03:09Z</time>
      </trkpt>
      <trkpt lat="47.09744" lon="-1.73141">
        <ele>55</ele>
        <time>2011-09-04T10:03:09Z</time>
      </trkpt>
      <trkpt lat="47.09744" lon="-1.73141">
        <ele>56</ele>
        <time>2011-09-04T10:03:10Z</time>
      </trkpt>
      <trkpt lat="47.09749" lon="-1.73144">
        <ele>55</ele>
        <time>2011-09-04T10:03:23Z</time>
      </trkpt>
      <trkpt lat="47.09752" lon="-1.73152">
        <ele>55</ele>
        <time>2011-09-04T10:03:26Z</time>
      </trkpt>
      <trkpt lat="47.09754" lon="-1.73159">
        <ele>55</ele>
        <time>2011-09-04T10:03:28Z</time>
      </trkpt>
      <trkpt lat="47.09758" lon="-1.73168">
        <ele>55</ele>
        <time>2011-09-04T10:03:30Z</time>
      </trkpt>
      <trkpt lat="47.09762" lon="-1.73176">
        <ele>55</ele>
        <time>2011-09-04T10:03:32Z</time>
      </trkpt>
      <trkpt lat="47.09765" lon="-1.73183">
        <ele>55</ele>
        <time>2011-09-04T10:03:34Z</time>
      </trkpt>
      <trkpt lat="47.09769" lon="-1.73191">
        <ele>55</ele>
        <time>2011-09-04T10:03:36Z</time>
      </trkpt>
      <trkpt lat="47.09773" lon="-1.73198">
        <ele>55</ele>
        <time>2011-09-04T10:03:38Z</time>
      </trkpt>
      <trkpt lat="47.09777" lon="-1.73206">
        <ele>55</ele>
        <time>2011-09-04T10:03:40Z</time>
      </trkpt>
      <trkpt lat="47.09781" lon="-1.73213">
        <ele>55</ele>
        <time>2011-09-04T10:03:42Z</time>
      </trkpt>
      <trkpt lat="47.09784" lon="-1.73219">
        <ele>56</ele>
        <time>2011-09-04T10:03:44Z</time>
      </trkpt>
      <trkpt lat="47.09789" lon="-1.73226">
        <ele>56</ele>
        <time>2011-09-04T10:03:46Z</time>
      </trkpt>
      <trkpt lat="47.09795" lon="-1.7323">
        <ele>56</ele>
        <time>2011-09-04T10:03:48Z</time>
      </trkpt>
      <trkpt lat="47.09801" lon="-1.73233">
        <ele>56</ele>
        <time>2011-09-04T10:03:50Z</time>
      </trkpt>
      <trkpt lat="47.09809" lon="-1.73234">
        <ele>57</ele>
        <time>2011-09-04T10:03:52Z</time>
      </trkpt>
      <trkpt lat="47.09816" lon="-1.73237">
        <ele>57</ele>
        <time>2011-09-04T10:03:54Z</time>
      </trkpt>
      <trkpt lat="47.09823" lon="-1.7324">
        <ele>57</ele>
        <time>2011-09-04T10:03:56Z</time>
      </trkpt>
      <trkpt lat="47.09829" lon="-1.73243">
        <ele>58</ele>
        <time>2011-09-04T10:03:58Z</time>
      </trkpt>
      <trkpt lat="47.09834" lon="-1.73247">
        <ele>58</ele>
        <time>2011-09-04T10:04:00Z</time>
      </trkpt>
      <trkpt lat="47.09839" lon="-1.7325">
        <ele>59</ele>
        <time>2011-09-04T10:04:02Z</time>
      </trkpt>
      <trkpt lat="47.09844" lon="-1.73254">
        <ele>59</ele>
        <time>2011-09-04T10:04:04Z</time>
      </trkpt>
      <trkpt lat="47.0985" lon="-1.73258">
        <ele>60</ele>
        <time>2011-09-04T10:04:06Z</time>
      </trkpt>
      <trkpt lat="47.09854" lon="-1.73264">
        <ele>61</ele>
        <time>2011-09-04T10:04:08Z</time>
      </trkpt>
      <trkpt lat="47.09857" lon="-1.7327">
        <ele>62</ele>
        <time>2011-09-04T10:04:10Z</time>
      </trkpt>
      <trkpt lat="47.0986" lon="-1.73278">
        <ele>62</ele>
        <time>2011-09-04T10:04:12Z</time>
      </trkpt>
      <trkpt lat="47.09862" lon="-1.73286">
        <ele>62</ele>
        <time>2011-09-04T10:04:14Z</time>
      </trkpt>
      <trkpt lat="47.09863" lon="-1.73293">
        <ele>63</ele>
        <time>2011-09-04T10:04:16Z</time>
      </trkpt>
      <trkpt lat="47.09865" lon="-1.73301">
        <ele>63</ele>
        <time>2011-09-04T10:04:18Z</time>
      </trkpt>
      <trkpt lat="47.09867" lon="-1.73309">
        <ele>63</ele>
        <time>2011-09-04T10:04:20Z</time>
      </trkpt>
      <trkpt lat="47.09868" lon="-1.73317">
        <ele>63</ele>
        <time>2011-09-04T10:04:22Z</time>
      </trkpt>
      <trkpt lat="47.09869" lon="-1.73326">
        <ele>63</ele>
        <time>2011-09-04T10:04:24Z</time>
      </trkpt>
      <trkpt lat="47.09872" lon="-1.73336">
        <ele>63</ele>
        <time>2011-09-04T10:04:26Z</time>
      </trkpt>
      <trkpt lat="47.09875" lon="-1.73347">
        <ele>63</ele>
        <time>2011-09-04T10:04:28Z</time>
      </trkpt>
      <trkpt lat="47.09878" lon="-1.73357">
        <ele>64</ele>
        <time>2011-09-04T10:04:30Z</time>
      </trkpt>
      <trkpt lat="47.09882" lon="-1.73365">
        <ele>65</ele>
        <time>2011-09-04T10:04:32Z</time>
      </trkpt>
      <trkpt lat="47.09888" lon="-1.73374">
        <ele>66</ele>
        <time>2011-09-04T10:04:34Z</time>
      </trkpt>
      <trkpt lat="47.09892" lon="-1.73384">
        <ele>66</ele>
        <time>2011-09-04T10:04:36Z</time>
      </trkpt>
      <trkpt lat="47.09895" lon="-1.73393">
        <ele>66</ele>
        <time>2011-09-04T10:04:38Z</time>
      </trkpt>
      <trkpt lat="47.09898" lon="-1.73399">
        <ele>66</ele>
        <time>2011-09-04T10:04:40Z</time>
      </trkpt>
      <trkpt lat="47.09902" lon="-1.73404">
        <ele>68</ele>
        <time>2011-09-04T10:04:43Z</time>
      </trkpt>
      <trkpt lat="47.09908" lon="-1.73403">
        <ele>70</ele>
        <time>2011-09-04T10:04:47Z</time>
      </trkpt>
      <trkpt lat="47.09912" lon="-1.73398">
        <ele>72</ele>
        <time>2011-09-04T10:04:51Z</time>
      </trkpt>
      <trkpt lat="47.09916" lon="-1.73391">
        <ele>72</ele>
        <time>2011-09-04T10:04:54Z</time>
      </trkpt>
      <trkpt lat="47.0992" lon="-1.73386">
        <ele>73</ele>
        <time>2011-09-04T10:04:57Z</time>
      </trkpt>
      <trkpt lat="47.09925" lon="-1.73383">
        <ele>74</ele>
        <time>2011-09-04T10:04:58Z</time>
      </trkpt>
      <trkpt lat="47.09935" lon="-1.73379">
        <ele>76</ele>
        <time>2011-09-04T10:05:00Z</time>
      </trkpt>
      <trkpt lat="47.09942" lon="-1.73376">
        <ele>77</ele>
        <time>2011-09-04T10:05:02Z</time>
      </trkpt>
      <trkpt lat="47.09946" lon="-1.73372">
        <ele>76</ele>
        <time>2011-09-04T10:05:03Z</time>
      </trkpt>
      <trkpt lat="47.09953" lon="-1.73367">
        <ele>75</ele>
        <time>2011-09-04T10:05:05Z</time>
      </trkpt>
      <trkpt lat="47.09961" lon="-1.73364">
        <ele>74</ele>
        <time>2011-09-04T10:05:07Z</time>
      </trkpt>
      <trkpt lat="47.0997" lon="-1.7336">
        <ele>74</ele>
        <time>2011-09-04T10:05:09Z</time>
      </trkpt>
      <trkpt lat="47.09974" lon="-1.73359">
        <ele>74</ele>
        <time>2011-09-04T10:05:10Z</time>
      </trkpt>
      <trkpt lat="47.0998" lon="-1.73356">
        <ele>73</ele>
        <time>2011-09-04T10:05:12Z</time>
      </trkpt>
      <trkpt lat="47.09985" lon="-1.73354">
        <ele>73</ele>
        <time>2011-09-04T10:05:15Z</time>
      </trkpt>
      <trkpt lat="47.09991" lon="-1.73352">
        <ele>73</ele>
        <time>2011-09-04T10:05:21Z</time>
      </trkpt>
      <trkpt lat="47.09994" lon="-1.73346">
        <ele>74</ele>
        <time>2011-09-04T10:05:35Z</time>
      </trkpt>
      <trkpt lat="47.09991" lon="-1.7334">
        <ele>73</ele>
        <time>2011-09-04T10:05:39Z</time>
      </trkpt>
      <trkpt lat="47.09986" lon="-1.73335">
        <ele>76</ele>
        <time>2011-09-04T10:05:43Z</time>
      </trkpt>
      <trkpt lat="47.09999" lon="-1.7334">
        <ele>78</ele>
        <time>2011-09-04T10:06:04Z</time>
      </trkpt>
      <trkpt lat="47.10003" lon="-1.73344">
        <ele>78</ele>
        <time>2011-09-04T10:06:05Z</time>
      </trkpt>
      <trkpt lat="47.1001" lon="-1.73347">
        <ele>78</ele>
        <time>2011-09-04T10:06:07Z</time>
      </trkpt>
      <trkpt lat="47.10018" lon="-1.73351">
        <ele>78</ele>
        <time>2011-09-04T10:06:09Z</time>
      </trkpt>
      <trkpt lat="47.10023" lon="-1.73353">
        <ele>78</ele>
        <time>2011-09-04T10:06:10Z</time>
      </trkpt>
      <trkpt lat="47.10029" lon="-1.73355">
        <ele>78</ele>
        <time>2011-09-04T10:06:11Z</time>
      </trkpt>
      <trkpt lat="47.10035" lon="-1.73357">
        <ele>78</ele>
        <time>2011-09-04T10:06:12Z</time>
      </trkpt>
      <trkpt lat="47.10041" lon="-1.73359">
        <ele>78</ele>
        <time>2011-09-04T10:06:13Z</time>
      </trkpt>
      <trkpt lat="47.10046" lon="-1.7336">
        <ele>78</ele>
        <time>2011-09-04T10:06:14Z</time>
      </trkpt>
      <trkpt lat="47.10052" lon="-1.73361">
        <ele>78</ele>
        <time>2011-09-04T10:06:15Z</time>
      </trkpt>
      <trkpt lat="47.10058" lon="-1.73362">
        <ele>78</ele>
        <time>2011-09-04T10:06:16Z</time>
      </trkpt>
      <trkpt lat="47.10064" lon="-1.73363">
        <ele>78</ele>
        <time>2011-09-04T10:06:17Z</time>
      </trkpt>
      <trkpt lat="47.1007" lon="-1.73364">
        <ele>78</ele>
        <time>2011-09-04T10:06:18Z</time>
      </trkpt>
      <trkpt lat="47.10075" lon="-1.73365">
        <ele>79</ele>
        <time>2011-09-04T10:06:19Z</time>
      </trkpt>
      <trkpt lat="47.10081" lon="-1.73366">
        <ele>79</ele>
        <time>2011-09-04T10:06:20Z</time>
      </trkpt>
      <trkpt lat="47.10087" lon="-1.73366">
        <ele>79</ele>
        <time>2011-09-04T10:06:21Z</time>
      </trkpt>
      <trkpt lat="47.10092" lon="-1.73367">
        <ele>79</ele>
        <time>2011-09-04T10:06:22Z</time>
      </trkpt>
      <trkpt lat="47.10097" lon="-1.73367">
        <ele>79</ele>
        <time>2011-09-04T10:06:23Z</time>
      </trkpt>
      <trkpt lat="47.10102" lon="-1.73366">
        <ele>79</ele>
        <time>2011-09-04T10:06:24Z</time>
      </trkpt>
      <trkpt lat="47.10106" lon="-1.73366">
        <ele>80</ele>
        <time>2011-09-04T10:06:25Z</time>
      </trkpt>
      <trkpt lat="47.10115" lon="-1.73366">
        <ele>80</ele>
        <time>2011-09-04T10:06:27Z</time>
      </trkpt>
      <trkpt lat="47.1012" lon="-1.73367">
        <ele>80</ele>
        <time>2011-09-04T10:06:28Z</time>
      </trkpt>
      <trkpt lat="47.10128" lon="-1.73368">
        <ele>81</ele>
        <time>2011-09-04T10:06:30Z</time>
      </trkpt>
      <trkpt lat="47.10133" lon="-1.73369">
        <ele>81</ele>
        <time>2011-09-04T10:06:31Z</time>
      </trkpt>
      <trkpt lat="47.10138" lon="-1.7337">
        <ele>81</ele>
        <time>2011-09-04T10:06:32Z</time>
      </trkpt>
      <trkpt lat="47.10143" lon="-1.73372">
        <ele>81</ele>
        <time>2011-09-04T10:06:33Z</time>
      </trkpt>
      <trkpt lat="47.10148" lon="-1.73373">
        <ele>82</ele>
        <time>2011-09-04T10:06:34Z</time>
      </trkpt>
      <trkpt lat="47.10154" lon="-1.73374">
        <ele>82</ele>
        <time>2011-09-04T10:06:35Z</time>
      </trkpt>
      <trkpt lat="47.1016" lon="-1.73375">
        <ele>82</ele>
        <time>2011-09-04T10:06:36Z</time>
      </trkpt>
      <trkpt lat="47.10166" lon="-1.73375">
        <ele>82</ele>
        <time>2011-09-04T10:06:37Z</time>
      </trkpt>
      <trkpt lat="47.10171" lon="-1.73374">
        <ele>82</ele>
        <time>2011-09-04T10:06:38Z</time>
      </trkpt>
      <trkpt lat="47.10177" lon="-1.73373">
        <ele>82</ele>
        <time>2011-09-04T10:06:39Z</time>
      </trkpt>
      <trkpt lat="47.10183" lon="-1.73371">
        <ele>82</ele>
        <time>2011-09-04T10:06:40Z</time>
      </trkpt>
      <trkpt lat="47.10188" lon="-1.73368">
        <ele>82</ele>
        <time>2011-09-04T10:06:41Z</time>
      </trkpt>
      <trkpt lat="47.10193" lon="-1.73364">
        <ele>81</ele>
        <time>2011-09-04T10:06:42Z</time>
      </trkpt>
      <trkpt lat="47.10199" lon="-1.73361">
        <ele>81</ele>
        <time>2011-09-04T10:06:43Z</time>
      </trkpt>
      <trkpt lat="47.10204" lon="-1.73356">
        <ele>81</ele>
        <time>2011-09-04T10:06:44Z</time>
      </trkpt>
      <trkpt lat="47.10208" lon="-1.73353">
        <ele>81</ele>
        <time>2011-09-04T10:06:45Z</time>
      </trkpt>
      <trkpt lat="47.10212" lon="-1.73348">
        <ele>81</ele>
        <time>2011-09-04T10:06:46Z</time>
      </trkpt>
      <trkpt lat="47.10216" lon="-1.73344">
        <ele>80</ele>
        <time>2011-09-04T10:06:47Z</time>
      </trkpt>
      <trkpt lat="47.10221" lon="-1.73339">
        <ele>80</ele>
        <time>2011-09-04T10:06:48Z</time>
      </trkpt>
      <trkpt lat="47.10224" lon="-1.73336">
        <ele>80</ele>
        <time>2011-09-04T10:06:49Z</time>
      </trkpt>
      <trkpt lat="47.10229" lon="-1.73333">
        <ele>80</ele>
        <time>2011-09-04T10:06:50Z</time>
      </trkpt>
      <trkpt lat="47.10237" lon="-1.73328">
        <ele>79</ele>
        <time>2011-09-04T10:06:52Z</time>
      </trkpt>
      <trkpt lat="47.10244" lon="-1.73326">
        <ele>80</ele>
        <time>2011-09-04T10:06:54Z</time>
      </trkpt>
      <trkpt lat="47.10252" lon="-1.73325">
        <ele>80</ele>
        <time>2011-09-04T10:06:56Z</time>
      </trkpt>
      <trkpt lat="47.10259" lon="-1.73324">
        <ele>80</ele>
        <time>2011-09-04T10:06:58Z</time>
      </trkpt>
      <trkpt lat="47.10267" lon="-1.73324">
        <ele>80</ele>
        <time>2011-09-04T10:07:00Z</time>
      </trkpt>
      <trkpt lat="47.10274" lon="-1.73323">
        <ele>80</ele>
        <time>2011-09-04T10:07:02Z</time>
      </trkpt>
      <trkpt lat="47.10281" lon="-1.73323">
        <ele>80</ele>
        <time>2011-09-04T10:07:04Z</time>
      </trkpt>
      <trkpt lat="47.10288" lon="-1.73321">
        <ele>80</ele>
        <time>2011-09-04T10:07:06Z</time>
      </trkpt>
      <trkpt lat="47.10295" lon="-1.7332">
        <ele>81</ele>
        <time>2011-09-04T10:07:08Z</time>
      </trkpt>
      <trkpt lat="47.10301" lon="-1.73317">
        <ele>80</ele>
        <time>2011-09-04T10:07:10Z</time>
      </trkpt>
      <trkpt lat="47.10308" lon="-1.73314">
        <ele>80</ele>
        <time>2011-09-04T10:07:12Z</time>
      </trkpt>
      <trkpt lat="47.10315" lon="-1.7331">
        <ele>80</ele>
        <time>2011-09-04T10:07:14Z</time>
      </trkpt>
      <trkpt lat="47.10322" lon="-1.73308">
        <ele>80</ele>
        <time>2011-09-04T10:07:16Z</time>
      </trkpt>
      <trkpt lat="47.10329" lon="-1.73306">
        <ele>79</ele>
        <time>2011-09-04T10:07:18Z</time>
      </trkpt>
      <trkpt lat="47.10336" lon="-1.73303">
        <ele>79</ele>
        <time>2011-09-04T10:07:20Z</time>
      </trkpt>
      <trkpt lat="47.10344" lon="-1.733">
        <ele>79</ele>
        <time>2011-09-04T10:07:22Z</time>
      </trkpt>
      <trkpt lat="47.10348" lon="-1.73298">
        <ele>79</ele>
        <time>2011-09-04T10:07:23Z</time>
      </trkpt>
      <trkpt lat="47.10355" lon="-1.7329">
        <ele>79</ele>
        <time>2011-09-04T10:07:25Z</time>
      </trkpt>
      <trkpt lat="47.10358" lon="-1.73285">
        <ele>78</ele>
        <time>2011-09-04T10:07:26Z</time>
      </trkpt>
      <trkpt lat="47.10361" lon="-1.73274">
        <ele>78</ele>
        <time>2011-09-04T10:07:28Z</time>
      </trkpt>
      <trkpt lat="47.10366" lon="-1.73263">
        <ele>79</ele>
        <time>2011-09-04T10:07:30Z</time>
      </trkpt>
      <trkpt lat="47.10368" lon="-1.73257">
        <ele>79</ele>
        <time>2011-09-04T10:07:31Z</time>
      </trkpt>
      <trkpt lat="47.10373" lon="-1.73246">
        <ele>79</ele>
        <time>2011-09-04T10:07:33Z</time>
      </trkpt>
      <trkpt lat="47.10375" lon="-1.73241">
        <ele>79</ele>
        <time>2011-09-04T10:07:34Z</time>
      </trkpt>
      <trkpt lat="47.10378" lon="-1.73235">
        <ele>78</ele>
        <time>2011-09-04T10:07:35Z</time>
      </trkpt>
      <trkpt lat="47.10381" lon="-1.7323">
        <ele>78</ele>
        <time>2011-09-04T10:07:36Z</time>
      </trkpt>
      <trkpt lat="47.10384" lon="-1.73225">
        <ele>77</ele>
        <time>2011-09-04T10:07:37Z</time>
      </trkpt>
      <trkpt lat="47.10387" lon="-1.7322">
        <ele>77</ele>
        <time>2011-09-04T10:07:38Z</time>
      </trkpt>
      <trkpt lat="47.10392" lon="-1.73211">
        <ele>76</ele>
        <time>2011-09-04T10:07:40Z</time>
      </trkpt>
      <trkpt lat="47.10397" lon="-1.73202">
        <ele>76</ele>
        <time>2011-09-04T10:07:42Z</time>
      </trkpt>
      <trkpt lat="47.10402" lon="-1.73193">
        <ele>75</ele>
        <time>2011-09-04T10:07:44Z</time>
      </trkpt>
      <trkpt lat="47.10406" lon="-1.73185">
        <ele>75</ele>
        <time>2011-09-04T10:07:46Z</time>
      </trkpt>
      <trkpt lat="47.10408" lon="-1.73178">
        <ele>74</ele>
        <time>2011-09-04T10:07:48Z</time>
      </trkpt>
      <trkpt lat="47.10412" lon="-1.7317">
        <ele>74</ele>
        <time>2011-09-04T10:07:50Z</time>
      </trkpt>
      <trkpt lat="47.10417" lon="-1.73163">
        <ele>73</ele>
        <time>2011-09-04T10:07:52Z</time>
      </trkpt>
      <trkpt lat="47.1042" lon="-1.73155">
        <ele>73</ele>
        <time>2011-09-04T10:07:54Z</time>
      </trkpt>
      <trkpt lat="47.10424" lon="-1.73147">
        <ele>73</ele>
        <time>2011-09-04T10:07:56Z</time>
      </trkpt>
      <trkpt lat="47.10428" lon="-1.73136">
        <ele>73</ele>
        <time>2011-09-04T10:07:58Z</time>
      </trkpt>
      <trkpt lat="47.10432" lon="-1.73126">
        <ele>73</ele>
        <time>2011-09-04T10:08:00Z</time>
      </trkpt>
      <trkpt lat="47.10435" lon="-1.73117">
        <ele>72</ele>
        <time>2011-09-04T10:08:02Z</time>
      </trkpt>
      <trkpt lat="47.10438" lon="-1.73107">
        <ele>72</ele>
        <time>2011-09-04T10:08:04Z</time>
      </trkpt>
      <trkpt lat="47.10441" lon="-1.73097">
        <ele>72</ele>
        <time>2011-09-04T10:08:06Z</time>
      </trkpt>
      <trkpt lat="47.10444" lon="-1.73089">
        <ele>71</ele>
        <time>2011-09-04T10:08:08Z</time>
      </trkpt>
      <trkpt lat="47.10448" lon="-1.73079">
        <ele>72</ele>
        <time>2011-09-04T10:08:10Z</time>
      </trkpt>
      <trkpt lat="47.10451" lon="-1.73069">
        <ele>72</ele>
        <time>2011-09-04T10:08:12Z</time>
      </trkpt>
      <trkpt lat="47.10454" lon="-1.73059">
        <ele>72</ele>
        <time>2011-09-04T10:08:14Z</time>
      </trkpt>
      <trkpt lat="47.10454" lon="-1.7305">
        <ele>72</ele>
        <time>2011-09-04T10:08:16Z</time>
      </trkpt>
      <trkpt lat="47.10455" lon="-1.7304">
        <ele>72</ele>
        <time>2011-09-04T10:08:18Z</time>
      </trkpt>
      <trkpt lat="47.10456" lon="-1.73031">
        <ele>73</ele>
        <time>2011-09-04T10:08:20Z</time>
      </trkpt>
      <trkpt lat="47.10458" lon="-1.73022">
        <ele>73</ele>
        <time>2011-09-04T10:08:22Z</time>
      </trkpt>
      <trkpt lat="47.1046" lon="-1.73014">
        <ele>74</ele>
        <time>2011-09-04T10:08:24Z</time>
      </trkpt>
      <trkpt lat="47.10464" lon="-1.73002">
        <ele>75</ele>
        <time>2011-09-04T10:08:26Z</time>
      </trkpt>
      <trkpt lat="47.10465" lon="-1.72996">
        <ele>75</ele>
        <time>2011-09-04T10:08:27Z</time>
      </trkpt>
      <trkpt lat="47.10468" lon="-1.72989">
        <ele>74</ele>
        <time>2011-09-04T10:08:28Z</time>
      </trkpt>
      <trkpt lat="47.10471" lon="-1.72983">
        <ele>74</ele>
        <time>2011-09-04T10:08:29Z</time>
      </trkpt>
      <trkpt lat="47.10473" lon="-1.72977">
        <ele>74</ele>
        <time>2011-09-04T10:08:30Z</time>
      </trkpt>
      <trkpt lat="47.10476" lon="-1.72971">
        <ele>74</ele>
        <time>2011-09-04T10:08:31Z</time>
      </trkpt>
      <trkpt lat="47.1048" lon="-1.7296">
        <ele>74</ele>
        <time>2011-09-04T10:08:33Z</time>
      </trkpt>
      <trkpt lat="47.10482" lon="-1.72954">
        <ele>74</ele>
        <time>2011-09-04T10:08:34Z</time>
      </trkpt>
      <trkpt lat="47.10486" lon="-1.72945">
        <ele>74</ele>
        <time>2011-09-04T10:08:36Z</time>
      </trkpt>
      <trkpt lat="47.10488" lon="-1.7294">
        <ele>74</ele>
        <time>2011-09-04T10:08:37Z</time>
      </trkpt>
      <trkpt lat="47.10492" lon="-1.7293">
        <ele>74</ele>
        <time>2011-09-04T10:08:39Z</time>
      </trkpt>
      <trkpt lat="47.10496" lon="-1.72919">
        <ele>74</ele>
        <time>2011-09-04T10:08:41Z</time>
      </trkpt>
      <trkpt lat="47.10498" lon="-1.72912">
        <ele>74</ele>
        <time>2011-09-04T10:08:42Z</time>
      </trkpt>
      <trkpt lat="47.10502" lon="-1.72901">
        <ele>75</ele>
        <time>2011-09-04T10:08:44Z</time>
      </trkpt>
      <trkpt lat="47.10506" lon="-1.72895">
        <ele>75</ele>
        <time>2011-09-04T10:08:45Z</time>
      </trkpt>
      <trkpt lat="47.10509" lon="-1.7289">
        <ele>75</ele>
        <time>2011-09-04T10:08:46Z</time>
      </trkpt>
      <trkpt lat="47.10512" lon="-1.72884">
        <ele>75</ele>
        <time>2011-09-04T10:08:47Z</time>
      </trkpt>
      <trkpt lat="47.10515" lon="-1.72874">
        <ele>76</ele>
        <time>2011-09-04T10:08:49Z</time>
      </trkpt>
      <trkpt lat="47.10518" lon="-1.72864">
        <ele>76</ele>
        <time>2011-09-04T10:08:51Z</time>
      </trkpt>
      <trkpt lat="47.10521" lon="-1.72853">
        <ele>77</ele>
        <time>2011-09-04T10:08:53Z</time>
      </trkpt>
      <trkpt lat="47.10522" lon="-1.72843">
        <ele>77</ele>
        <time>2011-09-04T10:08:55Z</time>
      </trkpt>
      <trkpt lat="47.10525" lon="-1.72834">
        <ele>78</ele>
        <time>2011-09-04T10:08:57Z</time>
      </trkpt>
      <trkpt lat="47.10527" lon="-1.72825">
        <ele>79</ele>
        <time>2011-09-04T10:08:59Z</time>
      </trkpt>
      <trkpt lat="47.10529" lon="-1.72815">
        <ele>80</ele>
        <time>2011-09-04T10:09:01Z</time>
      </trkpt>
      <trkpt lat="47.10531" lon="-1.72806">
        <ele>80</ele>
        <time>2011-09-04T10:09:03Z</time>
      </trkpt>
      <trkpt lat="47.1053" lon="-1.72799">
        <ele>81</ele>
        <time>2011-09-04T10:09:05Z</time>
      </trkpt>
      <trkpt lat="47.10531" lon="-1.7279">
        <ele>81</ele>
        <time>2011-09-04T10:09:07Z</time>
      </trkpt>
      <trkpt lat="47.10531" lon="-1.7278">
        <ele>82</ele>
        <time>2011-09-04T10:09:09Z</time>
      </trkpt>
      <trkpt lat="47.1053" lon="-1.7277">
        <ele>83</ele>
        <time>2011-09-04T10:09:11Z</time>
      </trkpt>
      <trkpt lat="47.1053" lon="-1.72762">
        <ele>83</ele>
        <time>2011-09-04T10:09:13Z</time>
      </trkpt>
      <trkpt lat="47.10529" lon="-1.72753">
        <ele>85</ele>
        <time>2011-09-04T10:09:15Z</time>
      </trkpt>
      <trkpt lat="47.10528" lon="-1.72743">
        <ele>84</ele>
        <time>2011-09-04T10:09:17Z</time>
      </trkpt>
      <trkpt lat="47.10531" lon="-1.72735">
        <ele>84</ele>
        <time>2011-09-04T10:09:19Z</time>
      </trkpt>
      <trkpt lat="47.10533" lon="-1.72726">
        <ele>82</ele>
        <time>2011-09-04T10:09:21Z</time>
      </trkpt>
      <trkpt lat="47.10536" lon="-1.72719">
        <ele>82</ele>
        <time>2011-09-04T10:09:23Z</time>
      </trkpt>
      <trkpt lat="47.10538" lon="-1.72712">
        <ele>82</ele>
        <time>2011-09-04T10:09:25Z</time>
      </trkpt>
      <trkpt lat="47.10539" lon="-1.72704">
        <ele>80</ele>
        <time>2011-09-04T10:09:27Z</time>
      </trkpt>
      <trkpt lat="47.10542" lon="-1.72696">
        <ele>77</ele>
        <time>2011-09-04T10:09:29Z</time>
      </trkpt>
      <trkpt lat="47.10545" lon="-1.7269">
        <ele>75</ele>
        <time>2011-09-04T10:09:31Z</time>
      </trkpt>
      <trkpt lat="47.10548" lon="-1.7268">
        <ele>73</ele>
        <time>2011-09-04T10:09:34Z</time>
      </trkpt>
      <trkpt lat="47.10551" lon="-1.72672">
        <ele>73</ele>
        <time>2011-09-04T10:09:36Z</time>
      </trkpt>
      <trkpt lat="47.10553" lon="-1.72663">
        <ele>72</ele>
        <time>2011-09-04T10:09:38Z</time>
      </trkpt>
      <trkpt lat="47.10558" lon="-1.72653">
        <ele>72</ele>
        <time>2011-09-04T10:09:40Z</time>
      </trkpt>
      <trkpt lat="47.10561" lon="-1.72643">
        <ele>72</ele>
        <time>2011-09-04T10:09:42Z</time>
      </trkpt>
      <trkpt lat="47.10565" lon="-1.72633">
        <ele>72</ele>
        <time>2011-09-04T10:09:44Z</time>
      </trkpt>
      <trkpt lat="47.10568" lon="-1.72622">
        <ele>72</ele>
        <time>2011-09-04T10:09:46Z</time>
      </trkpt>
      <trkpt lat="47.10572" lon="-1.72611">
        <ele>72</ele>
        <time>2011-09-04T10:09:48Z</time>
      </trkpt>
      <trkpt lat="47.10575" lon="-1.726">
        <ele>71</ele>
        <time>2011-09-04T10:09:50Z</time>
      </trkpt>
      <trkpt lat="47.10578" lon="-1.72594">
        <ele>71</ele>
        <time>2011-09-04T10:09:51Z</time>
      </trkpt>
      <trkpt lat="47.1058" lon="-1.72588">
        <ele>71</ele>
        <time>2011-09-04T10:09:52Z</time>
      </trkpt>
      <trkpt lat="47.10583" lon="-1.72576">
        <ele>70</ele>
        <time>2011-09-04T10:09:54Z</time>
      </trkpt>
      <trkpt lat="47.10585" lon="-1.72571">
        <ele>70</ele>
        <time>2011-09-04T10:09:55Z</time>
      </trkpt>
      <trkpt lat="47.10588" lon="-1.72559">
        <ele>70</ele>
        <time>2011-09-04T10:09:57Z</time>
      </trkpt>
      <trkpt lat="47.10589" lon="-1.72552">
        <ele>70</ele>
        <time>2011-09-04T10:09:58Z</time>
      </trkpt>
      <trkpt lat="47.1059" lon="-1.72545">
        <ele>69</ele>
        <time>2011-09-04T10:09:59Z</time>
      </trkpt>
      <trkpt lat="47.10594" lon="-1.72539">
        <ele>69</ele>
        <time>2011-09-04T10:10:00Z</time>
      </trkpt>
      <trkpt lat="47.10596" lon="-1.72533">
        <ele>69</ele>
        <time>2011-09-04T10:10:01Z</time>
      </trkpt>
      <trkpt lat="47.10599" lon="-1.72527">
        <ele>69</ele>
        <time>2011-09-04T10:10:02Z</time>
      </trkpt>
      <trkpt lat="47.10602" lon="-1.72521">
        <ele>68</ele>
        <time>2011-09-04T10:10:03Z</time>
      </trkpt>
      <trkpt lat="47.10604" lon="-1.72515">
        <ele>69</ele>
        <time>2011-09-04T10:10:04Z</time>
      </trkpt>
      <trkpt lat="47.10607" lon="-1.72509">
        <ele>69</ele>
        <time>2011-09-04T10:10:05Z</time>
      </trkpt>
      <trkpt lat="47.1061" lon="-1.72502">
        <ele>68</ele>
        <time>2011-09-04T10:10:06Z</time>
      </trkpt>
      <trkpt lat="47.10612" lon="-1.72497">
        <ele>68</ele>
        <time>2011-09-04T10:10:07Z</time>
      </trkpt>
      <trkpt lat="47.10615" lon="-1.7249">
        <ele>68</ele>
        <time>2011-09-04T10:10:08Z</time>
      </trkpt>
      <trkpt lat="47.10618" lon="-1.72484">
        <ele>68</ele>
        <time>2011-09-04T10:10:09Z</time>
      </trkpt>
      <trkpt lat="47.1062" lon="-1.72477">
        <ele>68</ele>
        <time>2011-09-04T10:10:10Z</time>
      </trkpt>
      <trkpt lat="47.10623" lon="-1.7247">
        <ele>68</ele>
        <time>2011-09-04T10:10:11Z</time>
      </trkpt>
      <trkpt lat="47.10626" lon="-1.72463">
        <ele>68</ele>
        <time>2011-09-04T10:10:12Z</time>
      </trkpt>
      <trkpt lat="47.10629" lon="-1.72457">
        <ele>68</ele>
        <time>2011-09-04T10:10:13Z</time>
      </trkpt>
      <trkpt lat="47.10631" lon="-1.7245">
        <ele>68</ele>
        <time>2011-09-04T10:10:14Z</time>
      </trkpt>
      <trkpt lat="47.10635" lon="-1.72444">
        <ele>68</ele>
        <time>2011-09-04T10:10:15Z</time>
      </trkpt>
      <trkpt lat="47.10638" lon="-1.72437">
        <ele>68</ele>
        <time>2011-09-04T10:10:16Z</time>
      </trkpt>
      <trkpt lat="47.1064" lon="-1.7243">
        <ele>68</ele>
        <time>2011-09-04T10:10:17Z</time>
      </trkpt>
      <trkpt lat="47.10642" lon="-1.72422">
        <ele>67</ele>
        <time>2011-09-04T10:10:18Z</time>
      </trkpt>
      <trkpt lat="47.10646" lon="-1.72415">
        <ele>67</ele>
        <time>2011-09-04T10:10:19Z</time>
      </trkpt>
      <trkpt lat="47.10649" lon="-1.72406">
        <ele>68</ele>
        <time>2011-09-04T10:10:20Z</time>
      </trkpt>
      <trkpt lat="47.10652" lon="-1.72399">
        <ele>68</ele>
        <time>2011-09-04T10:10:21Z</time>
      </trkpt>
      <trkpt lat="47.10656" lon="-1.72391">
        <ele>68</ele>
        <time>2011-09-04T10:10:22Z</time>
      </trkpt>
      <trkpt lat="47.1066" lon="-1.72384">
        <ele>68</ele>
        <time>2011-09-04T10:10:23Z</time>
      </trkpt>
      <trkpt lat="47.10665" lon="-1.72376">
        <ele>68</ele>
        <time>2011-09-04T10:10:24Z</time>
      </trkpt>
      <trkpt lat="47.10669" lon="-1.72368">
        <ele>67</ele>
        <time>2011-09-04T10:10:25Z</time>
      </trkpt>
      <trkpt lat="47.10674" lon="-1.7236">
        <ele>67</ele>
        <time>2011-09-04T10:10:26Z</time>
      </trkpt>
      <trkpt lat="47.10678" lon="-1.72351">
        <ele>66</ele>
        <time>2011-09-04T10:10:27Z</time>
      </trkpt>
      <trkpt lat="47.10683" lon="-1.72343">
        <ele>66</ele>
        <time>2011-09-04T10:10:28Z</time>
      </trkpt>
      <trkpt lat="47.10688" lon="-1.72334">
        <ele>66</ele>
        <time>2011-09-04T10:10:29Z</time>
      </trkpt>
      <trkpt lat="47.10692" lon="-1.72326">
        <ele>66</ele>
        <time>2011-09-04T10:10:30Z</time>
      </trkpt>
      <trkpt lat="47.10697" lon="-1.72317">
        <ele>66</ele>
        <time>2011-09-04T10:10:31Z</time>
      </trkpt>
      <trkpt lat="47.10702" lon="-1.72309">
        <ele>66</ele>
        <time>2011-09-04T10:10:32Z</time>
      </trkpt>
      <trkpt lat="47.10707" lon="-1.72301">
        <ele>66</ele>
        <time>2011-09-04T10:10:33Z</time>
      </trkpt>
      <trkpt lat="47.10713" lon="-1.72293">
        <ele>66</ele>
        <time>2011-09-04T10:10:34Z</time>
      </trkpt>
      <trkpt lat="47.10717" lon="-1.72285">
        <ele>66</ele>
        <time>2011-09-04T10:10:35Z</time>
      </trkpt>
      <trkpt lat="47.10722" lon="-1.72277">
        <ele>66</ele>
        <time>2011-09-04T10:10:36Z</time>
      </trkpt>
      <trkpt lat="47.10727" lon="-1.72269">
        <ele>65</ele>
        <time>2011-09-04T10:10:37Z</time>
      </trkpt>
      <trkpt lat="47.10732" lon="-1.72262">
        <ele>65</ele>
        <time>2011-09-04T10:10:38Z</time>
      </trkpt>
      <trkpt lat="47.1074" lon="-1.72255">
        <ele>66</ele>
        <time>2011-09-04T10:10:39Z</time>
      </trkpt>
      <trkpt lat="47.10746" lon="-1.72249">
        <ele>66</ele>
        <time>2011-09-04T10:10:40Z</time>
      </trkpt>
      <trkpt lat="47.10752" lon="-1.72244">
        <ele>66</ele>
        <time>2011-09-04T10:10:41Z</time>
      </trkpt>
      <trkpt lat="47.10757" lon="-1.7224">
        <ele>66</ele>
        <time>2011-09-04T10:10:42Z</time>
      </trkpt>
      <trkpt lat="47.10764" lon="-1.72236">
        <ele>66</ele>
        <time>2011-09-04T10:10:43Z</time>
      </trkpt>
      <trkpt lat="47.10769" lon="-1.72232">
        <ele>66</ele>
        <time>2011-09-04T10:10:44Z</time>
      </trkpt>
      <trkpt lat="47.10775" lon="-1.72228">
        <ele>66</ele>
        <time>2011-09-04T10:10:45Z</time>
      </trkpt>
      <trkpt lat="47.10781" lon="-1.72225">
        <ele>66</ele>
        <time>2011-09-04T10:10:46Z</time>
      </trkpt>
      <trkpt lat="47.10788" lon="-1.72222">
        <ele>66</ele>
        <time>2011-09-04T10:10:47Z</time>
      </trkpt>
      <trkpt lat="47.10794" lon="-1.72218">
        <ele>66</ele>
        <time>2011-09-04T10:10:48Z</time>
      </trkpt>
      <trkpt lat="47.108" lon="-1.72214">
        <ele>66</ele>
        <time>2011-09-04T10:10:49Z</time>
      </trkpt>
      <trkpt lat="47.10806" lon="-1.7221">
        <ele>66</ele>
        <time>2011-09-04T10:10:50Z</time>
      </trkpt>
      <trkpt lat="47.10812" lon="-1.72206">
        <ele>66</ele>
        <time>2011-09-04T10:10:51Z</time>
      </trkpt>
      <trkpt lat="47.10818" lon="-1.72202">
        <ele>66</ele>
        <time>2011-09-04T10:10:52Z</time>
      </trkpt>
      <trkpt lat="47.10823" lon="-1.72195">
        <ele>65</ele>
        <time>2011-09-04T10:10:53Z</time>
      </trkpt>
      <trkpt lat="47.10827" lon="-1.72189">
        <ele>65</ele>
        <time>2011-09-04T10:10:54Z</time>
      </trkpt>
      <trkpt lat="47.10832" lon="-1.72184">
        <ele>65</ele>
        <time>2011-09-04T10:10:55Z</time>
      </trkpt>
      <trkpt lat="47.10836" lon="-1.72178">
        <ele>64</ele>
        <time>2011-09-04T10:10:56Z</time>
      </trkpt>
      <trkpt lat="47.10838" lon="-1.72173">
        <ele>64</ele>
        <time>2011-09-04T10:10:57Z</time>
      </trkpt>
      <trkpt lat="47.10843" lon="-1.72164">
        <ele>62</ele>
        <time>2011-09-04T10:10:59Z</time>
      </trkpt>
      <trkpt lat="47.10847" lon="-1.7216">
        <ele>61</ele>
        <time>2011-09-04T10:11:01Z</time>
      </trkpt>
      <trkpt lat="47.10855" lon="-1.7216">
        <ele>61</ele>
        <time>2011-09-04T10:11:03Z</time>
      </trkpt>
      <trkpt lat="47.1086" lon="-1.72166">
        <ele>61</ele>
        <time>2011-09-04T10:11:05Z</time>
      </trkpt>
      <trkpt lat="47.10863" lon="-1.72173">
        <ele>60</ele>
        <time>2011-09-04T10:11:07Z</time>
      </trkpt>
      <trkpt lat="47.10867" lon="-1.72185">
        <ele>60</ele>
        <time>2011-09-04T10:11:09Z</time>
      </trkpt>
      <trkpt lat="47.1087" lon="-1.72197">
        <ele>59</ele>
        <time>2011-09-04T10:11:11Z</time>
      </trkpt>
      <trkpt lat="47.10872" lon="-1.72204">
        <ele>59</ele>
        <time>2011-09-04T10:11:12Z</time>
      </trkpt>
      <trkpt lat="47.10874" lon="-1.72211">
        <ele>59</ele>
        <time>2011-09-04T10:11:13Z</time>
      </trkpt>
      <trkpt lat="47.10875" lon="-1.72218">
        <ele>59</ele>
        <time>2011-09-04T10:11:14Z</time>
      </trkpt>
      <trkpt lat="47.10877" lon="-1.72225">
        <ele>59</ele>
        <time>2011-09-04T10:11:15Z</time>
      </trkpt>
      <trkpt lat="47.10878" lon="-1.72233">
        <ele>59</ele>
        <time>2011-09-04T10:11:16Z</time>
      </trkpt>
      <trkpt lat="47.10881" lon="-1.7224">
        <ele>59</ele>
        <time>2011-09-04T10:11:17Z</time>
      </trkpt>
      <trkpt lat="47.10882" lon="-1.72247">
        <ele>58</ele>
        <time>2011-09-04T10:11:18Z</time>
      </trkpt>
      <trkpt lat="47.10884" lon="-1.72255">
        <ele>58</ele>
        <time>2011-09-04T10:11:19Z</time>
      </trkpt>
      <trkpt lat="47.10885" lon="-1.72262">
        <ele>58</ele>
        <time>2011-09-04T10:11:20Z</time>
      </trkpt>
      <trkpt lat="47.10887" lon="-1.72269">
        <ele>58</ele>
        <time>2011-09-04T10:11:21Z</time>
      </trkpt>
      <trkpt lat="47.10889" lon="-1.72277">
        <ele>57</ele>
        <time>2011-09-04T10:11:22Z</time>
      </trkpt>
      <trkpt lat="47.10891" lon="-1.72284">
        <ele>57</ele>
        <time>2011-09-04T10:11:23Z</time>
      </trkpt>
      <trkpt lat="47.10892" lon="-1.72291">
        <ele>57</ele>
        <time>2011-09-04T10:11:24Z</time>
      </trkpt>
      <trkpt lat="47.10894" lon="-1.72298">
        <ele>57</ele>
        <time>2011-09-04T10:11:25Z</time>
      </trkpt>
      <trkpt lat="47.10896" lon="-1.72305">
        <ele>57</ele>
        <time>2011-09-04T10:11:26Z</time>
      </trkpt>
      <trkpt lat="47.10897" lon="-1.72312">
        <ele>57</ele>
        <time>2011-09-04T10:11:27Z</time>
      </trkpt>
      <trkpt lat="47.10899" lon="-1.72319">
        <ele>57</ele>
        <time>2011-09-04T10:11:28Z</time>
      </trkpt>
      <trkpt lat="47.109" lon="-1.72325">
        <ele>57</ele>
        <time>2011-09-04T10:11:29Z</time>
      </trkpt>
      <trkpt lat="47.10902" lon="-1.72332">
        <ele>57</ele>
        <time>2011-09-04T10:11:30Z</time>
      </trkpt>
      <trkpt lat="47.10904" lon="-1.72338">
        <ele>57</ele>
        <time>2011-09-04T10:11:31Z</time>
      </trkpt>
      <trkpt lat="47.10906" lon="-1.72345">
        <ele>57</ele>
        <time>2011-09-04T10:11:32Z</time>
      </trkpt>
      <trkpt lat="47.10909" lon="-1.72351">
        <ele>57</ele>
        <time>2011-09-04T10:11:33Z</time>
      </trkpt>
      <trkpt lat="47.10914" lon="-1.72361">
        <ele>57</ele>
        <time>2011-09-04T10:11:35Z</time>
      </trkpt>
      <trkpt lat="47.10918" lon="-1.72366">
        <ele>57</ele>
        <time>2011-09-04T10:11:36Z</time>
      </trkpt>
      <trkpt lat="47.10922" lon="-1.72375">
        <ele>57</ele>
        <time>2011-09-04T10:11:38Z</time>
      </trkpt>
      <trkpt lat="47.10924" lon="-1.72383">
        <ele>57</ele>
        <time>2011-09-04T10:11:40Z</time>
      </trkpt>
      <trkpt lat="47.10926" lon="-1.7239">
        <ele>57</ele>
        <time>2011-09-04T10:11:42Z</time>
      </trkpt>
      <trkpt lat="47.10928" lon="-1.72397">
        <ele>57</ele>
        <time>2011-09-04T10:11:44Z</time>
      </trkpt>
      <trkpt lat="47.10931" lon="-1.72406">
        <ele>57</ele>
        <time>2011-09-04T10:11:46Z</time>
      </trkpt>
      <trkpt lat="47.10933" lon="-1.72414">
        <ele>57</ele>
        <time>2011-09-04T10:11:48Z</time>
      </trkpt>
      <trkpt lat="47.10934" lon="-1.72422">
        <ele>57</ele>
        <time>2011-09-04T10:11:50Z</time>
      </trkpt>
      <trkpt lat="47.10936" lon="-1.7243">
        <ele>57</ele>
        <time>2011-09-04T10:11:52Z</time>
      </trkpt>
      <trkpt lat="47.10938" lon="-1.72438">
        <ele>57</ele>
        <time>2011-09-04T10:11:54Z</time>
      </trkpt>
      <trkpt lat="47.1094" lon="-1.72447">
        <ele>57</ele>
        <time>2011-09-04T10:11:56Z</time>
      </trkpt>
      <trkpt lat="47.10942" lon="-1.72456">
        <ele>57</ele>
        <time>2011-09-04T10:11:58Z</time>
      </trkpt>
      <trkpt lat="47.10946" lon="-1.72465">
        <ele>57</ele>
        <time>2011-09-04T10:12:00Z</time>
      </trkpt>
      <trkpt lat="47.10948" lon="-1.72472">
        <ele>57</ele>
        <time>2011-09-04T10:12:02Z</time>
      </trkpt>
      <trkpt lat="47.1095" lon="-1.7248">
        <ele>57</ele>
        <time>2011-09-04T10:12:04Z</time>
      </trkpt>
      <trkpt lat="47.10953" lon="-1.72486">
        <ele>57</ele>
        <time>2011-09-04T10:12:06Z</time>
      </trkpt>
      <trkpt lat="47.10956" lon="-1.72494">
        <ele>57</ele>
        <time>2011-09-04T10:12:08Z</time>
      </trkpt>
      <trkpt lat="47.10959" lon="-1.72502">
        <ele>57</ele>
        <time>2011-09-04T10:12:10Z</time>
      </trkpt>
      <trkpt lat="47.10963" lon="-1.72509">
        <ele>57</ele>
        <time>2011-09-04T10:12:12Z</time>
      </trkpt>
      <trkpt lat="47.10971" lon="-1.72514">
        <ele>58</ele>
        <time>2011-09-04T10:12:14Z</time>
      </trkpt>
      <trkpt lat="47.10978" lon="-1.72518">
        <ele>58</ele>
        <time>2011-09-04T10:12:16Z</time>
      </trkpt>
      <trkpt lat="47.10986" lon="-1.72524">
        <ele>58</ele>
        <time>2011-09-04T10:12:19Z</time>
      </trkpt>
      <trkpt lat="47.10991" lon="-1.72527">
        <ele>59</ele>
        <time>2011-09-04T10:12:21Z</time>
      </trkpt>
      <trkpt lat="47.10996" lon="-1.7253">
        <ele>60</ele>
        <time>2011-09-04T10:12:23Z</time>
      </trkpt>
      <trkpt lat="47.11001" lon="-1.72535">
        <ele>61</ele>
        <time>2011-09-04T10:12:26Z</time>
      </trkpt>
      <trkpt lat="47.11006" lon="-1.7254">
        <ele>62</ele>
        <time>2011-09-04T10:12:29Z</time>
      </trkpt>
      <trkpt lat="47.11011" lon="-1.72542">
        <ele>63</ele>
        <time>2011-09-04T10:12:31Z</time>
      </trkpt>
      <trkpt lat="47.11016" lon="-1.72545">
        <ele>64</ele>
        <time>2011-09-04T10:12:33Z</time>
      </trkpt>
      <trkpt lat="47.1102" lon="-1.72549">
        <ele>64</ele>
        <time>2011-09-04T10:12:35Z</time>
      </trkpt>
      <trkpt lat="47.11024" lon="-1.72551">
        <ele>65</ele>
        <time>2011-09-04T10:12:37Z</time>
      </trkpt>
      <trkpt lat="47.11029" lon="-1.72554">
        <ele>66</ele>
        <time>2011-09-04T10:12:39Z</time>
      </trkpt>
      <trkpt lat="47.11034" lon="-1.72558">
        <ele>67</ele>
        <time>2011-09-04T10:12:42Z</time>
      </trkpt>
      <trkpt lat="47.1104" lon="-1.72561">
        <ele>67</ele>
        <time>2011-09-04T10:12:45Z</time>
      </trkpt>
      <trkpt lat="47.11044" lon="-1.72562">
        <ele>67</ele>
        <time>2011-09-04T10:12:47Z</time>
      </trkpt>
      <trkpt lat="47.11049" lon="-1.72566">
        <ele>68</ele>
        <time>2011-09-04T10:12:49Z</time>
      </trkpt>
      <trkpt lat="47.11043" lon="-1.72568">
        <ele>70</ele>
        <time>2011-09-04T10:12:56Z</time>
      </trkpt>
      <trkpt lat="47.11035" lon="-1.72569">
        <ele>71</ele>
        <time>2011-09-04T10:12:59Z</time>
      </trkpt>
      <trkpt lat="47.1103" lon="-1.72571">
        <ele>72</ele>
        <time>2011-09-04T10:13:01Z</time>
      </trkpt>
      <trkpt lat="47.11025" lon="-1.72573">
        <ele>72</ele>
        <time>2011-09-04T10:13:04Z</time>
      </trkpt>
      <trkpt lat="47.11021" lon="-1.72571">
        <ele>73</ele>
        <time>2011-09-04T10:13:10Z</time>
      </trkpt>
      <trkpt lat="47.11021" lon="-1.72571">
        <ele>73</ele>
        <time>2011-09-04T10:13:10Z</time>
      </trkpt>
      <trkpt lat="47.11021" lon="-1.72571">
        <ele>74</ele>
        <time>2011-09-04T10:13:11Z</time>
      </trkpt>
      <trkpt lat="47.11016" lon="-1.72568">
        <ele>75</ele>
        <time>2011-09-04T10:13:28Z</time>
      </trkpt>
      <trkpt lat="47.11016" lon="-1.72568">
        <ele>75</ele>
        <time>2011-09-04T10:13:28Z</time>
      </trkpt>
      <trkpt lat="47.11016" lon="-1.72568">
        <ele>75</ele>
        <time>2011-09-04T10:13:29Z</time>
      </trkpt>
      <trkpt lat="47.11008" lon="-1.72579">
        <ele>73</ele>
        <time>2011-09-04T10:13:43Z</time>
      </trkpt>
      <trkpt lat="47.11006" lon="-1.72586">
        <ele>72</ele>
        <time>2011-09-04T10:13:45Z</time>
      </trkpt>
      <trkpt lat="47.11004" lon="-1.72593">
        <ele>72</ele>
        <time>2011-09-04T10:13:47Z</time>
      </trkpt>
      <trkpt lat="47.11002" lon="-1.72601">
        <ele>71</ele>
        <time>2011-09-04T10:13:49Z</time>
      </trkpt>
      <trkpt lat="47.11001" lon="-1.72608">
        <ele>72</ele>
        <time>2011-09-04T10:13:51Z</time>
      </trkpt>
      <trkpt lat="47.10999" lon="-1.72616">
        <ele>72</ele>
        <time>2011-09-04T10:13:53Z</time>
      </trkpt>
      <trkpt lat="47.10997" lon="-1.72623">
        <ele>71</ele>
        <time>2011-09-04T10:13:55Z</time>
      </trkpt>
      <trkpt lat="47.10994" lon="-1.7263">
        <ele>71</ele>
        <time>2011-09-04T10:13:57Z</time>
      </trkpt>
      <trkpt lat="47.10992" lon="-1.72636">
        <ele>71</ele>
        <time>2011-09-04T10:13:59Z</time>
      </trkpt>
      <trkpt lat="47.1099" lon="-1.72642">
        <ele>71</ele>
        <time>2011-09-04T10:14:01Z</time>
      </trkpt>
      <trkpt lat="47.10987" lon="-1.72651">
        <ele>71</ele>
        <time>2011-09-04T10:14:04Z</time>
      </trkpt>
      <trkpt lat="47.10984" lon="-1.72657">
        <ele>71</ele>
        <time>2011-09-04T10:14:06Z</time>
      </trkpt>
      <trkpt lat="47.1098" lon="-1.72664">
        <ele>70</ele>
        <time>2011-09-04T10:14:08Z</time>
      </trkpt>
      <trkpt lat="47.10977" lon="-1.7267">
        <ele>70</ele>
        <time>2011-09-04T10:14:10Z</time>
      </trkpt>
      <trkpt lat="47.10973" lon="-1.72676">
        <ele>70</ele>
        <time>2011-09-04T10:14:12Z</time>
      </trkpt>
      <trkpt lat="47.1097" lon="-1.72684">
        <ele>70</ele>
        <time>2011-09-04T10:14:15Z</time>
      </trkpt>
      <trkpt lat="47.10966" lon="-1.72689">
        <ele>69</ele>
        <time>2011-09-04T10:14:17Z</time>
      </trkpt>
      <trkpt lat="47.10963" lon="-1.72694">
        <ele>70</ele>
        <time>2011-09-04T10:14:19Z</time>
      </trkpt>
      <trkpt lat="47.10959" lon="-1.727">
        <ele>70</ele>
        <time>2011-09-04T10:14:21Z</time>
      </trkpt>
      <trkpt lat="47.10956" lon="-1.72705">
        <ele>70</ele>
        <time>2011-09-04T10:14:23Z</time>
      </trkpt>
      <trkpt lat="47.10951" lon="-1.72711">
        <ele>70</ele>
        <time>2011-09-04T10:14:25Z</time>
      </trkpt>
      <trkpt lat="47.10944" lon="-1.72716">
        <ele>69</ele>
        <time>2011-09-04T10:14:27Z</time>
      </trkpt>
      <trkpt lat="47.10938" lon="-1.72721">
        <ele>68</ele>
        <time>2011-09-04T10:14:29Z</time>
      </trkpt>
      <trkpt lat="47.1093" lon="-1.72727">
        <ele>68</ele>
        <time>2011-09-04T10:14:31Z</time>
      </trkpt>
      <trkpt lat="47.10923" lon="-1.72735">
        <ele>67</ele>
        <time>2011-09-04T10:14:33Z</time>
      </trkpt>
      <trkpt lat="47.10916" lon="-1.72743">
        <ele>67</ele>
        <time>2011-09-04T10:14:35Z</time>
      </trkpt>
      <trkpt lat="47.10913" lon="-1.72747">
        <ele>67</ele>
        <time>2011-09-04T10:14:36Z</time>
      </trkpt>
      <trkpt lat="47.10908" lon="-1.72752">
        <ele>67</ele>
        <time>2011-09-04T10:14:37Z</time>
      </trkpt>
      <trkpt lat="47.10902" lon="-1.7276">
        <ele>66</ele>
        <time>2011-09-04T10:14:39Z</time>
      </trkpt>
      <trkpt lat="47.10898" lon="-1.72765">
        <ele>66</ele>
        <time>2011-09-04T10:14:40Z</time>
      </trkpt>
      <trkpt lat="47.10894" lon="-1.7277">
        <ele>66</ele>
        <time>2011-09-04T10:14:41Z</time>
      </trkpt>
      <trkpt lat="47.10891" lon="-1.72774">
        <ele>66</ele>
        <time>2011-09-04T10:14:42Z</time>
      </trkpt>
      <trkpt lat="47.10884" lon="-1.72782">
        <ele>66</ele>
        <time>2011-09-04T10:14:44Z</time>
      </trkpt>
      <trkpt lat="47.10878" lon="-1.7279">
        <ele>65</ele>
        <time>2011-09-04T10:14:46Z</time>
      </trkpt>
      <trkpt lat="47.10871" lon="-1.72797">
        <ele>65</ele>
        <time>2011-09-04T10:14:48Z</time>
      </trkpt>
      <trkpt lat="47.10864" lon="-1.72803">
        <ele>65</ele>
        <time>2011-09-04T10:14:50Z</time>
      </trkpt>
      <trkpt lat="47.10859" lon="-1.72811">
        <ele>65</ele>
        <time>2011-09-04T10:14:52Z</time>
      </trkpt>
      <trkpt lat="47.10854" lon="-1.7282">
        <ele>64</ele>
        <time>2011-09-04T10:14:54Z</time>
      </trkpt>
      <trkpt lat="47.1085" lon="-1.72827">
        <ele>64</ele>
        <time>2011-09-04T10:14:56Z</time>
      </trkpt>
      <trkpt lat="47.10845" lon="-1.72834">
        <ele>64</ele>
        <time>2011-09-04T10:14:58Z</time>
      </trkpt>
      <trkpt lat="47.10843" lon="-1.72842">
        <ele>64</ele>
        <time>2011-09-04T10:15:00Z</time>
      </trkpt>
      <trkpt lat="47.10846" lon="-1.72848">
        <ele>64</ele>
        <time>2011-09-04T10:15:03Z</time>
      </trkpt>
      <trkpt lat="47.10851" lon="-1.72848">
        <ele>66</ele>
        <time>2011-09-04T10:15:04Z</time>
      </trkpt>
      <trkpt lat="47.10856" lon="-1.7285">
        <ele>67</ele>
        <time>2011-09-04T10:15:05Z</time>
      </trkpt>
      <trkpt lat="47.10863" lon="-1.72853">
        <ele>68</ele>
        <time>2011-09-04T10:15:07Z</time>
      </trkpt>
      <trkpt lat="47.1087" lon="-1.72858">
        <ele>69</ele>
        <time>2011-09-04T10:15:09Z</time>
      </trkpt>
      <trkpt lat="47.10877" lon="-1.72865">
        <ele>69</ele>
        <time>2011-09-04T10:15:11Z</time>
      </trkpt>
      <trkpt lat="47.10884" lon="-1.72871">
        <ele>70</ele>
        <time>2011-09-04T10:15:13Z</time>
      </trkpt>
      <trkpt lat="47.1089" lon="-1.72878">
        <ele>71</ele>
        <time>2011-09-04T10:15:15Z</time>
      </trkpt>
      <trkpt lat="47.10896" lon="-1.72886">
        <ele>71</ele>
        <time>2011-09-04T10:15:17Z</time>
      </trkpt>
      <trkpt lat="47.109" lon="-1.72893">
        <ele>72</ele>
        <time>2011-09-04T10:15:19Z</time>
      </trkpt>
      <trkpt lat="47.10906" lon="-1.729">
        <ele>72</ele>
        <time>2011-09-04T10:15:21Z</time>
      </trkpt>
      <trkpt lat="47.10911" lon="-1.72907">
        <ele>72</ele>
        <time>2011-09-04T10:15:23Z</time>
      </trkpt>
      <trkpt lat="47.10916" lon="-1.72913">
        <ele>72</ele>
        <time>2011-09-04T10:15:25Z</time>
      </trkpt>
      <trkpt lat="47.1092" lon="-1.7292">
        <ele>72</ele>
        <time>2011-09-04T10:15:27Z</time>
      </trkpt>
      <trkpt lat="47.10925" lon="-1.72925">
        <ele>72</ele>
        <time>2011-09-04T10:15:29Z</time>
      </trkpt>
      <trkpt lat="47.10928" lon="-1.7293">
        <ele>72</ele>
        <time>2011-09-04T10:15:31Z</time>
      </trkpt>
      <trkpt lat="47.10933" lon="-1.72936">
        <ele>73</ele>
        <time>2011-09-04T10:15:33Z</time>
      </trkpt>
      <trkpt lat="47.10938" lon="-1.72943">
        <ele>73</ele>
        <time>2011-09-04T10:15:35Z</time>
      </trkpt>
      <trkpt lat="47.10944" lon="-1.72949">
        <ele>73</ele>
        <time>2011-09-04T10:15:37Z</time>
      </trkpt>
      <trkpt lat="47.10949" lon="-1.72955">
        <ele>74</ele>
        <time>2011-09-04T10:15:39Z</time>
      </trkpt>
      <trkpt lat="47.10954" lon="-1.7296">
        <ele>74</ele>
        <time>2011-09-04T10:15:41Z</time>
      </trkpt>
      <trkpt lat="47.10959" lon="-1.72964">
        <ele>74</ele>
        <time>2011-09-04T10:15:43Z</time>
      </trkpt>
      <trkpt lat="47.10964" lon="-1.72969">
        <ele>75</ele>
        <time>2011-09-04T10:15:45Z</time>
      </trkpt>
      <trkpt lat="47.10969" lon="-1.72976">
        <ele>75</ele>
        <time>2011-09-04T10:15:47Z</time>
      </trkpt>
      <trkpt lat="47.10974" lon="-1.72982">
        <ele>75</ele>
        <time>2011-09-04T10:15:49Z</time>
      </trkpt>
      <trkpt lat="47.10979" lon="-1.7299">
        <ele>75</ele>
        <time>2011-09-04T10:15:51Z</time>
      </trkpt>
      <trkpt lat="47.10984" lon="-1.72997">
        <ele>75</ele>
        <time>2011-09-04T10:15:53Z</time>
      </trkpt>
      <trkpt lat="47.10988" lon="-1.73005">
        <ele>75</ele>
        <time>2011-09-04T10:15:55Z</time>
      </trkpt>
      <trkpt lat="47.10993" lon="-1.73012">
        <ele>75</ele>
        <time>2011-09-04T10:15:57Z</time>
      </trkpt>
      <trkpt lat="47.10997" lon="-1.73019">
        <ele>75</ele>
        <time>2011-09-04T10:15:59Z</time>
      </trkpt>
      <trkpt lat="47.11001" lon="-1.73026">
        <ele>75</ele>
        <time>2011-09-04T10:16:01Z</time>
      </trkpt>
      <trkpt lat="47.11005" lon="-1.73035">
        <ele>74</ele>
        <time>2011-09-04T10:16:03Z</time>
      </trkpt>
      <trkpt lat="47.11007" lon="-1.73043">
        <ele>73</ele>
        <time>2011-09-04T10:16:05Z</time>
      </trkpt>
      <trkpt lat="47.11003" lon="-1.7305">
        <ele>74</ele>
        <time>2011-09-04T10:16:07Z</time>
      </trkpt>
      <trkpt lat="47.10996" lon="-1.73055">
        <ele>76</ele>
        <time>2011-09-04T10:16:09Z</time>
      </trkpt>
      <trkpt lat="47.10991" lon="-1.73059">
        <ele>77</ele>
        <time>2011-09-04T10:16:11Z</time>
      </trkpt>
      <trkpt lat="47.10985" lon="-1.73065">
        <ele>76</ele>
        <time>2011-09-04T10:16:13Z</time>
      </trkpt>
      <trkpt lat="47.10979" lon="-1.7307">
        <ele>76</ele>
        <time>2011-09-04T10:16:15Z</time>
      </trkpt>
      <trkpt lat="47.10974" lon="-1.73074">
        <ele>76</ele>
        <time>2011-09-04T10:16:17Z</time>
      </trkpt>
      <trkpt lat="47.10971" lon="-1.73079">
        <ele>76</ele>
        <time>2011-09-04T10:16:19Z</time>
      </trkpt>
      <trkpt lat="47.10966" lon="-1.73085">
        <ele>75</ele>
        <time>2011-09-04T10:16:22Z</time>
      </trkpt>
      <trkpt lat="47.10961" lon="-1.73088">
        <ele>75</ele>
        <time>2011-09-04T10:16:26Z</time>
      </trkpt>
      <trkpt lat="47.10957" lon="-1.73093">
        <ele>75</ele>
        <time>2011-09-04T10:16:29Z</time>
      </trkpt>
      <trkpt lat="47.10956" lon="-1.73101">
        <ele>74</ele>
        <time>2011-09-04T10:16:32Z</time>
      </trkpt>
      <trkpt lat="47.10955" lon="-1.73109">
        <ele>73</ele>
        <time>2011-09-04T10:16:35Z</time>
      </trkpt>
      <trkpt lat="47.10955" lon="-1.73116">
        <ele>73</ele>
        <time>2011-09-04T10:16:38Z</time>
      </trkpt>
      <trkpt lat="47.10958" lon="-1.73122">
        <ele>75</ele>
        <time>2011-09-04T10:16:41Z</time>
      </trkpt>
      <trkpt lat="47.10961" lon="-1.73126">
        <ele>74</ele>
        <time>2011-09-04T10:16:44Z</time>
      </trkpt>
      <trkpt lat="47.10965" lon="-1.73124">
        <ele>75</ele>
        <time>2011-09-04T10:16:53Z</time>
      </trkpt>
      <trkpt lat="47.1096" lon="-1.7312">
        <ele>73</ele>
        <time>2011-09-04T10:17:06Z</time>
      </trkpt>
      <trkpt lat="47.1096" lon="-1.7312">
        <ele>73</ele>
        <time>2011-09-04T10:17:06Z</time>
      </trkpt>
      <trkpt lat="47.1096" lon="-1.7312">
        <ele>73</ele>
        <time>2011-09-04T10:17:07Z</time>
      </trkpt>
      <trkpt lat="47.1095" lon="-1.73122">
        <ele>72</ele>
        <time>2011-09-04T10:17:21Z</time>
      </trkpt>
      <trkpt lat="47.10944" lon="-1.73121">
        <ele>72</ele>
        <time>2011-09-04T10:17:33Z</time>
      </trkpt>
      <trkpt lat="47.10948" lon="-1.73125">
        <ele>75</ele>
        <time>2011-09-04T10:17:40Z</time>
      </trkpt>
      <trkpt lat="47.10948" lon="-1.73125">
        <ele>75</ele>
        <time>2011-09-04T10:17:40Z</time>
      </trkpt>
      <trkpt lat="47.10948" lon="-1.73125">
        <ele>75</ele>
        <time>2011-09-04T10:17:41Z</time>
      </trkpt>
      <trkpt lat="47.10961" lon="-1.7313">
        <ele>78</ele>
        <time>2011-09-04T10:18:07Z</time>
      </trkpt>
      <trkpt lat="47.10965" lon="-1.73132">
        <ele>83</ele>
        <time>2011-09-04T10:18:19Z</time>
      </trkpt>
      <trkpt lat="47.10965" lon="-1.73132">
        <ele>83</ele>
        <time>2011-09-04T10:18:19Z</time>
      </trkpt>
      <trkpt lat="47.10965" lon="-1.73132">
        <ele>83</ele>
        <time>2011-09-04T10:18:23Z</time>
      </trkpt>
      <trkpt lat="47.10952" lon="-1.73132">
        <ele>77</ele>
        <time>2011-09-04T10:20:49Z</time>
      </trkpt>
      <trkpt lat="47.10947" lon="-1.73133">
        <ele>75</ele>
        <time>2011-09-04T10:20:57Z</time>
      </trkpt>
      <trkpt lat="47.1094" lon="-1.73141">
        <ele>73</ele>
        <time>2011-09-04T10:21:04Z</time>
      </trkpt>
      <trkpt lat="47.10935" lon="-1.73144">
        <ele>70</ele>
        <time>2011-09-04T10:21:08Z</time>
      </trkpt>
      <trkpt lat="47.10932" lon="-1.73149">
        <ele>69</ele>
        <time>2011-09-04T10:21:12Z</time>
      </trkpt>
      <trkpt lat="47.10936" lon="-1.73146">
        <ele>73</ele>
        <time>2011-09-04T10:21:17Z</time>
      </trkpt>
      <trkpt lat="47.10941" lon="-1.73143">
        <ele>76</ele>
        <time>2011-09-04T10:21:19Z</time>
      </trkpt>
      <trkpt lat="47.10936" lon="-1.7314">
        <ele>78</ele>
        <time>2011-09-04T10:21:24Z</time>
      </trkpt>
      <trkpt lat="47.10936" lon="-1.7314">
        <ele>78</ele>
        <time>2011-09-04T10:21:24Z</time>
      </trkpt>
      <trkpt lat="47.10936" lon="-1.7314">
        <ele>79</ele>
        <time>2011-09-04T10:21:25Z</time>
      </trkpt>
      <trkpt lat="47.10941" lon="-1.73136">
        <ele>83</ele>
        <time>2011-09-04T10:21:40Z</time>
      </trkpt>
      <trkpt lat="47.10948" lon="-1.73129">
        <ele>88</ele>
        <time>2011-09-04T10:21:51Z</time>
      </trkpt>
      <trkpt lat="47.10948" lon="-1.73129">
        <ele>88</ele>
        <time>2011-09-04T10:21:51Z</time>
      </trkpt>
      <trkpt lat="47.10948" lon="-1.73129">
        <ele>88</ele>
        <time>2011-09-04T10:21:55Z</time>
      </trkpt>
      <trkpt lat="47.10938" lon="-1.73138">
        <ele>81</ele>
        <time>2011-09-04T10:22:59Z</time>
      </trkpt>
      <trkpt lat="47.10948" lon="-1.73132">
        <ele>84</ele>
        <time>2011-09-04T10:23:43Z</time>
      </trkpt>
      <trkpt lat="47.10937" lon="-1.73133">
        <ele>85</ele>
        <time>2011-09-04T10:24:25Z</time>
      </trkpt>
      <trkpt lat="47.10937" lon="-1.73141">
        <ele>82</ele>
        <time>2011-09-04T10:24:36Z</time>
      </trkpt>
    </trkseg>
  </trk>
</gpx>